<?xml version="1.0" encoding="utf-8"?>
<gpx xmlns:xsi="http://www.w3.org/2001/XMLSchema-instance" xmlns:xsd="http://www.w3.org/2001/XMLSchema" version="1.1" creator="Shapelink.com" xmlns="http://www.topografix.com/GPX/1/1" xmlns:gpxtpx="http://www.garmin.com/xmlschemas/TrackPointExtension/v1">
  <metadata>
    <name>Sykling 44.39 km, 2013-05-18</name>
    <desc></desc>
    <author><name>Mikael Blom</name></author> 
    <time>2013-05-18T17:32:03Z</time>
  </metadata>
  <trk>
    <name>Sykling 44.39 km, 2013-05-18</name>
    <trkseg>
      <trkpt lat="59.9754411" lon="17.7428901">
        <ele>20.8057</ele>
        <time>2013-05-18T17:32:03Z</time>
      </trkpt>
      <trkpt lat="59.9753835" lon="17.7430513">
        <ele>28.0155</ele>
        <time>2013-05-18T17:32:04Z</time>
      </trkpt>
      <trkpt lat="59.9753529" lon="17.7431918">
        <ele>27.0543</ele>
        <time>2013-05-18T17:32:05Z</time>
      </trkpt>
      <trkpt lat="59.9753254" lon="17.7433009">
        <ele>26.5736</ele>
        <time>2013-05-18T17:32:06Z</time>
      </trkpt>
      <trkpt lat="59.9753006" lon="17.743415">
        <ele>26.0929</ele>
        <time>2013-05-18T17:32:07Z</time>
      </trkpt>
      <trkpt lat="59.975278" lon="17.7435326">
        <ele>26.0929</ele>
        <time>2013-05-18T17:32:08Z</time>
      </trkpt>
      <trkpt lat="59.9752595" lon="17.743646">
        <ele>25.1317</ele>
        <time>2013-05-18T17:32:09Z</time>
      </trkpt>
      <trkpt lat="59.9752393" lon="17.7437688">
        <ele>25.1317</ele>
        <time>2013-05-18T17:32:10Z</time>
      </trkpt>
      <trkpt lat="59.975215" lon="17.7438982">
        <ele>25.6123</ele>
        <time>2013-05-18T17:32:11Z</time>
      </trkpt>
      <trkpt lat="59.9751918" lon="17.744023">
        <ele>25.6123</ele>
        <time>2013-05-18T17:32:12Z</time>
      </trkpt>
      <trkpt lat="59.9751675" lon="17.7441506">
        <ele>25.6123</ele>
        <time>2013-05-18T17:32:13Z</time>
      </trkpt>
      <trkpt lat="59.9751406" lon="17.7442719">
        <ele>23.6896</ele>
        <time>2013-05-18T17:32:14Z</time>
      </trkpt>
      <trkpt lat="59.9751126" lon="17.7443913">
        <ele>23.209</ele>
        <time>2013-05-18T17:32:15Z</time>
      </trkpt>
      <trkpt lat="59.9750791" lon="17.7445168">
        <ele>22.7283</ele>
        <time>2013-05-18T17:32:16Z</time>
      </trkpt>
      <trkpt lat="59.9750436" lon="17.744642">
        <ele>22.2476</ele>
        <time>2013-05-18T17:32:17Z</time>
      </trkpt>
      <trkpt lat="59.9750068" lon="17.7447661">
        <ele>22.7283</ele>
        <time>2013-05-18T17:32:18Z</time>
      </trkpt>
      <trkpt lat="59.974968" lon="17.7448887">
        <ele>23.209</ele>
        <time>2013-05-18T17:32:19Z</time>
      </trkpt>
      <trkpt lat="59.9749303" lon="17.7450161">
        <ele>23.209</ele>
        <time>2013-05-18T17:32:20Z</time>
      </trkpt>
      <trkpt lat="59.9748909" lon="17.7451394">
        <ele>23.6896</ele>
        <time>2013-05-18T17:32:21Z</time>
      </trkpt>
      <trkpt lat="59.9748486" lon="17.7452648">
        <ele>24.1703</ele>
        <time>2013-05-18T17:32:22Z</time>
      </trkpt>
      <trkpt lat="59.9748037" lon="17.7453879">
        <ele>24.1703</ele>
        <time>2013-05-18T17:32:23Z</time>
      </trkpt>
      <trkpt lat="59.9747552" lon="17.7455093">
        <ele>23.6896</ele>
        <time>2013-05-18T17:32:24Z</time>
      </trkpt>
      <trkpt lat="59.9747043" lon="17.7456259">
        <ele>22.7283</ele>
        <time>2013-05-18T17:32:25Z</time>
      </trkpt>
      <trkpt lat="59.9746511" lon="17.7457417">
        <ele>22.7283</ele>
        <time>2013-05-18T17:32:26Z</time>
      </trkpt>
      <trkpt lat="59.9745983" lon="17.7458513">
        <ele>23.209</ele>
        <time>2013-05-18T17:32:27Z</time>
      </trkpt>
      <trkpt lat="59.9745463" lon="17.7459454">
        <ele>24.1703</ele>
        <time>2013-05-18T17:32:28Z</time>
      </trkpt>
      <trkpt lat="59.9744916" lon="17.7460386">
        <ele>24.1703</ele>
        <time>2013-05-18T17:32:29Z</time>
      </trkpt>
      <trkpt lat="59.9744356" lon="17.7461286">
        <ele>24.1703</ele>
        <time>2013-05-18T17:32:30Z</time>
      </trkpt>
      <trkpt lat="59.9743703" lon="17.7462361">
        <ele>26.0929</ele>
        <time>2013-05-18T17:32:31Z</time>
      </trkpt>
      <trkpt lat="59.9743028" lon="17.74634">
        <ele>27.0543</ele>
        <time>2013-05-18T17:32:32Z</time>
      </trkpt>
      <trkpt lat="59.9742347" lon="17.7464438">
        <ele>28.4962</ele>
        <time>2013-05-18T17:32:33Z</time>
      </trkpt>
      <trkpt lat="59.9741673" lon="17.7465412">
        <ele>28.9769</ele>
        <time>2013-05-18T17:32:34Z</time>
      </trkpt>
      <trkpt lat="59.9740969" lon="17.7466322">
        <ele>29.4575</ele>
        <time>2013-05-18T17:32:35Z</time>
      </trkpt>
      <trkpt lat="59.9740291" lon="17.7467239">
        <ele>30.4188</ele>
        <time>2013-05-18T17:32:36Z</time>
      </trkpt>
      <trkpt lat="59.9739627" lon="17.7468143">
        <ele>30.8995</ele>
        <time>2013-05-18T17:32:37Z</time>
      </trkpt>
      <trkpt lat="59.9738989" lon="17.7468959">
        <ele>31.3801</ele>
        <time>2013-05-18T17:32:38Z</time>
      </trkpt>
      <trkpt lat="59.9738345" lon="17.7469784">
        <ele>31.8607</ele>
        <time>2013-05-18T17:32:39Z</time>
      </trkpt>
      <trkpt lat="59.973774" lon="17.7470489">
        <ele>32.8223</ele>
        <time>2013-05-18T17:32:40Z</time>
      </trkpt>
      <trkpt lat="59.9737124" lon="17.7471186">
        <ele>33.3029</ele>
        <time>2013-05-18T17:32:41Z</time>
      </trkpt>
      <trkpt lat="59.9736543" lon="17.7471887">
        <ele>33.3029</ele>
        <time>2013-05-18T17:32:42Z</time>
      </trkpt>
      <trkpt lat="59.9735855" lon="17.74726">
        <ele>33.3029</ele>
        <time>2013-05-18T17:32:43Z</time>
      </trkpt>
      <trkpt lat="59.973512" lon="17.7473387">
        <ele>33.3029</ele>
        <time>2013-05-18T17:32:44Z</time>
      </trkpt>
      <trkpt lat="59.9734375" lon="17.7474154">
        <ele>32.8223</ele>
        <time>2013-05-18T17:32:45Z</time>
      </trkpt>
      <trkpt lat="59.9733633" lon="17.7474917">
        <ele>32.3416</ele>
        <time>2013-05-18T17:32:46Z</time>
      </trkpt>
      <trkpt lat="59.9732899" lon="17.747568">
        <ele>31.8607</ele>
        <time>2013-05-18T17:32:47Z</time>
      </trkpt>
      <trkpt lat="59.9732171" lon="17.747643">
        <ele>31.8607</ele>
        <time>2013-05-18T17:32:48Z</time>
      </trkpt>
      <trkpt lat="59.9731467" lon="17.7477213">
        <ele>31.3801</ele>
        <time>2013-05-18T17:32:49Z</time>
      </trkpt>
      <trkpt lat="59.9730792" lon="17.7478031">
        <ele>30.8995</ele>
        <time>2013-05-18T17:32:50Z</time>
      </trkpt>
      <trkpt lat="59.9730133" lon="17.7478865">
        <ele>30.8995</ele>
        <time>2013-05-18T17:32:51Z</time>
      </trkpt>
      <trkpt lat="59.9729492" lon="17.7479702">
        <ele>31.3801</ele>
        <time>2013-05-18T17:32:52Z</time>
      </trkpt>
      <trkpt lat="59.9728863" lon="17.7480548">
        <ele>31.3801</ele>
        <time>2013-05-18T17:32:53Z</time>
      </trkpt>
      <trkpt lat="59.9728298" lon="17.7481439">
        <ele>31.3801</ele>
        <time>2013-05-18T17:32:54Z</time>
      </trkpt>
      <trkpt lat="59.9727785" lon="17.7482377">
        <ele>30.8995</ele>
        <time>2013-05-18T17:32:55Z</time>
      </trkpt>
      <trkpt lat="59.9727299" lon="17.7483392">
        <ele>31.3801</ele>
        <time>2013-05-18T17:32:56Z</time>
      </trkpt>
      <trkpt lat="59.9726858" lon="17.7484417">
        <ele>31.3801</ele>
        <time>2013-05-18T17:32:57Z</time>
      </trkpt>
      <trkpt lat="59.9726452" lon="17.7485397">
        <ele>30.8995</ele>
        <time>2013-05-18T17:32:58Z</time>
      </trkpt>
      <trkpt lat="59.972605" lon="17.7486368">
        <ele>30.4188</ele>
        <time>2013-05-18T17:32:59Z</time>
      </trkpt>
      <trkpt lat="59.9725644" lon="17.7487292">
        <ele>29.9381</ele>
        <time>2013-05-18T17:33:00Z</time>
      </trkpt>
      <trkpt lat="59.9725206" lon="17.7488291">
        <ele>29.4575</ele>
        <time>2013-05-18T17:33:01Z</time>
      </trkpt>
      <trkpt lat="59.9724747" lon="17.7489333">
        <ele>28.9769</ele>
        <time>2013-05-18T17:33:02Z</time>
      </trkpt>
      <trkpt lat="59.9724278" lon="17.749039">
        <ele>29.4575</ele>
        <time>2013-05-18T17:33:03Z</time>
      </trkpt>
      <trkpt lat="59.9723831" lon="17.7491357">
        <ele>28.9769</ele>
        <time>2013-05-18T17:33:04Z</time>
      </trkpt>
      <trkpt lat="59.9723367" lon="17.749225">
        <ele>28.4962</ele>
        <time>2013-05-18T17:33:05Z</time>
      </trkpt>
      <trkpt lat="59.9722986" lon="17.7493084">
        <ele>28.0155</ele>
        <time>2013-05-18T17:33:06Z</time>
      </trkpt>
      <trkpt lat="59.9722615" lon="17.7493959">
        <ele>28.0155</ele>
        <time>2013-05-18T17:33:07Z</time>
      </trkpt>
      <trkpt lat="59.9722204" lon="17.7494991">
        <ele>28.9769</ele>
        <time>2013-05-18T17:33:08Z</time>
      </trkpt>
      <trkpt lat="59.9721787" lon="17.7495985">
        <ele>29.4575</ele>
        <time>2013-05-18T17:33:09Z</time>
      </trkpt>
      <trkpt lat="59.9721433" lon="17.7496735">
        <ele>28.9769</ele>
        <time>2013-05-18T17:33:10Z</time>
      </trkpt>
      <trkpt lat="59.9720967" lon="17.7497644">
        <ele>30.4188</ele>
        <time>2013-05-18T17:33:11Z</time>
      </trkpt>
      <trkpt lat="59.9720543" lon="17.7498539">
        <ele>31.3801</ele>
        <time>2013-05-18T17:33:12Z</time>
      </trkpt>
      <trkpt lat="59.9720121" lon="17.7499508">
        <ele>32.3416</ele>
        <time>2013-05-18T17:33:13Z</time>
      </trkpt>
      <trkpt lat="59.9719633" lon="17.7500619">
        <ele>32.8223</ele>
        <time>2013-05-18T17:33:14Z</time>
      </trkpt>
      <trkpt lat="59.9719119" lon="17.7501748">
        <ele>32.8223</ele>
        <time>2013-05-18T17:33:15Z</time>
      </trkpt>
      <trkpt lat="59.9718538" lon="17.7502993">
        <ele>32.8223</ele>
        <time>2013-05-18T17:33:16Z</time>
      </trkpt>
      <trkpt lat="59.9717899" lon="17.7504329">
        <ele>33.7834</ele>
        <time>2013-05-18T17:33:17Z</time>
      </trkpt>
      <trkpt lat="59.9717296" lon="17.7505537">
        <ele>33.3029</ele>
        <time>2013-05-18T17:33:18Z</time>
      </trkpt>
      <trkpt lat="59.9716623" lon="17.7506686">
        <ele>32.8223</ele>
        <time>2013-05-18T17:33:19Z</time>
      </trkpt>
      <trkpt lat="59.9715879" lon="17.7507909">
        <ele>32.8223</ele>
        <time>2013-05-18T17:33:20Z</time>
      </trkpt>
      <trkpt lat="59.9715174" lon="17.7509033">
        <ele>32.3416</ele>
        <time>2013-05-18T17:33:21Z</time>
      </trkpt>
      <trkpt lat="59.971452" lon="17.7510084">
        <ele>31.3801</ele>
        <time>2013-05-18T17:33:22Z</time>
      </trkpt>
      <trkpt lat="59.971384" lon="17.751108">
        <ele>30.8995</ele>
        <time>2013-05-18T17:33:23Z</time>
      </trkpt>
      <trkpt lat="59.9713115" lon="17.7512002">
        <ele>30.4188</ele>
        <time>2013-05-18T17:33:24Z</time>
      </trkpt>
      <trkpt lat="59.9712363" lon="17.7512834">
        <ele>29.9381</ele>
        <time>2013-05-18T17:33:25Z</time>
      </trkpt>
      <trkpt lat="59.9711607" lon="17.7513675">
        <ele>29.9381</ele>
        <time>2013-05-18T17:33:26Z</time>
      </trkpt>
      <trkpt lat="59.9710854" lon="17.7514504">
        <ele>29.9381</ele>
        <time>2013-05-18T17:33:27Z</time>
      </trkpt>
      <trkpt lat="59.9710084" lon="17.7515313">
        <ele>29.9381</ele>
        <time>2013-05-18T17:33:28Z</time>
      </trkpt>
      <trkpt lat="59.9709365" lon="17.751614">
        <ele>30.4188</ele>
        <time>2013-05-18T17:33:29Z</time>
      </trkpt>
      <trkpt lat="59.9708697" lon="17.7517014">
        <ele>29.9381</ele>
        <time>2013-05-18T17:33:30Z</time>
      </trkpt>
      <trkpt lat="59.9707997" lon="17.7517991">
        <ele>30.4188</ele>
        <time>2013-05-18T17:33:31Z</time>
      </trkpt>
      <trkpt lat="59.9707294" lon="17.7519043">
        <ele>30.8995</ele>
        <time>2013-05-18T17:33:32Z</time>
      </trkpt>
      <trkpt lat="59.9706612" lon="17.752013">
        <ele>31.3801</ele>
        <time>2013-05-18T17:33:33Z</time>
      </trkpt>
      <trkpt lat="59.9705945" lon="17.752126">
        <ele>31.8607</ele>
        <time>2013-05-18T17:33:34Z</time>
      </trkpt>
      <trkpt lat="59.9705345" lon="17.7522403">
        <ele>31.8607</ele>
        <time>2013-05-18T17:33:35Z</time>
      </trkpt>
      <trkpt lat="59.9704786" lon="17.7523614">
        <ele>31.8607</ele>
        <time>2013-05-18T17:33:36Z</time>
      </trkpt>
      <trkpt lat="59.9704283" lon="17.7524822">
        <ele>31.3801</ele>
        <time>2013-05-18T17:33:37Z</time>
      </trkpt>
      <trkpt lat="59.9703785" lon="17.7526081">
        <ele>31.3801</ele>
        <time>2013-05-18T17:33:38Z</time>
      </trkpt>
      <trkpt lat="59.9703322" lon="17.7527418">
        <ele>30.8995</ele>
        <time>2013-05-18T17:33:39Z</time>
      </trkpt>
      <trkpt lat="59.9702874" lon="17.7528763">
        <ele>30.8995</ele>
        <time>2013-05-18T17:33:40Z</time>
      </trkpt>
      <trkpt lat="59.9702429" lon="17.7530122">
        <ele>30.8995</ele>
        <time>2013-05-18T17:33:41Z</time>
      </trkpt>
      <trkpt lat="59.9702014" lon="17.7531348">
        <ele>31.3801</ele>
        <time>2013-05-18T17:33:42Z</time>
      </trkpt>
      <trkpt lat="59.9701609" lon="17.7532582">
        <ele>31.3801</ele>
        <time>2013-05-18T17:33:43Z</time>
      </trkpt>
      <trkpt lat="59.9701197" lon="17.7533808">
        <ele>31.8607</ele>
        <time>2013-05-18T17:33:44Z</time>
      </trkpt>
      <trkpt lat="59.9700766" lon="17.7535001">
        <ele>31.3801</ele>
        <time>2013-05-18T17:33:45Z</time>
      </trkpt>
      <trkpt lat="59.9700331" lon="17.7536172">
        <ele>31.8607</ele>
        <time>2013-05-18T17:33:46Z</time>
      </trkpt>
      <trkpt lat="59.969988" lon="17.753737">
        <ele>31.8607</ele>
        <time>2013-05-18T17:33:47Z</time>
      </trkpt>
      <trkpt lat="59.9699425" lon="17.7538502">
        <ele>31.8607</ele>
        <time>2013-05-18T17:33:48Z</time>
      </trkpt>
      <trkpt lat="59.9698966" lon="17.7539565">
        <ele>31.8607</ele>
        <time>2013-05-18T17:33:49Z</time>
      </trkpt>
      <trkpt lat="59.9698479" lon="17.7540587">
        <ele>31.8607</ele>
        <time>2013-05-18T17:33:50Z</time>
      </trkpt>
      <trkpt lat="59.9697951" lon="17.7541674">
        <ele>31.8607</ele>
        <time>2013-05-18T17:33:51Z</time>
      </trkpt>
      <trkpt lat="59.9697436" lon="17.7542733">
        <ele>31.8607</ele>
        <time>2013-05-18T17:33:52Z</time>
      </trkpt>
      <trkpt lat="59.9696941" lon="17.7543751">
        <ele>32.3416</ele>
        <time>2013-05-18T17:33:53Z</time>
      </trkpt>
      <trkpt lat="59.9696457" lon="17.7544748">
        <ele>32.3416</ele>
        <time>2013-05-18T17:33:54Z</time>
      </trkpt>
      <trkpt lat="59.9695987" lon="17.7545722">
        <ele>31.8607</ele>
        <time>2013-05-18T17:33:55Z</time>
      </trkpt>
      <trkpt lat="59.9695529" lon="17.7546696">
        <ele>31.3801</ele>
        <time>2013-05-18T17:33:56Z</time>
      </trkpt>
      <trkpt lat="59.9695066" lon="17.7547698">
        <ele>31.3801</ele>
        <time>2013-05-18T17:33:57Z</time>
      </trkpt>
      <trkpt lat="59.9694602" lon="17.7548697">
        <ele>31.3801</ele>
        <time>2013-05-18T17:33:58Z</time>
      </trkpt>
      <trkpt lat="59.9694123" lon="17.7549758">
        <ele>30.8995</ele>
        <time>2013-05-18T17:33:59Z</time>
      </trkpt>
      <trkpt lat="59.9693653" lon="17.7550718">
        <ele>30.8995</ele>
        <time>2013-05-18T17:34:00Z</time>
      </trkpt>
      <trkpt lat="59.9693183" lon="17.7551655">
        <ele>30.8995</ele>
        <time>2013-05-18T17:34:01Z</time>
      </trkpt>
      <trkpt lat="59.9692724" lon="17.7552584">
        <ele>30.4188</ele>
        <time>2013-05-18T17:34:02Z</time>
      </trkpt>
      <trkpt lat="59.969226" lon="17.7553567">
        <ele>30.4188</ele>
        <time>2013-05-18T17:34:03Z</time>
      </trkpt>
      <trkpt lat="59.9691794" lon="17.755459">
        <ele>30.4188</ele>
        <time>2013-05-18T17:34:04Z</time>
      </trkpt>
      <trkpt lat="59.9691296" lon="17.7555657">
        <ele>30.8995</ele>
        <time>2013-05-18T17:34:05Z</time>
      </trkpt>
      <trkpt lat="59.9690831" lon="17.7556626">
        <ele>30.8995</ele>
        <time>2013-05-18T17:34:06Z</time>
      </trkpt>
      <trkpt lat="59.9690372" lon="17.755759">
        <ele>30.8995</ele>
        <time>2013-05-18T17:34:07Z</time>
      </trkpt>
      <trkpt lat="59.9689921" lon="17.7558524">
        <ele>30.4188</ele>
        <time>2013-05-18T17:34:08Z</time>
      </trkpt>
      <trkpt lat="59.9689468" lon="17.7559452">
        <ele>30.4188</ele>
        <time>2013-05-18T17:34:09Z</time>
      </trkpt>
      <trkpt lat="59.9689015" lon="17.7560356">
        <ele>30.4188</ele>
        <time>2013-05-18T17:34:10Z</time>
      </trkpt>
      <trkpt lat="59.9688554" lon="17.756129">
        <ele>30.4188</ele>
        <time>2013-05-18T17:34:11Z</time>
      </trkpt>
      <trkpt lat="59.9688099" lon="17.7562237">
        <ele>30.4188</ele>
        <time>2013-05-18T17:34:12Z</time>
      </trkpt>
      <trkpt lat="59.9687633" lon="17.7563191">
        <ele>29.9381</ele>
        <time>2013-05-18T17:34:13Z</time>
      </trkpt>
      <trkpt lat="59.9687163" lon="17.7564097">
        <ele>29.9381</ele>
        <time>2013-05-18T17:34:14Z</time>
      </trkpt>
      <trkpt lat="59.968667" lon="17.7564982">
        <ele>29.9381</ele>
        <time>2013-05-18T17:34:15Z</time>
      </trkpt>
      <trkpt lat="59.9686166" lon="17.7565858">
        <ele>29.9381</ele>
        <time>2013-05-18T17:34:16Z</time>
      </trkpt>
      <trkpt lat="59.9685644" lon="17.7566766">
        <ele>29.9381</ele>
        <time>2013-05-18T17:34:17Z</time>
      </trkpt>
      <trkpt lat="59.9685101" lon="17.7567657">
        <ele>29.9381</ele>
        <time>2013-05-18T17:34:18Z</time>
      </trkpt>
      <trkpt lat="59.9684545" lon="17.7568476">
        <ele>29.4575</ele>
        <time>2013-05-18T17:34:19Z</time>
      </trkpt>
      <trkpt lat="59.9683977" lon="17.7569288">
        <ele>29.4575</ele>
        <time>2013-05-18T17:34:20Z</time>
      </trkpt>
      <trkpt lat="59.9683407" lon="17.7570091">
        <ele>28.9769</ele>
        <time>2013-05-18T17:34:21Z</time>
      </trkpt>
      <trkpt lat="59.968283" lon="17.7570915">
        <ele>28.9769</ele>
        <time>2013-05-18T17:34:22Z</time>
      </trkpt>
      <trkpt lat="59.968226" lon="17.7571727">
        <ele>28.9769</ele>
        <time>2013-05-18T17:34:23Z</time>
      </trkpt>
      <trkpt lat="59.968167" lon="17.7572563">
        <ele>28.9769</ele>
        <time>2013-05-18T17:34:24Z</time>
      </trkpt>
      <trkpt lat="59.9681076" lon="17.7573401">
        <ele>28.9769</ele>
        <time>2013-05-18T17:34:25Z</time>
      </trkpt>
      <trkpt lat="59.9680455" lon="17.7574242">
        <ele>28.9769</ele>
        <time>2013-05-18T17:34:26Z</time>
      </trkpt>
      <trkpt lat="59.9679795" lon="17.7575094">
        <ele>28.4962</ele>
        <time>2013-05-18T17:34:27Z</time>
      </trkpt>
      <trkpt lat="59.9679103" lon="17.7575954">
        <ele>28.4962</ele>
        <time>2013-05-18T17:34:28Z</time>
      </trkpt>
      <trkpt lat="59.9678388" lon="17.7576821">
        <ele>28.4962</ele>
        <time>2013-05-18T17:34:29Z</time>
      </trkpt>
      <trkpt lat="59.9677657" lon="17.7577691">
        <ele>28.0155</ele>
        <time>2013-05-18T17:34:30Z</time>
      </trkpt>
      <trkpt lat="59.9676886" lon="17.757857">
        <ele>28.0155</ele>
        <time>2013-05-18T17:34:31Z</time>
      </trkpt>
      <trkpt lat="59.9676098" lon="17.7579357">
        <ele>28.4962</ele>
        <time>2013-05-18T17:34:32Z</time>
      </trkpt>
      <trkpt lat="59.9675298" lon="17.7580214">
        <ele>28.0155</ele>
        <time>2013-05-18T17:34:33Z</time>
      </trkpt>
      <trkpt lat="59.9674513" lon="17.7581129">
        <ele>27.5349</ele>
        <time>2013-05-18T17:34:34Z</time>
      </trkpt>
      <trkpt lat="59.9673714" lon="17.7581986">
        <ele>27.0543</ele>
        <time>2013-05-18T17:34:35Z</time>
      </trkpt>
      <trkpt lat="59.9672896" lon="17.7582802">
        <ele>26.5736</ele>
        <time>2013-05-18T17:34:36Z</time>
      </trkpt>
      <trkpt lat="59.9672042" lon="17.7583477">
        <ele>26.5736</ele>
        <time>2013-05-18T17:34:37Z</time>
      </trkpt>
      <trkpt lat="59.967119" lon="17.7584165">
        <ele>26.5736</ele>
        <time>2013-05-18T17:34:38Z</time>
      </trkpt>
      <trkpt lat="59.9670356" lon="17.7584866">
        <ele>26.5736</ele>
        <time>2013-05-18T17:34:39Z</time>
      </trkpt>
      <trkpt lat="59.9669515" lon="17.7585543">
        <ele>26.0929</ele>
        <time>2013-05-18T17:34:40Z</time>
      </trkpt>
      <trkpt lat="59.9668693" lon="17.7586228">
        <ele>26.0929</ele>
        <time>2013-05-18T17:34:41Z</time>
      </trkpt>
      <trkpt lat="59.9667863" lon="17.758689">
        <ele>26.0929</ele>
        <time>2013-05-18T17:34:42Z</time>
      </trkpt>
      <trkpt lat="59.9667047" lon="17.7587629">
        <ele>26.0929</ele>
        <time>2013-05-18T17:34:43Z</time>
      </trkpt>
      <trkpt lat="59.9666252" lon="17.7588378">
        <ele>25.6123</ele>
        <time>2013-05-18T17:34:44Z</time>
      </trkpt>
      <trkpt lat="59.9665484" lon="17.7589215">
        <ele>25.1317</ele>
        <time>2013-05-18T17:34:45Z</time>
      </trkpt>
      <trkpt lat="59.9664738" lon="17.7590121">
        <ele>24.651</ele>
        <time>2013-05-18T17:34:46Z</time>
      </trkpt>
      <trkpt lat="59.9663986" lon="17.7591027">
        <ele>25.1317</ele>
        <time>2013-05-18T17:34:47Z</time>
      </trkpt>
      <trkpt lat="59.9663202" lon="17.7591897">
        <ele>25.6123</ele>
        <time>2013-05-18T17:34:48Z</time>
      </trkpt>
      <trkpt lat="59.966251" lon="17.7592976">
        <ele>25.6123</ele>
        <time>2013-05-18T17:34:49Z</time>
      </trkpt>
      <trkpt lat="59.9661781" lon="17.7594104">
        <ele>26.0929</ele>
        <time>2013-05-18T17:34:50Z</time>
      </trkpt>
      <trkpt lat="59.9661094" lon="17.7595224">
        <ele>26.5736</ele>
        <time>2013-05-18T17:34:51Z</time>
      </trkpt>
      <trkpt lat="59.9660417" lon="17.7596374">
        <ele>27.0543</ele>
        <time>2013-05-18T17:34:52Z</time>
      </trkpt>
      <trkpt lat="59.9659734" lon="17.7597551">
        <ele>27.5349</ele>
        <time>2013-05-18T17:34:53Z</time>
      </trkpt>
      <trkpt lat="59.9659051" lon="17.7598759">
        <ele>28.0155</ele>
        <time>2013-05-18T17:34:54Z</time>
      </trkpt>
      <trkpt lat="59.9658357" lon="17.7599974">
        <ele>28.0155</ele>
        <time>2013-05-18T17:34:55Z</time>
      </trkpt>
      <trkpt lat="59.9657708" lon="17.7601243">
        <ele>27.5349</ele>
        <time>2013-05-18T17:34:56Z</time>
      </trkpt>
      <trkpt lat="59.965705" lon="17.7602387">
        <ele>27.5349</ele>
        <time>2013-05-18T17:34:57Z</time>
      </trkpt>
      <trkpt lat="59.9656366" lon="17.7603471">
        <ele>27.5349</ele>
        <time>2013-05-18T17:34:58Z</time>
      </trkpt>
      <trkpt lat="59.9655699" lon="17.7604481">
        <ele>27.5349</ele>
        <time>2013-05-18T17:34:59Z</time>
      </trkpt>
      <trkpt lat="59.965505" lon="17.7605492">
        <ele>28.0155</ele>
        <time>2013-05-18T17:35:00Z</time>
      </trkpt>
      <trkpt lat="59.96544" lon="17.7606547">
        <ele>28.0155</ele>
        <time>2013-05-18T17:35:01Z</time>
      </trkpt>
      <trkpt lat="59.9653813" lon="17.7607605">
        <ele>28.0155</ele>
        <time>2013-05-18T17:35:02Z</time>
      </trkpt>
      <trkpt lat="59.9653238" lon="17.7608699">
        <ele>28.0155</ele>
        <time>2013-05-18T17:35:03Z</time>
      </trkpt>
      <trkpt lat="59.9652685" lon="17.7609852">
        <ele>28.0155</ele>
        <time>2013-05-18T17:35:04Z</time>
      </trkpt>
      <trkpt lat="59.9652175" lon="17.7611067">
        <ele>28.0155</ele>
        <time>2013-05-18T17:35:05Z</time>
      </trkpt>
      <trkpt lat="59.9651674" lon="17.7612369">
        <ele>28.0155</ele>
        <time>2013-05-18T17:35:06Z</time>
      </trkpt>
      <trkpt lat="59.9651203" lon="17.7613646">
        <ele>28.0155</ele>
        <time>2013-05-18T17:35:07Z</time>
      </trkpt>
      <trkpt lat="59.965071" lon="17.7614967">
        <ele>28.4962</ele>
        <time>2013-05-18T17:35:08Z</time>
      </trkpt>
      <trkpt lat="59.9650244" lon="17.7616242">
        <ele>28.9769</ele>
        <time>2013-05-18T17:35:09Z</time>
      </trkpt>
      <trkpt lat="59.9649757" lon="17.7617515">
        <ele>28.9769</ele>
        <time>2013-05-18T17:35:10Z</time>
      </trkpt>
      <trkpt lat="59.9649291" lon="17.7618707">
        <ele>28.9769</ele>
        <time>2013-05-18T17:35:11Z</time>
      </trkpt>
      <trkpt lat="59.9648824" lon="17.7619945">
        <ele>28.9769</ele>
        <time>2013-05-18T17:35:12Z</time>
      </trkpt>
      <trkpt lat="59.9648364" lon="17.762117">
        <ele>28.9769</ele>
        <time>2013-05-18T17:35:13Z</time>
      </trkpt>
      <trkpt lat="59.9647886" lon="17.762242">
        <ele>28.9769</ele>
        <time>2013-05-18T17:35:14Z</time>
      </trkpt>
      <trkpt lat="59.9647439" lon="17.7623716">
        <ele>28.9769</ele>
        <time>2013-05-18T17:35:15Z</time>
      </trkpt>
      <trkpt lat="59.9647002" lon="17.762501">
        <ele>29.4575</ele>
        <time>2013-05-18T17:35:16Z</time>
      </trkpt>
      <trkpt lat="59.9646544" lon="17.7626326">
        <ele>29.4575</ele>
        <time>2013-05-18T17:35:17Z</time>
      </trkpt>
      <trkpt lat="59.9646168" lon="17.7627576">
        <ele>29.9381</ele>
        <time>2013-05-18T17:35:18Z</time>
      </trkpt>
      <trkpt lat="59.9645773" lon="17.7628937">
        <ele>30.4188</ele>
        <time>2013-05-18T17:35:19Z</time>
      </trkpt>
      <trkpt lat="59.9645424" lon="17.7630217">
        <ele>30.4188</ele>
        <time>2013-05-18T17:35:20Z</time>
      </trkpt>
      <trkpt lat="59.9645111" lon="17.7631461">
        <ele>30.4188</ele>
        <time>2013-05-18T17:35:21Z</time>
      </trkpt>
      <trkpt lat="59.964479" lon="17.7632797">
        <ele>30.4188</ele>
        <time>2013-05-18T17:35:22Z</time>
      </trkpt>
      <trkpt lat="59.9644469" lon="17.7634175">
        <ele>30.4188</ele>
        <time>2013-05-18T17:35:23Z</time>
      </trkpt>
      <trkpt lat="59.9644151" lon="17.7635568">
        <ele>30.4188</ele>
        <time>2013-05-18T17:35:24Z</time>
      </trkpt>
      <trkpt lat="59.9643809" lon="17.7636991">
        <ele>30.4188</ele>
        <time>2013-05-18T17:35:25Z</time>
      </trkpt>
      <trkpt lat="59.9643468" lon="17.7638365">
        <ele>30.4188</ele>
        <time>2013-05-18T17:35:26Z</time>
      </trkpt>
      <trkpt lat="59.9643131" lon="17.7639703">
        <ele>30.8995</ele>
        <time>2013-05-18T17:35:27Z</time>
      </trkpt>
      <trkpt lat="59.964279" lon="17.7641028">
        <ele>30.8995</ele>
        <time>2013-05-18T17:35:28Z</time>
      </trkpt>
      <trkpt lat="59.9642447" lon="17.7642337">
        <ele>30.8995</ele>
        <time>2013-05-18T17:35:29Z</time>
      </trkpt>
      <trkpt lat="59.9642109" lon="17.7643616">
        <ele>30.8995</ele>
        <time>2013-05-18T17:35:30Z</time>
      </trkpt>
      <trkpt lat="59.9641764" lon="17.7644907">
        <ele>30.8995</ele>
        <time>2013-05-18T17:35:31Z</time>
      </trkpt>
      <trkpt lat="59.9641425" lon="17.7646193">
        <ele>30.8995</ele>
        <time>2013-05-18T17:35:32Z</time>
      </trkpt>
      <trkpt lat="59.9641113" lon="17.7647409">
        <ele>30.8995</ele>
        <time>2013-05-18T17:35:33Z</time>
      </trkpt>
      <trkpt lat="59.964083" lon="17.7648574">
        <ele>30.8995</ele>
        <time>2013-05-18T17:35:34Z</time>
      </trkpt>
      <trkpt lat="59.9640567" lon="17.7649739">
        <ele>30.8995</ele>
        <time>2013-05-18T17:35:35Z</time>
      </trkpt>
      <trkpt lat="59.964034" lon="17.7650901">
        <ele>31.3801</ele>
        <time>2013-05-18T17:35:36Z</time>
      </trkpt>
      <trkpt lat="59.9640123" lon="17.7652134">
        <ele>31.3801</ele>
        <time>2013-05-18T17:35:37Z</time>
      </trkpt>
      <trkpt lat="59.9639968" lon="17.7653293">
        <ele>31.8607</ele>
        <time>2013-05-18T17:35:38Z</time>
      </trkpt>
      <trkpt lat="59.9639815" lon="17.7654514">
        <ele>32.3416</ele>
        <time>2013-05-18T17:35:39Z</time>
      </trkpt>
      <trkpt lat="59.9639718" lon="17.7655654">
        <ele>32.8223</ele>
        <time>2013-05-18T17:35:40Z</time>
      </trkpt>
      <trkpt lat="59.9639645" lon="17.7656748">
        <ele>32.8223</ele>
        <time>2013-05-18T17:35:41Z</time>
      </trkpt>
      <trkpt lat="59.963964" lon="17.7657739">
        <ele>32.8223</ele>
        <time>2013-05-18T17:35:42Z</time>
      </trkpt>
      <trkpt lat="59.9639645" lon="17.7658732">
        <ele>33.3029</ele>
        <time>2013-05-18T17:35:43Z</time>
      </trkpt>
      <trkpt lat="59.9639678" lon="17.7659579">
        <ele>33.3029</ele>
        <time>2013-05-18T17:35:44Z</time>
      </trkpt>
      <trkpt lat="59.9639728" lon="17.7660399">
        <ele>33.3029</ele>
        <time>2013-05-18T17:35:45Z</time>
      </trkpt>
      <trkpt lat="59.9639765" lon="17.7661278">
        <ele>33.3029</ele>
        <time>2013-05-18T17:35:46Z</time>
      </trkpt>
      <trkpt lat="59.9639791" lon="17.7662172">
        <ele>33.3029</ele>
        <time>2013-05-18T17:35:47Z</time>
      </trkpt>
      <trkpt lat="59.9639845" lon="17.7662975">
        <ele>33.7834</ele>
        <time>2013-05-18T17:35:48Z</time>
      </trkpt>
      <trkpt lat="59.963989" lon="17.7663748">
        <ele>32.8223</ele>
        <time>2013-05-18T17:35:49Z</time>
      </trkpt>
      <trkpt lat="59.9639923" lon="17.7664539">
        <ele>32.8223</ele>
        <time>2013-05-18T17:35:50Z</time>
      </trkpt>
      <trkpt lat="59.9639963" lon="17.7665327">
        <ele>32.8223</ele>
        <time>2013-05-18T17:35:51Z</time>
      </trkpt>
      <trkpt lat="59.9640014" lon="17.7666196">
        <ele>32.8223</ele>
        <time>2013-05-18T17:35:52Z</time>
      </trkpt>
      <trkpt lat="59.9640065" lon="17.7667142">
        <ele>32.8223</ele>
        <time>2013-05-18T17:35:53Z</time>
      </trkpt>
      <trkpt lat="59.9640101" lon="17.7668073">
        <ele>32.3416</ele>
        <time>2013-05-18T17:35:54Z</time>
      </trkpt>
      <trkpt lat="59.9640095" lon="17.7669191">
        <ele>31.8607</ele>
        <time>2013-05-18T17:35:55Z</time>
      </trkpt>
      <trkpt lat="59.9640096" lon="17.7670278">
        <ele>30.4188</ele>
        <time>2013-05-18T17:35:56Z</time>
      </trkpt>
      <trkpt lat="59.9640059" lon="17.7671361">
        <ele>28.4962</ele>
        <time>2013-05-18T17:35:57Z</time>
      </trkpt>
      <trkpt lat="59.9639946" lon="17.7672507">
        <ele>28.0155</ele>
        <time>2013-05-18T17:35:58Z</time>
      </trkpt>
      <trkpt lat="59.9639811" lon="17.7673528">
        <ele>26.5736</ele>
        <time>2013-05-18T17:35:59Z</time>
      </trkpt>
      <trkpt lat="59.9639645" lon="17.7674469">
        <ele>25.1317</ele>
        <time>2013-05-18T17:36:00Z</time>
      </trkpt>
      <trkpt lat="59.9639421" lon="17.7675554">
        <ele>25.1317</ele>
        <time>2013-05-18T17:36:01Z</time>
      </trkpt>
      <trkpt lat="59.9639177" lon="17.7676702">
        <ele>25.6123</ele>
        <time>2013-05-18T17:36:02Z</time>
      </trkpt>
      <trkpt lat="59.9638904" lon="17.7677856">
        <ele>26.0929</ele>
        <time>2013-05-18T17:36:03Z</time>
      </trkpt>
      <trkpt lat="59.9638661" lon="17.7678993">
        <ele>25.6123</ele>
        <time>2013-05-18T17:36:04Z</time>
      </trkpt>
      <trkpt lat="59.9638414" lon="17.768018">
        <ele>25.6123</ele>
        <time>2013-05-18T17:36:05Z</time>
      </trkpt>
      <trkpt lat="59.9638129" lon="17.7681382">
        <ele>25.6123</ele>
        <time>2013-05-18T17:36:06Z</time>
      </trkpt>
      <trkpt lat="59.9637808" lon="17.768264">
        <ele>26.0929</ele>
        <time>2013-05-18T17:36:07Z</time>
      </trkpt>
      <trkpt lat="59.9637469" lon="17.7683924">
        <ele>26.5736</ele>
        <time>2013-05-18T17:36:08Z</time>
      </trkpt>
      <trkpt lat="59.9637095" lon="17.7685255">
        <ele>27.0543</ele>
        <time>2013-05-18T17:36:09Z</time>
      </trkpt>
      <trkpt lat="59.9636743" lon="17.7686538">
        <ele>27.0543</ele>
        <time>2013-05-18T17:36:10Z</time>
      </trkpt>
      <trkpt lat="59.9636371" lon="17.7687852">
        <ele>27.0543</ele>
        <time>2013-05-18T17:36:11Z</time>
      </trkpt>
      <trkpt lat="59.9635907" lon="17.7689756">
        <ele>27.0543</ele>
        <time>2013-05-18T17:36:12Z</time>
      </trkpt>
      <trkpt lat="59.9635517" lon="17.7691115">
        <ele>27.0543</ele>
        <time>2013-05-18T17:36:13Z</time>
      </trkpt>
      <trkpt lat="59.9635158" lon="17.7692308">
        <ele>27.0543</ele>
        <time>2013-05-18T17:36:14Z</time>
      </trkpt>
      <trkpt lat="59.9634813" lon="17.769348">
        <ele>27.0543</ele>
        <time>2013-05-18T17:36:15Z</time>
      </trkpt>
      <trkpt lat="59.9634482" lon="17.7694707">
        <ele>27.5349</ele>
        <time>2013-05-18T17:36:16Z</time>
      </trkpt>
      <trkpt lat="59.9634226" lon="17.7695795">
        <ele>27.0543</ele>
        <time>2013-05-18T17:36:17Z</time>
      </trkpt>
      <trkpt lat="59.963399" lon="17.7697091">
        <ele>28.0155</ele>
        <time>2013-05-18T17:36:18Z</time>
      </trkpt>
      <trkpt lat="59.9633936" lon="17.7697963">
        <ele>26.0929</ele>
        <time>2013-05-18T17:36:19Z</time>
      </trkpt>
      <trkpt lat="59.9633906" lon="17.7698968">
        <ele>25.1317</ele>
        <time>2013-05-18T17:36:20Z</time>
      </trkpt>
      <trkpt lat="59.9633901" lon="17.7700096">
        <ele>25.6123</ele>
        <time>2013-05-18T17:36:21Z</time>
      </trkpt>
      <trkpt lat="59.9633938" lon="17.7701172">
        <ele>25.1317</ele>
        <time>2013-05-18T17:36:22Z</time>
      </trkpt>
      <trkpt lat="59.9633958" lon="17.7702332">
        <ele>25.1317</ele>
        <time>2013-05-18T17:36:23Z</time>
      </trkpt>
      <trkpt lat="59.9634042" lon="17.7704183">
        <ele>27.0543</ele>
        <time>2013-05-18T17:36:24Z</time>
      </trkpt>
      <trkpt lat="59.9634191" lon="17.7705239">
        <ele>27.0543</ele>
        <time>2013-05-18T17:36:25Z</time>
      </trkpt>
      <trkpt lat="59.9634507" lon="17.7706271">
        <ele>27.5349</ele>
        <time>2013-05-18T17:36:26Z</time>
      </trkpt>
      <trkpt lat="59.9634723" lon="17.7707838">
        <ele>28.0155</ele>
        <time>2013-05-18T17:36:27Z</time>
      </trkpt>
      <trkpt lat="59.9634981" lon="17.7709165">
        <ele>28.4962</ele>
        <time>2013-05-18T17:36:28Z</time>
      </trkpt>
      <trkpt lat="59.9635242" lon="17.7710456">
        <ele>28.0155</ele>
        <time>2013-05-18T17:36:29Z</time>
      </trkpt>
      <trkpt lat="59.9635511" lon="17.7711762">
        <ele>28.0155</ele>
        <time>2013-05-18T17:36:30Z</time>
      </trkpt>
      <trkpt lat="59.9635797" lon="17.7713072">
        <ele>28.4962</ele>
        <time>2013-05-18T17:36:31Z</time>
      </trkpt>
      <trkpt lat="59.9636101" lon="17.7714365">
        <ele>28.4962</ele>
        <time>2013-05-18T17:36:32Z</time>
      </trkpt>
      <trkpt lat="59.9636414" lon="17.7715638">
        <ele>28.4962</ele>
        <time>2013-05-18T17:36:33Z</time>
      </trkpt>
      <trkpt lat="59.9636717" lon="17.7716902">
        <ele>28.4962</ele>
        <time>2013-05-18T17:36:34Z</time>
      </trkpt>
      <trkpt lat="59.9637008" lon="17.7718169">
        <ele>28.4962</ele>
        <time>2013-05-18T17:36:35Z</time>
      </trkpt>
      <trkpt lat="59.9637304" lon="17.7719434">
        <ele>28.4962</ele>
        <time>2013-05-18T17:36:36Z</time>
      </trkpt>
      <trkpt lat="59.96376" lon="17.7720706">
        <ele>28.4962</ele>
        <time>2013-05-18T17:36:37Z</time>
      </trkpt>
      <trkpt lat="59.9637895" lon="17.7721986">
        <ele>28.4962</ele>
        <time>2013-05-18T17:36:38Z</time>
      </trkpt>
      <trkpt lat="59.9638158" lon="17.772333">
        <ele>28.4962</ele>
        <time>2013-05-18T17:36:39Z</time>
      </trkpt>
      <trkpt lat="59.9638397" lon="17.7724706">
        <ele>28.4962</ele>
        <time>2013-05-18T17:36:40Z</time>
      </trkpt>
      <trkpt lat="59.9638609" lon="17.7726104">
        <ele>28.4962</ele>
        <time>2013-05-18T17:36:41Z</time>
      </trkpt>
      <trkpt lat="59.9638784" lon="17.7727513">
        <ele>28.9769</ele>
        <time>2013-05-18T17:36:42Z</time>
      </trkpt>
      <trkpt lat="59.9638909" lon="17.7728877">
        <ele>28.9769</ele>
        <time>2013-05-18T17:36:43Z</time>
      </trkpt>
      <trkpt lat="59.9638955" lon="17.7730167">
        <ele>28.9769</ele>
        <time>2013-05-18T17:36:44Z</time>
      </trkpt>
      <trkpt lat="59.9638931" lon="17.77314">
        <ele>29.4575</ele>
        <time>2013-05-18T17:36:45Z</time>
      </trkpt>
      <trkpt lat="59.9638857" lon="17.7732617">
        <ele>28.9769</ele>
        <time>2013-05-18T17:36:46Z</time>
      </trkpt>
      <trkpt lat="59.9638755" lon="17.7733827">
        <ele>28.4962</ele>
        <time>2013-05-18T17:36:47Z</time>
      </trkpt>
      <trkpt lat="59.9638618" lon="17.7735057">
        <ele>28.4962</ele>
        <time>2013-05-18T17:36:48Z</time>
      </trkpt>
      <trkpt lat="59.9638438" lon="17.773627">
        <ele>27.5349</ele>
        <time>2013-05-18T17:36:49Z</time>
      </trkpt>
      <trkpt lat="59.9638234" lon="17.7737497">
        <ele>27.0543</ele>
        <time>2013-05-18T17:36:50Z</time>
      </trkpt>
      <trkpt lat="59.9638009" lon="17.7738729">
        <ele>27.0543</ele>
        <time>2013-05-18T17:36:51Z</time>
      </trkpt>
      <trkpt lat="59.9637742" lon="17.7739972">
        <ele>27.5349</ele>
        <time>2013-05-18T17:36:52Z</time>
      </trkpt>
      <trkpt lat="59.963748" lon="17.7741195">
        <ele>27.5349</ele>
        <time>2013-05-18T17:36:53Z</time>
      </trkpt>
      <trkpt lat="59.9637261" lon="17.7742407">
        <ele>27.5349</ele>
        <time>2013-05-18T17:36:54Z</time>
      </trkpt>
      <trkpt lat="59.9637082" lon="17.7743614">
        <ele>27.0543</ele>
        <time>2013-05-18T17:36:55Z</time>
      </trkpt>
      <trkpt lat="59.9636893" lon="17.77449">
        <ele>27.5349</ele>
        <time>2013-05-18T17:36:56Z</time>
      </trkpt>
      <trkpt lat="59.9636692" lon="17.7746194">
        <ele>27.5349</ele>
        <time>2013-05-18T17:36:57Z</time>
      </trkpt>
      <trkpt lat="59.9636469" lon="17.7747502">
        <ele>28.0155</ele>
        <time>2013-05-18T17:36:58Z</time>
      </trkpt>
      <trkpt lat="59.9636211" lon="17.7748805">
        <ele>28.0155</ele>
        <time>2013-05-18T17:36:59Z</time>
      </trkpt>
      <trkpt lat="59.9635911" lon="17.7750085">
        <ele>28.4962</ele>
        <time>2013-05-18T17:37:00Z</time>
      </trkpt>
      <trkpt lat="59.9635238" lon="17.7752545">
        <ele>28.9769</ele>
        <time>2013-05-18T17:37:02Z</time>
      </trkpt>
      <trkpt lat="59.9634864" lon="17.7753758">
        <ele>28.9769</ele>
        <time>2013-05-18T17:37:03Z</time>
      </trkpt>
      <trkpt lat="59.9634471" lon="17.7754947">
        <ele>29.4575</ele>
        <time>2013-05-18T17:37:04Z</time>
      </trkpt>
      <trkpt lat="59.9634065" lon="17.7756093">
        <ele>29.4575</ele>
        <time>2013-05-18T17:37:05Z</time>
      </trkpt>
      <trkpt lat="59.9633668" lon="17.7757222">
        <ele>29.9381</ele>
        <time>2013-05-18T17:37:06Z</time>
      </trkpt>
      <trkpt lat="59.963329" lon="17.775836">
        <ele>29.9381</ele>
        <time>2013-05-18T17:37:07Z</time>
      </trkpt>
      <trkpt lat="59.9632918" lon="17.7759496">
        <ele>30.4188</ele>
        <time>2013-05-18T17:37:08Z</time>
      </trkpt>
      <trkpt lat="59.9632554" lon="17.7760629">
        <ele>30.4188</ele>
        <time>2013-05-18T17:37:09Z</time>
      </trkpt>
      <trkpt lat="59.9632195" lon="17.7761755">
        <ele>30.8995</ele>
        <time>2013-05-18T17:37:10Z</time>
      </trkpt>
      <trkpt lat="59.9631843" lon="17.776287">
        <ele>30.8995</ele>
        <time>2013-05-18T17:37:11Z</time>
      </trkpt>
      <trkpt lat="59.9631497" lon="17.7763977">
        <ele>30.8995</ele>
        <time>2013-05-18T17:37:12Z</time>
      </trkpt>
      <trkpt lat="59.9631148" lon="17.7765086">
        <ele>30.8995</ele>
        <time>2013-05-18T17:37:13Z</time>
      </trkpt>
      <trkpt lat="59.9630802" lon="17.7766224">
        <ele>30.8995</ele>
        <time>2013-05-18T17:37:14Z</time>
      </trkpt>
      <trkpt lat="59.9630457" lon="17.7767399">
        <ele>30.8995</ele>
        <time>2013-05-18T17:37:15Z</time>
      </trkpt>
      <trkpt lat="59.9630097" lon="17.7768607">
        <ele>30.8995</ele>
        <time>2013-05-18T17:37:16Z</time>
      </trkpt>
      <trkpt lat="59.96297" lon="17.7769818">
        <ele>30.8995</ele>
        <time>2013-05-18T17:37:17Z</time>
      </trkpt>
      <trkpt lat="59.9629262" lon="17.7770997">
        <ele>30.8995</ele>
        <time>2013-05-18T17:37:18Z</time>
      </trkpt>
      <trkpt lat="59.9628788" lon="17.7772139">
        <ele>30.8995</ele>
        <time>2013-05-18T17:37:19Z</time>
      </trkpt>
      <trkpt lat="59.9628296" lon="17.7773253">
        <ele>30.8995</ele>
        <time>2013-05-18T17:37:20Z</time>
      </trkpt>
      <trkpt lat="59.9627787" lon="17.7774353">
        <ele>30.8995</ele>
        <time>2013-05-18T17:37:21Z</time>
      </trkpt>
      <trkpt lat="59.962726" lon="17.7775428">
        <ele>30.8995</ele>
        <time>2013-05-18T17:37:22Z</time>
      </trkpt>
      <trkpt lat="59.9626729" lon="17.7776485">
        <ele>30.4188</ele>
        <time>2013-05-18T17:37:23Z</time>
      </trkpt>
      <trkpt lat="59.9626191" lon="17.7777531">
        <ele>30.4188</ele>
        <time>2013-05-18T17:37:24Z</time>
      </trkpt>
      <trkpt lat="59.9625658" lon="17.7778586">
        <ele>29.9381</ele>
        <time>2013-05-18T17:37:25Z</time>
      </trkpt>
      <trkpt lat="59.9625137" lon="17.7779657">
        <ele>29.9381</ele>
        <time>2013-05-18T17:37:26Z</time>
      </trkpt>
      <trkpt lat="59.9624634" lon="17.7780734">
        <ele>29.9381</ele>
        <time>2013-05-18T17:37:27Z</time>
      </trkpt>
      <trkpt lat="59.9624132" lon="17.7781805">
        <ele>29.4575</ele>
        <time>2013-05-18T17:37:28Z</time>
      </trkpt>
      <trkpt lat="59.9623629" lon="17.778289">
        <ele>29.4575</ele>
        <time>2013-05-18T17:37:29Z</time>
      </trkpt>
      <trkpt lat="59.9623131" lon="17.7784009">
        <ele>29.4575</ele>
        <time>2013-05-18T17:37:30Z</time>
      </trkpt>
      <trkpt lat="59.9622639" lon="17.7785159">
        <ele>29.4575</ele>
        <time>2013-05-18T17:37:31Z</time>
      </trkpt>
      <trkpt lat="59.9622148" lon="17.7786323">
        <ele>29.4575</ele>
        <time>2013-05-18T17:37:32Z</time>
      </trkpt>
      <trkpt lat="59.9621656" lon="17.7787486">
        <ele>29.4575</ele>
        <time>2013-05-18T17:37:33Z</time>
      </trkpt>
      <trkpt lat="59.9621169" lon="17.778865">
        <ele>29.4575</ele>
        <time>2013-05-18T17:37:34Z</time>
      </trkpt>
      <trkpt lat="59.9620677" lon="17.7789785">
        <ele>29.4575</ele>
        <time>2013-05-18T17:37:35Z</time>
      </trkpt>
      <trkpt lat="59.9620175" lon="17.7790879">
        <ele>29.4575</ele>
        <time>2013-05-18T17:37:36Z</time>
      </trkpt>
      <trkpt lat="59.9619676" lon="17.7791958">
        <ele>29.4575</ele>
        <time>2013-05-18T17:37:37Z</time>
      </trkpt>
      <trkpt lat="59.9619189" lon="17.7793032">
        <ele>29.9381</ele>
        <time>2013-05-18T17:37:38Z</time>
      </trkpt>
      <trkpt lat="59.9618709" lon="17.77941">
        <ele>29.9381</ele>
        <time>2013-05-18T17:37:39Z</time>
      </trkpt>
      <trkpt lat="59.9618224" lon="17.7795155">
        <ele>29.9381</ele>
        <time>2013-05-18T17:37:40Z</time>
      </trkpt>
      <trkpt lat="59.9617734" lon="17.7796197">
        <ele>29.9381</ele>
        <time>2013-05-18T17:37:41Z</time>
      </trkpt>
      <trkpt lat="59.961726" lon="17.7797255">
        <ele>29.9381</ele>
        <time>2013-05-18T17:37:42Z</time>
      </trkpt>
      <trkpt lat="59.9616805" lon="17.7798366">
        <ele>29.9381</ele>
        <time>2013-05-18T17:37:43Z</time>
      </trkpt>
      <trkpt lat="59.9616344" lon="17.7799491">
        <ele>29.9381</ele>
        <time>2013-05-18T17:37:44Z</time>
      </trkpt>
      <trkpt lat="59.9615852" lon="17.78006">
        <ele>29.9381</ele>
        <time>2013-05-18T17:37:45Z</time>
      </trkpt>
      <trkpt lat="59.9615331" lon="17.7801684">
        <ele>29.9381</ele>
        <time>2013-05-18T17:37:46Z</time>
      </trkpt>
      <trkpt lat="59.9614797" lon="17.7802766">
        <ele>29.9381</ele>
        <time>2013-05-18T17:37:47Z</time>
      </trkpt>
      <trkpt lat="59.9614249" lon="17.7803826">
        <ele>29.9381</ele>
        <time>2013-05-18T17:37:48Z</time>
      </trkpt>
      <trkpt lat="59.9613691" lon="17.7804853">
        <ele>29.9381</ele>
        <time>2013-05-18T17:37:49Z</time>
      </trkpt>
      <trkpt lat="59.9613129" lon="17.7805884">
        <ele>29.9381</ele>
        <time>2013-05-18T17:37:50Z</time>
      </trkpt>
      <trkpt lat="59.961256" lon="17.7806927">
        <ele>29.9381</ele>
        <time>2013-05-18T17:37:51Z</time>
      </trkpt>
      <trkpt lat="59.9611988" lon="17.7807977">
        <ele>29.9381</ele>
        <time>2013-05-18T17:37:52Z</time>
      </trkpt>
      <trkpt lat="59.9611413" lon="17.7809042">
        <ele>29.9381</ele>
        <time>2013-05-18T17:37:53Z</time>
      </trkpt>
      <trkpt lat="59.9610833" lon="17.7810106">
        <ele>29.9381</ele>
        <time>2013-05-18T17:37:54Z</time>
      </trkpt>
      <trkpt lat="59.9610252" lon="17.7811154">
        <ele>29.9381</ele>
        <time>2013-05-18T17:37:55Z</time>
      </trkpt>
      <trkpt lat="59.9609673" lon="17.7812192">
        <ele>29.9381</ele>
        <time>2013-05-18T17:37:56Z</time>
      </trkpt>
      <trkpt lat="59.9609093" lon="17.7813219">
        <ele>29.9381</ele>
        <time>2013-05-18T17:37:57Z</time>
      </trkpt>
      <trkpt lat="59.9608509" lon="17.781424">
        <ele>29.9381</ele>
        <time>2013-05-18T17:37:58Z</time>
      </trkpt>
      <trkpt lat="59.9607923" lon="17.7815258">
        <ele>29.9381</ele>
        <time>2013-05-18T17:37:59Z</time>
      </trkpt>
      <trkpt lat="59.9607336" lon="17.781627">
        <ele>29.9381</ele>
        <time>2013-05-18T17:38:00Z</time>
      </trkpt>
      <trkpt lat="59.9606756" lon="17.7817309">
        <ele>29.9381</ele>
        <time>2013-05-18T17:38:01Z</time>
      </trkpt>
      <trkpt lat="59.9606187" lon="17.7818367">
        <ele>30.4188</ele>
        <time>2013-05-18T17:38:02Z</time>
      </trkpt>
      <trkpt lat="59.9605641" lon="17.7819465">
        <ele>30.4188</ele>
        <time>2013-05-18T17:38:03Z</time>
      </trkpt>
      <trkpt lat="59.9605135" lon="17.7820615">
        <ele>30.4188</ele>
        <time>2013-05-18T17:38:04Z</time>
      </trkpt>
      <trkpt lat="59.960468" lon="17.7821803">
        <ele>30.8995</ele>
        <time>2013-05-18T17:38:05Z</time>
      </trkpt>
      <trkpt lat="59.9604261" lon="17.782302">
        <ele>30.8995</ele>
        <time>2013-05-18T17:38:06Z</time>
      </trkpt>
      <trkpt lat="59.9603857" lon="17.7824252">
        <ele>30.8995</ele>
        <time>2013-05-18T17:38:07Z</time>
      </trkpt>
      <trkpt lat="59.9603462" lon="17.7825481">
        <ele>31.3801</ele>
        <time>2013-05-18T17:38:08Z</time>
      </trkpt>
      <trkpt lat="59.9603072" lon="17.7826724">
        <ele>31.3801</ele>
        <time>2013-05-18T17:38:09Z</time>
      </trkpt>
      <trkpt lat="59.9602675" lon="17.7827949">
        <ele>31.3801</ele>
        <time>2013-05-18T17:38:10Z</time>
      </trkpt>
      <trkpt lat="59.9602266" lon="17.7829143">
        <ele>30.8995</ele>
        <time>2013-05-18T17:38:11Z</time>
      </trkpt>
      <trkpt lat="59.9601857" lon="17.7830337">
        <ele>30.8995</ele>
        <time>2013-05-18T17:38:12Z</time>
      </trkpt>
      <trkpt lat="59.9601442" lon="17.7831539">
        <ele>30.8995</ele>
        <time>2013-05-18T17:38:13Z</time>
      </trkpt>
      <trkpt lat="59.9601027" lon="17.7832757">
        <ele>30.8995</ele>
        <time>2013-05-18T17:38:14Z</time>
      </trkpt>
      <trkpt lat="59.960062" lon="17.7834001">
        <ele>30.8995</ele>
        <time>2013-05-18T17:38:15Z</time>
      </trkpt>
      <trkpt lat="59.9600215" lon="17.7835253">
        <ele>30.8995</ele>
        <time>2013-05-18T17:38:16Z</time>
      </trkpt>
      <trkpt lat="59.9599798" lon="17.7836495">
        <ele>30.4188</ele>
        <time>2013-05-18T17:38:17Z</time>
      </trkpt>
      <trkpt lat="59.9599363" lon="17.7837711">
        <ele>30.4188</ele>
        <time>2013-05-18T17:38:18Z</time>
      </trkpt>
      <trkpt lat="59.9598904" lon="17.7838897">
        <ele>30.4188</ele>
        <time>2013-05-18T17:38:19Z</time>
      </trkpt>
      <trkpt lat="59.9598418" lon="17.7840051">
        <ele>30.4188</ele>
        <time>2013-05-18T17:38:20Z</time>
      </trkpt>
      <trkpt lat="59.9597907" lon="17.7841172">
        <ele>30.4188</ele>
        <time>2013-05-18T17:38:21Z</time>
      </trkpt>
      <trkpt lat="59.9597371" lon="17.7842259">
        <ele>29.9381</ele>
        <time>2013-05-18T17:38:22Z</time>
      </trkpt>
      <trkpt lat="59.9596811" lon="17.784329">
        <ele>30.4188</ele>
        <time>2013-05-18T17:38:23Z</time>
      </trkpt>
      <trkpt lat="59.9596231" lon="17.7844244">
        <ele>29.9381</ele>
        <time>2013-05-18T17:38:24Z</time>
      </trkpt>
      <trkpt lat="59.9595645" lon="17.7845161">
        <ele>30.4188</ele>
        <time>2013-05-18T17:38:25Z</time>
      </trkpt>
      <trkpt lat="59.9595067" lon="17.7846095">
        <ele>30.4188</ele>
        <time>2013-05-18T17:38:26Z</time>
      </trkpt>
      <trkpt lat="59.9594497" lon="17.7847034">
        <ele>30.4188</ele>
        <time>2013-05-18T17:38:27Z</time>
      </trkpt>
      <trkpt lat="59.9593927" lon="17.7847983">
        <ele>30.4188</ele>
        <time>2013-05-18T17:38:28Z</time>
      </trkpt>
      <trkpt lat="59.9593335" lon="17.7848895">
        <ele>30.4188</ele>
        <time>2013-05-18T17:38:29Z</time>
      </trkpt>
      <trkpt lat="59.9592717" lon="17.7849765">
        <ele>29.9381</ele>
        <time>2013-05-18T17:38:30Z</time>
      </trkpt>
      <trkpt lat="59.9592066" lon="17.7850589">
        <ele>29.9381</ele>
        <time>2013-05-18T17:38:31Z</time>
      </trkpt>
      <trkpt lat="59.9591375" lon="17.7851324">
        <ele>29.9381</ele>
        <time>2013-05-18T17:38:32Z</time>
      </trkpt>
      <trkpt lat="59.9590648" lon="17.7851975">
        <ele>29.9381</ele>
        <time>2013-05-18T17:38:33Z</time>
      </trkpt>
      <trkpt lat="59.95899" lon="17.7852581">
        <ele>29.9381</ele>
        <time>2013-05-18T17:38:34Z</time>
      </trkpt>
      <trkpt lat="59.9589143" lon="17.7853135">
        <ele>29.9381</ele>
        <time>2013-05-18T17:38:35Z</time>
      </trkpt>
      <trkpt lat="59.9588392" lon="17.7853679">
        <ele>29.9381</ele>
        <time>2013-05-18T17:38:36Z</time>
      </trkpt>
      <trkpt lat="59.9587661" lon="17.7854255">
        <ele>29.9381</ele>
        <time>2013-05-18T17:38:37Z</time>
      </trkpt>
      <trkpt lat="59.9586948" lon="17.785486">
        <ele>30.4188</ele>
        <time>2013-05-18T17:38:38Z</time>
      </trkpt>
      <trkpt lat="59.9586249" lon="17.7855494">
        <ele>30.4188</ele>
        <time>2013-05-18T17:38:39Z</time>
      </trkpt>
      <trkpt lat="59.9585564" lon="17.7856173">
        <ele>29.9381</ele>
        <time>2013-05-18T17:38:40Z</time>
      </trkpt>
      <trkpt lat="59.958488" lon="17.7856888">
        <ele>29.9381</ele>
        <time>2013-05-18T17:38:41Z</time>
      </trkpt>
      <trkpt lat="59.9584187" lon="17.7857634">
        <ele>29.9381</ele>
        <time>2013-05-18T17:38:42Z</time>
      </trkpt>
      <trkpt lat="59.9583493" lon="17.7858409">
        <ele>29.9381</ele>
        <time>2013-05-18T17:38:43Z</time>
      </trkpt>
      <trkpt lat="59.95828" lon="17.7859208">
        <ele>29.9381</ele>
        <time>2013-05-18T17:38:44Z</time>
      </trkpt>
      <trkpt lat="59.9582105" lon="17.7860027">
        <ele>29.4575</ele>
        <time>2013-05-18T17:38:45Z</time>
      </trkpt>
      <trkpt lat="59.9581405" lon="17.7860857">
        <ele>29.4575</ele>
        <time>2013-05-18T17:38:46Z</time>
      </trkpt>
      <trkpt lat="59.9580705" lon="17.7861669">
        <ele>29.4575</ele>
        <time>2013-05-18T17:38:47Z</time>
      </trkpt>
      <trkpt lat="59.9580001" lon="17.7862498">
        <ele>29.4575</ele>
        <time>2013-05-18T17:38:48Z</time>
      </trkpt>
      <trkpt lat="59.95793" lon="17.786335">
        <ele>29.4575</ele>
        <time>2013-05-18T17:38:49Z</time>
      </trkpt>
      <trkpt lat="59.9578611" lon="17.7864224">
        <ele>29.4575</ele>
        <time>2013-05-18T17:38:50Z</time>
      </trkpt>
      <trkpt lat="59.9577943" lon="17.786514">
        <ele>29.4575</ele>
        <time>2013-05-18T17:38:51Z</time>
      </trkpt>
      <trkpt lat="59.9577322" lon="17.786616">
        <ele>29.4575</ele>
        <time>2013-05-18T17:38:52Z</time>
      </trkpt>
      <trkpt lat="59.9576785" lon="17.7867319">
        <ele>29.9381</ele>
        <time>2013-05-18T17:38:53Z</time>
      </trkpt>
      <trkpt lat="59.9576356" lon="17.7868596">
        <ele>29.9381</ele>
        <time>2013-05-18T17:38:54Z</time>
      </trkpt>
      <trkpt lat="59.9576017" lon="17.7869936">
        <ele>29.9381</ele>
        <time>2013-05-18T17:38:55Z</time>
      </trkpt>
      <trkpt lat="59.9575737" lon="17.7871304">
        <ele>30.4188</ele>
        <time>2013-05-18T17:38:56Z</time>
      </trkpt>
      <trkpt lat="59.9575483" lon="17.7872676">
        <ele>30.4188</ele>
        <time>2013-05-18T17:38:57Z</time>
      </trkpt>
      <trkpt lat="59.9575206" lon="17.7874034">
        <ele>29.9381</ele>
        <time>2013-05-18T17:38:58Z</time>
      </trkpt>
      <trkpt lat="59.957489" lon="17.7875381">
        <ele>29.9381</ele>
        <time>2013-05-18T17:38:59Z</time>
      </trkpt>
      <trkpt lat="59.957455" lon="17.7876722">
        <ele>29.9381</ele>
        <time>2013-05-18T17:39:00Z</time>
      </trkpt>
      <trkpt lat="59.9574191" lon="17.7878041">
        <ele>29.9381</ele>
        <time>2013-05-18T17:39:01Z</time>
      </trkpt>
      <trkpt lat="59.957383" lon="17.7879338">
        <ele>29.9381</ele>
        <time>2013-05-18T17:39:02Z</time>
      </trkpt>
      <trkpt lat="59.9573469" lon="17.7880618">
        <ele>29.9381</ele>
        <time>2013-05-18T17:39:03Z</time>
      </trkpt>
      <trkpt lat="59.957311" lon="17.7881886">
        <ele>29.9381</ele>
        <time>2013-05-18T17:39:04Z</time>
      </trkpt>
      <trkpt lat="59.9572755" lon="17.7883152">
        <ele>29.4575</ele>
        <time>2013-05-18T17:39:05Z</time>
      </trkpt>
      <trkpt lat="59.9572395" lon="17.7884418">
        <ele>29.4575</ele>
        <time>2013-05-18T17:39:06Z</time>
      </trkpt>
      <trkpt lat="59.9572017" lon="17.7885682">
        <ele>29.4575</ele>
        <time>2013-05-18T17:39:07Z</time>
      </trkpt>
      <trkpt lat="59.9571603" lon="17.7886922">
        <ele>28.9769</ele>
        <time>2013-05-18T17:39:08Z</time>
      </trkpt>
      <trkpt lat="59.957114" lon="17.7888122">
        <ele>28.9769</ele>
        <time>2013-05-18T17:39:09Z</time>
      </trkpt>
      <trkpt lat="59.9570609" lon="17.7889263">
        <ele>28.4962</ele>
        <time>2013-05-18T17:39:10Z</time>
      </trkpt>
      <trkpt lat="59.9570021" lon="17.7890313">
        <ele>28.4962</ele>
        <time>2013-05-18T17:39:11Z</time>
      </trkpt>
      <trkpt lat="59.9569389" lon="17.7891312">
        <ele>28.4962</ele>
        <time>2013-05-18T17:39:12Z</time>
      </trkpt>
      <trkpt lat="59.9568743" lon="17.7892232">
        <ele>28.0155</ele>
        <time>2013-05-18T17:39:13Z</time>
      </trkpt>
      <trkpt lat="59.9568098" lon="17.7893097">
        <ele>28.0155</ele>
        <time>2013-05-18T17:39:14Z</time>
      </trkpt>
      <trkpt lat="59.9567456" lon="17.7893913">
        <ele>28.0155</ele>
        <time>2013-05-18T17:39:15Z</time>
      </trkpt>
      <trkpt lat="59.9566811" lon="17.7894805">
        <ele>27.5349</ele>
        <time>2013-05-18T17:39:16Z</time>
      </trkpt>
      <trkpt lat="59.9566202" lon="17.7895774">
        <ele>27.0543</ele>
        <time>2013-05-18T17:39:17Z</time>
      </trkpt>
      <trkpt lat="59.9565605" lon="17.7897019">
        <ele>27.0543</ele>
        <time>2013-05-18T17:39:18Z</time>
      </trkpt>
      <trkpt lat="59.956515" lon="17.7898433">
        <ele>26.5736</ele>
        <time>2013-05-18T17:39:19Z</time>
      </trkpt>
      <trkpt lat="59.9564889" lon="17.7899986">
        <ele>26.0929</ele>
        <time>2013-05-18T17:39:20Z</time>
      </trkpt>
      <trkpt lat="59.9564953" lon="17.7901559">
        <ele>25.6123</ele>
        <time>2013-05-18T17:39:21Z</time>
      </trkpt>
      <trkpt lat="59.956512" lon="17.7903011">
        <ele>25.6123</ele>
        <time>2013-05-18T17:39:22Z</time>
      </trkpt>
      <trkpt lat="59.9565431" lon="17.7904472">
        <ele>25.6123</ele>
        <time>2013-05-18T17:39:23Z</time>
      </trkpt>
      <trkpt lat="59.9565758" lon="17.7905825">
        <ele>25.6123</ele>
        <time>2013-05-18T17:39:24Z</time>
      </trkpt>
      <trkpt lat="59.9566072" lon="17.7907113">
        <ele>25.6123</ele>
        <time>2013-05-18T17:39:25Z</time>
      </trkpt>
      <trkpt lat="59.9566359" lon="17.7908381">
        <ele>25.6123</ele>
        <time>2013-05-18T17:39:26Z</time>
      </trkpt>
      <trkpt lat="59.956664" lon="17.7909668">
        <ele>26.0929</ele>
        <time>2013-05-18T17:39:27Z</time>
      </trkpt>
      <trkpt lat="59.9566866" lon="17.7910994">
        <ele>26.5736</ele>
        <time>2013-05-18T17:39:28Z</time>
      </trkpt>
      <trkpt lat="59.956703" lon="17.7912333">
        <ele>26.5736</ele>
        <time>2013-05-18T17:39:29Z</time>
      </trkpt>
      <trkpt lat="59.9567079" lon="17.7913826">
        <ele>26.5736</ele>
        <time>2013-05-18T17:39:30Z</time>
      </trkpt>
      <trkpt lat="59.9566988" lon="17.7915355">
        <ele>26.5736</ele>
        <time>2013-05-18T17:39:31Z</time>
      </trkpt>
      <trkpt lat="59.9566808" lon="17.7916832">
        <ele>26.5736</ele>
        <time>2013-05-18T17:39:32Z</time>
      </trkpt>
      <trkpt lat="59.9566579" lon="17.7918241">
        <ele>26.5736</ele>
        <time>2013-05-18T17:39:33Z</time>
      </trkpt>
      <trkpt lat="59.9566342" lon="17.7919629">
        <ele>26.5736</ele>
        <time>2013-05-18T17:39:34Z</time>
      </trkpt>
      <trkpt lat="59.9566108" lon="17.7920991">
        <ele>27.0543</ele>
        <time>2013-05-18T17:39:35Z</time>
      </trkpt>
      <trkpt lat="59.9565874" lon="17.7922306">
        <ele>27.0543</ele>
        <time>2013-05-18T17:39:36Z</time>
      </trkpt>
      <trkpt lat="59.9565644" lon="17.7923595">
        <ele>27.5349</ele>
        <time>2013-05-18T17:39:37Z</time>
      </trkpt>
      <trkpt lat="59.9565418" lon="17.7924877">
        <ele>27.5349</ele>
        <time>2013-05-18T17:39:38Z</time>
      </trkpt>
      <trkpt lat="59.9565192" lon="17.7926164">
        <ele>27.5349</ele>
        <time>2013-05-18T17:39:39Z</time>
      </trkpt>
      <trkpt lat="59.9564969" lon="17.7927462">
        <ele>27.5349</ele>
        <time>2013-05-18T17:39:40Z</time>
      </trkpt>
      <trkpt lat="59.9564746" lon="17.7928783">
        <ele>27.5349</ele>
        <time>2013-05-18T17:39:41Z</time>
      </trkpt>
      <trkpt lat="59.9564499" lon="17.7930104">
        <ele>27.5349</ele>
        <time>2013-05-18T17:39:42Z</time>
      </trkpt>
      <trkpt lat="59.9564228" lon="17.7931428">
        <ele>28.0155</ele>
        <time>2013-05-18T17:39:43Z</time>
      </trkpt>
      <trkpt lat="59.9563959" lon="17.7932766">
        <ele>28.0155</ele>
        <time>2013-05-18T17:39:44Z</time>
      </trkpt>
      <trkpt lat="59.9563684" lon="17.7934126">
        <ele>27.5349</ele>
        <time>2013-05-18T17:39:45Z</time>
      </trkpt>
      <trkpt lat="59.9563399" lon="17.7935499">
        <ele>27.5349</ele>
        <time>2013-05-18T17:39:46Z</time>
      </trkpt>
      <trkpt lat="59.9563108" lon="17.7936877">
        <ele>27.5349</ele>
        <time>2013-05-18T17:39:47Z</time>
      </trkpt>
      <trkpt lat="59.9562814" lon="17.7938262">
        <ele>27.5349</ele>
        <time>2013-05-18T17:39:48Z</time>
      </trkpt>
      <trkpt lat="59.9562514" lon="17.7939655">
        <ele>27.5349</ele>
        <time>2013-05-18T17:39:49Z</time>
      </trkpt>
      <trkpt lat="59.9562203" lon="17.794105">
        <ele>27.5349</ele>
        <time>2013-05-18T17:39:50Z</time>
      </trkpt>
      <trkpt lat="59.9561892" lon="17.794245">
        <ele>27.5349</ele>
        <time>2013-05-18T17:39:51Z</time>
      </trkpt>
      <trkpt lat="59.9561579" lon="17.7943851">
        <ele>27.5349</ele>
        <time>2013-05-18T17:39:52Z</time>
      </trkpt>
      <trkpt lat="59.9561255" lon="17.7945253">
        <ele>27.5349</ele>
        <time>2013-05-18T17:39:53Z</time>
      </trkpt>
      <trkpt lat="59.9560918" lon="17.7946646">
        <ele>27.5349</ele>
        <time>2013-05-18T17:39:54Z</time>
      </trkpt>
      <trkpt lat="59.9560571" lon="17.7948031">
        <ele>27.5349</ele>
        <time>2013-05-18T17:39:55Z</time>
      </trkpt>
      <trkpt lat="59.9560219" lon="17.7949402">
        <ele>27.5349</ele>
        <time>2013-05-18T17:39:56Z</time>
      </trkpt>
      <trkpt lat="59.9559872" lon="17.795075">
        <ele>27.5349</ele>
        <time>2013-05-18T17:39:57Z</time>
      </trkpt>
      <trkpt lat="59.9559531" lon="17.7952118">
        <ele>27.5349</ele>
        <time>2013-05-18T17:39:58Z</time>
      </trkpt>
      <trkpt lat="59.9559213" lon="17.7953489">
        <ele>27.5349</ele>
        <time>2013-05-18T17:39:59Z</time>
      </trkpt>
      <trkpt lat="59.9558928" lon="17.7954862">
        <ele>27.5349</ele>
        <time>2013-05-18T17:40:00Z</time>
      </trkpt>
      <trkpt lat="59.9558655" lon="17.7956247">
        <ele>27.5349</ele>
        <time>2013-05-18T17:40:01Z</time>
      </trkpt>
      <trkpt lat="59.955839" lon="17.7957654">
        <ele>27.5349</ele>
        <time>2013-05-18T17:40:02Z</time>
      </trkpt>
      <trkpt lat="59.9558137" lon="17.7959095">
        <ele>27.5349</ele>
        <time>2013-05-18T17:40:03Z</time>
      </trkpt>
      <trkpt lat="59.9557878" lon="17.7960562">
        <ele>27.0543</ele>
        <time>2013-05-18T17:40:04Z</time>
      </trkpt>
      <trkpt lat="59.9557623" lon="17.7962042">
        <ele>27.0543</ele>
        <time>2013-05-18T17:40:05Z</time>
      </trkpt>
      <trkpt lat="59.9557371" lon="17.7963526">
        <ele>26.5736</ele>
        <time>2013-05-18T17:40:06Z</time>
      </trkpt>
      <trkpt lat="59.955711" lon="17.7965002">
        <ele>26.5736</ele>
        <time>2013-05-18T17:40:07Z</time>
      </trkpt>
      <trkpt lat="59.9556831" lon="17.7966477">
        <ele>26.5736</ele>
        <time>2013-05-18T17:40:08Z</time>
      </trkpt>
      <trkpt lat="59.9556534" lon="17.7967942">
        <ele>26.5736</ele>
        <time>2013-05-18T17:40:09Z</time>
      </trkpt>
      <trkpt lat="59.9556211" lon="17.796938">
        <ele>26.5736</ele>
        <time>2013-05-18T17:40:10Z</time>
      </trkpt>
      <trkpt lat="59.9555874" lon="17.7970781">
        <ele>26.5736</ele>
        <time>2013-05-18T17:40:11Z</time>
      </trkpt>
      <trkpt lat="59.9555516" lon="17.7972139">
        <ele>26.5736</ele>
        <time>2013-05-18T17:40:12Z</time>
      </trkpt>
      <trkpt lat="59.9555141" lon="17.7973466">
        <ele>27.0543</ele>
        <time>2013-05-18T17:40:13Z</time>
      </trkpt>
      <trkpt lat="59.9554763" lon="17.7974769">
        <ele>27.0543</ele>
        <time>2013-05-18T17:40:14Z</time>
      </trkpt>
      <trkpt lat="59.9554384" lon="17.797604">
        <ele>27.0543</ele>
        <time>2013-05-18T17:40:15Z</time>
      </trkpt>
      <trkpt lat="59.9554009" lon="17.7977289">
        <ele>27.5349</ele>
        <time>2013-05-18T17:40:16Z</time>
      </trkpt>
      <trkpt lat="59.9553636" lon="17.797853">
        <ele>27.5349</ele>
        <time>2013-05-18T17:40:17Z</time>
      </trkpt>
      <trkpt lat="59.9553262" lon="17.7979765">
        <ele>28.0155</ele>
        <time>2013-05-18T17:40:18Z</time>
      </trkpt>
      <trkpt lat="59.9552889" lon="17.7980983">
        <ele>28.0155</ele>
        <time>2013-05-18T17:40:19Z</time>
      </trkpt>
      <trkpt lat="59.9552511" lon="17.7982184">
        <ele>28.0155</ele>
        <time>2013-05-18T17:40:20Z</time>
      </trkpt>
      <trkpt lat="59.9552127" lon="17.7983368">
        <ele>28.4962</ele>
        <time>2013-05-18T17:40:21Z</time>
      </trkpt>
      <trkpt lat="59.9551724" lon="17.7984523">
        <ele>28.4962</ele>
        <time>2013-05-18T17:40:22Z</time>
      </trkpt>
      <trkpt lat="59.9551303" lon="17.7985607">
        <ele>28.4962</ele>
        <time>2013-05-18T17:40:23Z</time>
      </trkpt>
      <trkpt lat="59.9550873" lon="17.7986633">
        <ele>28.9769</ele>
        <time>2013-05-18T17:40:24Z</time>
      </trkpt>
      <trkpt lat="59.955044" lon="17.798761">
        <ele>28.9769</ele>
        <time>2013-05-18T17:40:25Z</time>
      </trkpt>
      <trkpt lat="59.9549994" lon="17.7988543">
        <ele>28.9769</ele>
        <time>2013-05-18T17:40:26Z</time>
      </trkpt>
      <trkpt lat="59.9549539" lon="17.7989444">
        <ele>28.9769</ele>
        <time>2013-05-18T17:40:27Z</time>
      </trkpt>
      <trkpt lat="59.954907" lon="17.7990326">
        <ele>28.9769</ele>
        <time>2013-05-18T17:40:28Z</time>
      </trkpt>
      <trkpt lat="59.9548585" lon="17.7991197">
        <ele>28.4962</ele>
        <time>2013-05-18T17:40:29Z</time>
      </trkpt>
      <trkpt lat="59.9548098" lon="17.7992096">
        <ele>28.4962</ele>
        <time>2013-05-18T17:40:30Z</time>
      </trkpt>
      <trkpt lat="59.9547598" lon="17.7993027">
        <ele>28.4962</ele>
        <time>2013-05-18T17:40:31Z</time>
      </trkpt>
      <trkpt lat="59.9547096" lon="17.7993998">
        <ele>28.0155</ele>
        <time>2013-05-18T17:40:32Z</time>
      </trkpt>
      <trkpt lat="59.9546594" lon="17.7994994">
        <ele>28.0155</ele>
        <time>2013-05-18T17:40:33Z</time>
      </trkpt>
      <trkpt lat="59.9546083" lon="17.7996023">
        <ele>27.5349</ele>
        <time>2013-05-18T17:40:34Z</time>
      </trkpt>
      <trkpt lat="59.9545574" lon="17.7997113">
        <ele>27.0543</ele>
        <time>2013-05-18T17:40:35Z</time>
      </trkpt>
      <trkpt lat="59.9545073" lon="17.7998262">
        <ele>27.0543</ele>
        <time>2013-05-18T17:40:36Z</time>
      </trkpt>
      <trkpt lat="59.9544575" lon="17.7999418">
        <ele>27.0543</ele>
        <time>2013-05-18T17:40:37Z</time>
      </trkpt>
      <trkpt lat="59.9544087" lon="17.8000587">
        <ele>27.0543</ele>
        <time>2013-05-18T17:40:38Z</time>
      </trkpt>
      <trkpt lat="59.9543604" lon="17.8001744">
        <ele>27.5349</ele>
        <time>2013-05-18T17:40:39Z</time>
      </trkpt>
      <trkpt lat="59.9543128" lon="17.8002888">
        <ele>27.5349</ele>
        <time>2013-05-18T17:40:40Z</time>
      </trkpt>
      <trkpt lat="59.9542665" lon="17.8004023">
        <ele>27.5349</ele>
        <time>2013-05-18T17:40:41Z</time>
      </trkpt>
      <trkpt lat="59.9542212" lon="17.8005185">
        <ele>27.5349</ele>
        <time>2013-05-18T17:40:42Z</time>
      </trkpt>
      <trkpt lat="59.9541743" lon="17.8006318">
        <ele>27.5349</ele>
        <time>2013-05-18T17:40:43Z</time>
      </trkpt>
      <trkpt lat="59.9541269" lon="17.8007406">
        <ele>27.5349</ele>
        <time>2013-05-18T17:40:44Z</time>
      </trkpt>
      <trkpt lat="59.9540805" lon="17.8008476">
        <ele>27.5349</ele>
        <time>2013-05-18T17:40:45Z</time>
      </trkpt>
      <trkpt lat="59.9540368" lon="17.8009549">
        <ele>27.5349</ele>
        <time>2013-05-18T17:40:46Z</time>
      </trkpt>
      <trkpt lat="59.9539944" lon="17.8010638">
        <ele>27.5349</ele>
        <time>2013-05-18T17:40:47Z</time>
      </trkpt>
      <trkpt lat="59.9539523" lon="17.8011722">
        <ele>28.0155</ele>
        <time>2013-05-18T17:40:48Z</time>
      </trkpt>
      <trkpt lat="59.95391" lon="17.8012807">
        <ele>28.0155</ele>
        <time>2013-05-18T17:40:49Z</time>
      </trkpt>
      <trkpt lat="59.9538669" lon="17.8013854">
        <ele>28.0155</ele>
        <time>2013-05-18T17:40:50Z</time>
      </trkpt>
      <trkpt lat="59.9538235" lon="17.8014875">
        <ele>28.0155</ele>
        <time>2013-05-18T17:40:51Z</time>
      </trkpt>
      <trkpt lat="59.9537821" lon="17.8015911">
        <ele>28.4962</ele>
        <time>2013-05-18T17:40:52Z</time>
      </trkpt>
      <trkpt lat="59.9537416" lon="17.8016956">
        <ele>28.4962</ele>
        <time>2013-05-18T17:40:53Z</time>
      </trkpt>
      <trkpt lat="59.9537034" lon="17.8018093">
        <ele>28.0155</ele>
        <time>2013-05-18T17:40:54Z</time>
      </trkpt>
      <trkpt lat="59.9536726" lon="17.8019228">
        <ele>28.0155</ele>
        <time>2013-05-18T17:40:55Z</time>
      </trkpt>
      <trkpt lat="59.9536433" lon="17.8020344">
        <ele>28.0155</ele>
        <time>2013-05-18T17:40:56Z</time>
      </trkpt>
      <trkpt lat="59.9536157" lon="17.802149">
        <ele>27.5349</ele>
        <time>2013-05-18T17:40:57Z</time>
      </trkpt>
      <trkpt lat="59.9535904" lon="17.8022589">
        <ele>27.0543</ele>
        <time>2013-05-18T17:40:58Z</time>
      </trkpt>
      <trkpt lat="59.953566" lon="17.8023702">
        <ele>26.5736</ele>
        <time>2013-05-18T17:40:59Z</time>
      </trkpt>
      <trkpt lat="59.9535422" lon="17.8024796">
        <ele>26.5736</ele>
        <time>2013-05-18T17:41:00Z</time>
      </trkpt>
      <trkpt lat="59.9535211" lon="17.8025804">
        <ele>26.0929</ele>
        <time>2013-05-18T17:41:01Z</time>
      </trkpt>
      <trkpt lat="59.9534925" lon="17.8027062">
        <ele>25.6123</ele>
        <time>2013-05-18T17:41:02Z</time>
      </trkpt>
      <trkpt lat="59.9534655" lon="17.802825">
        <ele>25.1317</ele>
        <time>2013-05-18T17:41:03Z</time>
      </trkpt>
      <trkpt lat="59.9534443" lon="17.8029561">
        <ele>24.651</ele>
        <time>2013-05-18T17:41:04Z</time>
      </trkpt>
      <trkpt lat="59.9534192" lon="17.8030706">
        <ele>25.1317</ele>
        <time>2013-05-18T17:41:05Z</time>
      </trkpt>
      <trkpt lat="59.953381" lon="17.8031949">
        <ele>25.1317</ele>
        <time>2013-05-18T17:41:06Z</time>
      </trkpt>
      <trkpt lat="59.9533455" lon="17.8033165">
        <ele>25.6123</ele>
        <time>2013-05-18T17:41:07Z</time>
      </trkpt>
      <trkpt lat="59.9533069" lon="17.8034372">
        <ele>26.0929</ele>
        <time>2013-05-18T17:41:08Z</time>
      </trkpt>
      <trkpt lat="59.9532645" lon="17.8035509">
        <ele>25.1317</ele>
        <time>2013-05-18T17:41:09Z</time>
      </trkpt>
      <trkpt lat="59.9532184" lon="17.8036507">
        <ele>24.651</ele>
        <time>2013-05-18T17:41:10Z</time>
      </trkpt>
      <trkpt lat="59.9531719" lon="17.8037554">
        <ele>24.651</ele>
        <time>2013-05-18T17:41:11Z</time>
      </trkpt>
      <trkpt lat="59.9531219" lon="17.8038502">
        <ele>24.651</ele>
        <time>2013-05-18T17:41:12Z</time>
      </trkpt>
      <trkpt lat="59.9530729" lon="17.8039495">
        <ele>25.1317</ele>
        <time>2013-05-18T17:41:13Z</time>
      </trkpt>
      <trkpt lat="59.9530229" lon="17.8040518">
        <ele>25.6123</ele>
        <time>2013-05-18T17:41:14Z</time>
      </trkpt>
      <trkpt lat="59.9529708" lon="17.8041548">
        <ele>25.6123</ele>
        <time>2013-05-18T17:41:15Z</time>
      </trkpt>
      <trkpt lat="59.9529224" lon="17.8042708">
        <ele>25.6123</ele>
        <time>2013-05-18T17:41:16Z</time>
      </trkpt>
      <trkpt lat="59.9528781" lon="17.8043988">
        <ele>25.1317</ele>
        <time>2013-05-18T17:41:17Z</time>
      </trkpt>
      <trkpt lat="59.9528423" lon="17.8045412">
        <ele>25.1317</ele>
        <time>2013-05-18T17:41:18Z</time>
      </trkpt>
      <trkpt lat="59.9528132" lon="17.8046918">
        <ele>25.6123</ele>
        <time>2013-05-18T17:41:19Z</time>
      </trkpt>
      <trkpt lat="59.9527891" lon="17.8048443">
        <ele>25.6123</ele>
        <time>2013-05-18T17:41:20Z</time>
      </trkpt>
      <trkpt lat="59.9527679" lon="17.8050002">
        <ele>26.0929</ele>
        <time>2013-05-18T17:41:21Z</time>
      </trkpt>
      <trkpt lat="59.9527501" lon="17.8051628">
        <ele>26.5736</ele>
        <time>2013-05-18T17:41:22Z</time>
      </trkpt>
      <trkpt lat="59.9527316" lon="17.8053208">
        <ele>26.5736</ele>
        <time>2013-05-18T17:41:23Z</time>
      </trkpt>
      <trkpt lat="59.952714" lon="17.8054791">
        <ele>27.0543</ele>
        <time>2013-05-18T17:41:24Z</time>
      </trkpt>
      <trkpt lat="59.9526958" lon="17.8056358">
        <ele>27.0543</ele>
        <time>2013-05-18T17:41:25Z</time>
      </trkpt>
      <trkpt lat="59.9526757" lon="17.8057916">
        <ele>27.0543</ele>
        <time>2013-05-18T17:41:26Z</time>
      </trkpt>
      <trkpt lat="59.9526539" lon="17.8059456">
        <ele>27.5349</ele>
        <time>2013-05-18T17:41:27Z</time>
      </trkpt>
      <trkpt lat="59.9526305" lon="17.8060994">
        <ele>27.5349</ele>
        <time>2013-05-18T17:41:28Z</time>
      </trkpt>
      <trkpt lat="59.9526037" lon="17.806251">
        <ele>27.5349</ele>
        <time>2013-05-18T17:41:29Z</time>
      </trkpt>
      <trkpt lat="59.9525741" lon="17.806392">
        <ele>27.0543</ele>
        <time>2013-05-18T17:41:30Z</time>
      </trkpt>
      <trkpt lat="59.952544" lon="17.8065336">
        <ele>26.5736</ele>
        <time>2013-05-18T17:41:31Z</time>
      </trkpt>
      <trkpt lat="59.9525134" lon="17.80668">
        <ele>26.5736</ele>
        <time>2013-05-18T17:41:32Z</time>
      </trkpt>
      <trkpt lat="59.9524801" lon="17.8068256">
        <ele>26.0929</ele>
        <time>2013-05-18T17:41:33Z</time>
      </trkpt>
      <trkpt lat="59.9524439" lon="17.8069738">
        <ele>26.0929</ele>
        <time>2013-05-18T17:41:34Z</time>
      </trkpt>
      <trkpt lat="59.9524058" lon="17.8071236">
        <ele>25.6123</ele>
        <time>2013-05-18T17:41:35Z</time>
      </trkpt>
      <trkpt lat="59.9523664" lon="17.8072741">
        <ele>25.1317</ele>
        <time>2013-05-18T17:41:36Z</time>
      </trkpt>
      <trkpt lat="59.9523247" lon="17.807425">
        <ele>25.1317</ele>
        <time>2013-05-18T17:41:37Z</time>
      </trkpt>
      <trkpt lat="59.9522829" lon="17.8075778">
        <ele>24.651</ele>
        <time>2013-05-18T17:41:38Z</time>
      </trkpt>
      <trkpt lat="59.9522429" lon="17.8077307">
        <ele>24.651</ele>
        <time>2013-05-18T17:41:39Z</time>
      </trkpt>
      <trkpt lat="59.9522032" lon="17.8078844">
        <ele>24.651</ele>
        <time>2013-05-18T17:41:40Z</time>
      </trkpt>
      <trkpt lat="59.9521627" lon="17.8080383">
        <ele>24.1703</ele>
        <time>2013-05-18T17:41:41Z</time>
      </trkpt>
      <trkpt lat="59.9521223" lon="17.8081932">
        <ele>24.1703</ele>
        <time>2013-05-18T17:41:42Z</time>
      </trkpt>
      <trkpt lat="59.952082" lon="17.8083486">
        <ele>24.1703</ele>
        <time>2013-05-18T17:41:43Z</time>
      </trkpt>
      <trkpt lat="59.9520415" lon="17.8085039">
        <ele>24.1703</ele>
        <time>2013-05-18T17:41:44Z</time>
      </trkpt>
      <trkpt lat="59.9520005" lon="17.8086584">
        <ele>24.1703</ele>
        <time>2013-05-18T17:41:45Z</time>
      </trkpt>
      <trkpt lat="59.9519591" lon="17.8088112">
        <ele>24.1703</ele>
        <time>2013-05-18T17:41:46Z</time>
      </trkpt>
      <trkpt lat="59.9519183" lon="17.808964">
        <ele>23.6896</ele>
        <time>2013-05-18T17:41:47Z</time>
      </trkpt>
      <trkpt lat="59.9518784" lon="17.8091173">
        <ele>23.6896</ele>
        <time>2013-05-18T17:41:48Z</time>
      </trkpt>
      <trkpt lat="59.9518391" lon="17.8092704">
        <ele>24.1703</ele>
        <time>2013-05-18T17:41:49Z</time>
      </trkpt>
      <trkpt lat="59.9518002" lon="17.8094222">
        <ele>23.6896</ele>
        <time>2013-05-18T17:41:50Z</time>
      </trkpt>
      <trkpt lat="59.9517613" lon="17.8095707">
        <ele>23.6896</ele>
        <time>2013-05-18T17:41:51Z</time>
      </trkpt>
      <trkpt lat="59.9517224" lon="17.8097162">
        <ele>23.6896</ele>
        <time>2013-05-18T17:41:52Z</time>
      </trkpt>
      <trkpt lat="59.9516841" lon="17.8098605">
        <ele>23.6896</ele>
        <time>2013-05-18T17:41:53Z</time>
      </trkpt>
      <trkpt lat="59.9516461" lon="17.8100045">
        <ele>23.6896</ele>
        <time>2013-05-18T17:41:54Z</time>
      </trkpt>
      <trkpt lat="59.951609" lon="17.8101485">
        <ele>23.6896</ele>
        <time>2013-05-18T17:41:55Z</time>
      </trkpt>
      <trkpt lat="59.9515743" lon="17.8102927">
        <ele>23.6896</ele>
        <time>2013-05-18T17:41:56Z</time>
      </trkpt>
      <trkpt lat="59.9515415" lon="17.8104355">
        <ele>24.1703</ele>
        <time>2013-05-18T17:41:57Z</time>
      </trkpt>
      <trkpt lat="59.9515104" lon="17.810578">
        <ele>24.1703</ele>
        <time>2013-05-18T17:41:58Z</time>
      </trkpt>
      <trkpt lat="59.9514816" lon="17.8107214">
        <ele>24.1703</ele>
        <time>2013-05-18T17:41:59Z</time>
      </trkpt>
      <trkpt lat="59.9514549" lon="17.8108657">
        <ele>24.1703</ele>
        <time>2013-05-18T17:42:00Z</time>
      </trkpt>
      <trkpt lat="59.9514299" lon="17.8110107">
        <ele>24.1703</ele>
        <time>2013-05-18T17:42:01Z</time>
      </trkpt>
      <trkpt lat="59.9514069" lon="17.8111561">
        <ele>24.1703</ele>
        <time>2013-05-18T17:42:02Z</time>
      </trkpt>
      <trkpt lat="59.9513855" lon="17.8113018">
        <ele>24.1703</ele>
        <time>2013-05-18T17:42:03Z</time>
      </trkpt>
      <trkpt lat="59.9513655" lon="17.8114484">
        <ele>24.1703</ele>
        <time>2013-05-18T17:42:04Z</time>
      </trkpt>
      <trkpt lat="59.9513463" lon="17.8115955">
        <ele>23.6896</ele>
        <time>2013-05-18T17:42:05Z</time>
      </trkpt>
      <trkpt lat="59.9513292" lon="17.8117437">
        <ele>23.6896</ele>
        <time>2013-05-18T17:42:06Z</time>
      </trkpt>
      <trkpt lat="59.9513157" lon="17.8118938">
        <ele>23.6896</ele>
        <time>2013-05-18T17:42:07Z</time>
      </trkpt>
      <trkpt lat="59.9513059" lon="17.8120452">
        <ele>23.6896</ele>
        <time>2013-05-18T17:42:08Z</time>
      </trkpt>
      <trkpt lat="59.9512988" lon="17.8121979">
        <ele>23.6896</ele>
        <time>2013-05-18T17:42:09Z</time>
      </trkpt>
      <trkpt lat="59.9512949" lon="17.8123513">
        <ele>23.6896</ele>
        <time>2013-05-18T17:42:10Z</time>
      </trkpt>
      <trkpt lat="59.9512931" lon="17.8125056">
        <ele>23.6896</ele>
        <time>2013-05-18T17:42:11Z</time>
      </trkpt>
      <trkpt lat="59.951292" lon="17.8126609">
        <ele>23.6896</ele>
        <time>2013-05-18T17:42:12Z</time>
      </trkpt>
      <trkpt lat="59.9512905" lon="17.8128169">
        <ele>23.6896</ele>
        <time>2013-05-18T17:42:13Z</time>
      </trkpt>
      <trkpt lat="59.9512895" lon="17.8129743">
        <ele>23.209</ele>
        <time>2013-05-18T17:42:14Z</time>
      </trkpt>
      <trkpt lat="59.9512895" lon="17.8131327">
        <ele>23.209</ele>
        <time>2013-05-18T17:42:15Z</time>
      </trkpt>
      <trkpt lat="59.9512892" lon="17.8132919">
        <ele>23.209</ele>
        <time>2013-05-18T17:42:16Z</time>
      </trkpt>
      <trkpt lat="59.9512878" lon="17.8134518">
        <ele>23.209</ele>
        <time>2013-05-18T17:42:17Z</time>
      </trkpt>
      <trkpt lat="59.9512871" lon="17.8136116">
        <ele>23.209</ele>
        <time>2013-05-18T17:42:18Z</time>
      </trkpt>
      <trkpt lat="59.9512863" lon="17.8137715">
        <ele>23.209</ele>
        <time>2013-05-18T17:42:19Z</time>
      </trkpt>
      <trkpt lat="59.9512848" lon="17.8139317">
        <ele>23.209</ele>
        <time>2013-05-18T17:42:20Z</time>
      </trkpt>
      <trkpt lat="59.9512837" lon="17.8140912">
        <ele>23.209</ele>
        <time>2013-05-18T17:42:21Z</time>
      </trkpt>
      <trkpt lat="59.9512829" lon="17.8142495">
        <ele>23.209</ele>
        <time>2013-05-18T17:42:22Z</time>
      </trkpt>
      <trkpt lat="59.9512816" lon="17.8144062">
        <ele>23.209</ele>
        <time>2013-05-18T17:42:23Z</time>
      </trkpt>
      <trkpt lat="59.95128" lon="17.8145612">
        <ele>23.209</ele>
        <time>2013-05-18T17:42:24Z</time>
      </trkpt>
      <trkpt lat="59.9512785" lon="17.8147154">
        <ele>23.209</ele>
        <time>2013-05-18T17:42:25Z</time>
      </trkpt>
      <trkpt lat="59.9512772" lon="17.8148693">
        <ele>23.209</ele>
        <time>2013-05-18T17:42:26Z</time>
      </trkpt>
      <trkpt lat="59.9512754" lon="17.8150226">
        <ele>23.209</ele>
        <time>2013-05-18T17:42:27Z</time>
      </trkpt>
      <trkpt lat="59.9512719" lon="17.8151755">
        <ele>23.209</ele>
        <time>2013-05-18T17:42:28Z</time>
      </trkpt>
      <trkpt lat="59.9512666" lon="17.8153286">
        <ele>23.209</ele>
        <time>2013-05-18T17:42:29Z</time>
      </trkpt>
      <trkpt lat="59.9512604" lon="17.815482">
        <ele>23.209</ele>
        <time>2013-05-18T17:42:30Z</time>
      </trkpt>
      <trkpt lat="59.9512541" lon="17.8156354">
        <ele>23.209</ele>
        <time>2013-05-18T17:42:31Z</time>
      </trkpt>
      <trkpt lat="59.9512468" lon="17.8157877">
        <ele>23.209</ele>
        <time>2013-05-18T17:42:32Z</time>
      </trkpt>
      <trkpt lat="59.9512381" lon="17.815939">
        <ele>23.209</ele>
        <time>2013-05-18T17:42:33Z</time>
      </trkpt>
      <trkpt lat="59.9512281" lon="17.8160898">
        <ele>23.209</ele>
        <time>2013-05-18T17:42:34Z</time>
      </trkpt>
      <trkpt lat="59.9512166" lon="17.8162392">
        <ele>23.209</ele>
        <time>2013-05-18T17:42:35Z</time>
      </trkpt>
      <trkpt lat="59.9512045" lon="17.816388">
        <ele>23.209</ele>
        <time>2013-05-18T17:42:36Z</time>
      </trkpt>
      <trkpt lat="59.9511925" lon="17.8165371">
        <ele>23.209</ele>
        <time>2013-05-18T17:42:37Z</time>
      </trkpt>
      <trkpt lat="59.9511795" lon="17.8166857">
        <ele>23.6896</ele>
        <time>2013-05-18T17:42:38Z</time>
      </trkpt>
      <trkpt lat="59.9511657" lon="17.8168336">
        <ele>23.6896</ele>
        <time>2013-05-18T17:42:39Z</time>
      </trkpt>
      <trkpt lat="59.9511517" lon="17.8169812">
        <ele>23.6896</ele>
        <time>2013-05-18T17:42:40Z</time>
      </trkpt>
      <trkpt lat="59.951137" lon="17.8171279">
        <ele>23.6896</ele>
        <time>2013-05-18T17:42:41Z</time>
      </trkpt>
      <trkpt lat="59.9511214" lon="17.8172732">
        <ele>23.6896</ele>
        <time>2013-05-18T17:42:42Z</time>
      </trkpt>
      <trkpt lat="59.951106" lon="17.817417">
        <ele>23.6896</ele>
        <time>2013-05-18T17:42:43Z</time>
      </trkpt>
      <trkpt lat="59.9510921" lon="17.8175598">
        <ele>24.1703</ele>
        <time>2013-05-18T17:42:44Z</time>
      </trkpt>
      <trkpt lat="59.9510788" lon="17.8177007">
        <ele>24.1703</ele>
        <time>2013-05-18T17:42:45Z</time>
      </trkpt>
      <trkpt lat="59.9510645" lon="17.81784">
        <ele>24.1703</ele>
        <time>2013-05-18T17:42:46Z</time>
      </trkpt>
      <trkpt lat="59.95105" lon="17.8179787">
        <ele>24.1703</ele>
        <time>2013-05-18T17:42:47Z</time>
      </trkpt>
      <trkpt lat="59.9510361" lon="17.8181162">
        <ele>24.651</ele>
        <time>2013-05-18T17:42:48Z</time>
      </trkpt>
      <trkpt lat="59.9510216" lon="17.818253">
        <ele>24.651</ele>
        <time>2013-05-18T17:42:49Z</time>
      </trkpt>
      <trkpt lat="59.951007" lon="17.8183902">
        <ele>24.651</ele>
        <time>2013-05-18T17:42:50Z</time>
      </trkpt>
      <trkpt lat="59.9509931" lon="17.8185284">
        <ele>24.651</ele>
        <time>2013-05-18T17:42:51Z</time>
      </trkpt>
      <trkpt lat="59.9509792" lon="17.8186678">
        <ele>25.1317</ele>
        <time>2013-05-18T17:42:52Z</time>
      </trkpt>
      <trkpt lat="59.9509657" lon="17.8188081">
        <ele>25.1317</ele>
        <time>2013-05-18T17:42:53Z</time>
      </trkpt>
      <trkpt lat="59.9509537" lon="17.8189505">
        <ele>25.1317</ele>
        <time>2013-05-18T17:42:54Z</time>
      </trkpt>
      <trkpt lat="59.950944" lon="17.8190947">
        <ele>25.1317</ele>
        <time>2013-05-18T17:42:55Z</time>
      </trkpt>
      <trkpt lat="59.9509371" lon="17.8192404">
        <ele>25.1317</ele>
        <time>2013-05-18T17:42:56Z</time>
      </trkpt>
      <trkpt lat="59.9509329" lon="17.8193879">
        <ele>24.651</ele>
        <time>2013-05-18T17:42:57Z</time>
      </trkpt>
      <trkpt lat="59.9509304" lon="17.8195369">
        <ele>24.651</ele>
        <time>2013-05-18T17:42:58Z</time>
      </trkpt>
      <trkpt lat="59.9509289" lon="17.8196864">
        <ele>24.1703</ele>
        <time>2013-05-18T17:42:59Z</time>
      </trkpt>
      <trkpt lat="59.9509273" lon="17.8198374">
        <ele>24.1703</ele>
        <time>2013-05-18T17:43:00Z</time>
      </trkpt>
      <trkpt lat="59.9509242" lon="17.8199902">
        <ele>24.1703</ele>
        <time>2013-05-18T17:43:01Z</time>
      </trkpt>
      <trkpt lat="59.9509199" lon="17.8201437">
        <ele>23.6896</ele>
        <time>2013-05-18T17:43:02Z</time>
      </trkpt>
      <trkpt lat="59.9509137" lon="17.820297">
        <ele>23.6896</ele>
        <time>2013-05-18T17:43:03Z</time>
      </trkpt>
      <trkpt lat="59.950906" lon="17.8204498">
        <ele>23.6896</ele>
        <time>2013-05-18T17:43:04Z</time>
      </trkpt>
      <trkpt lat="59.9508975" lon="17.8206017">
        <ele>23.6896</ele>
        <time>2013-05-18T17:43:05Z</time>
      </trkpt>
      <trkpt lat="59.9508879" lon="17.8207539">
        <ele>23.6896</ele>
        <time>2013-05-18T17:43:06Z</time>
      </trkpt>
      <trkpt lat="59.9508771" lon="17.8209067">
        <ele>23.209</ele>
        <time>2013-05-18T17:43:07Z</time>
      </trkpt>
      <trkpt lat="59.9508661" lon="17.8210601">
        <ele>23.209</ele>
        <time>2013-05-18T17:43:08Z</time>
      </trkpt>
      <trkpt lat="59.9508537" lon="17.8212147">
        <ele>22.7283</ele>
        <time>2013-05-18T17:43:09Z</time>
      </trkpt>
      <trkpt lat="59.9508402" lon="17.8213684">
        <ele>22.7283</ele>
        <time>2013-05-18T17:43:10Z</time>
      </trkpt>
      <trkpt lat="59.9508252" lon="17.8215221">
        <ele>22.7283</ele>
        <time>2013-05-18T17:43:11Z</time>
      </trkpt>
      <trkpt lat="59.9508097" lon="17.821675">
        <ele>22.7283</ele>
        <time>2013-05-18T17:43:12Z</time>
      </trkpt>
      <trkpt lat="59.9507943" lon="17.8218256">
        <ele>22.7283</ele>
        <time>2013-05-18T17:43:13Z</time>
      </trkpt>
      <trkpt lat="59.9507784" lon="17.8219749">
        <ele>22.7283</ele>
        <time>2013-05-18T17:43:14Z</time>
      </trkpt>
      <trkpt lat="59.9507619" lon="17.8221248">
        <ele>22.2476</ele>
        <time>2013-05-18T17:43:15Z</time>
      </trkpt>
      <trkpt lat="59.9507453" lon="17.8222747">
        <ele>22.2476</ele>
        <time>2013-05-18T17:43:16Z</time>
      </trkpt>
      <trkpt lat="59.9507281" lon="17.8224241">
        <ele>22.2476</ele>
        <time>2013-05-18T17:43:17Z</time>
      </trkpt>
      <trkpt lat="59.9507103" lon="17.8225742">
        <ele>22.2476</ele>
        <time>2013-05-18T17:43:18Z</time>
      </trkpt>
      <trkpt lat="59.950693" lon="17.8227254">
        <ele>22.2476</ele>
        <time>2013-05-18T17:43:19Z</time>
      </trkpt>
      <trkpt lat="59.9506766" lon="17.8228777">
        <ele>22.2476</ele>
        <time>2013-05-18T17:43:20Z</time>
      </trkpt>
      <trkpt lat="59.9506621" lon="17.8230316">
        <ele>22.7283</ele>
        <time>2013-05-18T17:43:21Z</time>
      </trkpt>
      <trkpt lat="59.9506485" lon="17.8231826">
        <ele>22.7283</ele>
        <time>2013-05-18T17:43:22Z</time>
      </trkpt>
      <trkpt lat="59.9506346" lon="17.8233337">
        <ele>22.7283</ele>
        <time>2013-05-18T17:43:23Z</time>
      </trkpt>
      <trkpt lat="59.9506185" lon="17.8234848">
        <ele>22.7283</ele>
        <time>2013-05-18T17:43:24Z</time>
      </trkpt>
      <trkpt lat="59.9506" lon="17.8236346">
        <ele>22.7283</ele>
        <time>2013-05-18T17:43:25Z</time>
      </trkpt>
      <trkpt lat="59.9505797" lon="17.8237841">
        <ele>22.7283</ele>
        <time>2013-05-18T17:43:26Z</time>
      </trkpt>
      <trkpt lat="59.9505582" lon="17.8239329">
        <ele>22.7283</ele>
        <time>2013-05-18T17:43:27Z</time>
      </trkpt>
      <trkpt lat="59.950533" lon="17.8240785">
        <ele>22.7283</ele>
        <time>2013-05-18T17:43:28Z</time>
      </trkpt>
      <trkpt lat="59.9505041" lon="17.8242235">
        <ele>22.2476</ele>
        <time>2013-05-18T17:43:29Z</time>
      </trkpt>
      <trkpt lat="59.9504733" lon="17.8243692">
        <ele>22.2476</ele>
        <time>2013-05-18T17:43:30Z</time>
      </trkpt>
      <trkpt lat="59.9504424" lon="17.8245149">
        <ele>22.2476</ele>
        <time>2013-05-18T17:43:31Z</time>
      </trkpt>
      <trkpt lat="59.9504129" lon="17.8246592">
        <ele>22.2476</ele>
        <time>2013-05-18T17:43:32Z</time>
      </trkpt>
      <trkpt lat="59.9503828" lon="17.824802">
        <ele>22.2476</ele>
        <time>2013-05-18T17:43:33Z</time>
      </trkpt>
      <trkpt lat="59.9503533" lon="17.8249444">
        <ele>21.767</ele>
        <time>2013-05-18T17:43:34Z</time>
      </trkpt>
      <trkpt lat="59.9503241" lon="17.8250864">
        <ele>21.767</ele>
        <time>2013-05-18T17:43:35Z</time>
      </trkpt>
      <trkpt lat="59.9502943" lon="17.8252275">
        <ele>21.767</ele>
        <time>2013-05-18T17:43:36Z</time>
      </trkpt>
      <trkpt lat="59.9502638" lon="17.8253679">
        <ele>21.767</ele>
        <time>2013-05-18T17:43:37Z</time>
      </trkpt>
      <trkpt lat="59.9502312" lon="17.8255064">
        <ele>21.2864</ele>
        <time>2013-05-18T17:43:38Z</time>
      </trkpt>
      <trkpt lat="59.9501963" lon="17.8256417">
        <ele>21.2864</ele>
        <time>2013-05-18T17:43:39Z</time>
      </trkpt>
      <trkpt lat="59.950161" lon="17.8257755">
        <ele>21.2864</ele>
        <time>2013-05-18T17:43:40Z</time>
      </trkpt>
      <trkpt lat="59.9501276" lon="17.8259106">
        <ele>21.2864</ele>
        <time>2013-05-18T17:43:41Z</time>
      </trkpt>
      <trkpt lat="59.9500965" lon="17.8260473">
        <ele>20.8057</ele>
        <time>2013-05-18T17:43:42Z</time>
      </trkpt>
      <trkpt lat="59.9500679" lon="17.8261856">
        <ele>20.8057</ele>
        <time>2013-05-18T17:43:43Z</time>
      </trkpt>
      <trkpt lat="59.950043" lon="17.8263256">
        <ele>20.8057</ele>
        <time>2013-05-18T17:43:44Z</time>
      </trkpt>
      <trkpt lat="59.9500223" lon="17.8264676">
        <ele>20.8057</ele>
        <time>2013-05-18T17:43:45Z</time>
      </trkpt>
      <trkpt lat="59.9500055" lon="17.8266114">
        <ele>20.325</ele>
        <time>2013-05-18T17:43:46Z</time>
      </trkpt>
      <trkpt lat="59.9499921" lon="17.8267549">
        <ele>20.325</ele>
        <time>2013-05-18T17:43:47Z</time>
      </trkpt>
      <trkpt lat="59.9499829" lon="17.8268966">
        <ele>20.325</ele>
        <time>2013-05-18T17:43:48Z</time>
      </trkpt>
      <trkpt lat="59.949976" lon="17.8270368">
        <ele>20.325</ele>
        <time>2013-05-18T17:43:49Z</time>
      </trkpt>
      <trkpt lat="59.94997" lon="17.8271751">
        <ele>19.8444</ele>
        <time>2013-05-18T17:43:50Z</time>
      </trkpt>
      <trkpt lat="59.9499664" lon="17.827312">
        <ele>19.8444</ele>
        <time>2013-05-18T17:43:51Z</time>
      </trkpt>
      <trkpt lat="59.9499638" lon="17.8274481">
        <ele>19.8444</ele>
        <time>2013-05-18T17:43:52Z</time>
      </trkpt>
      <trkpt lat="59.9499622" lon="17.8275826">
        <ele>19.8444</ele>
        <time>2013-05-18T17:43:53Z</time>
      </trkpt>
      <trkpt lat="59.9499617" lon="17.827716">
        <ele>19.8444</ele>
        <time>2013-05-18T17:43:54Z</time>
      </trkpt>
      <trkpt lat="59.9499622" lon="17.8278502">
        <ele>19.8444</ele>
        <time>2013-05-18T17:43:55Z</time>
      </trkpt>
      <trkpt lat="59.9499638" lon="17.8279847">
        <ele>19.8444</ele>
        <time>2013-05-18T17:43:56Z</time>
      </trkpt>
      <trkpt lat="59.9499659" lon="17.8281189">
        <ele>19.3638</ele>
        <time>2013-05-18T17:43:57Z</time>
      </trkpt>
      <trkpt lat="59.9499677" lon="17.8282522">
        <ele>19.3638</ele>
        <time>2013-05-18T17:43:58Z</time>
      </trkpt>
      <trkpt lat="59.9499704" lon="17.8283842">
        <ele>19.8444</ele>
        <time>2013-05-18T17:43:59Z</time>
      </trkpt>
      <trkpt lat="59.9499741" lon="17.8285155">
        <ele>19.8444</ele>
        <time>2013-05-18T17:44:00Z</time>
      </trkpt>
      <trkpt lat="59.9499772" lon="17.8286466">
        <ele>19.8444</ele>
        <time>2013-05-18T17:44:01Z</time>
      </trkpt>
      <trkpt lat="59.9499798" lon="17.8287777">
        <ele>19.8444</ele>
        <time>2013-05-18T17:44:02Z</time>
      </trkpt>
      <trkpt lat="59.9499817" lon="17.8289085">
        <ele>19.8444</ele>
        <time>2013-05-18T17:44:03Z</time>
      </trkpt>
      <trkpt lat="59.949981" lon="17.829039">
        <ele>19.8444</ele>
        <time>2013-05-18T17:44:04Z</time>
      </trkpt>
      <trkpt lat="59.9499782" lon="17.829169">
        <ele>19.8444</ele>
        <time>2013-05-18T17:44:05Z</time>
      </trkpt>
      <trkpt lat="59.9499729" lon="17.8292979">
        <ele>19.8444</ele>
        <time>2013-05-18T17:44:06Z</time>
      </trkpt>
      <trkpt lat="59.9499653" lon="17.8294224">
        <ele>20.325</ele>
        <time>2013-05-18T17:44:07Z</time>
      </trkpt>
      <trkpt lat="59.9499555" lon="17.82954">
        <ele>20.325</ele>
        <time>2013-05-18T17:44:08Z</time>
      </trkpt>
      <trkpt lat="59.9499374" lon="17.8296479">
        <ele>20.325</ele>
        <time>2013-05-18T17:44:09Z</time>
      </trkpt>
      <trkpt lat="59.9499063" lon="17.8297349">
        <ele>20.8057</ele>
        <time>2013-05-18T17:44:10Z</time>
      </trkpt>
      <trkpt lat="59.949856" lon="17.8297871">
        <ele>20.325</ele>
        <time>2013-05-18T17:44:11Z</time>
      </trkpt>
      <trkpt lat="59.9498012" lon="17.8298016">
        <ele>20.8057</ele>
        <time>2013-05-18T17:44:12Z</time>
      </trkpt>
      <trkpt lat="59.9497488" lon="17.8297495">
        <ele>20.8057</ele>
        <time>2013-05-18T17:44:13Z</time>
      </trkpt>
      <trkpt lat="59.9497" lon="17.829672">
        <ele>20.325</ele>
        <time>2013-05-18T17:44:14Z</time>
      </trkpt>
      <trkpt lat="59.949654" lon="17.8295876">
        <ele>20.325</ele>
        <time>2013-05-18T17:44:15Z</time>
      </trkpt>
      <trkpt lat="59.9496048" lon="17.8295026">
        <ele>20.325</ele>
        <time>2013-05-18T17:44:16Z</time>
      </trkpt>
      <trkpt lat="59.9495509" lon="17.8294056">
        <ele>19.8444</ele>
        <time>2013-05-18T17:44:17Z</time>
      </trkpt>
      <trkpt lat="59.9494927" lon="17.8293057">
        <ele>19.3638</ele>
        <time>2013-05-18T17:44:18Z</time>
      </trkpt>
      <trkpt lat="59.9494378" lon="17.8292114">
        <ele>19.3638</ele>
        <time>2013-05-18T17:44:19Z</time>
      </trkpt>
      <trkpt lat="59.9493803" lon="17.8291222">
        <ele>18.8831</ele>
        <time>2013-05-18T17:44:20Z</time>
      </trkpt>
      <trkpt lat="59.9493173" lon="17.8290414">
        <ele>18.8831</ele>
        <time>2013-05-18T17:44:21Z</time>
      </trkpt>
      <trkpt lat="59.94925" lon="17.8289664">
        <ele>19.3638</ele>
        <time>2013-05-18T17:44:22Z</time>
      </trkpt>
      <trkpt lat="59.9491811" lon="17.8288919">
        <ele>19.3638</ele>
        <time>2013-05-18T17:44:23Z</time>
      </trkpt>
      <trkpt lat="59.9491116" lon="17.8288147">
        <ele>19.3638</ele>
        <time>2013-05-18T17:44:24Z</time>
      </trkpt>
      <trkpt lat="59.9490423" lon="17.8287332">
        <ele>19.3638</ele>
        <time>2013-05-18T17:44:25Z</time>
      </trkpt>
      <trkpt lat="59.9489723" lon="17.8286552">
        <ele>19.3638</ele>
        <time>2013-05-18T17:44:26Z</time>
      </trkpt>
      <trkpt lat="59.9489022" lon="17.8285811">
        <ele>19.3638</ele>
        <time>2013-05-18T17:44:27Z</time>
      </trkpt>
      <trkpt lat="59.9488324" lon="17.8285067">
        <ele>19.3638</ele>
        <time>2013-05-18T17:44:28Z</time>
      </trkpt>
      <trkpt lat="59.9487633" lon="17.8284329">
        <ele>19.3638</ele>
        <time>2013-05-18T17:44:29Z</time>
      </trkpt>
      <trkpt lat="59.948694" lon="17.8283598">
        <ele>19.3638</ele>
        <time>2013-05-18T17:44:30Z</time>
      </trkpt>
      <trkpt lat="59.9486231" lon="17.8282858">
        <ele>19.3638</ele>
        <time>2013-05-18T17:44:31Z</time>
      </trkpt>
      <trkpt lat="59.9485527" lon="17.8282117">
        <ele>19.3638</ele>
        <time>2013-05-18T17:44:32Z</time>
      </trkpt>
      <trkpt lat="59.9484815" lon="17.8281381">
        <ele>19.3638</ele>
        <time>2013-05-18T17:44:33Z</time>
      </trkpt>
      <trkpt lat="59.9484113" lon="17.828063">
        <ele>19.3638</ele>
        <time>2013-05-18T17:44:34Z</time>
      </trkpt>
      <trkpt lat="59.9483394" lon="17.8279849">
        <ele>19.3638</ele>
        <time>2013-05-18T17:44:35Z</time>
      </trkpt>
      <trkpt lat="59.9482679" lon="17.827908">
        <ele>19.3638</ele>
        <time>2013-05-18T17:44:36Z</time>
      </trkpt>
      <trkpt lat="59.9481958" lon="17.8278308">
        <ele>18.8831</ele>
        <time>2013-05-18T17:44:37Z</time>
      </trkpt>
      <trkpt lat="59.9481233" lon="17.8277537">
        <ele>18.4023</ele>
        <time>2013-05-18T17:44:38Z</time>
      </trkpt>
      <trkpt lat="59.9480507" lon="17.8276786">
        <ele>17.9218</ele>
        <time>2013-05-18T17:44:39Z</time>
      </trkpt>
      <trkpt lat="59.9479777" lon="17.8276033">
        <ele>17.9218</ele>
        <time>2013-05-18T17:44:40Z</time>
      </trkpt>
      <trkpt lat="59.9479037" lon="17.8275248">
        <ele>17.9218</ele>
        <time>2013-05-18T17:44:41Z</time>
      </trkpt>
      <trkpt lat="59.9478295" lon="17.8274469">
        <ele>17.4412</ele>
        <time>2013-05-18T17:44:42Z</time>
      </trkpt>
      <trkpt lat="59.9477545" lon="17.8273703">
        <ele>17.4412</ele>
        <time>2013-05-18T17:44:43Z</time>
      </trkpt>
      <trkpt lat="59.9476795" lon="17.8272953">
        <ele>17.4412</ele>
        <time>2013-05-18T17:44:44Z</time>
      </trkpt>
      <trkpt lat="59.9476045" lon="17.8272198">
        <ele>17.4412</ele>
        <time>2013-05-18T17:44:45Z</time>
      </trkpt>
      <trkpt lat="59.9475303" lon="17.8271435">
        <ele>17.4412</ele>
        <time>2013-05-18T17:44:46Z</time>
      </trkpt>
      <trkpt lat="59.9474569" lon="17.8270682">
        <ele>17.4412</ele>
        <time>2013-05-18T17:44:47Z</time>
      </trkpt>
      <trkpt lat="59.9473836" lon="17.8269928">
        <ele>17.4412</ele>
        <time>2013-05-18T17:44:48Z</time>
      </trkpt>
      <trkpt lat="59.9473101" lon="17.8269177">
        <ele>17.4412</ele>
        <time>2013-05-18T17:44:49Z</time>
      </trkpt>
      <trkpt lat="59.9472365" lon="17.8268421">
        <ele>17.4412</ele>
        <time>2013-05-18T17:44:50Z</time>
      </trkpt>
      <trkpt lat="59.9471625" lon="17.8267665">
        <ele>17.9218</ele>
        <time>2013-05-18T17:44:51Z</time>
      </trkpt>
      <trkpt lat="59.9470882" lon="17.8266913">
        <ele>17.9218</ele>
        <time>2013-05-18T17:44:52Z</time>
      </trkpt>
      <trkpt lat="59.9470142" lon="17.8266152">
        <ele>17.9218</ele>
        <time>2013-05-18T17:44:53Z</time>
      </trkpt>
      <trkpt lat="59.9469411" lon="17.8265391">
        <ele>17.9218</ele>
        <time>2013-05-18T17:44:54Z</time>
      </trkpt>
      <trkpt lat="59.9468683" lon="17.826464">
        <ele>18.4023</ele>
        <time>2013-05-18T17:44:55Z</time>
      </trkpt>
      <trkpt lat="59.9467961" lon="17.8263883">
        <ele>18.4023</ele>
        <time>2013-05-18T17:44:56Z</time>
      </trkpt>
      <trkpt lat="59.9467242" lon="17.8263122">
        <ele>18.4023</ele>
        <time>2013-05-18T17:44:57Z</time>
      </trkpt>
      <trkpt lat="59.9466522" lon="17.8262369">
        <ele>18.4023</ele>
        <time>2013-05-18T17:44:58Z</time>
      </trkpt>
      <trkpt lat="59.9465805" lon="17.8261624">
        <ele>18.8831</ele>
        <time>2013-05-18T17:44:59Z</time>
      </trkpt>
      <trkpt lat="59.9465087" lon="17.82609">
        <ele>18.8831</ele>
        <time>2013-05-18T17:45:00Z</time>
      </trkpt>
      <trkpt lat="59.9464375" lon="17.8260174">
        <ele>18.8831</ele>
        <time>2013-05-18T17:45:01Z</time>
      </trkpt>
      <trkpt lat="59.9463667" lon="17.8259428">
        <ele>19.3638</ele>
        <time>2013-05-18T17:45:02Z</time>
      </trkpt>
      <trkpt lat="59.9462953" lon="17.8258682">
        <ele>19.3638</ele>
        <time>2013-05-18T17:45:03Z</time>
      </trkpt>
      <trkpt lat="59.9462237" lon="17.8257946">
        <ele>19.3638</ele>
        <time>2013-05-18T17:45:04Z</time>
      </trkpt>
      <trkpt lat="59.9461524" lon="17.8257206">
        <ele>19.8444</ele>
        <time>2013-05-18T17:45:05Z</time>
      </trkpt>
      <trkpt lat="59.9460808" lon="17.8256469">
        <ele>19.8444</ele>
        <time>2013-05-18T17:45:06Z</time>
      </trkpt>
      <trkpt lat="59.9460088" lon="17.8255729">
        <ele>19.8444</ele>
        <time>2013-05-18T17:45:07Z</time>
      </trkpt>
      <trkpt lat="59.9459368" lon="17.8254987">
        <ele>20.325</ele>
        <time>2013-05-18T17:45:08Z</time>
      </trkpt>
      <trkpt lat="59.9458654" lon="17.8254241">
        <ele>20.325</ele>
        <time>2013-05-18T17:45:09Z</time>
      </trkpt>
      <trkpt lat="59.9457951" lon="17.8253489">
        <ele>20.325</ele>
        <time>2013-05-18T17:45:10Z</time>
      </trkpt>
      <trkpt lat="59.9457244" lon="17.8252747">
        <ele>20.8057</ele>
        <time>2013-05-18T17:45:11Z</time>
      </trkpt>
      <trkpt lat="59.9456534" lon="17.8252018">
        <ele>20.8057</ele>
        <time>2013-05-18T17:45:12Z</time>
      </trkpt>
      <trkpt lat="59.9455822" lon="17.825128">
        <ele>20.8057</ele>
        <time>2013-05-18T17:45:13Z</time>
      </trkpt>
      <trkpt lat="59.9455116" lon="17.8250539">
        <ele>20.8057</ele>
        <time>2013-05-18T17:45:14Z</time>
      </trkpt>
      <trkpt lat="59.945441" lon="17.8249813">
        <ele>20.8057</ele>
        <time>2013-05-18T17:45:15Z</time>
      </trkpt>
      <trkpt lat="59.9453706" lon="17.8249088">
        <ele>21.2864</ele>
        <time>2013-05-18T17:45:16Z</time>
      </trkpt>
      <trkpt lat="59.9453002" lon="17.8248358">
        <ele>21.2864</ele>
        <time>2013-05-18T17:45:17Z</time>
      </trkpt>
      <trkpt lat="59.9452296" lon="17.8247627">
        <ele>21.2864</ele>
        <time>2013-05-18T17:45:18Z</time>
      </trkpt>
      <trkpt lat="59.9451523" lon="17.824686">
        <ele>21.767</ele>
        <time>2013-05-18T17:45:19Z</time>
      </trkpt>
      <trkpt lat="59.9450772" lon="17.8246097">
        <ele>21.767</ele>
        <time>2013-05-18T17:45:20Z</time>
      </trkpt>
      <trkpt lat="59.9450058" lon="17.8245307">
        <ele>21.767</ele>
        <time>2013-05-18T17:45:21Z</time>
      </trkpt>
      <trkpt lat="59.9449334" lon="17.8244554">
        <ele>22.2476</ele>
        <time>2013-05-18T17:45:22Z</time>
      </trkpt>
      <trkpt lat="59.9448614" lon="17.8243788">
        <ele>22.2476</ele>
        <time>2013-05-18T17:45:23Z</time>
      </trkpt>
      <trkpt lat="59.944789" lon="17.8243059">
        <ele>22.2476</ele>
        <time>2013-05-18T17:45:24Z</time>
      </trkpt>
      <trkpt lat="59.9447187" lon="17.8242316">
        <ele>22.2476</ele>
        <time>2013-05-18T17:45:25Z</time>
      </trkpt>
      <trkpt lat="59.9446498" lon="17.8241551">
        <ele>22.7283</ele>
        <time>2013-05-18T17:45:26Z</time>
      </trkpt>
      <trkpt lat="59.9445806" lon="17.82408">
        <ele>22.7283</ele>
        <time>2013-05-18T17:45:27Z</time>
      </trkpt>
      <trkpt lat="59.9445107" lon="17.824004">
        <ele>22.7283</ele>
        <time>2013-05-18T17:45:28Z</time>
      </trkpt>
      <trkpt lat="59.9444395" lon="17.8239298">
        <ele>22.7283</ele>
        <time>2013-05-18T17:45:29Z</time>
      </trkpt>
      <trkpt lat="59.9443694" lon="17.8238521">
        <ele>22.7283</ele>
        <time>2013-05-18T17:45:30Z</time>
      </trkpt>
      <trkpt lat="59.9442998" lon="17.8237701">
        <ele>22.2476</ele>
        <time>2013-05-18T17:45:31Z</time>
      </trkpt>
      <trkpt lat="59.944229" lon="17.8236868">
        <ele>22.2476</ele>
        <time>2013-05-18T17:45:32Z</time>
      </trkpt>
      <trkpt lat="59.9441569" lon="17.8236029">
        <ele>22.2476</ele>
        <time>2013-05-18T17:45:33Z</time>
      </trkpt>
      <trkpt lat="59.9440842" lon="17.8235164">
        <ele>22.2476</ele>
        <time>2013-05-18T17:45:34Z</time>
      </trkpt>
      <trkpt lat="59.9440109" lon="17.8234258">
        <ele>22.2476</ele>
        <time>2013-05-18T17:45:35Z</time>
      </trkpt>
      <trkpt lat="59.9439366" lon="17.8233335">
        <ele>21.767</ele>
        <time>2013-05-18T17:45:36Z</time>
      </trkpt>
      <trkpt lat="59.9438606" lon="17.8232392">
        <ele>21.767</ele>
        <time>2013-05-18T17:45:37Z</time>
      </trkpt>
      <trkpt lat="59.9437829" lon="17.823144">
        <ele>21.2864</ele>
        <time>2013-05-18T17:45:38Z</time>
      </trkpt>
      <trkpt lat="59.943705" lon="17.8230485">
        <ele>21.2864</ele>
        <time>2013-05-18T17:45:39Z</time>
      </trkpt>
      <trkpt lat="59.9436276" lon="17.8229516">
        <ele>20.8057</ele>
        <time>2013-05-18T17:45:40Z</time>
      </trkpt>
      <trkpt lat="59.9435499" lon="17.8228528">
        <ele>20.8057</ele>
        <time>2013-05-18T17:45:41Z</time>
      </trkpt>
      <trkpt lat="59.9434715" lon="17.8227542">
        <ele>20.325</ele>
        <time>2013-05-18T17:45:42Z</time>
      </trkpt>
      <trkpt lat="59.9433923" lon="17.8226558">
        <ele>20.325</ele>
        <time>2013-05-18T17:45:43Z</time>
      </trkpt>
      <trkpt lat="59.9433119" lon="17.8225561">
        <ele>19.8444</ele>
        <time>2013-05-18T17:45:44Z</time>
      </trkpt>
      <trkpt lat="59.9432301" lon="17.8224556">
        <ele>19.8444</ele>
        <time>2013-05-18T17:45:45Z</time>
      </trkpt>
      <trkpt lat="59.9431478" lon="17.8223535">
        <ele>19.3638</ele>
        <time>2013-05-18T17:45:46Z</time>
      </trkpt>
      <trkpt lat="59.9430644" lon="17.8222504">
        <ele>18.8831</ele>
        <time>2013-05-18T17:45:47Z</time>
      </trkpt>
      <trkpt lat="59.9429813" lon="17.8221471">
        <ele>18.8831</ele>
        <time>2013-05-18T17:45:48Z</time>
      </trkpt>
      <trkpt lat="59.9428986" lon="17.8220436">
        <ele>18.8831</ele>
        <time>2013-05-18T17:45:49Z</time>
      </trkpt>
      <trkpt lat="59.9428158" lon="17.821941">
        <ele>18.4023</ele>
        <time>2013-05-18T17:45:50Z</time>
      </trkpt>
      <trkpt lat="59.9427328" lon="17.8218387">
        <ele>18.4023</ele>
        <time>2013-05-18T17:45:51Z</time>
      </trkpt>
      <trkpt lat="59.9426499" lon="17.8217358">
        <ele>17.9218</ele>
        <time>2013-05-18T17:45:52Z</time>
      </trkpt>
      <trkpt lat="59.9425669" lon="17.821633">
        <ele>17.9218</ele>
        <time>2013-05-18T17:45:53Z</time>
      </trkpt>
      <trkpt lat="59.9424842" lon="17.8215309">
        <ele>17.4412</ele>
        <time>2013-05-18T17:45:54Z</time>
      </trkpt>
      <trkpt lat="59.9424017" lon="17.8214286">
        <ele>17.4412</ele>
        <time>2013-05-18T17:45:55Z</time>
      </trkpt>
      <trkpt lat="59.9423191" lon="17.8213262">
        <ele>16.9604</ele>
        <time>2013-05-18T17:45:56Z</time>
      </trkpt>
      <trkpt lat="59.9422359" lon="17.8212231">
        <ele>16.9604</ele>
        <time>2013-05-18T17:45:57Z</time>
      </trkpt>
      <trkpt lat="59.9421517" lon="17.8211182">
        <ele>16.4797</ele>
        <time>2013-05-18T17:45:58Z</time>
      </trkpt>
      <trkpt lat="59.9420662" lon="17.8210128">
        <ele>16.4797</ele>
        <time>2013-05-18T17:45:59Z</time>
      </trkpt>
      <trkpt lat="59.9419793" lon="17.8209066">
        <ele>15.999</ele>
        <time>2013-05-18T17:46:00Z</time>
      </trkpt>
      <trkpt lat="59.9418916" lon="17.8207984">
        <ele>15.999</ele>
        <time>2013-05-18T17:46:01Z</time>
      </trkpt>
      <trkpt lat="59.9418031" lon="17.8206895">
        <ele>15.999</ele>
        <time>2013-05-18T17:46:02Z</time>
      </trkpt>
      <trkpt lat="59.9417146" lon="17.8205798">
        <ele>15.999</ele>
        <time>2013-05-18T17:46:03Z</time>
      </trkpt>
      <trkpt lat="59.9416262" lon="17.8204699">
        <ele>15.5184</ele>
        <time>2013-05-18T17:46:04Z</time>
      </trkpt>
      <trkpt lat="59.9415383" lon="17.8203597">
        <ele>15.5184</ele>
        <time>2013-05-18T17:46:05Z</time>
      </trkpt>
      <trkpt lat="59.9414509" lon="17.8202515">
        <ele>15.999</ele>
        <time>2013-05-18T17:46:06Z</time>
      </trkpt>
      <trkpt lat="59.9413664" lon="17.8201457">
        <ele>15.999</ele>
        <time>2013-05-18T17:46:07Z</time>
      </trkpt>
      <trkpt lat="59.9412845" lon="17.8200426">
        <ele>16.4797</ele>
        <time>2013-05-18T17:46:08Z</time>
      </trkpt>
      <trkpt lat="59.9412053" lon="17.819944">
        <ele>16.4797</ele>
        <time>2013-05-18T17:46:09Z</time>
      </trkpt>
      <trkpt lat="59.9411291" lon="17.8198484">
        <ele>16.4797</ele>
        <time>2013-05-18T17:46:10Z</time>
      </trkpt>
      <trkpt lat="59.9410556" lon="17.8197561">
        <ele>16.9604</ele>
        <time>2013-05-18T17:46:11Z</time>
      </trkpt>
      <trkpt lat="59.9409841" lon="17.8196665">
        <ele>17.4412</ele>
        <time>2013-05-18T17:46:12Z</time>
      </trkpt>
      <trkpt lat="59.9409151" lon="17.8195797">
        <ele>17.4412</ele>
        <time>2013-05-18T17:46:13Z</time>
      </trkpt>
      <trkpt lat="59.9408478" lon="17.819496">
        <ele>17.9218</ele>
        <time>2013-05-18T17:46:14Z</time>
      </trkpt>
      <trkpt lat="59.940782" lon="17.8194141">
        <ele>17.9218</ele>
        <time>2013-05-18T17:46:15Z</time>
      </trkpt>
      <trkpt lat="59.9407184" lon="17.8193344">
        <ele>18.4023</ele>
        <time>2013-05-18T17:46:16Z</time>
      </trkpt>
      <trkpt lat="59.940655" lon="17.8192558">
        <ele>18.4023</ele>
        <time>2013-05-18T17:46:17Z</time>
      </trkpt>
      <trkpt lat="59.9405904" lon="17.8191771">
        <ele>18.8831</ele>
        <time>2013-05-18T17:46:18Z</time>
      </trkpt>
      <trkpt lat="59.9405275" lon="17.8191013">
        <ele>18.8831</ele>
        <time>2013-05-18T17:46:19Z</time>
      </trkpt>
      <trkpt lat="59.940467" lon="17.8190271">
        <ele>18.8831</ele>
        <time>2013-05-18T17:46:20Z</time>
      </trkpt>
      <trkpt lat="59.940407" lon="17.818958">
        <ele>18.8831</ele>
        <time>2013-05-18T17:46:21Z</time>
      </trkpt>
      <trkpt lat="59.9403467" lon="17.8188948">
        <ele>19.3638</ele>
        <time>2013-05-18T17:46:22Z</time>
      </trkpt>
      <trkpt lat="59.940288" lon="17.8188314">
        <ele>19.3638</ele>
        <time>2013-05-18T17:46:23Z</time>
      </trkpt>
      <trkpt lat="59.9402334" lon="17.8187698">
        <ele>19.3638</ele>
        <time>2013-05-18T17:46:24Z</time>
      </trkpt>
      <trkpt lat="59.9401847" lon="17.818711">
        <ele>19.3638</ele>
        <time>2013-05-18T17:46:25Z</time>
      </trkpt>
      <trkpt lat="59.9401433" lon="17.8186594">
        <ele>19.3638</ele>
        <time>2013-05-18T17:46:26Z</time>
      </trkpt>
      <trkpt lat="59.9401092" lon="17.8186184">
        <ele>19.3638</ele>
        <time>2013-05-18T17:46:27Z</time>
      </trkpt>
      <trkpt lat="59.9400812" lon="17.818585">
        <ele>19.3638</ele>
        <time>2013-05-18T17:46:28Z</time>
      </trkpt>
      <trkpt lat="59.9400577" lon="17.8185553">
        <ele>19.3638</ele>
        <time>2013-05-18T17:46:29Z</time>
      </trkpt>
      <trkpt lat="59.940038" lon="17.8185301">
        <ele>19.3638</ele>
        <time>2013-05-18T17:46:30Z</time>
      </trkpt>
      <trkpt lat="59.9400202" lon="17.8185073">
        <ele>19.3638</ele>
        <time>2013-05-18T17:46:31Z</time>
      </trkpt>
      <trkpt lat="59.940002" lon="17.8184838">
        <ele>19.3638</ele>
        <time>2013-05-18T17:46:32Z</time>
      </trkpt>
      <trkpt lat="59.9399803" lon="17.8184596">
        <ele>19.3638</ele>
        <time>2013-05-18T17:46:33Z</time>
      </trkpt>
      <trkpt lat="59.9399506" lon="17.8184394">
        <ele>19.3638</ele>
        <time>2013-05-18T17:46:34Z</time>
      </trkpt>
      <trkpt lat="59.9399134" lon="17.8184238">
        <ele>19.8444</ele>
        <time>2013-05-18T17:46:35Z</time>
      </trkpt>
      <trkpt lat="59.9398693" lon="17.8184089">
        <ele>19.8444</ele>
        <time>2013-05-18T17:46:36Z</time>
      </trkpt>
      <trkpt lat="59.9398191" lon="17.8183954">
        <ele>19.8444</ele>
        <time>2013-05-18T17:46:37Z</time>
      </trkpt>
      <trkpt lat="59.939764" lon="17.8183809">
        <ele>19.8444</ele>
        <time>2013-05-18T17:46:38Z</time>
      </trkpt>
      <trkpt lat="59.9397036" lon="17.8183664">
        <ele>20.325</ele>
        <time>2013-05-18T17:46:39Z</time>
      </trkpt>
      <trkpt lat="59.9396383" lon="17.8183549">
        <ele>20.325</ele>
        <time>2013-05-18T17:46:40Z</time>
      </trkpt>
      <trkpt lat="59.9395713" lon="17.8183539">
        <ele>20.325</ele>
        <time>2013-05-18T17:46:41Z</time>
      </trkpt>
      <trkpt lat="59.9395052" lon="17.8183686">
        <ele>20.325</ele>
        <time>2013-05-18T17:46:42Z</time>
      </trkpt>
      <trkpt lat="59.9394387" lon="17.8183959">
        <ele>20.325</ele>
        <time>2013-05-18T17:46:43Z</time>
      </trkpt>
      <trkpt lat="59.9393716" lon="17.8184337">
        <ele>19.8444</ele>
        <time>2013-05-18T17:46:44Z</time>
      </trkpt>
      <trkpt lat="59.9393048" lon="17.8184814">
        <ele>19.8444</ele>
        <time>2013-05-18T17:46:45Z</time>
      </trkpt>
      <trkpt lat="59.9392382" lon="17.8185394">
        <ele>19.8444</ele>
        <time>2013-05-18T17:46:46Z</time>
      </trkpt>
      <trkpt lat="59.9391721" lon="17.8186091">
        <ele>19.8444</ele>
        <time>2013-05-18T17:46:47Z</time>
      </trkpt>
      <trkpt lat="59.9391084" lon="17.8186907">
        <ele>19.8444</ele>
        <time>2013-05-18T17:46:48Z</time>
      </trkpt>
      <trkpt lat="59.9390478" lon="17.8187835">
        <ele>19.3638</ele>
        <time>2013-05-18T17:46:49Z</time>
      </trkpt>
      <trkpt lat="59.9389892" lon="17.8188839">
        <ele>19.3638</ele>
        <time>2013-05-18T17:46:50Z</time>
      </trkpt>
      <trkpt lat="59.9389328" lon="17.8189899">
        <ele>18.8831</ele>
        <time>2013-05-18T17:46:51Z</time>
      </trkpt>
      <trkpt lat="59.9388782" lon="17.8190993">
        <ele>18.8831</ele>
        <time>2013-05-18T17:46:52Z</time>
      </trkpt>
      <trkpt lat="59.9388251" lon="17.8192105">
        <ele>18.8831</ele>
        <time>2013-05-18T17:46:53Z</time>
      </trkpt>
      <trkpt lat="59.9387731" lon="17.8193224">
        <ele>18.8831</ele>
        <time>2013-05-18T17:46:54Z</time>
      </trkpt>
      <trkpt lat="59.9387209" lon="17.8194325">
        <ele>18.8831</ele>
        <time>2013-05-18T17:46:55Z</time>
      </trkpt>
      <trkpt lat="59.9386684" lon="17.8195413">
        <ele>18.4023</ele>
        <time>2013-05-18T17:46:56Z</time>
      </trkpt>
      <trkpt lat="59.9386162" lon="17.819651">
        <ele>17.9218</ele>
        <time>2013-05-18T17:46:57Z</time>
      </trkpt>
      <trkpt lat="59.9385653" lon="17.8197636">
        <ele>17.9218</ele>
        <time>2013-05-18T17:46:58Z</time>
      </trkpt>
      <trkpt lat="59.9385132" lon="17.819879">
        <ele>17.4412</ele>
        <time>2013-05-18T17:46:59Z</time>
      </trkpt>
      <trkpt lat="59.9384588" lon="17.8199945">
        <ele>16.4797</ele>
        <time>2013-05-18T17:47:00Z</time>
      </trkpt>
      <trkpt lat="59.9384032" lon="17.8201127">
        <ele>15.999</ele>
        <time>2013-05-18T17:47:01Z</time>
      </trkpt>
      <trkpt lat="59.9383479" lon="17.8202342">
        <ele>15.999</ele>
        <time>2013-05-18T17:47:02Z</time>
      </trkpt>
      <trkpt lat="59.938292" lon="17.8203555">
        <ele>15.5184</ele>
        <time>2013-05-18T17:47:03Z</time>
      </trkpt>
      <trkpt lat="59.9382345" lon="17.8204778">
        <ele>15.0377</ele>
        <time>2013-05-18T17:47:04Z</time>
      </trkpt>
      <trkpt lat="59.9381775" lon="17.8206031">
        <ele>14.557</ele>
        <time>2013-05-18T17:47:05Z</time>
      </trkpt>
      <trkpt lat="59.9381201" lon="17.8207306">
        <ele>14.557</ele>
        <time>2013-05-18T17:47:06Z</time>
      </trkpt>
      <trkpt lat="59.9380626" lon="17.8208599">
        <ele>14.0764</ele>
        <time>2013-05-18T17:47:07Z</time>
      </trkpt>
      <trkpt lat="59.9380055" lon="17.8209896">
        <ele>13.5958</ele>
        <time>2013-05-18T17:47:08Z</time>
      </trkpt>
      <trkpt lat="59.9379478" lon="17.8211187">
        <ele>13.5958</ele>
        <time>2013-05-18T17:47:09Z</time>
      </trkpt>
      <trkpt lat="59.9378886" lon="17.8212477">
        <ele>13.1151</ele>
        <time>2013-05-18T17:47:10Z</time>
      </trkpt>
      <trkpt lat="59.9378282" lon="17.821377">
        <ele>12.6344</ele>
        <time>2013-05-18T17:47:11Z</time>
      </trkpt>
      <trkpt lat="59.9377671" lon="17.821508">
        <ele>12.6344</ele>
        <time>2013-05-18T17:47:12Z</time>
      </trkpt>
      <trkpt lat="59.937707" lon="17.8216403">
        <ele>12.1538</ele>
        <time>2013-05-18T17:47:13Z</time>
      </trkpt>
      <trkpt lat="59.9376516" lon="17.8217769">
        <ele>12.6344</ele>
        <time>2013-05-18T17:47:14Z</time>
      </trkpt>
      <trkpt lat="59.9376009" lon="17.8219173">
        <ele>12.1538</ele>
        <time>2013-05-18T17:47:15Z</time>
      </trkpt>
      <trkpt lat="59.9375544" lon="17.8220612">
        <ele>12.1538</ele>
        <time>2013-05-18T17:47:16Z</time>
      </trkpt>
      <trkpt lat="59.9375112" lon="17.822209">
        <ele>12.1538</ele>
        <time>2013-05-18T17:47:17Z</time>
      </trkpt>
      <trkpt lat="59.9374713" lon="17.8223582">
        <ele>12.1538</ele>
        <time>2013-05-18T17:47:18Z</time>
      </trkpt>
      <trkpt lat="59.9374324" lon="17.8225037">
        <ele>12.1538</ele>
        <time>2013-05-18T17:47:19Z</time>
      </trkpt>
      <trkpt lat="59.9373927" lon="17.8226458">
        <ele>11.6732</ele>
        <time>2013-05-18T17:47:20Z</time>
      </trkpt>
      <trkpt lat="59.9373496" lon="17.8227818">
        <ele>11.6732</ele>
        <time>2013-05-18T17:47:21Z</time>
      </trkpt>
      <trkpt lat="59.9373036" lon="17.822912">
        <ele>11.6732</ele>
        <time>2013-05-18T17:47:22Z</time>
      </trkpt>
      <trkpt lat="59.9372564" lon="17.8230393">
        <ele>11.1925</ele>
        <time>2013-05-18T17:47:23Z</time>
      </trkpt>
      <trkpt lat="59.9372083" lon="17.8231642">
        <ele>11.1925</ele>
        <time>2013-05-18T17:47:24Z</time>
      </trkpt>
      <trkpt lat="59.9371606" lon="17.8232895">
        <ele>11.1925</ele>
        <time>2013-05-18T17:47:25Z</time>
      </trkpt>
      <trkpt lat="59.937114" lon="17.8234138">
        <ele>11.6732</ele>
        <time>2013-05-18T17:47:26Z</time>
      </trkpt>
      <trkpt lat="59.937068" lon="17.8235372">
        <ele>11.6732</ele>
        <time>2013-05-18T17:47:27Z</time>
      </trkpt>
      <trkpt lat="59.9370219" lon="17.8236587">
        <ele>12.1538</ele>
        <time>2013-05-18T17:47:28Z</time>
      </trkpt>
      <trkpt lat="59.9369758" lon="17.8237781">
        <ele>12.1538</ele>
        <time>2013-05-18T17:47:29Z</time>
      </trkpt>
      <trkpt lat="59.9369302" lon="17.8238972">
        <ele>12.6344</ele>
        <time>2013-05-18T17:47:30Z</time>
      </trkpt>
      <trkpt lat="59.9368834" lon="17.8240148">
        <ele>12.1538</ele>
        <time>2013-05-18T17:47:31Z</time>
      </trkpt>
      <trkpt lat="59.9368334" lon="17.8241303">
        <ele>12.1538</ele>
        <time>2013-05-18T17:47:32Z</time>
      </trkpt>
      <trkpt lat="59.9367794" lon="17.824242">
        <ele>12.1538</ele>
        <time>2013-05-18T17:47:33Z</time>
      </trkpt>
      <trkpt lat="59.936721" lon="17.8243484">
        <ele>11.6732</ele>
        <time>2013-05-18T17:47:34Z</time>
      </trkpt>
      <trkpt lat="59.9366581" lon="17.8244477">
        <ele>11.6732</ele>
        <time>2013-05-18T17:47:35Z</time>
      </trkpt>
      <trkpt lat="59.9365903" lon="17.8245374">
        <ele>11.1925</ele>
        <time>2013-05-18T17:47:36Z</time>
      </trkpt>
      <trkpt lat="59.9365195" lon="17.8246189">
        <ele>10.7118</ele>
        <time>2013-05-18T17:47:37Z</time>
      </trkpt>
      <trkpt lat="59.9364456" lon="17.8246897">
        <ele>10.7118</ele>
        <time>2013-05-18T17:47:38Z</time>
      </trkpt>
      <trkpt lat="59.9363677" lon="17.8247465">
        <ele>10.7118</ele>
        <time>2013-05-18T17:47:39Z</time>
      </trkpt>
      <trkpt lat="59.936286" lon="17.8247888">
        <ele>10.7118</ele>
        <time>2013-05-18T17:47:40Z</time>
      </trkpt>
      <trkpt lat="59.9362016" lon="17.8248271">
        <ele>10.2312</ele>
        <time>2013-05-18T17:47:41Z</time>
      </trkpt>
      <trkpt lat="59.9361153" lon="17.8248647">
        <ele>10.2312</ele>
        <time>2013-05-18T17:47:42Z</time>
      </trkpt>
      <trkpt lat="59.9360278" lon="17.8249038">
        <ele>10.2312</ele>
        <time>2013-05-18T17:47:43Z</time>
      </trkpt>
      <trkpt lat="59.9359387" lon="17.8249426">
        <ele>10.2312</ele>
        <time>2013-05-18T17:47:44Z</time>
      </trkpt>
      <trkpt lat="59.9358494" lon="17.8249812">
        <ele>10.2312</ele>
        <time>2013-05-18T17:47:45Z</time>
      </trkpt>
      <trkpt lat="59.9357595" lon="17.8250195">
        <ele>10.2312</ele>
        <time>2013-05-18T17:47:46Z</time>
      </trkpt>
      <trkpt lat="59.9356693" lon="17.8250585">
        <ele>10.2312</ele>
        <time>2013-05-18T17:47:47Z</time>
      </trkpt>
      <trkpt lat="59.9355792" lon="17.8250984">
        <ele>10.2312</ele>
        <time>2013-05-18T17:47:48Z</time>
      </trkpt>
      <trkpt lat="59.9354885" lon="17.8251388">
        <ele>10.2312</ele>
        <time>2013-05-18T17:47:49Z</time>
      </trkpt>
      <trkpt lat="59.9353974" lon="17.8251806">
        <ele>10.2312</ele>
        <time>2013-05-18T17:47:50Z</time>
      </trkpt>
      <trkpt lat="59.9353056" lon="17.8252232">
        <ele>10.2312</ele>
        <time>2013-05-18T17:47:51Z</time>
      </trkpt>
      <trkpt lat="59.9352134" lon="17.8252656">
        <ele>10.7118</ele>
        <time>2013-05-18T17:47:52Z</time>
      </trkpt>
      <trkpt lat="59.9351212" lon="17.8253077">
        <ele>10.7118</ele>
        <time>2013-05-18T17:47:53Z</time>
      </trkpt>
      <trkpt lat="59.9350295" lon="17.8253506">
        <ele>10.7118</ele>
        <time>2013-05-18T17:47:54Z</time>
      </trkpt>
      <trkpt lat="59.9349383" lon="17.8253932">
        <ele>10.7118</ele>
        <time>2013-05-18T17:47:55Z</time>
      </trkpt>
      <trkpt lat="59.9348475" lon="17.8254339">
        <ele>10.7118</ele>
        <time>2013-05-18T17:47:56Z</time>
      </trkpt>
      <trkpt lat="59.9347571" lon="17.825474">
        <ele>11.1925</ele>
        <time>2013-05-18T17:47:57Z</time>
      </trkpt>
      <trkpt lat="59.9346675" lon="17.825515">
        <ele>11.1925</ele>
        <time>2013-05-18T17:47:58Z</time>
      </trkpt>
      <trkpt lat="59.9345785" lon="17.8255561">
        <ele>11.1925</ele>
        <time>2013-05-18T17:47:59Z</time>
      </trkpt>
      <trkpt lat="59.9344908" lon="17.8255968">
        <ele>11.6732</ele>
        <time>2013-05-18T17:48:00Z</time>
      </trkpt>
      <trkpt lat="59.9344037" lon="17.8256375">
        <ele>11.6732</ele>
        <time>2013-05-18T17:48:01Z</time>
      </trkpt>
      <trkpt lat="59.9343172" lon="17.8256787">
        <ele>11.6732</ele>
        <time>2013-05-18T17:48:02Z</time>
      </trkpt>
      <trkpt lat="59.9342308" lon="17.825719">
        <ele>12.1538</ele>
        <time>2013-05-18T17:48:03Z</time>
      </trkpt>
      <trkpt lat="59.9341442" lon="17.8257567">
        <ele>12.1538</ele>
        <time>2013-05-18T17:48:04Z</time>
      </trkpt>
      <trkpt lat="59.9340578" lon="17.8257945">
        <ele>12.1538</ele>
        <time>2013-05-18T17:48:05Z</time>
      </trkpt>
      <trkpt lat="59.9339719" lon="17.8258335">
        <ele>12.6344</ele>
        <time>2013-05-18T17:48:06Z</time>
      </trkpt>
      <trkpt lat="59.9338868" lon="17.8258728">
        <ele>12.6344</ele>
        <time>2013-05-18T17:48:07Z</time>
      </trkpt>
      <trkpt lat="59.9338025" lon="17.8259125">
        <ele>13.1151</ele>
        <time>2013-05-18T17:48:08Z</time>
      </trkpt>
      <trkpt lat="59.9337195" lon="17.8259546">
        <ele>13.1151</ele>
        <time>2013-05-18T17:48:09Z</time>
      </trkpt>
      <trkpt lat="59.9336381" lon="17.8260022">
        <ele>13.1151</ele>
        <time>2013-05-18T17:48:10Z</time>
      </trkpt>
      <trkpt lat="59.9335574" lon="17.8260557">
        <ele>13.1151</ele>
        <time>2013-05-18T17:48:11Z</time>
      </trkpt>
      <trkpt lat="59.9334767" lon="17.8261152">
        <ele>13.1151</ele>
        <time>2013-05-18T17:48:12Z</time>
      </trkpt>
      <trkpt lat="59.9333957" lon="17.8261842">
        <ele>13.1151</ele>
        <time>2013-05-18T17:48:13Z</time>
      </trkpt>
      <trkpt lat="59.9333147" lon="17.8262591">
        <ele>13.1151</ele>
        <time>2013-05-18T17:48:14Z</time>
      </trkpt>
      <trkpt lat="59.9332339" lon="17.8263404">
        <ele>13.1151</ele>
        <time>2013-05-18T17:48:15Z</time>
      </trkpt>
      <trkpt lat="59.9331544" lon="17.8264311">
        <ele>13.1151</ele>
        <time>2013-05-18T17:48:16Z</time>
      </trkpt>
      <trkpt lat="59.9330772" lon="17.8265297">
        <ele>13.1151</ele>
        <time>2013-05-18T17:48:17Z</time>
      </trkpt>
      <trkpt lat="59.9330021" lon="17.8266375">
        <ele>13.1151</ele>
        <time>2013-05-18T17:48:18Z</time>
      </trkpt>
      <trkpt lat="59.9329285" lon="17.8267513">
        <ele>13.1151</ele>
        <time>2013-05-18T17:48:19Z</time>
      </trkpt>
      <trkpt lat="59.9328561" lon="17.8268662">
        <ele>13.1151</ele>
        <time>2013-05-18T17:48:20Z</time>
      </trkpt>
      <trkpt lat="59.9327853" lon="17.8269819">
        <ele>12.6344</ele>
        <time>2013-05-18T17:48:21Z</time>
      </trkpt>
      <trkpt lat="59.9327079" lon="17.8271031">
        <ele>12.6344</ele>
        <time>2013-05-18T17:48:22Z</time>
      </trkpt>
      <trkpt lat="59.9326317" lon="17.8272135">
        <ele>12.6344</ele>
        <time>2013-05-18T17:48:23Z</time>
      </trkpt>
      <trkpt lat="59.932566" lon="17.8273399">
        <ele>12.6344</ele>
        <time>2013-05-18T17:48:24Z</time>
      </trkpt>
      <trkpt lat="59.932501" lon="17.8274624">
        <ele>12.6344</ele>
        <time>2013-05-18T17:48:25Z</time>
      </trkpt>
      <trkpt lat="59.9324343" lon="17.8275805">
        <ele>12.6344</ele>
        <time>2013-05-18T17:48:26Z</time>
      </trkpt>
      <trkpt lat="59.9323681" lon="17.8277105">
        <ele>13.1151</ele>
        <time>2013-05-18T17:48:27Z</time>
      </trkpt>
      <trkpt lat="59.9323085" lon="17.8278367">
        <ele>13.5958</ele>
        <time>2013-05-18T17:48:28Z</time>
      </trkpt>
      <trkpt lat="59.932252" lon="17.8279578">
        <ele>13.5958</ele>
        <time>2013-05-18T17:48:29Z</time>
      </trkpt>
      <trkpt lat="59.932197" lon="17.8280789">
        <ele>13.5958</ele>
        <time>2013-05-18T17:48:30Z</time>
      </trkpt>
      <trkpt lat="59.9321431" lon="17.8282001">
        <ele>14.0764</ele>
        <time>2013-05-18T17:48:31Z</time>
      </trkpt>
      <trkpt lat="59.9320918" lon="17.8283205">
        <ele>14.0764</ele>
        <time>2013-05-18T17:48:32Z</time>
      </trkpt>
      <trkpt lat="59.9320437" lon="17.8284418">
        <ele>14.557</ele>
        <time>2013-05-18T17:48:33Z</time>
      </trkpt>
      <trkpt lat="59.9319992" lon="17.8285664">
        <ele>14.557</ele>
        <time>2013-05-18T17:48:34Z</time>
      </trkpt>
      <trkpt lat="59.9319581" lon="17.8286965">
        <ele>15.0377</ele>
        <time>2013-05-18T17:48:35Z</time>
      </trkpt>
      <trkpt lat="59.9319193" lon="17.8288274">
        <ele>15.0377</ele>
        <time>2013-05-18T17:48:36Z</time>
      </trkpt>
      <trkpt lat="59.9318829" lon="17.8289618">
        <ele>15.0377</ele>
        <time>2013-05-18T17:48:37Z</time>
      </trkpt>
      <trkpt lat="59.9318485" lon="17.829099">
        <ele>15.5184</ele>
        <time>2013-05-18T17:48:38Z</time>
      </trkpt>
      <trkpt lat="59.9318153" lon="17.8292353">
        <ele>15.5184</ele>
        <time>2013-05-18T17:48:39Z</time>
      </trkpt>
      <trkpt lat="59.9317821" lon="17.829371">
        <ele>15.999</ele>
        <time>2013-05-18T17:48:40Z</time>
      </trkpt>
      <trkpt lat="59.9317495" lon="17.8295031">
        <ele>16.4797</ele>
        <time>2013-05-18T17:48:41Z</time>
      </trkpt>
      <trkpt lat="59.9317175" lon="17.8296342">
        <ele>16.9604</ele>
        <time>2013-05-18T17:48:42Z</time>
      </trkpt>
      <trkpt lat="59.9316848" lon="17.8297622">
        <ele>17.4412</ele>
        <time>2013-05-18T17:48:43Z</time>
      </trkpt>
      <trkpt lat="59.9316521" lon="17.8298881">
        <ele>17.4412</ele>
        <time>2013-05-18T17:48:44Z</time>
      </trkpt>
      <trkpt lat="59.9316195" lon="17.8300105">
        <ele>17.9218</ele>
        <time>2013-05-18T17:48:45Z</time>
      </trkpt>
      <trkpt lat="59.9315879" lon="17.8301279">
        <ele>18.4023</ele>
        <time>2013-05-18T17:48:46Z</time>
      </trkpt>
      <trkpt lat="59.9315558" lon="17.830241">
        <ele>18.8831</ele>
        <time>2013-05-18T17:48:47Z</time>
      </trkpt>
      <trkpt lat="59.9315226" lon="17.8303536">
        <ele>19.3638</ele>
        <time>2013-05-18T17:48:48Z</time>
      </trkpt>
      <trkpt lat="59.9314879" lon="17.830465">
        <ele>19.3638</ele>
        <time>2013-05-18T17:48:49Z</time>
      </trkpt>
      <trkpt lat="59.9314511" lon="17.8305754">
        <ele>19.3638</ele>
        <time>2013-05-18T17:48:50Z</time>
      </trkpt>
      <trkpt lat="59.9314137" lon="17.8306841">
        <ele>19.3638</ele>
        <time>2013-05-18T17:48:51Z</time>
      </trkpt>
      <trkpt lat="59.931374" lon="17.830792">
        <ele>19.3638</ele>
        <time>2013-05-18T17:48:52Z</time>
      </trkpt>
      <trkpt lat="59.9313314" lon="17.8308991">
        <ele>18.8831</ele>
        <time>2013-05-18T17:48:53Z</time>
      </trkpt>
      <trkpt lat="59.9312859" lon="17.8310056">
        <ele>18.8831</ele>
        <time>2013-05-18T17:48:54Z</time>
      </trkpt>
      <trkpt lat="59.9312383" lon="17.8311104">
        <ele>18.8831</ele>
        <time>2013-05-18T17:48:55Z</time>
      </trkpt>
      <trkpt lat="59.9311894" lon="17.831214">
        <ele>18.4023</ele>
        <time>2013-05-18T17:48:56Z</time>
      </trkpt>
      <trkpt lat="59.9311392" lon="17.8313157">
        <ele>18.4023</ele>
        <time>2013-05-18T17:48:57Z</time>
      </trkpt>
      <trkpt lat="59.9310875" lon="17.8314148">
        <ele>18.4023</ele>
        <time>2013-05-18T17:48:58Z</time>
      </trkpt>
      <trkpt lat="59.9310336" lon="17.8315103">
        <ele>18.4023</ele>
        <time>2013-05-18T17:48:59Z</time>
      </trkpt>
      <trkpt lat="59.9309782" lon="17.831604">
        <ele>18.8831</ele>
        <time>2013-05-18T17:49:00Z</time>
      </trkpt>
      <trkpt lat="59.9309215" lon="17.8316953">
        <ele>18.8831</ele>
        <time>2013-05-18T17:49:01Z</time>
      </trkpt>
      <trkpt lat="59.930864" lon="17.8317852">
        <ele>18.8831</ele>
        <time>2013-05-18T17:49:02Z</time>
      </trkpt>
      <trkpt lat="59.930806" lon="17.8318728">
        <ele>18.8831</ele>
        <time>2013-05-18T17:49:03Z</time>
      </trkpt>
      <trkpt lat="59.9307477" lon="17.8319575">
        <ele>18.8831</ele>
        <time>2013-05-18T17:49:04Z</time>
      </trkpt>
      <trkpt lat="59.9306906" lon="17.8320428">
        <ele>18.8831</ele>
        <time>2013-05-18T17:49:05Z</time>
      </trkpt>
      <trkpt lat="59.9306332" lon="17.8321283">
        <ele>18.8831</ele>
        <time>2013-05-18T17:49:06Z</time>
      </trkpt>
      <trkpt lat="59.9305752" lon="17.8322133">
        <ele>18.8831</ele>
        <time>2013-05-18T17:49:07Z</time>
      </trkpt>
      <trkpt lat="59.9305176" lon="17.8322983">
        <ele>19.3638</ele>
        <time>2013-05-18T17:49:08Z</time>
      </trkpt>
      <trkpt lat="59.9304551" lon="17.8323828">
        <ele>18.8831</ele>
        <time>2013-05-18T17:49:09Z</time>
      </trkpt>
      <trkpt lat="59.9303953" lon="17.8324645">
        <ele>18.8831</ele>
        <time>2013-05-18T17:49:10Z</time>
      </trkpt>
      <trkpt lat="59.9303312" lon="17.8325335">
        <ele>18.8831</ele>
        <time>2013-05-18T17:49:11Z</time>
      </trkpt>
      <trkpt lat="59.930269" lon="17.8326162">
        <ele>18.4023</ele>
        <time>2013-05-18T17:49:12Z</time>
      </trkpt>
      <trkpt lat="59.9302068" lon="17.8327032">
        <ele>18.4023</ele>
        <time>2013-05-18T17:49:13Z</time>
      </trkpt>
      <trkpt lat="59.9301457" lon="17.8327976">
        <ele>18.4023</ele>
        <time>2013-05-18T17:49:14Z</time>
      </trkpt>
      <trkpt lat="59.9300841" lon="17.8328935">
        <ele>18.4023</ele>
        <time>2013-05-18T17:49:15Z</time>
      </trkpt>
      <trkpt lat="59.930023" lon="17.8329918">
        <ele>18.4023</ele>
        <time>2013-05-18T17:49:16Z</time>
      </trkpt>
      <trkpt lat="59.9299616" lon="17.833092">
        <ele>18.4023</ele>
        <time>2013-05-18T17:49:17Z</time>
      </trkpt>
      <trkpt lat="59.9298992" lon="17.8331939">
        <ele>18.4023</ele>
        <time>2013-05-18T17:49:18Z</time>
      </trkpt>
      <trkpt lat="59.9298365" lon="17.8332959">
        <ele>18.4023</ele>
        <time>2013-05-18T17:49:19Z</time>
      </trkpt>
      <trkpt lat="59.9297738" lon="17.8333985">
        <ele>18.4023</ele>
        <time>2013-05-18T17:49:20Z</time>
      </trkpt>
      <trkpt lat="59.9297115" lon="17.8335012">
        <ele>18.4023</ele>
        <time>2013-05-18T17:49:21Z</time>
      </trkpt>
      <trkpt lat="59.9296496" lon="17.8336011">
        <ele>18.4023</ele>
        <time>2013-05-18T17:49:22Z</time>
      </trkpt>
      <trkpt lat="59.9295894" lon="17.8336994">
        <ele>18.8831</ele>
        <time>2013-05-18T17:49:23Z</time>
      </trkpt>
      <trkpt lat="59.9295307" lon="17.8337968">
        <ele>18.8831</ele>
        <time>2013-05-18T17:49:24Z</time>
      </trkpt>
      <trkpt lat="59.9294729" lon="17.8338928">
        <ele>19.3638</ele>
        <time>2013-05-18T17:49:25Z</time>
      </trkpt>
      <trkpt lat="59.9294154" lon="17.8339864">
        <ele>19.3638</ele>
        <time>2013-05-18T17:49:26Z</time>
      </trkpt>
      <trkpt lat="59.9293567" lon="17.8340767">
        <ele>19.3638</ele>
        <time>2013-05-18T17:49:27Z</time>
      </trkpt>
      <trkpt lat="59.9292962" lon="17.8341655">
        <ele>19.3638</ele>
        <time>2013-05-18T17:49:28Z</time>
      </trkpt>
      <trkpt lat="59.9292352" lon="17.8342562">
        <ele>19.3638</ele>
        <time>2013-05-18T17:49:29Z</time>
      </trkpt>
      <trkpt lat="59.9291741" lon="17.8343488">
        <ele>19.3638</ele>
        <time>2013-05-18T17:49:30Z</time>
      </trkpt>
      <trkpt lat="59.9291109" lon="17.8344397">
        <ele>19.3638</ele>
        <time>2013-05-18T17:49:31Z</time>
      </trkpt>
      <trkpt lat="59.9290455" lon="17.8345277">
        <ele>19.3638</ele>
        <time>2013-05-18T17:49:32Z</time>
      </trkpt>
      <trkpt lat="59.9289797" lon="17.8346148">
        <ele>19.3638</ele>
        <time>2013-05-18T17:49:33Z</time>
      </trkpt>
      <trkpt lat="59.928913" lon="17.8346982">
        <ele>19.3638</ele>
        <time>2013-05-18T17:49:34Z</time>
      </trkpt>
      <trkpt lat="59.9288459" lon="17.834779">
        <ele>19.3638</ele>
        <time>2013-05-18T17:49:35Z</time>
      </trkpt>
      <trkpt lat="59.9287787" lon="17.8348603">
        <ele>19.3638</ele>
        <time>2013-05-18T17:49:36Z</time>
      </trkpt>
      <trkpt lat="59.9287124" lon="17.8349469">
        <ele>19.3638</ele>
        <time>2013-05-18T17:49:37Z</time>
      </trkpt>
      <trkpt lat="59.9286476" lon="17.8350388">
        <ele>19.3638</ele>
        <time>2013-05-18T17:49:38Z</time>
      </trkpt>
      <trkpt lat="59.9285834" lon="17.8351328">
        <ele>19.3638</ele>
        <time>2013-05-18T17:49:39Z</time>
      </trkpt>
      <trkpt lat="59.9285192" lon="17.8352286">
        <ele>19.3638</ele>
        <time>2013-05-18T17:49:40Z</time>
      </trkpt>
      <trkpt lat="59.9284545" lon="17.8353254">
        <ele>19.3638</ele>
        <time>2013-05-18T17:49:41Z</time>
      </trkpt>
      <trkpt lat="59.9283902" lon="17.8354223">
        <ele>19.3638</ele>
        <time>2013-05-18T17:49:42Z</time>
      </trkpt>
      <trkpt lat="59.9283271" lon="17.8355217">
        <ele>19.3638</ele>
        <time>2013-05-18T17:49:43Z</time>
      </trkpt>
      <trkpt lat="59.9282643" lon="17.835619">
        <ele>19.3638</ele>
        <time>2013-05-18T17:49:44Z</time>
      </trkpt>
      <trkpt lat="59.928201" lon="17.835713">
        <ele>19.3638</ele>
        <time>2013-05-18T17:49:45Z</time>
      </trkpt>
      <trkpt lat="59.928137" lon="17.8358042">
        <ele>19.8444</ele>
        <time>2013-05-18T17:49:46Z</time>
      </trkpt>
      <trkpt lat="59.9280735" lon="17.8358964">
        <ele>19.3638</ele>
        <time>2013-05-18T17:49:47Z</time>
      </trkpt>
      <trkpt lat="59.9280099" lon="17.8359896">
        <ele>19.3638</ele>
        <time>2013-05-18T17:49:48Z</time>
      </trkpt>
      <trkpt lat="59.9279466" lon="17.8360834">
        <ele>19.3638</ele>
        <time>2013-05-18T17:49:49Z</time>
      </trkpt>
      <trkpt lat="59.9278844" lon="17.8361798">
        <ele>19.3638</ele>
        <time>2013-05-18T17:49:50Z</time>
      </trkpt>
      <trkpt lat="59.9278224" lon="17.8362764">
        <ele>19.8444</ele>
        <time>2013-05-18T17:49:51Z</time>
      </trkpt>
      <trkpt lat="59.9277586" lon="17.8363811">
        <ele>19.8444</ele>
        <time>2013-05-18T17:49:52Z</time>
      </trkpt>
      <trkpt lat="59.9276986" lon="17.8364869">
        <ele>19.8444</ele>
        <time>2013-05-18T17:49:53Z</time>
      </trkpt>
      <trkpt lat="59.9276417" lon="17.8365735">
        <ele>19.8444</ele>
        <time>2013-05-18T17:49:54Z</time>
      </trkpt>
      <trkpt lat="59.9275821" lon="17.8366939">
        <ele>20.325</ele>
        <time>2013-05-18T17:49:55Z</time>
      </trkpt>
      <trkpt lat="59.9275227" lon="17.836798">
        <ele>20.325</ele>
        <time>2013-05-18T17:49:56Z</time>
      </trkpt>
      <trkpt lat="59.9274588" lon="17.8368821">
        <ele>20.325</ele>
        <time>2013-05-18T17:49:57Z</time>
      </trkpt>
      <trkpt lat="59.9273932" lon="17.8369558">
        <ele>20.325</ele>
        <time>2013-05-18T17:49:58Z</time>
      </trkpt>
      <trkpt lat="59.9273256" lon="17.8370257">
        <ele>20.325</ele>
        <time>2013-05-18T17:49:59Z</time>
      </trkpt>
      <trkpt lat="59.9272545" lon="17.837097">
        <ele>20.325</ele>
        <time>2013-05-18T17:50:00Z</time>
      </trkpt>
      <trkpt lat="59.9271868" lon="17.8371821">
        <ele>20.325</ele>
        <time>2013-05-18T17:50:01Z</time>
      </trkpt>
      <trkpt lat="59.927124" lon="17.8372805">
        <ele>20.325</ele>
        <time>2013-05-18T17:50:02Z</time>
      </trkpt>
      <trkpt lat="59.9270553" lon="17.8373774">
        <ele>20.325</ele>
        <time>2013-05-18T17:50:03Z</time>
      </trkpt>
      <trkpt lat="59.9269865" lon="17.8374831">
        <ele>20.325</ele>
        <time>2013-05-18T17:50:04Z</time>
      </trkpt>
      <trkpt lat="59.9269192" lon="17.8375773">
        <ele>20.325</ele>
        <time>2013-05-18T17:50:05Z</time>
      </trkpt>
      <trkpt lat="59.926851" lon="17.8376533">
        <ele>19.3638</ele>
        <time>2013-05-18T17:50:06Z</time>
      </trkpt>
      <trkpt lat="59.9267719" lon="17.8377232">
        <ele>19.3638</ele>
        <time>2013-05-18T17:50:07Z</time>
      </trkpt>
      <trkpt lat="59.9266865" lon="17.8377999">
        <ele>19.3638</ele>
        <time>2013-05-18T17:50:08Z</time>
      </trkpt>
      <trkpt lat="59.9266" lon="17.8378455">
        <ele>18.8831</ele>
        <time>2013-05-18T17:50:09Z</time>
      </trkpt>
      <trkpt lat="59.9265119" lon="17.8379058">
        <ele>18.8831</ele>
        <time>2013-05-18T17:50:10Z</time>
      </trkpt>
      <trkpt lat="59.9264284" lon="17.8379984">
        <ele>18.4023</ele>
        <time>2013-05-18T17:50:11Z</time>
      </trkpt>
      <trkpt lat="59.9263507" lon="17.8381163">
        <ele>17.4412</ele>
        <time>2013-05-18T17:50:12Z</time>
      </trkpt>
      <trkpt lat="59.9262792" lon="17.8382539">
        <ele>16.9604</ele>
        <time>2013-05-18T17:50:13Z</time>
      </trkpt>
      <trkpt lat="59.9262125" lon="17.8384049">
        <ele>16.4797</ele>
        <time>2013-05-18T17:50:14Z</time>
      </trkpt>
      <trkpt lat="59.9261475" lon="17.8385613">
        <ele>15.999</ele>
        <time>2013-05-18T17:50:15Z</time>
      </trkpt>
      <trkpt lat="59.9260819" lon="17.8387157">
        <ele>15.999</ele>
        <time>2013-05-18T17:50:16Z</time>
      </trkpt>
      <trkpt lat="59.9260157" lon="17.8388682">
        <ele>15.5184</ele>
        <time>2013-05-18T17:50:17Z</time>
      </trkpt>
      <trkpt lat="59.9259476" lon="17.8390183">
        <ele>15.5184</ele>
        <time>2013-05-18T17:50:18Z</time>
      </trkpt>
      <trkpt lat="59.9258742" lon="17.8391593">
        <ele>15.0377</ele>
        <time>2013-05-18T17:50:19Z</time>
      </trkpt>
      <trkpt lat="59.9257938" lon="17.8392845">
        <ele>15.0377</ele>
        <time>2013-05-18T17:50:20Z</time>
      </trkpt>
      <trkpt lat="59.9257049" lon="17.8393811">
        <ele>15.0377</ele>
        <time>2013-05-18T17:50:21Z</time>
      </trkpt>
      <trkpt lat="59.9256079" lon="17.8394359">
        <ele>15.0377</ele>
        <time>2013-05-18T17:50:22Z</time>
      </trkpt>
      <trkpt lat="59.9255084" lon="17.839439">
        <ele>15.0377</ele>
        <time>2013-05-18T17:50:23Z</time>
      </trkpt>
      <trkpt lat="59.9254095" lon="17.8394233">
        <ele>15.5184</ele>
        <time>2013-05-18T17:50:24Z</time>
      </trkpt>
      <trkpt lat="59.9253116" lon="17.8394033">
        <ele>15.5184</ele>
        <time>2013-05-18T17:50:25Z</time>
      </trkpt>
      <trkpt lat="59.9252143" lon="17.8393871">
        <ele>15.5184</ele>
        <time>2013-05-18T17:50:26Z</time>
      </trkpt>
      <trkpt lat="59.9251174" lon="17.839379">
        <ele>15.5184</ele>
        <time>2013-05-18T17:50:27Z</time>
      </trkpt>
      <trkpt lat="59.9250203" lon="17.8393801">
        <ele>15.5184</ele>
        <time>2013-05-18T17:50:28Z</time>
      </trkpt>
      <trkpt lat="59.9249224" lon="17.8393851">
        <ele>15.5184</ele>
        <time>2013-05-18T17:50:29Z</time>
      </trkpt>
      <trkpt lat="59.9248236" lon="17.8393919">
        <ele>15.5184</ele>
        <time>2013-05-18T17:50:30Z</time>
      </trkpt>
      <trkpt lat="59.9247241" lon="17.8394006">
        <ele>15.5184</ele>
        <time>2013-05-18T17:50:31Z</time>
      </trkpt>
      <trkpt lat="59.9246239" lon="17.8394116">
        <ele>15.5184</ele>
        <time>2013-05-18T17:50:32Z</time>
      </trkpt>
      <trkpt lat="59.9245237" lon="17.8394264">
        <ele>15.5184</ele>
        <time>2013-05-18T17:50:33Z</time>
      </trkpt>
      <trkpt lat="59.9244234" lon="17.8394476">
        <ele>15.0377</ele>
        <time>2013-05-18T17:50:34Z</time>
      </trkpt>
      <trkpt lat="59.9243233" lon="17.8394727">
        <ele>15.0377</ele>
        <time>2013-05-18T17:50:35Z</time>
      </trkpt>
      <trkpt lat="59.9242232" lon="17.8394996">
        <ele>15.0377</ele>
        <time>2013-05-18T17:50:36Z</time>
      </trkpt>
      <trkpt lat="59.9241234" lon="17.8395287">
        <ele>15.0377</ele>
        <time>2013-05-18T17:50:37Z</time>
      </trkpt>
      <trkpt lat="59.924024" lon="17.8395613">
        <ele>15.0377</ele>
        <time>2013-05-18T17:50:38Z</time>
      </trkpt>
      <trkpt lat="59.923925" lon="17.8395982">
        <ele>15.0377</ele>
        <time>2013-05-18T17:50:39Z</time>
      </trkpt>
      <trkpt lat="59.9238266" lon="17.839637">
        <ele>15.0377</ele>
        <time>2013-05-18T17:50:40Z</time>
      </trkpt>
      <trkpt lat="59.9237302" lon="17.8396777">
        <ele>15.0377</ele>
        <time>2013-05-18T17:50:41Z</time>
      </trkpt>
      <trkpt lat="59.9236355" lon="17.8397208">
        <ele>15.0377</ele>
        <time>2013-05-18T17:50:42Z</time>
      </trkpt>
      <trkpt lat="59.9235415" lon="17.8397646">
        <ele>15.0377</ele>
        <time>2013-05-18T17:50:43Z</time>
      </trkpt>
      <trkpt lat="59.9234474" lon="17.8398094">
        <ele>15.0377</ele>
        <time>2013-05-18T17:50:44Z</time>
      </trkpt>
      <trkpt lat="59.9233547" lon="17.8398577">
        <ele>15.0377</ele>
        <time>2013-05-18T17:50:45Z</time>
      </trkpt>
      <trkpt lat="59.9232629" lon="17.8399092">
        <ele>15.0377</ele>
        <time>2013-05-18T17:50:46Z</time>
      </trkpt>
      <trkpt lat="59.9231712" lon="17.83996">
        <ele>15.5184</ele>
        <time>2013-05-18T17:50:47Z</time>
      </trkpt>
      <trkpt lat="59.9230796" lon="17.8400121">
        <ele>15.5184</ele>
        <time>2013-05-18T17:50:48Z</time>
      </trkpt>
      <trkpt lat="59.9229889" lon="17.8400636">
        <ele>15.5184</ele>
        <time>2013-05-18T17:50:49Z</time>
      </trkpt>
      <trkpt lat="59.9228981" lon="17.8401145">
        <ele>15.5184</ele>
        <time>2013-05-18T17:50:50Z</time>
      </trkpt>
      <trkpt lat="59.9228071" lon="17.8401648">
        <ele>15.5184</ele>
        <time>2013-05-18T17:50:51Z</time>
      </trkpt>
      <trkpt lat="59.9227166" lon="17.840214">
        <ele>15.5184</ele>
        <time>2013-05-18T17:50:52Z</time>
      </trkpt>
      <trkpt lat="59.9226266" lon="17.8402637">
        <ele>15.999</ele>
        <time>2013-05-18T17:50:53Z</time>
      </trkpt>
      <trkpt lat="59.9225366" lon="17.8403138">
        <ele>15.999</ele>
        <time>2013-05-18T17:50:54Z</time>
      </trkpt>
      <trkpt lat="59.922446" lon="17.8403621">
        <ele>15.5184</ele>
        <time>2013-05-18T17:50:55Z</time>
      </trkpt>
      <trkpt lat="59.9223545" lon="17.8404054">
        <ele>15.5184</ele>
        <time>2013-05-18T17:50:56Z</time>
      </trkpt>
      <trkpt lat="59.9222625" lon="17.8404435">
        <ele>15.5184</ele>
        <time>2013-05-18T17:50:57Z</time>
      </trkpt>
      <trkpt lat="59.9221705" lon="17.840476">
        <ele>15.999</ele>
        <time>2013-05-18T17:50:58Z</time>
      </trkpt>
      <trkpt lat="59.9220781" lon="17.840503">
        <ele>15.999</ele>
        <time>2013-05-18T17:50:59Z</time>
      </trkpt>
      <trkpt lat="59.9219854" lon="17.8405283">
        <ele>15.999</ele>
        <time>2013-05-18T17:51:00Z</time>
      </trkpt>
      <trkpt lat="59.9218923" lon="17.8405551">
        <ele>15.999</ele>
        <time>2013-05-18T17:51:01Z</time>
      </trkpt>
      <trkpt lat="59.921799" lon="17.8405818">
        <ele>15.999</ele>
        <time>2013-05-18T17:51:02Z</time>
      </trkpt>
      <trkpt lat="59.9217053" lon="17.8406066">
        <ele>15.999</ele>
        <time>2013-05-18T17:51:03Z</time>
      </trkpt>
      <trkpt lat="59.9216118" lon="17.8406304">
        <ele>16.4797</ele>
        <time>2013-05-18T17:51:04Z</time>
      </trkpt>
      <trkpt lat="59.9215182" lon="17.8406538">
        <ele>16.4797</ele>
        <time>2013-05-18T17:51:05Z</time>
      </trkpt>
      <trkpt lat="59.9214245" lon="17.8406755">
        <ele>16.4797</ele>
        <time>2013-05-18T17:51:06Z</time>
      </trkpt>
      <trkpt lat="59.9213307" lon="17.8406935">
        <ele>16.4797</ele>
        <time>2013-05-18T17:51:07Z</time>
      </trkpt>
      <trkpt lat="59.921237" lon="17.8407069">
        <ele>16.4797</ele>
        <time>2013-05-18T17:51:08Z</time>
      </trkpt>
      <trkpt lat="59.9211438" lon="17.8407148">
        <ele>16.9604</ele>
        <time>2013-05-18T17:51:09Z</time>
      </trkpt>
      <trkpt lat="59.921051" lon="17.8407183">
        <ele>16.9604</ele>
        <time>2013-05-18T17:51:10Z</time>
      </trkpt>
      <trkpt lat="59.9209588" lon="17.8407204">
        <ele>16.9604</ele>
        <time>2013-05-18T17:51:11Z</time>
      </trkpt>
      <trkpt lat="59.9208678" lon="17.8407257">
        <ele>17.4412</ele>
        <time>2013-05-18T17:51:12Z</time>
      </trkpt>
      <trkpt lat="59.9207771" lon="17.840732">
        <ele>17.4412</ele>
        <time>2013-05-18T17:51:13Z</time>
      </trkpt>
      <trkpt lat="59.920686" lon="17.8407385">
        <ele>17.4412</ele>
        <time>2013-05-18T17:51:14Z</time>
      </trkpt>
      <trkpt lat="59.9205951" lon="17.8407427">
        <ele>17.4412</ele>
        <time>2013-05-18T17:51:15Z</time>
      </trkpt>
      <trkpt lat="59.9205045" lon="17.8407466">
        <ele>17.4412</ele>
        <time>2013-05-18T17:51:16Z</time>
      </trkpt>
      <trkpt lat="59.9204145" lon="17.8407517">
        <ele>17.9218</ele>
        <time>2013-05-18T17:51:17Z</time>
      </trkpt>
      <trkpt lat="59.9203262" lon="17.8407556">
        <ele>17.9218</ele>
        <time>2013-05-18T17:51:18Z</time>
      </trkpt>
      <trkpt lat="59.9202397" lon="17.8407542">
        <ele>17.9218</ele>
        <time>2013-05-18T17:51:19Z</time>
      </trkpt>
      <trkpt lat="59.9201542" lon="17.8407507">
        <ele>17.9218</ele>
        <time>2013-05-18T17:51:20Z</time>
      </trkpt>
      <trkpt lat="59.9200702" lon="17.8407464">
        <ele>17.4412</ele>
        <time>2013-05-18T17:51:21Z</time>
      </trkpt>
      <trkpt lat="59.9199859" lon="17.8407448">
        <ele>17.4412</ele>
        <time>2013-05-18T17:51:22Z</time>
      </trkpt>
      <trkpt lat="59.9199005" lon="17.8407491">
        <ele>17.4412</ele>
        <time>2013-05-18T17:51:23Z</time>
      </trkpt>
      <trkpt lat="59.919815" lon="17.8407606">
        <ele>16.9604</ele>
        <time>2013-05-18T17:51:24Z</time>
      </trkpt>
      <trkpt lat="59.9197286" lon="17.8407802">
        <ele>16.9604</ele>
        <time>2013-05-18T17:51:25Z</time>
      </trkpt>
      <trkpt lat="59.9196416" lon="17.8408081">
        <ele>16.4797</ele>
        <time>2013-05-18T17:51:26Z</time>
      </trkpt>
      <trkpt lat="59.9195544" lon="17.8408458">
        <ele>16.4797</ele>
        <time>2013-05-18T17:51:27Z</time>
      </trkpt>
      <trkpt lat="59.9194671" lon="17.8408935">
        <ele>16.4797</ele>
        <time>2013-05-18T17:51:28Z</time>
      </trkpt>
      <trkpt lat="59.9193805" lon="17.8409469">
        <ele>15.999</ele>
        <time>2013-05-18T17:51:29Z</time>
      </trkpt>
      <trkpt lat="59.9192946" lon="17.8410027">
        <ele>15.999</ele>
        <time>2013-05-18T17:51:30Z</time>
      </trkpt>
      <trkpt lat="59.9192095" lon="17.8410586">
        <ele>15.999</ele>
        <time>2013-05-18T17:51:31Z</time>
      </trkpt>
      <trkpt lat="59.9191251" lon="17.8411148">
        <ele>15.999</ele>
        <time>2013-05-18T17:51:32Z</time>
      </trkpt>
      <trkpt lat="59.9190418" lon="17.8411723">
        <ele>15.999</ele>
        <time>2013-05-18T17:51:33Z</time>
      </trkpt>
      <trkpt lat="59.9189592" lon="17.8412307">
        <ele>15.999</ele>
        <time>2013-05-18T17:51:34Z</time>
      </trkpt>
      <trkpt lat="59.9188769" lon="17.8412884">
        <ele>15.999</ele>
        <time>2013-05-18T17:51:35Z</time>
      </trkpt>
      <trkpt lat="59.9187946" lon="17.8413457">
        <ele>15.999</ele>
        <time>2013-05-18T17:51:36Z</time>
      </trkpt>
      <trkpt lat="59.9187128" lon="17.8414053">
        <ele>15.5184</ele>
        <time>2013-05-18T17:51:37Z</time>
      </trkpt>
      <trkpt lat="59.9186319" lon="17.841469">
        <ele>15.5184</ele>
        <time>2013-05-18T17:51:38Z</time>
      </trkpt>
      <trkpt lat="59.9185512" lon="17.8415343">
        <ele>15.999</ele>
        <time>2013-05-18T17:51:39Z</time>
      </trkpt>
      <trkpt lat="59.9184712" lon="17.8416016">
        <ele>15.5184</ele>
        <time>2013-05-18T17:51:40Z</time>
      </trkpt>
      <trkpt lat="59.9183917" lon="17.8416732">
        <ele>15.5184</ele>
        <time>2013-05-18T17:51:41Z</time>
      </trkpt>
      <trkpt lat="59.918313" lon="17.8417483">
        <ele>15.999</ele>
        <time>2013-05-18T17:51:42Z</time>
      </trkpt>
      <trkpt lat="59.9182356" lon="17.8418234">
        <ele>15.999</ele>
        <time>2013-05-18T17:51:43Z</time>
      </trkpt>
      <trkpt lat="59.9181586" lon="17.8418965">
        <ele>15.999</ele>
        <time>2013-05-18T17:51:44Z</time>
      </trkpt>
      <trkpt lat="59.9180827" lon="17.8419705">
        <ele>15.999</ele>
        <time>2013-05-18T17:51:45Z</time>
      </trkpt>
      <trkpt lat="59.9180088" lon="17.8420472">
        <ele>15.999</ele>
        <time>2013-05-18T17:51:46Z</time>
      </trkpt>
      <trkpt lat="59.9179367" lon="17.8421259">
        <ele>16.4797</ele>
        <time>2013-05-18T17:51:47Z</time>
      </trkpt>
      <trkpt lat="59.9178652" lon="17.8422036">
        <ele>16.4797</ele>
        <time>2013-05-18T17:51:48Z</time>
      </trkpt>
      <trkpt lat="59.9177948" lon="17.8422794">
        <ele>16.4797</ele>
        <time>2013-05-18T17:51:49Z</time>
      </trkpt>
      <trkpt lat="59.9177264" lon="17.8423581">
        <ele>16.9604</ele>
        <time>2013-05-18T17:51:50Z</time>
      </trkpt>
      <trkpt lat="59.9176587" lon="17.8424358">
        <ele>16.9604</ele>
        <time>2013-05-18T17:51:51Z</time>
      </trkpt>
      <trkpt lat="59.9175914" lon="17.8425051">
        <ele>16.9604</ele>
        <time>2013-05-18T17:51:52Z</time>
      </trkpt>
      <trkpt lat="59.9175227" lon="17.8425669">
        <ele>16.9604</ele>
        <time>2013-05-18T17:51:53Z</time>
      </trkpt>
      <trkpt lat="59.9174498" lon="17.8426386">
        <ele>16.4797</ele>
        <time>2013-05-18T17:51:54Z</time>
      </trkpt>
      <trkpt lat="59.9173742" lon="17.8427111">
        <ele>16.4797</ele>
        <time>2013-05-18T17:51:55Z</time>
      </trkpt>
      <trkpt lat="59.9172996" lon="17.8427734">
        <ele>15.999</ele>
        <time>2013-05-18T17:51:56Z</time>
      </trkpt>
      <trkpt lat="59.9172279" lon="17.842828">
        <ele>15.999</ele>
        <time>2013-05-18T17:51:57Z</time>
      </trkpt>
      <trkpt lat="59.9171572" lon="17.8428952">
        <ele>15.999</ele>
        <time>2013-05-18T17:51:58Z</time>
      </trkpt>
      <trkpt lat="59.9170891" lon="17.8429606">
        <ele>15.999</ele>
        <time>2013-05-18T17:51:59Z</time>
      </trkpt>
      <trkpt lat="59.9170256" lon="17.8430147">
        <ele>15.999</ele>
        <time>2013-05-18T17:52:00Z</time>
      </trkpt>
      <trkpt lat="59.9169716" lon="17.8430554">
        <ele>15.999</ele>
        <time>2013-05-18T17:52:01Z</time>
      </trkpt>
      <trkpt lat="59.9169194" lon="17.8430809">
        <ele>15.999</ele>
        <time>2013-05-18T17:52:02Z</time>
      </trkpt>
      <trkpt lat="59.9168671" lon="17.8430837">
        <ele>15.999</ele>
        <time>2013-05-18T17:52:03Z</time>
      </trkpt>
      <trkpt lat="59.9168153" lon="17.8430557">
        <ele>16.4797</ele>
        <time>2013-05-18T17:52:04Z</time>
      </trkpt>
      <trkpt lat="59.9167656" lon="17.8429994">
        <ele>16.4797</ele>
        <time>2013-05-18T17:52:05Z</time>
      </trkpt>
      <trkpt lat="59.9167174" lon="17.8429219">
        <ele>16.4797</ele>
        <time>2013-05-18T17:52:06Z</time>
      </trkpt>
      <trkpt lat="59.9166682" lon="17.8428333">
        <ele>16.4797</ele>
        <time>2013-05-18T17:52:07Z</time>
      </trkpt>
      <trkpt lat="59.9166165" lon="17.8427389">
        <ele>16.4797</ele>
        <time>2013-05-18T17:52:08Z</time>
      </trkpt>
      <trkpt lat="59.9165614" lon="17.8426427">
        <ele>15.999</ele>
        <time>2013-05-18T17:52:09Z</time>
      </trkpt>
      <trkpt lat="59.9165045" lon="17.8425474">
        <ele>15.999</ele>
        <time>2013-05-18T17:52:10Z</time>
      </trkpt>
      <trkpt lat="59.9164455" lon="17.8424455">
        <ele>15.999</ele>
        <time>2013-05-18T17:52:11Z</time>
      </trkpt>
      <trkpt lat="59.9163859" lon="17.842342">
        <ele>15.5184</ele>
        <time>2013-05-18T17:52:12Z</time>
      </trkpt>
      <trkpt lat="59.9163247" lon="17.8422342">
        <ele>15.5184</ele>
        <time>2013-05-18T17:52:13Z</time>
      </trkpt>
      <trkpt lat="59.9162584" lon="17.8421273">
        <ele>15.0377</ele>
        <time>2013-05-18T17:52:14Z</time>
      </trkpt>
      <trkpt lat="59.9161874" lon="17.8420289">
        <ele>14.557</ele>
        <time>2013-05-18T17:52:15Z</time>
      </trkpt>
      <trkpt lat="59.9161103" lon="17.8419431">
        <ele>14.557</ele>
        <time>2013-05-18T17:52:16Z</time>
      </trkpt>
      <trkpt lat="59.9160278" lon="17.8418748">
        <ele>14.0764</ele>
        <time>2013-05-18T17:52:17Z</time>
      </trkpt>
      <trkpt lat="59.9159393" lon="17.8418317">
        <ele>14.0764</ele>
        <time>2013-05-18T17:52:18Z</time>
      </trkpt>
      <trkpt lat="59.9158476" lon="17.8418108">
        <ele>14.0764</ele>
        <time>2013-05-18T17:52:19Z</time>
      </trkpt>
      <trkpt lat="59.9157559" lon="17.8418007">
        <ele>13.5958</ele>
        <time>2013-05-18T17:52:20Z</time>
      </trkpt>
      <trkpt lat="59.9156644" lon="17.8417916">
        <ele>13.5958</ele>
        <time>2013-05-18T17:52:21Z</time>
      </trkpt>
      <trkpt lat="59.9155741" lon="17.841782">
        <ele>13.1151</ele>
        <time>2013-05-18T17:52:22Z</time>
      </trkpt>
      <trkpt lat="59.9154829" lon="17.8417722">
        <ele>13.1151</ele>
        <time>2013-05-18T17:52:23Z</time>
      </trkpt>
      <trkpt lat="59.9153917" lon="17.8417659">
        <ele>12.6344</ele>
        <time>2013-05-18T17:52:24Z</time>
      </trkpt>
      <trkpt lat="59.9153011" lon="17.8417607">
        <ele>12.6344</ele>
        <time>2013-05-18T17:52:25Z</time>
      </trkpt>
      <trkpt lat="59.9152099" lon="17.8417562">
        <ele>12.6344</ele>
        <time>2013-05-18T17:52:26Z</time>
      </trkpt>
      <trkpt lat="59.9151178" lon="17.8417607">
        <ele>12.6344</ele>
        <time>2013-05-18T17:52:27Z</time>
      </trkpt>
      <trkpt lat="59.9150261" lon="17.8417813">
        <ele>12.6344</ele>
        <time>2013-05-18T17:52:28Z</time>
      </trkpt>
      <trkpt lat="59.9149376" lon="17.8418203">
        <ele>12.1538</ele>
        <time>2013-05-18T17:52:29Z</time>
      </trkpt>
      <trkpt lat="59.9148474" lon="17.8418624">
        <ele>12.1538</ele>
        <time>2013-05-18T17:52:30Z</time>
      </trkpt>
      <trkpt lat="59.9147576" lon="17.841913">
        <ele>11.6732</ele>
        <time>2013-05-18T17:52:31Z</time>
      </trkpt>
      <trkpt lat="59.9146696" lon="17.8419734">
        <ele>11.6732</ele>
        <time>2013-05-18T17:52:32Z</time>
      </trkpt>
      <trkpt lat="59.9145851" lon="17.8420478">
        <ele>11.1925</ele>
        <time>2013-05-18T17:52:33Z</time>
      </trkpt>
      <trkpt lat="59.914503" lon="17.8421301">
        <ele>11.1925</ele>
        <time>2013-05-18T17:52:34Z</time>
      </trkpt>
      <trkpt lat="59.914422" lon="17.8422186">
        <ele>11.1925</ele>
        <time>2013-05-18T17:52:35Z</time>
      </trkpt>
      <trkpt lat="59.9143447" lon="17.842314">
        <ele>10.7118</ele>
        <time>2013-05-18T17:52:36Z</time>
      </trkpt>
      <trkpt lat="59.9142652" lon="17.8424082">
        <ele>10.7118</ele>
        <time>2013-05-18T17:52:37Z</time>
      </trkpt>
      <trkpt lat="59.9141846" lon="17.8424989">
        <ele>10.7118</ele>
        <time>2013-05-18T17:52:38Z</time>
      </trkpt>
      <trkpt lat="59.9141033" lon="17.842587">
        <ele>10.7118</ele>
        <time>2013-05-18T17:52:39Z</time>
      </trkpt>
      <trkpt lat="59.9140218" lon="17.8426724">
        <ele>10.7118</ele>
        <time>2013-05-18T17:52:40Z</time>
      </trkpt>
      <trkpt lat="59.913942" lon="17.8427558">
        <ele>10.7118</ele>
        <time>2013-05-18T17:52:41Z</time>
      </trkpt>
      <trkpt lat="59.9138606" lon="17.8428311">
        <ele>10.7118</ele>
        <time>2013-05-18T17:52:42Z</time>
      </trkpt>
      <trkpt lat="59.9137787" lon="17.8429045">
        <ele>10.7118</ele>
        <time>2013-05-18T17:52:43Z</time>
      </trkpt>
      <trkpt lat="59.9136967" lon="17.8429769">
        <ele>10.7118</ele>
        <time>2013-05-18T17:52:44Z</time>
      </trkpt>
      <trkpt lat="59.9136135" lon="17.8430449">
        <ele>10.7118</ele>
        <time>2013-05-18T17:52:45Z</time>
      </trkpt>
      <trkpt lat="59.9135291" lon="17.8431076">
        <ele>10.7118</ele>
        <time>2013-05-18T17:52:46Z</time>
      </trkpt>
      <trkpt lat="59.9134449" lon="17.8431598">
        <ele>10.7118</ele>
        <time>2013-05-18T17:52:47Z</time>
      </trkpt>
      <trkpt lat="59.913359" lon="17.8432022">
        <ele>10.7118</ele>
        <time>2013-05-18T17:52:48Z</time>
      </trkpt>
      <trkpt lat="59.9132709" lon="17.8432369">
        <ele>10.7118</ele>
        <time>2013-05-18T17:52:49Z</time>
      </trkpt>
      <trkpt lat="59.913183" lon="17.8432683">
        <ele>10.7118</ele>
        <time>2013-05-18T17:52:50Z</time>
      </trkpt>
      <trkpt lat="59.913096" lon="17.8432952">
        <ele>11.1925</ele>
        <time>2013-05-18T17:52:51Z</time>
      </trkpt>
      <trkpt lat="59.9130109" lon="17.8433179">
        <ele>11.1925</ele>
        <time>2013-05-18T17:52:52Z</time>
      </trkpt>
      <trkpt lat="59.9129277" lon="17.8433408">
        <ele>11.6732</ele>
        <time>2013-05-18T17:52:53Z</time>
      </trkpt>
      <trkpt lat="59.9128468" lon="17.8433674">
        <ele>11.6732</ele>
        <time>2013-05-18T17:52:54Z</time>
      </trkpt>
      <trkpt lat="59.9127681" lon="17.8433966">
        <ele>12.1538</ele>
        <time>2013-05-18T17:52:55Z</time>
      </trkpt>
      <trkpt lat="59.9126914" lon="17.8434355">
        <ele>12.1538</ele>
        <time>2013-05-18T17:52:56Z</time>
      </trkpt>
      <trkpt lat="59.9126224" lon="17.8434883">
        <ele>12.1538</ele>
        <time>2013-05-18T17:52:57Z</time>
      </trkpt>
      <trkpt lat="59.9125518" lon="17.8435479">
        <ele>12.6344</ele>
        <time>2013-05-18T17:52:58Z</time>
      </trkpt>
      <trkpt lat="59.9124833" lon="17.843595">
        <ele>12.1538</ele>
        <time>2013-05-18T17:52:59Z</time>
      </trkpt>
      <trkpt lat="59.9124166" lon="17.843654">
        <ele>12.1538</ele>
        <time>2013-05-18T17:53:00Z</time>
      </trkpt>
      <trkpt lat="59.9123515" lon="17.8437174">
        <ele>11.6732</ele>
        <time>2013-05-18T17:53:01Z</time>
      </trkpt>
      <trkpt lat="59.9122859" lon="17.8437862">
        <ele>11.6732</ele>
        <time>2013-05-18T17:53:02Z</time>
      </trkpt>
      <trkpt lat="59.9122199" lon="17.8438531">
        <ele>11.1925</ele>
        <time>2013-05-18T17:53:03Z</time>
      </trkpt>
      <trkpt lat="59.9121528" lon="17.8439194">
        <ele>10.7118</ele>
        <time>2013-05-18T17:53:04Z</time>
      </trkpt>
      <trkpt lat="59.9120781" lon="17.8439747">
        <ele>9.75061</ele>
        <time>2013-05-18T17:53:05Z</time>
      </trkpt>
      <trkpt lat="59.9120029" lon="17.8440311">
        <ele>9.2699</ele>
        <time>2013-05-18T17:53:06Z</time>
      </trkpt>
      <trkpt lat="59.9119248" lon="17.844083">
        <ele>8.78918</ele>
        <time>2013-05-18T17:53:07Z</time>
      </trkpt>
      <trkpt lat="59.9118476" lon="17.8441335">
        <ele>8.78918</ele>
        <time>2013-05-18T17:53:08Z</time>
      </trkpt>
      <trkpt lat="59.9117672" lon="17.844171">
        <ele>8.30859</ele>
        <time>2013-05-18T17:53:09Z</time>
      </trkpt>
      <trkpt lat="59.9116855" lon="17.8441985">
        <ele>7.82788</ele>
        <time>2013-05-18T17:53:10Z</time>
      </trkpt>
      <trkpt lat="59.911602" lon="17.8442177">
        <ele>7.82788</ele>
        <time>2013-05-18T17:53:11Z</time>
      </trkpt>
      <trkpt lat="59.9115177" lon="17.8442294">
        <ele>7.34717</ele>
        <time>2013-05-18T17:53:12Z</time>
      </trkpt>
      <trkpt lat="59.9114332" lon="17.8442347">
        <ele>7.34717</ele>
        <time>2013-05-18T17:53:13Z</time>
      </trkpt>
      <trkpt lat="59.9113498" lon="17.8442405">
        <ele>7.34717</ele>
        <time>2013-05-18T17:53:14Z</time>
      </trkpt>
      <trkpt lat="59.9112662" lon="17.8442436">
        <ele>7.34717</ele>
        <time>2013-05-18T17:53:15Z</time>
      </trkpt>
      <trkpt lat="59.911183" lon="17.8442405">
        <ele>7.34717</ele>
        <time>2013-05-18T17:53:16Z</time>
      </trkpt>
      <trkpt lat="59.9111006" lon="17.844231">
        <ele>7.34717</ele>
        <time>2013-05-18T17:53:17Z</time>
      </trkpt>
      <trkpt lat="59.9110193" lon="17.8442161">
        <ele>7.82788</ele>
        <time>2013-05-18T17:53:18Z</time>
      </trkpt>
      <trkpt lat="59.9109403" lon="17.8441875">
        <ele>7.82788</ele>
        <time>2013-05-18T17:53:19Z</time>
      </trkpt>
      <trkpt lat="59.9108658" lon="17.8441419">
        <ele>8.30859</ele>
        <time>2013-05-18T17:53:20Z</time>
      </trkpt>
      <trkpt lat="59.9107974" lon="17.8440817">
        <ele>8.78918</ele>
        <time>2013-05-18T17:53:21Z</time>
      </trkpt>
      <trkpt lat="59.9107305" lon="17.8440196">
        <ele>9.2699</ele>
        <time>2013-05-18T17:53:22Z</time>
      </trkpt>
      <trkpt lat="59.9106665" lon="17.843961">
        <ele>9.2699</ele>
        <time>2013-05-18T17:53:23Z</time>
      </trkpt>
      <trkpt lat="59.9106053" lon="17.8439036">
        <ele>9.75061</ele>
        <time>2013-05-18T17:53:24Z</time>
      </trkpt>
      <trkpt lat="59.9105281" lon="17.8438093">
        <ele>10.2312</ele>
        <time>2013-05-18T17:53:25Z</time>
      </trkpt>
      <trkpt lat="59.9104584" lon="17.8437658">
        <ele>10.2312</ele>
        <time>2013-05-18T17:53:26Z</time>
      </trkpt>
      <trkpt lat="59.9104031" lon="17.8437188">
        <ele>10.7118</ele>
        <time>2013-05-18T17:53:27Z</time>
      </trkpt>
      <trkpt lat="59.9103496" lon="17.8436659">
        <ele>11.1925</ele>
        <time>2013-05-18T17:53:28Z</time>
      </trkpt>
      <trkpt lat="59.9102941" lon="17.8436257">
        <ele>11.6732</ele>
        <time>2013-05-18T17:53:29Z</time>
      </trkpt>
      <trkpt lat="59.9102309" lon="17.8435728">
        <ele>12.1538</ele>
        <time>2013-05-18T17:53:30Z</time>
      </trkpt>
      <trkpt lat="59.9101717" lon="17.8435192">
        <ele>12.1538</ele>
        <time>2013-05-18T17:53:31Z</time>
      </trkpt>
      <trkpt lat="59.9101096" lon="17.8434715">
        <ele>12.6344</ele>
        <time>2013-05-18T17:53:32Z</time>
      </trkpt>
      <trkpt lat="59.9100494" lon="17.8434342">
        <ele>12.6344</ele>
        <time>2013-05-18T17:53:33Z</time>
      </trkpt>
      <trkpt lat="59.9099929" lon="17.8433882">
        <ele>12.6344</ele>
        <time>2013-05-18T17:53:34Z</time>
      </trkpt>
      <trkpt lat="59.9099377" lon="17.8433246">
        <ele>12.6344</ele>
        <time>2013-05-18T17:53:35Z</time>
      </trkpt>
      <trkpt lat="59.9098795" lon="17.8432639">
        <ele>12.6344</ele>
        <time>2013-05-18T17:53:36Z</time>
      </trkpt>
      <trkpt lat="59.9098223" lon="17.8432029">
        <ele>11.6732</ele>
        <time>2013-05-18T17:53:37Z</time>
      </trkpt>
      <trkpt lat="59.9097678" lon="17.8431324">
        <ele>11.1925</ele>
        <time>2013-05-18T17:53:38Z</time>
      </trkpt>
      <trkpt lat="59.9097117" lon="17.8430604">
        <ele>11.6732</ele>
        <time>2013-05-18T17:53:39Z</time>
      </trkpt>
      <trkpt lat="59.9096574" lon="17.8429774">
        <ele>11.6732</ele>
        <time>2013-05-18T17:53:40Z</time>
      </trkpt>
      <trkpt lat="59.9096145" lon="17.8428616">
        <ele>12.1538</ele>
        <time>2013-05-18T17:53:41Z</time>
      </trkpt>
      <trkpt lat="59.9095874" lon="17.8427287">
        <ele>13.1151</ele>
        <time>2013-05-18T17:53:42Z</time>
      </trkpt>
      <trkpt lat="59.9095797" lon="17.8425862">
        <ele>13.5958</ele>
        <time>2013-05-18T17:53:43Z</time>
      </trkpt>
      <trkpt lat="59.9095853" lon="17.8424141">
        <ele>14.0764</ele>
        <time>2013-05-18T17:53:44Z</time>
      </trkpt>
      <trkpt lat="59.9095989" lon="17.8422875">
        <ele>14.557</ele>
        <time>2013-05-18T17:53:45Z</time>
      </trkpt>
      <trkpt lat="59.9096094" lon="17.8421333">
        <ele>14.557</ele>
        <time>2013-05-18T17:53:46Z</time>
      </trkpt>
      <trkpt lat="59.9096149" lon="17.8419659">
        <ele>15.0377</ele>
        <time>2013-05-18T17:53:47Z</time>
      </trkpt>
      <trkpt lat="59.9096191" lon="17.8418062">
        <ele>14.0764</ele>
        <time>2013-05-18T17:53:48Z</time>
      </trkpt>
      <trkpt lat="59.9096248" lon="17.8416508">
        <ele>14.0764</ele>
        <time>2013-05-18T17:53:49Z</time>
      </trkpt>
      <trkpt lat="59.9096227" lon="17.8414878">
        <ele>13.5958</ele>
        <time>2013-05-18T17:53:50Z</time>
      </trkpt>
      <trkpt lat="59.9096151" lon="17.8413225">
        <ele>13.5958</ele>
        <time>2013-05-18T17:53:51Z</time>
      </trkpt>
      <trkpt lat="59.9096" lon="17.8411568">
        <ele>13.5958</ele>
        <time>2013-05-18T17:53:52Z</time>
      </trkpt>
      <trkpt lat="59.9095764" lon="17.8409946">
        <ele>13.5958</ele>
        <time>2013-05-18T17:53:53Z</time>
      </trkpt>
      <trkpt lat="59.9095451" lon="17.8408469">
        <ele>13.5958</ele>
        <time>2013-05-18T17:53:54Z</time>
      </trkpt>
      <trkpt lat="59.9094992" lon="17.8406942">
        <ele>13.1151</ele>
        <time>2013-05-18T17:53:55Z</time>
      </trkpt>
      <trkpt lat="59.9094491" lon="17.8405517">
        <ele>13.1151</ele>
        <time>2013-05-18T17:53:56Z</time>
      </trkpt>
      <trkpt lat="59.9093984" lon="17.8404154">
        <ele>12.6344</ele>
        <time>2013-05-18T17:53:57Z</time>
      </trkpt>
      <trkpt lat="59.9093497" lon="17.8402885">
        <ele>12.6344</ele>
        <time>2013-05-18T17:53:58Z</time>
      </trkpt>
      <trkpt lat="59.9093004" lon="17.8401642">
        <ele>12.6344</ele>
        <time>2013-05-18T17:53:59Z</time>
      </trkpt>
      <trkpt lat="59.9092516" lon="17.8400425">
        <ele>12.6344</ele>
        <time>2013-05-18T17:54:00Z</time>
      </trkpt>
      <trkpt lat="59.9092093" lon="17.8399218">
        <ele>12.6344</ele>
        <time>2013-05-18T17:54:01Z</time>
      </trkpt>
      <trkpt lat="59.9091667" lon="17.8398027">
        <ele>12.6344</ele>
        <time>2013-05-18T17:54:02Z</time>
      </trkpt>
      <trkpt lat="59.9091265" lon="17.8396865">
        <ele>12.6344</ele>
        <time>2013-05-18T17:54:03Z</time>
      </trkpt>
      <trkpt lat="59.9090858" lon="17.8395747">
        <ele>12.6344</ele>
        <time>2013-05-18T17:54:04Z</time>
      </trkpt>
      <trkpt lat="59.9090504" lon="17.8394763">
        <ele>12.6344</ele>
        <time>2013-05-18T17:54:05Z</time>
      </trkpt>
      <trkpt lat="59.9090128" lon="17.8393748">
        <ele>12.6344</ele>
        <time>2013-05-18T17:54:06Z</time>
      </trkpt>
      <trkpt lat="59.9089753" lon="17.8392783">
        <ele>13.1151</ele>
        <time>2013-05-18T17:54:07Z</time>
      </trkpt>
      <trkpt lat="59.9089387" lon="17.8391898">
        <ele>13.1151</ele>
        <time>2013-05-18T17:54:08Z</time>
      </trkpt>
      <trkpt lat="59.9089078" lon="17.8391074">
        <ele>13.5958</ele>
        <time>2013-05-18T17:54:09Z</time>
      </trkpt>
      <trkpt lat="59.9088757" lon="17.8390386">
        <ele>13.5958</ele>
        <time>2013-05-18T17:54:10Z</time>
      </trkpt>
      <trkpt lat="59.9088399" lon="17.8389685">
        <ele>14.0764</ele>
        <time>2013-05-18T17:54:11Z</time>
      </trkpt>
      <trkpt lat="59.9088059" lon="17.8389049">
        <ele>14.0764</ele>
        <time>2013-05-18T17:54:12Z</time>
      </trkpt>
      <trkpt lat="59.9087684" lon="17.8388429">
        <ele>14.0764</ele>
        <time>2013-05-18T17:54:13Z</time>
      </trkpt>
      <trkpt lat="59.9087379" lon="17.8387911">
        <ele>14.557</ele>
        <time>2013-05-18T17:54:14Z</time>
      </trkpt>
      <trkpt lat="59.9087006" lon="17.8387416">
        <ele>15.0377</ele>
        <time>2013-05-18T17:54:15Z</time>
      </trkpt>
      <trkpt lat="59.9086604" lon="17.8386972">
        <ele>15.0377</ele>
        <time>2013-05-18T17:54:16Z</time>
      </trkpt>
      <trkpt lat="59.9086214" lon="17.8386606">
        <ele>15.0377</ele>
        <time>2013-05-18T17:54:17Z</time>
      </trkpt>
      <trkpt lat="59.9085783" lon="17.8386314">
        <ele>14.557</ele>
        <time>2013-05-18T17:54:18Z</time>
      </trkpt>
      <trkpt lat="59.9085375" lon="17.8386044">
        <ele>14.557</ele>
        <time>2013-05-18T17:54:19Z</time>
      </trkpt>
      <trkpt lat="59.9084949" lon="17.8385777">
        <ele>14.557</ele>
        <time>2013-05-18T17:54:20Z</time>
      </trkpt>
      <trkpt lat="59.9084511" lon="17.8385615">
        <ele>14.0764</ele>
        <time>2013-05-18T17:54:21Z</time>
      </trkpt>
      <trkpt lat="59.9084065" lon="17.838552">
        <ele>13.5958</ele>
        <time>2013-05-18T17:54:22Z</time>
      </trkpt>
      <trkpt lat="59.9083598" lon="17.8385408">
        <ele>12.6344</ele>
        <time>2013-05-18T17:54:23Z</time>
      </trkpt>
      <trkpt lat="59.908314" lon="17.8385395">
        <ele>12.1538</ele>
        <time>2013-05-18T17:54:24Z</time>
      </trkpt>
      <trkpt lat="59.908266" lon="17.8385517">
        <ele>12.1538</ele>
        <time>2013-05-18T17:54:25Z</time>
      </trkpt>
      <trkpt lat="59.9082174" lon="17.8385707">
        <ele>12.1538</ele>
        <time>2013-05-18T17:54:26Z</time>
      </trkpt>
      <trkpt lat="59.9081712" lon="17.8385921">
        <ele>12.1538</ele>
        <time>2013-05-18T17:54:27Z</time>
      </trkpt>
      <trkpt lat="59.9081218" lon="17.8386216">
        <ele>12.6344</ele>
        <time>2013-05-18T17:54:28Z</time>
      </trkpt>
      <trkpt lat="59.9080708" lon="17.838661">
        <ele>13.1151</ele>
        <time>2013-05-18T17:54:29Z</time>
      </trkpt>
      <trkpt lat="59.9080205" lon="17.8387027">
        <ele>13.1151</ele>
        <time>2013-05-18T17:54:30Z</time>
      </trkpt>
      <trkpt lat="59.9079737" lon="17.8387469">
        <ele>13.1151</ele>
        <time>2013-05-18T17:54:31Z</time>
      </trkpt>
      <trkpt lat="59.9079276" lon="17.8387991">
        <ele>13.1151</ele>
        <time>2013-05-18T17:54:32Z</time>
      </trkpt>
      <trkpt lat="59.9078813" lon="17.8388511">
        <ele>13.5958</ele>
        <time>2013-05-18T17:54:33Z</time>
      </trkpt>
      <trkpt lat="59.9078345" lon="17.8389064">
        <ele>13.5958</ele>
        <time>2013-05-18T17:54:34Z</time>
      </trkpt>
      <trkpt lat="59.9077906" lon="17.8389638">
        <ele>13.5958</ele>
        <time>2013-05-18T17:54:35Z</time>
      </trkpt>
      <trkpt lat="59.9077453" lon="17.8390262">
        <ele>14.0764</ele>
        <time>2013-05-18T17:54:36Z</time>
      </trkpt>
      <trkpt lat="59.9077076" lon="17.8390784">
        <ele>14.0764</ele>
        <time>2013-05-18T17:54:37Z</time>
      </trkpt>
      <trkpt lat="59.9076672" lon="17.8391318">
        <ele>14.0764</ele>
        <time>2013-05-18T17:54:38Z</time>
      </trkpt>
      <trkpt lat="59.9076221" lon="17.8391884">
        <ele>14.0764</ele>
        <time>2013-05-18T17:54:39Z</time>
      </trkpt>
      <trkpt lat="59.9075793" lon="17.8392369">
        <ele>14.557</ele>
        <time>2013-05-18T17:54:40Z</time>
      </trkpt>
      <trkpt lat="59.90753" lon="17.839294">
        <ele>15.0377</ele>
        <time>2013-05-18T17:54:41Z</time>
      </trkpt>
      <trkpt lat="59.9074793" lon="17.8393478">
        <ele>15.5184</ele>
        <time>2013-05-18T17:54:42Z</time>
      </trkpt>
      <trkpt lat="59.9074316" lon="17.8393939">
        <ele>15.999</ele>
        <time>2013-05-18T17:54:43Z</time>
      </trkpt>
      <trkpt lat="59.9073813" lon="17.8394469">
        <ele>15.999</ele>
        <time>2013-05-18T17:54:44Z</time>
      </trkpt>
      <trkpt lat="59.9073247" lon="17.8395025">
        <ele>15.999</ele>
        <time>2013-05-18T17:54:45Z</time>
      </trkpt>
      <trkpt lat="59.9072611" lon="17.8395606">
        <ele>15.5184</ele>
        <time>2013-05-18T17:54:46Z</time>
      </trkpt>
      <trkpt lat="59.9071906" lon="17.8396203">
        <ele>15.5184</ele>
        <time>2013-05-18T17:54:47Z</time>
      </trkpt>
      <trkpt lat="59.90712" lon="17.8396854">
        <ele>15.5184</ele>
        <time>2013-05-18T17:54:48Z</time>
      </trkpt>
      <trkpt lat="59.9070496" lon="17.8397476">
        <ele>15.0377</ele>
        <time>2013-05-18T17:54:49Z</time>
      </trkpt>
      <trkpt lat="59.9069742" lon="17.8398134">
        <ele>14.557</ele>
        <time>2013-05-18T17:54:50Z</time>
      </trkpt>
      <trkpt lat="59.9068958" lon="17.8398752">
        <ele>14.0764</ele>
        <time>2013-05-18T17:54:51Z</time>
      </trkpt>
      <trkpt lat="59.9068157" lon="17.8399358">
        <ele>14.0764</ele>
        <time>2013-05-18T17:54:52Z</time>
      </trkpt>
      <trkpt lat="59.9067347" lon="17.8399996">
        <ele>13.5958</ele>
        <time>2013-05-18T17:54:53Z</time>
      </trkpt>
      <trkpt lat="59.9066524" lon="17.8400732">
        <ele>13.1151</ele>
        <time>2013-05-18T17:54:54Z</time>
      </trkpt>
      <trkpt lat="59.9065747" lon="17.8401473">
        <ele>12.6344</ele>
        <time>2013-05-18T17:54:55Z</time>
      </trkpt>
      <trkpt lat="59.9064984" lon="17.8402094">
        <ele>12.1538</ele>
        <time>2013-05-18T17:54:56Z</time>
      </trkpt>
      <trkpt lat="59.9064228" lon="17.840269">
        <ele>11.6732</ele>
        <time>2013-05-18T17:54:57Z</time>
      </trkpt>
      <trkpt lat="59.9063448" lon="17.8403311">
        <ele>11.6732</ele>
        <time>2013-05-18T17:54:58Z</time>
      </trkpt>
      <trkpt lat="59.9062259" lon="17.8404013">
        <ele>10.7118</ele>
        <time>2013-05-18T17:54:59Z</time>
      </trkpt>
      <trkpt lat="59.9061521" lon="17.8405092">
        <ele>10.2312</ele>
        <time>2013-05-18T17:55:00Z</time>
      </trkpt>
      <trkpt lat="59.9060755" lon="17.8406066">
        <ele>9.75061</ele>
        <time>2013-05-18T17:55:01Z</time>
      </trkpt>
      <trkpt lat="59.9060034" lon="17.8407199">
        <ele>9.2699</ele>
        <time>2013-05-18T17:55:02Z</time>
      </trkpt>
      <trkpt lat="59.9059336" lon="17.8408257">
        <ele>8.78918</ele>
        <time>2013-05-18T17:55:03Z</time>
      </trkpt>
      <trkpt lat="59.9058609" lon="17.8409232">
        <ele>8.78918</ele>
        <time>2013-05-18T17:55:04Z</time>
      </trkpt>
      <trkpt lat="59.9057853" lon="17.8410086">
        <ele>8.30859</ele>
        <time>2013-05-18T17:55:05Z</time>
      </trkpt>
      <trkpt lat="59.9057045" lon="17.8410983">
        <ele>9.2699</ele>
        <time>2013-05-18T17:55:06Z</time>
      </trkpt>
      <trkpt lat="59.9056256" lon="17.8411537">
        <ele>9.2699</ele>
        <time>2013-05-18T17:55:07Z</time>
      </trkpt>
      <trkpt lat="59.9055517" lon="17.8411993">
        <ele>9.2699</ele>
        <time>2013-05-18T17:55:08Z</time>
      </trkpt>
      <trkpt lat="59.9054782" lon="17.8412083">
        <ele>9.75061</ele>
        <time>2013-05-18T17:55:09Z</time>
      </trkpt>
      <trkpt lat="59.9054103" lon="17.8412179">
        <ele>9.75061</ele>
        <time>2013-05-18T17:55:10Z</time>
      </trkpt>
      <trkpt lat="59.9053388" lon="17.8412197">
        <ele>9.75061</ele>
        <time>2013-05-18T17:55:11Z</time>
      </trkpt>
      <trkpt lat="59.9052778" lon="17.8412421">
        <ele>10.2312</ele>
        <time>2013-05-18T17:55:12Z</time>
      </trkpt>
      <trkpt lat="59.9052119" lon="17.8412624">
        <ele>10.2312</ele>
        <time>2013-05-18T17:55:13Z</time>
      </trkpt>
      <trkpt lat="59.9051502" lon="17.84127">
        <ele>10.7118</ele>
        <time>2013-05-18T17:55:14Z</time>
      </trkpt>
      <trkpt lat="59.9050946" lon="17.8412879">
        <ele>11.1925</ele>
        <time>2013-05-18T17:55:15Z</time>
      </trkpt>
      <trkpt lat="59.9050407" lon="17.8413241">
        <ele>12.1538</ele>
        <time>2013-05-18T17:55:16Z</time>
      </trkpt>
      <trkpt lat="59.9049895" lon="17.8413487">
        <ele>12.6344</ele>
        <time>2013-05-18T17:55:17Z</time>
      </trkpt>
      <trkpt lat="59.9049395" lon="17.8413765">
        <ele>13.1151</ele>
        <time>2013-05-18T17:55:18Z</time>
      </trkpt>
      <trkpt lat="59.9048936" lon="17.8413975">
        <ele>14.0764</ele>
        <time>2013-05-18T17:55:19Z</time>
      </trkpt>
      <trkpt lat="59.9048476" lon="17.8414245">
        <ele>14.557</ele>
        <time>2013-05-18T17:55:20Z</time>
      </trkpt>
      <trkpt lat="59.904798" lon="17.841457">
        <ele>15.0377</ele>
        <time>2013-05-18T17:55:21Z</time>
      </trkpt>
      <trkpt lat="59.9047503" lon="17.8414816">
        <ele>15.5184</ele>
        <time>2013-05-18T17:55:22Z</time>
      </trkpt>
      <trkpt lat="59.9047007" lon="17.8415028">
        <ele>15.5184</ele>
        <time>2013-05-18T17:55:23Z</time>
      </trkpt>
      <trkpt lat="59.9046502" lon="17.841535">
        <ele>15.5184</ele>
        <time>2013-05-18T17:55:24Z</time>
      </trkpt>
      <trkpt lat="59.9046005" lon="17.8415652">
        <ele>15.5184</ele>
        <time>2013-05-18T17:55:25Z</time>
      </trkpt>
      <trkpt lat="59.9045512" lon="17.8415979">
        <ele>15.5184</ele>
        <time>2013-05-18T17:55:26Z</time>
      </trkpt>
      <trkpt lat="59.9045018" lon="17.841637">
        <ele>16.4797</ele>
        <time>2013-05-18T17:55:27Z</time>
      </trkpt>
      <trkpt lat="59.9044514" lon="17.8416716">
        <ele>16.4797</ele>
        <time>2013-05-18T17:55:28Z</time>
      </trkpt>
      <trkpt lat="59.9044007" lon="17.8417095">
        <ele>16.9604</ele>
        <time>2013-05-18T17:55:29Z</time>
      </trkpt>
      <trkpt lat="59.9043504" lon="17.84174">
        <ele>16.9604</ele>
        <time>2013-05-18T17:55:30Z</time>
      </trkpt>
      <trkpt lat="59.9042986" lon="17.841768">
        <ele>16.9604</ele>
        <time>2013-05-18T17:55:31Z</time>
      </trkpt>
      <trkpt lat="59.9042414" lon="17.8418188">
        <ele>17.9218</ele>
        <time>2013-05-18T17:55:32Z</time>
      </trkpt>
      <trkpt lat="59.9041894" lon="17.8418512">
        <ele>17.4412</ele>
        <time>2013-05-18T17:55:33Z</time>
      </trkpt>
      <trkpt lat="59.9041391" lon="17.8418805">
        <ele>17.4412</ele>
        <time>2013-05-18T17:55:34Z</time>
      </trkpt>
      <trkpt lat="59.9040908" lon="17.8418988">
        <ele>16.9604</ele>
        <time>2013-05-18T17:55:35Z</time>
      </trkpt>
      <trkpt lat="59.9040402" lon="17.8419147">
        <ele>16.4797</ele>
        <time>2013-05-18T17:55:36Z</time>
      </trkpt>
      <trkpt lat="59.9039928" lon="17.8419247">
        <ele>16.4797</ele>
        <time>2013-05-18T17:55:37Z</time>
      </trkpt>
      <trkpt lat="59.9039417" lon="17.841927">
        <ele>16.4797</ele>
        <time>2013-05-18T17:55:38Z</time>
      </trkpt>
      <trkpt lat="59.9038902" lon="17.8419136">
        <ele>16.9604</ele>
        <time>2013-05-18T17:55:39Z</time>
      </trkpt>
      <trkpt lat="59.90384" lon="17.8418907">
        <ele>16.4797</ele>
        <time>2013-05-18T17:55:40Z</time>
      </trkpt>
      <trkpt lat="59.903792" lon="17.8418626">
        <ele>15.999</ele>
        <time>2013-05-18T17:55:41Z</time>
      </trkpt>
      <trkpt lat="59.9037474" lon="17.8418272">
        <ele>15.5184</ele>
        <time>2013-05-18T17:55:42Z</time>
      </trkpt>
      <trkpt lat="59.903706" lon="17.8417829">
        <ele>15.5184</ele>
        <time>2013-05-18T17:55:43Z</time>
      </trkpt>
      <trkpt lat="59.9036669" lon="17.8417328">
        <ele>15.0377</ele>
        <time>2013-05-18T17:55:44Z</time>
      </trkpt>
      <trkpt lat="59.9036266" lon="17.8416726">
        <ele>15.5184</ele>
        <time>2013-05-18T17:55:45Z</time>
      </trkpt>
      <trkpt lat="59.9035892" lon="17.8416077">
        <ele>15.0377</ele>
        <time>2013-05-18T17:55:46Z</time>
      </trkpt>
      <trkpt lat="59.9035495" lon="17.8415428">
        <ele>15.0377</ele>
        <time>2013-05-18T17:55:47Z</time>
      </trkpt>
      <trkpt lat="59.9035056" lon="17.8414795">
        <ele>15.0377</ele>
        <time>2013-05-18T17:55:48Z</time>
      </trkpt>
      <trkpt lat="59.9034619" lon="17.8414236">
        <ele>15.5184</ele>
        <time>2013-05-18T17:55:49Z</time>
      </trkpt>
      <trkpt lat="59.9034155" lon="17.8413742">
        <ele>15.5184</ele>
        <time>2013-05-18T17:55:50Z</time>
      </trkpt>
      <trkpt lat="59.90336" lon="17.8413226">
        <ele>16.4797</ele>
        <time>2013-05-18T17:55:51Z</time>
      </trkpt>
      <trkpt lat="59.9032999" lon="17.8412758">
        <ele>17.4412</ele>
        <time>2013-05-18T17:55:52Z</time>
      </trkpt>
      <trkpt lat="59.9032382" lon="17.8412344">
        <ele>18.4023</ele>
        <time>2013-05-18T17:55:53Z</time>
      </trkpt>
      <trkpt lat="59.9031807" lon="17.8412106">
        <ele>18.8831</ele>
        <time>2013-05-18T17:55:54Z</time>
      </trkpt>
      <trkpt lat="59.9031267" lon="17.8412151">
        <ele>18.8831</ele>
        <time>2013-05-18T17:55:55Z</time>
      </trkpt>
      <trkpt lat="59.9030708" lon="17.8412223">
        <ele>19.3638</ele>
        <time>2013-05-18T17:55:56Z</time>
      </trkpt>
      <trkpt lat="59.9030145" lon="17.8412375">
        <ele>19.3638</ele>
        <time>2013-05-18T17:55:57Z</time>
      </trkpt>
      <trkpt lat="59.9029631" lon="17.8412601">
        <ele>18.8831</ele>
        <time>2013-05-18T17:55:58Z</time>
      </trkpt>
      <trkpt lat="59.902902" lon="17.8412785">
        <ele>19.3638</ele>
        <time>2013-05-18T17:55:59Z</time>
      </trkpt>
      <trkpt lat="59.9028409" lon="17.8412919">
        <ele>19.3638</ele>
        <time>2013-05-18T17:56:00Z</time>
      </trkpt>
      <trkpt lat="59.9027819" lon="17.8413029">
        <ele>19.3638</ele>
        <time>2013-05-18T17:56:01Z</time>
      </trkpt>
      <trkpt lat="59.9027179" lon="17.8413193">
        <ele>20.325</ele>
        <time>2013-05-18T17:56:02Z</time>
      </trkpt>
      <trkpt lat="59.9026566" lon="17.8413412">
        <ele>20.325</ele>
        <time>2013-05-18T17:56:03Z</time>
      </trkpt>
      <trkpt lat="59.9025993" lon="17.8413603">
        <ele>19.8444</ele>
        <time>2013-05-18T17:56:04Z</time>
      </trkpt>
      <trkpt lat="59.9025431" lon="17.8413779">
        <ele>19.3638</ele>
        <time>2013-05-18T17:56:05Z</time>
      </trkpt>
      <trkpt lat="59.9024623" lon="17.8413281">
        <ele>19.3638</ele>
        <time>2013-05-18T17:56:06Z</time>
      </trkpt>
      <trkpt lat="59.9023855" lon="17.8414075">
        <ele>20.8057</ele>
        <time>2013-05-18T17:56:07Z</time>
      </trkpt>
      <trkpt lat="59.902339" lon="17.8414567">
        <ele>21.767</ele>
        <time>2013-05-18T17:56:08Z</time>
      </trkpt>
      <trkpt lat="59.9022965" lon="17.8415017">
        <ele>22.2476</ele>
        <time>2013-05-18T17:56:09Z</time>
      </trkpt>
      <trkpt lat="59.9022564" lon="17.8415399">
        <ele>22.7283</ele>
        <time>2013-05-18T17:56:10Z</time>
      </trkpt>
      <trkpt lat="59.9022144" lon="17.8415686">
        <ele>22.2476</ele>
        <time>2013-05-18T17:56:11Z</time>
      </trkpt>
      <trkpt lat="59.9021763" lon="17.8415887">
        <ele>21.767</ele>
        <time>2013-05-18T17:56:12Z</time>
      </trkpt>
      <trkpt lat="59.9021437" lon="17.8415971">
        <ele>21.2864</ele>
        <time>2013-05-18T17:56:13Z</time>
      </trkpt>
      <trkpt lat="59.9021034" lon="17.8415996">
        <ele>21.2864</ele>
        <time>2013-05-18T17:56:14Z</time>
      </trkpt>
      <trkpt lat="59.9020394" lon="17.8415775">
        <ele>22.7283</ele>
        <time>2013-05-18T17:56:15Z</time>
      </trkpt>
      <trkpt lat="59.9019787" lon="17.8415562">
        <ele>23.6896</ele>
        <time>2013-05-18T17:56:16Z</time>
      </trkpt>
      <trkpt lat="59.9019322" lon="17.8415488">
        <ele>22.7283</ele>
        <time>2013-05-18T17:56:17Z</time>
      </trkpt>
      <trkpt lat="59.901882" lon="17.8415422">
        <ele>21.767</ele>
        <time>2013-05-18T17:56:18Z</time>
      </trkpt>
      <trkpt lat="59.9018288" lon="17.8415345">
        <ele>21.2864</ele>
        <time>2013-05-18T17:56:19Z</time>
      </trkpt>
      <trkpt lat="59.9017763" lon="17.8415276">
        <ele>20.325</ele>
        <time>2013-05-18T17:56:20Z</time>
      </trkpt>
      <trkpt lat="59.9017235" lon="17.8415203">
        <ele>19.3638</ele>
        <time>2013-05-18T17:56:21Z</time>
      </trkpt>
      <trkpt lat="59.9016638" lon="17.8415137">
        <ele>19.3638</ele>
        <time>2013-05-18T17:56:22Z</time>
      </trkpt>
      <trkpt lat="59.9016058" lon="17.8415059">
        <ele>18.4023</ele>
        <time>2013-05-18T17:56:23Z</time>
      </trkpt>
      <trkpt lat="59.9015474" lon="17.841496">
        <ele>17.9218</ele>
        <time>2013-05-18T17:56:24Z</time>
      </trkpt>
      <trkpt lat="59.9014827" lon="17.8414863">
        <ele>17.9218</ele>
        <time>2013-05-18T17:56:25Z</time>
      </trkpt>
      <trkpt lat="59.9014229" lon="17.8414799">
        <ele>17.4412</ele>
        <time>2013-05-18T17:56:26Z</time>
      </trkpt>
      <trkpt lat="59.9013602" lon="17.8414681">
        <ele>17.4412</ele>
        <time>2013-05-18T17:56:27Z</time>
      </trkpt>
      <trkpt lat="59.9012967" lon="17.8414586">
        <ele>17.4412</ele>
        <time>2013-05-18T17:56:28Z</time>
      </trkpt>
      <trkpt lat="59.9012311" lon="17.8414468">
        <ele>17.4412</ele>
        <time>2013-05-18T17:56:29Z</time>
      </trkpt>
      <trkpt lat="59.9011646" lon="17.8414354">
        <ele>17.9218</ele>
        <time>2013-05-18T17:56:30Z</time>
      </trkpt>
      <trkpt lat="59.9010982" lon="17.8414247">
        <ele>18.8831</ele>
        <time>2013-05-18T17:56:31Z</time>
      </trkpt>
      <trkpt lat="59.901031" lon="17.8414183">
        <ele>19.3638</ele>
        <time>2013-05-18T17:56:32Z</time>
      </trkpt>
      <trkpt lat="59.9009674" lon="17.8414111">
        <ele>19.8444</ele>
        <time>2013-05-18T17:56:33Z</time>
      </trkpt>
      <trkpt lat="59.900903" lon="17.8414012">
        <ele>20.325</ele>
        <time>2013-05-18T17:56:34Z</time>
      </trkpt>
      <trkpt lat="59.9008403" lon="17.8413945">
        <ele>20.8057</ele>
        <time>2013-05-18T17:56:35Z</time>
      </trkpt>
      <trkpt lat="59.9007787" lon="17.8413905">
        <ele>21.2864</ele>
        <time>2013-05-18T17:56:36Z</time>
      </trkpt>
      <trkpt lat="59.9007212" lon="17.8413835">
        <ele>21.2864</ele>
        <time>2013-05-18T17:56:37Z</time>
      </trkpt>
      <trkpt lat="59.9006648" lon="17.8413755">
        <ele>21.767</ele>
        <time>2013-05-18T17:56:38Z</time>
      </trkpt>
      <trkpt lat="59.9006096" lon="17.841366">
        <ele>22.2476</ele>
        <time>2013-05-18T17:56:39Z</time>
      </trkpt>
      <trkpt lat="59.900557" lon="17.8413576">
        <ele>22.7283</ele>
        <time>2013-05-18T17:56:40Z</time>
      </trkpt>
      <trkpt lat="59.9005056" lon="17.8413515">
        <ele>23.209</ele>
        <time>2013-05-18T17:56:41Z</time>
      </trkpt>
      <trkpt lat="59.9004572" lon="17.8413514">
        <ele>23.209</ele>
        <time>2013-05-18T17:56:42Z</time>
      </trkpt>
      <trkpt lat="59.9004109" lon="17.8413467">
        <ele>23.6896</ele>
        <time>2013-05-18T17:56:43Z</time>
      </trkpt>
      <trkpt lat="59.9003694" lon="17.8413487">
        <ele>23.6896</ele>
        <time>2013-05-18T17:56:44Z</time>
      </trkpt>
      <trkpt lat="59.90033" lon="17.841351">
        <ele>23.6896</ele>
        <time>2013-05-18T17:56:45Z</time>
      </trkpt>
      <trkpt lat="59.9002888" lon="17.84135">
        <ele>23.6896</ele>
        <time>2013-05-18T17:56:46Z</time>
      </trkpt>
      <trkpt lat="59.9002478" lon="17.8413498">
        <ele>23.6896</ele>
        <time>2013-05-18T17:56:47Z</time>
      </trkpt>
      <trkpt lat="59.9002066" lon="17.8413505">
        <ele>23.209</ele>
        <time>2013-05-18T17:56:48Z</time>
      </trkpt>
      <trkpt lat="59.9001654" lon="17.8413589">
        <ele>22.7283</ele>
        <time>2013-05-18T17:56:49Z</time>
      </trkpt>
      <trkpt lat="59.9001214" lon="17.8413672">
        <ele>22.7283</ele>
        <time>2013-05-18T17:56:50Z</time>
      </trkpt>
      <trkpt lat="59.9000768" lon="17.8413747">
        <ele>22.7283</ele>
        <time>2013-05-18T17:56:51Z</time>
      </trkpt>
      <trkpt lat="59.9000326" lon="17.8413867">
        <ele>22.2476</ele>
        <time>2013-05-18T17:56:52Z</time>
      </trkpt>
      <trkpt lat="59.8999881" lon="17.8413955">
        <ele>22.2476</ele>
        <time>2013-05-18T17:56:53Z</time>
      </trkpt>
      <trkpt lat="59.8999452" lon="17.8414071">
        <ele>21.767</ele>
        <time>2013-05-18T17:56:54Z</time>
      </trkpt>
      <trkpt lat="59.8999033" lon="17.841423">
        <ele>21.2864</ele>
        <time>2013-05-18T17:56:55Z</time>
      </trkpt>
      <trkpt lat="59.8998659" lon="17.8414365">
        <ele>21.2864</ele>
        <time>2013-05-18T17:56:56Z</time>
      </trkpt>
      <trkpt lat="59.8998271" lon="17.8414446">
        <ele>21.2864</ele>
        <time>2013-05-18T17:56:57Z</time>
      </trkpt>
      <trkpt lat="59.8997882" lon="17.8414521">
        <ele>20.8057</ele>
        <time>2013-05-18T17:56:58Z</time>
      </trkpt>
      <trkpt lat="59.8997287" lon="17.8414484">
        <ele>22.2476</ele>
        <time>2013-05-18T17:56:59Z</time>
      </trkpt>
      <trkpt lat="59.8996722" lon="17.8414487">
        <ele>24.1703</ele>
        <time>2013-05-18T17:57:00Z</time>
      </trkpt>
      <trkpt lat="59.8996319" lon="17.841463">
        <ele>24.1703</ele>
        <time>2013-05-18T17:57:01Z</time>
      </trkpt>
      <trkpt lat="59.8995785" lon="17.8414767">
        <ele>25.6123</ele>
        <time>2013-05-18T17:57:02Z</time>
      </trkpt>
      <trkpt lat="59.8995301" lon="17.8414903">
        <ele>25.6123</ele>
        <time>2013-05-18T17:57:03Z</time>
      </trkpt>
      <trkpt lat="59.8994785" lon="17.8415062">
        <ele>26.5736</ele>
        <time>2013-05-18T17:57:04Z</time>
      </trkpt>
      <trkpt lat="59.8994272" lon="17.8415245">
        <ele>27.0543</ele>
        <time>2013-05-18T17:57:05Z</time>
      </trkpt>
      <trkpt lat="59.8993775" lon="17.8415523">
        <ele>26.5736</ele>
        <time>2013-05-18T17:57:06Z</time>
      </trkpt>
      <trkpt lat="59.8993303" lon="17.8415872">
        <ele>27.0543</ele>
        <time>2013-05-18T17:57:07Z</time>
      </trkpt>
      <trkpt lat="59.8992868" lon="17.8416153">
        <ele>27.0543</ele>
        <time>2013-05-18T17:57:08Z</time>
      </trkpt>
      <trkpt lat="59.8992464" lon="17.8416535">
        <ele>26.5736</ele>
        <time>2013-05-18T17:57:09Z</time>
      </trkpt>
      <trkpt lat="59.8992025" lon="17.8416989">
        <ele>26.5736</ele>
        <time>2013-05-18T17:57:10Z</time>
      </trkpt>
      <trkpt lat="59.8991551" lon="17.8417375">
        <ele>27.0543</ele>
        <time>2013-05-18T17:57:11Z</time>
      </trkpt>
      <trkpt lat="59.8991065" lon="17.8417762">
        <ele>27.0543</ele>
        <time>2013-05-18T17:57:12Z</time>
      </trkpt>
      <trkpt lat="59.8990567" lon="17.841811">
        <ele>27.0543</ele>
        <time>2013-05-18T17:57:13Z</time>
      </trkpt>
      <trkpt lat="59.8990051" lon="17.8418363">
        <ele>26.5736</ele>
        <time>2013-05-18T17:57:14Z</time>
      </trkpt>
      <trkpt lat="59.8989435" lon="17.841868">
        <ele>27.5349</ele>
        <time>2013-05-18T17:57:15Z</time>
      </trkpt>
      <trkpt lat="59.8988838" lon="17.8418965">
        <ele>27.0543</ele>
        <time>2013-05-18T17:57:16Z</time>
      </trkpt>
      <trkpt lat="59.8988155" lon="17.8419416">
        <ele>28.0155</ele>
        <time>2013-05-18T17:57:17Z</time>
      </trkpt>
      <trkpt lat="59.8987461" lon="17.841985">
        <ele>28.4962</ele>
        <time>2013-05-18T17:57:18Z</time>
      </trkpt>
      <trkpt lat="59.8986745" lon="17.8420275">
        <ele>28.9769</ele>
        <time>2013-05-18T17:57:19Z</time>
      </trkpt>
      <trkpt lat="59.8986013" lon="17.8420693">
        <ele>28.9769</ele>
        <time>2013-05-18T17:57:20Z</time>
      </trkpt>
      <trkpt lat="59.8985307" lon="17.8421072">
        <ele>28.4962</ele>
        <time>2013-05-18T17:57:21Z</time>
      </trkpt>
      <trkpt lat="59.8984602" lon="17.8421368">
        <ele>28.4962</ele>
        <time>2013-05-18T17:57:22Z</time>
      </trkpt>
      <trkpt lat="59.8983886" lon="17.8421685">
        <ele>28.4962</ele>
        <time>2013-05-18T17:57:23Z</time>
      </trkpt>
      <trkpt lat="59.8983203" lon="17.8421917">
        <ele>27.5349</ele>
        <time>2013-05-18T17:57:24Z</time>
      </trkpt>
      <trkpt lat="59.898252" lon="17.842212">
        <ele>27.5349</ele>
        <time>2013-05-18T17:57:25Z</time>
      </trkpt>
      <trkpt lat="59.8981794" lon="17.8422162">
        <ele>27.0543</ele>
        <time>2013-05-18T17:57:26Z</time>
      </trkpt>
      <trkpt lat="59.8981068" lon="17.842214">
        <ele>26.5736</ele>
        <time>2013-05-18T17:57:27Z</time>
      </trkpt>
      <trkpt lat="59.8980337" lon="17.8422047">
        <ele>26.5736</ele>
        <time>2013-05-18T17:57:28Z</time>
      </trkpt>
      <trkpt lat="59.8979571" lon="17.8421996">
        <ele>26.5736</ele>
        <time>2013-05-18T17:57:29Z</time>
      </trkpt>
      <trkpt lat="59.8978762" lon="17.8422031">
        <ele>26.0929</ele>
        <time>2013-05-18T17:57:30Z</time>
      </trkpt>
      <trkpt lat="59.8977941" lon="17.8422156">
        <ele>26.0929</ele>
        <time>2013-05-18T17:57:31Z</time>
      </trkpt>
      <trkpt lat="59.8977194" lon="17.8422451">
        <ele>25.6123</ele>
        <time>2013-05-18T17:57:32Z</time>
      </trkpt>
      <trkpt lat="59.8976454" lon="17.8422747">
        <ele>24.651</ele>
        <time>2013-05-18T17:57:33Z</time>
      </trkpt>
      <trkpt lat="59.8975724" lon="17.8423046">
        <ele>24.1703</ele>
        <time>2013-05-18T17:57:34Z</time>
      </trkpt>
      <trkpt lat="59.8974961" lon="17.8423412">
        <ele>24.1703</ele>
        <time>2013-05-18T17:57:35Z</time>
      </trkpt>
      <trkpt lat="59.897417" lon="17.8424023">
        <ele>24.1703</ele>
        <time>2013-05-18T17:57:36Z</time>
      </trkpt>
      <trkpt lat="59.8973359" lon="17.8424801">
        <ele>24.1703</ele>
        <time>2013-05-18T17:57:37Z</time>
      </trkpt>
      <trkpt lat="59.8972609" lon="17.8425599">
        <ele>24.1703</ele>
        <time>2013-05-18T17:57:38Z</time>
      </trkpt>
      <trkpt lat="59.897187" lon="17.8426403">
        <ele>23.6896</ele>
        <time>2013-05-18T17:57:39Z</time>
      </trkpt>
      <trkpt lat="59.8971133" lon="17.8427054">
        <ele>23.6896</ele>
        <time>2013-05-18T17:57:40Z</time>
      </trkpt>
      <trkpt lat="59.8970326" lon="17.8427739">
        <ele>22.7283</ele>
        <time>2013-05-18T17:57:41Z</time>
      </trkpt>
      <trkpt lat="59.8969386" lon="17.8428346">
        <ele>21.767</ele>
        <time>2013-05-18T17:57:42Z</time>
      </trkpt>
      <trkpt lat="59.896848" lon="17.8428744">
        <ele>20.8057</ele>
        <time>2013-05-18T17:57:43Z</time>
      </trkpt>
      <trkpt lat="59.8967292" lon="17.8428739">
        <ele>22.2476</ele>
        <time>2013-05-18T17:57:44Z</time>
      </trkpt>
      <trkpt lat="59.8966265" lon="17.8428698">
        <ele>20.8057</ele>
        <time>2013-05-18T17:57:45Z</time>
      </trkpt>
      <trkpt lat="59.8964968" lon="17.8428215">
        <ele>22.7283</ele>
        <time>2013-05-18T17:57:46Z</time>
      </trkpt>
      <trkpt lat="59.89637" lon="17.8427705">
        <ele>23.6896</ele>
        <time>2013-05-18T17:57:47Z</time>
      </trkpt>
      <trkpt lat="59.8962457" lon="17.8427325">
        <ele>24.651</ele>
        <time>2013-05-18T17:57:48Z</time>
      </trkpt>
      <trkpt lat="59.8961254" lon="17.8427067">
        <ele>25.1317</ele>
        <time>2013-05-18T17:57:49Z</time>
      </trkpt>
      <trkpt lat="59.8960104" lon="17.8427009">
        <ele>25.1317</ele>
        <time>2013-05-18T17:57:50Z</time>
      </trkpt>
      <trkpt lat="59.895896" lon="17.842709">
        <ele>25.6123</ele>
        <time>2013-05-18T17:57:51Z</time>
      </trkpt>
      <trkpt lat="59.8957877" lon="17.8427304">
        <ele>25.6123</ele>
        <time>2013-05-18T17:57:52Z</time>
      </trkpt>
      <trkpt lat="59.895682" lon="17.8427694">
        <ele>25.6123</ele>
        <time>2013-05-18T17:57:53Z</time>
      </trkpt>
      <trkpt lat="59.895577" lon="17.8428183">
        <ele>26.0929</ele>
        <time>2013-05-18T17:57:54Z</time>
      </trkpt>
      <trkpt lat="59.8954764" lon="17.8428796">
        <ele>26.5736</ele>
        <time>2013-05-18T17:57:55Z</time>
      </trkpt>
      <trkpt lat="59.8953826" lon="17.842929">
        <ele>26.0929</ele>
        <time>2013-05-18T17:57:56Z</time>
      </trkpt>
      <trkpt lat="59.8952744" lon="17.8429799">
        <ele>26.0929</ele>
        <time>2013-05-18T17:57:57Z</time>
      </trkpt>
      <trkpt lat="59.8951657" lon="17.8430117">
        <ele>26.5736</ele>
        <time>2013-05-18T17:57:58Z</time>
      </trkpt>
      <trkpt lat="59.8950667" lon="17.8430507">
        <ele>26.0929</ele>
        <time>2013-05-18T17:57:59Z</time>
      </trkpt>
      <trkpt lat="59.8949681" lon="17.8430747">
        <ele>26.0929</ele>
        <time>2013-05-18T17:58:00Z</time>
      </trkpt>
      <trkpt lat="59.8948719" lon="17.8430842">
        <ele>25.6123</ele>
        <time>2013-05-18T17:58:01Z</time>
      </trkpt>
      <trkpt lat="59.8947697" lon="17.8430909">
        <ele>26.0929</ele>
        <time>2013-05-18T17:58:02Z</time>
      </trkpt>
      <trkpt lat="59.8946584" lon="17.8430734">
        <ele>27.0543</ele>
        <time>2013-05-18T17:58:03Z</time>
      </trkpt>
      <trkpt lat="59.89456" lon="17.843051">
        <ele>27.5349</ele>
        <time>2013-05-18T17:58:04Z</time>
      </trkpt>
      <trkpt lat="59.894469" lon="17.8430286">
        <ele>28.0155</ele>
        <time>2013-05-18T17:58:05Z</time>
      </trkpt>
      <trkpt lat="59.8943716" lon="17.8429909">
        <ele>28.0155</ele>
        <time>2013-05-18T17:58:06Z</time>
      </trkpt>
      <trkpt lat="59.8942788" lon="17.8429764">
        <ele>28.4962</ele>
        <time>2013-05-18T17:58:07Z</time>
      </trkpt>
      <trkpt lat="59.8941777" lon="17.8429701">
        <ele>28.4962</ele>
        <time>2013-05-18T17:58:08Z</time>
      </trkpt>
      <trkpt lat="59.8940875" lon="17.8429561">
        <ele>28.9769</ele>
        <time>2013-05-18T17:58:09Z</time>
      </trkpt>
      <trkpt lat="59.8939927" lon="17.8429542">
        <ele>28.9769</ele>
        <time>2013-05-18T17:58:10Z</time>
      </trkpt>
      <trkpt lat="59.8939037" lon="17.842964">
        <ele>28.0155</ele>
        <time>2013-05-18T17:58:11Z</time>
      </trkpt>
      <trkpt lat="59.8938052" lon="17.8429496">
        <ele>28.0155</ele>
        <time>2013-05-18T17:58:12Z</time>
      </trkpt>
      <trkpt lat="59.8937141" lon="17.8429326">
        <ele>28.0155</ele>
        <time>2013-05-18T17:58:13Z</time>
      </trkpt>
      <trkpt lat="59.8936256" lon="17.8429103">
        <ele>28.4962</ele>
        <time>2013-05-18T17:58:14Z</time>
      </trkpt>
      <trkpt lat="59.8935401" lon="17.8428926">
        <ele>28.4962</ele>
        <time>2013-05-18T17:58:15Z</time>
      </trkpt>
      <trkpt lat="59.8934497" lon="17.8428755">
        <ele>28.9769</ele>
        <time>2013-05-18T17:58:16Z</time>
      </trkpt>
      <trkpt lat="59.8933634" lon="17.8428585">
        <ele>29.4575</ele>
        <time>2013-05-18T17:58:17Z</time>
      </trkpt>
      <trkpt lat="59.89328" lon="17.8428356">
        <ele>29.4575</ele>
        <time>2013-05-18T17:58:18Z</time>
      </trkpt>
      <trkpt lat="59.8931962" lon="17.8428098">
        <ele>29.4575</ele>
        <time>2013-05-18T17:58:19Z</time>
      </trkpt>
      <trkpt lat="59.893109" lon="17.842766">
        <ele>29.9381</ele>
        <time>2013-05-18T17:58:20Z</time>
      </trkpt>
      <trkpt lat="59.8930344" lon="17.8427334">
        <ele>29.9381</ele>
        <time>2013-05-18T17:58:21Z</time>
      </trkpt>
      <trkpt lat="59.8929599" lon="17.8426993">
        <ele>29.9381</ele>
        <time>2013-05-18T17:58:22Z</time>
      </trkpt>
      <trkpt lat="59.8928867" lon="17.8426652">
        <ele>29.9381</ele>
        <time>2013-05-18T17:58:23Z</time>
      </trkpt>
      <trkpt lat="59.8928164" lon="17.842632">
        <ele>29.9381</ele>
        <time>2013-05-18T17:58:24Z</time>
      </trkpt>
      <trkpt lat="59.8927458" lon="17.842602">
        <ele>29.9381</ele>
        <time>2013-05-18T17:58:25Z</time>
      </trkpt>
      <trkpt lat="59.8926807" lon="17.842572">
        <ele>29.9381</ele>
        <time>2013-05-18T17:58:26Z</time>
      </trkpt>
      <trkpt lat="59.8926176" lon="17.8425482">
        <ele>29.9381</ele>
        <time>2013-05-18T17:58:27Z</time>
      </trkpt>
      <trkpt lat="59.8925574" lon="17.8425279">
        <ele>29.9381</ele>
        <time>2013-05-18T17:58:28Z</time>
      </trkpt>
      <trkpt lat="59.8924942" lon="17.8424958">
        <ele>29.9381</ele>
        <time>2013-05-18T17:58:29Z</time>
      </trkpt>
      <trkpt lat="59.89243" lon="17.8424674">
        <ele>28.9769</ele>
        <time>2013-05-18T17:58:30Z</time>
      </trkpt>
      <trkpt lat="59.89236" lon="17.8424398">
        <ele>28.9769</ele>
        <time>2013-05-18T17:58:31Z</time>
      </trkpt>
      <trkpt lat="59.8922949" lon="17.8424088">
        <ele>28.0155</ele>
        <time>2013-05-18T17:58:32Z</time>
      </trkpt>
      <trkpt lat="59.8922253" lon="17.842373">
        <ele>28.4962</ele>
        <time>2013-05-18T17:58:33Z</time>
      </trkpt>
      <trkpt lat="59.8921563" lon="17.8423419">
        <ele>28.0155</ele>
        <time>2013-05-18T17:58:34Z</time>
      </trkpt>
      <trkpt lat="59.8920892" lon="17.842314">
        <ele>27.5349</ele>
        <time>2013-05-18T17:58:35Z</time>
      </trkpt>
      <trkpt lat="59.8920218" lon="17.8422911">
        <ele>27.0543</ele>
        <time>2013-05-18T17:58:36Z</time>
      </trkpt>
      <trkpt lat="59.8919525" lon="17.8422756">
        <ele>26.5736</ele>
        <time>2013-05-18T17:58:37Z</time>
      </trkpt>
      <trkpt lat="59.8918844" lon="17.8422653">
        <ele>25.6123</ele>
        <time>2013-05-18T17:58:38Z</time>
      </trkpt>
      <trkpt lat="59.8918115" lon="17.8422456">
        <ele>25.6123</ele>
        <time>2013-05-18T17:58:39Z</time>
      </trkpt>
      <trkpt lat="59.8917408" lon="17.8422274">
        <ele>25.6123</ele>
        <time>2013-05-18T17:58:40Z</time>
      </trkpt>
      <trkpt lat="59.8916743" lon="17.8422107">
        <ele>24.651</ele>
        <time>2013-05-18T17:58:41Z</time>
      </trkpt>
      <trkpt lat="59.8916078" lon="17.8421958">
        <ele>24.1703</ele>
        <time>2013-05-18T17:58:42Z</time>
      </trkpt>
      <trkpt lat="59.8915386" lon="17.8421789">
        <ele>24.1703</ele>
        <time>2013-05-18T17:58:43Z</time>
      </trkpt>
      <trkpt lat="59.891458" lon="17.8421447">
        <ele>25.1317</ele>
        <time>2013-05-18T17:58:44Z</time>
      </trkpt>
      <trkpt lat="59.8913728" lon="17.8420957">
        <ele>27.0543</ele>
        <time>2013-05-18T17:58:45Z</time>
      </trkpt>
      <trkpt lat="59.8913008" lon="17.8420509">
        <ele>28.0155</ele>
        <time>2013-05-18T17:58:46Z</time>
      </trkpt>
      <trkpt lat="59.8912314" lon="17.842003">
        <ele>28.0155</ele>
        <time>2013-05-18T17:58:47Z</time>
      </trkpt>
      <trkpt lat="59.8911691" lon="17.8419572">
        <ele>28.0155</ele>
        <time>2013-05-18T17:58:48Z</time>
      </trkpt>
      <trkpt lat="59.8911066" lon="17.8419089">
        <ele>27.5349</ele>
        <time>2013-05-18T17:58:49Z</time>
      </trkpt>
      <trkpt lat="59.8910443" lon="17.8418504">
        <ele>27.5349</ele>
        <time>2013-05-18T17:58:50Z</time>
      </trkpt>
      <trkpt lat="59.8909811" lon="17.8417904">
        <ele>27.5349</ele>
        <time>2013-05-18T17:58:51Z</time>
      </trkpt>
      <trkpt lat="59.8909169" lon="17.8417269">
        <ele>28.0155</ele>
        <time>2013-05-18T17:58:52Z</time>
      </trkpt>
      <trkpt lat="59.8908557" lon="17.8416575">
        <ele>28.0155</ele>
        <time>2013-05-18T17:58:53Z</time>
      </trkpt>
      <trkpt lat="59.8907977" lon="17.8415763">
        <ele>28.0155</ele>
        <time>2013-05-18T17:58:54Z</time>
      </trkpt>
      <trkpt lat="59.8907393" lon="17.8414914">
        <ele>27.5349</ele>
        <time>2013-05-18T17:58:55Z</time>
      </trkpt>
      <trkpt lat="59.8906832" lon="17.8414041">
        <ele>27.5349</ele>
        <time>2013-05-18T17:58:56Z</time>
      </trkpt>
      <trkpt lat="59.8906251" lon="17.8413151">
        <ele>27.0543</ele>
        <time>2013-05-18T17:58:57Z</time>
      </trkpt>
      <trkpt lat="59.8905661" lon="17.8412237">
        <ele>27.0543</ele>
        <time>2013-05-18T17:58:58Z</time>
      </trkpt>
      <trkpt lat="59.8905031" lon="17.8411294">
        <ele>27.5349</ele>
        <time>2013-05-18T17:58:59Z</time>
      </trkpt>
      <trkpt lat="59.8904397" lon="17.8410325">
        <ele>28.0155</ele>
        <time>2013-05-18T17:59:00Z</time>
      </trkpt>
      <trkpt lat="59.8903762" lon="17.8409449">
        <ele>28.0155</ele>
        <time>2013-05-18T17:59:01Z</time>
      </trkpt>
      <trkpt lat="59.8903117" lon="17.840873">
        <ele>27.5349</ele>
        <time>2013-05-18T17:59:02Z</time>
      </trkpt>
      <trkpt lat="59.8902349" lon="17.8408207">
        <ele>28.0155</ele>
        <time>2013-05-18T17:59:03Z</time>
      </trkpt>
      <trkpt lat="59.8901624" lon="17.8408205">
        <ele>27.0543</ele>
        <time>2013-05-18T17:59:04Z</time>
      </trkpt>
      <trkpt lat="59.8900797" lon="17.8408169">
        <ele>27.0543</ele>
        <time>2013-05-18T17:59:05Z</time>
      </trkpt>
      <trkpt lat="59.8899992" lon="17.8408987">
        <ele>28.0155</ele>
        <time>2013-05-18T17:59:06Z</time>
      </trkpt>
      <trkpt lat="59.8899305" lon="17.8409918">
        <ele>28.0155</ele>
        <time>2013-05-18T17:59:07Z</time>
      </trkpt>
      <trkpt lat="59.8898925" lon="17.8411219">
        <ele>27.5349</ele>
        <time>2013-05-18T17:59:08Z</time>
      </trkpt>
      <trkpt lat="59.8898555" lon="17.8412478">
        <ele>27.0543</ele>
        <time>2013-05-18T17:59:09Z</time>
      </trkpt>
      <trkpt lat="59.8898336" lon="17.8413722">
        <ele>26.5736</ele>
        <time>2013-05-18T17:59:10Z</time>
      </trkpt>
      <trkpt lat="59.8898125" lon="17.8415028">
        <ele>26.0929</ele>
        <time>2013-05-18T17:59:11Z</time>
      </trkpt>
      <trkpt lat="59.8897942" lon="17.84164">
        <ele>25.6123</ele>
        <time>2013-05-18T17:59:12Z</time>
      </trkpt>
      <trkpt lat="59.8897818" lon="17.8417792">
        <ele>25.1317</ele>
        <time>2013-05-18T17:59:13Z</time>
      </trkpt>
      <trkpt lat="59.8897724" lon="17.8419199">
        <ele>24.1703</ele>
        <time>2013-05-18T17:59:14Z</time>
      </trkpt>
      <trkpt lat="59.8897695" lon="17.8420701">
        <ele>23.209</ele>
        <time>2013-05-18T17:59:15Z</time>
      </trkpt>
      <trkpt lat="59.8897591" lon="17.842213">
        <ele>21.767</ele>
        <time>2013-05-18T17:59:16Z</time>
      </trkpt>
      <trkpt lat="59.8897491" lon="17.8423568">
        <ele>20.8057</ele>
        <time>2013-05-18T17:59:17Z</time>
      </trkpt>
      <trkpt lat="59.8897466" lon="17.8425103">
        <ele>19.3638</ele>
        <time>2013-05-18T17:59:18Z</time>
      </trkpt>
      <trkpt lat="59.8897327" lon="17.8426667">
        <ele>16.9604</ele>
        <time>2013-05-18T17:59:19Z</time>
      </trkpt>
      <trkpt lat="59.8897156" lon="17.8428284">
        <ele>15.5184</ele>
        <time>2013-05-18T17:59:20Z</time>
      </trkpt>
      <trkpt lat="59.8896874" lon="17.842975">
        <ele>14.0764</ele>
        <time>2013-05-18T17:59:21Z</time>
      </trkpt>
      <trkpt lat="59.8896466" lon="17.8431034">
        <ele>12.6344</ele>
        <time>2013-05-18T17:59:22Z</time>
      </trkpt>
      <trkpt lat="59.8895856" lon="17.8432111">
        <ele>11.6732</ele>
        <time>2013-05-18T17:59:23Z</time>
      </trkpt>
      <trkpt lat="59.8895042" lon="17.8433148">
        <ele>13.1151</ele>
        <time>2013-05-18T17:59:24Z</time>
      </trkpt>
      <trkpt lat="59.8894292" lon="17.8433661">
        <ele>12.6344</ele>
        <time>2013-05-18T17:59:25Z</time>
      </trkpt>
      <trkpt lat="59.8893464" lon="17.8433242">
        <ele>13.1151</ele>
        <time>2013-05-18T17:59:26Z</time>
      </trkpt>
      <trkpt lat="59.8892297" lon="17.8432966">
        <ele>14.557</ele>
        <time>2013-05-18T17:59:27Z</time>
      </trkpt>
      <trkpt lat="59.8891416" lon="17.8432306">
        <ele>15.999</ele>
        <time>2013-05-18T17:59:28Z</time>
      </trkpt>
      <trkpt lat="59.8890551" lon="17.8431731">
        <ele>16.9604</ele>
        <time>2013-05-18T17:59:29Z</time>
      </trkpt>
      <trkpt lat="59.8889634" lon="17.8431055">
        <ele>18.4023</ele>
        <time>2013-05-18T17:59:30Z</time>
      </trkpt>
      <trkpt lat="59.8888871" lon="17.8430356">
        <ele>18.8831</ele>
        <time>2013-05-18T17:59:31Z</time>
      </trkpt>
      <trkpt lat="59.8888008" lon="17.8430195">
        <ele>19.8444</ele>
        <time>2013-05-18T17:59:32Z</time>
      </trkpt>
      <trkpt lat="59.8887144" lon="17.8430195">
        <ele>20.325</ele>
        <time>2013-05-18T17:59:33Z</time>
      </trkpt>
      <trkpt lat="59.88862" lon="17.8430082">
        <ele>21.2864</ele>
        <time>2013-05-18T17:59:34Z</time>
      </trkpt>
      <trkpt lat="59.8885241" lon="17.8429908">
        <ele>22.2476</ele>
        <time>2013-05-18T17:59:35Z</time>
      </trkpt>
      <trkpt lat="59.8884307" lon="17.8429585">
        <ele>23.209</ele>
        <time>2013-05-18T17:59:36Z</time>
      </trkpt>
      <trkpt lat="59.8883418" lon="17.8429232">
        <ele>22.7283</ele>
        <time>2013-05-18T17:59:37Z</time>
      </trkpt>
      <trkpt lat="59.8882511" lon="17.8428719">
        <ele>23.209</ele>
        <time>2013-05-18T17:59:38Z</time>
      </trkpt>
      <trkpt lat="59.8881642" lon="17.8428074">
        <ele>23.209</ele>
        <time>2013-05-18T17:59:39Z</time>
      </trkpt>
      <trkpt lat="59.8880791" lon="17.8427341">
        <ele>22.7283</ele>
        <time>2013-05-18T17:59:40Z</time>
      </trkpt>
      <trkpt lat="59.8879927" lon="17.8426564">
        <ele>22.7283</ele>
        <time>2013-05-18T17:59:41Z</time>
      </trkpt>
      <trkpt lat="59.8879062" lon="17.8425743">
        <ele>22.7283</ele>
        <time>2013-05-18T17:59:42Z</time>
      </trkpt>
      <trkpt lat="59.8878211" lon="17.8424824">
        <ele>23.209</ele>
        <time>2013-05-18T17:59:43Z</time>
      </trkpt>
      <trkpt lat="59.8877388" lon="17.8423811">
        <ele>23.209</ele>
        <time>2013-05-18T17:59:44Z</time>
      </trkpt>
      <trkpt lat="59.8876584" lon="17.842272">
        <ele>23.209</ele>
        <time>2013-05-18T17:59:45Z</time>
      </trkpt>
      <trkpt lat="59.8875804" lon="17.8421568">
        <ele>23.6896</ele>
        <time>2013-05-18T17:59:46Z</time>
      </trkpt>
      <trkpt lat="59.8875078" lon="17.8420373">
        <ele>23.6896</ele>
        <time>2013-05-18T17:59:47Z</time>
      </trkpt>
      <trkpt lat="59.8874429" lon="17.841911">
        <ele>24.1703</ele>
        <time>2013-05-18T17:59:48Z</time>
      </trkpt>
      <trkpt lat="59.887386" lon="17.8417785">
        <ele>24.1703</ele>
        <time>2013-05-18T17:59:49Z</time>
      </trkpt>
      <trkpt lat="59.8873326" lon="17.8416455">
        <ele>23.6896</ele>
        <time>2013-05-18T17:59:50Z</time>
      </trkpt>
      <trkpt lat="59.8872787" lon="17.8415095">
        <ele>23.6896</ele>
        <time>2013-05-18T17:59:51Z</time>
      </trkpt>
      <trkpt lat="59.8872214" lon="17.8413739">
        <ele>23.6896</ele>
        <time>2013-05-18T17:59:52Z</time>
      </trkpt>
      <trkpt lat="59.8871585" lon="17.8412505">
        <ele>23.209</ele>
        <time>2013-05-18T17:59:53Z</time>
      </trkpt>
      <trkpt lat="59.8870845" lon="17.8411436">
        <ele>23.209</ele>
        <time>2013-05-18T17:59:54Z</time>
      </trkpt>
      <trkpt lat="59.8870018" lon="17.8410609">
        <ele>23.209</ele>
        <time>2013-05-18T17:59:55Z</time>
      </trkpt>
      <trkpt lat="59.8869106" lon="17.8410064">
        <ele>23.209</ele>
        <time>2013-05-18T17:59:56Z</time>
      </trkpt>
      <trkpt lat="59.8868141" lon="17.8409846">
        <ele>23.209</ele>
        <time>2013-05-18T17:59:57Z</time>
      </trkpt>
      <trkpt lat="59.8867173" lon="17.8409897">
        <ele>23.209</ele>
        <time>2013-05-18T17:59:58Z</time>
      </trkpt>
      <trkpt lat="59.8866206" lon="17.8410148">
        <ele>23.6896</ele>
        <time>2013-05-18T17:59:59Z</time>
      </trkpt>
      <trkpt lat="59.8865283" lon="17.8410521">
        <ele>23.6896</ele>
        <time>2013-05-18T18:00:00Z</time>
      </trkpt>
      <trkpt lat="59.8864393" lon="17.8411014">
        <ele>23.6896</ele>
        <time>2013-05-18T18:00:01Z</time>
      </trkpt>
      <trkpt lat="59.8863523" lon="17.8411517">
        <ele>23.6896</ele>
        <time>2013-05-18T18:00:02Z</time>
      </trkpt>
      <trkpt lat="59.8862646" lon="17.8411915">
        <ele>23.209</ele>
        <time>2013-05-18T18:00:03Z</time>
      </trkpt>
      <trkpt lat="59.8861753" lon="17.8412287">
        <ele>23.209</ele>
        <time>2013-05-18T18:00:04Z</time>
      </trkpt>
      <trkpt lat="59.8860833" lon="17.841262">
        <ele>23.209</ele>
        <time>2013-05-18T18:00:05Z</time>
      </trkpt>
      <trkpt lat="59.8859891" lon="17.8412899">
        <ele>23.6896</ele>
        <time>2013-05-18T18:00:06Z</time>
      </trkpt>
      <trkpt lat="59.8858989" lon="17.8413147">
        <ele>23.209</ele>
        <time>2013-05-18T18:00:07Z</time>
      </trkpt>
      <trkpt lat="59.8858082" lon="17.8413342">
        <ele>23.209</ele>
        <time>2013-05-18T18:00:08Z</time>
      </trkpt>
      <trkpt lat="59.8857146" lon="17.8413436">
        <ele>23.6896</ele>
        <time>2013-05-18T18:00:09Z</time>
      </trkpt>
      <trkpt lat="59.8856243" lon="17.8413581">
        <ele>23.209</ele>
        <time>2013-05-18T18:00:10Z</time>
      </trkpt>
      <trkpt lat="59.8855348" lon="17.8413707">
        <ele>23.209</ele>
        <time>2013-05-18T18:00:11Z</time>
      </trkpt>
      <trkpt lat="59.8854478" lon="17.8413826">
        <ele>23.209</ele>
        <time>2013-05-18T18:00:12Z</time>
      </trkpt>
      <trkpt lat="59.8853617" lon="17.8413935">
        <ele>22.7283</ele>
        <time>2013-05-18T18:00:13Z</time>
      </trkpt>
      <trkpt lat="59.8852766" lon="17.8414074">
        <ele>22.2476</ele>
        <time>2013-05-18T18:00:14Z</time>
      </trkpt>
      <trkpt lat="59.8851897" lon="17.8414173">
        <ele>22.2476</ele>
        <time>2013-05-18T18:00:15Z</time>
      </trkpt>
      <trkpt lat="59.8851021" lon="17.8414256">
        <ele>21.767</ele>
        <time>2013-05-18T18:00:16Z</time>
      </trkpt>
      <trkpt lat="59.8850124" lon="17.841429">
        <ele>21.2864</ele>
        <time>2013-05-18T18:00:17Z</time>
      </trkpt>
      <trkpt lat="59.8849218" lon="17.8414251">
        <ele>21.2864</ele>
        <time>2013-05-18T18:00:18Z</time>
      </trkpt>
      <trkpt lat="59.8848323" lon="17.84141">
        <ele>21.2864</ele>
        <time>2013-05-18T18:00:19Z</time>
      </trkpt>
      <trkpt lat="59.8847438" lon="17.8413806">
        <ele>21.2864</ele>
        <time>2013-05-18T18:00:20Z</time>
      </trkpt>
      <trkpt lat="59.8846575" lon="17.84134">
        <ele>21.2864</ele>
        <time>2013-05-18T18:00:21Z</time>
      </trkpt>
      <trkpt lat="59.8845723" lon="17.8412903">
        <ele>21.2864</ele>
        <time>2013-05-18T18:00:22Z</time>
      </trkpt>
      <trkpt lat="59.8844905" lon="17.8412308">
        <ele>21.2864</ele>
        <time>2013-05-18T18:00:23Z</time>
      </trkpt>
      <trkpt lat="59.884411" lon="17.8411619">
        <ele>21.767</ele>
        <time>2013-05-18T18:00:24Z</time>
      </trkpt>
      <trkpt lat="59.8843329" lon="17.8410874">
        <ele>21.767</ele>
        <time>2013-05-18T18:00:25Z</time>
      </trkpt>
      <trkpt lat="59.8842562" lon="17.8410056">
        <ele>21.767</ele>
        <time>2013-05-18T18:00:26Z</time>
      </trkpt>
      <trkpt lat="59.884182" lon="17.8409183">
        <ele>22.2476</ele>
        <time>2013-05-18T18:00:27Z</time>
      </trkpt>
      <trkpt lat="59.8841086" lon="17.8408264">
        <ele>22.2476</ele>
        <time>2013-05-18T18:00:28Z</time>
      </trkpt>
      <trkpt lat="59.8840356" lon="17.8407321">
        <ele>22.7283</ele>
        <time>2013-05-18T18:00:29Z</time>
      </trkpt>
      <trkpt lat="59.8839644" lon="17.8406362">
        <ele>22.7283</ele>
        <time>2013-05-18T18:00:30Z</time>
      </trkpt>
      <trkpt lat="59.8838938" lon="17.8405397">
        <ele>22.7283</ele>
        <time>2013-05-18T18:00:31Z</time>
      </trkpt>
      <trkpt lat="59.8838244" lon="17.840445">
        <ele>23.209</ele>
        <time>2013-05-18T18:00:32Z</time>
      </trkpt>
      <trkpt lat="59.8837575" lon="17.8403501">
        <ele>23.6896</ele>
        <time>2013-05-18T18:00:33Z</time>
      </trkpt>
      <trkpt lat="59.8836895" lon="17.8402574">
        <ele>23.6896</ele>
        <time>2013-05-18T18:00:34Z</time>
      </trkpt>
      <trkpt lat="59.8836207" lon="17.8401659">
        <ele>24.1703</ele>
        <time>2013-05-18T18:00:35Z</time>
      </trkpt>
      <trkpt lat="59.8835559" lon="17.8400761">
        <ele>24.651</ele>
        <time>2013-05-18T18:00:36Z</time>
      </trkpt>
      <trkpt lat="59.8834892" lon="17.839986">
        <ele>25.1317</ele>
        <time>2013-05-18T18:00:37Z</time>
      </trkpt>
      <trkpt lat="59.8834231" lon="17.8398969">
        <ele>25.1317</ele>
        <time>2013-05-18T18:00:38Z</time>
      </trkpt>
      <trkpt lat="59.8833575" lon="17.8398063">
        <ele>25.1317</ele>
        <time>2013-05-18T18:00:39Z</time>
      </trkpt>
      <trkpt lat="59.8832943" lon="17.8397177">
        <ele>25.1317</ele>
        <time>2013-05-18T18:00:40Z</time>
      </trkpt>
      <trkpt lat="59.8832328" lon="17.8396323">
        <ele>24.651</ele>
        <time>2013-05-18T18:00:41Z</time>
      </trkpt>
      <trkpt lat="59.8831731" lon="17.8395509">
        <ele>24.651</ele>
        <time>2013-05-18T18:00:42Z</time>
      </trkpt>
      <trkpt lat="59.8831172" lon="17.8394715">
        <ele>24.651</ele>
        <time>2013-05-18T18:00:43Z</time>
      </trkpt>
      <trkpt lat="59.8830642" lon="17.839394">
        <ele>24.651</ele>
        <time>2013-05-18T18:00:44Z</time>
      </trkpt>
      <trkpt lat="59.8830116" lon="17.839313">
        <ele>24.651</ele>
        <time>2013-05-18T18:00:45Z</time>
      </trkpt>
      <trkpt lat="59.882959" lon="17.8392365">
        <ele>24.1703</ele>
        <time>2013-05-18T18:00:46Z</time>
      </trkpt>
      <trkpt lat="59.8829046" lon="17.839169">
        <ele>24.651</ele>
        <time>2013-05-18T18:00:47Z</time>
      </trkpt>
      <trkpt lat="59.8828469" lon="17.8391141">
        <ele>24.651</ele>
        <time>2013-05-18T18:00:48Z</time>
      </trkpt>
      <trkpt lat="59.8827887" lon="17.8390707">
        <ele>24.651</ele>
        <time>2013-05-18T18:00:49Z</time>
      </trkpt>
      <trkpt lat="59.8827291" lon="17.8390342">
        <ele>24.651</ele>
        <time>2013-05-18T18:00:50Z</time>
      </trkpt>
      <trkpt lat="59.8826674" lon="17.8389988">
        <ele>24.651</ele>
        <time>2013-05-18T18:00:51Z</time>
      </trkpt>
      <trkpt lat="59.8826027" lon="17.8389698">
        <ele>24.1703</ele>
        <time>2013-05-18T18:00:52Z</time>
      </trkpt>
      <trkpt lat="59.8825312" lon="17.8389454">
        <ele>23.6896</ele>
        <time>2013-05-18T18:00:53Z</time>
      </trkpt>
      <trkpt lat="59.8824524" lon="17.8389209">
        <ele>23.6896</ele>
        <time>2013-05-18T18:00:54Z</time>
      </trkpt>
      <trkpt lat="59.8823711" lon="17.8388951">
        <ele>22.7283</ele>
        <time>2013-05-18T18:00:55Z</time>
      </trkpt>
      <trkpt lat="59.8822853" lon="17.8388614">
        <ele>22.2476</ele>
        <time>2013-05-18T18:00:56Z</time>
      </trkpt>
      <trkpt lat="59.8821973" lon="17.8388131">
        <ele>21.767</ele>
        <time>2013-05-18T18:00:57Z</time>
      </trkpt>
      <trkpt lat="59.8821081" lon="17.8387502">
        <ele>21.767</ele>
        <time>2013-05-18T18:00:58Z</time>
      </trkpt>
      <trkpt lat="59.8820215" lon="17.838667">
        <ele>22.2476</ele>
        <time>2013-05-18T18:00:59Z</time>
      </trkpt>
      <trkpt lat="59.8819414" lon="17.8385676">
        <ele>21.767</ele>
        <time>2013-05-18T18:01:00Z</time>
      </trkpt>
      <trkpt lat="59.881868" lon="17.8384534">
        <ele>21.767</ele>
        <time>2013-05-18T18:01:01Z</time>
      </trkpt>
      <trkpt lat="59.8817912" lon="17.8383305">
        <ele>21.767</ele>
        <time>2013-05-18T18:01:02Z</time>
      </trkpt>
      <trkpt lat="59.8817154" lon="17.8382082">
        <ele>22.2476</ele>
        <time>2013-05-18T18:01:03Z</time>
      </trkpt>
      <trkpt lat="59.8816414" lon="17.8380876">
        <ele>22.2476</ele>
        <time>2013-05-18T18:01:04Z</time>
      </trkpt>
      <trkpt lat="59.8815656" lon="17.8379669">
        <ele>22.2476</ele>
        <time>2013-05-18T18:01:05Z</time>
      </trkpt>
      <trkpt lat="59.8814909" lon="17.8378535">
        <ele>22.2476</ele>
        <time>2013-05-18T18:01:06Z</time>
      </trkpt>
      <trkpt lat="59.881416" lon="17.8377431">
        <ele>21.767</ele>
        <time>2013-05-18T18:01:07Z</time>
      </trkpt>
      <trkpt lat="59.8813384" lon="17.8376364">
        <ele>21.2864</ele>
        <time>2013-05-18T18:01:08Z</time>
      </trkpt>
      <trkpt lat="59.8812601" lon="17.8375326">
        <ele>21.2864</ele>
        <time>2013-05-18T18:01:09Z</time>
      </trkpt>
      <trkpt lat="59.8811815" lon="17.8374277">
        <ele>21.767</ele>
        <time>2013-05-18T18:01:10Z</time>
      </trkpt>
      <trkpt lat="59.8811061" lon="17.8373174">
        <ele>22.2476</ele>
        <time>2013-05-18T18:01:11Z</time>
      </trkpt>
      <trkpt lat="59.8810239" lon="17.8371945">
        <ele>24.1703</ele>
        <time>2013-05-18T18:01:12Z</time>
      </trkpt>
      <trkpt lat="59.8809385" lon="17.8370702">
        <ele>27.0543</ele>
        <time>2013-05-18T18:01:13Z</time>
      </trkpt>
      <trkpt lat="59.8808694" lon="17.8369586">
        <ele>27.5349</ele>
        <time>2013-05-18T18:01:14Z</time>
      </trkpt>
      <trkpt lat="59.8808011" lon="17.836849">
        <ele>28.4962</ele>
        <time>2013-05-18T18:01:15Z</time>
      </trkpt>
      <trkpt lat="59.8807333" lon="17.8367401">
        <ele>28.4962</ele>
        <time>2013-05-18T18:01:16Z</time>
      </trkpt>
      <trkpt lat="59.8806608" lon="17.8366319">
        <ele>28.9769</ele>
        <time>2013-05-18T18:01:17Z</time>
      </trkpt>
      <trkpt lat="59.8805882" lon="17.8365242">
        <ele>28.9769</ele>
        <time>2013-05-18T18:01:18Z</time>
      </trkpt>
      <trkpt lat="59.8805126" lon="17.836419">
        <ele>29.4575</ele>
        <time>2013-05-18T18:01:19Z</time>
      </trkpt>
      <trkpt lat="59.8804371" lon="17.8363196">
        <ele>29.4575</ele>
        <time>2013-05-18T18:01:20Z</time>
      </trkpt>
      <trkpt lat="59.8803591" lon="17.8362261">
        <ele>29.9381</ele>
        <time>2013-05-18T18:01:21Z</time>
      </trkpt>
      <trkpt lat="59.8802807" lon="17.8361375">
        <ele>29.9381</ele>
        <time>2013-05-18T18:01:22Z</time>
      </trkpt>
      <trkpt lat="59.8802034" lon="17.8360522">
        <ele>29.9381</ele>
        <time>2013-05-18T18:01:23Z</time>
      </trkpt>
      <trkpt lat="59.8801256" lon="17.8359723">
        <ele>30.4188</ele>
        <time>2013-05-18T18:01:24Z</time>
      </trkpt>
      <trkpt lat="59.880048" lon="17.8358972">
        <ele>30.4188</ele>
        <time>2013-05-18T18:01:25Z</time>
      </trkpt>
      <trkpt lat="59.8799708" lon="17.8358306">
        <ele>30.8995</ele>
        <time>2013-05-18T18:01:26Z</time>
      </trkpt>
      <trkpt lat="59.8798956" lon="17.8357815">
        <ele>30.8995</ele>
        <time>2013-05-18T18:01:27Z</time>
      </trkpt>
      <trkpt lat="59.8798116" lon="17.835747">
        <ele>31.3801</ele>
        <time>2013-05-18T18:01:28Z</time>
      </trkpt>
      <trkpt lat="59.8797302" lon="17.8357363">
        <ele>30.4188</ele>
        <time>2013-05-18T18:01:29Z</time>
      </trkpt>
      <trkpt lat="59.8796418" lon="17.8357243">
        <ele>29.4575</ele>
        <time>2013-05-18T18:01:30Z</time>
      </trkpt>
      <trkpt lat="59.8795502" lon="17.8357169">
        <ele>28.4962</ele>
        <time>2013-05-18T18:01:31Z</time>
      </trkpt>
      <trkpt lat="59.879458" lon="17.8357148">
        <ele>27.5349</ele>
        <time>2013-05-18T18:01:32Z</time>
      </trkpt>
      <trkpt lat="59.8793632" lon="17.835711">
        <ele>26.0929</ele>
        <time>2013-05-18T18:01:33Z</time>
      </trkpt>
      <trkpt lat="59.8792694" lon="17.8357069">
        <ele>25.6123</ele>
        <time>2013-05-18T18:01:34Z</time>
      </trkpt>
      <trkpt lat="59.8791772" lon="17.835703">
        <ele>25.1317</ele>
        <time>2013-05-18T18:01:35Z</time>
      </trkpt>
      <trkpt lat="59.8790876" lon="17.8356937">
        <ele>25.1317</ele>
        <time>2013-05-18T18:01:36Z</time>
      </trkpt>
      <trkpt lat="59.8790035" lon="17.8356721">
        <ele>24.651</ele>
        <time>2013-05-18T18:01:37Z</time>
      </trkpt>
      <trkpt lat="59.8789199" lon="17.835642">
        <ele>24.1703</ele>
        <time>2013-05-18T18:01:38Z</time>
      </trkpt>
      <trkpt lat="59.8788385" lon="17.8356061">
        <ele>23.6896</ele>
        <time>2013-05-18T18:01:39Z</time>
      </trkpt>
      <trkpt lat="59.8787525" lon="17.8355688">
        <ele>22.7283</ele>
        <time>2013-05-18T18:01:40Z</time>
      </trkpt>
      <trkpt lat="59.8786657" lon="17.8355223">
        <ele>22.2476</ele>
        <time>2013-05-18T18:01:41Z</time>
      </trkpt>
      <trkpt lat="59.8785811" lon="17.8354685">
        <ele>21.2864</ele>
        <time>2013-05-18T18:01:42Z</time>
      </trkpt>
      <trkpt lat="59.8784964" lon="17.8354014">
        <ele>21.2864</ele>
        <time>2013-05-18T18:01:43Z</time>
      </trkpt>
      <trkpt lat="59.87841" lon="17.8353332">
        <ele>20.325</ele>
        <time>2013-05-18T18:01:44Z</time>
      </trkpt>
      <trkpt lat="59.8783251" lon="17.8352608">
        <ele>20.325</ele>
        <time>2013-05-18T18:01:45Z</time>
      </trkpt>
      <trkpt lat="59.8782406" lon="17.8351888">
        <ele>19.8444</ele>
        <time>2013-05-18T18:01:46Z</time>
      </trkpt>
      <trkpt lat="59.8781599" lon="17.8351131">
        <ele>19.8444</ele>
        <time>2013-05-18T18:01:47Z</time>
      </trkpt>
      <trkpt lat="59.8780841" lon="17.8350365">
        <ele>19.3638</ele>
        <time>2013-05-18T18:01:48Z</time>
      </trkpt>
      <trkpt lat="59.8780102" lon="17.8349606">
        <ele>19.3638</ele>
        <time>2013-05-18T18:01:49Z</time>
      </trkpt>
      <trkpt lat="59.8779417" lon="17.8348821">
        <ele>19.3638</ele>
        <time>2013-05-18T18:01:50Z</time>
      </trkpt>
      <trkpt lat="59.8778765" lon="17.8347988">
        <ele>19.3638</ele>
        <time>2013-05-18T18:01:51Z</time>
      </trkpt>
      <trkpt lat="59.8778059" lon="17.8347164">
        <ele>19.3638</ele>
        <time>2013-05-18T18:01:52Z</time>
      </trkpt>
      <trkpt lat="59.8777336" lon="17.8346332">
        <ele>19.3638</ele>
        <time>2013-05-18T18:01:53Z</time>
      </trkpt>
      <trkpt lat="59.8776632" lon="17.8345469">
        <ele>19.3638</ele>
        <time>2013-05-18T18:01:54Z</time>
      </trkpt>
      <trkpt lat="59.8775851" lon="17.8344608">
        <ele>19.8444</ele>
        <time>2013-05-18T18:01:55Z</time>
      </trkpt>
      <trkpt lat="59.8775064" lon="17.8343697">
        <ele>19.8444</ele>
        <time>2013-05-18T18:01:56Z</time>
      </trkpt>
      <trkpt lat="59.8774407" lon="17.8342683">
        <ele>20.325</ele>
        <time>2013-05-18T18:01:57Z</time>
      </trkpt>
      <trkpt lat="59.8773828" lon="17.8341719">
        <ele>20.325</ele>
        <time>2013-05-18T18:01:58Z</time>
      </trkpt>
      <trkpt lat="59.8773244" lon="17.8340838">
        <ele>19.8444</ele>
        <time>2013-05-18T18:01:59Z</time>
      </trkpt>
      <trkpt lat="59.8772425" lon="17.8339717">
        <ele>20.8057</ele>
        <time>2013-05-18T18:02:00Z</time>
      </trkpt>
      <trkpt lat="59.8771668" lon="17.8338859">
        <ele>20.8057</ele>
        <time>2013-05-18T18:02:01Z</time>
      </trkpt>
      <trkpt lat="59.8770958" lon="17.8338036">
        <ele>20.8057</ele>
        <time>2013-05-18T18:02:02Z</time>
      </trkpt>
      <trkpt lat="59.8770267" lon="17.8337239">
        <ele>20.8057</ele>
        <time>2013-05-18T18:02:03Z</time>
      </trkpt>
      <trkpt lat="59.8769543" lon="17.8336615">
        <ele>21.2864</ele>
        <time>2013-05-18T18:02:04Z</time>
      </trkpt>
      <trkpt lat="59.876884" lon="17.8336052">
        <ele>21.2864</ele>
        <time>2013-05-18T18:02:05Z</time>
      </trkpt>
      <trkpt lat="59.8768067" lon="17.8335565">
        <ele>21.2864</ele>
        <time>2013-05-18T18:02:06Z</time>
      </trkpt>
      <trkpt lat="59.8767351" lon="17.8335102">
        <ele>21.2864</ele>
        <time>2013-05-18T18:02:07Z</time>
      </trkpt>
      <trkpt lat="59.8766669" lon="17.8334649">
        <ele>21.767</ele>
        <time>2013-05-18T18:02:08Z</time>
      </trkpt>
      <trkpt lat="59.8765975" lon="17.8334197">
        <ele>22.2476</ele>
        <time>2013-05-18T18:02:09Z</time>
      </trkpt>
      <trkpt lat="59.876526" lon="17.8333742">
        <ele>22.7283</ele>
        <time>2013-05-18T18:02:10Z</time>
      </trkpt>
      <trkpt lat="59.8764447" lon="17.833332">
        <ele>22.7283</ele>
        <time>2013-05-18T18:02:11Z</time>
      </trkpt>
      <trkpt lat="59.8763642" lon="17.8332887">
        <ele>22.2476</ele>
        <time>2013-05-18T18:02:12Z</time>
      </trkpt>
      <trkpt lat="59.8762851" lon="17.83324">
        <ele>22.2476</ele>
        <time>2013-05-18T18:02:13Z</time>
      </trkpt>
      <trkpt lat="59.8761977" lon="17.8331959">
        <ele>21.2864</ele>
        <time>2013-05-18T18:02:14Z</time>
      </trkpt>
      <trkpt lat="59.8761146" lon="17.833129">
        <ele>21.2864</ele>
        <time>2013-05-18T18:02:15Z</time>
      </trkpt>
      <trkpt lat="59.8760391" lon="17.8330816">
        <ele>20.325</ele>
        <time>2013-05-18T18:02:16Z</time>
      </trkpt>
      <trkpt lat="59.8759586" lon="17.8330147">
        <ele>20.325</ele>
        <time>2013-05-18T18:02:17Z</time>
      </trkpt>
      <trkpt lat="59.8758811" lon="17.832952">
        <ele>20.325</ele>
        <time>2013-05-18T18:02:18Z</time>
      </trkpt>
      <trkpt lat="59.8758025" lon="17.8328762">
        <ele>20.325</ele>
        <time>2013-05-18T18:02:19Z</time>
      </trkpt>
      <trkpt lat="59.8757299" lon="17.832794">
        <ele>20.325</ele>
        <time>2013-05-18T18:02:20Z</time>
      </trkpt>
      <trkpt lat="59.8756597" lon="17.8327116">
        <ele>20.325</ele>
        <time>2013-05-18T18:02:21Z</time>
      </trkpt>
      <trkpt lat="59.8755905" lon="17.8326332">
        <ele>20.325</ele>
        <time>2013-05-18T18:02:22Z</time>
      </trkpt>
      <trkpt lat="59.8755221" lon="17.8325665">
        <ele>20.325</ele>
        <time>2013-05-18T18:02:23Z</time>
      </trkpt>
      <trkpt lat="59.8754511" lon="17.8325061">
        <ele>20.8057</ele>
        <time>2013-05-18T18:02:24Z</time>
      </trkpt>
      <trkpt lat="59.8753761" lon="17.8324532">
        <ele>20.8057</ele>
        <time>2013-05-18T18:02:25Z</time>
      </trkpt>
      <trkpt lat="59.8752966" lon="17.83241">
        <ele>20.8057</ele>
        <time>2013-05-18T18:02:26Z</time>
      </trkpt>
      <trkpt lat="59.8752134" lon="17.8323749">
        <ele>20.8057</ele>
        <time>2013-05-18T18:02:27Z</time>
      </trkpt>
      <trkpt lat="59.8751277" lon="17.8323475">
        <ele>20.8057</ele>
        <time>2013-05-18T18:02:28Z</time>
      </trkpt>
      <trkpt lat="59.8750412" lon="17.8323222">
        <ele>21.2864</ele>
        <time>2013-05-18T18:02:29Z</time>
      </trkpt>
      <trkpt lat="59.8749559" lon="17.8322998">
        <ele>20.8057</ele>
        <time>2013-05-18T18:02:30Z</time>
      </trkpt>
      <trkpt lat="59.8748728" lon="17.8322823">
        <ele>20.325</ele>
        <time>2013-05-18T18:02:31Z</time>
      </trkpt>
      <trkpt lat="59.8747865" lon="17.8322618">
        <ele>20.325</ele>
        <time>2013-05-18T18:02:32Z</time>
      </trkpt>
      <trkpt lat="59.8747009" lon="17.8322374">
        <ele>20.325</ele>
        <time>2013-05-18T18:02:33Z</time>
      </trkpt>
      <trkpt lat="59.8746177" lon="17.8322167">
        <ele>20.325</ele>
        <time>2013-05-18T18:02:34Z</time>
      </trkpt>
      <trkpt lat="59.87454" lon="17.8322028">
        <ele>20.325</ele>
        <time>2013-05-18T18:02:35Z</time>
      </trkpt>
      <trkpt lat="59.8744669" lon="17.8321739">
        <ele>20.325</ele>
        <time>2013-05-18T18:02:36Z</time>
      </trkpt>
      <trkpt lat="59.8743933" lon="17.8321364">
        <ele>20.8057</ele>
        <time>2013-05-18T18:02:37Z</time>
      </trkpt>
      <trkpt lat="59.8743267" lon="17.8320853">
        <ele>20.8057</ele>
        <time>2013-05-18T18:02:38Z</time>
      </trkpt>
      <trkpt lat="59.8742627" lon="17.8320258">
        <ele>20.325</ele>
        <time>2013-05-18T18:02:39Z</time>
      </trkpt>
      <trkpt lat="59.8742002" lon="17.83196">
        <ele>20.325</ele>
        <time>2013-05-18T18:02:40Z</time>
      </trkpt>
      <trkpt lat="59.8741349" lon="17.8318847">
        <ele>20.8057</ele>
        <time>2013-05-18T18:02:41Z</time>
      </trkpt>
      <trkpt lat="59.8740756" lon="17.831803">
        <ele>20.325</ele>
        <time>2013-05-18T18:02:42Z</time>
      </trkpt>
      <trkpt lat="59.8740116" lon="17.8317159">
        <ele>20.8057</ele>
        <time>2013-05-18T18:02:43Z</time>
      </trkpt>
      <trkpt lat="59.8739474" lon="17.8316284">
        <ele>21.2864</ele>
        <time>2013-05-18T18:02:44Z</time>
      </trkpt>
      <trkpt lat="59.8738803" lon="17.8315384">
        <ele>21.767</ele>
        <time>2013-05-18T18:02:45Z</time>
      </trkpt>
      <trkpt lat="59.8738123" lon="17.8314539">
        <ele>21.2864</ele>
        <time>2013-05-18T18:02:46Z</time>
      </trkpt>
      <trkpt lat="59.8737448" lon="17.8313669">
        <ele>21.2864</ele>
        <time>2013-05-18T18:02:47Z</time>
      </trkpt>
      <trkpt lat="59.8736745" lon="17.8312787">
        <ele>20.8057</ele>
        <time>2013-05-18T18:02:48Z</time>
      </trkpt>
      <trkpt lat="59.8735981" lon="17.83119">
        <ele>20.8057</ele>
        <time>2013-05-18T18:02:49Z</time>
      </trkpt>
      <trkpt lat="59.8735194" lon="17.831102">
        <ele>20.8057</ele>
        <time>2013-05-18T18:02:50Z</time>
      </trkpt>
      <trkpt lat="59.8734388" lon="17.8310173">
        <ele>20.325</ele>
        <time>2013-05-18T18:02:51Z</time>
      </trkpt>
      <trkpt lat="59.8733558" lon="17.830941">
        <ele>20.325</ele>
        <time>2013-05-18T18:02:52Z</time>
      </trkpt>
      <trkpt lat="59.8732667" lon="17.8308722">
        <ele>20.325</ele>
        <time>2013-05-18T18:02:53Z</time>
      </trkpt>
      <trkpt lat="59.8731766" lon="17.8308062">
        <ele>20.325</ele>
        <time>2013-05-18T18:02:54Z</time>
      </trkpt>
      <trkpt lat="59.8730874" lon="17.8307405">
        <ele>20.325</ele>
        <time>2013-05-18T18:02:55Z</time>
      </trkpt>
      <trkpt lat="59.8729976" lon="17.8306795">
        <ele>20.325</ele>
        <time>2013-05-18T18:02:56Z</time>
      </trkpt>
      <trkpt lat="59.8729056" lon="17.8306282">
        <ele>20.325</ele>
        <time>2013-05-18T18:02:57Z</time>
      </trkpt>
      <trkpt lat="59.8728145" lon="17.830583">
        <ele>20.325</ele>
        <time>2013-05-18T18:02:58Z</time>
      </trkpt>
      <trkpt lat="59.8727221" lon="17.8305432">
        <ele>19.8444</ele>
        <time>2013-05-18T18:02:59Z</time>
      </trkpt>
      <trkpt lat="59.872628" lon="17.8305047">
        <ele>18.8831</ele>
        <time>2013-05-18T18:03:00Z</time>
      </trkpt>
      <trkpt lat="59.8725326" lon="17.8304581">
        <ele>18.8831</ele>
        <time>2013-05-18T18:03:01Z</time>
      </trkpt>
      <trkpt lat="59.8724369" lon="17.8303991">
        <ele>18.4023</ele>
        <time>2013-05-18T18:03:02Z</time>
      </trkpt>
      <trkpt lat="59.872343" lon="17.8303272">
        <ele>17.9218</ele>
        <time>2013-05-18T18:03:03Z</time>
      </trkpt>
      <trkpt lat="59.8722498" lon="17.830246">
        <ele>17.4412</ele>
        <time>2013-05-18T18:03:04Z</time>
      </trkpt>
      <trkpt lat="59.8721574" lon="17.8301598">
        <ele>16.9604</ele>
        <time>2013-05-18T18:03:05Z</time>
      </trkpt>
      <trkpt lat="59.8720649" lon="17.8300708">
        <ele>15.999</ele>
        <time>2013-05-18T18:03:06Z</time>
      </trkpt>
      <trkpt lat="59.8719697" lon="17.8299802">
        <ele>15.999</ele>
        <time>2013-05-18T18:03:07Z</time>
      </trkpt>
      <trkpt lat="59.871873" lon="17.8298909">
        <ele>15.999</ele>
        <time>2013-05-18T18:03:08Z</time>
      </trkpt>
      <trkpt lat="59.8717733" lon="17.8298034">
        <ele>15.5184</ele>
        <time>2013-05-18T18:03:09Z</time>
      </trkpt>
      <trkpt lat="59.8716724" lon="17.8297123">
        <ele>15.5184</ele>
        <time>2013-05-18T18:03:10Z</time>
      </trkpt>
      <trkpt lat="59.8715717" lon="17.8296163">
        <ele>15.0377</ele>
        <time>2013-05-18T18:03:11Z</time>
      </trkpt>
      <trkpt lat="59.8714702" lon="17.8295195">
        <ele>15.0377</ele>
        <time>2013-05-18T18:03:12Z</time>
      </trkpt>
      <trkpt lat="59.8713675" lon="17.8294189">
        <ele>15.0377</ele>
        <time>2013-05-18T18:03:13Z</time>
      </trkpt>
      <trkpt lat="59.8712641" lon="17.8293195">
        <ele>15.0377</ele>
        <time>2013-05-18T18:03:14Z</time>
      </trkpt>
      <trkpt lat="59.8711603" lon="17.8292223">
        <ele>15.0377</ele>
        <time>2013-05-18T18:03:15Z</time>
      </trkpt>
      <trkpt lat="59.8710565" lon="17.8291238">
        <ele>15.0377</ele>
        <time>2013-05-18T18:03:16Z</time>
      </trkpt>
      <trkpt lat="59.8709526" lon="17.8290255">
        <ele>15.0377</ele>
        <time>2013-05-18T18:03:17Z</time>
      </trkpt>
      <trkpt lat="59.8708487" lon="17.8289265">
        <ele>15.0377</ele>
        <time>2013-05-18T18:03:18Z</time>
      </trkpt>
      <trkpt lat="59.8707461" lon="17.8288258">
        <ele>15.5184</ele>
        <time>2013-05-18T18:03:19Z</time>
      </trkpt>
      <trkpt lat="59.8706445" lon="17.8287244">
        <ele>15.5184</ele>
        <time>2013-05-18T18:03:20Z</time>
      </trkpt>
      <trkpt lat="59.8705443" lon="17.8286255">
        <ele>15.5184</ele>
        <time>2013-05-18T18:03:21Z</time>
      </trkpt>
      <trkpt lat="59.8704465" lon="17.8285297">
        <ele>15.5184</ele>
        <time>2013-05-18T18:03:22Z</time>
      </trkpt>
      <trkpt lat="59.8703511" lon="17.828437">
        <ele>15.999</ele>
        <time>2013-05-18T18:03:23Z</time>
      </trkpt>
      <trkpt lat="59.8702581" lon="17.8283484">
        <ele>15.999</ele>
        <time>2013-05-18T18:03:24Z</time>
      </trkpt>
      <trkpt lat="59.8701688" lon="17.8282615">
        <ele>16.4797</ele>
        <time>2013-05-18T18:03:25Z</time>
      </trkpt>
      <trkpt lat="59.8700826" lon="17.8281749">
        <ele>16.4797</ele>
        <time>2013-05-18T18:03:26Z</time>
      </trkpt>
      <trkpt lat="59.8699986" lon="17.8280882">
        <ele>16.9604</ele>
        <time>2013-05-18T18:03:27Z</time>
      </trkpt>
      <trkpt lat="59.8699183" lon="17.8279983">
        <ele>17.4412</ele>
        <time>2013-05-18T18:03:28Z</time>
      </trkpt>
      <trkpt lat="59.8698417" lon="17.8279049">
        <ele>17.9218</ele>
        <time>2013-05-18T18:03:29Z</time>
      </trkpt>
      <trkpt lat="59.8697687" lon="17.8278087">
        <ele>18.4023</ele>
        <time>2013-05-18T18:03:30Z</time>
      </trkpt>
      <trkpt lat="59.8696997" lon="17.8277093">
        <ele>18.8831</ele>
        <time>2013-05-18T18:03:31Z</time>
      </trkpt>
      <trkpt lat="59.8696344" lon="17.8276078">
        <ele>19.3638</ele>
        <time>2013-05-18T18:03:32Z</time>
      </trkpt>
      <trkpt lat="59.8695729" lon="17.8275057">
        <ele>19.3638</ele>
        <time>2013-05-18T18:03:33Z</time>
      </trkpt>
      <trkpt lat="59.8695154" lon="17.8274037">
        <ele>19.8444</ele>
        <time>2013-05-18T18:03:34Z</time>
      </trkpt>
      <trkpt lat="59.8694594" lon="17.8273042">
        <ele>19.8444</ele>
        <time>2013-05-18T18:03:35Z</time>
      </trkpt>
      <trkpt lat="59.8694042" lon="17.8272031">
        <ele>19.8444</ele>
        <time>2013-05-18T18:03:36Z</time>
      </trkpt>
      <trkpt lat="59.8693469" lon="17.8271067">
        <ele>19.8444</ele>
        <time>2013-05-18T18:03:37Z</time>
      </trkpt>
      <trkpt lat="59.8692895" lon="17.827011">
        <ele>19.8444</ele>
        <time>2013-05-18T18:03:38Z</time>
      </trkpt>
      <trkpt lat="59.8692324" lon="17.8269154">
        <ele>19.8444</ele>
        <time>2013-05-18T18:03:39Z</time>
      </trkpt>
      <trkpt lat="59.8691755" lon="17.8268194">
        <ele>19.8444</ele>
        <time>2013-05-18T18:03:40Z</time>
      </trkpt>
      <trkpt lat="59.86912" lon="17.8267222">
        <ele>19.8444</ele>
        <time>2013-05-18T18:03:41Z</time>
      </trkpt>
      <trkpt lat="59.8690655" lon="17.8266249">
        <ele>19.8444</ele>
        <time>2013-05-18T18:03:42Z</time>
      </trkpt>
      <trkpt lat="59.8690112" lon="17.8265274">
        <ele>19.8444</ele>
        <time>2013-05-18T18:03:43Z</time>
      </trkpt>
      <trkpt lat="59.8689589" lon="17.8264306">
        <ele>19.8444</ele>
        <time>2013-05-18T18:03:44Z</time>
      </trkpt>
      <trkpt lat="59.8689081" lon="17.8263343">
        <ele>20.325</ele>
        <time>2013-05-18T18:03:45Z</time>
      </trkpt>
      <trkpt lat="59.868856" lon="17.8262387">
        <ele>20.325</ele>
        <time>2013-05-18T18:03:46Z</time>
      </trkpt>
      <trkpt lat="59.8688055" lon="17.826146">
        <ele>20.325</ele>
        <time>2013-05-18T18:03:47Z</time>
      </trkpt>
      <trkpt lat="59.8687567" lon="17.8260542">
        <ele>20.325</ele>
        <time>2013-05-18T18:03:48Z</time>
      </trkpt>
      <trkpt lat="59.8687087" lon="17.8259641">
        <ele>20.325</ele>
        <time>2013-05-18T18:03:49Z</time>
      </trkpt>
      <trkpt lat="59.868662" lon="17.8258785">
        <ele>20.325</ele>
        <time>2013-05-18T18:03:50Z</time>
      </trkpt>
      <trkpt lat="59.8686134" lon="17.8257991">
        <ele>20.325</ele>
        <time>2013-05-18T18:03:51Z</time>
      </trkpt>
      <trkpt lat="59.8685635" lon="17.8257232">
        <ele>20.325</ele>
        <time>2013-05-18T18:03:52Z</time>
      </trkpt>
      <trkpt lat="59.8685102" lon="17.8256516">
        <ele>20.325</ele>
        <time>2013-05-18T18:03:53Z</time>
      </trkpt>
      <trkpt lat="59.8684518" lon="17.8255899">
        <ele>19.8444</ele>
        <time>2013-05-18T18:03:54Z</time>
      </trkpt>
      <trkpt lat="59.868389" lon="17.8255396">
        <ele>18.8831</ele>
        <time>2013-05-18T18:03:55Z</time>
      </trkpt>
      <trkpt lat="59.8683224" lon="17.8255071">
        <ele>18.4023</ele>
        <time>2013-05-18T18:03:56Z</time>
      </trkpt>
      <trkpt lat="59.8682544" lon="17.8254935">
        <ele>17.4412</ele>
        <time>2013-05-18T18:03:57Z</time>
      </trkpt>
      <trkpt lat="59.868184" lon="17.8254992">
        <ele>16.4797</ele>
        <time>2013-05-18T18:03:58Z</time>
      </trkpt>
      <trkpt lat="59.8681115" lon="17.825517">
        <ele>15.999</ele>
        <time>2013-05-18T18:03:59Z</time>
      </trkpt>
      <trkpt lat="59.8680395" lon="17.8255507">
        <ele>15.999</ele>
        <time>2013-05-18T18:04:00Z</time>
      </trkpt>
      <trkpt lat="59.8679668" lon="17.8255953">
        <ele>15.999</ele>
        <time>2013-05-18T18:04:01Z</time>
      </trkpt>
      <trkpt lat="59.8678897" lon="17.8256445">
        <ele>15.5184</ele>
        <time>2013-05-18T18:04:02Z</time>
      </trkpt>
      <trkpt lat="59.8678106" lon="17.8256963">
        <ele>15.0377</ele>
        <time>2013-05-18T18:04:03Z</time>
      </trkpt>
      <trkpt lat="59.8677291" lon="17.8257531">
        <ele>15.0377</ele>
        <time>2013-05-18T18:04:04Z</time>
      </trkpt>
      <trkpt lat="59.8676457" lon="17.8258134">
        <ele>15.0377</ele>
        <time>2013-05-18T18:04:05Z</time>
      </trkpt>
      <trkpt lat="59.8675599" lon="17.8258744">
        <ele>14.557</ele>
        <time>2013-05-18T18:04:06Z</time>
      </trkpt>
      <trkpt lat="59.8674718" lon="17.8259386">
        <ele>14.557</ele>
        <time>2013-05-18T18:04:07Z</time>
      </trkpt>
      <trkpt lat="59.8673826" lon="17.8260073">
        <ele>14.0764</ele>
        <time>2013-05-18T18:04:08Z</time>
      </trkpt>
      <trkpt lat="59.867292" lon="17.8260739">
        <ele>13.5958</ele>
        <time>2013-05-18T18:04:09Z</time>
      </trkpt>
      <trkpt lat="59.8671999" lon="17.8261385">
        <ele>13.1151</ele>
        <time>2013-05-18T18:04:10Z</time>
      </trkpt>
      <trkpt lat="59.8671068" lon="17.8262027">
        <ele>13.1151</ele>
        <time>2013-05-18T18:04:11Z</time>
      </trkpt>
      <trkpt lat="59.8670124" lon="17.8262649">
        <ele>12.6344</ele>
        <time>2013-05-18T18:04:12Z</time>
      </trkpt>
      <trkpt lat="59.8669162" lon="17.8263261">
        <ele>12.1538</ele>
        <time>2013-05-18T18:04:13Z</time>
      </trkpt>
      <trkpt lat="59.8668181" lon="17.8263847">
        <ele>11.6732</ele>
        <time>2013-05-18T18:04:14Z</time>
      </trkpt>
      <trkpt lat="59.8667201" lon="17.8264374">
        <ele>11.1925</ele>
        <time>2013-05-18T18:04:15Z</time>
      </trkpt>
      <trkpt lat="59.8666217" lon="17.8264918">
        <ele>11.1925</ele>
        <time>2013-05-18T18:04:16Z</time>
      </trkpt>
      <trkpt lat="59.8665263" lon="17.8265483">
        <ele>11.1925</ele>
        <time>2013-05-18T18:04:17Z</time>
      </trkpt>
      <trkpt lat="59.8664321" lon="17.8266022">
        <ele>11.6732</ele>
        <time>2013-05-18T18:04:18Z</time>
      </trkpt>
      <trkpt lat="59.8663368" lon="17.8266405">
        <ele>11.6732</ele>
        <time>2013-05-18T18:04:19Z</time>
      </trkpt>
      <trkpt lat="59.8662398" lon="17.8266597">
        <ele>12.1538</ele>
        <time>2013-05-18T18:04:20Z</time>
      </trkpt>
      <trkpt lat="59.8661433" lon="17.8266763">
        <ele>12.1538</ele>
        <time>2013-05-18T18:04:21Z</time>
      </trkpt>
      <trkpt lat="59.8660477" lon="17.8266902">
        <ele>12.6344</ele>
        <time>2013-05-18T18:04:22Z</time>
      </trkpt>
      <trkpt lat="59.8659532" lon="17.8266802">
        <ele>13.1151</ele>
        <time>2013-05-18T18:04:23Z</time>
      </trkpt>
      <trkpt lat="59.865857" lon="17.8266691">
        <ele>12.6344</ele>
        <time>2013-05-18T18:04:24Z</time>
      </trkpt>
      <trkpt lat="59.8657623" lon="17.8266528">
        <ele>12.1538</ele>
        <time>2013-05-18T18:04:25Z</time>
      </trkpt>
      <trkpt lat="59.8656705" lon="17.8266326">
        <ele>12.1538</ele>
        <time>2013-05-18T18:04:26Z</time>
      </trkpt>
      <trkpt lat="59.8655809" lon="17.826609">
        <ele>12.6344</ele>
        <time>2013-05-18T18:04:27Z</time>
      </trkpt>
      <trkpt lat="59.8654937" lon="17.826586">
        <ele>13.1151</ele>
        <time>2013-05-18T18:04:28Z</time>
      </trkpt>
      <trkpt lat="59.8654083" lon="17.8265654">
        <ele>13.5958</ele>
        <time>2013-05-18T18:04:29Z</time>
      </trkpt>
      <trkpt lat="59.8653251" lon="17.8265448">
        <ele>13.5958</ele>
        <time>2013-05-18T18:04:30Z</time>
      </trkpt>
      <trkpt lat="59.8652448" lon="17.8265215">
        <ele>14.0764</ele>
        <time>2013-05-18T18:04:31Z</time>
      </trkpt>
      <trkpt lat="59.8651674" lon="17.8264888">
        <ele>14.557</ele>
        <time>2013-05-18T18:04:32Z</time>
      </trkpt>
      <trkpt lat="59.8650949" lon="17.8264333">
        <ele>14.557</ele>
        <time>2013-05-18T18:04:33Z</time>
      </trkpt>
      <trkpt lat="59.8650312" lon="17.8263472">
        <ele>14.557</ele>
        <time>2013-05-18T18:04:34Z</time>
      </trkpt>
      <trkpt lat="59.8649712" lon="17.8262436">
        <ele>15.0377</ele>
        <time>2013-05-18T18:04:35Z</time>
      </trkpt>
      <trkpt lat="59.8649117" lon="17.826132">
        <ele>15.0377</ele>
        <time>2013-05-18T18:04:36Z</time>
      </trkpt>
      <trkpt lat="59.864848" lon="17.8260107">
        <ele>15.0377</ele>
        <time>2013-05-18T18:04:37Z</time>
      </trkpt>
      <trkpt lat="59.8647823" lon="17.8258806">
        <ele>15.5184</ele>
        <time>2013-05-18T18:04:38Z</time>
      </trkpt>
      <trkpt lat="59.8647157" lon="17.8257412">
        <ele>15.0377</ele>
        <time>2013-05-18T18:04:39Z</time>
      </trkpt>
      <trkpt lat="59.864648" lon="17.8255955">
        <ele>14.557</ele>
        <time>2013-05-18T18:04:40Z</time>
      </trkpt>
      <trkpt lat="59.8645797" lon="17.8254438">
        <ele>14.0764</ele>
        <time>2013-05-18T18:04:41Z</time>
      </trkpt>
      <trkpt lat="59.8645098" lon="17.8252917">
        <ele>13.5958</ele>
        <time>2013-05-18T18:04:42Z</time>
      </trkpt>
      <trkpt lat="59.8644388" lon="17.8251378">
        <ele>13.1151</ele>
        <time>2013-05-18T18:04:43Z</time>
      </trkpt>
      <trkpt lat="59.8643668" lon="17.8249841">
        <ele>13.1151</ele>
        <time>2013-05-18T18:04:44Z</time>
      </trkpt>
      <trkpt lat="59.8642942" lon="17.8248294">
        <ele>12.6344</ele>
        <time>2013-05-18T18:04:45Z</time>
      </trkpt>
      <trkpt lat="59.864222" lon="17.824676">
        <ele>12.6344</ele>
        <time>2013-05-18T18:04:46Z</time>
      </trkpt>
      <trkpt lat="59.8641505" lon="17.8245254">
        <ele>12.6344</ele>
        <time>2013-05-18T18:04:47Z</time>
      </trkpt>
      <trkpt lat="59.8640804" lon="17.8243763">
        <ele>12.1538</ele>
        <time>2013-05-18T18:04:48Z</time>
      </trkpt>
      <trkpt lat="59.8640119" lon="17.8242271">
        <ele>12.1538</ele>
        <time>2013-05-18T18:04:49Z</time>
      </trkpt>
      <trkpt lat="59.8639439" lon="17.8240784">
        <ele>11.6732</ele>
        <time>2013-05-18T18:04:50Z</time>
      </trkpt>
      <trkpt lat="59.8638761" lon="17.8239293">
        <ele>11.6732</ele>
        <time>2013-05-18T18:04:51Z</time>
      </trkpt>
      <trkpt lat="59.8638084" lon="17.8237795">
        <ele>11.1925</ele>
        <time>2013-05-18T18:04:52Z</time>
      </trkpt>
      <trkpt lat="59.8637406" lon="17.8236298">
        <ele>11.1925</ele>
        <time>2013-05-18T18:04:53Z</time>
      </trkpt>
      <trkpt lat="59.8636742" lon="17.8234786">
        <ele>11.1925</ele>
        <time>2013-05-18T18:04:54Z</time>
      </trkpt>
      <trkpt lat="59.8636093" lon="17.8233262">
        <ele>11.1925</ele>
        <time>2013-05-18T18:04:55Z</time>
      </trkpt>
      <trkpt lat="59.863545" lon="17.823174">
        <ele>11.1925</ele>
        <time>2013-05-18T18:04:56Z</time>
      </trkpt>
      <trkpt lat="59.8634821" lon="17.8230238">
        <ele>11.1925</ele>
        <time>2013-05-18T18:04:57Z</time>
      </trkpt>
      <trkpt lat="59.8634219" lon="17.8228742">
        <ele>11.6732</ele>
        <time>2013-05-18T18:04:58Z</time>
      </trkpt>
      <trkpt lat="59.863364" lon="17.8227249">
        <ele>11.6732</ele>
        <time>2013-05-18T18:04:59Z</time>
      </trkpt>
      <trkpt lat="59.8633085" lon="17.8225752">
        <ele>12.1538</ele>
        <time>2013-05-18T18:05:00Z</time>
      </trkpt>
      <trkpt lat="59.8632552" lon="17.8224265">
        <ele>12.1538</ele>
        <time>2013-05-18T18:05:01Z</time>
      </trkpt>
      <trkpt lat="59.8632033" lon="17.8222808">
        <ele>12.1538</ele>
        <time>2013-05-18T18:05:02Z</time>
      </trkpt>
      <trkpt lat="59.8631547" lon="17.8221355">
        <ele>12.6344</ele>
        <time>2013-05-18T18:05:03Z</time>
      </trkpt>
      <trkpt lat="59.8631096" lon="17.8219924">
        <ele>13.5958</ele>
        <time>2013-05-18T18:05:04Z</time>
      </trkpt>
      <trkpt lat="59.8630655" lon="17.8218498">
        <ele>14.0764</ele>
        <time>2013-05-18T18:05:05Z</time>
      </trkpt>
      <trkpt lat="59.8630214" lon="17.8217063">
        <ele>14.557</ele>
        <time>2013-05-18T18:05:06Z</time>
      </trkpt>
      <trkpt lat="59.8629793" lon="17.821563">
        <ele>15.0377</ele>
        <time>2013-05-18T18:05:07Z</time>
      </trkpt>
      <trkpt lat="59.8629382" lon="17.8214139">
        <ele>15.999</ele>
        <time>2013-05-18T18:05:08Z</time>
      </trkpt>
      <trkpt lat="59.8628993" lon="17.8212657">
        <ele>16.4797</ele>
        <time>2013-05-18T18:05:09Z</time>
      </trkpt>
      <trkpt lat="59.8628603" lon="17.8211231">
        <ele>16.9604</ele>
        <time>2013-05-18T18:05:10Z</time>
      </trkpt>
      <trkpt lat="59.8628225" lon="17.8209826">
        <ele>17.4412</ele>
        <time>2013-05-18T18:05:11Z</time>
      </trkpt>
      <trkpt lat="59.8627842" lon="17.8208459">
        <ele>17.9218</ele>
        <time>2013-05-18T18:05:12Z</time>
      </trkpt>
      <trkpt lat="59.862748" lon="17.8207241">
        <ele>18.4023</ele>
        <time>2013-05-18T18:05:13Z</time>
      </trkpt>
      <trkpt lat="59.8627162" lon="17.8206144">
        <ele>18.8831</ele>
        <time>2013-05-18T18:05:14Z</time>
      </trkpt>
      <trkpt lat="59.8626889" lon="17.8205082">
        <ele>19.3638</ele>
        <time>2013-05-18T18:05:15Z</time>
      </trkpt>
      <trkpt lat="59.8626636" lon="17.8203968">
        <ele>19.8444</ele>
        <time>2013-05-18T18:05:16Z</time>
      </trkpt>
      <trkpt lat="59.8626433" lon="17.8202815">
        <ele>19.3638</ele>
        <time>2013-05-18T18:05:17Z</time>
      </trkpt>
      <trkpt lat="59.8626252" lon="17.8201789">
        <ele>19.8444</ele>
        <time>2013-05-18T18:05:18Z</time>
      </trkpt>
      <trkpt lat="59.8626092" lon="17.8200839">
        <ele>19.8444</ele>
        <time>2013-05-18T18:05:19Z</time>
      </trkpt>
      <trkpt lat="59.8625882" lon="17.8199857">
        <ele>19.8444</ele>
        <time>2013-05-18T18:05:20Z</time>
      </trkpt>
      <trkpt lat="59.8625673" lon="17.8198762">
        <ele>20.325</ele>
        <time>2013-05-18T18:05:21Z</time>
      </trkpt>
      <trkpt lat="59.8625478" lon="17.8197654">
        <ele>20.8057</ele>
        <time>2013-05-18T18:05:22Z</time>
      </trkpt>
      <trkpt lat="59.8625284" lon="17.8196489">
        <ele>20.325</ele>
        <time>2013-05-18T18:05:23Z</time>
      </trkpt>
      <trkpt lat="59.8625087" lon="17.8195329">
        <ele>19.8444</ele>
        <time>2013-05-18T18:05:24Z</time>
      </trkpt>
      <trkpt lat="59.8624868" lon="17.8194299">
        <ele>18.8831</ele>
        <time>2013-05-18T18:05:25Z</time>
      </trkpt>
      <trkpt lat="59.8624641" lon="17.8193252">
        <ele>18.8831</ele>
        <time>2013-05-18T18:05:26Z</time>
      </trkpt>
      <trkpt lat="59.8624361" lon="17.8192199">
        <ele>18.8831</ele>
        <time>2013-05-18T18:05:27Z</time>
      </trkpt>
      <trkpt lat="59.8624034" lon="17.8191261">
        <ele>18.4023</ele>
        <time>2013-05-18T18:05:28Z</time>
      </trkpt>
      <trkpt lat="59.8623683" lon="17.8190341">
        <ele>17.9218</ele>
        <time>2013-05-18T18:05:29Z</time>
      </trkpt>
      <trkpt lat="59.8623282" lon="17.8189494">
        <ele>17.9218</ele>
        <time>2013-05-18T18:05:30Z</time>
      </trkpt>
      <trkpt lat="59.862279" lon="17.8188765">
        <ele>18.4023</ele>
        <time>2013-05-18T18:05:31Z</time>
      </trkpt>
      <trkpt lat="59.8622227" lon="17.8188117">
        <ele>18.4023</ele>
        <time>2013-05-18T18:05:32Z</time>
      </trkpt>
      <trkpt lat="59.8621655" lon="17.8187575">
        <ele>18.4023</ele>
        <time>2013-05-18T18:05:33Z</time>
      </trkpt>
      <trkpt lat="59.8621067" lon="17.8187056">
        <ele>18.8831</ele>
        <time>2013-05-18T18:05:34Z</time>
      </trkpt>
      <trkpt lat="59.8620492" lon="17.8186518">
        <ele>19.3638</ele>
        <time>2013-05-18T18:05:35Z</time>
      </trkpt>
      <trkpt lat="59.8619897" lon="17.8185986">
        <ele>19.3638</ele>
        <time>2013-05-18T18:05:36Z</time>
      </trkpt>
      <trkpt lat="59.8619332" lon="17.8185521">
        <ele>18.8831</ele>
        <time>2013-05-18T18:05:37Z</time>
      </trkpt>
      <trkpt lat="59.8618777" lon="17.8185078">
        <ele>18.8831</ele>
        <time>2013-05-18T18:05:38Z</time>
      </trkpt>
      <trkpt lat="59.8618174" lon="17.8184725">
        <ele>18.4023</ele>
        <time>2013-05-18T18:05:39Z</time>
      </trkpt>
      <trkpt lat="59.8617608" lon="17.818439">
        <ele>17.4412</ele>
        <time>2013-05-18T18:05:40Z</time>
      </trkpt>
      <trkpt lat="59.8617055" lon="17.8184123">
        <ele>16.4797</ele>
        <time>2013-05-18T18:05:41Z</time>
      </trkpt>
      <trkpt lat="59.8616481" lon="17.8183843">
        <ele>16.4797</ele>
        <time>2013-05-18T18:05:42Z</time>
      </trkpt>
      <trkpt lat="59.86159" lon="17.8183435">
        <ele>16.9604</ele>
        <time>2013-05-18T18:05:43Z</time>
      </trkpt>
      <trkpt lat="59.8615276" lon="17.8182918">
        <ele>16.4797</ele>
        <time>2013-05-18T18:05:44Z</time>
      </trkpt>
      <trkpt lat="59.8614634" lon="17.8182356">
        <ele>15.999</ele>
        <time>2013-05-18T18:05:45Z</time>
      </trkpt>
      <trkpt lat="59.8613999" lon="17.8181804">
        <ele>14.0764</ele>
        <time>2013-05-18T18:05:46Z</time>
      </trkpt>
      <trkpt lat="59.8613328" lon="17.8181233">
        <ele>14.0764</ele>
        <time>2013-05-18T18:05:47Z</time>
      </trkpt>
      <trkpt lat="59.8612639" lon="17.8180628">
        <ele>14.0764</ele>
        <time>2013-05-18T18:05:48Z</time>
      </trkpt>
      <trkpt lat="59.8611951" lon="17.8179976">
        <ele>13.5958</ele>
        <time>2013-05-18T18:05:49Z</time>
      </trkpt>
      <trkpt lat="59.8611278" lon="17.8179327">
        <ele>13.5958</ele>
        <time>2013-05-18T18:05:50Z</time>
      </trkpt>
      <trkpt lat="59.8610642" lon="17.8178608">
        <ele>12.6344</ele>
        <time>2013-05-18T18:05:51Z</time>
      </trkpt>
      <trkpt lat="59.861" lon="17.8177965">
        <ele>12.6344</ele>
        <time>2013-05-18T18:05:52Z</time>
      </trkpt>
      <trkpt lat="59.8609368" lon="17.8177131">
        <ele>13.5958</ele>
        <time>2013-05-18T18:05:53Z</time>
      </trkpt>
      <trkpt lat="59.8608728" lon="17.8176235">
        <ele>13.5958</ele>
        <time>2013-05-18T18:05:54Z</time>
      </trkpt>
      <trkpt lat="59.860805" lon="17.8175439">
        <ele>12.1538</ele>
        <time>2013-05-18T18:05:55Z</time>
      </trkpt>
      <trkpt lat="59.8607313" lon="17.817461">
        <ele>12.6344</ele>
        <time>2013-05-18T18:05:56Z</time>
      </trkpt>
      <trkpt lat="59.8606615" lon="17.8173641">
        <ele>13.1151</ele>
        <time>2013-05-18T18:05:57Z</time>
      </trkpt>
      <trkpt lat="59.8605895" lon="17.8172682">
        <ele>13.1151</ele>
        <time>2013-05-18T18:05:58Z</time>
      </trkpt>
      <trkpt lat="59.8605158" lon="17.8171722">
        <ele>13.1151</ele>
        <time>2013-05-18T18:05:59Z</time>
      </trkpt>
      <trkpt lat="59.8604361" lon="17.8170746">
        <ele>13.5958</ele>
        <time>2013-05-18T18:06:00Z</time>
      </trkpt>
      <trkpt lat="59.8603574" lon="17.816978">
        <ele>14.557</ele>
        <time>2013-05-18T18:06:01Z</time>
      </trkpt>
      <trkpt lat="59.8602808" lon="17.8168826">
        <ele>15.0377</ele>
        <time>2013-05-18T18:06:02Z</time>
      </trkpt>
      <trkpt lat="59.8602059" lon="17.8167894">
        <ele>15.999</ele>
        <time>2013-05-18T18:06:03Z</time>
      </trkpt>
      <trkpt lat="59.8601323" lon="17.8166946">
        <ele>15.5184</ele>
        <time>2013-05-18T18:06:04Z</time>
      </trkpt>
      <trkpt lat="59.8600548" lon="17.8166051">
        <ele>15.5184</ele>
        <time>2013-05-18T18:06:05Z</time>
      </trkpt>
      <trkpt lat="59.8599772" lon="17.8165176">
        <ele>15.5184</ele>
        <time>2013-05-18T18:06:06Z</time>
      </trkpt>
      <trkpt lat="59.859898" lon="17.8164346">
        <ele>15.5184</ele>
        <time>2013-05-18T18:06:07Z</time>
      </trkpt>
      <trkpt lat="59.8598179" lon="17.8163553">
        <ele>15.5184</ele>
        <time>2013-05-18T18:06:08Z</time>
      </trkpt>
      <trkpt lat="59.8597372" lon="17.8162809">
        <ele>15.999</ele>
        <time>2013-05-18T18:06:09Z</time>
      </trkpt>
      <trkpt lat="59.8596559" lon="17.8162119">
        <ele>15.999</ele>
        <time>2013-05-18T18:06:10Z</time>
      </trkpt>
      <trkpt lat="59.8595747" lon="17.8161446">
        <ele>15.999</ele>
        <time>2013-05-18T18:06:11Z</time>
      </trkpt>
      <trkpt lat="59.8594933" lon="17.816076">
        <ele>15.999</ele>
        <time>2013-05-18T18:06:12Z</time>
      </trkpt>
      <trkpt lat="59.8594114" lon="17.8160057">
        <ele>16.4797</ele>
        <time>2013-05-18T18:06:13Z</time>
      </trkpt>
      <trkpt lat="59.8593291" lon="17.8159343">
        <ele>16.4797</ele>
        <time>2013-05-18T18:06:14Z</time>
      </trkpt>
      <trkpt lat="59.8592467" lon="17.8158633">
        <ele>16.4797</ele>
        <time>2013-05-18T18:06:15Z</time>
      </trkpt>
      <trkpt lat="59.8591644" lon="17.8157929">
        <ele>16.9604</ele>
        <time>2013-05-18T18:06:16Z</time>
      </trkpt>
      <trkpt lat="59.8590829" lon="17.8157229">
        <ele>16.9604</ele>
        <time>2013-05-18T18:06:17Z</time>
      </trkpt>
      <trkpt lat="59.8590015" lon="17.8156546">
        <ele>16.9604</ele>
        <time>2013-05-18T18:06:18Z</time>
      </trkpt>
      <trkpt lat="59.8589197" lon="17.8155877">
        <ele>17.4412</ele>
        <time>2013-05-18T18:06:19Z</time>
      </trkpt>
      <trkpt lat="59.8588385" lon="17.8155231">
        <ele>17.9218</ele>
        <time>2013-05-18T18:06:20Z</time>
      </trkpt>
      <trkpt lat="59.8587591" lon="17.8154593">
        <ele>17.9218</ele>
        <time>2013-05-18T18:06:21Z</time>
      </trkpt>
      <trkpt lat="59.8586796" lon="17.8153998">
        <ele>18.4023</ele>
        <time>2013-05-18T18:06:22Z</time>
      </trkpt>
      <trkpt lat="59.8586056" lon="17.8153364">
        <ele>19.3638</ele>
        <time>2013-05-18T18:06:23Z</time>
      </trkpt>
      <trkpt lat="59.8585323" lon="17.8152788">
        <ele>19.8444</ele>
        <time>2013-05-18T18:06:24Z</time>
      </trkpt>
      <trkpt lat="59.8584633" lon="17.8152297">
        <ele>19.8444</ele>
        <time>2013-05-18T18:06:25Z</time>
      </trkpt>
      <trkpt lat="59.858396" lon="17.8151766">
        <ele>20.8057</ele>
        <time>2013-05-18T18:06:26Z</time>
      </trkpt>
      <trkpt lat="59.8583284" lon="17.8151339">
        <ele>20.8057</ele>
        <time>2013-05-18T18:06:27Z</time>
      </trkpt>
      <trkpt lat="59.858263" lon="17.8151221">
        <ele>20.325</ele>
        <time>2013-05-18T18:06:28Z</time>
      </trkpt>
      <trkpt lat="59.8581992" lon="17.8150574">
        <ele>20.325</ele>
        <time>2013-05-18T18:06:29Z</time>
      </trkpt>
      <trkpt lat="59.8581299" lon="17.8150126">
        <ele>19.8444</ele>
        <time>2013-05-18T18:06:30Z</time>
      </trkpt>
      <trkpt lat="59.8580537" lon="17.8149727">
        <ele>19.8444</ele>
        <time>2013-05-18T18:06:31Z</time>
      </trkpt>
      <trkpt lat="59.8579812" lon="17.8149396">
        <ele>19.8444</ele>
        <time>2013-05-18T18:06:32Z</time>
      </trkpt>
      <trkpt lat="59.8579108" lon="17.8149054">
        <ele>19.3638</ele>
        <time>2013-05-18T18:06:33Z</time>
      </trkpt>
      <trkpt lat="59.8578497" lon="17.8148827">
        <ele>18.8831</ele>
        <time>2013-05-18T18:06:34Z</time>
      </trkpt>
      <trkpt lat="59.8577951" lon="17.8148548">
        <ele>18.8831</ele>
        <time>2013-05-18T18:06:35Z</time>
      </trkpt>
      <trkpt lat="59.8577496" lon="17.8148109">
        <ele>18.8831</ele>
        <time>2013-05-18T18:06:36Z</time>
      </trkpt>
      <trkpt lat="59.8577181" lon="17.8147417">
        <ele>19.3638</ele>
        <time>2013-05-18T18:06:37Z</time>
      </trkpt>
      <trkpt lat="59.8577068" lon="17.814662">
        <ele>19.3638</ele>
        <time>2013-05-18T18:06:38Z</time>
      </trkpt>
      <trkpt lat="59.8577083" lon="17.8145718">
        <ele>19.3638</ele>
        <time>2013-05-18T18:06:39Z</time>
      </trkpt>
      <trkpt lat="59.8577169" lon="17.8144766">
        <ele>19.3638</ele>
        <time>2013-05-18T18:06:40Z</time>
      </trkpt>
      <trkpt lat="59.8577335" lon="17.814368">
        <ele>16.4797</ele>
        <time>2013-05-18T18:06:41Z</time>
      </trkpt>
      <trkpt lat="59.8577564" lon="17.8142644">
        <ele>15.5184</ele>
        <time>2013-05-18T18:06:42Z</time>
      </trkpt>
      <trkpt lat="59.8577823" lon="17.8141607">
        <ele>15.5184</ele>
        <time>2013-05-18T18:06:43Z</time>
      </trkpt>
      <trkpt lat="59.8578077" lon="17.8140519">
        <ele>15.0377</ele>
        <time>2013-05-18T18:06:44Z</time>
      </trkpt>
      <trkpt lat="59.8578293" lon="17.8139347">
        <ele>15.0377</ele>
        <time>2013-05-18T18:06:45Z</time>
      </trkpt>
      <trkpt lat="59.8578518" lon="17.8138106">
        <ele>15.0377</ele>
        <time>2013-05-18T18:06:46Z</time>
      </trkpt>
      <trkpt lat="59.8578736" lon="17.8136797">
        <ele>15.0377</ele>
        <time>2013-05-18T18:06:47Z</time>
      </trkpt>
      <trkpt lat="59.8578941" lon="17.8135458">
        <ele>15.0377</ele>
        <time>2013-05-18T18:06:48Z</time>
      </trkpt>
      <trkpt lat="59.8579122" lon="17.8134085">
        <ele>15.0377</ele>
        <time>2013-05-18T18:06:49Z</time>
      </trkpt>
      <trkpt lat="59.8579308" lon="17.813267">
        <ele>17.4412</ele>
        <time>2013-05-18T18:06:50Z</time>
      </trkpt>
      <trkpt lat="59.857945" lon="17.813122">
        <ele>17.4412</ele>
        <time>2013-05-18T18:06:51Z</time>
      </trkpt>
      <trkpt lat="59.8579585" lon="17.8129763">
        <ele>17.9218</ele>
        <time>2013-05-18T18:06:52Z</time>
      </trkpt>
      <trkpt lat="59.85797" lon="17.8128269">
        <ele>17.9218</ele>
        <time>2013-05-18T18:06:53Z</time>
      </trkpt>
      <trkpt lat="59.8579802" lon="17.8126717">
        <ele>17.9218</ele>
        <time>2013-05-18T18:06:54Z</time>
      </trkpt>
      <trkpt lat="59.8579902" lon="17.8125149">
        <ele>19.3638</ele>
        <time>2013-05-18T18:06:55Z</time>
      </trkpt>
      <trkpt lat="59.8579967" lon="17.8123573">
        <ele>19.3638</ele>
        <time>2013-05-18T18:06:56Z</time>
      </trkpt>
      <trkpt lat="59.8580023" lon="17.8121999">
        <ele>19.3638</ele>
        <time>2013-05-18T18:06:57Z</time>
      </trkpt>
      <trkpt lat="59.8580066" lon="17.8120403">
        <ele>20.325</ele>
        <time>2013-05-18T18:06:58Z</time>
      </trkpt>
      <trkpt lat="59.8580087" lon="17.8118793">
        <ele>20.325</ele>
        <time>2013-05-18T18:06:59Z</time>
      </trkpt>
      <trkpt lat="59.8580083" lon="17.8117141">
        <ele>20.325</ele>
        <time>2013-05-18T18:07:00Z</time>
      </trkpt>
      <trkpt lat="59.8580077" lon="17.8115457">
        <ele>21.2864</ele>
        <time>2013-05-18T18:07:01Z</time>
      </trkpt>
      <trkpt lat="59.858005" lon="17.8113762">
        <ele>21.767</ele>
        <time>2013-05-18T18:07:02Z</time>
      </trkpt>
      <trkpt lat="59.8579958" lon="17.8112003">
        <ele>20.8057</ele>
        <time>2013-05-18T18:07:03Z</time>
      </trkpt>
      <trkpt lat="59.8579844" lon="17.8110261">
        <ele>20.325</ele>
        <time>2013-05-18T18:07:04Z</time>
      </trkpt>
      <trkpt lat="59.8579698" lon="17.8108432">
        <ele>19.8444</ele>
        <time>2013-05-18T18:07:05Z</time>
      </trkpt>
      <trkpt lat="59.8579542" lon="17.810662">
        <ele>18.8831</ele>
        <time>2013-05-18T18:07:06Z</time>
      </trkpt>
      <trkpt lat="59.8579383" lon="17.8104881">
        <ele>18.8831</ele>
        <time>2013-05-18T18:07:07Z</time>
      </trkpt>
      <trkpt lat="59.8579191" lon="17.8103144">
        <ele>18.4023</ele>
        <time>2013-05-18T18:07:08Z</time>
      </trkpt>
      <trkpt lat="59.8578971" lon="17.8101419">
        <ele>17.9218</ele>
        <time>2013-05-18T18:07:09Z</time>
      </trkpt>
      <trkpt lat="59.8578719" lon="17.8099685">
        <ele>17.4412</ele>
        <time>2013-05-18T18:07:10Z</time>
      </trkpt>
      <trkpt lat="59.8578465" lon="17.8097975">
        <ele>17.4412</ele>
        <time>2013-05-18T18:07:11Z</time>
      </trkpt>
      <trkpt lat="59.8578191" lon="17.8096286">
        <ele>16.9604</ele>
        <time>2013-05-18T18:07:12Z</time>
      </trkpt>
      <trkpt lat="59.85779" lon="17.8094621">
        <ele>16.4797</ele>
        <time>2013-05-18T18:07:13Z</time>
      </trkpt>
      <trkpt lat="59.8577576" lon="17.8092969">
        <ele>15.999</ele>
        <time>2013-05-18T18:07:14Z</time>
      </trkpt>
      <trkpt lat="59.8577217" lon="17.8091308">
        <ele>15.999</ele>
        <time>2013-05-18T18:07:15Z</time>
      </trkpt>
      <trkpt lat="59.8576865" lon="17.8089662">
        <ele>15.5184</ele>
        <time>2013-05-18T18:07:16Z</time>
      </trkpt>
      <trkpt lat="59.8576513" lon="17.8088011">
        <ele>15.0377</ele>
        <time>2013-05-18T18:07:17Z</time>
      </trkpt>
      <trkpt lat="59.857614" lon="17.8086369">
        <ele>15.0377</ele>
        <time>2013-05-18T18:07:18Z</time>
      </trkpt>
      <trkpt lat="59.8575755" lon="17.8084748">
        <ele>14.557</ele>
        <time>2013-05-18T18:07:19Z</time>
      </trkpt>
      <trkpt lat="59.8575352" lon="17.8083138">
        <ele>14.557</ele>
        <time>2013-05-18T18:07:20Z</time>
      </trkpt>
      <trkpt lat="59.8574933" lon="17.8081537">
        <ele>14.0764</ele>
        <time>2013-05-18T18:07:21Z</time>
      </trkpt>
      <trkpt lat="59.8574503" lon="17.8079951">
        <ele>14.0764</ele>
        <time>2013-05-18T18:07:22Z</time>
      </trkpt>
      <trkpt lat="59.8574068" lon="17.8078385">
        <ele>13.5958</ele>
        <time>2013-05-18T18:07:23Z</time>
      </trkpt>
      <trkpt lat="59.8573628" lon="17.8076833">
        <ele>13.5958</ele>
        <time>2013-05-18T18:07:24Z</time>
      </trkpt>
      <trkpt lat="59.8573175" lon="17.8075296">
        <ele>13.5958</ele>
        <time>2013-05-18T18:07:25Z</time>
      </trkpt>
      <trkpt lat="59.8572719" lon="17.8073772">
        <ele>13.5958</ele>
        <time>2013-05-18T18:07:26Z</time>
      </trkpt>
      <trkpt lat="59.8572271" lon="17.8072248">
        <ele>13.5958</ele>
        <time>2013-05-18T18:07:27Z</time>
      </trkpt>
      <trkpt lat="59.8571825" lon="17.8070725">
        <ele>13.5958</ele>
        <time>2013-05-18T18:07:28Z</time>
      </trkpt>
      <trkpt lat="59.8571374" lon="17.806921">
        <ele>13.1151</ele>
        <time>2013-05-18T18:07:29Z</time>
      </trkpt>
      <trkpt lat="59.8570917" lon="17.8067718">
        <ele>13.1151</ele>
        <time>2013-05-18T18:07:30Z</time>
      </trkpt>
      <trkpt lat="59.8570457" lon="17.8066242">
        <ele>13.5958</ele>
        <time>2013-05-18T18:07:31Z</time>
      </trkpt>
      <trkpt lat="59.8569995" lon="17.8064779">
        <ele>13.5958</ele>
        <time>2013-05-18T18:07:32Z</time>
      </trkpt>
      <trkpt lat="59.8569535" lon="17.8063325">
        <ele>13.5958</ele>
        <time>2013-05-18T18:07:33Z</time>
      </trkpt>
      <trkpt lat="59.8569083" lon="17.8061872">
        <ele>14.0764</ele>
        <time>2013-05-18T18:07:34Z</time>
      </trkpt>
      <trkpt lat="59.8568644" lon="17.8060412">
        <ele>14.0764</ele>
        <time>2013-05-18T18:07:35Z</time>
      </trkpt>
      <trkpt lat="59.8568208" lon="17.8058954">
        <ele>14.0764</ele>
        <time>2013-05-18T18:07:36Z</time>
      </trkpt>
      <trkpt lat="59.8567769" lon="17.8057516">
        <ele>14.557</ele>
        <time>2013-05-18T18:07:37Z</time>
      </trkpt>
      <trkpt lat="59.8567335" lon="17.8056081">
        <ele>14.557</ele>
        <time>2013-05-18T18:07:38Z</time>
      </trkpt>
      <trkpt lat="59.8566904" lon="17.8054636">
        <ele>15.0377</ele>
        <time>2013-05-18T18:07:39Z</time>
      </trkpt>
      <trkpt lat="59.856647" lon="17.8053191">
        <ele>15.0377</ele>
        <time>2013-05-18T18:07:40Z</time>
      </trkpt>
      <trkpt lat="59.8566043" lon="17.8051761">
        <ele>15.0377</ele>
        <time>2013-05-18T18:07:41Z</time>
      </trkpt>
      <trkpt lat="59.856562" lon="17.805035">
        <ele>15.5184</ele>
        <time>2013-05-18T18:07:42Z</time>
      </trkpt>
      <trkpt lat="59.8565201" lon="17.8048944">
        <ele>15.5184</ele>
        <time>2013-05-18T18:07:43Z</time>
      </trkpt>
      <trkpt lat="59.8564784" lon="17.8047546">
        <ele>15.999</ele>
        <time>2013-05-18T18:07:44Z</time>
      </trkpt>
      <trkpt lat="59.8564363" lon="17.8046162">
        <ele>15.999</ele>
        <time>2013-05-18T18:07:45Z</time>
      </trkpt>
      <trkpt lat="59.8563945" lon="17.8044784">
        <ele>15.999</ele>
        <time>2013-05-18T18:07:46Z</time>
      </trkpt>
      <trkpt lat="59.8563546" lon="17.8043406">
        <ele>15.999</ele>
        <time>2013-05-18T18:07:47Z</time>
      </trkpt>
      <trkpt lat="59.8563167" lon="17.8042025">
        <ele>15.999</ele>
        <time>2013-05-18T18:07:48Z</time>
      </trkpt>
      <trkpt lat="59.8562792" lon="17.8040658">
        <ele>15.999</ele>
        <time>2013-05-18T18:07:49Z</time>
      </trkpt>
      <trkpt lat="59.8562397" lon="17.8039346">
        <ele>15.999</ele>
        <time>2013-05-18T18:07:50Z</time>
      </trkpt>
      <trkpt lat="59.8561989" lon="17.8038093">
        <ele>15.999</ele>
        <time>2013-05-18T18:07:51Z</time>
      </trkpt>
      <trkpt lat="59.8561635" lon="17.8036834">
        <ele>15.999</ele>
        <time>2013-05-18T18:07:52Z</time>
      </trkpt>
      <trkpt lat="59.8561412" lon="17.803549">
        <ele>16.4797</ele>
        <time>2013-05-18T18:07:53Z</time>
      </trkpt>
      <trkpt lat="59.8561294" lon="17.8034113">
        <ele>16.4797</ele>
        <time>2013-05-18T18:07:54Z</time>
      </trkpt>
      <trkpt lat="59.8561123" lon="17.8032854">
        <ele>16.4797</ele>
        <time>2013-05-18T18:07:55Z</time>
      </trkpt>
      <trkpt lat="59.85608" lon="17.8031737">
        <ele>16.4797</ele>
        <time>2013-05-18T18:07:56Z</time>
      </trkpt>
      <trkpt lat="59.8560388" lon="17.8030762">
        <ele>16.4797</ele>
        <time>2013-05-18T18:07:57Z</time>
      </trkpt>
      <trkpt lat="59.8559977" lon="17.8029815">
        <ele>16.9604</ele>
        <time>2013-05-18T18:07:58Z</time>
      </trkpt>
      <trkpt lat="59.8559453" lon="17.8028815">
        <ele>16.9604</ele>
        <time>2013-05-18T18:07:59Z</time>
      </trkpt>
      <trkpt lat="59.8559076" lon="17.8027862">
        <ele>17.4412</ele>
        <time>2013-05-18T18:08:00Z</time>
      </trkpt>
      <trkpt lat="59.8558755" lon="17.8026581">
        <ele>17.4412</ele>
        <time>2013-05-18T18:08:01Z</time>
      </trkpt>
      <trkpt lat="59.8558471" lon="17.8025323">
        <ele>17.9218</ele>
        <time>2013-05-18T18:08:02Z</time>
      </trkpt>
      <trkpt lat="59.8558145" lon="17.8024267">
        <ele>17.9218</ele>
        <time>2013-05-18T18:08:03Z</time>
      </trkpt>
      <trkpt lat="59.8557881" lon="17.8023112">
        <ele>17.9218</ele>
        <time>2013-05-18T18:08:04Z</time>
      </trkpt>
      <trkpt lat="59.855759" lon="17.8021853">
        <ele>18.8831</ele>
        <time>2013-05-18T18:08:05Z</time>
      </trkpt>
      <trkpt lat="59.8557325" lon="17.8020647">
        <ele>19.8444</ele>
        <time>2013-05-18T18:08:06Z</time>
      </trkpt>
      <trkpt lat="59.8557088" lon="17.8019438">
        <ele>19.3638</ele>
        <time>2013-05-18T18:08:07Z</time>
      </trkpt>
      <trkpt lat="59.8556865" lon="17.8018211">
        <ele>19.3638</ele>
        <time>2013-05-18T18:08:08Z</time>
      </trkpt>
      <trkpt lat="59.8556647" lon="17.8017077">
        <ele>18.4023</ele>
        <time>2013-05-18T18:08:09Z</time>
      </trkpt>
      <trkpt lat="59.8556436" lon="17.8015964">
        <ele>18.4023</ele>
        <time>2013-05-18T18:08:10Z</time>
      </trkpt>
      <trkpt lat="59.8556181" lon="17.8014907">
        <ele>18.8831</ele>
        <time>2013-05-18T18:08:11Z</time>
      </trkpt>
      <trkpt lat="59.8555874" lon="17.8013842">
        <ele>19.3638</ele>
        <time>2013-05-18T18:08:12Z</time>
      </trkpt>
      <trkpt lat="59.8555568" lon="17.8012768">
        <ele>19.8444</ele>
        <time>2013-05-18T18:08:13Z</time>
      </trkpt>
      <trkpt lat="59.8555289" lon="17.8011682">
        <ele>20.325</ele>
        <time>2013-05-18T18:08:14Z</time>
      </trkpt>
      <trkpt lat="59.8555016" lon="17.8010565">
        <ele>19.8444</ele>
        <time>2013-05-18T18:08:15Z</time>
      </trkpt>
      <trkpt lat="59.8554754" lon="17.8009435">
        <ele>20.325</ele>
        <time>2013-05-18T18:08:16Z</time>
      </trkpt>
      <trkpt lat="59.8554497" lon="17.8008269">
        <ele>20.8057</ele>
        <time>2013-05-18T18:08:17Z</time>
      </trkpt>
      <trkpt lat="59.8554136" lon="17.800707">
        <ele>22.2476</ele>
        <time>2013-05-18T18:08:18Z</time>
      </trkpt>
      <trkpt lat="59.8553761" lon="17.8005948">
        <ele>23.6896</ele>
        <time>2013-05-18T18:08:19Z</time>
      </trkpt>
      <trkpt lat="59.8553397" lon="17.8004877">
        <ele>24.651</ele>
        <time>2013-05-18T18:08:20Z</time>
      </trkpt>
      <trkpt lat="59.8553056" lon="17.8003815">
        <ele>25.1317</ele>
        <time>2013-05-18T18:08:21Z</time>
      </trkpt>
      <trkpt lat="59.8552735" lon="17.8002748">
        <ele>25.6123</ele>
        <time>2013-05-18T18:08:22Z</time>
      </trkpt>
      <trkpt lat="59.8552472" lon="17.8001701">
        <ele>25.6123</ele>
        <time>2013-05-18T18:08:23Z</time>
      </trkpt>
      <trkpt lat="59.8552177" lon="17.8000646">
        <ele>25.6123</ele>
        <time>2013-05-18T18:08:24Z</time>
      </trkpt>
      <trkpt lat="59.8551865" lon="17.7999599">
        <ele>26.0929</ele>
        <time>2013-05-18T18:08:25Z</time>
      </trkpt>
      <trkpt lat="59.8551543" lon="17.7998517">
        <ele>26.0929</ele>
        <time>2013-05-18T18:08:26Z</time>
      </trkpt>
      <trkpt lat="59.8551214" lon="17.7997398">
        <ele>26.5736</ele>
        <time>2013-05-18T18:08:27Z</time>
      </trkpt>
      <trkpt lat="59.8550901" lon="17.7996297">
        <ele>27.0543</ele>
        <time>2013-05-18T18:08:28Z</time>
      </trkpt>
      <trkpt lat="59.8550581" lon="17.7995216">
        <ele>27.5349</ele>
        <time>2013-05-18T18:08:29Z</time>
      </trkpt>
      <trkpt lat="59.8550265" lon="17.7994123">
        <ele>27.5349</ele>
        <time>2013-05-18T18:08:30Z</time>
      </trkpt>
      <trkpt lat="59.8549964" lon="17.7993005">
        <ele>27.5349</ele>
        <time>2013-05-18T18:08:31Z</time>
      </trkpt>
      <trkpt lat="59.8549649" lon="17.7991875">
        <ele>27.5349</ele>
        <time>2013-05-18T18:08:32Z</time>
      </trkpt>
      <trkpt lat="59.8549328" lon="17.7990725">
        <ele>27.5349</ele>
        <time>2013-05-18T18:08:33Z</time>
      </trkpt>
      <trkpt lat="59.8549007" lon="17.7989524">
        <ele>27.5349</ele>
        <time>2013-05-18T18:08:34Z</time>
      </trkpt>
      <trkpt lat="59.854869" lon="17.7988296">
        <ele>27.5349</ele>
        <time>2013-05-18T18:08:35Z</time>
      </trkpt>
      <trkpt lat="59.8548369" lon="17.7987047">
        <ele>27.5349</ele>
        <time>2013-05-18T18:08:36Z</time>
      </trkpt>
      <trkpt lat="59.8548063" lon="17.7985793">
        <ele>27.5349</ele>
        <time>2013-05-18T18:08:37Z</time>
      </trkpt>
      <trkpt lat="59.8547749" lon="17.7984534">
        <ele>27.0543</ele>
        <time>2013-05-18T18:08:38Z</time>
      </trkpt>
      <trkpt lat="59.8547445" lon="17.7983264">
        <ele>26.5736</ele>
        <time>2013-05-18T18:08:39Z</time>
      </trkpt>
      <trkpt lat="59.8547131" lon="17.7981975">
        <ele>26.5736</ele>
        <time>2013-05-18T18:08:40Z</time>
      </trkpt>
      <trkpt lat="59.8546804" lon="17.7980687">
        <ele>27.0543</ele>
        <time>2013-05-18T18:08:41Z</time>
      </trkpt>
      <trkpt lat="59.8546468" lon="17.7979413">
        <ele>27.0543</ele>
        <time>2013-05-18T18:08:42Z</time>
      </trkpt>
      <trkpt lat="59.8546131" lon="17.7978128">
        <ele>27.0543</ele>
        <time>2013-05-18T18:08:43Z</time>
      </trkpt>
      <trkpt lat="59.8545801" lon="17.7976846">
        <ele>27.0543</ele>
        <time>2013-05-18T18:08:44Z</time>
      </trkpt>
      <trkpt lat="59.8545494" lon="17.7975568">
        <ele>27.0543</ele>
        <time>2013-05-18T18:08:45Z</time>
      </trkpt>
      <trkpt lat="59.8545188" lon="17.7974288">
        <ele>27.0543</ele>
        <time>2013-05-18T18:08:46Z</time>
      </trkpt>
      <trkpt lat="59.8544921" lon="17.7972994">
        <ele>27.0543</ele>
        <time>2013-05-18T18:08:47Z</time>
      </trkpt>
      <trkpt lat="59.8544643" lon="17.7971693">
        <ele>27.0543</ele>
        <time>2013-05-18T18:08:48Z</time>
      </trkpt>
      <trkpt lat="59.854433" lon="17.7970455">
        <ele>26.5736</ele>
        <time>2013-05-18T18:08:49Z</time>
      </trkpt>
      <trkpt lat="59.8543964" lon="17.7969261">
        <ele>26.5736</ele>
        <time>2013-05-18T18:08:50Z</time>
      </trkpt>
      <trkpt lat="59.8543555" lon="17.7968155">
        <ele>26.5736</ele>
        <time>2013-05-18T18:08:51Z</time>
      </trkpt>
      <trkpt lat="59.8543185" lon="17.7967033">
        <ele>26.5736</ele>
        <time>2013-05-18T18:08:52Z</time>
      </trkpt>
      <trkpt lat="59.8542893" lon="17.7965845">
        <ele>26.5736</ele>
        <time>2013-05-18T18:08:53Z</time>
      </trkpt>
      <trkpt lat="59.8542556" lon="17.7964654">
        <ele>27.0543</ele>
        <time>2013-05-18T18:08:54Z</time>
      </trkpt>
      <trkpt lat="59.8542246" lon="17.7963416">
        <ele>27.5349</ele>
        <time>2013-05-18T18:08:55Z</time>
      </trkpt>
      <trkpt lat="59.8541936" lon="17.7962148">
        <ele>27.5349</ele>
        <time>2013-05-18T18:08:56Z</time>
      </trkpt>
      <trkpt lat="59.8541602" lon="17.7960879">
        <ele>27.5349</ele>
        <time>2013-05-18T18:08:57Z</time>
      </trkpt>
      <trkpt lat="59.8541242" lon="17.7959622">
        <ele>28.0155</ele>
        <time>2013-05-18T18:08:58Z</time>
      </trkpt>
      <trkpt lat="59.854087" lon="17.795836">
        <ele>28.0155</ele>
        <time>2013-05-18T18:08:59Z</time>
      </trkpt>
      <trkpt lat="59.8540506" lon="17.7957072">
        <ele>28.4962</ele>
        <time>2013-05-18T18:09:00Z</time>
      </trkpt>
      <trkpt lat="59.8540143" lon="17.7955772">
        <ele>28.4962</ele>
        <time>2013-05-18T18:09:01Z</time>
      </trkpt>
      <trkpt lat="59.8539765" lon="17.7954475">
        <ele>28.9769</ele>
        <time>2013-05-18T18:09:02Z</time>
      </trkpt>
      <trkpt lat="59.8539387" lon="17.7953176">
        <ele>28.9769</ele>
        <time>2013-05-18T18:09:03Z</time>
      </trkpt>
      <trkpt lat="59.8539013" lon="17.7951855">
        <ele>28.9769</ele>
        <time>2013-05-18T18:09:04Z</time>
      </trkpt>
      <trkpt lat="59.8538634" lon="17.7950533">
        <ele>29.4575</ele>
        <time>2013-05-18T18:09:05Z</time>
      </trkpt>
      <trkpt lat="59.8538252" lon="17.7949228">
        <ele>29.4575</ele>
        <time>2013-05-18T18:09:06Z</time>
      </trkpt>
      <trkpt lat="59.8537864" lon="17.7947944">
        <ele>29.4575</ele>
        <time>2013-05-18T18:09:07Z</time>
      </trkpt>
      <trkpt lat="59.853746" lon="17.7946679">
        <ele>29.4575</ele>
        <time>2013-05-18T18:09:08Z</time>
      </trkpt>
      <trkpt lat="59.8537045" lon="17.7945416">
        <ele>29.9381</ele>
        <time>2013-05-18T18:09:09Z</time>
      </trkpt>
      <trkpt lat="59.8536632" lon="17.7944134">
        <ele>29.4575</ele>
        <time>2013-05-18T18:09:10Z</time>
      </trkpt>
      <trkpt lat="59.8536225" lon="17.794282">
        <ele>29.4575</ele>
        <time>2013-05-18T18:09:11Z</time>
      </trkpt>
      <trkpt lat="59.8535802" lon="17.794149">
        <ele>29.4575</ele>
        <time>2013-05-18T18:09:12Z</time>
      </trkpt>
      <trkpt lat="59.8535353" lon="17.7940164">
        <ele>29.4575</ele>
        <time>2013-05-18T18:09:13Z</time>
      </trkpt>
      <trkpt lat="59.8534906" lon="17.7938817">
        <ele>29.4575</ele>
        <time>2013-05-18T18:09:14Z</time>
      </trkpt>
      <trkpt lat="59.8534457" lon="17.7937459">
        <ele>28.9769</ele>
        <time>2013-05-18T18:09:15Z</time>
      </trkpt>
      <trkpt lat="59.8534006" lon="17.7936098">
        <ele>28.9769</ele>
        <time>2013-05-18T18:09:16Z</time>
      </trkpt>
      <trkpt lat="59.8533539" lon="17.7934749">
        <ele>29.4575</ele>
        <time>2013-05-18T18:09:17Z</time>
      </trkpt>
      <trkpt lat="59.8533087" lon="17.7933401">
        <ele>28.9769</ele>
        <time>2013-05-18T18:09:18Z</time>
      </trkpt>
      <trkpt lat="59.8532628" lon="17.7932061">
        <ele>28.9769</ele>
        <time>2013-05-18T18:09:19Z</time>
      </trkpt>
      <trkpt lat="59.8532166" lon="17.7930734">
        <ele>28.9769</ele>
        <time>2013-05-18T18:09:20Z</time>
      </trkpt>
      <trkpt lat="59.8531705" lon="17.7929387">
        <ele>28.9769</ele>
        <time>2013-05-18T18:09:21Z</time>
      </trkpt>
      <trkpt lat="59.8531244" lon="17.7928026">
        <ele>28.4962</ele>
        <time>2013-05-18T18:09:22Z</time>
      </trkpt>
      <trkpt lat="59.8530741" lon="17.7926682">
        <ele>28.4962</ele>
        <time>2013-05-18T18:09:23Z</time>
      </trkpt>
      <trkpt lat="59.853024" lon="17.7925296">
        <ele>28.4962</ele>
        <time>2013-05-18T18:09:24Z</time>
      </trkpt>
      <trkpt lat="59.8529727" lon="17.7923902">
        <ele>28.4962</ele>
        <time>2013-05-18T18:09:25Z</time>
      </trkpt>
      <trkpt lat="59.8529227" lon="17.7922479">
        <ele>28.4962</ele>
        <time>2013-05-18T18:09:26Z</time>
      </trkpt>
      <trkpt lat="59.8528715" lon="17.792107">
        <ele>28.4962</ele>
        <time>2013-05-18T18:09:27Z</time>
      </trkpt>
      <trkpt lat="59.8528201" lon="17.791967">
        <ele>28.4962</ele>
        <time>2013-05-18T18:09:28Z</time>
      </trkpt>
      <trkpt lat="59.8527692" lon="17.7918261">
        <ele>28.4962</ele>
        <time>2013-05-18T18:09:29Z</time>
      </trkpt>
      <trkpt lat="59.8527176" lon="17.7916847">
        <ele>28.4962</ele>
        <time>2013-05-18T18:09:30Z</time>
      </trkpt>
      <trkpt lat="59.8526661" lon="17.7915436">
        <ele>28.4962</ele>
        <time>2013-05-18T18:09:31Z</time>
      </trkpt>
      <trkpt lat="59.8526147" lon="17.7914029">
        <ele>28.4962</ele>
        <time>2013-05-18T18:09:32Z</time>
      </trkpt>
      <trkpt lat="59.8525638" lon="17.7912629">
        <ele>28.0155</ele>
        <time>2013-05-18T18:09:33Z</time>
      </trkpt>
      <trkpt lat="59.8525111" lon="17.7911252">
        <ele>28.4962</ele>
        <time>2013-05-18T18:09:34Z</time>
      </trkpt>
      <trkpt lat="59.8524585" lon="17.7909905">
        <ele>28.4962</ele>
        <time>2013-05-18T18:09:35Z</time>
      </trkpt>
      <trkpt lat="59.8524036" lon="17.7908585">
        <ele>28.4962</ele>
        <time>2013-05-18T18:09:36Z</time>
      </trkpt>
      <trkpt lat="59.852348" lon="17.7907275">
        <ele>28.9769</ele>
        <time>2013-05-18T18:09:37Z</time>
      </trkpt>
      <trkpt lat="59.852292" lon="17.7905978">
        <ele>28.9769</ele>
        <time>2013-05-18T18:09:38Z</time>
      </trkpt>
      <trkpt lat="59.8522356" lon="17.790468">
        <ele>29.4575</ele>
        <time>2013-05-18T18:09:39Z</time>
      </trkpt>
      <trkpt lat="59.8521795" lon="17.7903389">
        <ele>29.4575</ele>
        <time>2013-05-18T18:09:40Z</time>
      </trkpt>
      <trkpt lat="59.8521224" lon="17.790212">
        <ele>29.9381</ele>
        <time>2013-05-18T18:09:41Z</time>
      </trkpt>
      <trkpt lat="59.852066" lon="17.7900844">
        <ele>30.4188</ele>
        <time>2013-05-18T18:09:42Z</time>
      </trkpt>
      <trkpt lat="59.8520127" lon="17.7899528">
        <ele>30.4188</ele>
        <time>2013-05-18T18:09:43Z</time>
      </trkpt>
      <trkpt lat="59.8519605" lon="17.7898193">
        <ele>30.8995</ele>
        <time>2013-05-18T18:09:44Z</time>
      </trkpt>
      <trkpt lat="59.8519076" lon="17.7896869">
        <ele>31.3801</ele>
        <time>2013-05-18T18:09:45Z</time>
      </trkpt>
      <trkpt lat="59.8518553" lon="17.7895557">
        <ele>31.3801</ele>
        <time>2013-05-18T18:09:46Z</time>
      </trkpt>
      <trkpt lat="59.8518036" lon="17.7894252">
        <ele>31.8607</ele>
        <time>2013-05-18T18:09:47Z</time>
      </trkpt>
      <trkpt lat="59.8517501" lon="17.7892961">
        <ele>32.3416</ele>
        <time>2013-05-18T18:09:48Z</time>
      </trkpt>
      <trkpt lat="59.8516952" lon="17.7891687">
        <ele>33.3029</ele>
        <time>2013-05-18T18:09:49Z</time>
      </trkpt>
      <trkpt lat="59.8516387" lon="17.7890407">
        <ele>33.7834</ele>
        <time>2013-05-18T18:09:50Z</time>
      </trkpt>
      <trkpt lat="59.8515857" lon="17.7889113">
        <ele>33.7834</ele>
        <time>2013-05-18T18:09:51Z</time>
      </trkpt>
      <trkpt lat="59.851531" lon="17.7887778">
        <ele>34.7449</ele>
        <time>2013-05-18T18:09:52Z</time>
      </trkpt>
      <trkpt lat="59.8514756" lon="17.7886414">
        <ele>34.7449</ele>
        <time>2013-05-18T18:09:53Z</time>
      </trkpt>
      <trkpt lat="59.8514177" lon="17.7885067">
        <ele>35.2255</ele>
        <time>2013-05-18T18:09:54Z</time>
      </trkpt>
      <trkpt lat="59.8513652" lon="17.7883709">
        <ele>35.2255</ele>
        <time>2013-05-18T18:09:55Z</time>
      </trkpt>
      <trkpt lat="59.8513087" lon="17.78824">
        <ele>35.7061</ele>
        <time>2013-05-18T18:09:56Z</time>
      </trkpt>
      <trkpt lat="59.8512516" lon="17.7881062">
        <ele>36.1868</ele>
        <time>2013-05-18T18:09:57Z</time>
      </trkpt>
      <trkpt lat="59.8511925" lon="17.7879691">
        <ele>36.6675</ele>
        <time>2013-05-18T18:09:58Z</time>
      </trkpt>
      <trkpt lat="59.8511363" lon="17.7878323">
        <ele>36.6675</ele>
        <time>2013-05-18T18:09:59Z</time>
      </trkpt>
      <trkpt lat="59.8510787" lon="17.7876936">
        <ele>36.6675</ele>
        <time>2013-05-18T18:10:00Z</time>
      </trkpt>
      <trkpt lat="59.8510187" lon="17.7875541">
        <ele>37.1481</ele>
        <time>2013-05-18T18:10:01Z</time>
      </trkpt>
      <trkpt lat="59.8509572" lon="17.7874127">
        <ele>37.1481</ele>
        <time>2013-05-18T18:10:02Z</time>
      </trkpt>
      <trkpt lat="59.8508959" lon="17.787269">
        <ele>37.1481</ele>
        <time>2013-05-18T18:10:03Z</time>
      </trkpt>
      <trkpt lat="59.8508339" lon="17.7871236">
        <ele>36.6675</ele>
        <time>2013-05-18T18:10:04Z</time>
      </trkpt>
      <trkpt lat="59.8507761" lon="17.7869754">
        <ele>36.1868</ele>
        <time>2013-05-18T18:10:05Z</time>
      </trkpt>
      <trkpt lat="59.8507188" lon="17.7868333">
        <ele>35.7061</ele>
        <time>2013-05-18T18:10:06Z</time>
      </trkpt>
      <trkpt lat="59.8506606" lon="17.7866906">
        <ele>35.2255</ele>
        <time>2013-05-18T18:10:07Z</time>
      </trkpt>
      <trkpt lat="59.8506039" lon="17.7865479">
        <ele>33.7834</ele>
        <time>2013-05-18T18:10:08Z</time>
      </trkpt>
      <trkpt lat="59.8505442" lon="17.7864021">
        <ele>33.7834</ele>
        <time>2013-05-18T18:10:09Z</time>
      </trkpt>
      <trkpt lat="59.8504929" lon="17.786257">
        <ele>32.3416</ele>
        <time>2013-05-18T18:10:10Z</time>
      </trkpt>
      <trkpt lat="59.8504432" lon="17.786114">
        <ele>31.3801</ele>
        <time>2013-05-18T18:10:11Z</time>
      </trkpt>
      <trkpt lat="59.8503853" lon="17.7859627">
        <ele>31.3801</ele>
        <time>2013-05-18T18:10:12Z</time>
      </trkpt>
      <trkpt lat="59.8503255" lon="17.785813">
        <ele>30.8995</ele>
        <time>2013-05-18T18:10:13Z</time>
      </trkpt>
      <trkpt lat="59.8502691" lon="17.7856623">
        <ele>29.9381</ele>
        <time>2013-05-18T18:10:14Z</time>
      </trkpt>
      <trkpt lat="59.8502152" lon="17.7855103">
        <ele>28.9769</ele>
        <time>2013-05-18T18:10:15Z</time>
      </trkpt>
      <trkpt lat="59.8501567" lon="17.7853494">
        <ele>28.0155</ele>
        <time>2013-05-18T18:10:16Z</time>
      </trkpt>
      <trkpt lat="59.8501008" lon="17.7851806">
        <ele>27.5349</ele>
        <time>2013-05-18T18:10:17Z</time>
      </trkpt>
      <trkpt lat="59.8500459" lon="17.7850108">
        <ele>27.5349</ele>
        <time>2013-05-18T18:10:18Z</time>
      </trkpt>
      <trkpt lat="59.849991" lon="17.7848364">
        <ele>27.5349</ele>
        <time>2013-05-18T18:10:19Z</time>
      </trkpt>
      <trkpt lat="59.8499415" lon="17.7846558">
        <ele>27.5349</ele>
        <time>2013-05-18T18:10:20Z</time>
      </trkpt>
      <trkpt lat="59.849893" lon="17.784474">
        <ele>27.0543</ele>
        <time>2013-05-18T18:10:21Z</time>
      </trkpt>
      <trkpt lat="59.8498468" lon="17.7842892">
        <ele>26.5736</ele>
        <time>2013-05-18T18:10:22Z</time>
      </trkpt>
      <trkpt lat="59.8498034" lon="17.7840974">
        <ele>26.5736</ele>
        <time>2013-05-18T18:10:23Z</time>
      </trkpt>
      <trkpt lat="59.8497651" lon="17.783897">
        <ele>26.0929</ele>
        <time>2013-05-18T18:10:24Z</time>
      </trkpt>
      <trkpt lat="59.8497277" lon="17.783696">
        <ele>26.0929</ele>
        <time>2013-05-18T18:10:25Z</time>
      </trkpt>
      <trkpt lat="59.8496869" lon="17.7834965">
        <ele>26.0929</ele>
        <time>2013-05-18T18:10:26Z</time>
      </trkpt>
      <trkpt lat="59.8496455" lon="17.7832991">
        <ele>26.0929</ele>
        <time>2013-05-18T18:10:27Z</time>
      </trkpt>
      <trkpt lat="59.8496049" lon="17.7831044">
        <ele>25.6123</ele>
        <time>2013-05-18T18:10:28Z</time>
      </trkpt>
      <trkpt lat="59.8495641" lon="17.7829117">
        <ele>25.6123</ele>
        <time>2013-05-18T18:10:29Z</time>
      </trkpt>
      <trkpt lat="59.8495242" lon="17.7827196">
        <ele>25.6123</ele>
        <time>2013-05-18T18:10:30Z</time>
      </trkpt>
      <trkpt lat="59.8494853" lon="17.7825278">
        <ele>25.1317</ele>
        <time>2013-05-18T18:10:31Z</time>
      </trkpt>
      <trkpt lat="59.849447" lon="17.7823357">
        <ele>25.1317</ele>
        <time>2013-05-18T18:10:32Z</time>
      </trkpt>
      <trkpt lat="59.8494082" lon="17.7821435">
        <ele>24.651</ele>
        <time>2013-05-18T18:10:33Z</time>
      </trkpt>
      <trkpt lat="59.8493681" lon="17.7819521">
        <ele>24.1703</ele>
        <time>2013-05-18T18:10:34Z</time>
      </trkpt>
      <trkpt lat="59.8493269" lon="17.7817628">
        <ele>24.1703</ele>
        <time>2013-05-18T18:10:35Z</time>
      </trkpt>
      <trkpt lat="59.849287" lon="17.7815757">
        <ele>24.1703</ele>
        <time>2013-05-18T18:10:36Z</time>
      </trkpt>
      <trkpt lat="59.849249" lon="17.7813898">
        <ele>24.1703</ele>
        <time>2013-05-18T18:10:37Z</time>
      </trkpt>
      <trkpt lat="59.8492119" lon="17.7812058">
        <ele>24.1703</ele>
        <time>2013-05-18T18:10:38Z</time>
      </trkpt>
      <trkpt lat="59.8491757" lon="17.7810223">
        <ele>24.1703</ele>
        <time>2013-05-18T18:10:39Z</time>
      </trkpt>
      <trkpt lat="59.8491417" lon="17.7808376">
        <ele>23.6896</ele>
        <time>2013-05-18T18:10:40Z</time>
      </trkpt>
      <trkpt lat="59.8491106" lon="17.7806511">
        <ele>23.6896</ele>
        <time>2013-05-18T18:10:41Z</time>
      </trkpt>
      <trkpt lat="59.8490828" lon="17.7804637">
        <ele>23.6896</ele>
        <time>2013-05-18T18:10:42Z</time>
      </trkpt>
      <trkpt lat="59.849056" lon="17.7802775">
        <ele>23.6896</ele>
        <time>2013-05-18T18:10:43Z</time>
      </trkpt>
      <trkpt lat="59.849026" lon="17.7800948">
        <ele>23.6896</ele>
        <time>2013-05-18T18:10:44Z</time>
      </trkpt>
      <trkpt lat="59.8489913" lon="17.7799182">
        <ele>24.1703</ele>
        <time>2013-05-18T18:10:45Z</time>
      </trkpt>
      <trkpt lat="59.848955" lon="17.7797451">
        <ele>24.651</ele>
        <time>2013-05-18T18:10:46Z</time>
      </trkpt>
      <trkpt lat="59.848926" lon="17.7795677">
        <ele>24.651</ele>
        <time>2013-05-18T18:10:47Z</time>
      </trkpt>
      <trkpt lat="59.8489032" lon="17.7793836">
        <ele>25.1317</ele>
        <time>2013-05-18T18:10:48Z</time>
      </trkpt>
      <trkpt lat="59.8488848" lon="17.7791972">
        <ele>25.1317</ele>
        <time>2013-05-18T18:10:49Z</time>
      </trkpt>
      <trkpt lat="59.8488683" lon="17.7790095">
        <ele>25.1317</ele>
        <time>2013-05-18T18:10:50Z</time>
      </trkpt>
      <trkpt lat="59.8488499" lon="17.778821">
        <ele>25.6123</ele>
        <time>2013-05-18T18:10:51Z</time>
      </trkpt>
      <trkpt lat="59.8488354" lon="17.7786327">
        <ele>26.0929</ele>
        <time>2013-05-18T18:10:52Z</time>
      </trkpt>
      <trkpt lat="59.8488223" lon="17.7784439">
        <ele>26.0929</ele>
        <time>2013-05-18T18:10:53Z</time>
      </trkpt>
      <trkpt lat="59.8488139" lon="17.7782542">
        <ele>26.0929</ele>
        <time>2013-05-18T18:10:54Z</time>
      </trkpt>
      <trkpt lat="59.8488098" lon="17.778063">
        <ele>26.0929</ele>
        <time>2013-05-18T18:10:55Z</time>
      </trkpt>
      <trkpt lat="59.8488061" lon="17.7778719">
        <ele>26.5736</ele>
        <time>2013-05-18T18:10:56Z</time>
      </trkpt>
      <trkpt lat="59.8487986" lon="17.7776835">
        <ele>26.5736</ele>
        <time>2013-05-18T18:10:57Z</time>
      </trkpt>
      <trkpt lat="59.8487877" lon="17.7774958">
        <ele>26.5736</ele>
        <time>2013-05-18T18:10:58Z</time>
      </trkpt>
      <trkpt lat="59.848772" lon="17.7773061">
        <ele>26.0929</ele>
        <time>2013-05-18T18:10:59Z</time>
      </trkpt>
      <trkpt lat="59.8487596" lon="17.7771144">
        <ele>26.0929</ele>
        <time>2013-05-18T18:11:00Z</time>
      </trkpt>
      <trkpt lat="59.8487506" lon="17.7769214">
        <ele>26.0929</ele>
        <time>2013-05-18T18:11:01Z</time>
      </trkpt>
      <trkpt lat="59.8487431" lon="17.7767268">
        <ele>25.6123</ele>
        <time>2013-05-18T18:11:02Z</time>
      </trkpt>
      <trkpt lat="59.8487362" lon="17.7765314">
        <ele>25.1317</ele>
        <time>2013-05-18T18:11:03Z</time>
      </trkpt>
      <trkpt lat="59.8487296" lon="17.776334">
        <ele>25.1317</ele>
        <time>2013-05-18T18:11:04Z</time>
      </trkpt>
      <trkpt lat="59.8487214" lon="17.7761335">
        <ele>24.651</ele>
        <time>2013-05-18T18:11:05Z</time>
      </trkpt>
      <trkpt lat="59.8487108" lon="17.7759284">
        <ele>24.651</ele>
        <time>2013-05-18T18:11:06Z</time>
      </trkpt>
      <trkpt lat="59.8487" lon="17.7757201">
        <ele>24.1703</ele>
        <time>2013-05-18T18:11:07Z</time>
      </trkpt>
      <trkpt lat="59.8486876" lon="17.7755099">
        <ele>24.1703</ele>
        <time>2013-05-18T18:11:08Z</time>
      </trkpt>
      <trkpt lat="59.8486712" lon="17.7752959">
        <ele>23.6896</ele>
        <time>2013-05-18T18:11:09Z</time>
      </trkpt>
      <trkpt lat="59.8486515" lon="17.7750778">
        <ele>23.209</ele>
        <time>2013-05-18T18:11:10Z</time>
      </trkpt>
      <trkpt lat="59.8486306" lon="17.774858">
        <ele>22.7283</ele>
        <time>2013-05-18T18:11:11Z</time>
      </trkpt>
      <trkpt lat="59.8486106" lon="17.7746363">
        <ele>22.2476</ele>
        <time>2013-05-18T18:11:12Z</time>
      </trkpt>
      <trkpt lat="59.8485865" lon="17.7744143">
        <ele>21.767</ele>
        <time>2013-05-18T18:11:13Z</time>
      </trkpt>
      <trkpt lat="59.8485611" lon="17.7741934">
        <ele>21.2864</ele>
        <time>2013-05-18T18:11:14Z</time>
      </trkpt>
      <trkpt lat="59.8485348" lon="17.7739719">
        <ele>20.8057</ele>
        <time>2013-05-18T18:11:15Z</time>
      </trkpt>
      <trkpt lat="59.8485109" lon="17.773748">
        <ele>20.325</ele>
        <time>2013-05-18T18:11:16Z</time>
      </trkpt>
      <trkpt lat="59.8484872" lon="17.7735217">
        <ele>20.325</ele>
        <time>2013-05-18T18:11:17Z</time>
      </trkpt>
      <trkpt lat="59.848464" lon="17.7732929">
        <ele>19.8444</ele>
        <time>2013-05-18T18:11:18Z</time>
      </trkpt>
      <trkpt lat="59.84844" lon="17.7730598">
        <ele>18.8831</ele>
        <time>2013-05-18T18:11:19Z</time>
      </trkpt>
      <trkpt lat="59.8484121" lon="17.7728219">
        <ele>17.9218</ele>
        <time>2013-05-18T18:11:20Z</time>
      </trkpt>
      <trkpt lat="59.8483793" lon="17.7725811">
        <ele>17.4412</ele>
        <time>2013-05-18T18:11:21Z</time>
      </trkpt>
      <trkpt lat="59.8483426" lon="17.7723402">
        <ele>16.9604</ele>
        <time>2013-05-18T18:11:22Z</time>
      </trkpt>
      <trkpt lat="59.8483024" lon="17.7721003">
        <ele>16.4797</ele>
        <time>2013-05-18T18:11:23Z</time>
      </trkpt>
      <trkpt lat="59.8482598" lon="17.7718636">
        <ele>15.999</ele>
        <time>2013-05-18T18:11:24Z</time>
      </trkpt>
      <trkpt lat="59.8482162" lon="17.7716315">
        <ele>15.5184</ele>
        <time>2013-05-18T18:11:25Z</time>
      </trkpt>
      <trkpt lat="59.8481748" lon="17.7714037">
        <ele>15.5184</ele>
        <time>2013-05-18T18:11:26Z</time>
      </trkpt>
      <trkpt lat="59.8481378" lon="17.7711787">
        <ele>15.0377</ele>
        <time>2013-05-18T18:11:27Z</time>
      </trkpt>
      <trkpt lat="59.8481059" lon="17.7709509">
        <ele>14.557</ele>
        <time>2013-05-18T18:11:28Z</time>
      </trkpt>
      <trkpt lat="59.8480826" lon="17.7707224">
        <ele>14.557</ele>
        <time>2013-05-18T18:11:29Z</time>
      </trkpt>
      <trkpt lat="59.8480624" lon="17.7704977">
        <ele>14.0764</ele>
        <time>2013-05-18T18:11:30Z</time>
      </trkpt>
      <trkpt lat="59.8480347" lon="17.7702812">
        <ele>14.0764</ele>
        <time>2013-05-18T18:11:31Z</time>
      </trkpt>
      <trkpt lat="59.8479883" lon="17.7700791">
        <ele>13.5958</ele>
        <time>2013-05-18T18:11:32Z</time>
      </trkpt>
      <trkpt lat="59.8479319" lon="17.7698888">
        <ele>13.5958</ele>
        <time>2013-05-18T18:11:33Z</time>
      </trkpt>
      <trkpt lat="59.8478775" lon="17.7696977">
        <ele>13.5958</ele>
        <time>2013-05-18T18:11:34Z</time>
      </trkpt>
      <trkpt lat="59.8478327" lon="17.769502">
        <ele>13.5958</ele>
        <time>2013-05-18T18:11:35Z</time>
      </trkpt>
      <trkpt lat="59.847796" lon="17.7693013">
        <ele>13.5958</ele>
        <time>2013-05-18T18:11:36Z</time>
      </trkpt>
      <trkpt lat="59.8477633" lon="17.7690983">
        <ele>13.5958</ele>
        <time>2013-05-18T18:11:37Z</time>
      </trkpt>
      <trkpt lat="59.8477336" lon="17.7688976">
        <ele>13.5958</ele>
        <time>2013-05-18T18:11:38Z</time>
      </trkpt>
      <trkpt lat="59.8477055" lon="17.7687004">
        <ele>13.5958</ele>
        <time>2013-05-18T18:11:39Z</time>
      </trkpt>
      <trkpt lat="59.8476781" lon="17.7685062">
        <ele>13.5958</ele>
        <time>2013-05-18T18:11:40Z</time>
      </trkpt>
      <trkpt lat="59.8476501" lon="17.7683143">
        <ele>13.5958</ele>
        <time>2013-05-18T18:11:41Z</time>
      </trkpt>
      <trkpt lat="59.8476207" lon="17.7681254">
        <ele>13.5958</ele>
        <time>2013-05-18T18:11:42Z</time>
      </trkpt>
      <trkpt lat="59.8475914" lon="17.7679396">
        <ele>13.5958</ele>
        <time>2013-05-18T18:11:43Z</time>
      </trkpt>
      <trkpt lat="59.8475605" lon="17.7677556">
        <ele>13.5958</ele>
        <time>2013-05-18T18:11:44Z</time>
      </trkpt>
      <trkpt lat="59.8475299" lon="17.7675735">
        <ele>13.5958</ele>
        <time>2013-05-18T18:11:45Z</time>
      </trkpt>
      <trkpt lat="59.8474994" lon="17.7673932">
        <ele>14.0764</ele>
        <time>2013-05-18T18:11:46Z</time>
      </trkpt>
      <trkpt lat="59.8474702" lon="17.7672149">
        <ele>14.0764</ele>
        <time>2013-05-18T18:11:47Z</time>
      </trkpt>
      <trkpt lat="59.8474418" lon="17.7670392">
        <ele>14.0764</ele>
        <time>2013-05-18T18:11:48Z</time>
      </trkpt>
      <trkpt lat="59.8474131" lon="17.7668674">
        <ele>14.0764</ele>
        <time>2013-05-18T18:11:49Z</time>
      </trkpt>
      <trkpt lat="59.8473858" lon="17.7667009">
        <ele>14.0764</ele>
        <time>2013-05-18T18:11:50Z</time>
      </trkpt>
      <trkpt lat="59.8473604" lon="17.766538">
        <ele>14.557</ele>
        <time>2013-05-18T18:11:51Z</time>
      </trkpt>
      <trkpt lat="59.8473354" lon="17.7663768">
        <ele>14.557</ele>
        <time>2013-05-18T18:11:52Z</time>
      </trkpt>
      <trkpt lat="59.8473103" lon="17.7662161">
        <ele>14.557</ele>
        <time>2013-05-18T18:11:53Z</time>
      </trkpt>
      <trkpt lat="59.8472852" lon="17.7660562">
        <ele>14.0764</ele>
        <time>2013-05-18T18:11:54Z</time>
      </trkpt>
      <trkpt lat="59.8472588" lon="17.7658991">
        <ele>14.0764</ele>
        <time>2013-05-18T18:11:55Z</time>
      </trkpt>
      <trkpt lat="59.847231" lon="17.7657448">
        <ele>14.0764</ele>
        <time>2013-05-18T18:11:56Z</time>
      </trkpt>
      <trkpt lat="59.8472072" lon="17.7655889">
        <ele>14.0764</ele>
        <time>2013-05-18T18:11:57Z</time>
      </trkpt>
      <trkpt lat="59.8471973" lon="17.7654287">
        <ele>14.0764</ele>
        <time>2013-05-18T18:11:58Z</time>
      </trkpt>
      <trkpt lat="59.8472108" lon="17.7652697">
        <ele>14.0764</ele>
        <time>2013-05-18T18:11:59Z</time>
      </trkpt>
      <trkpt lat="59.8472463" lon="17.7651186">
        <ele>14.0764</ele>
        <time>2013-05-18T18:12:00Z</time>
      </trkpt>
      <trkpt lat="59.8473028" lon="17.7650009">
        <ele>14.0764</ele>
        <time>2013-05-18T18:12:01Z</time>
      </trkpt>
      <trkpt lat="59.8473579" lon="17.7648875">
        <ele>14.0764</ele>
        <time>2013-05-18T18:12:02Z</time>
      </trkpt>
      <trkpt lat="59.847414" lon="17.7647802">
        <ele>14.0764</ele>
        <time>2013-05-18T18:12:03Z</time>
      </trkpt>
      <trkpt lat="59.8474692" lon="17.7646709">
        <ele>14.0764</ele>
        <time>2013-05-18T18:12:04Z</time>
      </trkpt>
      <trkpt lat="59.847524" lon="17.7645575">
        <ele>14.0764</ele>
        <time>2013-05-18T18:12:05Z</time>
      </trkpt>
      <trkpt lat="59.8475791" lon="17.764444">
        <ele>14.557</ele>
        <time>2013-05-18T18:12:06Z</time>
      </trkpt>
      <trkpt lat="59.8476345" lon="17.7643328">
        <ele>14.557</ele>
        <time>2013-05-18T18:12:07Z</time>
      </trkpt>
      <trkpt lat="59.8476905" lon="17.7642205">
        <ele>15.0377</ele>
        <time>2013-05-18T18:12:08Z</time>
      </trkpt>
      <trkpt lat="59.8477452" lon="17.7641086">
        <ele>15.5184</ele>
        <time>2013-05-18T18:12:09Z</time>
      </trkpt>
      <trkpt lat="59.8478006" lon="17.7639972">
        <ele>15.5184</ele>
        <time>2013-05-18T18:12:10Z</time>
      </trkpt>
      <trkpt lat="59.8478573" lon="17.7638866">
        <ele>15.999</ele>
        <time>2013-05-18T18:12:11Z</time>
      </trkpt>
      <trkpt lat="59.8479128" lon="17.7637705">
        <ele>16.4797</ele>
        <time>2013-05-18T18:12:12Z</time>
      </trkpt>
      <trkpt lat="59.8479674" lon="17.7636577">
        <ele>16.4797</ele>
        <time>2013-05-18T18:12:13Z</time>
      </trkpt>
      <trkpt lat="59.8480193" lon="17.7635343">
        <ele>16.9604</ele>
        <time>2013-05-18T18:12:14Z</time>
      </trkpt>
      <trkpt lat="59.8480744" lon="17.7634216">
        <ele>16.4797</ele>
        <time>2013-05-18T18:12:15Z</time>
      </trkpt>
      <trkpt lat="59.8481309" lon="17.7633157">
        <ele>16.4797</ele>
        <time>2013-05-18T18:12:16Z</time>
      </trkpt>
      <trkpt lat="59.8481871" lon="17.7632079">
        <ele>16.4797</ele>
        <time>2013-05-18T18:12:17Z</time>
      </trkpt>
      <trkpt lat="59.8482432" lon="17.7630916">
        <ele>16.4797</ele>
        <time>2013-05-18T18:12:18Z</time>
      </trkpt>
      <trkpt lat="59.8482939" lon="17.7629671">
        <ele>16.9604</ele>
        <time>2013-05-18T18:12:19Z</time>
      </trkpt>
      <trkpt lat="59.8483302" lon="17.762831">
        <ele>16.9604</ele>
        <time>2013-05-18T18:12:20Z</time>
      </trkpt>
      <trkpt lat="59.8483518" lon="17.7626876">
        <ele>16.4797</ele>
        <time>2013-05-18T18:12:21Z</time>
      </trkpt>
      <trkpt lat="59.8483623" lon="17.7625404">
        <ele>16.4797</ele>
        <time>2013-05-18T18:12:22Z</time>
      </trkpt>
      <trkpt lat="59.8483685" lon="17.7623927">
        <ele>15.999</ele>
        <time>2013-05-18T18:12:23Z</time>
      </trkpt>
      <trkpt lat="59.8483723" lon="17.7622434">
        <ele>15.999</ele>
        <time>2013-05-18T18:12:24Z</time>
      </trkpt>
      <trkpt lat="59.8483732" lon="17.7620924">
        <ele>15.5184</ele>
        <time>2013-05-18T18:12:25Z</time>
      </trkpt>
      <trkpt lat="59.8483746" lon="17.7619399">
        <ele>15.5184</ele>
        <time>2013-05-18T18:12:26Z</time>
      </trkpt>
      <trkpt lat="59.8483774" lon="17.7617877">
        <ele>15.0377</ele>
        <time>2013-05-18T18:12:27Z</time>
      </trkpt>
      <trkpt lat="59.8483789" lon="17.7616353">
        <ele>15.0377</ele>
        <time>2013-05-18T18:12:28Z</time>
      </trkpt>
      <trkpt lat="59.8483805" lon="17.7614788">
        <ele>15.0377</ele>
        <time>2013-05-18T18:12:29Z</time>
      </trkpt>
      <trkpt lat="59.8483867" lon="17.7613318">
        <ele>15.5184</ele>
        <time>2013-05-18T18:12:30Z</time>
      </trkpt>
      <trkpt lat="59.8483924" lon="17.7611802">
        <ele>15.999</ele>
        <time>2013-05-18T18:12:31Z</time>
      </trkpt>
      <trkpt lat="59.8484003" lon="17.7610251">
        <ele>16.4797</ele>
        <time>2013-05-18T18:12:32Z</time>
      </trkpt>
      <trkpt lat="59.8484088" lon="17.7608715">
        <ele>16.4797</ele>
        <time>2013-05-18T18:12:33Z</time>
      </trkpt>
      <trkpt lat="59.8484172" lon="17.7607184">
        <ele>16.9604</ele>
        <time>2013-05-18T18:12:34Z</time>
      </trkpt>
      <trkpt lat="59.8484253" lon="17.7605636">
        <ele>17.4412</ele>
        <time>2013-05-18T18:12:35Z</time>
      </trkpt>
      <trkpt lat="59.8484324" lon="17.7604093">
        <ele>17.9218</ele>
        <time>2013-05-18T18:12:36Z</time>
      </trkpt>
      <trkpt lat="59.8484369" lon="17.7602586">
        <ele>17.9218</ele>
        <time>2013-05-18T18:12:37Z</time>
      </trkpt>
      <trkpt lat="59.8484443" lon="17.7601054">
        <ele>17.9218</ele>
        <time>2013-05-18T18:12:38Z</time>
      </trkpt>
      <trkpt lat="59.8484478" lon="17.7599295">
        <ele>17.9218</ele>
        <time>2013-05-18T18:12:39Z</time>
      </trkpt>
      <trkpt lat="59.8484519" lon="17.7597708">
        <ele>18.4023</ele>
        <time>2013-05-18T18:12:40Z</time>
      </trkpt>
      <trkpt lat="59.8484554" lon="17.75962">
        <ele>17.9218</ele>
        <time>2013-05-18T18:12:41Z</time>
      </trkpt>
      <trkpt lat="59.8484552" lon="17.7594612">
        <ele>16.9604</ele>
        <time>2013-05-18T18:12:42Z</time>
      </trkpt>
      <trkpt lat="59.8484597" lon="17.7593118">
        <ele>16.9604</ele>
        <time>2013-05-18T18:12:43Z</time>
      </trkpt>
      <trkpt lat="59.8484652" lon="17.7591636">
        <ele>16.9604</ele>
        <time>2013-05-18T18:12:44Z</time>
      </trkpt>
      <trkpt lat="59.8484695" lon="17.7590157">
        <ele>16.4797</ele>
        <time>2013-05-18T18:12:45Z</time>
      </trkpt>
      <trkpt lat="59.8484727" lon="17.7588671">
        <ele>15.5184</ele>
        <time>2013-05-18T18:12:46Z</time>
      </trkpt>
      <trkpt lat="59.8484759" lon="17.7587081">
        <ele>15.0377</ele>
        <time>2013-05-18T18:12:47Z</time>
      </trkpt>
      <trkpt lat="59.8484792" lon="17.7585476">
        <ele>14.557</ele>
        <time>2013-05-18T18:12:48Z</time>
      </trkpt>
      <trkpt lat="59.8484793" lon="17.7583861">
        <ele>14.557</ele>
        <time>2013-05-18T18:12:49Z</time>
      </trkpt>
      <trkpt lat="59.8484799" lon="17.7582295">
        <ele>14.557</ele>
        <time>2013-05-18T18:12:50Z</time>
      </trkpt>
      <trkpt lat="59.848481" lon="17.7580734">
        <ele>14.557</ele>
        <time>2013-05-18T18:12:51Z</time>
      </trkpt>
      <trkpt lat="59.8484823" lon="17.7579182">
        <ele>15.0377</ele>
        <time>2013-05-18T18:12:52Z</time>
      </trkpt>
      <trkpt lat="59.8484837" lon="17.7577634">
        <ele>15.5184</ele>
        <time>2013-05-18T18:12:53Z</time>
      </trkpt>
      <trkpt lat="59.8484852" lon="17.7576073">
        <ele>15.999</ele>
        <time>2013-05-18T18:12:54Z</time>
      </trkpt>
      <trkpt lat="59.8484867" lon="17.7574503">
        <ele>16.4797</ele>
        <time>2013-05-18T18:12:55Z</time>
      </trkpt>
      <trkpt lat="59.848487" lon="17.7572904">
        <ele>16.9604</ele>
        <time>2013-05-18T18:12:56Z</time>
      </trkpt>
      <trkpt lat="59.848486" lon="17.757127">
        <ele>16.9604</ele>
        <time>2013-05-18T18:12:57Z</time>
      </trkpt>
      <trkpt lat="59.848484" lon="17.7569605">
        <ele>16.9604</ele>
        <time>2013-05-18T18:12:58Z</time>
      </trkpt>
      <trkpt lat="59.8484804" lon="17.7567942">
        <ele>16.9604</ele>
        <time>2013-05-18T18:12:59Z</time>
      </trkpt>
      <trkpt lat="59.8484743" lon="17.7566278">
        <ele>16.4797</ele>
        <time>2013-05-18T18:13:00Z</time>
      </trkpt>
      <trkpt lat="59.8484666" lon="17.7564607">
        <ele>16.4797</ele>
        <time>2013-05-18T18:13:01Z</time>
      </trkpt>
      <trkpt lat="59.8484566" lon="17.7562973">
        <ele>15.999</ele>
        <time>2013-05-18T18:13:02Z</time>
      </trkpt>
      <trkpt lat="59.8484462" lon="17.7561328">
        <ele>15.999</ele>
        <time>2013-05-18T18:13:03Z</time>
      </trkpt>
      <trkpt lat="59.8484339" lon="17.7559752">
        <ele>15.5184</ele>
        <time>2013-05-18T18:13:04Z</time>
      </trkpt>
      <trkpt lat="59.8484219" lon="17.7558146">
        <ele>15.0377</ele>
        <time>2013-05-18T18:13:05Z</time>
      </trkpt>
      <trkpt lat="59.8484079" lon="17.7556481">
        <ele>14.0764</ele>
        <time>2013-05-18T18:13:06Z</time>
      </trkpt>
      <trkpt lat="59.8483933" lon="17.7554823">
        <ele>13.1151</ele>
        <time>2013-05-18T18:13:07Z</time>
      </trkpt>
      <trkpt lat="59.84838" lon="17.7553208">
        <ele>14.557</ele>
        <time>2013-05-18T18:13:08Z</time>
      </trkpt>
      <trkpt lat="59.8483627" lon="17.7551565">
        <ele>14.0764</ele>
        <time>2013-05-18T18:13:09Z</time>
      </trkpt>
      <trkpt lat="59.848343" lon="17.7549914">
        <ele>13.1151</ele>
        <time>2013-05-18T18:13:10Z</time>
      </trkpt>
      <trkpt lat="59.8483261" lon="17.75483">
        <ele>14.0764</ele>
        <time>2013-05-18T18:13:11Z</time>
      </trkpt>
      <trkpt lat="59.8483091" lon="17.7546694">
        <ele>15.0377</ele>
        <time>2013-05-18T18:13:12Z</time>
      </trkpt>
      <trkpt lat="59.8482894" lon="17.7545083">
        <ele>15.0377</ele>
        <time>2013-05-18T18:13:13Z</time>
      </trkpt>
      <trkpt lat="59.8482696" lon="17.7543489">
        <ele>14.557</ele>
        <time>2013-05-18T18:13:14Z</time>
      </trkpt>
      <trkpt lat="59.8482514" lon="17.7541917">
        <ele>14.557</ele>
        <time>2013-05-18T18:13:15Z</time>
      </trkpt>
      <trkpt lat="59.8482321" lon="17.7540341">
        <ele>14.557</ele>
        <time>2013-05-18T18:13:16Z</time>
      </trkpt>
      <trkpt lat="59.8482126" lon="17.7538781">
        <ele>14.557</ele>
        <time>2013-05-18T18:13:17Z</time>
      </trkpt>
      <trkpt lat="59.8481919" lon="17.7537235">
        <ele>14.0764</ele>
        <time>2013-05-18T18:13:18Z</time>
      </trkpt>
      <trkpt lat="59.8481715" lon="17.75357">
        <ele>13.5958</ele>
        <time>2013-05-18T18:13:19Z</time>
      </trkpt>
      <trkpt lat="59.8481509" lon="17.7534145">
        <ele>13.5958</ele>
        <time>2013-05-18T18:13:20Z</time>
      </trkpt>
      <trkpt lat="59.8481308" lon="17.7532556">
        <ele>13.1151</ele>
        <time>2013-05-18T18:13:21Z</time>
      </trkpt>
      <trkpt lat="59.8481116" lon="17.7530976">
        <ele>13.1151</ele>
        <time>2013-05-18T18:13:22Z</time>
      </trkpt>
      <trkpt lat="59.8480933" lon="17.7529433">
        <ele>12.1538</ele>
        <time>2013-05-18T18:13:23Z</time>
      </trkpt>
      <trkpt lat="59.8480739" lon="17.7527915">
        <ele>12.1538</ele>
        <time>2013-05-18T18:13:24Z</time>
      </trkpt>
      <trkpt lat="59.848054" lon="17.7526435">
        <ele>12.1538</ele>
        <time>2013-05-18T18:13:25Z</time>
      </trkpt>
      <trkpt lat="59.8480381" lon="17.7525026">
        <ele>12.6344</ele>
        <time>2013-05-18T18:13:26Z</time>
      </trkpt>
      <trkpt lat="59.848023" lon="17.7523599">
        <ele>13.1151</ele>
        <time>2013-05-18T18:13:27Z</time>
      </trkpt>
      <trkpt lat="59.8480095" lon="17.7522144">
        <ele>13.5958</ele>
        <time>2013-05-18T18:13:28Z</time>
      </trkpt>
      <trkpt lat="59.8479944" lon="17.7520729">
        <ele>14.0764</ele>
        <time>2013-05-18T18:13:29Z</time>
      </trkpt>
      <trkpt lat="59.847976" lon="17.7519371">
        <ele>14.0764</ele>
        <time>2013-05-18T18:13:30Z</time>
      </trkpt>
      <trkpt lat="59.8479576" lon="17.7518021">
        <ele>14.0764</ele>
        <time>2013-05-18T18:13:31Z</time>
      </trkpt>
      <trkpt lat="59.8479407" lon="17.7516677">
        <ele>14.0764</ele>
        <time>2013-05-18T18:13:32Z</time>
      </trkpt>
      <trkpt lat="59.8479257" lon="17.7515322">
        <ele>14.0764</ele>
        <time>2013-05-18T18:13:33Z</time>
      </trkpt>
      <trkpt lat="59.8479109" lon="17.751395">
        <ele>14.0764</ele>
        <time>2013-05-18T18:13:34Z</time>
      </trkpt>
      <trkpt lat="59.8478972" lon="17.7512573">
        <ele>14.0764</ele>
        <time>2013-05-18T18:13:35Z</time>
      </trkpt>
      <trkpt lat="59.8478852" lon="17.7511229">
        <ele>15.5184</ele>
        <time>2013-05-18T18:13:36Z</time>
      </trkpt>
      <trkpt lat="59.8478717" lon="17.7509918">
        <ele>15.999</ele>
        <time>2013-05-18T18:13:37Z</time>
      </trkpt>
      <trkpt lat="59.8478555" lon="17.7508547">
        <ele>15.999</ele>
        <time>2013-05-18T18:13:38Z</time>
      </trkpt>
      <trkpt lat="59.8478442" lon="17.7507245">
        <ele>15.999</ele>
        <time>2013-05-18T18:13:39Z</time>
      </trkpt>
      <trkpt lat="59.8478341" lon="17.7505939">
        <ele>15.999</ele>
        <time>2013-05-18T18:13:40Z</time>
      </trkpt>
      <trkpt lat="59.8478272" lon="17.7504646">
        <ele>16.4797</ele>
        <time>2013-05-18T18:13:41Z</time>
      </trkpt>
      <trkpt lat="59.847822" lon="17.7503388">
        <ele>16.4797</ele>
        <time>2013-05-18T18:13:42Z</time>
      </trkpt>
      <trkpt lat="59.8478177" lon="17.7502168">
        <ele>16.4797</ele>
        <time>2013-05-18T18:13:43Z</time>
      </trkpt>
      <trkpt lat="59.8478121" lon="17.7500888">
        <ele>16.9604</ele>
        <time>2013-05-18T18:13:44Z</time>
      </trkpt>
      <trkpt lat="59.8478064" lon="17.7499541">
        <ele>16.9604</ele>
        <time>2013-05-18T18:13:45Z</time>
      </trkpt>
      <trkpt lat="59.8477987" lon="17.7498176">
        <ele>16.9604</ele>
        <time>2013-05-18T18:13:46Z</time>
      </trkpt>
      <trkpt lat="59.8477889" lon="17.7496607">
        <ele>16.9604</ele>
        <time>2013-05-18T18:13:47Z</time>
      </trkpt>
      <trkpt lat="59.8477775" lon="17.7495151">
        <ele>17.4412</ele>
        <time>2013-05-18T18:13:48Z</time>
      </trkpt>
      <trkpt lat="59.8477664" lon="17.7493711">
        <ele>17.4412</ele>
        <time>2013-05-18T18:13:49Z</time>
      </trkpt>
      <trkpt lat="59.8477599" lon="17.7492235">
        <ele>17.9218</ele>
        <time>2013-05-18T18:13:50Z</time>
      </trkpt>
      <trkpt lat="59.8477555" lon="17.7490712">
        <ele>17.9218</ele>
        <time>2013-05-18T18:13:51Z</time>
      </trkpt>
      <trkpt lat="59.8477516" lon="17.7489157">
        <ele>17.9218</ele>
        <time>2013-05-18T18:13:52Z</time>
      </trkpt>
      <trkpt lat="59.8477475" lon="17.7487608">
        <ele>18.4023</ele>
        <time>2013-05-18T18:13:53Z</time>
      </trkpt>
      <trkpt lat="59.8477443" lon="17.7486064">
        <ele>18.4023</ele>
        <time>2013-05-18T18:13:54Z</time>
      </trkpt>
      <trkpt lat="59.8477418" lon="17.7484505">
        <ele>19.8444</ele>
        <time>2013-05-18T18:13:55Z</time>
      </trkpt>
      <trkpt lat="59.8477397" lon="17.7482921">
        <ele>19.8444</ele>
        <time>2013-05-18T18:13:56Z</time>
      </trkpt>
      <trkpt lat="59.847737" lon="17.7481289">
        <ele>18.4023</ele>
        <time>2013-05-18T18:13:57Z</time>
      </trkpt>
      <trkpt lat="59.847737" lon="17.7479642">
        <ele>18.4023</ele>
        <time>2013-05-18T18:13:58Z</time>
      </trkpt>
      <trkpt lat="59.8477366" lon="17.7477959">
        <ele>17.9218</ele>
        <time>2013-05-18T18:13:59Z</time>
      </trkpt>
      <trkpt lat="59.8477369" lon="17.7476275">
        <ele>17.9218</ele>
        <time>2013-05-18T18:14:00Z</time>
      </trkpt>
      <trkpt lat="59.8477374" lon="17.7474595">
        <ele>17.4412</ele>
        <time>2013-05-18T18:14:01Z</time>
      </trkpt>
      <trkpt lat="59.8477384" lon="17.7472891">
        <ele>16.9604</ele>
        <time>2013-05-18T18:14:02Z</time>
      </trkpt>
      <trkpt lat="59.8477408" lon="17.7471151">
        <ele>16.9604</ele>
        <time>2013-05-18T18:14:03Z</time>
      </trkpt>
      <trkpt lat="59.8477434" lon="17.7469401">
        <ele>16.4797</ele>
        <time>2013-05-18T18:14:04Z</time>
      </trkpt>
      <trkpt lat="59.8477469" lon="17.7467655">
        <ele>16.4797</ele>
        <time>2013-05-18T18:14:05Z</time>
      </trkpt>
      <trkpt lat="59.8477511" lon="17.7465872">
        <ele>16.4797</ele>
        <time>2013-05-18T18:14:06Z</time>
      </trkpt>
      <trkpt lat="59.847754" lon="17.7464053">
        <ele>15.999</ele>
        <time>2013-05-18T18:14:07Z</time>
      </trkpt>
      <trkpt lat="59.8477563" lon="17.7462225">
        <ele>15.999</ele>
        <time>2013-05-18T18:14:08Z</time>
      </trkpt>
      <trkpt lat="59.8477582" lon="17.7460375">
        <ele>15.5184</ele>
        <time>2013-05-18T18:14:09Z</time>
      </trkpt>
      <trkpt lat="59.8477609" lon="17.7458502">
        <ele>15.5184</ele>
        <time>2013-05-18T18:14:10Z</time>
      </trkpt>
      <trkpt lat="59.8477638" lon="17.7456631">
        <ele>15.0377</ele>
        <time>2013-05-18T18:14:11Z</time>
      </trkpt>
      <trkpt lat="59.8477661" lon="17.7454747">
        <ele>14.557</ele>
        <time>2013-05-18T18:14:12Z</time>
      </trkpt>
      <trkpt lat="59.8477686" lon="17.7452853">
        <ele>14.557</ele>
        <time>2013-05-18T18:14:13Z</time>
      </trkpt>
      <trkpt lat="59.8477709" lon="17.7450954">
        <ele>14.0764</ele>
        <time>2013-05-18T18:14:14Z</time>
      </trkpt>
      <trkpt lat="59.8477734" lon="17.7449042">
        <ele>14.0764</ele>
        <time>2013-05-18T18:14:15Z</time>
      </trkpt>
      <trkpt lat="59.8477754" lon="17.7447096">
        <ele>13.5958</ele>
        <time>2013-05-18T18:14:16Z</time>
      </trkpt>
      <trkpt lat="59.8477771" lon="17.7445152">
        <ele>13.5958</ele>
        <time>2013-05-18T18:14:17Z</time>
      </trkpt>
      <trkpt lat="59.8477791" lon="17.7443225">
        <ele>13.5958</ele>
        <time>2013-05-18T18:14:18Z</time>
      </trkpt>
      <trkpt lat="59.8477807" lon="17.7441317">
        <ele>13.5958</ele>
        <time>2013-05-18T18:14:19Z</time>
      </trkpt>
      <trkpt lat="59.8477828" lon="17.7439426">
        <ele>13.5958</ele>
        <time>2013-05-18T18:14:20Z</time>
      </trkpt>
      <trkpt lat="59.8477853" lon="17.7437588">
        <ele>13.5958</ele>
        <time>2013-05-18T18:14:21Z</time>
      </trkpt>
      <trkpt lat="59.847788" lon="17.7435771">
        <ele>13.5958</ele>
        <time>2013-05-18T18:14:22Z</time>
      </trkpt>
      <trkpt lat="59.8477909" lon="17.7433967">
        <ele>13.1151</ele>
        <time>2013-05-18T18:14:23Z</time>
      </trkpt>
      <trkpt lat="59.8477946" lon="17.7432185">
        <ele>13.1151</ele>
        <time>2013-05-18T18:14:24Z</time>
      </trkpt>
      <trkpt lat="59.8477978" lon="17.7430403">
        <ele>13.1151</ele>
        <time>2013-05-18T18:14:25Z</time>
      </trkpt>
      <trkpt lat="59.8478003" lon="17.7428605">
        <ele>13.1151</ele>
        <time>2013-05-18T18:14:26Z</time>
      </trkpt>
      <trkpt lat="59.8478024" lon="17.7426802">
        <ele>13.1151</ele>
        <time>2013-05-18T18:14:27Z</time>
      </trkpt>
      <trkpt lat="59.847805" lon="17.7424975">
        <ele>13.1151</ele>
        <time>2013-05-18T18:14:28Z</time>
      </trkpt>
      <trkpt lat="59.8478077" lon="17.7423164">
        <ele>13.1151</ele>
        <time>2013-05-18T18:14:29Z</time>
      </trkpt>
      <trkpt lat="59.847811" lon="17.7421375">
        <ele>13.5958</ele>
        <time>2013-05-18T18:14:30Z</time>
      </trkpt>
      <trkpt lat="59.8478144" lon="17.7419599">
        <ele>13.5958</ele>
        <time>2013-05-18T18:14:31Z</time>
      </trkpt>
      <trkpt lat="59.8478182" lon="17.7417827">
        <ele>13.5958</ele>
        <time>2013-05-18T18:14:32Z</time>
      </trkpt>
      <trkpt lat="59.8478216" lon="17.7416045">
        <ele>13.5958</ele>
        <time>2013-05-18T18:14:33Z</time>
      </trkpt>
      <trkpt lat="59.8478245" lon="17.7414258">
        <ele>13.5958</ele>
        <time>2013-05-18T18:14:34Z</time>
      </trkpt>
      <trkpt lat="59.8478265" lon="17.7412456">
        <ele>14.0764</ele>
        <time>2013-05-18T18:14:35Z</time>
      </trkpt>
      <trkpt lat="59.8478294" lon="17.7410653">
        <ele>14.0764</ele>
        <time>2013-05-18T18:14:36Z</time>
      </trkpt>
      <trkpt lat="59.8478332" lon="17.7408861">
        <ele>14.557</ele>
        <time>2013-05-18T18:14:37Z</time>
      </trkpt>
      <trkpt lat="59.8478359" lon="17.7407066">
        <ele>14.557</ele>
        <time>2013-05-18T18:14:38Z</time>
      </trkpt>
      <trkpt lat="59.8478384" lon="17.7405298">
        <ele>14.557</ele>
        <time>2013-05-18T18:14:39Z</time>
      </trkpt>
      <trkpt lat="59.8478415" lon="17.740357">
        <ele>14.557</ele>
        <time>2013-05-18T18:14:40Z</time>
      </trkpt>
      <trkpt lat="59.8478431" lon="17.7401852">
        <ele>14.557</ele>
        <time>2013-05-18T18:14:41Z</time>
      </trkpt>
      <trkpt lat="59.8478426" lon="17.7400152">
        <ele>14.557</ele>
        <time>2013-05-18T18:14:42Z</time>
      </trkpt>
      <trkpt lat="59.8478401" lon="17.7398491">
        <ele>14.0764</ele>
        <time>2013-05-18T18:14:43Z</time>
      </trkpt>
      <trkpt lat="59.8478367" lon="17.7396883">
        <ele>14.557</ele>
        <time>2013-05-18T18:14:44Z</time>
      </trkpt>
      <trkpt lat="59.8478334" lon="17.7395316">
        <ele>14.0764</ele>
        <time>2013-05-18T18:14:45Z</time>
      </trkpt>
      <trkpt lat="59.8478313" lon="17.7393782">
        <ele>14.0764</ele>
        <time>2013-05-18T18:14:46Z</time>
      </trkpt>
      <trkpt lat="59.8478364" lon="17.7392301">
        <ele>13.5958</ele>
        <time>2013-05-18T18:14:47Z</time>
      </trkpt>
      <trkpt lat="59.8478529" lon="17.7390865">
        <ele>13.5958</ele>
        <time>2013-05-18T18:14:48Z</time>
      </trkpt>
      <trkpt lat="59.8478873" lon="17.7389607">
        <ele>14.0764</ele>
        <time>2013-05-18T18:14:49Z</time>
      </trkpt>
      <trkpt lat="59.8479387" lon="17.7388618">
        <ele>13.5958</ele>
        <time>2013-05-18T18:14:50Z</time>
      </trkpt>
      <trkpt lat="59.8480071" lon="17.7388103">
        <ele>13.5958</ele>
        <time>2013-05-18T18:14:51Z</time>
      </trkpt>
      <trkpt lat="59.8480812" lon="17.7387949">
        <ele>13.1151</ele>
        <time>2013-05-18T18:14:52Z</time>
      </trkpt>
      <trkpt lat="59.8481562" lon="17.7387836">
        <ele>12.6344</ele>
        <time>2013-05-18T18:14:53Z</time>
      </trkpt>
      <trkpt lat="59.8482312" lon="17.7387657">
        <ele>11.1925</ele>
        <time>2013-05-18T18:14:54Z</time>
      </trkpt>
      <trkpt lat="59.8483112" lon="17.7387378">
        <ele>11.6732</ele>
        <time>2013-05-18T18:14:55Z</time>
      </trkpt>
      <trkpt lat="59.8483912" lon="17.7387076">
        <ele>12.1538</ele>
        <time>2013-05-18T18:14:56Z</time>
      </trkpt>
      <trkpt lat="59.8484705" lon="17.7386767">
        <ele>12.6344</ele>
        <time>2013-05-18T18:14:57Z</time>
      </trkpt>
      <trkpt lat="59.8485499" lon="17.7386429">
        <ele>13.1151</ele>
        <time>2013-05-18T18:14:58Z</time>
      </trkpt>
      <trkpt lat="59.8486291" lon="17.7386061">
        <ele>13.5958</ele>
        <time>2013-05-18T18:14:59Z</time>
      </trkpt>
      <trkpt lat="59.8487076" lon="17.7385691">
        <ele>14.0764</ele>
        <time>2013-05-18T18:15:00Z</time>
      </trkpt>
      <trkpt lat="59.8487861" lon="17.738531">
        <ele>14.557</ele>
        <time>2013-05-18T18:15:01Z</time>
      </trkpt>
      <trkpt lat="59.8488642" lon="17.7384909">
        <ele>15.0377</ele>
        <time>2013-05-18T18:15:02Z</time>
      </trkpt>
      <trkpt lat="59.8489413" lon="17.738452">
        <ele>15.5184</ele>
        <time>2013-05-18T18:15:03Z</time>
      </trkpt>
      <trkpt lat="59.8490177" lon="17.738416">
        <ele>15.5184</ele>
        <time>2013-05-18T18:15:04Z</time>
      </trkpt>
      <trkpt lat="59.8490932" lon="17.7383814">
        <ele>15.999</ele>
        <time>2013-05-18T18:15:05Z</time>
      </trkpt>
      <trkpt lat="59.8491663" lon="17.7383467">
        <ele>15.999</ele>
        <time>2013-05-18T18:15:06Z</time>
      </trkpt>
      <trkpt lat="59.8492388" lon="17.738311">
        <ele>16.4797</ele>
        <time>2013-05-18T18:15:07Z</time>
      </trkpt>
      <trkpt lat="59.8493112" lon="17.7382779">
        <ele>16.4797</ele>
        <time>2013-05-18T18:15:08Z</time>
      </trkpt>
      <trkpt lat="59.8493832" lon="17.7382469">
        <ele>16.9604</ele>
        <time>2013-05-18T18:15:09Z</time>
      </trkpt>
      <trkpt lat="59.8494549" lon="17.738216">
        <ele>16.9604</ele>
        <time>2013-05-18T18:15:10Z</time>
      </trkpt>
      <trkpt lat="59.8495268" lon="17.7381871">
        <ele>16.9604</ele>
        <time>2013-05-18T18:15:11Z</time>
      </trkpt>
      <trkpt lat="59.8495988" lon="17.7381598">
        <ele>16.9604</ele>
        <time>2013-05-18T18:15:12Z</time>
      </trkpt>
      <trkpt lat="59.8496698" lon="17.7381338">
        <ele>17.4412</ele>
        <time>2013-05-18T18:15:13Z</time>
      </trkpt>
      <trkpt lat="59.8497378" lon="17.7381093">
        <ele>15.999</ele>
        <time>2013-05-18T18:15:14Z</time>
      </trkpt>
      <trkpt lat="59.8498049" lon="17.7380851">
        <ele>15.0377</ele>
        <time>2013-05-18T18:15:15Z</time>
      </trkpt>
      <trkpt lat="59.8498724" lon="17.7380609">
        <ele>14.0764</ele>
        <time>2013-05-18T18:15:16Z</time>
      </trkpt>
      <trkpt lat="59.8499412" lon="17.7380366">
        <ele>13.5958</ele>
        <time>2013-05-18T18:15:17Z</time>
      </trkpt>
      <trkpt lat="59.8500106" lon="17.738009">
        <ele>13.1151</ele>
        <time>2013-05-18T18:15:18Z</time>
      </trkpt>
      <trkpt lat="59.8500816" lon="17.7379803">
        <ele>12.6344</ele>
        <time>2013-05-18T18:15:19Z</time>
      </trkpt>
      <trkpt lat="59.8501529" lon="17.7379503">
        <ele>12.1538</ele>
        <time>2013-05-18T18:15:20Z</time>
      </trkpt>
      <trkpt lat="59.8502241" lon="17.7379166">
        <ele>12.1538</ele>
        <time>2013-05-18T18:15:21Z</time>
      </trkpt>
      <trkpt lat="59.850294" lon="17.7378755">
        <ele>12.1538</ele>
        <time>2013-05-18T18:15:22Z</time>
      </trkpt>
      <trkpt lat="59.850363" lon="17.7378294">
        <ele>11.6732</ele>
        <time>2013-05-18T18:15:23Z</time>
      </trkpt>
      <trkpt lat="59.8504312" lon="17.7377816">
        <ele>11.6732</ele>
        <time>2013-05-18T18:15:24Z</time>
      </trkpt>
      <trkpt lat="59.8504997" lon="17.7377339">
        <ele>11.6732</ele>
        <time>2013-05-18T18:15:25Z</time>
      </trkpt>
      <trkpt lat="59.8505697" lon="17.7376878">
        <ele>11.1925</ele>
        <time>2013-05-18T18:15:26Z</time>
      </trkpt>
      <trkpt lat="59.8506388" lon="17.7376354">
        <ele>10.7118</ele>
        <time>2013-05-18T18:15:27Z</time>
      </trkpt>
      <trkpt lat="59.8507053" lon="17.7375802">
        <ele>10.2312</ele>
        <time>2013-05-18T18:15:28Z</time>
      </trkpt>
      <trkpt lat="59.8507732" lon="17.7375255">
        <ele>9.75061</ele>
        <time>2013-05-18T18:15:29Z</time>
      </trkpt>
      <trkpt lat="59.8508414" lon="17.7374723">
        <ele>9.2699</ele>
        <time>2013-05-18T18:15:30Z</time>
      </trkpt>
      <trkpt lat="59.8509095" lon="17.7374188">
        <ele>8.78918</ele>
        <time>2013-05-18T18:15:31Z</time>
      </trkpt>
      <trkpt lat="59.8509768" lon="17.737364">
        <ele>8.30859</ele>
        <time>2013-05-18T18:15:32Z</time>
      </trkpt>
      <trkpt lat="59.8510435" lon="17.7373083">
        <ele>7.82788</ele>
        <time>2013-05-18T18:15:33Z</time>
      </trkpt>
      <trkpt lat="59.8511094" lon="17.7372508">
        <ele>7.34717</ele>
        <time>2013-05-18T18:15:34Z</time>
      </trkpt>
      <trkpt lat="59.8511741" lon="17.7371917">
        <ele>6.86646</ele>
        <time>2013-05-18T18:15:35Z</time>
      </trkpt>
      <trkpt lat="59.8512389" lon="17.7371331">
        <ele>6.86646</ele>
        <time>2013-05-18T18:15:36Z</time>
      </trkpt>
      <trkpt lat="59.8513042" lon="17.7370736">
        <ele>6.38586</ele>
        <time>2013-05-18T18:15:37Z</time>
      </trkpt>
      <trkpt lat="59.8513685" lon="17.7370102">
        <ele>6.38586</ele>
        <time>2013-05-18T18:15:38Z</time>
      </trkpt>
      <trkpt lat="59.8514316" lon="17.7369428">
        <ele>5.90527</ele>
        <time>2013-05-18T18:15:39Z</time>
      </trkpt>
      <trkpt lat="59.851494" lon="17.7368714">
        <ele>5.90527</ele>
        <time>2013-05-18T18:15:40Z</time>
      </trkpt>
      <trkpt lat="59.8515551" lon="17.7367938">
        <ele>5.90527</ele>
        <time>2013-05-18T18:15:41Z</time>
      </trkpt>
      <trkpt lat="59.8516142" lon="17.7367094">
        <ele>5.42456</ele>
        <time>2013-05-18T18:15:42Z</time>
      </trkpt>
      <trkpt lat="59.8516715" lon="17.7366203">
        <ele>5.42456</ele>
        <time>2013-05-18T18:15:43Z</time>
      </trkpt>
      <trkpt lat="59.851728" lon="17.7365286">
        <ele>5.42456</ele>
        <time>2013-05-18T18:15:44Z</time>
      </trkpt>
      <trkpt lat="59.8517847" lon="17.7364358">
        <ele>4.94385</ele>
        <time>2013-05-18T18:15:45Z</time>
      </trkpt>
      <trkpt lat="59.8518408" lon="17.7363411">
        <ele>4.94385</ele>
        <time>2013-05-18T18:15:46Z</time>
      </trkpt>
      <trkpt lat="59.8518966" lon="17.7362452">
        <ele>4.94385</ele>
        <time>2013-05-18T18:15:47Z</time>
      </trkpt>
      <trkpt lat="59.8519541" lon="17.7361494">
        <ele>4.46326</ele>
        <time>2013-05-18T18:15:48Z</time>
      </trkpt>
      <trkpt lat="59.8520137" lon="17.7360561">
        <ele>4.46326</ele>
        <time>2013-05-18T18:15:49Z</time>
      </trkpt>
      <trkpt lat="59.8520752" lon="17.7359671">
        <ele>4.46326</ele>
        <time>2013-05-18T18:15:50Z</time>
      </trkpt>
      <trkpt lat="59.8521374" lon="17.7358822">
        <ele>4.46326</ele>
        <time>2013-05-18T18:15:51Z</time>
      </trkpt>
      <trkpt lat="59.8522002" lon="17.7358002">
        <ele>4.46326</ele>
        <time>2013-05-18T18:15:52Z</time>
      </trkpt>
      <trkpt lat="59.8522639" lon="17.7357223">
        <ele>4.46326</ele>
        <time>2013-05-18T18:15:53Z</time>
      </trkpt>
      <trkpt lat="59.8523276" lon="17.7356473">
        <ele>4.46326</ele>
        <time>2013-05-18T18:15:54Z</time>
      </trkpt>
      <trkpt lat="59.8523912" lon="17.7355728">
        <ele>4.46326</ele>
        <time>2013-05-18T18:15:55Z</time>
      </trkpt>
      <trkpt lat="59.8524545" lon="17.7354977">
        <ele>4.46326</ele>
        <time>2013-05-18T18:15:56Z</time>
      </trkpt>
      <trkpt lat="59.8525173" lon="17.7354237">
        <ele>4.46326</ele>
        <time>2013-05-18T18:15:57Z</time>
      </trkpt>
      <trkpt lat="59.85258" lon="17.7353486">
        <ele>4.46326</ele>
        <time>2013-05-18T18:15:58Z</time>
      </trkpt>
      <trkpt lat="59.8526428" lon="17.7352729">
        <ele>4.46326</ele>
        <time>2013-05-18T18:15:59Z</time>
      </trkpt>
      <trkpt lat="59.8527064" lon="17.7351998">
        <ele>4.46326</ele>
        <time>2013-05-18T18:16:00Z</time>
      </trkpt>
      <trkpt lat="59.8527701" lon="17.7351292">
        <ele>4.46326</ele>
        <time>2013-05-18T18:16:01Z</time>
      </trkpt>
      <trkpt lat="59.8528327" lon="17.7350598">
        <ele>4.46326</ele>
        <time>2013-05-18T18:16:02Z</time>
      </trkpt>
      <trkpt lat="59.852894" lon="17.7349905">
        <ele>4.46326</ele>
        <time>2013-05-18T18:16:03Z</time>
      </trkpt>
      <trkpt lat="59.8529554" lon="17.7349197">
        <ele>4.46326</ele>
        <time>2013-05-18T18:16:04Z</time>
      </trkpt>
      <trkpt lat="59.853017" lon="17.734847">
        <ele>4.46326</ele>
        <time>2013-05-18T18:16:05Z</time>
      </trkpt>
      <trkpt lat="59.85308" lon="17.7347742">
        <ele>4.46326</ele>
        <time>2013-05-18T18:16:06Z</time>
      </trkpt>
      <trkpt lat="59.8531445" lon="17.7347006">
        <ele>4.46326</ele>
        <time>2013-05-18T18:16:07Z</time>
      </trkpt>
      <trkpt lat="59.8532092" lon="17.7346233">
        <ele>4.46326</ele>
        <time>2013-05-18T18:16:08Z</time>
      </trkpt>
      <trkpt lat="59.8532742" lon="17.7345424">
        <ele>4.46326</ele>
        <time>2013-05-18T18:16:09Z</time>
      </trkpt>
      <trkpt lat="59.8533378" lon="17.7344492">
        <ele>3.98267</ele>
        <time>2013-05-18T18:16:10Z</time>
      </trkpt>
      <trkpt lat="59.8533993" lon="17.7343431">
        <ele>3.98267</ele>
        <time>2013-05-18T18:16:11Z</time>
      </trkpt>
      <trkpt lat="59.8534585" lon="17.7342295">
        <ele>3.50195</ele>
        <time>2013-05-18T18:16:12Z</time>
      </trkpt>
      <trkpt lat="59.8535158" lon="17.7341087">
        <ele>3.02124</ele>
        <time>2013-05-18T18:16:13Z</time>
      </trkpt>
      <trkpt lat="59.8535709" lon="17.7339811">
        <ele>3.02124</ele>
        <time>2013-05-18T18:16:14Z</time>
      </trkpt>
      <trkpt lat="59.8536226" lon="17.7338438">
        <ele>2.54065</ele>
        <time>2013-05-18T18:16:15Z</time>
      </trkpt>
      <trkpt lat="59.8536723" lon="17.7336929">
        <ele>2.06006</ele>
        <time>2013-05-18T18:16:16Z</time>
      </trkpt>
      <trkpt lat="59.8537183" lon="17.7335276">
        <ele>2.06006</ele>
        <time>2013-05-18T18:16:17Z</time>
      </trkpt>
      <trkpt lat="59.8537579" lon="17.7333521">
        <ele>1.57935</ele>
        <time>2013-05-18T18:16:18Z</time>
      </trkpt>
      <trkpt lat="59.8537956" lon="17.7331703">
        <ele>2.06006</ele>
        <time>2013-05-18T18:16:19Z</time>
      </trkpt>
      <trkpt lat="59.8538285" lon="17.7329833">
        <ele>2.06006</ele>
        <time>2013-05-18T18:16:20Z</time>
      </trkpt>
      <trkpt lat="59.8538557" lon="17.7327916">
        <ele>2.54065</ele>
        <time>2013-05-18T18:16:21Z</time>
      </trkpt>
      <trkpt lat="59.8538759" lon="17.7326132">
        <ele>2.54065</ele>
        <time>2013-05-18T18:16:22Z</time>
      </trkpt>
      <trkpt lat="59.8538864" lon="17.7324327">
        <ele>2.54065</ele>
        <time>2013-05-18T18:16:23Z</time>
      </trkpt>
      <trkpt lat="59.8538972" lon="17.7322656">
        <ele>2.54065</ele>
        <time>2013-05-18T18:16:24Z</time>
      </trkpt>
      <trkpt lat="59.8539173" lon="17.7320648">
        <ele>2.06006</ele>
        <time>2013-05-18T18:16:25Z</time>
      </trkpt>
      <trkpt lat="59.8539362" lon="17.731871">
        <ele>2.54065</ele>
        <time>2013-05-18T18:16:26Z</time>
      </trkpt>
      <trkpt lat="59.8539569" lon="17.7316601">
        <ele>3.02124</ele>
        <time>2013-05-18T18:16:27Z</time>
      </trkpt>
      <trkpt lat="59.8539748" lon="17.7314631">
        <ele>3.50195</ele>
        <time>2013-05-18T18:16:28Z</time>
      </trkpt>
      <trkpt lat="59.8539988" lon="17.7312706">
        <ele>4.46326</ele>
        <time>2013-05-18T18:16:29Z</time>
      </trkpt>
      <trkpt lat="59.8540266" lon="17.7310895">
        <ele>4.94385</ele>
        <time>2013-05-18T18:16:30Z</time>
      </trkpt>
      <trkpt lat="59.8540532" lon="17.7309159">
        <ele>5.90527</ele>
        <time>2013-05-18T18:16:31Z</time>
      </trkpt>
      <trkpt lat="59.8540849" lon="17.7307548">
        <ele>6.38586</ele>
        <time>2013-05-18T18:16:32Z</time>
      </trkpt>
      <trkpt lat="59.8541181" lon="17.7306039">
        <ele>6.86646</ele>
        <time>2013-05-18T18:16:33Z</time>
      </trkpt>
      <trkpt lat="59.8541552" lon="17.7304622">
        <ele>8.30859</ele>
        <time>2013-05-18T18:16:34Z</time>
      </trkpt>
      <trkpt lat="59.8541916" lon="17.7303328">
        <ele>8.78918</ele>
        <time>2013-05-18T18:16:35Z</time>
      </trkpt>
      <trkpt lat="59.8542289" lon="17.7302072">
        <ele>8.78918</ele>
        <time>2013-05-18T18:16:36Z</time>
      </trkpt>
      <trkpt lat="59.8542697" lon="17.7300824">
        <ele>9.75061</ele>
        <time>2013-05-18T18:16:37Z</time>
      </trkpt>
      <trkpt lat="59.8543125" lon="17.7299652">
        <ele>10.2312</ele>
        <time>2013-05-18T18:16:38Z</time>
      </trkpt>
      <trkpt lat="59.8543553" lon="17.7298507">
        <ele>11.1925</ele>
        <time>2013-05-18T18:16:39Z</time>
      </trkpt>
      <trkpt lat="59.8543982" lon="17.7297393">
        <ele>12.1538</ele>
        <time>2013-05-18T18:16:40Z</time>
      </trkpt>
      <trkpt lat="59.8544438" lon="17.7296319">
        <ele>13.1151</ele>
        <time>2013-05-18T18:16:41Z</time>
      </trkpt>
      <trkpt lat="59.8544874" lon="17.7295225">
        <ele>13.5958</ele>
        <time>2013-05-18T18:16:42Z</time>
      </trkpt>
      <trkpt lat="59.8545333" lon="17.7294128">
        <ele>14.557</ele>
        <time>2013-05-18T18:16:43Z</time>
      </trkpt>
      <trkpt lat="59.8545801" lon="17.7293027">
        <ele>15.0377</ele>
        <time>2013-05-18T18:16:44Z</time>
      </trkpt>
      <trkpt lat="59.8546266" lon="17.7291893">
        <ele>15.5184</ele>
        <time>2013-05-18T18:16:45Z</time>
      </trkpt>
      <trkpt lat="59.8546734" lon="17.7290723">
        <ele>16.4797</ele>
        <time>2013-05-18T18:16:46Z</time>
      </trkpt>
      <trkpt lat="59.8547208" lon="17.728949">
        <ele>16.9604</ele>
        <time>2013-05-18T18:16:47Z</time>
      </trkpt>
      <trkpt lat="59.854768" lon="17.7288256">
        <ele>17.4412</ele>
        <time>2013-05-18T18:16:48Z</time>
      </trkpt>
      <trkpt lat="59.854814" lon="17.7287085">
        <ele>16.9604</ele>
        <time>2013-05-18T18:16:49Z</time>
      </trkpt>
      <trkpt lat="59.8548593" lon="17.7285936">
        <ele>16.4797</ele>
        <time>2013-05-18T18:16:50Z</time>
      </trkpt>
      <trkpt lat="59.8549022" lon="17.7284777">
        <ele>15.5184</ele>
        <time>2013-05-18T18:16:51Z</time>
      </trkpt>
      <trkpt lat="59.8549435" lon="17.7283617">
        <ele>15.0377</ele>
        <time>2013-05-18T18:16:52Z</time>
      </trkpt>
      <trkpt lat="59.8549835" lon="17.7282477">
        <ele>14.0764</ele>
        <time>2013-05-18T18:16:53Z</time>
      </trkpt>
      <trkpt lat="59.8550238" lon="17.7281363">
        <ele>13.5958</ele>
        <time>2013-05-18T18:16:54Z</time>
      </trkpt>
      <trkpt lat="59.8550649" lon="17.7280273">
        <ele>12.6344</ele>
        <time>2013-05-18T18:16:55Z</time>
      </trkpt>
      <trkpt lat="59.8551077" lon="17.7279182">
        <ele>12.6344</ele>
        <time>2013-05-18T18:16:56Z</time>
      </trkpt>
      <trkpt lat="59.8551506" lon="17.7278083">
        <ele>12.1538</ele>
        <time>2013-05-18T18:16:57Z</time>
      </trkpt>
      <trkpt lat="59.8551921" lon="17.7276963">
        <ele>11.6732</ele>
        <time>2013-05-18T18:16:58Z</time>
      </trkpt>
      <trkpt lat="59.8552341" lon="17.7275809">
        <ele>11.1925</ele>
        <time>2013-05-18T18:16:59Z</time>
      </trkpt>
      <trkpt lat="59.8552757" lon="17.7274643">
        <ele>10.7118</ele>
        <time>2013-05-18T18:17:00Z</time>
      </trkpt>
      <trkpt lat="59.855317" lon="17.7273459">
        <ele>10.2312</ele>
        <time>2013-05-18T18:17:01Z</time>
      </trkpt>
      <trkpt lat="59.8553582" lon="17.7272257">
        <ele>10.2312</ele>
        <time>2013-05-18T18:17:02Z</time>
      </trkpt>
      <trkpt lat="59.8554005" lon="17.7271054">
        <ele>9.75061</ele>
        <time>2013-05-18T18:17:03Z</time>
      </trkpt>
      <trkpt lat="59.8554429" lon="17.7269833">
        <ele>9.2699</ele>
        <time>2013-05-18T18:17:04Z</time>
      </trkpt>
      <trkpt lat="59.8554845" lon="17.7268571">
        <ele>8.78918</ele>
        <time>2013-05-18T18:17:05Z</time>
      </trkpt>
      <trkpt lat="59.855528" lon="17.7267272">
        <ele>9.2699</ele>
        <time>2013-05-18T18:17:06Z</time>
      </trkpt>
      <trkpt lat="59.8555721" lon="17.7265972">
        <ele>9.2699</ele>
        <time>2013-05-18T18:17:07Z</time>
      </trkpt>
      <trkpt lat="59.8556176" lon="17.7264676">
        <ele>9.2699</ele>
        <time>2013-05-18T18:17:08Z</time>
      </trkpt>
      <trkpt lat="59.8556635" lon="17.726336">
        <ele>9.2699</ele>
        <time>2013-05-18T18:17:09Z</time>
      </trkpt>
      <trkpt lat="59.8557085" lon="17.7262026">
        <ele>9.2699</ele>
        <time>2013-05-18T18:17:10Z</time>
      </trkpt>
      <trkpt lat="59.8557547" lon="17.726069">
        <ele>9.75061</ele>
        <time>2013-05-18T18:17:11Z</time>
      </trkpt>
      <trkpt lat="59.855802" lon="17.7259361">
        <ele>10.2312</ele>
        <time>2013-05-18T18:17:12Z</time>
      </trkpt>
      <trkpt lat="59.8558494" lon="17.7258046">
        <ele>10.2312</ele>
        <time>2013-05-18T18:17:13Z</time>
      </trkpt>
      <trkpt lat="59.8558976" lon="17.7256742">
        <ele>10.7118</ele>
        <time>2013-05-18T18:17:14Z</time>
      </trkpt>
      <trkpt lat="59.8559476" lon="17.7255446">
        <ele>10.7118</ele>
        <time>2013-05-18T18:17:15Z</time>
      </trkpt>
      <trkpt lat="59.8559992" lon="17.7254173">
        <ele>11.1925</ele>
        <time>2013-05-18T18:17:16Z</time>
      </trkpt>
      <trkpt lat="59.8560525" lon="17.7252933">
        <ele>11.6732</ele>
        <time>2013-05-18T18:17:17Z</time>
      </trkpt>
      <trkpt lat="59.8561045" lon="17.7251744">
        <ele>11.6732</ele>
        <time>2013-05-18T18:17:18Z</time>
      </trkpt>
      <trkpt lat="59.8561566" lon="17.7250562">
        <ele>11.1925</ele>
        <time>2013-05-18T18:17:19Z</time>
      </trkpt>
      <trkpt lat="59.8562085" lon="17.7249364">
        <ele>11.1925</ele>
        <time>2013-05-18T18:17:20Z</time>
      </trkpt>
      <trkpt lat="59.8562584" lon="17.7248151">
        <ele>11.1925</ele>
        <time>2013-05-18T18:17:21Z</time>
      </trkpt>
      <trkpt lat="59.8563069" lon="17.7246931">
        <ele>10.7118</ele>
        <time>2013-05-18T18:17:22Z</time>
      </trkpt>
      <trkpt lat="59.8563532" lon="17.7245697">
        <ele>10.2312</ele>
        <time>2013-05-18T18:17:23Z</time>
      </trkpt>
      <trkpt lat="59.8563977" lon="17.7244443">
        <ele>9.75061</ele>
        <time>2013-05-18T18:17:24Z</time>
      </trkpt>
      <trkpt lat="59.8564443" lon="17.7243216">
        <ele>9.75061</ele>
        <time>2013-05-18T18:17:25Z</time>
      </trkpt>
      <trkpt lat="59.8564967" lon="17.7242056">
        <ele>9.75061</ele>
        <time>2013-05-18T18:17:26Z</time>
      </trkpt>
      <trkpt lat="59.8565505" lon="17.7240984">
        <ele>10.2312</ele>
        <time>2013-05-18T18:17:27Z</time>
      </trkpt>
      <trkpt lat="59.8566032" lon="17.7239931">
        <ele>10.7118</ele>
        <time>2013-05-18T18:17:28Z</time>
      </trkpt>
      <trkpt lat="59.8566541" lon="17.7238875">
        <ele>10.7118</ele>
        <time>2013-05-18T18:17:29Z</time>
      </trkpt>
      <trkpt lat="59.8567075" lon="17.7237845">
        <ele>11.1925</ele>
        <time>2013-05-18T18:17:30Z</time>
      </trkpt>
      <trkpt lat="59.8567593" lon="17.7236824">
        <ele>11.1925</ele>
        <time>2013-05-18T18:17:31Z</time>
      </trkpt>
      <trkpt lat="59.8568098" lon="17.7235798">
        <ele>11.1925</ele>
        <time>2013-05-18T18:17:32Z</time>
      </trkpt>
      <trkpt lat="59.8568624" lon="17.7234799">
        <ele>11.1925</ele>
        <time>2013-05-18T18:17:33Z</time>
      </trkpt>
      <trkpt lat="59.8569124" lon="17.7233815">
        <ele>11.1925</ele>
        <time>2013-05-18T18:17:34Z</time>
      </trkpt>
      <trkpt lat="59.8569599" lon="17.7232877">
        <ele>11.6732</ele>
        <time>2013-05-18T18:17:35Z</time>
      </trkpt>
      <trkpt lat="59.8570088" lon="17.7232017">
        <ele>11.6732</ele>
        <time>2013-05-18T18:17:36Z</time>
      </trkpt>
      <trkpt lat="59.857057" lon="17.7231199">
        <ele>11.6732</ele>
        <time>2013-05-18T18:17:37Z</time>
      </trkpt>
      <trkpt lat="59.8570985" lon="17.7230479">
        <ele>11.6732</ele>
        <time>2013-05-18T18:17:38Z</time>
      </trkpt>
      <trkpt lat="59.8571593" lon="17.7229987">
        <ele>11.6732</ele>
        <time>2013-05-18T18:17:39Z</time>
      </trkpt>
      <trkpt lat="59.8572048" lon="17.722896">
        <ele>11.6732</ele>
        <time>2013-05-18T18:17:40Z</time>
      </trkpt>
      <trkpt lat="59.8572615" lon="17.7228281">
        <ele>11.6732</ele>
        <time>2013-05-18T18:17:41Z</time>
      </trkpt>
      <trkpt lat="59.8573133" lon="17.7227391">
        <ele>11.6732</ele>
        <time>2013-05-18T18:17:42Z</time>
      </trkpt>
      <trkpt lat="59.8573714" lon="17.7226436">
        <ele>11.1925</ele>
        <time>2013-05-18T18:17:43Z</time>
      </trkpt>
      <trkpt lat="59.8574223" lon="17.7225561">
        <ele>10.7118</ele>
        <time>2013-05-18T18:17:44Z</time>
      </trkpt>
      <trkpt lat="59.8574694" lon="17.7224763">
        <ele>10.7118</ele>
        <time>2013-05-18T18:17:45Z</time>
      </trkpt>
      <trkpt lat="59.8575098" lon="17.7223806">
        <ele>10.2312</ele>
        <time>2013-05-18T18:17:46Z</time>
      </trkpt>
      <trkpt lat="59.8575498" lon="17.7222827">
        <ele>9.75061</ele>
        <time>2013-05-18T18:17:47Z</time>
      </trkpt>
      <trkpt lat="59.857592" lon="17.7221813">
        <ele>9.75061</ele>
        <time>2013-05-18T18:17:48Z</time>
      </trkpt>
      <trkpt lat="59.8576332" lon="17.722072">
        <ele>9.75061</ele>
        <time>2013-05-18T18:17:49Z</time>
      </trkpt>
      <trkpt lat="59.8576689" lon="17.7219445">
        <ele>10.2312</ele>
        <time>2013-05-18T18:17:50Z</time>
      </trkpt>
      <trkpt lat="59.8576969" lon="17.7218159">
        <ele>10.2312</ele>
        <time>2013-05-18T18:17:51Z</time>
      </trkpt>
      <trkpt lat="59.8577145" lon="17.721685">
        <ele>10.2312</ele>
        <time>2013-05-18T18:17:52Z</time>
      </trkpt>
      <trkpt lat="59.857725" lon="17.7215527">
        <ele>9.75061</ele>
        <time>2013-05-18T18:17:53Z</time>
      </trkpt>
      <trkpt lat="59.8577317" lon="17.7214178">
        <ele>9.75061</ele>
        <time>2013-05-18T18:17:54Z</time>
      </trkpt>
      <trkpt lat="59.8577361" lon="17.721282">
        <ele>9.2699</ele>
        <time>2013-05-18T18:17:55Z</time>
      </trkpt>
      <trkpt lat="59.8577366" lon="17.7211348">
        <ele>9.75061</ele>
        <time>2013-05-18T18:17:56Z</time>
      </trkpt>
      <trkpt lat="59.8577334" lon="17.7209773">
        <ele>9.75061</ele>
        <time>2013-05-18T18:17:57Z</time>
      </trkpt>
      <trkpt lat="59.8577332" lon="17.7208224">
        <ele>9.2699</ele>
        <time>2013-05-18T18:17:58Z</time>
      </trkpt>
      <trkpt lat="59.8577387" lon="17.7206623">
        <ele>9.75061</ele>
        <time>2013-05-18T18:17:59Z</time>
      </trkpt>
      <trkpt lat="59.8577438" lon="17.7205023">
        <ele>10.2312</ele>
        <time>2013-05-18T18:18:00Z</time>
      </trkpt>
      <trkpt lat="59.857744" lon="17.7203401">
        <ele>10.2312</ele>
        <time>2013-05-18T18:18:01Z</time>
      </trkpt>
      <trkpt lat="59.8577409" lon="17.7201735">
        <ele>10.7118</ele>
        <time>2013-05-18T18:18:02Z</time>
      </trkpt>
      <trkpt lat="59.8577356" lon="17.7200035">
        <ele>11.1925</ele>
        <time>2013-05-18T18:18:03Z</time>
      </trkpt>
      <trkpt lat="59.8577289" lon="17.7198308">
        <ele>11.6732</ele>
        <time>2013-05-18T18:18:04Z</time>
      </trkpt>
      <trkpt lat="59.8577212" lon="17.7196569">
        <ele>11.6732</ele>
        <time>2013-05-18T18:18:05Z</time>
      </trkpt>
      <trkpt lat="59.8577145" lon="17.7194846">
        <ele>12.1538</ele>
        <time>2013-05-18T18:18:06Z</time>
      </trkpt>
      <trkpt lat="59.8577089" lon="17.7193135">
        <ele>12.1538</ele>
        <time>2013-05-18T18:18:07Z</time>
      </trkpt>
      <trkpt lat="59.8577052" lon="17.7191447">
        <ele>12.1538</ele>
        <time>2013-05-18T18:18:08Z</time>
      </trkpt>
      <trkpt lat="59.8577015" lon="17.7189788">
        <ele>12.6344</ele>
        <time>2013-05-18T18:18:09Z</time>
      </trkpt>
      <trkpt lat="59.8576978" lon="17.7188204">
        <ele>12.1538</ele>
        <time>2013-05-18T18:18:10Z</time>
      </trkpt>
      <trkpt lat="59.8576948" lon="17.7186546">
        <ele>12.1538</ele>
        <time>2013-05-18T18:18:11Z</time>
      </trkpt>
      <trkpt lat="59.8576953" lon="17.7184892">
        <ele>12.6344</ele>
        <time>2013-05-18T18:18:12Z</time>
      </trkpt>
      <trkpt lat="59.8576988" lon="17.7183267">
        <ele>12.6344</ele>
        <time>2013-05-18T18:18:13Z</time>
      </trkpt>
      <trkpt lat="59.8577026" lon="17.7181662">
        <ele>13.1151</ele>
        <time>2013-05-18T18:18:14Z</time>
      </trkpt>
      <trkpt lat="59.8577076" lon="17.7180071">
        <ele>13.5958</ele>
        <time>2013-05-18T18:18:15Z</time>
      </trkpt>
      <trkpt lat="59.8577124" lon="17.7178485">
        <ele>13.1151</ele>
        <time>2013-05-18T18:18:16Z</time>
      </trkpt>
      <trkpt lat="59.857715" lon="17.7176923">
        <ele>13.1151</ele>
        <time>2013-05-18T18:18:17Z</time>
      </trkpt>
      <trkpt lat="59.8577166" lon="17.7175408">
        <ele>13.1151</ele>
        <time>2013-05-18T18:18:18Z</time>
      </trkpt>
      <trkpt lat="59.8577155" lon="17.7173886">
        <ele>13.5958</ele>
        <time>2013-05-18T18:18:19Z</time>
      </trkpt>
      <trkpt lat="59.8577114" lon="17.7172352">
        <ele>13.1151</ele>
        <time>2013-05-18T18:18:20Z</time>
      </trkpt>
      <trkpt lat="59.8577052" lon="17.7170825">
        <ele>13.1151</ele>
        <time>2013-05-18T18:18:21Z</time>
      </trkpt>
      <trkpt lat="59.8576985" lon="17.7169291">
        <ele>13.1151</ele>
        <time>2013-05-18T18:18:22Z</time>
      </trkpt>
      <trkpt lat="59.8576917" lon="17.7167753">
        <ele>12.6344</ele>
        <time>2013-05-18T18:18:23Z</time>
      </trkpt>
      <trkpt lat="59.8576838" lon="17.716622">
        <ele>12.6344</ele>
        <time>2013-05-18T18:18:24Z</time>
      </trkpt>
      <trkpt lat="59.8576767" lon="17.7164681">
        <ele>12.6344</ele>
        <time>2013-05-18T18:18:25Z</time>
      </trkpt>
      <trkpt lat="59.857673" lon="17.7163141">
        <ele>12.6344</ele>
        <time>2013-05-18T18:18:26Z</time>
      </trkpt>
      <trkpt lat="59.857673" lon="17.7161594">
        <ele>12.6344</ele>
        <time>2013-05-18T18:18:27Z</time>
      </trkpt>
      <trkpt lat="59.8576787" lon="17.716005">
        <ele>12.6344</ele>
        <time>2013-05-18T18:18:28Z</time>
      </trkpt>
      <trkpt lat="59.8576907" lon="17.7158515">
        <ele>12.6344</ele>
        <time>2013-05-18T18:18:29Z</time>
      </trkpt>
      <trkpt lat="59.8577078" lon="17.7156968">
        <ele>12.6344</ele>
        <time>2013-05-18T18:18:30Z</time>
      </trkpt>
      <trkpt lat="59.8577296" lon="17.7155433">
        <ele>13.1151</ele>
        <time>2013-05-18T18:18:31Z</time>
      </trkpt>
      <trkpt lat="59.8577544" lon="17.7153907">
        <ele>13.1151</ele>
        <time>2013-05-18T18:18:32Z</time>
      </trkpt>
      <trkpt lat="59.8577813" lon="17.7152415">
        <ele>13.1151</ele>
        <time>2013-05-18T18:18:33Z</time>
      </trkpt>
      <trkpt lat="59.8578077" lon="17.7150914">
        <ele>13.1151</ele>
        <time>2013-05-18T18:18:34Z</time>
      </trkpt>
      <trkpt lat="59.8578351" lon="17.7149451">
        <ele>13.1151</ele>
        <time>2013-05-18T18:18:35Z</time>
      </trkpt>
      <trkpt lat="59.8578655" lon="17.7148042">
        <ele>13.1151</ele>
        <time>2013-05-18T18:18:36Z</time>
      </trkpt>
      <trkpt lat="59.8578998" lon="17.7146696">
        <ele>12.6344</ele>
        <time>2013-05-18T18:18:37Z</time>
      </trkpt>
      <trkpt lat="59.8579388" lon="17.714542">
        <ele>12.6344</ele>
        <time>2013-05-18T18:18:38Z</time>
      </trkpt>
      <trkpt lat="59.8579814" lon="17.7144166">
        <ele>12.1538</ele>
        <time>2013-05-18T18:18:39Z</time>
      </trkpt>
      <trkpt lat="59.8580259" lon="17.714293">
        <ele>12.1538</ele>
        <time>2013-05-18T18:18:40Z</time>
      </trkpt>
      <trkpt lat="59.8580679" lon="17.7141695">
        <ele>11.6732</ele>
        <time>2013-05-18T18:18:41Z</time>
      </trkpt>
      <trkpt lat="59.8581066" lon="17.7140421">
        <ele>11.1925</ele>
        <time>2013-05-18T18:18:42Z</time>
      </trkpt>
      <trkpt lat="59.8581429" lon="17.7139107">
        <ele>11.1925</ele>
        <time>2013-05-18T18:18:43Z</time>
      </trkpt>
      <trkpt lat="59.8581759" lon="17.7137753">
        <ele>11.1925</ele>
        <time>2013-05-18T18:18:44Z</time>
      </trkpt>
      <trkpt lat="59.8582014" lon="17.7136368">
        <ele>10.7118</ele>
        <time>2013-05-18T18:18:45Z</time>
      </trkpt>
      <trkpt lat="59.8582227" lon="17.7134963">
        <ele>10.7118</ele>
        <time>2013-05-18T18:18:46Z</time>
      </trkpt>
      <trkpt lat="59.8582396" lon="17.7133502">
        <ele>10.7118</ele>
        <time>2013-05-18T18:18:47Z</time>
      </trkpt>
      <trkpt lat="59.8582537" lon="17.7131988">
        <ele>10.7118</ele>
        <time>2013-05-18T18:18:48Z</time>
      </trkpt>
      <trkpt lat="59.8582678" lon="17.7130449">
        <ele>10.2312</ele>
        <time>2013-05-18T18:18:49Z</time>
      </trkpt>
      <trkpt lat="59.8582828" lon="17.7128913">
        <ele>10.2312</ele>
        <time>2013-05-18T18:18:50Z</time>
      </trkpt>
      <trkpt lat="59.8582992" lon="17.712742">
        <ele>10.2312</ele>
        <time>2013-05-18T18:18:51Z</time>
      </trkpt>
      <trkpt lat="59.8583173" lon="17.7125975">
        <ele>10.2312</ele>
        <time>2013-05-18T18:18:52Z</time>
      </trkpt>
      <trkpt lat="59.8583381" lon="17.7124572">
        <ele>10.7118</ele>
        <time>2013-05-18T18:18:53Z</time>
      </trkpt>
      <trkpt lat="59.8583631" lon="17.712323">
        <ele>10.7118</ele>
        <time>2013-05-18T18:18:54Z</time>
      </trkpt>
      <trkpt lat="59.8583906" lon="17.7121956">
        <ele>10.7118</ele>
        <time>2013-05-18T18:18:55Z</time>
      </trkpt>
      <trkpt lat="59.8584196" lon="17.7120706">
        <ele>10.7118</ele>
        <time>2013-05-18T18:18:56Z</time>
      </trkpt>
      <trkpt lat="59.8584475" lon="17.7119442">
        <ele>10.7118</ele>
        <time>2013-05-18T18:18:57Z</time>
      </trkpt>
      <trkpt lat="59.8584723" lon="17.7118169">
        <ele>10.7118</ele>
        <time>2013-05-18T18:18:58Z</time>
      </trkpt>
      <trkpt lat="59.8584949" lon="17.7116869">
        <ele>10.2312</ele>
        <time>2013-05-18T18:18:59Z</time>
      </trkpt>
      <trkpt lat="59.8585188" lon="17.7115554">
        <ele>10.7118</ele>
        <time>2013-05-18T18:19:00Z</time>
      </trkpt>
      <trkpt lat="59.8585329" lon="17.7114153">
        <ele>9.75061</ele>
        <time>2013-05-18T18:19:01Z</time>
      </trkpt>
      <trkpt lat="59.8585416" lon="17.711272">
        <ele>9.75061</ele>
        <time>2013-05-18T18:19:02Z</time>
      </trkpt>
      <trkpt lat="59.8585449" lon="17.7111295">
        <ele>9.75061</ele>
        <time>2013-05-18T18:19:03Z</time>
      </trkpt>
      <trkpt lat="59.8585457" lon="17.710991">
        <ele>9.2699</ele>
        <time>2013-05-18T18:19:04Z</time>
      </trkpt>
      <trkpt lat="59.8585405" lon="17.7108488">
        <ele>8.30859</ele>
        <time>2013-05-18T18:19:05Z</time>
      </trkpt>
      <trkpt lat="59.8585258" lon="17.7107016">
        <ele>7.34717</ele>
        <time>2013-05-18T18:19:06Z</time>
      </trkpt>
      <trkpt lat="59.858506" lon="17.7105565">
        <ele>6.86646</ele>
        <time>2013-05-18T18:19:07Z</time>
      </trkpt>
      <trkpt lat="59.8584898" lon="17.7104197">
        <ele>8.30859</ele>
        <time>2013-05-18T18:19:08Z</time>
      </trkpt>
      <trkpt lat="59.858478" lon="17.7102893">
        <ele>8.78918</ele>
        <time>2013-05-18T18:19:09Z</time>
      </trkpt>
      <trkpt lat="59.858464" lon="17.7101578">
        <ele>9.75061</ele>
        <time>2013-05-18T18:19:10Z</time>
      </trkpt>
      <trkpt lat="59.8584468" lon="17.7100329">
        <ele>9.75061</ele>
        <time>2013-05-18T18:19:11Z</time>
      </trkpt>
      <trkpt lat="59.8584267" lon="17.7099029">
        <ele>9.75061</ele>
        <time>2013-05-18T18:19:12Z</time>
      </trkpt>
      <trkpt lat="59.8584084" lon="17.709768">
        <ele>9.75061</ele>
        <time>2013-05-18T18:19:13Z</time>
      </trkpt>
      <trkpt lat="59.8583905" lon="17.7096322">
        <ele>9.75061</ele>
        <time>2013-05-18T18:19:14Z</time>
      </trkpt>
      <trkpt lat="59.858378" lon="17.7094936">
        <ele>8.78918</ele>
        <time>2013-05-18T18:19:15Z</time>
      </trkpt>
      <trkpt lat="59.8583699" lon="17.7093458">
        <ele>7.82788</ele>
        <time>2013-05-18T18:19:16Z</time>
      </trkpt>
      <trkpt lat="59.8583682" lon="17.7091857">
        <ele>6.86646</ele>
        <time>2013-05-18T18:19:17Z</time>
      </trkpt>
      <trkpt lat="59.8583743" lon="17.7090248">
        <ele>7.34717</ele>
        <time>2013-05-18T18:19:18Z</time>
      </trkpt>
      <trkpt lat="59.8583874" lon="17.7088622">
        <ele>6.86646</ele>
        <time>2013-05-18T18:19:19Z</time>
      </trkpt>
      <trkpt lat="59.8584013" lon="17.7086959">
        <ele>6.38586</ele>
        <time>2013-05-18T18:19:20Z</time>
      </trkpt>
      <trkpt lat="59.85842" lon="17.7085316">
        <ele>5.90527</ele>
        <time>2013-05-18T18:19:21Z</time>
      </trkpt>
      <trkpt lat="59.8584376" lon="17.70837">
        <ele>5.90527</ele>
        <time>2013-05-18T18:19:22Z</time>
      </trkpt>
      <trkpt lat="59.8584515" lon="17.7082022">
        <ele>6.38586</ele>
        <time>2013-05-18T18:19:23Z</time>
      </trkpt>
      <trkpt lat="59.8584699" lon="17.7080333">
        <ele>6.38586</ele>
        <time>2013-05-18T18:19:24Z</time>
      </trkpt>
      <trkpt lat="59.8584879" lon="17.7078697">
        <ele>6.38586</ele>
        <time>2013-05-18T18:19:25Z</time>
      </trkpt>
      <trkpt lat="59.858508" lon="17.7076998">
        <ele>6.86646</ele>
        <time>2013-05-18T18:19:26Z</time>
      </trkpt>
      <trkpt lat="59.8585299" lon="17.7075273">
        <ele>6.86646</ele>
        <time>2013-05-18T18:19:27Z</time>
      </trkpt>
      <trkpt lat="59.8585496" lon="17.7073537">
        <ele>7.34717</ele>
        <time>2013-05-18T18:19:28Z</time>
      </trkpt>
      <trkpt lat="59.8585681" lon="17.7071793">
        <ele>6.86646</ele>
        <time>2013-05-18T18:19:29Z</time>
      </trkpt>
      <trkpt lat="59.8585862" lon="17.7070107">
        <ele>7.34717</ele>
        <time>2013-05-18T18:19:30Z</time>
      </trkpt>
      <trkpt lat="59.8586024" lon="17.7068395">
        <ele>8.30859</ele>
        <time>2013-05-18T18:19:31Z</time>
      </trkpt>
      <trkpt lat="59.8586201" lon="17.706671">
        <ele>6.86646</ele>
        <time>2013-05-18T18:19:32Z</time>
      </trkpt>
      <trkpt lat="59.8586381" lon="17.7065017">
        <ele>5.42456</ele>
        <time>2013-05-18T18:19:33Z</time>
      </trkpt>
      <trkpt lat="59.8586557" lon="17.7063346">
        <ele>4.94385</ele>
        <time>2013-05-18T18:19:34Z</time>
      </trkpt>
      <trkpt lat="59.858679" lon="17.7061885">
        <ele>4.46326</ele>
        <time>2013-05-18T18:19:35Z</time>
      </trkpt>
      <trkpt lat="59.8587023" lon="17.70604">
        <ele>4.46326</ele>
        <time>2013-05-18T18:19:36Z</time>
      </trkpt>
      <trkpt lat="59.8587251" lon="17.705893">
        <ele>3.98267</ele>
        <time>2013-05-18T18:19:37Z</time>
      </trkpt>
      <trkpt lat="59.8587534" lon="17.7057549">
        <ele>4.46326</ele>
        <time>2013-05-18T18:19:38Z</time>
      </trkpt>
      <trkpt lat="59.8587785" lon="17.7056214">
        <ele>4.46326</ele>
        <time>2013-05-18T18:19:39Z</time>
      </trkpt>
      <trkpt lat="59.8588013" lon="17.7054946">
        <ele>4.94385</ele>
        <time>2013-05-18T18:19:40Z</time>
      </trkpt>
      <trkpt lat="59.8588221" lon="17.7053706">
        <ele>3.50195</ele>
        <time>2013-05-18T18:19:41Z</time>
      </trkpt>
      <trkpt lat="59.8588355" lon="17.7052464">
        <ele>3.02124</ele>
        <time>2013-05-18T18:19:42Z</time>
      </trkpt>
      <trkpt lat="59.8588329" lon="17.7051175">
        <ele>3.02124</ele>
        <time>2013-05-18T18:19:43Z</time>
      </trkpt>
      <trkpt lat="59.8588151" lon="17.7049895">
        <ele>2.54065</ele>
        <time>2013-05-18T18:19:44Z</time>
      </trkpt>
      <trkpt lat="59.8587855" lon="17.7048698">
        <ele>2.54065</ele>
        <time>2013-05-18T18:19:45Z</time>
      </trkpt>
      <trkpt lat="59.8587516" lon="17.7047529">
        <ele>2.06006</ele>
        <time>2013-05-18T18:19:46Z</time>
      </trkpt>
      <trkpt lat="59.8587185" lon="17.7046254">
        <ele>2.06006</ele>
        <time>2013-05-18T18:19:47Z</time>
      </trkpt>
      <trkpt lat="59.8586857" lon="17.7044915">
        <ele>2.06006</ele>
        <time>2013-05-18T18:19:48Z</time>
      </trkpt>
      <trkpt lat="59.8586522" lon="17.7043621">
        <ele>2.06006</ele>
        <time>2013-05-18T18:19:49Z</time>
      </trkpt>
      <trkpt lat="59.8586209" lon="17.7042244">
        <ele>2.06006</ele>
        <time>2013-05-18T18:19:50Z</time>
      </trkpt>
      <trkpt lat="59.858588" lon="17.7040702">
        <ele>2.54065</ele>
        <time>2013-05-18T18:19:51Z</time>
      </trkpt>
      <trkpt lat="59.8585557" lon="17.7039212">
        <ele>3.02124</ele>
        <time>2013-05-18T18:19:52Z</time>
      </trkpt>
      <trkpt lat="59.8585245" lon="17.7037811">
        <ele>3.02124</ele>
        <time>2013-05-18T18:19:53Z</time>
      </trkpt>
      <trkpt lat="59.858495" lon="17.7036344">
        <ele>3.98267</ele>
        <time>2013-05-18T18:19:54Z</time>
      </trkpt>
      <trkpt lat="59.8584662" lon="17.7034853">
        <ele>4.94385</ele>
        <time>2013-05-18T18:19:55Z</time>
      </trkpt>
      <trkpt lat="59.8584339" lon="17.7033389">
        <ele>5.90527</ele>
        <time>2013-05-18T18:19:56Z</time>
      </trkpt>
      <trkpt lat="59.8584053" lon="17.7031857">
        <ele>7.82788</ele>
        <time>2013-05-18T18:19:57Z</time>
      </trkpt>
      <trkpt lat="59.858374" lon="17.7030335">
        <ele>8.78918</ele>
        <time>2013-05-18T18:19:58Z</time>
      </trkpt>
      <trkpt lat="59.8583391" lon="17.7028865">
        <ele>7.82788</ele>
        <time>2013-05-18T18:19:59Z</time>
      </trkpt>
      <trkpt lat="59.8583048" lon="17.7027396">
        <ele>6.86646</ele>
        <time>2013-05-18T18:20:00Z</time>
      </trkpt>
      <trkpt lat="59.8582718" lon="17.7025948">
        <ele>6.86646</ele>
        <time>2013-05-18T18:20:01Z</time>
      </trkpt>
      <trkpt lat="59.8582377" lon="17.7024636">
        <ele>4.46326</ele>
        <time>2013-05-18T18:20:02Z</time>
      </trkpt>
      <trkpt lat="59.8582036" lon="17.7023237">
        <ele>4.46326</ele>
        <time>2013-05-18T18:20:03Z</time>
      </trkpt>
      <trkpt lat="59.8581704" lon="17.7021825">
        <ele>4.46326</ele>
        <time>2013-05-18T18:20:04Z</time>
      </trkpt>
      <trkpt lat="59.8581393" lon="17.7020315">
        <ele>5.42456</ele>
        <time>2013-05-18T18:20:05Z</time>
      </trkpt>
      <trkpt lat="59.8581086" lon="17.7018825">
        <ele>7.34717</ele>
        <time>2013-05-18T18:20:06Z</time>
      </trkpt>
      <trkpt lat="59.8580756" lon="17.7017305">
        <ele>8.78918</ele>
        <time>2013-05-18T18:20:07Z</time>
      </trkpt>
      <trkpt lat="59.8580382" lon="17.7015744">
        <ele>9.75061</ele>
        <time>2013-05-18T18:20:08Z</time>
      </trkpt>
      <trkpt lat="59.8579987" lon="17.7014178">
        <ele>9.75061</ele>
        <time>2013-05-18T18:20:09Z</time>
      </trkpt>
      <trkpt lat="59.8579605" lon="17.7012721">
        <ele>10.2312</ele>
        <time>2013-05-18T18:20:10Z</time>
      </trkpt>
      <trkpt lat="59.8579206" lon="17.7011148">
        <ele>10.2312</ele>
        <time>2013-05-18T18:20:11Z</time>
      </trkpt>
      <trkpt lat="59.8578787" lon="17.7009459">
        <ele>10.7118</ele>
        <time>2013-05-18T18:20:12Z</time>
      </trkpt>
      <trkpt lat="59.8578398" lon="17.7007802">
        <ele>11.1925</ele>
        <time>2013-05-18T18:20:13Z</time>
      </trkpt>
      <trkpt lat="59.8577984" lon="17.7005998">
        <ele>12.1538</ele>
        <time>2013-05-18T18:20:14Z</time>
      </trkpt>
      <trkpt lat="59.8577549" lon="17.7004139">
        <ele>13.1151</ele>
        <time>2013-05-18T18:20:15Z</time>
      </trkpt>
      <trkpt lat="59.8577159" lon="17.7002262">
        <ele>12.6344</ele>
        <time>2013-05-18T18:20:16Z</time>
      </trkpt>
      <trkpt lat="59.8576778" lon="17.7000353">
        <ele>11.6732</ele>
        <time>2013-05-18T18:20:17Z</time>
      </trkpt>
      <trkpt lat="59.8576384" lon="17.6998414">
        <ele>9.75061</ele>
        <time>2013-05-18T18:20:18Z</time>
      </trkpt>
      <trkpt lat="59.8575988" lon="17.6996438">
        <ele>9.2699</ele>
        <time>2013-05-18T18:20:19Z</time>
      </trkpt>
      <trkpt lat="59.8575586" lon="17.6994546">
        <ele>10.2312</ele>
        <time>2013-05-18T18:20:20Z</time>
      </trkpt>
      <trkpt lat="59.8575179" lon="17.6992653">
        <ele>8.78918</ele>
        <time>2013-05-18T18:20:21Z</time>
      </trkpt>
      <trkpt lat="59.8574792" lon="17.6990806">
        <ele>7.34717</ele>
        <time>2013-05-18T18:20:22Z</time>
      </trkpt>
      <trkpt lat="59.8574442" lon="17.6988965">
        <ele>6.86646</ele>
        <time>2013-05-18T18:20:23Z</time>
      </trkpt>
      <trkpt lat="59.8574133" lon="17.6987199">
        <ele>5.42456</ele>
        <time>2013-05-18T18:20:24Z</time>
      </trkpt>
      <trkpt lat="59.8573831" lon="17.6985463">
        <ele>4.46326</ele>
        <time>2013-05-18T18:20:25Z</time>
      </trkpt>
      <trkpt lat="59.8573519" lon="17.6983627">
        <ele>4.94385</ele>
        <time>2013-05-18T18:20:26Z</time>
      </trkpt>
      <trkpt lat="59.8573183" lon="17.6981793">
        <ele>4.46326</ele>
        <time>2013-05-18T18:20:27Z</time>
      </trkpt>
      <trkpt lat="59.8572828" lon="17.6980095">
        <ele>3.98267</ele>
        <time>2013-05-18T18:20:28Z</time>
      </trkpt>
      <trkpt lat="59.857247" lon="17.6978335">
        <ele>4.46326</ele>
        <time>2013-05-18T18:20:29Z</time>
      </trkpt>
      <trkpt lat="59.8572105" lon="17.6976649">
        <ele>4.94385</ele>
        <time>2013-05-18T18:20:30Z</time>
      </trkpt>
      <trkpt lat="59.8571753" lon="17.6974913">
        <ele>5.90527</ele>
        <time>2013-05-18T18:20:31Z</time>
      </trkpt>
      <trkpt lat="59.8571417" lon="17.6973103">
        <ele>6.86646</ele>
        <time>2013-05-18T18:20:32Z</time>
      </trkpt>
      <trkpt lat="59.85711" lon="17.6971317">
        <ele>7.34717</ele>
        <time>2013-05-18T18:20:33Z</time>
      </trkpt>
      <trkpt lat="59.857078" lon="17.6969557">
        <ele>8.30859</ele>
        <time>2013-05-18T18:20:34Z</time>
      </trkpt>
      <trkpt lat="59.8570466" lon="17.6967816">
        <ele>8.78918</ele>
        <time>2013-05-18T18:20:35Z</time>
      </trkpt>
      <trkpt lat="59.8570156" lon="17.6966122">
        <ele>9.75061</ele>
        <time>2013-05-18T18:20:36Z</time>
      </trkpt>
      <trkpt lat="59.8569851" lon="17.6964454">
        <ele>10.2312</ele>
        <time>2013-05-18T18:20:37Z</time>
      </trkpt>
      <trkpt lat="59.8569549" lon="17.6962813">
        <ele>9.2699</ele>
        <time>2013-05-18T18:20:38Z</time>
      </trkpt>
      <trkpt lat="59.8569235" lon="17.6961171">
        <ele>8.78918</ele>
        <time>2013-05-18T18:20:39Z</time>
      </trkpt>
      <trkpt lat="59.8568908" lon="17.6959382">
        <ele>8.78918</ele>
        <time>2013-05-18T18:20:40Z</time>
      </trkpt>
      <trkpt lat="59.8568572" lon="17.6957667">
        <ele>7.82788</ele>
        <time>2013-05-18T18:20:41Z</time>
      </trkpt>
      <trkpt lat="59.8568249" lon="17.6955928">
        <ele>7.82788</ele>
        <time>2013-05-18T18:20:42Z</time>
      </trkpt>
      <trkpt lat="59.856793" lon="17.6954276">
        <ele>7.34717</ele>
        <time>2013-05-18T18:20:43Z</time>
      </trkpt>
      <trkpt lat="59.8567603" lon="17.695259">
        <ele>5.42456</ele>
        <time>2013-05-18T18:20:44Z</time>
      </trkpt>
      <trkpt lat="59.8567272" lon="17.6950716">
        <ele>5.90527</ele>
        <time>2013-05-18T18:20:45Z</time>
      </trkpt>
      <trkpt lat="59.8566915" lon="17.6948821">
        <ele>6.38586</ele>
        <time>2013-05-18T18:20:46Z</time>
      </trkpt>
      <trkpt lat="59.8566562" lon="17.6947001">
        <ele>7.34717</ele>
        <time>2013-05-18T18:20:47Z</time>
      </trkpt>
      <trkpt lat="59.8566225" lon="17.6945242">
        <ele>6.38586</ele>
        <time>2013-05-18T18:20:48Z</time>
      </trkpt>
      <trkpt lat="59.8565905" lon="17.6943471">
        <ele>6.38586</ele>
        <time>2013-05-18T18:20:49Z</time>
      </trkpt>
      <trkpt lat="59.8565598" lon="17.6941703">
        <ele>6.86646</ele>
        <time>2013-05-18T18:20:50Z</time>
      </trkpt>
      <trkpt lat="59.8565286" lon="17.693987">
        <ele>7.34717</ele>
        <time>2013-05-18T18:20:51Z</time>
      </trkpt>
      <trkpt lat="59.8564976" lon="17.6938083">
        <ele>7.82788</ele>
        <time>2013-05-18T18:20:52Z</time>
      </trkpt>
      <trkpt lat="59.8564659" lon="17.6936353">
        <ele>9.75061</ele>
        <time>2013-05-18T18:20:53Z</time>
      </trkpt>
      <trkpt lat="59.8564384" lon="17.6934753">
        <ele>10.2312</ele>
        <time>2013-05-18T18:20:54Z</time>
      </trkpt>
      <trkpt lat="59.8564091" lon="17.6933187">
        <ele>10.2312</ele>
        <time>2013-05-18T18:20:55Z</time>
      </trkpt>
      <trkpt lat="59.8563796" lon="17.6931611">
        <ele>10.2312</ele>
        <time>2013-05-18T18:20:56Z</time>
      </trkpt>
      <trkpt lat="59.8563516" lon="17.6930023">
        <ele>10.7118</ele>
        <time>2013-05-18T18:20:57Z</time>
      </trkpt>
      <trkpt lat="59.8563215" lon="17.6928427">
        <ele>11.6732</ele>
        <time>2013-05-18T18:20:58Z</time>
      </trkpt>
      <trkpt lat="59.8562895" lon="17.6926842">
        <ele>12.6344</ele>
        <time>2013-05-18T18:20:59Z</time>
      </trkpt>
      <trkpt lat="59.8562602" lon="17.6925201">
        <ele>14.557</ele>
        <time>2013-05-18T18:21:00Z</time>
      </trkpt>
      <trkpt lat="59.8562315" lon="17.6923623">
        <ele>14.0764</ele>
        <time>2013-05-18T18:21:01Z</time>
      </trkpt>
      <trkpt lat="59.856204" lon="17.6922109">
        <ele>13.5958</ele>
        <time>2013-05-18T18:21:02Z</time>
      </trkpt>
      <trkpt lat="59.8561735" lon="17.6920579">
        <ele>15.0377</ele>
        <time>2013-05-18T18:21:03Z</time>
      </trkpt>
      <trkpt lat="59.8561442" lon="17.6919165">
        <ele>13.5958</ele>
        <time>2013-05-18T18:21:04Z</time>
      </trkpt>
      <trkpt lat="59.8561139" lon="17.691779">
        <ele>13.5958</ele>
        <time>2013-05-18T18:21:05Z</time>
      </trkpt>
      <trkpt lat="59.8560874" lon="17.6916373">
        <ele>13.1151</ele>
        <time>2013-05-18T18:21:06Z</time>
      </trkpt>
      <trkpt lat="59.8560608" lon="17.6914916">
        <ele>13.5958</ele>
        <time>2013-05-18T18:21:07Z</time>
      </trkpt>
      <trkpt lat="59.8560398" lon="17.6913473">
        <ele>14.557</ele>
        <time>2013-05-18T18:21:08Z</time>
      </trkpt>
      <trkpt lat="59.8560356" lon="17.6912069">
        <ele>14.0764</ele>
        <time>2013-05-18T18:21:09Z</time>
      </trkpt>
      <trkpt lat="59.8560492" lon="17.6910704">
        <ele>14.0764</ele>
        <time>2013-05-18T18:21:10Z</time>
      </trkpt>
      <trkpt lat="59.8560813" lon="17.6909427">
        <ele>14.557</ele>
        <time>2013-05-18T18:21:11Z</time>
      </trkpt>
      <trkpt lat="59.8561271" lon="17.6908381">
        <ele>15.0377</ele>
        <time>2013-05-18T18:21:12Z</time>
      </trkpt>
      <trkpt lat="59.8561811" lon="17.6907494">
        <ele>15.0377</ele>
        <time>2013-05-18T18:21:13Z</time>
      </trkpt>
      <trkpt lat="59.8562397" lon="17.6906649">
        <ele>15.5184</ele>
        <time>2013-05-18T18:21:14Z</time>
      </trkpt>
      <trkpt lat="59.8563024" lon="17.6905893">
        <ele>14.0764</ele>
        <time>2013-05-18T18:21:15Z</time>
      </trkpt>
      <trkpt lat="59.856364" lon="17.6905143">
        <ele>13.1151</ele>
        <time>2013-05-18T18:21:16Z</time>
      </trkpt>
      <trkpt lat="59.8564284" lon="17.6904412">
        <ele>13.1151</ele>
        <time>2013-05-18T18:21:17Z</time>
      </trkpt>
      <trkpt lat="59.856496" lon="17.6903719">
        <ele>13.1151</ele>
        <time>2013-05-18T18:21:18Z</time>
      </trkpt>
      <trkpt lat="59.8565644" lon="17.6903056">
        <ele>13.1151</ele>
        <time>2013-05-18T18:21:19Z</time>
      </trkpt>
      <trkpt lat="59.8566342" lon="17.6902412">
        <ele>13.1151</ele>
        <time>2013-05-18T18:21:20Z</time>
      </trkpt>
      <trkpt lat="59.8567037" lon="17.6901769">
        <ele>13.1151</ele>
        <time>2013-05-18T18:21:21Z</time>
      </trkpt>
      <trkpt lat="59.8567723" lon="17.6901123">
        <ele>13.1151</ele>
        <time>2013-05-18T18:21:22Z</time>
      </trkpt>
      <trkpt lat="59.8568409" lon="17.6900491">
        <ele>13.1151</ele>
        <time>2013-05-18T18:21:23Z</time>
      </trkpt>
      <trkpt lat="59.8569079" lon="17.6899869">
        <ele>11.6732</ele>
        <time>2013-05-18T18:21:24Z</time>
      </trkpt>
      <trkpt lat="59.8569752" lon="17.6899209">
        <ele>10.7118</ele>
        <time>2013-05-18T18:21:25Z</time>
      </trkpt>
      <trkpt lat="59.8570426" lon="17.6898542">
        <ele>9.75061</ele>
        <time>2013-05-18T18:21:26Z</time>
      </trkpt>
      <trkpt lat="59.8571108" lon="17.6897865">
        <ele>9.75061</ele>
        <time>2013-05-18T18:21:27Z</time>
      </trkpt>
      <trkpt lat="59.8571803" lon="17.6897222">
        <ele>9.2699</ele>
        <time>2013-05-18T18:21:28Z</time>
      </trkpt>
      <trkpt lat="59.8572491" lon="17.6896589">
        <ele>9.2699</ele>
        <time>2013-05-18T18:21:29Z</time>
      </trkpt>
      <trkpt lat="59.8573172" lon="17.6895982">
        <ele>8.78918</ele>
        <time>2013-05-18T18:21:30Z</time>
      </trkpt>
      <trkpt lat="59.8573836" lon="17.6895408">
        <ele>8.78918</ele>
        <time>2013-05-18T18:21:31Z</time>
      </trkpt>
      <trkpt lat="59.8574493" lon="17.6894834">
        <ele>8.30859</ele>
        <time>2013-05-18T18:21:32Z</time>
      </trkpt>
      <trkpt lat="59.857514" lon="17.6894247">
        <ele>7.82788</ele>
        <time>2013-05-18T18:21:33Z</time>
      </trkpt>
      <trkpt lat="59.8575782" lon="17.6893627">
        <ele>7.82788</ele>
        <time>2013-05-18T18:21:34Z</time>
      </trkpt>
      <trkpt lat="59.857642" lon="17.689299">
        <ele>7.34717</ele>
        <time>2013-05-18T18:21:35Z</time>
      </trkpt>
      <trkpt lat="59.8577056" lon="17.6892362">
        <ele>7.34717</ele>
        <time>2013-05-18T18:21:36Z</time>
      </trkpt>
      <trkpt lat="59.85777" lon="17.6891746">
        <ele>6.86646</ele>
        <time>2013-05-18T18:21:37Z</time>
      </trkpt>
      <trkpt lat="59.8578362" lon="17.6891109">
        <ele>6.86646</ele>
        <time>2013-05-18T18:21:38Z</time>
      </trkpt>
      <trkpt lat="59.8579018" lon="17.6890457">
        <ele>6.38586</ele>
        <time>2013-05-18T18:21:39Z</time>
      </trkpt>
      <trkpt lat="59.8579668" lon="17.6889809">
        <ele>6.38586</ele>
        <time>2013-05-18T18:21:40Z</time>
      </trkpt>
      <trkpt lat="59.8580336" lon="17.6889203">
        <ele>5.90527</ele>
        <time>2013-05-18T18:21:41Z</time>
      </trkpt>
      <trkpt lat="59.8581044" lon="17.6888761">
        <ele>5.42456</ele>
        <time>2013-05-18T18:21:42Z</time>
      </trkpt>
      <trkpt lat="59.8581781" lon="17.6888468">
        <ele>5.42456</ele>
        <time>2013-05-18T18:21:43Z</time>
      </trkpt>
      <trkpt lat="59.8582513" lon="17.6888094">
        <ele>5.42456</ele>
        <time>2013-05-18T18:21:44Z</time>
      </trkpt>
      <trkpt lat="59.8583195" lon="17.6887458">
        <ele>5.42456</ele>
        <time>2013-05-18T18:21:45Z</time>
      </trkpt>
      <trkpt lat="59.8583813" lon="17.6886565">
        <ele>5.90527</ele>
        <time>2013-05-18T18:21:46Z</time>
      </trkpt>
      <trkpt lat="59.8584356" lon="17.6885519">
        <ele>5.90527</ele>
        <time>2013-05-18T18:21:47Z</time>
      </trkpt>
      <trkpt lat="59.8584882" lon="17.6884425">
        <ele>5.42456</ele>
        <time>2013-05-18T18:21:48Z</time>
      </trkpt>
      <trkpt lat="59.8585423" lon="17.688334">
        <ele>5.42456</ele>
        <time>2013-05-18T18:21:49Z</time>
      </trkpt>
      <trkpt lat="59.8585971" lon="17.6882324">
        <ele>5.42456</ele>
        <time>2013-05-18T18:21:50Z</time>
      </trkpt>
      <trkpt lat="59.8586527" lon="17.6881341">
        <ele>5.42456</ele>
        <time>2013-05-18T18:21:51Z</time>
      </trkpt>
      <trkpt lat="59.8587102" lon="17.6880392">
        <ele>5.42456</ele>
        <time>2013-05-18T18:21:52Z</time>
      </trkpt>
      <trkpt lat="59.8587696" lon="17.6879502">
        <ele>5.42456</ele>
        <time>2013-05-18T18:21:53Z</time>
      </trkpt>
      <trkpt lat="59.8588297" lon="17.6878686">
        <ele>5.42456</ele>
        <time>2013-05-18T18:21:54Z</time>
      </trkpt>
      <trkpt lat="59.8588879" lon="17.6877931">
        <ele>5.42456</ele>
        <time>2013-05-18T18:21:55Z</time>
      </trkpt>
      <trkpt lat="59.8589442" lon="17.6877277">
        <ele>5.42456</ele>
        <time>2013-05-18T18:21:56Z</time>
      </trkpt>
      <trkpt lat="59.8589986" lon="17.6876625">
        <ele>5.42456</ele>
        <time>2013-05-18T18:21:57Z</time>
      </trkpt>
      <trkpt lat="59.859052" lon="17.6875987">
        <ele>5.42456</ele>
        <time>2013-05-18T18:21:58Z</time>
      </trkpt>
      <trkpt lat="59.8591033" lon="17.6875382">
        <ele>5.90527</ele>
        <time>2013-05-18T18:21:59Z</time>
      </trkpt>
      <trkpt lat="59.8591526" lon="17.6874735">
        <ele>6.38586</ele>
        <time>2013-05-18T18:22:00Z</time>
      </trkpt>
      <trkpt lat="59.8592032" lon="17.687414">
        <ele>6.86646</ele>
        <time>2013-05-18T18:22:01Z</time>
      </trkpt>
      <trkpt lat="59.8592535" lon="17.6873622">
        <ele>7.34717</ele>
        <time>2013-05-18T18:22:02Z</time>
      </trkpt>
      <trkpt lat="59.8593041" lon="17.6873149">
        <ele>8.30859</ele>
        <time>2013-05-18T18:22:03Z</time>
      </trkpt>
      <trkpt lat="59.8593498" lon="17.6872715">
        <ele>8.30859</ele>
        <time>2013-05-18T18:22:04Z</time>
      </trkpt>
      <trkpt lat="59.8593933" lon="17.6872322">
        <ele>8.78918</ele>
        <time>2013-05-18T18:22:05Z</time>
      </trkpt>
      <trkpt lat="59.8594346" lon="17.6871964">
        <ele>10.2312</ele>
        <time>2013-05-18T18:22:06Z</time>
      </trkpt>
      <trkpt lat="59.85946" lon="17.6871713">
        <ele>10.7118</ele>
        <time>2013-05-18T18:22:07Z</time>
      </trkpt>
      <trkpt lat="59.8594761" lon="17.6871467">
        <ele>10.7118</ele>
        <time>2013-05-18T18:22:08Z</time>
      </trkpt>
      <trkpt lat="59.8594802" lon="17.6871385">
        <ele>10.2312</ele>
        <time>2013-05-18T18:22:09Z</time>
      </trkpt>
      <trkpt lat="59.8594777" lon="17.6871361">
        <ele>11.1925</ele>
        <time>2013-05-18T18:22:10Z</time>
      </trkpt>
      <trkpt lat="59.8594756" lon="17.6871432">
        <ele>11.1925</ele>
        <time>2013-05-18T18:22:11Z</time>
      </trkpt>
      <trkpt lat="59.8594721" lon="17.687156">
        <ele>10.7118</ele>
        <time>2013-05-18T18:22:12Z</time>
      </trkpt>
      <trkpt lat="59.8594705" lon="17.6871638">
        <ele>10.7118</ele>
        <time>2013-05-18T18:22:13Z</time>
      </trkpt>
      <trkpt lat="59.8594699" lon="17.6871592">
        <ele>10.7118</ele>
        <time>2013-05-18T18:22:14Z</time>
      </trkpt>
      <trkpt lat="59.8594277" lon="17.6871312">
        <ele>6.38586</ele>
        <time>2013-05-18T18:22:54Z</time>
      </trkpt>
      <trkpt lat="59.8594472" lon="17.6871116">
        <ele>6.86646</ele>
        <time>2013-05-18T18:22:55Z</time>
      </trkpt>
      <trkpt lat="59.8594745" lon="17.6870861">
        <ele>7.34717</ele>
        <time>2013-05-18T18:22:56Z</time>
      </trkpt>
      <trkpt lat="59.8595105" lon="17.6870506">
        <ele>7.82788</ele>
        <time>2013-05-18T18:22:57Z</time>
      </trkpt>
      <trkpt lat="59.8595548" lon="17.6870011">
        <ele>8.30859</ele>
        <time>2013-05-18T18:22:58Z</time>
      </trkpt>
      <trkpt lat="59.8596061" lon="17.6869405">
        <ele>8.78918</ele>
        <time>2013-05-18T18:22:59Z</time>
      </trkpt>
      <trkpt lat="59.8596661" lon="17.6868878">
        <ele>8.30859</ele>
        <time>2013-05-18T18:23:00Z</time>
      </trkpt>
      <trkpt lat="59.8597295" lon="17.6868048">
        <ele>8.30859</ele>
        <time>2013-05-18T18:23:01Z</time>
      </trkpt>
      <trkpt lat="59.8597979" lon="17.6867074">
        <ele>8.30859</ele>
        <time>2013-05-18T18:23:02Z</time>
      </trkpt>
      <trkpt lat="59.8598683" lon="17.6865976">
        <ele>8.78918</ele>
        <time>2013-05-18T18:23:03Z</time>
      </trkpt>
      <trkpt lat="59.8599393" lon="17.6865">
        <ele>9.75061</ele>
        <time>2013-05-18T18:23:04Z</time>
      </trkpt>
      <trkpt lat="59.8600119" lon="17.6864044">
        <ele>9.75061</ele>
        <time>2013-05-18T18:23:05Z</time>
      </trkpt>
      <trkpt lat="59.8600896" lon="17.686306">
        <ele>10.2312</ele>
        <time>2013-05-18T18:23:06Z</time>
      </trkpt>
      <trkpt lat="59.8601658" lon="17.6862112">
        <ele>9.2699</ele>
        <time>2013-05-18T18:23:07Z</time>
      </trkpt>
      <trkpt lat="59.8602419" lon="17.6861261">
        <ele>8.78918</ele>
        <time>2013-05-18T18:23:08Z</time>
      </trkpt>
      <trkpt lat="59.860317" lon="17.6860284">
        <ele>9.2699</ele>
        <time>2013-05-18T18:23:09Z</time>
      </trkpt>
      <trkpt lat="59.8603927" lon="17.6859302">
        <ele>9.2699</ele>
        <time>2013-05-18T18:23:10Z</time>
      </trkpt>
      <trkpt lat="59.8604688" lon="17.6858354">
        <ele>9.2699</ele>
        <time>2013-05-18T18:23:11Z</time>
      </trkpt>
      <trkpt lat="59.8605464" lon="17.6857465">
        <ele>9.2699</ele>
        <time>2013-05-18T18:23:12Z</time>
      </trkpt>
      <trkpt lat="59.8606255" lon="17.6856609">
        <ele>9.75061</ele>
        <time>2013-05-18T18:23:13Z</time>
      </trkpt>
      <trkpt lat="59.860704" lon="17.6855772">
        <ele>9.75061</ele>
        <time>2013-05-18T18:23:14Z</time>
      </trkpt>
      <trkpt lat="59.860782" lon="17.6854963">
        <ele>9.2699</ele>
        <time>2013-05-18T18:23:15Z</time>
      </trkpt>
      <trkpt lat="59.8608593" lon="17.6854181">
        <ele>9.2699</ele>
        <time>2013-05-18T18:23:16Z</time>
      </trkpt>
      <trkpt lat="59.8609356" lon="17.6853408">
        <ele>9.2699</ele>
        <time>2013-05-18T18:23:17Z</time>
      </trkpt>
      <trkpt lat="59.8610106" lon="17.6852657">
        <ele>9.75061</ele>
        <time>2013-05-18T18:23:18Z</time>
      </trkpt>
      <trkpt lat="59.8610867" lon="17.6851916">
        <ele>10.2312</ele>
        <time>2013-05-18T18:23:19Z</time>
      </trkpt>
      <trkpt lat="59.8611616" lon="17.6851205">
        <ele>10.7118</ele>
        <time>2013-05-18T18:23:20Z</time>
      </trkpt>
      <trkpt lat="59.8612344" lon="17.6850528">
        <ele>11.1925</ele>
        <time>2013-05-18T18:23:21Z</time>
      </trkpt>
      <trkpt lat="59.8613074" lon="17.6849875">
        <ele>11.6732</ele>
        <time>2013-05-18T18:23:22Z</time>
      </trkpt>
      <trkpt lat="59.8613784" lon="17.6849285">
        <ele>11.1925</ele>
        <time>2013-05-18T18:23:23Z</time>
      </trkpt>
      <trkpt lat="59.8614503" lon="17.6848719">
        <ele>11.6732</ele>
        <time>2013-05-18T18:23:24Z</time>
      </trkpt>
      <trkpt lat="59.8615222" lon="17.6848203">
        <ele>11.1925</ele>
        <time>2013-05-18T18:23:25Z</time>
      </trkpt>
      <trkpt lat="59.8615949" lon="17.684769">
        <ele>11.6732</ele>
        <time>2013-05-18T18:23:26Z</time>
      </trkpt>
      <trkpt lat="59.8616682" lon="17.6847145">
        <ele>11.6732</ele>
        <time>2013-05-18T18:23:27Z</time>
      </trkpt>
      <trkpt lat="59.8617429" lon="17.6846613">
        <ele>12.6344</ele>
        <time>2013-05-18T18:23:28Z</time>
      </trkpt>
      <trkpt lat="59.8618207" lon="17.6845981">
        <ele>12.1538</ele>
        <time>2013-05-18T18:23:29Z</time>
      </trkpt>
      <trkpt lat="59.8618974" lon="17.6845395">
        <ele>12.6344</ele>
        <time>2013-05-18T18:23:30Z</time>
      </trkpt>
      <trkpt lat="59.8619705" lon="17.6844873">
        <ele>12.1538</ele>
        <time>2013-05-18T18:23:31Z</time>
      </trkpt>
      <trkpt lat="59.8620436" lon="17.6844368">
        <ele>12.6344</ele>
        <time>2013-05-18T18:23:32Z</time>
      </trkpt>
      <trkpt lat="59.8621166" lon="17.6843867">
        <ele>12.6344</ele>
        <time>2013-05-18T18:23:33Z</time>
      </trkpt>
      <trkpt lat="59.8621878" lon="17.68434">
        <ele>12.1538</ele>
        <time>2013-05-18T18:23:34Z</time>
      </trkpt>
      <trkpt lat="59.86226" lon="17.6842893">
        <ele>11.6732</ele>
        <time>2013-05-18T18:23:35Z</time>
      </trkpt>
      <trkpt lat="59.8623308" lon="17.6842338">
        <ele>11.6732</ele>
        <time>2013-05-18T18:23:36Z</time>
      </trkpt>
      <trkpt lat="59.8624049" lon="17.684181">
        <ele>12.1538</ele>
        <time>2013-05-18T18:23:37Z</time>
      </trkpt>
      <trkpt lat="59.8624763" lon="17.6841313">
        <ele>13.1151</ele>
        <time>2013-05-18T18:23:38Z</time>
      </trkpt>
      <trkpt lat="59.8625505" lon="17.684084">
        <ele>14.0764</ele>
        <time>2013-05-18T18:23:39Z</time>
      </trkpt>
      <trkpt lat="59.8626267" lon="17.6840327">
        <ele>14.557</ele>
        <time>2013-05-18T18:23:40Z</time>
      </trkpt>
      <trkpt lat="59.8626993" lon="17.6839708">
        <ele>14.557</ele>
        <time>2013-05-18T18:23:41Z</time>
      </trkpt>
      <trkpt lat="59.8627742" lon="17.6839167">
        <ele>13.5958</ele>
        <time>2013-05-18T18:23:42Z</time>
      </trkpt>
      <trkpt lat="59.8628442" lon="17.683869">
        <ele>13.1151</ele>
        <time>2013-05-18T18:23:43Z</time>
      </trkpt>
      <trkpt lat="59.8629177" lon="17.6838163">
        <ele>13.1151</ele>
        <time>2013-05-18T18:23:44Z</time>
      </trkpt>
      <trkpt lat="59.8629916" lon="17.6837702">
        <ele>13.1151</ele>
        <time>2013-05-18T18:23:45Z</time>
      </trkpt>
      <trkpt lat="59.8630633" lon="17.6837206">
        <ele>13.5958</ele>
        <time>2013-05-18T18:23:46Z</time>
      </trkpt>
      <trkpt lat="59.863138" lon="17.6836704">
        <ele>11.1925</ele>
        <time>2013-05-18T18:23:47Z</time>
      </trkpt>
      <trkpt lat="59.8632112" lon="17.6836228">
        <ele>11.1925</ele>
        <time>2013-05-18T18:23:48Z</time>
      </trkpt>
      <trkpt lat="59.8632808" lon="17.6835784">
        <ele>11.6732</ele>
        <time>2013-05-18T18:23:49Z</time>
      </trkpt>
      <trkpt lat="59.8633547" lon="17.6835277">
        <ele>11.6732</ele>
        <time>2013-05-18T18:23:50Z</time>
      </trkpt>
      <trkpt lat="59.8634231" lon="17.6834776">
        <ele>11.1925</ele>
        <time>2013-05-18T18:23:51Z</time>
      </trkpt>
      <trkpt lat="59.8634979" lon="17.6834226">
        <ele>11.6732</ele>
        <time>2013-05-18T18:23:52Z</time>
      </trkpt>
      <trkpt lat="59.8635711" lon="17.683373">
        <ele>9.2699</ele>
        <time>2013-05-18T18:23:53Z</time>
      </trkpt>
      <trkpt lat="59.8636436" lon="17.6833257">
        <ele>7.34717</ele>
        <time>2013-05-18T18:23:54Z</time>
      </trkpt>
      <trkpt lat="59.8637163" lon="17.6832786">
        <ele>6.86646</ele>
        <time>2013-05-18T18:23:55Z</time>
      </trkpt>
      <trkpt lat="59.863784" lon="17.6832322">
        <ele>5.90527</ele>
        <time>2013-05-18T18:23:56Z</time>
      </trkpt>
      <trkpt lat="59.8638517" lon="17.683186">
        <ele>3.98267</ele>
        <time>2013-05-18T18:23:57Z</time>
      </trkpt>
      <trkpt lat="59.8639238" lon="17.6831357">
        <ele>2.06006</ele>
        <time>2013-05-18T18:23:58Z</time>
      </trkpt>
      <trkpt lat="59.8639947" lon="17.6830825">
        <ele>0</ele>
        <time>2013-05-18T18:23:59Z</time>
      </trkpt>
      <trkpt lat="59.8640669" lon="17.6830314">
        <ele>0</ele>
        <time>2013-05-18T18:24:00Z</time>
      </trkpt>
      <trkpt lat="59.8641454" lon="17.682977">
        <ele>0</ele>
        <time>2013-05-18T18:24:01Z</time>
      </trkpt>
      <trkpt lat="59.8642222" lon="17.6829217">
        <ele>0</ele>
        <time>2013-05-18T18:24:02Z</time>
      </trkpt>
      <trkpt lat="59.8642953" lon="17.6828678">
        <ele>0</ele>
        <time>2013-05-18T18:24:03Z</time>
      </trkpt>
      <trkpt lat="59.8643647" lon="17.682826">
        <ele>0</ele>
        <time>2013-05-18T18:24:04Z</time>
      </trkpt>
      <trkpt lat="59.8644293" lon="17.6827856">
        <ele>0</ele>
        <time>2013-05-18T18:24:05Z</time>
      </trkpt>
      <trkpt lat="59.8644928" lon="17.6827287">
        <ele>0</ele>
        <time>2013-05-18T18:24:06Z</time>
      </trkpt>
      <trkpt lat="59.8645573" lon="17.6826828">
        <ele>0</ele>
        <time>2013-05-18T18:24:07Z</time>
      </trkpt>
      <trkpt lat="59.8646228" lon="17.6826346">
        <ele>0</ele>
        <time>2013-05-18T18:24:08Z</time>
      </trkpt>
      <trkpt lat="59.8646872" lon="17.6825852">
        <ele>0</ele>
        <time>2013-05-18T18:24:09Z</time>
      </trkpt>
      <trkpt lat="59.8647499" lon="17.6825342">
        <ele>0</ele>
        <time>2013-05-18T18:24:10Z</time>
      </trkpt>
      <trkpt lat="59.8648112" lon="17.6824836">
        <ele>0</ele>
        <time>2013-05-18T18:24:11Z</time>
      </trkpt>
      <trkpt lat="59.8648706" lon="17.6824307">
        <ele>0</ele>
        <time>2013-05-18T18:24:12Z</time>
      </trkpt>
      <trkpt lat="59.8649298" lon="17.6823845">
        <ele>0.137451</ele>
        <time>2013-05-18T18:24:13Z</time>
      </trkpt>
      <trkpt lat="59.8649873" lon="17.6823407">
        <ele>0.618042</ele>
        <time>2013-05-18T18:24:14Z</time>
      </trkpt>
      <trkpt lat="59.8650428" lon="17.682294">
        <ele>0.618042</ele>
        <time>2013-05-18T18:24:15Z</time>
      </trkpt>
      <trkpt lat="59.8650962" lon="17.682252">
        <ele>1.09863</ele>
        <time>2013-05-18T18:24:16Z</time>
      </trkpt>
      <trkpt lat="59.8651465" lon="17.6822114">
        <ele>2.06006</ele>
        <time>2013-05-18T18:24:17Z</time>
      </trkpt>
      <trkpt lat="59.8651951" lon="17.6821764">
        <ele>2.54065</ele>
        <time>2013-05-18T18:24:18Z</time>
      </trkpt>
      <trkpt lat="59.8652408" lon="17.6821401">
        <ele>3.02124</ele>
        <time>2013-05-18T18:24:19Z</time>
      </trkpt>
      <trkpt lat="59.8652838" lon="17.6821033">
        <ele>3.50195</ele>
        <time>2013-05-18T18:24:20Z</time>
      </trkpt>
      <trkpt lat="59.8653197" lon="17.6820607">
        <ele>3.98267</ele>
        <time>2013-05-18T18:24:21Z</time>
      </trkpt>
      <trkpt lat="59.8653525" lon="17.6820163">
        <ele>4.94385</ele>
        <time>2013-05-18T18:24:22Z</time>
      </trkpt>
      <trkpt lat="59.8653831" lon="17.6819905">
        <ele>4.94385</ele>
        <time>2013-05-18T18:24:23Z</time>
      </trkpt>
      <trkpt lat="59.8654073" lon="17.6819721">
        <ele>5.42456</ele>
        <time>2013-05-18T18:24:24Z</time>
      </trkpt>
      <trkpt lat="59.8654252" lon="17.6819593">
        <ele>5.90527</ele>
        <time>2013-05-18T18:24:25Z</time>
      </trkpt>
      <trkpt lat="59.8654389" lon="17.6819556">
        <ele>5.90527</ele>
        <time>2013-05-18T18:24:26Z</time>
      </trkpt>
      <trkpt lat="59.8654436" lon="17.6819496">
        <ele>6.38586</ele>
        <time>2013-05-18T18:24:27Z</time>
      </trkpt>
      <trkpt lat="59.8654519" lon="17.6819433">
        <ele>6.38586</ele>
        <time>2013-05-18T18:24:28Z</time>
      </trkpt>
      <trkpt lat="59.8654567" lon="17.6819391">
        <ele>6.38586</ele>
        <time>2013-05-18T18:24:29Z</time>
      </trkpt>
      <trkpt lat="59.8654622" lon="17.6819365">
        <ele>6.38586</ele>
        <time>2013-05-18T18:24:30Z</time>
      </trkpt>
      <trkpt lat="59.8654638" lon="17.6819303">
        <ele>7.34717</ele>
        <time>2013-05-18T18:24:31Z</time>
      </trkpt>
      <trkpt lat="59.865464" lon="17.6819349">
        <ele>8.30859</ele>
        <time>2013-05-18T18:24:32Z</time>
      </trkpt>
      <trkpt lat="59.8655042" lon="17.681928">
        <ele>8.30859</ele>
        <time>2013-05-18T18:24:36Z</time>
      </trkpt>
      <trkpt lat="59.8655266" lon="17.6819137">
        <ele>8.30859</ele>
        <time>2013-05-18T18:24:37Z</time>
      </trkpt>
      <trkpt lat="59.8655583" lon="17.6818925">
        <ele>7.34717</ele>
        <time>2013-05-18T18:24:38Z</time>
      </trkpt>
      <trkpt lat="59.8656006" lon="17.681867">
        <ele>6.86646</ele>
        <time>2013-05-18T18:24:39Z</time>
      </trkpt>
      <trkpt lat="59.8656554" lon="17.681838">
        <ele>6.86646</ele>
        <time>2013-05-18T18:24:40Z</time>
      </trkpt>
      <trkpt lat="59.8657074" lon="17.6817976">
        <ele>6.38586</ele>
        <time>2013-05-18T18:24:41Z</time>
      </trkpt>
      <trkpt lat="59.865769" lon="17.6817541">
        <ele>6.38586</ele>
        <time>2013-05-18T18:24:42Z</time>
      </trkpt>
      <trkpt lat="59.8658358" lon="17.6817144">
        <ele>6.86646</ele>
        <time>2013-05-18T18:24:43Z</time>
      </trkpt>
      <trkpt lat="59.8659151" lon="17.6816548">
        <ele>6.86646</ele>
        <time>2013-05-18T18:24:44Z</time>
      </trkpt>
      <trkpt lat="59.8659949" lon="17.6816019">
        <ele>6.86646</ele>
        <time>2013-05-18T18:24:45Z</time>
      </trkpt>
      <trkpt lat="59.8660777" lon="17.6815559">
        <ele>6.86646</ele>
        <time>2013-05-18T18:24:46Z</time>
      </trkpt>
      <trkpt lat="59.8661521" lon="17.6815152">
        <ele>6.86646</ele>
        <time>2013-05-18T18:24:47Z</time>
      </trkpt>
      <trkpt lat="59.8662271" lon="17.6814953">
        <ele>5.42456</ele>
        <time>2013-05-18T18:24:48Z</time>
      </trkpt>
      <trkpt lat="59.866301" lon="17.6814665">
        <ele>4.46326</ele>
        <time>2013-05-18T18:24:49Z</time>
      </trkpt>
      <trkpt lat="59.866373" lon="17.6814428">
        <ele>4.94385</ele>
        <time>2013-05-18T18:24:50Z</time>
      </trkpt>
      <trkpt lat="59.8664477" lon="17.6814061">
        <ele>4.46326</ele>
        <time>2013-05-18T18:24:51Z</time>
      </trkpt>
      <trkpt lat="59.8665202" lon="17.6813751">
        <ele>4.46326</ele>
        <time>2013-05-18T18:24:52Z</time>
      </trkpt>
      <trkpt lat="59.8665942" lon="17.6813625">
        <ele>3.50195</ele>
        <time>2013-05-18T18:24:53Z</time>
      </trkpt>
      <trkpt lat="59.8666673" lon="17.6813438">
        <ele>1.09863</ele>
        <time>2013-05-18T18:24:54Z</time>
      </trkpt>
      <trkpt lat="59.8667382" lon="17.6813168">
        <ele>0.137451</ele>
        <time>2013-05-18T18:24:55Z</time>
      </trkpt>
      <trkpt lat="59.8668138" lon="17.6812785">
        <ele>0</ele>
        <time>2013-05-18T18:24:56Z</time>
      </trkpt>
      <trkpt lat="59.8668859" lon="17.6812371">
        <ele>0</ele>
        <time>2013-05-18T18:24:57Z</time>
      </trkpt>
      <trkpt lat="59.8669611" lon="17.6811932">
        <ele>1.09863</ele>
        <time>2013-05-18T18:24:58Z</time>
      </trkpt>
      <trkpt lat="59.8670403" lon="17.6811585">
        <ele>2.54065</ele>
        <time>2013-05-18T18:24:59Z</time>
      </trkpt>
      <trkpt lat="59.8671168" lon="17.6811185">
        <ele>3.98267</ele>
        <time>2013-05-18T18:25:00Z</time>
      </trkpt>
      <trkpt lat="59.8671915" lon="17.6810859">
        <ele>4.46326</ele>
        <time>2013-05-18T18:25:01Z</time>
      </trkpt>
      <trkpt lat="59.8672654" lon="17.6810549">
        <ele>5.42456</ele>
        <time>2013-05-18T18:25:02Z</time>
      </trkpt>
      <trkpt lat="59.8673468" lon="17.681016">
        <ele>5.90527</ele>
        <time>2013-05-18T18:25:03Z</time>
      </trkpt>
      <trkpt lat="59.8674245" lon="17.6809849">
        <ele>5.90527</ele>
        <time>2013-05-18T18:25:04Z</time>
      </trkpt>
      <trkpt lat="59.8674992" lon="17.6809545">
        <ele>5.42456</ele>
        <time>2013-05-18T18:25:05Z</time>
      </trkpt>
      <trkpt lat="59.8675717" lon="17.6809236">
        <ele>4.46326</ele>
        <time>2013-05-18T18:25:06Z</time>
      </trkpt>
      <trkpt lat="59.8676448" lon="17.6808927">
        <ele>3.98267</ele>
        <time>2013-05-18T18:25:07Z</time>
      </trkpt>
      <trkpt lat="59.8677188" lon="17.6808627">
        <ele>3.98267</ele>
        <time>2013-05-18T18:25:08Z</time>
      </trkpt>
      <trkpt lat="59.8677918" lon="17.6808309">
        <ele>3.50195</ele>
        <time>2013-05-18T18:25:09Z</time>
      </trkpt>
      <trkpt lat="59.8678639" lon="17.6807984">
        <ele>3.50195</ele>
        <time>2013-05-18T18:25:10Z</time>
      </trkpt>
      <trkpt lat="59.8679348" lon="17.6807651">
        <ele>3.02124</ele>
        <time>2013-05-18T18:25:11Z</time>
      </trkpt>
      <trkpt lat="59.8680042" lon="17.6807291">
        <ele>3.02124</ele>
        <time>2013-05-18T18:25:12Z</time>
      </trkpt>
      <trkpt lat="59.868076" lon="17.6807068">
        <ele>2.06006</ele>
        <time>2013-05-18T18:25:13Z</time>
      </trkpt>
      <trkpt lat="59.8681451" lon="17.6806813">
        <ele>2.54065</ele>
        <time>2013-05-18T18:25:14Z</time>
      </trkpt>
      <trkpt lat="59.8682136" lon="17.6806522">
        <ele>2.06006</ele>
        <time>2013-05-18T18:25:15Z</time>
      </trkpt>
      <trkpt lat="59.8682819" lon="17.6806198">
        <ele>2.06006</ele>
        <time>2013-05-18T18:25:16Z</time>
      </trkpt>
      <trkpt lat="59.8683504" lon="17.680588">
        <ele>2.06006</ele>
        <time>2013-05-18T18:25:17Z</time>
      </trkpt>
      <trkpt lat="59.8684181" lon="17.6805629">
        <ele>1.57935</ele>
        <time>2013-05-18T18:25:18Z</time>
      </trkpt>
      <trkpt lat="59.8684861" lon="17.6805379">
        <ele>1.57935</ele>
        <time>2013-05-18T18:25:19Z</time>
      </trkpt>
      <trkpt lat="59.8685533" lon="17.6805051">
        <ele>1.57935</ele>
        <time>2013-05-18T18:25:20Z</time>
      </trkpt>
      <trkpt lat="59.8686207" lon="17.6804714">
        <ele>2.06006</ele>
        <time>2013-05-18T18:25:21Z</time>
      </trkpt>
      <trkpt lat="59.8686891" lon="17.6804349">
        <ele>2.06006</ele>
        <time>2013-05-18T18:25:22Z</time>
      </trkpt>
      <trkpt lat="59.8687558" lon="17.6803958">
        <ele>2.06006</ele>
        <time>2013-05-18T18:25:23Z</time>
      </trkpt>
      <trkpt lat="59.8688235" lon="17.6803611">
        <ele>2.06006</ele>
        <time>2013-05-18T18:25:24Z</time>
      </trkpt>
      <trkpt lat="59.8688936" lon="17.6803286">
        <ele>2.54065</ele>
        <time>2013-05-18T18:25:25Z</time>
      </trkpt>
      <trkpt lat="59.8689632" lon="17.6802985">
        <ele>2.54065</ele>
        <time>2013-05-18T18:25:26Z</time>
      </trkpt>
      <trkpt lat="59.8690324" lon="17.680266">
        <ele>3.02124</ele>
        <time>2013-05-18T18:25:27Z</time>
      </trkpt>
      <trkpt lat="59.8691009" lon="17.6802324">
        <ele>3.02124</ele>
        <time>2013-05-18T18:25:28Z</time>
      </trkpt>
      <trkpt lat="59.8691691" lon="17.6801987">
        <ele>3.02124</ele>
        <time>2013-05-18T18:25:29Z</time>
      </trkpt>
      <trkpt lat="59.8692371" lon="17.6801653">
        <ele>3.02124</ele>
        <time>2013-05-18T18:25:30Z</time>
      </trkpt>
      <trkpt lat="59.8693054" lon="17.6801328">
        <ele>3.50195</ele>
        <time>2013-05-18T18:25:31Z</time>
      </trkpt>
      <trkpt lat="59.8693738" lon="17.6801018">
        <ele>3.50195</ele>
        <time>2013-05-18T18:25:32Z</time>
      </trkpt>
      <trkpt lat="59.8694417" lon="17.6800725">
        <ele>3.50195</ele>
        <time>2013-05-18T18:25:33Z</time>
      </trkpt>
      <trkpt lat="59.8695095" lon="17.6800422">
        <ele>3.50195</ele>
        <time>2013-05-18T18:25:34Z</time>
      </trkpt>
      <trkpt lat="59.8695736" lon="17.6800089">
        <ele>3.02124</ele>
        <time>2013-05-18T18:25:35Z</time>
      </trkpt>
      <trkpt lat="59.8696399" lon="17.6799755">
        <ele>3.02124</ele>
        <time>2013-05-18T18:25:36Z</time>
      </trkpt>
      <trkpt lat="59.8697054" lon="17.6799366">
        <ele>3.02124</ele>
        <time>2013-05-18T18:25:37Z</time>
      </trkpt>
      <trkpt lat="59.8697717" lon="17.6799065">
        <ele>3.02124</ele>
        <time>2013-05-18T18:25:38Z</time>
      </trkpt>
      <trkpt lat="59.8698359" lon="17.679876">
        <ele>3.02124</ele>
        <time>2013-05-18T18:25:39Z</time>
      </trkpt>
      <trkpt lat="59.869899" lon="17.6798464">
        <ele>2.54065</ele>
        <time>2013-05-18T18:25:40Z</time>
      </trkpt>
      <trkpt lat="59.8699637" lon="17.6798169">
        <ele>2.54065</ele>
        <time>2013-05-18T18:25:41Z</time>
      </trkpt>
      <trkpt lat="59.8700281" lon="17.6797879">
        <ele>2.54065</ele>
        <time>2013-05-18T18:25:42Z</time>
      </trkpt>
      <trkpt lat="59.8700883" lon="17.6797599">
        <ele>1.57935</ele>
        <time>2013-05-18T18:25:43Z</time>
      </trkpt>
      <trkpt lat="59.8701502" lon="17.6797308">
        <ele>1.09863</ele>
        <time>2013-05-18T18:25:44Z</time>
      </trkpt>
      <trkpt lat="59.8702129" lon="17.6797025">
        <ele>1.09863</ele>
        <time>2013-05-18T18:25:45Z</time>
      </trkpt>
      <trkpt lat="59.8702786" lon="17.6796801">
        <ele>1.09863</ele>
        <time>2013-05-18T18:25:46Z</time>
      </trkpt>
      <trkpt lat="59.870342" lon="17.6796594">
        <ele>1.09863</ele>
        <time>2013-05-18T18:25:47Z</time>
      </trkpt>
      <trkpt lat="59.8704088" lon="17.6796406">
        <ele>1.09863</ele>
        <time>2013-05-18T18:25:48Z</time>
      </trkpt>
      <trkpt lat="59.8704723" lon="17.679619">
        <ele>1.09863</ele>
        <time>2013-05-18T18:25:49Z</time>
      </trkpt>
      <trkpt lat="59.8705412" lon="17.6796008">
        <ele>2.06006</ele>
        <time>2013-05-18T18:25:50Z</time>
      </trkpt>
      <trkpt lat="59.8706084" lon="17.6795848">
        <ele>2.54065</ele>
        <time>2013-05-18T18:25:51Z</time>
      </trkpt>
      <trkpt lat="59.870674" lon="17.6795681">
        <ele>2.54065</ele>
        <time>2013-05-18T18:25:52Z</time>
      </trkpt>
      <trkpt lat="59.8707388" lon="17.679551">
        <ele>2.54065</ele>
        <time>2013-05-18T18:25:53Z</time>
      </trkpt>
      <trkpt lat="59.8708025" lon="17.6795339">
        <ele>2.54065</ele>
        <time>2013-05-18T18:25:54Z</time>
      </trkpt>
      <trkpt lat="59.87087" lon="17.6795186">
        <ele>3.02124</ele>
        <time>2013-05-18T18:25:55Z</time>
      </trkpt>
      <trkpt lat="59.8709337" lon="17.6794988">
        <ele>2.54065</ele>
        <time>2013-05-18T18:25:56Z</time>
      </trkpt>
      <trkpt lat="59.8710004" lon="17.6794789">
        <ele>2.54065</ele>
        <time>2013-05-18T18:25:57Z</time>
      </trkpt>
      <trkpt lat="59.8710673" lon="17.6794588">
        <ele>3.02124</ele>
        <time>2013-05-18T18:25:58Z</time>
      </trkpt>
      <trkpt lat="59.8711345" lon="17.6794386">
        <ele>3.02124</ele>
        <time>2013-05-18T18:25:59Z</time>
      </trkpt>
      <trkpt lat="59.8712024" lon="17.679421">
        <ele>3.50195</ele>
        <time>2013-05-18T18:26:00Z</time>
      </trkpt>
      <trkpt lat="59.8712706" lon="17.679405">
        <ele>3.50195</ele>
        <time>2013-05-18T18:26:01Z</time>
      </trkpt>
      <trkpt lat="59.8713387" lon="17.6793872">
        <ele>3.50195</ele>
        <time>2013-05-18T18:26:02Z</time>
      </trkpt>
      <trkpt lat="59.8714063" lon="17.6793689">
        <ele>3.50195</ele>
        <time>2013-05-18T18:26:03Z</time>
      </trkpt>
      <trkpt lat="59.8714739" lon="17.6793511">
        <ele>3.50195</ele>
        <time>2013-05-18T18:26:04Z</time>
      </trkpt>
      <trkpt lat="59.8715405" lon="17.6793324">
        <ele>3.98267</ele>
        <time>2013-05-18T18:26:05Z</time>
      </trkpt>
      <trkpt lat="59.8716055" lon="17.6793134">
        <ele>3.98267</ele>
        <time>2013-05-18T18:26:06Z</time>
      </trkpt>
      <trkpt lat="59.8716705" lon="17.6792946">
        <ele>3.98267</ele>
        <time>2013-05-18T18:26:07Z</time>
      </trkpt>
      <trkpt lat="59.8717355" lon="17.6792753">
        <ele>3.98267</ele>
        <time>2013-05-18T18:26:08Z</time>
      </trkpt>
      <trkpt lat="59.8718024" lon="17.6792579">
        <ele>3.98267</ele>
        <time>2013-05-18T18:26:09Z</time>
      </trkpt>
      <trkpt lat="59.8718681" lon="17.6792413">
        <ele>4.46326</ele>
        <time>2013-05-18T18:26:10Z</time>
      </trkpt>
      <trkpt lat="59.8719344" lon="17.6792242">
        <ele>4.94385</ele>
        <time>2013-05-18T18:26:11Z</time>
      </trkpt>
      <trkpt lat="59.8720006" lon="17.6792069">
        <ele>4.94385</ele>
        <time>2013-05-18T18:26:12Z</time>
      </trkpt>
      <trkpt lat="59.872066" lon="17.6791895">
        <ele>5.42456</ele>
        <time>2013-05-18T18:26:13Z</time>
      </trkpt>
      <trkpt lat="59.8721301" lon="17.6791738">
        <ele>5.42456</ele>
        <time>2013-05-18T18:26:14Z</time>
      </trkpt>
      <trkpt lat="59.8721945" lon="17.6791559">
        <ele>5.42456</ele>
        <time>2013-05-18T18:26:15Z</time>
      </trkpt>
      <trkpt lat="59.8722576" lon="17.6791398">
        <ele>5.42456</ele>
        <time>2013-05-18T18:26:16Z</time>
      </trkpt>
      <trkpt lat="59.8723201" lon="17.6791221">
        <ele>5.42456</ele>
        <time>2013-05-18T18:26:17Z</time>
      </trkpt>
      <trkpt lat="59.8723823" lon="17.6791038">
        <ele>5.42456</ele>
        <time>2013-05-18T18:26:18Z</time>
      </trkpt>
      <trkpt lat="59.8724413" lon="17.6790834">
        <ele>4.94385</ele>
        <time>2013-05-18T18:26:19Z</time>
      </trkpt>
      <trkpt lat="59.8725031" lon="17.6790651">
        <ele>5.42456</ele>
        <time>2013-05-18T18:26:20Z</time>
      </trkpt>
      <trkpt lat="59.8725641" lon="17.6790471">
        <ele>5.42456</ele>
        <time>2013-05-18T18:26:21Z</time>
      </trkpt>
      <trkpt lat="59.8726255" lon="17.67903">
        <ele>5.42456</ele>
        <time>2013-05-18T18:26:22Z</time>
      </trkpt>
      <trkpt lat="59.8726876" lon="17.6790124">
        <ele>5.90527</ele>
        <time>2013-05-18T18:26:23Z</time>
      </trkpt>
      <trkpt lat="59.8727502" lon="17.6789947">
        <ele>5.90527</ele>
        <time>2013-05-18T18:26:24Z</time>
      </trkpt>
      <trkpt lat="59.872812" lon="17.6789767">
        <ele>6.38586</ele>
        <time>2013-05-18T18:26:25Z</time>
      </trkpt>
      <trkpt lat="59.8728765" lon="17.6789605">
        <ele>6.86646</ele>
        <time>2013-05-18T18:26:26Z</time>
      </trkpt>
      <trkpt lat="59.8729398" lon="17.6789448">
        <ele>7.34717</ele>
        <time>2013-05-18T18:26:27Z</time>
      </trkpt>
      <trkpt lat="59.8730021" lon="17.6789279">
        <ele>7.82788</ele>
        <time>2013-05-18T18:26:28Z</time>
      </trkpt>
      <trkpt lat="59.8730643" lon="17.6789119">
        <ele>8.30859</ele>
        <time>2013-05-18T18:26:29Z</time>
      </trkpt>
      <trkpt lat="59.8731258" lon="17.6788968">
        <ele>8.30859</ele>
        <time>2013-05-18T18:26:30Z</time>
      </trkpt>
      <trkpt lat="59.8731868" lon="17.6788819">
        <ele>8.30859</ele>
        <time>2013-05-18T18:26:31Z</time>
      </trkpt>
      <trkpt lat="59.873248" lon="17.6788662">
        <ele>8.78918</ele>
        <time>2013-05-18T18:26:32Z</time>
      </trkpt>
      <trkpt lat="59.8733101" lon="17.678849">
        <ele>8.78918</ele>
        <time>2013-05-18T18:26:33Z</time>
      </trkpt>
      <trkpt lat="59.8733718" lon="17.6788314">
        <ele>8.78918</ele>
        <time>2013-05-18T18:26:34Z</time>
      </trkpt>
      <trkpt lat="59.873433" lon="17.6788156">
        <ele>8.78918</ele>
        <time>2013-05-18T18:26:35Z</time>
      </trkpt>
      <trkpt lat="59.873494" lon="17.6788003">
        <ele>8.78918</ele>
        <time>2013-05-18T18:26:36Z</time>
      </trkpt>
      <trkpt lat="59.8735547" lon="17.6787832">
        <ele>8.78918</ele>
        <time>2013-05-18T18:26:37Z</time>
      </trkpt>
      <trkpt lat="59.8736147" lon="17.6787668">
        <ele>8.78918</ele>
        <time>2013-05-18T18:26:38Z</time>
      </trkpt>
      <trkpt lat="59.8736744" lon="17.6787522">
        <ele>8.78918</ele>
        <time>2013-05-18T18:26:39Z</time>
      </trkpt>
      <trkpt lat="59.8737346" lon="17.6787389">
        <ele>8.78918</ele>
        <time>2013-05-18T18:26:40Z</time>
      </trkpt>
      <trkpt lat="59.8737954" lon="17.678726">
        <ele>8.78918</ele>
        <time>2013-05-18T18:26:41Z</time>
      </trkpt>
      <trkpt lat="59.8738562" lon="17.6787143">
        <ele>8.78918</ele>
        <time>2013-05-18T18:26:42Z</time>
      </trkpt>
      <trkpt lat="59.8739164" lon="17.6787034">
        <ele>8.78918</ele>
        <time>2013-05-18T18:26:43Z</time>
      </trkpt>
      <trkpt lat="59.873977" lon="17.6786916">
        <ele>8.78918</ele>
        <time>2013-05-18T18:26:44Z</time>
      </trkpt>
      <trkpt lat="59.8740375" lon="17.6786808">
        <ele>8.78918</ele>
        <time>2013-05-18T18:26:45Z</time>
      </trkpt>
      <trkpt lat="59.8740981" lon="17.6786721">
        <ele>8.78918</ele>
        <time>2013-05-18T18:26:46Z</time>
      </trkpt>
      <trkpt lat="59.8741593" lon="17.6786642">
        <ele>8.78918</ele>
        <time>2013-05-18T18:26:47Z</time>
      </trkpt>
      <trkpt lat="59.8742208" lon="17.6786552">
        <ele>8.78918</ele>
        <time>2013-05-18T18:26:48Z</time>
      </trkpt>
      <trkpt lat="59.8742824" lon="17.6786457">
        <ele>8.78918</ele>
        <time>2013-05-18T18:26:49Z</time>
      </trkpt>
      <trkpt lat="59.8743436" lon="17.6786389">
        <ele>8.78918</ele>
        <time>2013-05-18T18:26:50Z</time>
      </trkpt>
      <trkpt lat="59.8744007" lon="17.678632">
        <ele>8.30859</ele>
        <time>2013-05-18T18:26:51Z</time>
      </trkpt>
      <trkpt lat="59.8744612" lon="17.6786257">
        <ele>8.30859</ele>
        <time>2013-05-18T18:26:52Z</time>
      </trkpt>
      <trkpt lat="59.8745228" lon="17.6786207">
        <ele>8.30859</ele>
        <time>2013-05-18T18:26:53Z</time>
      </trkpt>
      <trkpt lat="59.8745845" lon="17.6786172">
        <ele>8.30859</ele>
        <time>2013-05-18T18:26:54Z</time>
      </trkpt>
      <trkpt lat="59.874652" lon="17.6786164">
        <ele>9.2699</ele>
        <time>2013-05-18T18:26:55Z</time>
      </trkpt>
      <trkpt lat="59.8747182" lon="17.6786145">
        <ele>9.75061</ele>
        <time>2013-05-18T18:26:56Z</time>
      </trkpt>
      <trkpt lat="59.8747808" lon="17.6786124">
        <ele>10.2312</ele>
        <time>2013-05-18T18:26:57Z</time>
      </trkpt>
      <trkpt lat="59.8748434" lon="17.6786117">
        <ele>10.7118</ele>
        <time>2013-05-18T18:26:58Z</time>
      </trkpt>
      <trkpt lat="59.8749055" lon="17.6786123">
        <ele>11.1925</ele>
        <time>2013-05-18T18:26:59Z</time>
      </trkpt>
      <trkpt lat="59.8749676" lon="17.6786112">
        <ele>11.1925</ele>
        <time>2013-05-18T18:27:00Z</time>
      </trkpt>
      <trkpt lat="59.8750288" lon="17.6786088">
        <ele>11.1925</ele>
        <time>2013-05-18T18:27:01Z</time>
      </trkpt>
      <trkpt lat="59.8750916" lon="17.6786079">
        <ele>11.6732</ele>
        <time>2013-05-18T18:27:02Z</time>
      </trkpt>
      <trkpt lat="59.8751503" lon="17.6786056">
        <ele>11.1925</ele>
        <time>2013-05-18T18:27:03Z</time>
      </trkpt>
      <trkpt lat="59.8752083" lon="17.678602">
        <ele>10.7118</ele>
        <time>2013-05-18T18:27:04Z</time>
      </trkpt>
      <trkpt lat="59.8752717" lon="17.6786001">
        <ele>11.1925</ele>
        <time>2013-05-18T18:27:05Z</time>
      </trkpt>
      <trkpt lat="59.875333" lon="17.6785959">
        <ele>11.1925</ele>
        <time>2013-05-18T18:27:06Z</time>
      </trkpt>
      <trkpt lat="59.8753921" lon="17.6785885">
        <ele>11.1925</ele>
        <time>2013-05-18T18:27:07Z</time>
      </trkpt>
      <trkpt lat="59.8754501" lon="17.6785788">
        <ele>11.1925</ele>
        <time>2013-05-18T18:27:08Z</time>
      </trkpt>
      <trkpt lat="59.8755088" lon="17.6785674">
        <ele>10.7118</ele>
        <time>2013-05-18T18:27:09Z</time>
      </trkpt>
      <trkpt lat="59.8755662" lon="17.6785543">
        <ele>10.7118</ele>
        <time>2013-05-18T18:27:10Z</time>
      </trkpt>
      <trkpt lat="59.875623" lon="17.6785387">
        <ele>10.7118</ele>
        <time>2013-05-18T18:27:11Z</time>
      </trkpt>
      <trkpt lat="59.8756811" lon="17.6785224">
        <ele>11.1925</ele>
        <time>2013-05-18T18:27:12Z</time>
      </trkpt>
      <trkpt lat="59.875738" lon="17.6785027">
        <ele>11.6732</ele>
        <time>2013-05-18T18:27:13Z</time>
      </trkpt>
      <trkpt lat="59.8757899" lon="17.6784767">
        <ele>10.7118</ele>
        <time>2013-05-18T18:27:14Z</time>
      </trkpt>
      <trkpt lat="59.8758462" lon="17.6784538">
        <ele>10.7118</ele>
        <time>2013-05-18T18:27:15Z</time>
      </trkpt>
      <trkpt lat="59.8759034" lon="17.6784301">
        <ele>11.6732</ele>
        <time>2013-05-18T18:27:16Z</time>
      </trkpt>
      <trkpt lat="59.875962" lon="17.678405">
        <ele>12.1538</ele>
        <time>2013-05-18T18:27:17Z</time>
      </trkpt>
      <trkpt lat="59.8760183" lon="17.678384">
        <ele>12.6344</ele>
        <time>2013-05-18T18:27:18Z</time>
      </trkpt>
      <trkpt lat="59.8760749" lon="17.6783659">
        <ele>13.1151</ele>
        <time>2013-05-18T18:27:19Z</time>
      </trkpt>
      <trkpt lat="59.876133" lon="17.6783507">
        <ele>13.5958</ele>
        <time>2013-05-18T18:27:20Z</time>
      </trkpt>
      <trkpt lat="59.8761898" lon="17.6783488">
        <ele>14.0764</ele>
        <time>2013-05-18T18:27:21Z</time>
      </trkpt>
      <trkpt lat="59.8762453" lon="17.678373">
        <ele>14.0764</ele>
        <time>2013-05-18T18:27:22Z</time>
      </trkpt>
      <trkpt lat="59.8762984" lon="17.6784137">
        <ele>15.0377</ele>
        <time>2013-05-18T18:27:23Z</time>
      </trkpt>
      <trkpt lat="59.8763515" lon="17.6784558">
        <ele>14.557</ele>
        <time>2013-05-18T18:27:24Z</time>
      </trkpt>
      <trkpt lat="59.8764095" lon="17.6784871">
        <ele>15.5184</ele>
        <time>2013-05-18T18:27:25Z</time>
      </trkpt>
      <trkpt lat="59.876469" lon="17.6784998">
        <ele>16.4797</ele>
        <time>2013-05-18T18:27:26Z</time>
      </trkpt>
      <trkpt lat="59.8765286" lon="17.6784892">
        <ele>16.9604</ele>
        <time>2013-05-18T18:27:27Z</time>
      </trkpt>
      <trkpt lat="59.8765846" lon="17.6784519">
        <ele>17.4412</ele>
        <time>2013-05-18T18:27:28Z</time>
      </trkpt>
      <trkpt lat="59.8766308" lon="17.6783923">
        <ele>17.9218</ele>
        <time>2013-05-18T18:27:29Z</time>
      </trkpt>
      <trkpt lat="59.8766685" lon="17.6783162">
        <ele>17.9218</ele>
        <time>2013-05-18T18:27:30Z</time>
      </trkpt>
      <trkpt lat="59.8767006" lon="17.6782308">
        <ele>17.9218</ele>
        <time>2013-05-18T18:27:31Z</time>
      </trkpt>
      <trkpt lat="59.8767306" lon="17.6781389">
        <ele>17.9218</ele>
        <time>2013-05-18T18:27:32Z</time>
      </trkpt>
      <trkpt lat="59.876762" lon="17.6780415">
        <ele>17.9218</ele>
        <time>2013-05-18T18:27:33Z</time>
      </trkpt>
      <trkpt lat="59.8767954" lon="17.6779369">
        <ele>17.4412</ele>
        <time>2013-05-18T18:27:34Z</time>
      </trkpt>
      <trkpt lat="59.8768421" lon="17.6778509">
        <ele>17.4412</ele>
        <time>2013-05-18T18:27:35Z</time>
      </trkpt>
      <trkpt lat="59.8768964" lon="17.6777743">
        <ele>17.9218</ele>
        <time>2013-05-18T18:27:36Z</time>
      </trkpt>
      <trkpt lat="59.8769559" lon="17.6777086">
        <ele>17.9218</ele>
        <time>2013-05-18T18:27:37Z</time>
      </trkpt>
      <trkpt lat="59.8770191" lon="17.6776483">
        <ele>18.4023</ele>
        <time>2013-05-18T18:27:38Z</time>
      </trkpt>
      <trkpt lat="59.8770839" lon="17.6775903">
        <ele>18.4023</ele>
        <time>2013-05-18T18:27:39Z</time>
      </trkpt>
      <trkpt lat="59.8771496" lon="17.6775351">
        <ele>18.8831</ele>
        <time>2013-05-18T18:27:40Z</time>
      </trkpt>
      <trkpt lat="59.8772146" lon="17.6774851">
        <ele>18.8831</ele>
        <time>2013-05-18T18:27:41Z</time>
      </trkpt>
      <trkpt lat="59.8772793" lon="17.6774361">
        <ele>18.8831</ele>
        <time>2013-05-18T18:27:42Z</time>
      </trkpt>
      <trkpt lat="59.8773394" lon="17.6773859">
        <ele>17.4412</ele>
        <time>2013-05-18T18:27:43Z</time>
      </trkpt>
      <trkpt lat="59.8774009" lon="17.6773371">
        <ele>16.9604</ele>
        <time>2013-05-18T18:27:44Z</time>
      </trkpt>
      <trkpt lat="59.8774625" lon="17.6772889">
        <ele>16.4797</ele>
        <time>2013-05-18T18:27:45Z</time>
      </trkpt>
      <trkpt lat="59.8775245" lon="17.6772378">
        <ele>16.4797</ele>
        <time>2013-05-18T18:27:46Z</time>
      </trkpt>
      <trkpt lat="59.877586" lon="17.6771839">
        <ele>15.999</ele>
        <time>2013-05-18T18:27:47Z</time>
      </trkpt>
      <trkpt lat="59.8776478" lon="17.6771366">
        <ele>15.5184</ele>
        <time>2013-05-18T18:27:48Z</time>
      </trkpt>
      <trkpt lat="59.8777077" lon="17.6770874">
        <ele>15.5184</ele>
        <time>2013-05-18T18:27:49Z</time>
      </trkpt>
      <trkpt lat="59.8777667" lon="17.6770355">
        <ele>15.0377</ele>
        <time>2013-05-18T18:27:50Z</time>
      </trkpt>
      <trkpt lat="59.8778261" lon="17.676981">
        <ele>14.557</ele>
        <time>2013-05-18T18:27:51Z</time>
      </trkpt>
      <trkpt lat="59.8778853" lon="17.6769263">
        <ele>14.557</ele>
        <time>2013-05-18T18:27:52Z</time>
      </trkpt>
      <trkpt lat="59.8779442" lon="17.676871">
        <ele>14.0764</ele>
        <time>2013-05-18T18:27:53Z</time>
      </trkpt>
      <trkpt lat="59.8780037" lon="17.6768158">
        <ele>14.0764</ele>
        <time>2013-05-18T18:27:54Z</time>
      </trkpt>
      <trkpt lat="59.878064" lon="17.6767591">
        <ele>14.0764</ele>
        <time>2013-05-18T18:27:55Z</time>
      </trkpt>
      <trkpt lat="59.8781246" lon="17.676701">
        <ele>14.0764</ele>
        <time>2013-05-18T18:27:56Z</time>
      </trkpt>
      <trkpt lat="59.8781852" lon="17.6766417">
        <ele>13.5958</ele>
        <time>2013-05-18T18:27:57Z</time>
      </trkpt>
      <trkpt lat="59.8782462" lon="17.6765799">
        <ele>13.5958</ele>
        <time>2013-05-18T18:27:58Z</time>
      </trkpt>
      <trkpt lat="59.8783069" lon="17.6765157">
        <ele>13.5958</ele>
        <time>2013-05-18T18:27:59Z</time>
      </trkpt>
      <trkpt lat="59.8783675" lon="17.6764504">
        <ele>13.5958</ele>
        <time>2013-05-18T18:28:00Z</time>
      </trkpt>
      <trkpt lat="59.8784281" lon="17.676385">
        <ele>13.1151</ele>
        <time>2013-05-18T18:28:01Z</time>
      </trkpt>
      <trkpt lat="59.8784903" lon="17.6763178">
        <ele>13.1151</ele>
        <time>2013-05-18T18:28:02Z</time>
      </trkpt>
      <trkpt lat="59.8785504" lon="17.6762489">
        <ele>14.0764</ele>
        <time>2013-05-18T18:28:03Z</time>
      </trkpt>
      <trkpt lat="59.8786069" lon="17.6761892">
        <ele>13.5958</ele>
        <time>2013-05-18T18:28:04Z</time>
      </trkpt>
      <trkpt lat="59.8786663" lon="17.6761303">
        <ele>13.5958</ele>
        <time>2013-05-18T18:28:05Z</time>
      </trkpt>
      <trkpt lat="59.878727" lon="17.6760697">
        <ele>13.5958</ele>
        <time>2013-05-18T18:28:06Z</time>
      </trkpt>
      <trkpt lat="59.8787866" lon="17.6760089">
        <ele>14.0764</ele>
        <time>2013-05-18T18:28:07Z</time>
      </trkpt>
      <trkpt lat="59.8788456" lon="17.6759494">
        <ele>14.557</ele>
        <time>2013-05-18T18:28:08Z</time>
      </trkpt>
      <trkpt lat="59.8789047" lon="17.6758899">
        <ele>15.0377</ele>
        <time>2013-05-18T18:28:09Z</time>
      </trkpt>
      <trkpt lat="59.8789638" lon="17.6758349">
        <ele>15.0377</ele>
        <time>2013-05-18T18:28:10Z</time>
      </trkpt>
      <trkpt lat="59.8790208" lon="17.6758105">
        <ele>15.5184</ele>
        <time>2013-05-18T18:28:11Z</time>
      </trkpt>
      <trkpt lat="59.8790801" lon="17.6758054">
        <ele>16.4797</ele>
        <time>2013-05-18T18:28:12Z</time>
      </trkpt>
      <trkpt lat="59.8791399" lon="17.6757934">
        <ele>16.9604</ele>
        <time>2013-05-18T18:28:13Z</time>
      </trkpt>
      <trkpt lat="59.8791953" lon="17.6757463">
        <ele>17.4412</ele>
        <time>2013-05-18T18:28:14Z</time>
      </trkpt>
      <trkpt lat="59.8792399" lon="17.6756614">
        <ele>17.9218</ele>
        <time>2013-05-18T18:28:15Z</time>
      </trkpt>
      <trkpt lat="59.8792729" lon="17.6755534">
        <ele>17.9218</ele>
        <time>2013-05-18T18:28:16Z</time>
      </trkpt>
      <trkpt lat="59.8793052" lon="17.6754382">
        <ele>17.9218</ele>
        <time>2013-05-18T18:28:17Z</time>
      </trkpt>
      <trkpt lat="59.8793488" lon="17.6753346">
        <ele>18.4023</ele>
        <time>2013-05-18T18:28:18Z</time>
      </trkpt>
      <trkpt lat="59.8794019" lon="17.6752486">
        <ele>18.4023</ele>
        <time>2013-05-18T18:28:19Z</time>
      </trkpt>
      <trkpt lat="59.87946" lon="17.675174">
        <ele>18.4023</ele>
        <time>2013-05-18T18:28:20Z</time>
      </trkpt>
      <trkpt lat="59.8795204" lon="17.6751053">
        <ele>18.8831</ele>
        <time>2013-05-18T18:28:21Z</time>
      </trkpt>
      <trkpt lat="59.8795818" lon="17.675038">
        <ele>18.8831</ele>
        <time>2013-05-18T18:28:22Z</time>
      </trkpt>
      <trkpt lat="59.8796444" lon="17.6749713">
        <ele>18.8831</ele>
        <time>2013-05-18T18:28:23Z</time>
      </trkpt>
      <trkpt lat="59.8797082" lon="17.6749034">
        <ele>18.8831</ele>
        <time>2013-05-18T18:28:24Z</time>
      </trkpt>
      <trkpt lat="59.8797729" lon="17.6748344">
        <ele>19.3638</ele>
        <time>2013-05-18T18:28:25Z</time>
      </trkpt>
      <trkpt lat="59.8798385" lon="17.6747665">
        <ele>19.3638</ele>
        <time>2013-05-18T18:28:26Z</time>
      </trkpt>
      <trkpt lat="59.8799043" lon="17.674701">
        <ele>19.8444</ele>
        <time>2013-05-18T18:28:27Z</time>
      </trkpt>
      <trkpt lat="59.8799698" lon="17.6746347">
        <ele>19.8444</ele>
        <time>2013-05-18T18:28:28Z</time>
      </trkpt>
      <trkpt lat="59.8800359" lon="17.674569">
        <ele>20.325</ele>
        <time>2013-05-18T18:28:29Z</time>
      </trkpt>
      <trkpt lat="59.8801023" lon="17.674504">
        <ele>20.325</ele>
        <time>2013-05-18T18:28:30Z</time>
      </trkpt>
      <trkpt lat="59.8801687" lon="17.6744389">
        <ele>20.8057</ele>
        <time>2013-05-18T18:28:31Z</time>
      </trkpt>
      <trkpt lat="59.8802353" lon="17.6743746">
        <ele>20.8057</ele>
        <time>2013-05-18T18:28:32Z</time>
      </trkpt>
      <trkpt lat="59.8803028" lon="17.6743112">
        <ele>21.767</ele>
        <time>2013-05-18T18:28:33Z</time>
      </trkpt>
      <trkpt lat="59.8803712" lon="17.6742477">
        <ele>22.7283</ele>
        <time>2013-05-18T18:28:34Z</time>
      </trkpt>
      <trkpt lat="59.8804376" lon="17.6741788">
        <ele>23.209</ele>
        <time>2013-05-18T18:28:35Z</time>
      </trkpt>
      <trkpt lat="59.8805053" lon="17.6741131">
        <ele>23.209</ele>
        <time>2013-05-18T18:28:36Z</time>
      </trkpt>
      <trkpt lat="59.8805732" lon="17.6740488">
        <ele>22.7283</ele>
        <time>2013-05-18T18:28:37Z</time>
      </trkpt>
      <trkpt lat="59.8806415" lon="17.6739841">
        <ele>22.7283</ele>
        <time>2013-05-18T18:28:38Z</time>
      </trkpt>
      <trkpt lat="59.8807093" lon="17.6739193">
        <ele>22.7283</ele>
        <time>2013-05-18T18:28:39Z</time>
      </trkpt>
      <trkpt lat="59.8807773" lon="17.6738551">
        <ele>22.7283</ele>
        <time>2013-05-18T18:28:40Z</time>
      </trkpt>
      <trkpt lat="59.8808453" lon="17.6737929">
        <ele>22.7283</ele>
        <time>2013-05-18T18:28:41Z</time>
      </trkpt>
      <trkpt lat="59.8809131" lon="17.6737323">
        <ele>22.7283</ele>
        <time>2013-05-18T18:28:42Z</time>
      </trkpt>
      <trkpt lat="59.8809804" lon="17.6736723">
        <ele>22.7283</ele>
        <time>2013-05-18T18:28:43Z</time>
      </trkpt>
      <trkpt lat="59.8810471" lon="17.6736127">
        <ele>22.2476</ele>
        <time>2013-05-18T18:28:44Z</time>
      </trkpt>
      <trkpt lat="59.881114" lon="17.6735531">
        <ele>22.7283</ele>
        <time>2013-05-18T18:28:45Z</time>
      </trkpt>
      <trkpt lat="59.8811803" lon="17.6734917">
        <ele>22.7283</ele>
        <time>2013-05-18T18:28:46Z</time>
      </trkpt>
      <trkpt lat="59.8812472" lon="17.6734322">
        <ele>22.7283</ele>
        <time>2013-05-18T18:28:47Z</time>
      </trkpt>
      <trkpt lat="59.8813145" lon="17.6733722">
        <ele>23.209</ele>
        <time>2013-05-18T18:28:48Z</time>
      </trkpt>
      <trkpt lat="59.8813813" lon="17.6733137">
        <ele>23.209</ele>
        <time>2013-05-18T18:28:49Z</time>
      </trkpt>
      <trkpt lat="59.8814487" lon="17.6732556">
        <ele>23.6896</ele>
        <time>2013-05-18T18:28:50Z</time>
      </trkpt>
      <trkpt lat="59.8815165" lon="17.6731993">
        <ele>23.6896</ele>
        <time>2013-05-18T18:28:51Z</time>
      </trkpt>
      <trkpt lat="59.8815842" lon="17.6731423">
        <ele>24.1703</ele>
        <time>2013-05-18T18:28:52Z</time>
      </trkpt>
      <trkpt lat="59.8816517" lon="17.6730858">
        <ele>24.1703</ele>
        <time>2013-05-18T18:28:53Z</time>
      </trkpt>
      <trkpt lat="59.8817191" lon="17.6730297">
        <ele>24.651</ele>
        <time>2013-05-18T18:28:54Z</time>
      </trkpt>
      <trkpt lat="59.881787" lon="17.6729719">
        <ele>24.651</ele>
        <time>2013-05-18T18:28:55Z</time>
      </trkpt>
      <trkpt lat="59.8818552" lon="17.6729133">
        <ele>25.1317</ele>
        <time>2013-05-18T18:28:56Z</time>
      </trkpt>
      <trkpt lat="59.8819235" lon="17.6728548">
        <ele>25.1317</ele>
        <time>2013-05-18T18:28:57Z</time>
      </trkpt>
      <trkpt lat="59.8819919" lon="17.6727967">
        <ele>25.6123</ele>
        <time>2013-05-18T18:28:58Z</time>
      </trkpt>
      <trkpt lat="59.8820599" lon="17.6727381">
        <ele>25.6123</ele>
        <time>2013-05-18T18:28:59Z</time>
      </trkpt>
      <trkpt lat="59.8821283" lon="17.6726795">
        <ele>26.0929</ele>
        <time>2013-05-18T18:29:00Z</time>
      </trkpt>
      <trkpt lat="59.8821965" lon="17.6726207">
        <ele>26.5736</ele>
        <time>2013-05-18T18:29:01Z</time>
      </trkpt>
      <trkpt lat="59.882264" lon="17.6725607">
        <ele>26.5736</ele>
        <time>2013-05-18T18:29:02Z</time>
      </trkpt>
      <trkpt lat="59.8823319" lon="17.6725013">
        <ele>27.0543</ele>
        <time>2013-05-18T18:29:03Z</time>
      </trkpt>
      <trkpt lat="59.8824001" lon="17.672444">
        <ele>27.0543</ele>
        <time>2013-05-18T18:29:04Z</time>
      </trkpt>
      <trkpt lat="59.882468" lon="17.6723864">
        <ele>27.5349</ele>
        <time>2013-05-18T18:29:05Z</time>
      </trkpt>
      <trkpt lat="59.8825365" lon="17.6723299">
        <ele>27.5349</ele>
        <time>2013-05-18T18:29:06Z</time>
      </trkpt>
      <trkpt lat="59.8826047" lon="17.6722736">
        <ele>28.0155</ele>
        <time>2013-05-18T18:29:07Z</time>
      </trkpt>
      <trkpt lat="59.8826721" lon="17.6722146">
        <ele>28.0155</ele>
        <time>2013-05-18T18:29:08Z</time>
      </trkpt>
      <trkpt lat="59.8827385" lon="17.6721564">
        <ele>27.0543</ele>
        <time>2013-05-18T18:29:09Z</time>
      </trkpt>
      <trkpt lat="59.8828051" lon="17.6720986">
        <ele>26.5736</ele>
        <time>2013-05-18T18:29:10Z</time>
      </trkpt>
      <trkpt lat="59.8828721" lon="17.6720411">
        <ele>26.0929</ele>
        <time>2013-05-18T18:29:11Z</time>
      </trkpt>
      <trkpt lat="59.8829393" lon="17.6719826">
        <ele>25.6123</ele>
        <time>2013-05-18T18:29:12Z</time>
      </trkpt>
      <trkpt lat="59.8830062" lon="17.6719218">
        <ele>25.1317</ele>
        <time>2013-05-18T18:29:13Z</time>
      </trkpt>
      <trkpt lat="59.8830724" lon="17.6718586">
        <ele>25.1317</ele>
        <time>2013-05-18T18:29:14Z</time>
      </trkpt>
      <trkpt lat="59.8831394" lon="17.6717918">
        <ele>24.651</ele>
        <time>2013-05-18T18:29:15Z</time>
      </trkpt>
      <trkpt lat="59.8832063" lon="17.6717267">
        <ele>24.651</ele>
        <time>2013-05-18T18:29:16Z</time>
      </trkpt>
      <trkpt lat="59.8832725" lon="17.671658">
        <ele>24.1703</ele>
        <time>2013-05-18T18:29:17Z</time>
      </trkpt>
      <trkpt lat="59.8833384" lon="17.6715857">
        <ele>24.1703</ele>
        <time>2013-05-18T18:29:18Z</time>
      </trkpt>
      <trkpt lat="59.8834036" lon="17.6715115">
        <ele>24.1703</ele>
        <time>2013-05-18T18:29:19Z</time>
      </trkpt>
      <trkpt lat="59.8834685" lon="17.6714368">
        <ele>23.6896</ele>
        <time>2013-05-18T18:29:20Z</time>
      </trkpt>
      <trkpt lat="59.8835335" lon="17.6713614">
        <ele>23.6896</ele>
        <time>2013-05-18T18:29:21Z</time>
      </trkpt>
      <trkpt lat="59.883599" lon="17.6712852">
        <ele>23.6896</ele>
        <time>2013-05-18T18:29:22Z</time>
      </trkpt>
      <trkpt lat="59.8836678" lon="17.6712187">
        <ele>23.6896</ele>
        <time>2013-05-18T18:29:23Z</time>
      </trkpt>
      <trkpt lat="59.883741" lon="17.6711724">
        <ele>23.6896</ele>
        <time>2013-05-18T18:29:24Z</time>
      </trkpt>
      <trkpt lat="59.8838165" lon="17.6711433">
        <ele>23.209</ele>
        <time>2013-05-18T18:29:25Z</time>
      </trkpt>
      <trkpt lat="59.88389" lon="17.6711085">
        <ele>23.209</ele>
        <time>2013-05-18T18:29:26Z</time>
      </trkpt>
      <trkpt lat="59.8839556" lon="17.6710401">
        <ele>23.209</ele>
        <time>2013-05-18T18:29:27Z</time>
      </trkpt>
      <trkpt lat="59.8840097" lon="17.6708981">
        <ele>23.209</ele>
        <time>2013-05-18T18:29:28Z</time>
      </trkpt>
      <trkpt lat="59.8840486" lon="17.6707459">
        <ele>22.7283</ele>
        <time>2013-05-18T18:29:29Z</time>
      </trkpt>
      <trkpt lat="59.8840749" lon="17.6705983">
        <ele>22.2476</ele>
        <time>2013-05-18T18:29:30Z</time>
      </trkpt>
      <trkpt lat="59.8841019" lon="17.6704538">
        <ele>22.2476</ele>
        <time>2013-05-18T18:29:31Z</time>
      </trkpt>
      <trkpt lat="59.8841403" lon="17.6703221">
        <ele>22.2476</ele>
        <time>2013-05-18T18:29:32Z</time>
      </trkpt>
      <trkpt lat="59.884191" lon="17.6702058">
        <ele>21.767</ele>
        <time>2013-05-18T18:29:33Z</time>
      </trkpt>
      <trkpt lat="59.8842473" lon="17.670104">
        <ele>21.2864</ele>
        <time>2013-05-18T18:29:34Z</time>
      </trkpt>
      <trkpt lat="59.8843013" lon="17.670004">
        <ele>20.8057</ele>
        <time>2013-05-18T18:29:35Z</time>
      </trkpt>
      <trkpt lat="59.884355" lon="17.6698984">
        <ele>20.325</ele>
        <time>2013-05-18T18:29:36Z</time>
      </trkpt>
      <trkpt lat="59.8844082" lon="17.6697866">
        <ele>19.8444</ele>
        <time>2013-05-18T18:29:37Z</time>
      </trkpt>
      <trkpt lat="59.88446" lon="17.6696722">
        <ele>19.8444</ele>
        <time>2013-05-18T18:29:38Z</time>
      </trkpt>
      <trkpt lat="59.8845107" lon="17.6695562">
        <ele>19.3638</ele>
        <time>2013-05-18T18:29:39Z</time>
      </trkpt>
      <trkpt lat="59.8845597" lon="17.6694375">
        <ele>18.8831</ele>
        <time>2013-05-18T18:29:40Z</time>
      </trkpt>
      <trkpt lat="59.8846069" lon="17.6693164">
        <ele>18.8831</ele>
        <time>2013-05-18T18:29:41Z</time>
      </trkpt>
      <trkpt lat="59.8846532" lon="17.669194">
        <ele>18.4023</ele>
        <time>2013-05-18T18:29:42Z</time>
      </trkpt>
      <trkpt lat="59.8846976" lon="17.6690684">
        <ele>17.9218</ele>
        <time>2013-05-18T18:29:43Z</time>
      </trkpt>
      <trkpt lat="59.8847397" lon="17.6689402">
        <ele>17.9218</ele>
        <time>2013-05-18T18:29:44Z</time>
      </trkpt>
      <trkpt lat="59.8847809" lon="17.6688127">
        <ele>17.9218</ele>
        <time>2013-05-18T18:29:45Z</time>
      </trkpt>
      <trkpt lat="59.8848199" lon="17.6686839">
        <ele>17.4412</ele>
        <time>2013-05-18T18:29:46Z</time>
      </trkpt>
      <trkpt lat="59.8848556" lon="17.6685538">
        <ele>17.4412</ele>
        <time>2013-05-18T18:29:47Z</time>
      </trkpt>
      <trkpt lat="59.8848882" lon="17.6684256">
        <ele>17.4412</ele>
        <time>2013-05-18T18:29:48Z</time>
      </trkpt>
      <trkpt lat="59.8849199" lon="17.668303">
        <ele>17.4412</ele>
        <time>2013-05-18T18:29:49Z</time>
      </trkpt>
      <trkpt lat="59.8849489" lon="17.6681982">
        <ele>16.9604</ele>
        <time>2013-05-18T18:29:50Z</time>
      </trkpt>
      <trkpt lat="59.8849723" lon="17.6681207">
        <ele>16.9604</ele>
        <time>2013-05-18T18:29:51Z</time>
      </trkpt>
      <trkpt lat="59.8849893" lon="17.6680684">
        <ele>16.9604</ele>
        <time>2013-05-18T18:29:52Z</time>
      </trkpt>
      <trkpt lat="59.8850073" lon="17.6680273">
        <ele>16.9604</ele>
        <time>2013-05-18T18:29:53Z</time>
      </trkpt>
      <trkpt lat="59.8850323" lon="17.6679895">
        <ele>16.4797</ele>
        <time>2013-05-18T18:29:54Z</time>
      </trkpt>
      <trkpt lat="59.885064" lon="17.6679488">
        <ele>16.4797</ele>
        <time>2013-05-18T18:29:55Z</time>
      </trkpt>
      <trkpt lat="59.8851012" lon="17.6678939">
        <ele>16.4797</ele>
        <time>2013-05-18T18:29:56Z</time>
      </trkpt>
      <trkpt lat="59.8851389" lon="17.6678183">
        <ele>16.4797</ele>
        <time>2013-05-18T18:29:57Z</time>
      </trkpt>
      <trkpt lat="59.8851695" lon="17.6677177">
        <ele>16.4797</ele>
        <time>2013-05-18T18:29:58Z</time>
      </trkpt>
      <trkpt lat="59.8851865" lon="17.6676011">
        <ele>15.999</ele>
        <time>2013-05-18T18:29:59Z</time>
      </trkpt>
      <trkpt lat="59.8851897" lon="17.6674736">
        <ele>15.999</ele>
        <time>2013-05-18T18:30:00Z</time>
      </trkpt>
      <trkpt lat="59.8851804" lon="17.6673369">
        <ele>15.5184</ele>
        <time>2013-05-18T18:30:01Z</time>
      </trkpt>
      <trkpt lat="59.8851688" lon="17.667192">
        <ele>15.0377</ele>
        <time>2013-05-18T18:30:02Z</time>
      </trkpt>
      <trkpt lat="59.8851636" lon="17.6670387">
        <ele>15.0377</ele>
        <time>2013-05-18T18:30:03Z</time>
      </trkpt>
      <trkpt lat="59.8851668" lon="17.6668832">
        <ele>15.0377</ele>
        <time>2013-05-18T18:30:04Z</time>
      </trkpt>
      <trkpt lat="59.8851755" lon="17.6667265">
        <ele>14.557</ele>
        <time>2013-05-18T18:30:05Z</time>
      </trkpt>
      <trkpt lat="59.8851881" lon="17.6665692">
        <ele>14.557</ele>
        <time>2013-05-18T18:30:06Z</time>
      </trkpt>
      <trkpt lat="59.8852022" lon="17.6664106">
        <ele>14.0764</ele>
        <time>2013-05-18T18:30:07Z</time>
      </trkpt>
      <trkpt lat="59.8852175" lon="17.6662529">
        <ele>14.0764</ele>
        <time>2013-05-18T18:30:08Z</time>
      </trkpt>
      <trkpt lat="59.8852349" lon="17.6660987">
        <ele>14.0764</ele>
        <time>2013-05-18T18:30:09Z</time>
      </trkpt>
      <trkpt lat="59.8852538" lon="17.6659446">
        <ele>14.0764</ele>
        <time>2013-05-18T18:30:10Z</time>
      </trkpt>
      <trkpt lat="59.8852706" lon="17.6657937">
        <ele>13.5958</ele>
        <time>2013-05-18T18:30:11Z</time>
      </trkpt>
      <trkpt lat="59.8852891" lon="17.6656451">
        <ele>13.5958</ele>
        <time>2013-05-18T18:30:12Z</time>
      </trkpt>
      <trkpt lat="59.8853125" lon="17.6655012">
        <ele>13.5958</ele>
        <time>2013-05-18T18:30:13Z</time>
      </trkpt>
      <trkpt lat="59.8853418" lon="17.6653633">
        <ele>13.1151</ele>
        <time>2013-05-18T18:30:14Z</time>
      </trkpt>
      <trkpt lat="59.8853793" lon="17.6652315">
        <ele>13.1151</ele>
        <time>2013-05-18T18:30:15Z</time>
      </trkpt>
      <trkpt lat="59.8854274" lon="17.6651125">
        <ele>13.1151</ele>
        <time>2013-05-18T18:30:16Z</time>
      </trkpt>
      <trkpt lat="59.885486" lon="17.665012">
        <ele>12.6344</ele>
        <time>2013-05-18T18:30:17Z</time>
      </trkpt>
      <trkpt lat="59.8855549" lon="17.6649391">
        <ele>12.6344</ele>
        <time>2013-05-18T18:30:18Z</time>
      </trkpt>
      <trkpt lat="59.8856319" lon="17.6649039">
        <ele>12.6344</ele>
        <time>2013-05-18T18:30:19Z</time>
      </trkpt>
      <trkpt lat="59.8857099" lon="17.6648956">
        <ele>12.6344</ele>
        <time>2013-05-18T18:30:20Z</time>
      </trkpt>
      <trkpt lat="59.8857852" lon="17.6649128">
        <ele>12.1538</ele>
        <time>2013-05-18T18:30:21Z</time>
      </trkpt>
      <trkpt lat="59.8858591" lon="17.66494">
        <ele>12.1538</ele>
        <time>2013-05-18T18:30:22Z</time>
      </trkpt>
      <trkpt lat="59.8859326" lon="17.6649519">
        <ele>12.1538</ele>
        <time>2013-05-18T18:30:23Z</time>
      </trkpt>
      <trkpt lat="59.8860057" lon="17.6649353">
        <ele>11.6732</ele>
        <time>2013-05-18T18:30:24Z</time>
      </trkpt>
      <trkpt lat="59.8860767" lon="17.6648883">
        <ele>11.6732</ele>
        <time>2013-05-18T18:30:25Z</time>
      </trkpt>
      <trkpt lat="59.8861465" lon="17.6648142">
        <ele>12.1538</ele>
        <time>2013-05-18T18:30:26Z</time>
      </trkpt>
      <trkpt lat="59.8862081" lon="17.664712">
        <ele>12.6344</ele>
        <time>2013-05-18T18:30:27Z</time>
      </trkpt>
      <trkpt lat="59.88626" lon="17.6645817">
        <ele>13.1151</ele>
        <time>2013-05-18T18:30:28Z</time>
      </trkpt>
      <trkpt lat="59.886305" lon="17.6644366">
        <ele>13.5958</ele>
        <time>2013-05-18T18:30:29Z</time>
      </trkpt>
      <trkpt lat="59.8863493" lon="17.6642898">
        <ele>14.0764</ele>
        <time>2013-05-18T18:30:30Z</time>
      </trkpt>
      <trkpt lat="59.8863952" lon="17.6641435">
        <ele>15.0377</ele>
        <time>2013-05-18T18:30:31Z</time>
      </trkpt>
      <trkpt lat="59.8864428" lon="17.6640015">
        <ele>15.999</ele>
        <time>2013-05-18T18:30:32Z</time>
      </trkpt>
      <trkpt lat="59.886493" lon="17.663864">
        <ele>16.9604</ele>
        <time>2013-05-18T18:30:33Z</time>
      </trkpt>
      <trkpt lat="59.8865453" lon="17.6637336">
        <ele>17.4412</ele>
        <time>2013-05-18T18:30:34Z</time>
      </trkpt>
      <trkpt lat="59.886599" lon="17.6636091">
        <ele>17.9218</ele>
        <time>2013-05-18T18:30:35Z</time>
      </trkpt>
      <trkpt lat="59.8866545" lon="17.6634907">
        <ele>18.8831</ele>
        <time>2013-05-18T18:30:36Z</time>
      </trkpt>
      <trkpt lat="59.8867104" lon="17.6633782">
        <ele>19.3638</ele>
        <time>2013-05-18T18:30:37Z</time>
      </trkpt>
      <trkpt lat="59.8867659" lon="17.6632698">
        <ele>19.8444</ele>
        <time>2013-05-18T18:30:38Z</time>
      </trkpt>
      <trkpt lat="59.886821" lon="17.6631633">
        <ele>20.325</ele>
        <time>2013-05-18T18:30:39Z</time>
      </trkpt>
      <trkpt lat="59.8868739" lon="17.6630552">
        <ele>20.325</ele>
        <time>2013-05-18T18:30:40Z</time>
      </trkpt>
      <trkpt lat="59.8869218" lon="17.6629287">
        <ele>21.2864</ele>
        <time>2013-05-18T18:30:41Z</time>
      </trkpt>
      <trkpt lat="59.8869697" lon="17.6628115">
        <ele>21.767</ele>
        <time>2013-05-18T18:30:42Z</time>
      </trkpt>
      <trkpt lat="59.8870136" lon="17.6626898">
        <ele>22.2476</ele>
        <time>2013-05-18T18:30:43Z</time>
      </trkpt>
      <trkpt lat="59.887052" lon="17.662564">
        <ele>22.7283</ele>
        <time>2013-05-18T18:30:44Z</time>
      </trkpt>
      <trkpt lat="59.8870854" lon="17.6624335">
        <ele>22.7283</ele>
        <time>2013-05-18T18:30:45Z</time>
      </trkpt>
      <trkpt lat="59.8871158" lon="17.6623008">
        <ele>23.209</ele>
        <time>2013-05-18T18:30:46Z</time>
      </trkpt>
      <trkpt lat="59.8871415" lon="17.6621651">
        <ele>23.209</ele>
        <time>2013-05-18T18:30:47Z</time>
      </trkpt>
      <trkpt lat="59.8871608" lon="17.6620246">
        <ele>23.209</ele>
        <time>2013-05-18T18:30:48Z</time>
      </trkpt>
      <trkpt lat="59.8871733" lon="17.6618807">
        <ele>23.6896</ele>
        <time>2013-05-18T18:30:49Z</time>
      </trkpt>
      <trkpt lat="59.887182" lon="17.661736">
        <ele>23.6896</ele>
        <time>2013-05-18T18:30:50Z</time>
      </trkpt>
      <trkpt lat="59.8871903" lon="17.6615927">
        <ele>23.6896</ele>
        <time>2013-05-18T18:30:51Z</time>
      </trkpt>
      <trkpt lat="59.887207" lon="17.6614528">
        <ele>24.1703</ele>
        <time>2013-05-18T18:30:52Z</time>
      </trkpt>
      <trkpt lat="59.8872378" lon="17.6613206">
        <ele>23.6896</ele>
        <time>2013-05-18T18:30:53Z</time>
      </trkpt>
      <trkpt lat="59.887283" lon="17.6612085">
        <ele>23.6896</ele>
        <time>2013-05-18T18:30:54Z</time>
      </trkpt>
      <trkpt lat="59.8873377" lon="17.6611098">
        <ele>23.6896</ele>
        <time>2013-05-18T18:30:55Z</time>
      </trkpt>
      <trkpt lat="59.8873992" lon="17.661024">
        <ele>23.6896</ele>
        <time>2013-05-18T18:30:56Z</time>
      </trkpt>
      <trkpt lat="59.8874652" lon="17.6609505">
        <ele>23.209</ele>
        <time>2013-05-18T18:30:57Z</time>
      </trkpt>
      <trkpt lat="59.8875344" lon="17.6608866">
        <ele>23.209</ele>
        <time>2013-05-18T18:30:58Z</time>
      </trkpt>
      <trkpt lat="59.887603" lon="17.6608228">
        <ele>22.7283</ele>
        <time>2013-05-18T18:30:59Z</time>
      </trkpt>
      <trkpt lat="59.8876723" lon="17.6607474">
        <ele>22.2476</ele>
        <time>2013-05-18T18:31:00Z</time>
      </trkpt>
      <trkpt lat="59.8877377" lon="17.660652">
        <ele>22.2476</ele>
        <time>2013-05-18T18:31:01Z</time>
      </trkpt>
      <trkpt lat="59.8877989" lon="17.6605417">
        <ele>22.2476</ele>
        <time>2013-05-18T18:31:02Z</time>
      </trkpt>
      <trkpt lat="59.8878542" lon="17.6604194">
        <ele>21.767</ele>
        <time>2013-05-18T18:31:03Z</time>
      </trkpt>
      <trkpt lat="59.8879051" lon="17.6602909">
        <ele>21.767</ele>
        <time>2013-05-18T18:31:04Z</time>
      </trkpt>
      <trkpt lat="59.8879573" lon="17.6601647">
        <ele>22.2476</ele>
        <time>2013-05-18T18:31:05Z</time>
      </trkpt>
      <trkpt lat="59.8880085" lon="17.6600388">
        <ele>22.2476</ele>
        <time>2013-05-18T18:31:06Z</time>
      </trkpt>
      <trkpt lat="59.8880579" lon="17.6599114">
        <ele>22.2476</ele>
        <time>2013-05-18T18:31:07Z</time>
      </trkpt>
      <trkpt lat="59.8881052" lon="17.6597771">
        <ele>22.7283</ele>
        <time>2013-05-18T18:31:08Z</time>
      </trkpt>
      <trkpt lat="59.888152" lon="17.6596414">
        <ele>22.7283</ele>
        <time>2013-05-18T18:31:09Z</time>
      </trkpt>
      <trkpt lat="59.8882024" lon="17.6595087">
        <ele>23.209</ele>
        <time>2013-05-18T18:31:10Z</time>
      </trkpt>
      <trkpt lat="59.8882485" lon="17.6593725">
        <ele>23.209</ele>
        <time>2013-05-18T18:31:11Z</time>
      </trkpt>
      <trkpt lat="59.888295" lon="17.6592321">
        <ele>23.6896</ele>
        <time>2013-05-18T18:31:12Z</time>
      </trkpt>
      <trkpt lat="59.8883434" lon="17.65909">
        <ele>24.1703</ele>
        <time>2013-05-18T18:31:13Z</time>
      </trkpt>
      <trkpt lat="59.8883915" lon="17.6589498">
        <ele>24.651</ele>
        <time>2013-05-18T18:31:14Z</time>
      </trkpt>
      <trkpt lat="59.8884404" lon="17.6588157">
        <ele>25.1317</ele>
        <time>2013-05-18T18:31:15Z</time>
      </trkpt>
      <trkpt lat="59.8884925" lon="17.6586852">
        <ele>25.6123</ele>
        <time>2013-05-18T18:31:16Z</time>
      </trkpt>
      <trkpt lat="59.8885438" lon="17.658555">
        <ele>26.0929</ele>
        <time>2013-05-18T18:31:17Z</time>
      </trkpt>
      <trkpt lat="59.888591" lon="17.6584296">
        <ele>26.0929</ele>
        <time>2013-05-18T18:31:18Z</time>
      </trkpt>
      <trkpt lat="59.888639" lon="17.6583012">
        <ele>26.0929</ele>
        <time>2013-05-18T18:31:19Z</time>
      </trkpt>
      <trkpt lat="59.8886876" lon="17.658166">
        <ele>26.5736</ele>
        <time>2013-05-18T18:31:20Z</time>
      </trkpt>
      <trkpt lat="59.8887335" lon="17.6580374">
        <ele>26.5736</ele>
        <time>2013-05-18T18:31:21Z</time>
      </trkpt>
      <trkpt lat="59.8887799" lon="17.6579087">
        <ele>27.0543</ele>
        <time>2013-05-18T18:31:22Z</time>
      </trkpt>
      <trkpt lat="59.8888256" lon="17.6577772">
        <ele>27.5349</ele>
        <time>2013-05-18T18:31:23Z</time>
      </trkpt>
      <trkpt lat="59.8888708" lon="17.6576465">
        <ele>27.5349</ele>
        <time>2013-05-18T18:31:24Z</time>
      </trkpt>
      <trkpt lat="59.8889171" lon="17.6575217">
        <ele>27.5349</ele>
        <time>2013-05-18T18:31:25Z</time>
      </trkpt>
      <trkpt lat="59.8889634" lon="17.6574025">
        <ele>27.5349</ele>
        <time>2013-05-18T18:31:26Z</time>
      </trkpt>
      <trkpt lat="59.8890107" lon="17.6572776">
        <ele>28.0155</ele>
        <time>2013-05-18T18:31:27Z</time>
      </trkpt>
      <trkpt lat="59.8890551" lon="17.6571549">
        <ele>28.0155</ele>
        <time>2013-05-18T18:31:28Z</time>
      </trkpt>
      <trkpt lat="59.8890981" lon="17.6570316">
        <ele>27.5349</ele>
        <time>2013-05-18T18:31:29Z</time>
      </trkpt>
      <trkpt lat="59.8891404" lon="17.6569082">
        <ele>27.5349</ele>
        <time>2013-05-18T18:31:30Z</time>
      </trkpt>
      <trkpt lat="59.8891819" lon="17.6567861">
        <ele>27.0543</ele>
        <time>2013-05-18T18:31:31Z</time>
      </trkpt>
      <trkpt lat="59.8892243" lon="17.6566616">
        <ele>26.5736</ele>
        <time>2013-05-18T18:31:32Z</time>
      </trkpt>
      <trkpt lat="59.8892674" lon="17.6565419">
        <ele>26.0929</ele>
        <time>2013-05-18T18:31:33Z</time>
      </trkpt>
      <trkpt lat="59.8893108" lon="17.6564192">
        <ele>25.6123</ele>
        <time>2013-05-18T18:31:34Z</time>
      </trkpt>
      <trkpt lat="59.8893569" lon="17.6563012">
        <ele>25.1317</ele>
        <time>2013-05-18T18:31:35Z</time>
      </trkpt>
      <trkpt lat="59.8894013" lon="17.6561832">
        <ele>24.651</ele>
        <time>2013-05-18T18:31:36Z</time>
      </trkpt>
      <trkpt lat="59.8894477" lon="17.656064">
        <ele>24.651</ele>
        <time>2013-05-18T18:31:37Z</time>
      </trkpt>
      <trkpt lat="59.8894914" lon="17.6559475">
        <ele>24.651</ele>
        <time>2013-05-18T18:31:38Z</time>
      </trkpt>
      <trkpt lat="59.8895375" lon="17.6558357">
        <ele>24.651</ele>
        <time>2013-05-18T18:31:39Z</time>
      </trkpt>
      <trkpt lat="59.8895841" lon="17.6557175">
        <ele>24.1703</ele>
        <time>2013-05-18T18:31:40Z</time>
      </trkpt>
      <trkpt lat="59.8896328" lon="17.6555995">
        <ele>24.651</ele>
        <time>2013-05-18T18:31:41Z</time>
      </trkpt>
      <trkpt lat="59.88968" lon="17.6554803">
        <ele>24.651</ele>
        <time>2013-05-18T18:31:42Z</time>
      </trkpt>
      <trkpt lat="59.8897273" lon="17.6553604">
        <ele>25.1317</ele>
        <time>2013-05-18T18:31:43Z</time>
      </trkpt>
      <trkpt lat="59.8897725" lon="17.6552429">
        <ele>24.651</ele>
        <time>2013-05-18T18:31:44Z</time>
      </trkpt>
      <trkpt lat="59.8898175" lon="17.6551233">
        <ele>24.651</ele>
        <time>2013-05-18T18:31:45Z</time>
      </trkpt>
      <trkpt lat="59.8898609" lon="17.6549978">
        <ele>24.1703</ele>
        <time>2013-05-18T18:31:46Z</time>
      </trkpt>
      <trkpt lat="59.8899045" lon="17.6548721">
        <ele>24.1703</ele>
        <time>2013-05-18T18:31:47Z</time>
      </trkpt>
      <trkpt lat="59.8899477" lon="17.6547465">
        <ele>24.1703</ele>
        <time>2013-05-18T18:31:48Z</time>
      </trkpt>
      <trkpt lat="59.8899918" lon="17.654626">
        <ele>23.6896</ele>
        <time>2013-05-18T18:31:49Z</time>
      </trkpt>
      <trkpt lat="59.8900353" lon="17.6545002">
        <ele>24.1703</ele>
        <time>2013-05-18T18:31:50Z</time>
      </trkpt>
      <trkpt lat="59.8900797" lon="17.6543769">
        <ele>23.6896</ele>
        <time>2013-05-18T18:31:51Z</time>
      </trkpt>
      <trkpt lat="59.8901236" lon="17.6542488">
        <ele>24.1703</ele>
        <time>2013-05-18T18:31:52Z</time>
      </trkpt>
      <trkpt lat="59.8901688" lon="17.6541245">
        <ele>24.1703</ele>
        <time>2013-05-18T18:31:53Z</time>
      </trkpt>
      <trkpt lat="59.8902135" lon="17.654009">
        <ele>23.6896</ele>
        <time>2013-05-18T18:31:54Z</time>
      </trkpt>
      <trkpt lat="59.8902563" lon="17.653895">
        <ele>23.209</ele>
        <time>2013-05-18T18:31:55Z</time>
      </trkpt>
      <trkpt lat="59.8902997" lon="17.6537802">
        <ele>23.209</ele>
        <time>2013-05-18T18:31:56Z</time>
      </trkpt>
      <trkpt lat="59.8903432" lon="17.653663">
        <ele>23.209</ele>
        <time>2013-05-18T18:31:57Z</time>
      </trkpt>
      <trkpt lat="59.8903867" lon="17.6535485">
        <ele>22.7283</ele>
        <time>2013-05-18T18:31:58Z</time>
      </trkpt>
      <trkpt lat="59.8904295" lon="17.6534305">
        <ele>22.7283</ele>
        <time>2013-05-18T18:31:59Z</time>
      </trkpt>
      <trkpt lat="59.8904755" lon="17.6533262">
        <ele>22.7283</ele>
        <time>2013-05-18T18:32:00Z</time>
      </trkpt>
      <trkpt lat="59.8905189" lon="17.653215">
        <ele>22.2476</ele>
        <time>2013-05-18T18:32:01Z</time>
      </trkpt>
      <trkpt lat="59.8905636" lon="17.653103">
        <ele>22.7283</ele>
        <time>2013-05-18T18:32:02Z</time>
      </trkpt>
      <trkpt lat="59.8906055" lon="17.6529835">
        <ele>22.7283</ele>
        <time>2013-05-18T18:32:03Z</time>
      </trkpt>
      <trkpt lat="59.890646" lon="17.6528683">
        <ele>23.209</ele>
        <time>2013-05-18T18:32:04Z</time>
      </trkpt>
      <trkpt lat="59.8906864" lon="17.6527558">
        <ele>23.209</ele>
        <time>2013-05-18T18:32:05Z</time>
      </trkpt>
      <trkpt lat="59.890726" lon="17.6526425">
        <ele>23.6896</ele>
        <time>2013-05-18T18:32:06Z</time>
      </trkpt>
      <trkpt lat="59.890768" lon="17.652529">
        <ele>24.1703</ele>
        <time>2013-05-18T18:32:07Z</time>
      </trkpt>
      <trkpt lat="59.8908085" lon="17.6524171">
        <ele>24.1703</ele>
        <time>2013-05-18T18:32:08Z</time>
      </trkpt>
      <trkpt lat="59.8908481" lon="17.6523034">
        <ele>24.651</ele>
        <time>2013-05-18T18:32:09Z</time>
      </trkpt>
      <trkpt lat="59.890889" lon="17.6521902">
        <ele>24.651</ele>
        <time>2013-05-18T18:32:10Z</time>
      </trkpt>
      <trkpt lat="59.8909298" lon="17.6520691">
        <ele>24.651</ele>
        <time>2013-05-18T18:32:11Z</time>
      </trkpt>
      <trkpt lat="59.8909702" lon="17.6519487">
        <ele>24.1703</ele>
        <time>2013-05-18T18:32:12Z</time>
      </trkpt>
      <trkpt lat="59.8910116" lon="17.6518288">
        <ele>24.1703</ele>
        <time>2013-05-18T18:32:13Z</time>
      </trkpt>
      <trkpt lat="59.8910546" lon="17.6517117">
        <ele>24.1703</ele>
        <time>2013-05-18T18:32:14Z</time>
      </trkpt>
      <trkpt lat="59.8910976" lon="17.6515951">
        <ele>24.651</ele>
        <time>2013-05-18T18:32:15Z</time>
      </trkpt>
      <trkpt lat="59.8911397" lon="17.6514769">
        <ele>24.651</ele>
        <time>2013-05-18T18:32:16Z</time>
      </trkpt>
      <trkpt lat="59.8911803" lon="17.6513589">
        <ele>24.651</ele>
        <time>2013-05-18T18:32:17Z</time>
      </trkpt>
      <trkpt lat="59.8912168" lon="17.6512449">
        <ele>24.651</ele>
        <time>2013-05-18T18:32:18Z</time>
      </trkpt>
      <trkpt lat="59.891251" lon="17.6511397">
        <ele>24.1703</ele>
        <time>2013-05-18T18:32:19Z</time>
      </trkpt>
      <trkpt lat="59.8912842" lon="17.6510444">
        <ele>24.1703</ele>
        <time>2013-05-18T18:32:20Z</time>
      </trkpt>
      <trkpt lat="59.8913163" lon="17.6509549">
        <ele>24.1703</ele>
        <time>2013-05-18T18:32:21Z</time>
      </trkpt>
      <trkpt lat="59.8913488" lon="17.6508658">
        <ele>24.1703</ele>
        <time>2013-05-18T18:32:22Z</time>
      </trkpt>
      <trkpt lat="59.891382" lon="17.6507718">
        <ele>24.651</ele>
        <time>2013-05-18T18:32:23Z</time>
      </trkpt>
      <trkpt lat="59.8914148" lon="17.6506713">
        <ele>24.651</ele>
        <time>2013-05-18T18:32:24Z</time>
      </trkpt>
      <trkpt lat="59.8914468" lon="17.65057">
        <ele>24.651</ele>
        <time>2013-05-18T18:32:25Z</time>
      </trkpt>
      <trkpt lat="59.8914793" lon="17.6504629">
        <ele>24.651</ele>
        <time>2013-05-18T18:32:26Z</time>
      </trkpt>
      <trkpt lat="59.8915136" lon="17.650355">
        <ele>24.651</ele>
        <time>2013-05-18T18:32:27Z</time>
      </trkpt>
      <trkpt lat="59.8915479" lon="17.6502441">
        <ele>24.651</ele>
        <time>2013-05-18T18:32:28Z</time>
      </trkpt>
      <trkpt lat="59.8915825" lon="17.6501328">
        <ele>25.1317</ele>
        <time>2013-05-18T18:32:29Z</time>
      </trkpt>
      <trkpt lat="59.8916177" lon="17.6500229">
        <ele>25.6123</ele>
        <time>2013-05-18T18:32:30Z</time>
      </trkpt>
      <trkpt lat="59.8916527" lon="17.6499101">
        <ele>26.0929</ele>
        <time>2013-05-18T18:32:31Z</time>
      </trkpt>
      <trkpt lat="59.8916874" lon="17.6497961">
        <ele>26.5736</ele>
        <time>2013-05-18T18:32:32Z</time>
      </trkpt>
      <trkpt lat="59.8917199" lon="17.6496789">
        <ele>26.5736</ele>
        <time>2013-05-18T18:32:33Z</time>
      </trkpt>
      <trkpt lat="59.8917504" lon="17.6495576">
        <ele>27.0543</ele>
        <time>2013-05-18T18:32:34Z</time>
      </trkpt>
      <trkpt lat="59.89178" lon="17.649435">
        <ele>27.5349</ele>
        <time>2013-05-18T18:32:35Z</time>
      </trkpt>
      <trkpt lat="59.8918051" lon="17.649305">
        <ele>27.5349</ele>
        <time>2013-05-18T18:32:36Z</time>
      </trkpt>
      <trkpt lat="59.8918337" lon="17.6491763">
        <ele>28.0155</ele>
        <time>2013-05-18T18:32:37Z</time>
      </trkpt>
      <trkpt lat="59.8918622" lon="17.6490496">
        <ele>28.4962</ele>
        <time>2013-05-18T18:32:38Z</time>
      </trkpt>
      <trkpt lat="59.8918902" lon="17.6489239">
        <ele>28.4962</ele>
        <time>2013-05-18T18:32:39Z</time>
      </trkpt>
      <trkpt lat="59.8919171" lon="17.6487979">
        <ele>28.4962</ele>
        <time>2013-05-18T18:32:40Z</time>
      </trkpt>
      <trkpt lat="59.8919442" lon="17.648672">
        <ele>28.4962</ele>
        <time>2013-05-18T18:32:41Z</time>
      </trkpt>
      <trkpt lat="59.8919684" lon="17.6485395">
        <ele>28.4962</ele>
        <time>2013-05-18T18:32:42Z</time>
      </trkpt>
      <trkpt lat="59.8919928" lon="17.6484032">
        <ele>28.4962</ele>
        <time>2013-05-18T18:32:43Z</time>
      </trkpt>
      <trkpt lat="59.8920181" lon="17.6482603">
        <ele>28.0155</ele>
        <time>2013-05-18T18:32:44Z</time>
      </trkpt>
      <trkpt lat="59.892043" lon="17.6481153">
        <ele>28.0155</ele>
        <time>2013-05-18T18:32:45Z</time>
      </trkpt>
      <trkpt lat="59.8920682" lon="17.6479741">
        <ele>27.0543</ele>
        <time>2013-05-18T18:32:46Z</time>
      </trkpt>
      <trkpt lat="59.8920934" lon="17.6478333">
        <ele>26.5736</ele>
        <time>2013-05-18T18:32:47Z</time>
      </trkpt>
      <trkpt lat="59.8921103" lon="17.6476883">
        <ele>26.0929</ele>
        <time>2013-05-18T18:32:48Z</time>
      </trkpt>
      <trkpt lat="59.8921269" lon="17.6475412">
        <ele>25.6123</ele>
        <time>2013-05-18T18:32:49Z</time>
      </trkpt>
      <trkpt lat="59.8921438" lon="17.6473915">
        <ele>25.6123</ele>
        <time>2013-05-18T18:32:50Z</time>
      </trkpt>
      <trkpt lat="59.8921604" lon="17.6472454">
        <ele>25.6123</ele>
        <time>2013-05-18T18:32:51Z</time>
      </trkpt>
      <trkpt lat="59.8921792" lon="17.6471">
        <ele>25.6123</ele>
        <time>2013-05-18T18:32:52Z</time>
      </trkpt>
      <trkpt lat="59.8921993" lon="17.6469547">
        <ele>25.6123</ele>
        <time>2013-05-18T18:32:53Z</time>
      </trkpt>
      <trkpt lat="59.8922198" lon="17.6468087">
        <ele>25.1317</ele>
        <time>2013-05-18T18:32:54Z</time>
      </trkpt>
      <trkpt lat="59.8922414" lon="17.6466617">
        <ele>24.651</ele>
        <time>2013-05-18T18:32:55Z</time>
      </trkpt>
      <trkpt lat="59.8922624" lon="17.6465132">
        <ele>24.651</ele>
        <time>2013-05-18T18:32:56Z</time>
      </trkpt>
      <trkpt lat="59.8922792" lon="17.6463621">
        <ele>24.651</ele>
        <time>2013-05-18T18:32:57Z</time>
      </trkpt>
      <trkpt lat="59.8922883" lon="17.6462073">
        <ele>25.1317</ele>
        <time>2013-05-18T18:32:58Z</time>
      </trkpt>
      <trkpt lat="59.8922963" lon="17.6460709">
        <ele>26.0929</ele>
        <time>2013-05-18T18:32:59Z</time>
      </trkpt>
      <trkpt lat="59.8923057" lon="17.6459228">
        <ele>26.5736</ele>
        <time>2013-05-18T18:33:00Z</time>
      </trkpt>
      <trkpt lat="59.892316" lon="17.6457793">
        <ele>26.5736</ele>
        <time>2013-05-18T18:33:01Z</time>
      </trkpt>
      <trkpt lat="59.8923263" lon="17.6456392">
        <ele>27.0543</ele>
        <time>2013-05-18T18:33:02Z</time>
      </trkpt>
      <trkpt lat="59.8923368" lon="17.6455028">
        <ele>27.5349</ele>
        <time>2013-05-18T18:33:03Z</time>
      </trkpt>
      <trkpt lat="59.8923486" lon="17.6453703">
        <ele>28.0155</ele>
        <time>2013-05-18T18:33:04Z</time>
      </trkpt>
      <trkpt lat="59.8923614" lon="17.6452429">
        <ele>28.0155</ele>
        <time>2013-05-18T18:33:05Z</time>
      </trkpt>
      <trkpt lat="59.8923739" lon="17.6451122">
        <ele>26.5736</ele>
        <time>2013-05-18T18:33:06Z</time>
      </trkpt>
      <trkpt lat="59.8923874" lon="17.64498">
        <ele>25.6123</ele>
        <time>2013-05-18T18:33:07Z</time>
      </trkpt>
      <trkpt lat="59.892404" lon="17.64485">
        <ele>24.651</ele>
        <time>2013-05-18T18:33:08Z</time>
      </trkpt>
      <trkpt lat="59.8924217" lon="17.6447221">
        <ele>23.6896</ele>
        <time>2013-05-18T18:33:09Z</time>
      </trkpt>
      <trkpt lat="59.8924397" lon="17.644593">
        <ele>22.7283</ele>
        <time>2013-05-18T18:33:10Z</time>
      </trkpt>
      <trkpt lat="59.8924547" lon="17.6444604">
        <ele>21.767</ele>
        <time>2013-05-18T18:33:11Z</time>
      </trkpt>
      <trkpt lat="59.8924672" lon="17.6443255">
        <ele>21.767</ele>
        <time>2013-05-18T18:33:12Z</time>
      </trkpt>
      <trkpt lat="59.8924788" lon="17.6441898">
        <ele>21.2864</ele>
        <time>2013-05-18T18:33:13Z</time>
      </trkpt>
      <trkpt lat="59.8924922" lon="17.6440544">
        <ele>20.8057</ele>
        <time>2013-05-18T18:33:14Z</time>
      </trkpt>
      <trkpt lat="59.8925067" lon="17.6439203">
        <ele>20.325</ele>
        <time>2013-05-18T18:33:15Z</time>
      </trkpt>
      <trkpt lat="59.8925207" lon="17.6437855">
        <ele>20.325</ele>
        <time>2013-05-18T18:33:16Z</time>
      </trkpt>
      <trkpt lat="59.892536" lon="17.6436499">
        <ele>19.8444</ele>
        <time>2013-05-18T18:33:17Z</time>
      </trkpt>
      <trkpt lat="59.8925512" lon="17.6435099">
        <ele>19.8444</ele>
        <time>2013-05-18T18:33:18Z</time>
      </trkpt>
      <trkpt lat="59.8925683" lon="17.6433733">
        <ele>19.3638</ele>
        <time>2013-05-18T18:33:19Z</time>
      </trkpt>
      <trkpt lat="59.8925898" lon="17.6432384">
        <ele>19.3638</ele>
        <time>2013-05-18T18:33:20Z</time>
      </trkpt>
      <trkpt lat="59.8926105" lon="17.6430992">
        <ele>19.3638</ele>
        <time>2013-05-18T18:33:21Z</time>
      </trkpt>
      <trkpt lat="59.8926289" lon="17.6429592">
        <ele>19.3638</ele>
        <time>2013-05-18T18:33:22Z</time>
      </trkpt>
      <trkpt lat="59.8926414" lon="17.6428163">
        <ele>19.3638</ele>
        <time>2013-05-18T18:33:23Z</time>
      </trkpt>
      <trkpt lat="59.8926518" lon="17.642675">
        <ele>19.3638</ele>
        <time>2013-05-18T18:33:24Z</time>
      </trkpt>
      <trkpt lat="59.8926584" lon="17.6425251">
        <ele>19.3638</ele>
        <time>2013-05-18T18:33:25Z</time>
      </trkpt>
      <trkpt lat="59.8926668" lon="17.6423761">
        <ele>18.8831</ele>
        <time>2013-05-18T18:33:26Z</time>
      </trkpt>
      <trkpt lat="59.8926727" lon="17.6422161">
        <ele>19.3638</ele>
        <time>2013-05-18T18:33:27Z</time>
      </trkpt>
      <trkpt lat="59.892681" lon="17.642057">
        <ele>19.3638</ele>
        <time>2013-05-18T18:33:28Z</time>
      </trkpt>
      <trkpt lat="59.8926926" lon="17.6419108">
        <ele>18.8831</ele>
        <time>2013-05-18T18:33:29Z</time>
      </trkpt>
      <trkpt lat="59.8927018" lon="17.6417566">
        <ele>18.8831</ele>
        <time>2013-05-18T18:33:30Z</time>
      </trkpt>
      <trkpt lat="59.8927101" lon="17.6416049">
        <ele>19.3638</ele>
        <time>2013-05-18T18:33:31Z</time>
      </trkpt>
      <trkpt lat="59.892719" lon="17.6414591">
        <ele>19.3638</ele>
        <time>2013-05-18T18:33:32Z</time>
      </trkpt>
      <trkpt lat="59.8927276" lon="17.6413205">
        <ele>19.8444</ele>
        <time>2013-05-18T18:33:33Z</time>
      </trkpt>
      <trkpt lat="59.8927365" lon="17.6411868">
        <ele>19.3638</ele>
        <time>2013-05-18T18:33:34Z</time>
      </trkpt>
      <trkpt lat="59.8927447" lon="17.641053">
        <ele>19.8444</ele>
        <time>2013-05-18T18:33:35Z</time>
      </trkpt>
      <trkpt lat="59.8927511" lon="17.6409184">
        <ele>19.8444</ele>
        <time>2013-05-18T18:33:36Z</time>
      </trkpt>
      <trkpt lat="59.8927567" lon="17.6407851">
        <ele>19.8444</ele>
        <time>2013-05-18T18:33:37Z</time>
      </trkpt>
      <trkpt lat="59.892763" lon="17.6406548">
        <ele>20.325</ele>
        <time>2013-05-18T18:33:38Z</time>
      </trkpt>
      <trkpt lat="59.8927696" lon="17.6405283">
        <ele>20.325</ele>
        <time>2013-05-18T18:33:39Z</time>
      </trkpt>
      <trkpt lat="59.8927743" lon="17.6403992">
        <ele>20.325</ele>
        <time>2013-05-18T18:33:40Z</time>
      </trkpt>
      <trkpt lat="59.8927787" lon="17.6402802">
        <ele>20.8057</ele>
        <time>2013-05-18T18:33:41Z</time>
      </trkpt>
      <trkpt lat="59.8927817" lon="17.6401652">
        <ele>20.8057</ele>
        <time>2013-05-18T18:33:42Z</time>
      </trkpt>
      <trkpt lat="59.8927843" lon="17.6400466">
        <ele>21.2864</ele>
        <time>2013-05-18T18:33:43Z</time>
      </trkpt>
      <trkpt lat="59.89279" lon="17.6399291">
        <ele>21.767</ele>
        <time>2013-05-18T18:33:44Z</time>
      </trkpt>
      <trkpt lat="59.8927926" lon="17.6398061">
        <ele>22.2476</ele>
        <time>2013-05-18T18:33:45Z</time>
      </trkpt>
      <trkpt lat="59.8927939" lon="17.6396706">
        <ele>22.7283</ele>
        <time>2013-05-18T18:33:46Z</time>
      </trkpt>
      <trkpt lat="59.8927952" lon="17.6395421">
        <ele>23.209</ele>
        <time>2013-05-18T18:33:47Z</time>
      </trkpt>
      <trkpt lat="59.8927976" lon="17.6394156">
        <ele>23.6896</ele>
        <time>2013-05-18T18:33:48Z</time>
      </trkpt>
      <trkpt lat="59.8928001" lon="17.6392898">
        <ele>24.1703</ele>
        <time>2013-05-18T18:33:49Z</time>
      </trkpt>
      <trkpt lat="59.892803" lon="17.6391625">
        <ele>24.651</ele>
        <time>2013-05-18T18:33:50Z</time>
      </trkpt>
      <trkpt lat="59.892805" lon="17.6390356">
        <ele>24.651</ele>
        <time>2013-05-18T18:33:51Z</time>
      </trkpt>
      <trkpt lat="59.8928071" lon="17.6389121">
        <ele>25.1317</ele>
        <time>2013-05-18T18:33:52Z</time>
      </trkpt>
      <trkpt lat="59.8928098" lon="17.6387895">
        <ele>25.1317</ele>
        <time>2013-05-18T18:33:53Z</time>
      </trkpt>
      <trkpt lat="59.8928023" lon="17.638665">
        <ele>24.651</ele>
        <time>2013-05-18T18:33:54Z</time>
      </trkpt>
      <trkpt lat="59.8927963" lon="17.638547">
        <ele>25.1317</ele>
        <time>2013-05-18T18:33:55Z</time>
      </trkpt>
      <trkpt lat="59.892806" lon="17.6384316">
        <ele>25.1317</ele>
        <time>2013-05-18T18:33:56Z</time>
      </trkpt>
      <trkpt lat="59.8928338" lon="17.6383341">
        <ele>25.6123</ele>
        <time>2013-05-18T18:33:57Z</time>
      </trkpt>
      <trkpt lat="59.8928769" lon="17.6382708">
        <ele>25.6123</ele>
        <time>2013-05-18T18:33:58Z</time>
      </trkpt>
      <trkpt lat="59.8929382" lon="17.6382471">
        <ele>24.651</ele>
        <time>2013-05-18T18:33:59Z</time>
      </trkpt>
      <trkpt lat="59.8929978" lon="17.6382213">
        <ele>24.651</ele>
        <time>2013-05-18T18:34:00Z</time>
      </trkpt>
      <trkpt lat="59.8930584" lon="17.6381951">
        <ele>24.651</ele>
        <time>2013-05-18T18:34:01Z</time>
      </trkpt>
      <trkpt lat="59.8931148" lon="17.6381662">
        <ele>25.6123</ele>
        <time>2013-05-18T18:34:02Z</time>
      </trkpt>
      <trkpt lat="59.8931728" lon="17.6381345">
        <ele>25.6123</ele>
        <time>2013-05-18T18:34:03Z</time>
      </trkpt>
      <trkpt lat="59.8932342" lon="17.6380971">
        <ele>26.0929</ele>
        <time>2013-05-18T18:34:04Z</time>
      </trkpt>
      <trkpt lat="59.8932905" lon="17.638044">
        <ele>27.0543</ele>
        <time>2013-05-18T18:34:05Z</time>
      </trkpt>
      <trkpt lat="59.8933523" lon="17.6380016">
        <ele>27.5349</ele>
        <time>2013-05-18T18:34:06Z</time>
      </trkpt>
      <trkpt lat="59.8934221" lon="17.6379682">
        <ele>28.0155</ele>
        <time>2013-05-18T18:34:07Z</time>
      </trkpt>
      <trkpt lat="59.8934923" lon="17.6379417">
        <ele>27.0543</ele>
        <time>2013-05-18T18:34:08Z</time>
      </trkpt>
      <trkpt lat="59.8935597" lon="17.637901">
        <ele>27.5349</ele>
        <time>2013-05-18T18:34:09Z</time>
      </trkpt>
      <trkpt lat="59.8936266" lon="17.6378616">
        <ele>27.5349</ele>
        <time>2013-05-18T18:34:10Z</time>
      </trkpt>
      <trkpt lat="59.8936953" lon="17.637818">
        <ele>27.0543</ele>
        <time>2013-05-18T18:34:11Z</time>
      </trkpt>
      <trkpt lat="59.8937612" lon="17.6377632">
        <ele>27.5349</ele>
        <time>2013-05-18T18:34:12Z</time>
      </trkpt>
      <trkpt lat="59.893827" lon="17.6377124">
        <ele>27.0543</ele>
        <time>2013-05-18T18:34:13Z</time>
      </trkpt>
      <trkpt lat="59.8938902" lon="17.6376641">
        <ele>26.0929</ele>
        <time>2013-05-18T18:34:14Z</time>
      </trkpt>
      <trkpt lat="59.8939574" lon="17.6376204">
        <ele>25.6123</ele>
        <time>2013-05-18T18:34:15Z</time>
      </trkpt>
      <trkpt lat="59.8940258" lon="17.6375797">
        <ele>25.1317</ele>
        <time>2013-05-18T18:34:16Z</time>
      </trkpt>
      <trkpt lat="59.8940881" lon="17.6375343">
        <ele>24.1703</ele>
        <time>2013-05-18T18:34:17Z</time>
      </trkpt>
      <trkpt lat="59.8941477" lon="17.6374872">
        <ele>23.6896</ele>
        <time>2013-05-18T18:34:18Z</time>
      </trkpt>
      <trkpt lat="59.8942073" lon="17.6374394">
        <ele>24.1703</ele>
        <time>2013-05-18T18:34:19Z</time>
      </trkpt>
      <trkpt lat="59.8942663" lon="17.6373881">
        <ele>24.1703</ele>
        <time>2013-05-18T18:34:20Z</time>
      </trkpt>
      <trkpt lat="59.8943281" lon="17.6373443">
        <ele>24.1703</ele>
        <time>2013-05-18T18:34:21Z</time>
      </trkpt>
      <trkpt lat="59.8943952" lon="17.6373013">
        <ele>24.651</ele>
        <time>2013-05-18T18:34:22Z</time>
      </trkpt>
      <trkpt lat="59.8944603" lon="17.6372564">
        <ele>24.1703</ele>
        <time>2013-05-18T18:34:23Z</time>
      </trkpt>
      <trkpt lat="59.894528" lon="17.6372219">
        <ele>24.1703</ele>
        <time>2013-05-18T18:34:24Z</time>
      </trkpt>
      <trkpt lat="59.8945932" lon="17.6371851">
        <ele>23.6896</ele>
        <time>2013-05-18T18:34:25Z</time>
      </trkpt>
      <trkpt lat="59.8946631" lon="17.6371518">
        <ele>23.209</ele>
        <time>2013-05-18T18:34:26Z</time>
      </trkpt>
      <trkpt lat="59.8947368" lon="17.6371156">
        <ele>23.209</ele>
        <time>2013-05-18T18:34:27Z</time>
      </trkpt>
      <trkpt lat="59.8948072" lon="17.6370773">
        <ele>23.209</ele>
        <time>2013-05-18T18:34:28Z</time>
      </trkpt>
      <trkpt lat="59.894879" lon="17.637039">
        <ele>23.209</ele>
        <time>2013-05-18T18:34:29Z</time>
      </trkpt>
      <trkpt lat="59.894949" lon="17.636997">
        <ele>23.209</ele>
        <time>2013-05-18T18:34:30Z</time>
      </trkpt>
      <trkpt lat="59.8950179" lon="17.6369511">
        <ele>23.209</ele>
        <time>2013-05-18T18:34:31Z</time>
      </trkpt>
      <trkpt lat="59.8950847" lon="17.6369013">
        <ele>22.7283</ele>
        <time>2013-05-18T18:34:32Z</time>
      </trkpt>
      <trkpt lat="59.8951506" lon="17.6368522">
        <ele>22.7283</ele>
        <time>2013-05-18T18:34:33Z</time>
      </trkpt>
      <trkpt lat="59.8952177" lon="17.6368085">
        <ele>22.7283</ele>
        <time>2013-05-18T18:34:34Z</time>
      </trkpt>
      <trkpt lat="59.8952858" lon="17.6367547">
        <ele>23.209</ele>
        <time>2013-05-18T18:34:35Z</time>
      </trkpt>
      <trkpt lat="59.8953552" lon="17.6367127">
        <ele>23.209</ele>
        <time>2013-05-18T18:34:36Z</time>
      </trkpt>
      <trkpt lat="59.8954249" lon="17.6366739">
        <ele>22.7283</ele>
        <time>2013-05-18T18:34:37Z</time>
      </trkpt>
      <trkpt lat="59.8954935" lon="17.6366341">
        <ele>22.7283</ele>
        <time>2013-05-18T18:34:38Z</time>
      </trkpt>
      <trkpt lat="59.8955612" lon="17.6365962">
        <ele>22.7283</ele>
        <time>2013-05-18T18:34:39Z</time>
      </trkpt>
      <trkpt lat="59.8956306" lon="17.6365646">
        <ele>22.7283</ele>
        <time>2013-05-18T18:34:40Z</time>
      </trkpt>
      <trkpt lat="59.8956999" lon="17.636538">
        <ele>22.7283</ele>
        <time>2013-05-18T18:34:41Z</time>
      </trkpt>
      <trkpt lat="59.895768" lon="17.6365144">
        <ele>22.7283</ele>
        <time>2013-05-18T18:34:42Z</time>
      </trkpt>
      <trkpt lat="59.8958369" lon="17.6364975">
        <ele>22.2476</ele>
        <time>2013-05-18T18:34:43Z</time>
      </trkpt>
      <trkpt lat="59.8959057" lon="17.6364892">
        <ele>21.767</ele>
        <time>2013-05-18T18:34:44Z</time>
      </trkpt>
      <trkpt lat="59.8959751" lon="17.6364914">
        <ele>21.2864</ele>
        <time>2013-05-18T18:34:45Z</time>
      </trkpt>
      <trkpt lat="59.8960453" lon="17.6365059">
        <ele>21.2864</ele>
        <time>2013-05-18T18:34:46Z</time>
      </trkpt>
      <trkpt lat="59.8961151" lon="17.6365274">
        <ele>21.2864</ele>
        <time>2013-05-18T18:34:47Z</time>
      </trkpt>
      <trkpt lat="59.8961844" lon="17.6365511">
        <ele>21.2864</ele>
        <time>2013-05-18T18:34:48Z</time>
      </trkpt>
      <trkpt lat="59.8962487" lon="17.6365708">
        <ele>21.2864</ele>
        <time>2013-05-18T18:34:49Z</time>
      </trkpt>
      <trkpt lat="59.8963025" lon="17.6365768">
        <ele>21.2864</ele>
        <time>2013-05-18T18:34:50Z</time>
      </trkpt>
      <trkpt lat="59.8963477" lon="17.6365842">
        <ele>21.2864</ele>
        <time>2013-05-18T18:34:51Z</time>
      </trkpt>
      <trkpt lat="59.8963819" lon="17.636612">
        <ele>19.8444</ele>
        <time>2013-05-18T18:34:52Z</time>
      </trkpt>
      <trkpt lat="59.8964212" lon="17.6366438">
        <ele>19.3638</ele>
        <time>2013-05-18T18:34:53Z</time>
      </trkpt>
      <trkpt lat="59.896465" lon="17.636674">
        <ele>18.8831</ele>
        <time>2013-05-18T18:34:54Z</time>
      </trkpt>
      <trkpt lat="59.8965141" lon="17.6367068">
        <ele>18.4023</ele>
        <time>2013-05-18T18:34:55Z</time>
      </trkpt>
      <trkpt lat="59.8965663" lon="17.6367364">
        <ele>18.4023</ele>
        <time>2013-05-18T18:34:56Z</time>
      </trkpt>
      <trkpt lat="59.8966087" lon="17.6367682">
        <ele>17.4412</ele>
        <time>2013-05-18T18:34:57Z</time>
      </trkpt>
      <trkpt lat="59.8966512" lon="17.6367941">
        <ele>16.4797</ele>
        <time>2013-05-18T18:34:58Z</time>
      </trkpt>
      <trkpt lat="59.896694" lon="17.6368166">
        <ele>15.5184</ele>
        <time>2013-05-18T18:34:59Z</time>
      </trkpt>
      <trkpt lat="59.8967357" lon="17.6368382">
        <ele>14.557</ele>
        <time>2013-05-18T18:35:00Z</time>
      </trkpt>
      <trkpt lat="59.8967779" lon="17.6368537">
        <ele>13.5958</ele>
        <time>2013-05-18T18:35:01Z</time>
      </trkpt>
      <trkpt lat="59.8968201" lon="17.6368775">
        <ele>13.1151</ele>
        <time>2013-05-18T18:35:02Z</time>
      </trkpt>
      <trkpt lat="59.8968613" lon="17.6369033">
        <ele>13.1151</ele>
        <time>2013-05-18T18:35:03Z</time>
      </trkpt>
      <trkpt lat="59.8969019" lon="17.6369344">
        <ele>12.6344</ele>
        <time>2013-05-18T18:35:04Z</time>
      </trkpt>
      <trkpt lat="59.8969417" lon="17.6369695">
        <ele>12.6344</ele>
        <time>2013-05-18T18:35:05Z</time>
      </trkpt>
      <trkpt lat="59.8969827" lon="17.6369997">
        <ele>11.6732</ele>
        <time>2013-05-18T18:35:06Z</time>
      </trkpt>
      <trkpt lat="59.8970243" lon="17.6370181">
        <ele>10.7118</ele>
        <time>2013-05-18T18:35:07Z</time>
      </trkpt>
      <trkpt lat="59.8970693" lon="17.6370297">
        <ele>10.7118</ele>
        <time>2013-05-18T18:35:08Z</time>
      </trkpt>
      <trkpt lat="59.8971157" lon="17.6370432">
        <ele>10.2312</ele>
        <time>2013-05-18T18:35:09Z</time>
      </trkpt>
      <trkpt lat="59.8971666" lon="17.637067">
        <ele>10.2312</ele>
        <time>2013-05-18T18:35:10Z</time>
      </trkpt>
      <trkpt lat="59.8972222" lon="17.6370965">
        <ele>10.2312</ele>
        <time>2013-05-18T18:35:11Z</time>
      </trkpt>
      <trkpt lat="59.8972811" lon="17.6371218">
        <ele>10.7118</ele>
        <time>2013-05-18T18:35:12Z</time>
      </trkpt>
      <trkpt lat="59.8973397" lon="17.6371482">
        <ele>11.1925</ele>
        <time>2013-05-18T18:35:13Z</time>
      </trkpt>
      <trkpt lat="59.8973988" lon="17.6371808">
        <ele>11.1925</ele>
        <time>2013-05-18T18:35:14Z</time>
      </trkpt>
      <trkpt lat="59.8974602" lon="17.6372174">
        <ele>11.6732</ele>
        <time>2013-05-18T18:35:15Z</time>
      </trkpt>
      <trkpt lat="59.8975215" lon="17.6372601">
        <ele>12.1538</ele>
        <time>2013-05-18T18:35:16Z</time>
      </trkpt>
      <trkpt lat="59.8975816" lon="17.6373074">
        <ele>12.1538</ele>
        <time>2013-05-18T18:35:17Z</time>
      </trkpt>
      <trkpt lat="59.8976433" lon="17.6373576">
        <ele>12.1538</ele>
        <time>2013-05-18T18:35:18Z</time>
      </trkpt>
      <trkpt lat="59.8977036" lon="17.6374265">
        <ele>12.1538</ele>
        <time>2013-05-18T18:35:19Z</time>
      </trkpt>
      <trkpt lat="59.8977549" lon="17.6375147">
        <ele>12.1538</ele>
        <time>2013-05-18T18:35:20Z</time>
      </trkpt>
      <trkpt lat="59.8978028" lon="17.6376108">
        <ele>12.6344</ele>
        <time>2013-05-18T18:35:21Z</time>
      </trkpt>
      <trkpt lat="59.8978488" lon="17.6377092">
        <ele>12.6344</ele>
        <time>2013-05-18T18:35:22Z</time>
      </trkpt>
      <trkpt lat="59.8979073" lon="17.637791">
        <ele>13.5958</ele>
        <time>2013-05-18T18:35:23Z</time>
      </trkpt>
      <trkpt lat="59.8979681" lon="17.6378661">
        <ele>14.557</ele>
        <time>2013-05-18T18:35:24Z</time>
      </trkpt>
      <trkpt lat="59.8980338" lon="17.6379246">
        <ele>15.5184</ele>
        <time>2013-05-18T18:35:25Z</time>
      </trkpt>
      <trkpt lat="59.8981025" lon="17.6379792">
        <ele>16.4797</ele>
        <time>2013-05-18T18:35:26Z</time>
      </trkpt>
      <trkpt lat="59.8981734" lon="17.6380316">
        <ele>17.4412</ele>
        <time>2013-05-18T18:35:27Z</time>
      </trkpt>
      <trkpt lat="59.8982454" lon="17.6380864">
        <ele>18.4023</ele>
        <time>2013-05-18T18:35:28Z</time>
      </trkpt>
      <trkpt lat="59.8983175" lon="17.6381444">
        <ele>19.3638</ele>
        <time>2013-05-18T18:35:29Z</time>
      </trkpt>
      <trkpt lat="59.8983892" lon="17.6382026">
        <ele>20.325</ele>
        <time>2013-05-18T18:35:30Z</time>
      </trkpt>
      <trkpt lat="59.8984626" lon="17.6382574">
        <ele>20.8057</ele>
        <time>2013-05-18T18:35:31Z</time>
      </trkpt>
      <trkpt lat="59.8985332" lon="17.6383071">
        <ele>20.8057</ele>
        <time>2013-05-18T18:35:32Z</time>
      </trkpt>
      <trkpt lat="59.898605" lon="17.6383386">
        <ele>19.8444</ele>
        <time>2013-05-18T18:35:33Z</time>
      </trkpt>
      <trkpt lat="59.8986704" lon="17.6383465">
        <ele>18.4023</ele>
        <time>2013-05-18T18:35:34Z</time>
      </trkpt>
      <trkpt lat="59.898745" lon="17.6383448">
        <ele>15.0377</ele>
        <time>2013-05-18T18:35:35Z</time>
      </trkpt>
      <trkpt lat="59.8988236" lon="17.6383267">
        <ele>14.0764</ele>
        <time>2013-05-18T18:35:36Z</time>
      </trkpt>
      <trkpt lat="59.8988968" lon="17.6383867">
        <ele>13.5958</ele>
        <time>2013-05-18T18:35:37Z</time>
      </trkpt>
      <trkpt lat="59.8989609" lon="17.6384976">
        <ele>15.0377</ele>
        <time>2013-05-18T18:35:38Z</time>
      </trkpt>
      <trkpt lat="59.8990464" lon="17.6385724">
        <ele>15.5184</ele>
        <time>2013-05-18T18:35:39Z</time>
      </trkpt>
      <trkpt lat="59.8991081" lon="17.638606">
        <ele>17.4412</ele>
        <time>2013-05-18T18:35:40Z</time>
      </trkpt>
      <trkpt lat="59.8991914" lon="17.6387087">
        <ele>17.4412</ele>
        <time>2013-05-18T18:35:41Z</time>
      </trkpt>
      <trkpt lat="59.8992673" lon="17.6388034">
        <ele>18.4023</ele>
        <time>2013-05-18T18:35:42Z</time>
      </trkpt>
      <trkpt lat="59.8993319" lon="17.6388749">
        <ele>18.4023</ele>
        <time>2013-05-18T18:35:43Z</time>
      </trkpt>
      <trkpt lat="59.8994086" lon="17.6389328">
        <ele>18.8831</ele>
        <time>2013-05-18T18:35:44Z</time>
      </trkpt>
      <trkpt lat="59.899491" lon="17.6389912">
        <ele>19.8444</ele>
        <time>2013-05-18T18:35:45Z</time>
      </trkpt>
      <trkpt lat="59.8995667" lon="17.6390473">
        <ele>20.8057</ele>
        <time>2013-05-18T18:35:46Z</time>
      </trkpt>
      <trkpt lat="59.8996377" lon="17.6391095">
        <ele>21.767</ele>
        <time>2013-05-18T18:35:47Z</time>
      </trkpt>
      <trkpt lat="59.8997093" lon="17.6391723">
        <ele>22.7283</ele>
        <time>2013-05-18T18:35:48Z</time>
      </trkpt>
      <trkpt lat="59.8997882" lon="17.6392266">
        <ele>23.209</ele>
        <time>2013-05-18T18:35:49Z</time>
      </trkpt>
      <trkpt lat="59.8998639" lon="17.6392834">
        <ele>24.651</ele>
        <time>2013-05-18T18:35:50Z</time>
      </trkpt>
      <trkpt lat="59.8999393" lon="17.6393452">
        <ele>25.1317</ele>
        <time>2013-05-18T18:35:51Z</time>
      </trkpt>
      <trkpt lat="59.9000157" lon="17.6394115">
        <ele>25.6123</ele>
        <time>2013-05-18T18:35:52Z</time>
      </trkpt>
      <trkpt lat="59.9000919" lon="17.6394803">
        <ele>26.0929</ele>
        <time>2013-05-18T18:35:53Z</time>
      </trkpt>
      <trkpt lat="59.9001663" lon="17.6395504">
        <ele>26.5736</ele>
        <time>2013-05-18T18:35:54Z</time>
      </trkpt>
      <trkpt lat="59.9002414" lon="17.6396212">
        <ele>27.5349</ele>
        <time>2013-05-18T18:35:55Z</time>
      </trkpt>
      <trkpt lat="59.9003182" lon="17.6396917">
        <ele>28.0155</ele>
        <time>2013-05-18T18:35:56Z</time>
      </trkpt>
      <trkpt lat="59.900395" lon="17.6397638">
        <ele>28.4962</ele>
        <time>2013-05-18T18:35:57Z</time>
      </trkpt>
      <trkpt lat="59.9004717" lon="17.6398357">
        <ele>28.4962</ele>
        <time>2013-05-18T18:35:58Z</time>
      </trkpt>
      <trkpt lat="59.9005497" lon="17.6399112">
        <ele>28.9769</ele>
        <time>2013-05-18T18:35:59Z</time>
      </trkpt>
      <trkpt lat="59.9006279" lon="17.6399868">
        <ele>28.4962</ele>
        <time>2013-05-18T18:36:00Z</time>
      </trkpt>
      <trkpt lat="59.9007053" lon="17.6400643">
        <ele>28.4962</ele>
        <time>2013-05-18T18:36:01Z</time>
      </trkpt>
      <trkpt lat="59.9007824" lon="17.6401414">
        <ele>28.4962</ele>
        <time>2013-05-18T18:36:02Z</time>
      </trkpt>
      <trkpt lat="59.9008589" lon="17.6402166">
        <ele>28.0155</ele>
        <time>2013-05-18T18:36:03Z</time>
      </trkpt>
      <trkpt lat="59.9009344" lon="17.6402926">
        <ele>28.0155</ele>
        <time>2013-05-18T18:36:04Z</time>
      </trkpt>
      <trkpt lat="59.9010085" lon="17.6403692">
        <ele>28.0155</ele>
        <time>2013-05-18T18:36:05Z</time>
      </trkpt>
      <trkpt lat="59.9010821" lon="17.6404439">
        <ele>28.0155</ele>
        <time>2013-05-18T18:36:06Z</time>
      </trkpt>
      <trkpt lat="59.9011547" lon="17.6405173">
        <ele>27.5349</ele>
        <time>2013-05-18T18:36:07Z</time>
      </trkpt>
      <trkpt lat="59.9012276" lon="17.6405874">
        <ele>27.5349</ele>
        <time>2013-05-18T18:36:08Z</time>
      </trkpt>
      <trkpt lat="59.9013003" lon="17.6406579">
        <ele>27.5349</ele>
        <time>2013-05-18T18:36:09Z</time>
      </trkpt>
      <trkpt lat="59.9013729" lon="17.6407264">
        <ele>27.5349</ele>
        <time>2013-05-18T18:36:10Z</time>
      </trkpt>
      <trkpt lat="59.9014449" lon="17.6407935">
        <ele>27.5349</ele>
        <time>2013-05-18T18:36:11Z</time>
      </trkpt>
      <trkpt lat="59.9015149" lon="17.6408643">
        <ele>26.0929</ele>
        <time>2013-05-18T18:36:12Z</time>
      </trkpt>
      <trkpt lat="59.9015866" lon="17.6409298">
        <ele>26.5736</ele>
        <time>2013-05-18T18:36:13Z</time>
      </trkpt>
      <trkpt lat="59.9016571" lon="17.6409933">
        <ele>26.0929</ele>
        <time>2013-05-18T18:36:14Z</time>
      </trkpt>
      <trkpt lat="59.9017282" lon="17.6410536">
        <ele>26.0929</ele>
        <time>2013-05-18T18:36:15Z</time>
      </trkpt>
      <trkpt lat="59.9017997" lon="17.6411123">
        <ele>26.0929</ele>
        <time>2013-05-18T18:36:16Z</time>
      </trkpt>
      <trkpt lat="59.9018712" lon="17.6411707">
        <ele>26.0929</ele>
        <time>2013-05-18T18:36:17Z</time>
      </trkpt>
      <trkpt lat="59.9019415" lon="17.6412296">
        <ele>26.0929</ele>
        <time>2013-05-18T18:36:18Z</time>
      </trkpt>
      <trkpt lat="59.9020121" lon="17.6412881">
        <ele>26.0929</ele>
        <time>2013-05-18T18:36:19Z</time>
      </trkpt>
      <trkpt lat="59.902082" lon="17.6413448">
        <ele>26.0929</ele>
        <time>2013-05-18T18:36:20Z</time>
      </trkpt>
      <trkpt lat="59.9021499" lon="17.6413981">
        <ele>25.6123</ele>
        <time>2013-05-18T18:36:21Z</time>
      </trkpt>
      <trkpt lat="59.9022188" lon="17.6414478">
        <ele>25.6123</ele>
        <time>2013-05-18T18:36:22Z</time>
      </trkpt>
      <trkpt lat="59.9022876" lon="17.641497">
        <ele>25.1317</ele>
        <time>2013-05-18T18:36:23Z</time>
      </trkpt>
      <trkpt lat="59.9023545" lon="17.6415462">
        <ele>25.1317</ele>
        <time>2013-05-18T18:36:24Z</time>
      </trkpt>
      <trkpt lat="59.9024209" lon="17.6415951">
        <ele>25.1317</ele>
        <time>2013-05-18T18:36:25Z</time>
      </trkpt>
      <trkpt lat="59.9024865" lon="17.6416427">
        <ele>25.1317</ele>
        <time>2013-05-18T18:36:26Z</time>
      </trkpt>
      <trkpt lat="59.9025513" lon="17.6416876">
        <ele>24.1703</ele>
        <time>2013-05-18T18:36:27Z</time>
      </trkpt>
      <trkpt lat="59.9026161" lon="17.64173">
        <ele>23.6896</ele>
        <time>2013-05-18T18:36:28Z</time>
      </trkpt>
      <trkpt lat="59.9026814" lon="17.6417703">
        <ele>23.209</ele>
        <time>2013-05-18T18:36:29Z</time>
      </trkpt>
      <trkpt lat="59.9027466" lon="17.6418111">
        <ele>22.7283</ele>
        <time>2013-05-18T18:36:30Z</time>
      </trkpt>
      <trkpt lat="59.9028108" lon="17.6418522">
        <ele>22.2476</ele>
        <time>2013-05-18T18:36:31Z</time>
      </trkpt>
      <trkpt lat="59.9028763" lon="17.64189">
        <ele>21.767</ele>
        <time>2013-05-18T18:36:32Z</time>
      </trkpt>
      <trkpt lat="59.9029422" lon="17.6419275">
        <ele>21.2864</ele>
        <time>2013-05-18T18:36:33Z</time>
      </trkpt>
      <trkpt lat="59.9030078" lon="17.6419658">
        <ele>20.8057</ele>
        <time>2013-05-18T18:36:34Z</time>
      </trkpt>
      <trkpt lat="59.903074" lon="17.6420021">
        <ele>20.325</ele>
        <time>2013-05-18T18:36:35Z</time>
      </trkpt>
      <trkpt lat="59.9031404" lon="17.6420352">
        <ele>19.8444</ele>
        <time>2013-05-18T18:36:36Z</time>
      </trkpt>
      <trkpt lat="59.9032061" lon="17.6420679">
        <ele>19.3638</ele>
        <time>2013-05-18T18:36:37Z</time>
      </trkpt>
      <trkpt lat="59.9032714" lon="17.642102">
        <ele>18.8831</ele>
        <time>2013-05-18T18:36:38Z</time>
      </trkpt>
      <trkpt lat="59.9033377" lon="17.6421358">
        <ele>18.8831</ele>
        <time>2013-05-18T18:36:39Z</time>
      </trkpt>
      <trkpt lat="59.9034046" lon="17.6421711">
        <ele>18.4023</ele>
        <time>2013-05-18T18:36:40Z</time>
      </trkpt>
      <trkpt lat="59.9034734" lon="17.6422026">
        <ele>17.9218</ele>
        <time>2013-05-18T18:36:41Z</time>
      </trkpt>
      <trkpt lat="59.9035396" lon="17.6422347">
        <ele>17.4412</ele>
        <time>2013-05-18T18:36:42Z</time>
      </trkpt>
      <trkpt lat="59.903606" lon="17.642264">
        <ele>17.4412</ele>
        <time>2013-05-18T18:36:43Z</time>
      </trkpt>
      <trkpt lat="59.9036698" lon="17.6422958">
        <ele>16.9604</ele>
        <time>2013-05-18T18:36:44Z</time>
      </trkpt>
      <trkpt lat="59.9037361" lon="17.6423264">
        <ele>16.4797</ele>
        <time>2013-05-18T18:36:45Z</time>
      </trkpt>
      <trkpt lat="59.903803" lon="17.6423562">
        <ele>16.9604</ele>
        <time>2013-05-18T18:36:46Z</time>
      </trkpt>
      <trkpt lat="59.9038697" lon="17.6423822">
        <ele>16.9604</ele>
        <time>2013-05-18T18:36:47Z</time>
      </trkpt>
      <trkpt lat="59.9039329" lon="17.6424142">
        <ele>15.0377</ele>
        <time>2013-05-18T18:36:48Z</time>
      </trkpt>
      <trkpt lat="59.9039943" lon="17.6424486">
        <ele>13.5958</ele>
        <time>2013-05-18T18:36:49Z</time>
      </trkpt>
      <trkpt lat="59.9040572" lon="17.6424839">
        <ele>12.1538</ele>
        <time>2013-05-18T18:36:50Z</time>
      </trkpt>
      <trkpt lat="59.904122" lon="17.6425199">
        <ele>11.6732</ele>
        <time>2013-05-18T18:36:51Z</time>
      </trkpt>
      <trkpt lat="59.9041884" lon="17.6425546">
        <ele>10.2312</ele>
        <time>2013-05-18T18:36:52Z</time>
      </trkpt>
      <trkpt lat="59.9042565" lon="17.6425888">
        <ele>9.2699</ele>
        <time>2013-05-18T18:36:53Z</time>
      </trkpt>
      <trkpt lat="59.9043277" lon="17.6426237">
        <ele>8.78918</ele>
        <time>2013-05-18T18:36:54Z</time>
      </trkpt>
      <trkpt lat="59.9043984" lon="17.6426605">
        <ele>8.30859</ele>
        <time>2013-05-18T18:36:55Z</time>
      </trkpt>
      <trkpt lat="59.9044644" lon="17.6426969">
        <ele>6.86646</ele>
        <time>2013-05-18T18:36:56Z</time>
      </trkpt>
      <trkpt lat="59.9045307" lon="17.6427316">
        <ele>5.90527</ele>
        <time>2013-05-18T18:36:57Z</time>
      </trkpt>
      <trkpt lat="59.9045959" lon="17.6427668">
        <ele>4.94385</ele>
        <time>2013-05-18T18:36:58Z</time>
      </trkpt>
      <trkpt lat="59.904661" lon="17.6428029">
        <ele>3.98267</ele>
        <time>2013-05-18T18:36:59Z</time>
      </trkpt>
      <trkpt lat="59.904728" lon="17.6428386">
        <ele>3.02124</ele>
        <time>2013-05-18T18:37:00Z</time>
      </trkpt>
      <trkpt lat="59.9048021" lon="17.6428655">
        <ele>3.50195</ele>
        <time>2013-05-18T18:37:01Z</time>
      </trkpt>
      <trkpt lat="59.9048742" lon="17.6428874">
        <ele>3.50195</ele>
        <time>2013-05-18T18:37:02Z</time>
      </trkpt>
      <trkpt lat="59.9049295" lon="17.642922">
        <ele>4.46326</ele>
        <time>2013-05-18T18:37:03Z</time>
      </trkpt>
      <trkpt lat="59.9049839" lon="17.6429563">
        <ele>5.42456</ele>
        <time>2013-05-18T18:37:04Z</time>
      </trkpt>
      <trkpt lat="59.9050363" lon="17.6429862">
        <ele>6.38586</ele>
        <time>2013-05-18T18:37:05Z</time>
      </trkpt>
      <trkpt lat="59.9050876" lon="17.6430137">
        <ele>6.86646</ele>
        <time>2013-05-18T18:37:06Z</time>
      </trkpt>
      <trkpt lat="59.9051358" lon="17.6430453">
        <ele>6.86646</ele>
        <time>2013-05-18T18:37:07Z</time>
      </trkpt>
      <trkpt lat="59.9051884" lon="17.6430721">
        <ele>7.34717</ele>
        <time>2013-05-18T18:37:08Z</time>
      </trkpt>
      <trkpt lat="59.9052398" lon="17.6430919">
        <ele>8.30859</ele>
        <time>2013-05-18T18:37:09Z</time>
      </trkpt>
      <trkpt lat="59.9052917" lon="17.6430982">
        <ele>9.75061</ele>
        <time>2013-05-18T18:37:10Z</time>
      </trkpt>
      <trkpt lat="59.905345" lon="17.6431014">
        <ele>11.1925</ele>
        <time>2013-05-18T18:37:11Z</time>
      </trkpt>
      <trkpt lat="59.9053961" lon="17.6430936">
        <ele>11.1925</ele>
        <time>2013-05-18T18:37:12Z</time>
      </trkpt>
      <trkpt lat="59.9054419" lon="17.6430494">
        <ele>12.6344</ele>
        <time>2013-05-18T18:37:13Z</time>
      </trkpt>
      <trkpt lat="59.9054891" lon="17.6429888">
        <ele>13.5958</ele>
        <time>2013-05-18T18:37:14Z</time>
      </trkpt>
      <trkpt lat="59.9055442" lon="17.642961">
        <ele>13.5958</ele>
        <time>2013-05-18T18:37:15Z</time>
      </trkpt>
      <trkpt lat="59.9056009" lon="17.6429493">
        <ele>14.557</ele>
        <time>2013-05-18T18:37:16Z</time>
      </trkpt>
      <trkpt lat="59.9056566" lon="17.6429651">
        <ele>15.0377</ele>
        <time>2013-05-18T18:37:17Z</time>
      </trkpt>
      <trkpt lat="59.9057194" lon="17.6429835">
        <ele>15.0377</ele>
        <time>2013-05-18T18:37:18Z</time>
      </trkpt>
      <trkpt lat="59.9057832" lon="17.6430087">
        <ele>15.0377</ele>
        <time>2013-05-18T18:37:19Z</time>
      </trkpt>
      <trkpt lat="59.9058511" lon="17.6430345">
        <ele>15.0377</ele>
        <time>2013-05-18T18:37:20Z</time>
      </trkpt>
      <trkpt lat="59.9059178" lon="17.6430625">
        <ele>15.0377</ele>
        <time>2013-05-18T18:37:21Z</time>
      </trkpt>
      <trkpt lat="59.9059797" lon="17.643093">
        <ele>15.5184</ele>
        <time>2013-05-18T18:37:22Z</time>
      </trkpt>
      <trkpt lat="59.9060422" lon="17.6431241">
        <ele>15.999</ele>
        <time>2013-05-18T18:37:23Z</time>
      </trkpt>
      <trkpt lat="59.9061059" lon="17.6431603">
        <ele>15.5184</ele>
        <time>2013-05-18T18:37:24Z</time>
      </trkpt>
      <trkpt lat="59.9061702" lon="17.6431935">
        <ele>15.999</ele>
        <time>2013-05-18T18:37:25Z</time>
      </trkpt>
      <trkpt lat="59.9062353" lon="17.643226">
        <ele>15.999</ele>
        <time>2013-05-18T18:37:26Z</time>
      </trkpt>
      <trkpt lat="59.9063044" lon="17.6432536">
        <ele>16.4797</ele>
        <time>2013-05-18T18:37:27Z</time>
      </trkpt>
      <trkpt lat="59.9063717" lon="17.6432841">
        <ele>16.9604</ele>
        <time>2013-05-18T18:37:28Z</time>
      </trkpt>
      <trkpt lat="59.9064402" lon="17.6433095">
        <ele>17.4412</ele>
        <time>2013-05-18T18:37:29Z</time>
      </trkpt>
      <trkpt lat="59.906509" lon="17.6433277">
        <ele>18.4023</ele>
        <time>2013-05-18T18:37:30Z</time>
      </trkpt>
      <trkpt lat="59.9065732" lon="17.6433493">
        <ele>18.8831</ele>
        <time>2013-05-18T18:37:31Z</time>
      </trkpt>
      <trkpt lat="59.9066389" lon="17.6433707">
        <ele>19.3638</ele>
        <time>2013-05-18T18:37:32Z</time>
      </trkpt>
      <trkpt lat="59.9067037" lon="17.6433965">
        <ele>18.8831</ele>
        <time>2013-05-18T18:37:33Z</time>
      </trkpt>
      <trkpt lat="59.9067699" lon="17.6434173">
        <ele>18.8831</ele>
        <time>2013-05-18T18:37:34Z</time>
      </trkpt>
      <trkpt lat="59.9068327" lon="17.6434373">
        <ele>18.8831</ele>
        <time>2013-05-18T18:37:35Z</time>
      </trkpt>
      <trkpt lat="59.9068914" lon="17.6434637">
        <ele>18.4023</ele>
        <time>2013-05-18T18:37:36Z</time>
      </trkpt>
      <trkpt lat="59.9069528" lon="17.6434834">
        <ele>17.9218</ele>
        <time>2013-05-18T18:37:37Z</time>
      </trkpt>
      <trkpt lat="59.9070152" lon="17.6434975">
        <ele>17.9218</ele>
        <time>2013-05-18T18:37:38Z</time>
      </trkpt>
      <trkpt lat="59.907073" lon="17.6435168">
        <ele>17.4412</ele>
        <time>2013-05-18T18:37:39Z</time>
      </trkpt>
      <trkpt lat="59.9071309" lon="17.6435339">
        <ele>17.4412</ele>
        <time>2013-05-18T18:37:40Z</time>
      </trkpt>
      <trkpt lat="59.9071897" lon="17.6435477">
        <ele>17.4412</ele>
        <time>2013-05-18T18:37:41Z</time>
      </trkpt>
      <trkpt lat="59.907247" lon="17.6435644">
        <ele>16.9604</ele>
        <time>2013-05-18T18:37:42Z</time>
      </trkpt>
      <trkpt lat="59.9073062" lon="17.6435752">
        <ele>16.4797</ele>
        <time>2013-05-18T18:37:43Z</time>
      </trkpt>
      <trkpt lat="59.9073666" lon="17.6435816">
        <ele>16.4797</ele>
        <time>2013-05-18T18:37:44Z</time>
      </trkpt>
      <trkpt lat="59.9074261" lon="17.6435908">
        <ele>16.4797</ele>
        <time>2013-05-18T18:37:45Z</time>
      </trkpt>
      <trkpt lat="59.907484" lon="17.6436017">
        <ele>16.4797</ele>
        <time>2013-05-18T18:37:46Z</time>
      </trkpt>
      <trkpt lat="59.9075427" lon="17.64361">
        <ele>16.9604</ele>
        <time>2013-05-18T18:37:47Z</time>
      </trkpt>
      <trkpt lat="59.9076013" lon="17.6436173">
        <ele>16.9604</ele>
        <time>2013-05-18T18:37:48Z</time>
      </trkpt>
      <trkpt lat="59.9076606" lon="17.6436236">
        <ele>17.4412</ele>
        <time>2013-05-18T18:37:49Z</time>
      </trkpt>
      <trkpt lat="59.9077191" lon="17.6436287">
        <ele>17.4412</ele>
        <time>2013-05-18T18:37:50Z</time>
      </trkpt>
      <trkpt lat="59.9077754" lon="17.6436339">
        <ele>17.9218</ele>
        <time>2013-05-18T18:37:51Z</time>
      </trkpt>
      <trkpt lat="59.907834" lon="17.6436324">
        <ele>17.9218</ele>
        <time>2013-05-18T18:37:52Z</time>
      </trkpt>
      <trkpt lat="59.90789" lon="17.6436326">
        <ele>18.4023</ele>
        <time>2013-05-18T18:37:53Z</time>
      </trkpt>
      <trkpt lat="59.9079453" lon="17.6436383">
        <ele>18.8831</ele>
        <time>2013-05-18T18:37:54Z</time>
      </trkpt>
      <trkpt lat="59.9079992" lon="17.6436461">
        <ele>19.3638</ele>
        <time>2013-05-18T18:37:55Z</time>
      </trkpt>
      <trkpt lat="59.9080526" lon="17.6436512">
        <ele>19.8444</ele>
        <time>2013-05-18T18:37:56Z</time>
      </trkpt>
      <trkpt lat="59.9081063" lon="17.6436565">
        <ele>19.8444</ele>
        <time>2013-05-18T18:37:57Z</time>
      </trkpt>
      <trkpt lat="59.90816" lon="17.6436634">
        <ele>20.325</ele>
        <time>2013-05-18T18:37:58Z</time>
      </trkpt>
      <trkpt lat="59.9082137" lon="17.6436718">
        <ele>20.8057</ele>
        <time>2013-05-18T18:37:59Z</time>
      </trkpt>
      <trkpt lat="59.9082664" lon="17.6436804">
        <ele>20.8057</ele>
        <time>2013-05-18T18:38:00Z</time>
      </trkpt>
      <trkpt lat="59.9083202" lon="17.6436877">
        <ele>21.2864</ele>
        <time>2013-05-18T18:38:01Z</time>
      </trkpt>
      <trkpt lat="59.9083695" lon="17.6437012">
        <ele>20.8057</ele>
        <time>2013-05-18T18:38:02Z</time>
      </trkpt>
      <trkpt lat="59.9084189" lon="17.6437099">
        <ele>19.8444</ele>
        <time>2013-05-18T18:38:03Z</time>
      </trkpt>
      <trkpt lat="59.9084673" lon="17.6437183">
        <ele>18.8831</ele>
        <time>2013-05-18T18:38:04Z</time>
      </trkpt>
      <trkpt lat="59.9085184" lon="17.6437281">
        <ele>17.4412</ele>
        <time>2013-05-18T18:38:05Z</time>
      </trkpt>
      <trkpt lat="59.9085804" lon="17.6437265">
        <ele>17.9218</ele>
        <time>2013-05-18T18:38:06Z</time>
      </trkpt>
      <trkpt lat="59.9086446" lon="17.6437197">
        <ele>17.9218</ele>
        <time>2013-05-18T18:38:07Z</time>
      </trkpt>
      <trkpt lat="59.90871" lon="17.6437098">
        <ele>17.9218</ele>
        <time>2013-05-18T18:38:08Z</time>
      </trkpt>
      <trkpt lat="59.908773" lon="17.6437023">
        <ele>17.4412</ele>
        <time>2013-05-18T18:38:09Z</time>
      </trkpt>
      <trkpt lat="59.9088365" lon="17.6436976">
        <ele>17.4412</ele>
        <time>2013-05-18T18:38:10Z</time>
      </trkpt>
      <trkpt lat="59.9089027" lon="17.6436927">
        <ele>17.4412</ele>
        <time>2013-05-18T18:38:11Z</time>
      </trkpt>
      <trkpt lat="59.9089696" lon="17.6436854">
        <ele>17.9218</ele>
        <time>2013-05-18T18:38:12Z</time>
      </trkpt>
      <trkpt lat="59.9090359" lon="17.6436768">
        <ele>17.9218</ele>
        <time>2013-05-18T18:38:13Z</time>
      </trkpt>
      <trkpt lat="59.9091019" lon="17.6436675">
        <ele>17.9218</ele>
        <time>2013-05-18T18:38:14Z</time>
      </trkpt>
      <trkpt lat="59.9091679" lon="17.6436571">
        <ele>17.9218</ele>
        <time>2013-05-18T18:38:15Z</time>
      </trkpt>
      <trkpt lat="59.9092346" lon="17.6436469">
        <ele>17.9218</ele>
        <time>2013-05-18T18:38:16Z</time>
      </trkpt>
      <trkpt lat="59.9093026" lon="17.6436348">
        <ele>17.9218</ele>
        <time>2013-05-18T18:38:17Z</time>
      </trkpt>
      <trkpt lat="59.9093704" lon="17.6436215">
        <ele>17.9218</ele>
        <time>2013-05-18T18:38:18Z</time>
      </trkpt>
      <trkpt lat="59.9094363" lon="17.6436101">
        <ele>17.9218</ele>
        <time>2013-05-18T18:38:19Z</time>
      </trkpt>
      <trkpt lat="59.909503" lon="17.643598">
        <ele>17.9218</ele>
        <time>2013-05-18T18:38:20Z</time>
      </trkpt>
      <trkpt lat="59.9095689" lon="17.6435877">
        <ele>17.9218</ele>
        <time>2013-05-18T18:38:21Z</time>
      </trkpt>
      <trkpt lat="59.9096349" lon="17.6435773">
        <ele>17.9218</ele>
        <time>2013-05-18T18:38:22Z</time>
      </trkpt>
      <trkpt lat="59.9096997" lon="17.6435644">
        <ele>17.9218</ele>
        <time>2013-05-18T18:38:23Z</time>
      </trkpt>
      <trkpt lat="59.9097647" lon="17.6435497">
        <ele>17.9218</ele>
        <time>2013-05-18T18:38:24Z</time>
      </trkpt>
      <trkpt lat="59.9098276" lon="17.6435462">
        <ele>17.9218</ele>
        <time>2013-05-18T18:38:25Z</time>
      </trkpt>
      <trkpt lat="59.9098879" lon="17.6435567">
        <ele>17.4412</ele>
        <time>2013-05-18T18:38:26Z</time>
      </trkpt>
      <trkpt lat="59.9099464" lon="17.6435774">
        <ele>17.4412</ele>
        <time>2013-05-18T18:38:27Z</time>
      </trkpt>
      <trkpt lat="59.9100032" lon="17.643606">
        <ele>17.4412</ele>
        <time>2013-05-18T18:38:28Z</time>
      </trkpt>
      <trkpt lat="59.91006" lon="17.6436296">
        <ele>17.9218</ele>
        <time>2013-05-18T18:38:29Z</time>
      </trkpt>
      <trkpt lat="59.9101127" lon="17.6436499">
        <ele>16.9604</ele>
        <time>2013-05-18T18:38:30Z</time>
      </trkpt>
      <trkpt lat="59.9101604" lon="17.6436575">
        <ele>16.4797</ele>
        <time>2013-05-18T18:38:31Z</time>
      </trkpt>
      <trkpt lat="59.910213" lon="17.6436582">
        <ele>16.4797</ele>
        <time>2013-05-18T18:38:32Z</time>
      </trkpt>
      <trkpt lat="59.9102742" lon="17.643644">
        <ele>16.9604</ele>
        <time>2013-05-18T18:38:33Z</time>
      </trkpt>
      <trkpt lat="59.9103312" lon="17.6436275">
        <ele>16.9604</ele>
        <time>2013-05-18T18:38:34Z</time>
      </trkpt>
      <trkpt lat="59.9103908" lon="17.6436134">
        <ele>16.4797</ele>
        <time>2013-05-18T18:38:35Z</time>
      </trkpt>
      <trkpt lat="59.9104515" lon="17.6435969">
        <ele>16.4797</ele>
        <time>2013-05-18T18:38:36Z</time>
      </trkpt>
      <trkpt lat="59.9105176" lon="17.6435654">
        <ele>16.9604</ele>
        <time>2013-05-18T18:38:37Z</time>
      </trkpt>
      <trkpt lat="59.9105815" lon="17.6435267">
        <ele>16.4797</ele>
        <time>2013-05-18T18:38:38Z</time>
      </trkpt>
      <trkpt lat="59.9106484" lon="17.6434943">
        <ele>16.9604</ele>
        <time>2013-05-18T18:38:39Z</time>
      </trkpt>
      <trkpt lat="59.9107173" lon="17.6434706">
        <ele>16.9604</ele>
        <time>2013-05-18T18:38:40Z</time>
      </trkpt>
      <trkpt lat="59.910787" lon="17.6434545">
        <ele>16.9604</ele>
        <time>2013-05-18T18:38:41Z</time>
      </trkpt>
      <trkpt lat="59.9108533" lon="17.6434468">
        <ele>16.9604</ele>
        <time>2013-05-18T18:38:42Z</time>
      </trkpt>
      <trkpt lat="59.9109192" lon="17.6434374">
        <ele>16.9604</ele>
        <time>2013-05-18T18:38:43Z</time>
      </trkpt>
      <trkpt lat="59.9109849" lon="17.6434266">
        <ele>16.9604</ele>
        <time>2013-05-18T18:38:44Z</time>
      </trkpt>
      <trkpt lat="59.9110491" lon="17.6434146">
        <ele>16.9604</ele>
        <time>2013-05-18T18:38:45Z</time>
      </trkpt>
      <trkpt lat="59.9111131" lon="17.6434007">
        <ele>16.9604</ele>
        <time>2013-05-18T18:38:46Z</time>
      </trkpt>
      <trkpt lat="59.9111781" lon="17.6433889">
        <ele>17.4412</ele>
        <time>2013-05-18T18:38:47Z</time>
      </trkpt>
      <trkpt lat="59.911243" lon="17.6433769">
        <ele>17.4412</ele>
        <time>2013-05-18T18:38:48Z</time>
      </trkpt>
      <trkpt lat="59.9113099" lon="17.6433603">
        <ele>17.9218</ele>
        <time>2013-05-18T18:38:49Z</time>
      </trkpt>
      <trkpt lat="59.9113763" lon="17.6433473">
        <ele>17.4412</ele>
        <time>2013-05-18T18:38:50Z</time>
      </trkpt>
      <trkpt lat="59.9114467" lon="17.6433303">
        <ele>16.9604</ele>
        <time>2013-05-18T18:38:51Z</time>
      </trkpt>
      <trkpt lat="59.9115057" lon="17.6433246">
        <ele>16.9604</ele>
        <time>2013-05-18T18:38:52Z</time>
      </trkpt>
      <trkpt lat="59.9115689" lon="17.6433226">
        <ele>16.4797</ele>
        <time>2013-05-18T18:38:53Z</time>
      </trkpt>
      <trkpt lat="59.9116353" lon="17.6433125">
        <ele>16.4797</ele>
        <time>2013-05-18T18:38:54Z</time>
      </trkpt>
      <trkpt lat="59.9117021" lon="17.6433042">
        <ele>16.4797</ele>
        <time>2013-05-18T18:38:55Z</time>
      </trkpt>
      <trkpt lat="59.9117704" lon="17.6432971">
        <ele>16.4797</ele>
        <time>2013-05-18T18:38:56Z</time>
      </trkpt>
      <trkpt lat="59.9118315" lon="17.6432892">
        <ele>15.999</ele>
        <time>2013-05-18T18:38:57Z</time>
      </trkpt>
      <trkpt lat="59.9118925" lon="17.6432806">
        <ele>14.557</ele>
        <time>2013-05-18T18:38:58Z</time>
      </trkpt>
      <trkpt lat="59.9119549" lon="17.6432653">
        <ele>13.5958</ele>
        <time>2013-05-18T18:38:59Z</time>
      </trkpt>
      <trkpt lat="59.9120215" lon="17.6432437">
        <ele>12.6344</ele>
        <time>2013-05-18T18:39:00Z</time>
      </trkpt>
      <trkpt lat="59.9120825" lon="17.6432228">
        <ele>12.6344</ele>
        <time>2013-05-18T18:39:01Z</time>
      </trkpt>
      <trkpt lat="59.9121573" lon="17.6431899">
        <ele>13.1151</ele>
        <time>2013-05-18T18:39:02Z</time>
      </trkpt>
      <trkpt lat="59.9122362" lon="17.6431548">
        <ele>13.5958</ele>
        <time>2013-05-18T18:39:03Z</time>
      </trkpt>
      <trkpt lat="59.9123111" lon="17.6431276">
        <ele>14.557</ele>
        <time>2013-05-18T18:39:04Z</time>
      </trkpt>
      <trkpt lat="59.9123873" lon="17.6431142">
        <ele>14.557</ele>
        <time>2013-05-18T18:39:05Z</time>
      </trkpt>
      <trkpt lat="59.9124684" lon="17.6431017">
        <ele>14.557</ele>
        <time>2013-05-18T18:39:06Z</time>
      </trkpt>
      <trkpt lat="59.9125427" lon="17.6431045">
        <ele>14.0764</ele>
        <time>2013-05-18T18:39:07Z</time>
      </trkpt>
      <trkpt lat="59.9126166" lon="17.6431239">
        <ele>13.1151</ele>
        <time>2013-05-18T18:39:08Z</time>
      </trkpt>
      <trkpt lat="59.9126873" lon="17.6431592">
        <ele>14.0764</ele>
        <time>2013-05-18T18:39:09Z</time>
      </trkpt>
      <trkpt lat="59.9127586" lon="17.6431791">
        <ele>15.0377</ele>
        <time>2013-05-18T18:39:10Z</time>
      </trkpt>
      <trkpt lat="59.9128288" lon="17.6431791">
        <ele>15.5184</ele>
        <time>2013-05-18T18:39:11Z</time>
      </trkpt>
      <trkpt lat="59.9128872" lon="17.6431825">
        <ele>15.5184</ele>
        <time>2013-05-18T18:39:12Z</time>
      </trkpt>
      <trkpt lat="59.9129531" lon="17.6431742">
        <ele>15.5184</ele>
        <time>2013-05-18T18:39:13Z</time>
      </trkpt>
      <trkpt lat="59.9130202" lon="17.6431577">
        <ele>15.5184</ele>
        <time>2013-05-18T18:39:14Z</time>
      </trkpt>
      <trkpt lat="59.9130886" lon="17.6431495">
        <ele>15.5184</ele>
        <time>2013-05-18T18:39:15Z</time>
      </trkpt>
      <trkpt lat="59.9131618" lon="17.6431382">
        <ele>15.0377</ele>
        <time>2013-05-18T18:39:16Z</time>
      </trkpt>
      <trkpt lat="59.9132354" lon="17.6431198">
        <ele>15.0377</ele>
        <time>2013-05-18T18:39:17Z</time>
      </trkpt>
      <trkpt lat="59.9133076" lon="17.6430946">
        <ele>15.5184</ele>
        <time>2013-05-18T18:39:18Z</time>
      </trkpt>
      <trkpt lat="59.9133773" lon="17.643083">
        <ele>15.5184</ele>
        <time>2013-05-18T18:39:19Z</time>
      </trkpt>
      <trkpt lat="59.9134501" lon="17.6430677">
        <ele>15.999</ele>
        <time>2013-05-18T18:39:20Z</time>
      </trkpt>
      <trkpt lat="59.9135185" lon="17.64306">
        <ele>15.999</ele>
        <time>2013-05-18T18:39:21Z</time>
      </trkpt>
      <trkpt lat="59.9135906" lon="17.6430462">
        <ele>15.999</ele>
        <time>2013-05-18T18:39:22Z</time>
      </trkpt>
      <trkpt lat="59.9136619" lon="17.6430345">
        <ele>16.4797</ele>
        <time>2013-05-18T18:39:23Z</time>
      </trkpt>
      <trkpt lat="59.9137459" lon="17.6430025">
        <ele>16.9604</ele>
        <time>2013-05-18T18:39:24Z</time>
      </trkpt>
      <trkpt lat="59.9138212" lon="17.6429833">
        <ele>17.4412</ele>
        <time>2013-05-18T18:39:25Z</time>
      </trkpt>
      <trkpt lat="59.9139004" lon="17.6429609">
        <ele>17.9218</ele>
        <time>2013-05-18T18:39:26Z</time>
      </trkpt>
      <trkpt lat="59.9139717" lon="17.642949">
        <ele>18.4023</ele>
        <time>2013-05-18T18:39:27Z</time>
      </trkpt>
      <trkpt lat="59.9140392" lon="17.6429371">
        <ele>18.4023</ele>
        <time>2013-05-18T18:39:28Z</time>
      </trkpt>
      <trkpt lat="59.9141067" lon="17.6429194">
        <ele>18.8831</ele>
        <time>2013-05-18T18:39:29Z</time>
      </trkpt>
      <trkpt lat="59.9141874" lon="17.6428941">
        <ele>19.8444</ele>
        <time>2013-05-18T18:39:30Z</time>
      </trkpt>
      <trkpt lat="59.9142625" lon="17.6428723">
        <ele>18.8831</ele>
        <time>2013-05-18T18:39:31Z</time>
      </trkpt>
      <trkpt lat="59.9143331" lon="17.6428571">
        <ele>17.9218</ele>
        <time>2013-05-18T18:39:32Z</time>
      </trkpt>
      <trkpt lat="59.914404" lon="17.642849">
        <ele>16.9604</ele>
        <time>2013-05-18T18:39:33Z</time>
      </trkpt>
      <trkpt lat="59.9144801" lon="17.642839">
        <ele>15.999</ele>
        <time>2013-05-18T18:39:34Z</time>
      </trkpt>
      <trkpt lat="59.9145659" lon="17.6428243">
        <ele>15.999</ele>
        <time>2013-05-18T18:39:35Z</time>
      </trkpt>
      <trkpt lat="59.914649" lon="17.6428029">
        <ele>15.5184</ele>
        <time>2013-05-18T18:39:36Z</time>
      </trkpt>
      <trkpt lat="59.9147308" lon="17.6427823">
        <ele>15.0377</ele>
        <time>2013-05-18T18:39:37Z</time>
      </trkpt>
      <trkpt lat="59.9148119" lon="17.642763">
        <ele>15.0377</ele>
        <time>2013-05-18T18:39:38Z</time>
      </trkpt>
      <trkpt lat="59.9148914" lon="17.642745">
        <ele>15.0377</ele>
        <time>2013-05-18T18:39:39Z</time>
      </trkpt>
      <trkpt lat="59.9149689" lon="17.6427307">
        <ele>14.557</ele>
        <time>2013-05-18T18:39:40Z</time>
      </trkpt>
      <trkpt lat="59.9150469" lon="17.6427206">
        <ele>14.557</ele>
        <time>2013-05-18T18:39:41Z</time>
      </trkpt>
      <trkpt lat="59.9151251" lon="17.6426968">
        <ele>14.0764</ele>
        <time>2013-05-18T18:39:42Z</time>
      </trkpt>
      <trkpt lat="59.9152058" lon="17.642652">
        <ele>14.557</ele>
        <time>2013-05-18T18:39:43Z</time>
      </trkpt>
      <trkpt lat="59.9152859" lon="17.6426046">
        <ele>13.5958</ele>
        <time>2013-05-18T18:39:44Z</time>
      </trkpt>
      <trkpt lat="59.9153674" lon="17.6425542">
        <ele>13.5958</ele>
        <time>2013-05-18T18:39:45Z</time>
      </trkpt>
      <trkpt lat="59.9154519" lon="17.642505">
        <ele>13.5958</ele>
        <time>2013-05-18T18:39:46Z</time>
      </trkpt>
      <trkpt lat="59.9155405" lon="17.6424808">
        <ele>13.1151</ele>
        <time>2013-05-18T18:39:47Z</time>
      </trkpt>
      <trkpt lat="59.9156336" lon="17.6424683">
        <ele>13.5958</ele>
        <time>2013-05-18T18:39:48Z</time>
      </trkpt>
      <trkpt lat="59.9157232" lon="17.6424539">
        <ele>13.5958</ele>
        <time>2013-05-18T18:39:49Z</time>
      </trkpt>
      <trkpt lat="59.9158106" lon="17.6424429">
        <ele>13.5958</ele>
        <time>2013-05-18T18:39:50Z</time>
      </trkpt>
      <trkpt lat="59.9158963" lon="17.6424353">
        <ele>13.5958</ele>
        <time>2013-05-18T18:39:51Z</time>
      </trkpt>
      <trkpt lat="59.9159791" lon="17.6424308">
        <ele>14.0764</ele>
        <time>2013-05-18T18:39:52Z</time>
      </trkpt>
      <trkpt lat="59.9160585" lon="17.642435">
        <ele>14.557</ele>
        <time>2013-05-18T18:39:53Z</time>
      </trkpt>
      <trkpt lat="59.9161346" lon="17.6424388">
        <ele>15.5184</ele>
        <time>2013-05-18T18:39:54Z</time>
      </trkpt>
      <trkpt lat="59.91621" lon="17.6424392">
        <ele>15.999</ele>
        <time>2013-05-18T18:39:55Z</time>
      </trkpt>
      <trkpt lat="59.9162834" lon="17.6424351">
        <ele>16.9604</ele>
        <time>2013-05-18T18:39:56Z</time>
      </trkpt>
      <trkpt lat="59.91635" lon="17.642427">
        <ele>17.4412</ele>
        <time>2013-05-18T18:39:57Z</time>
      </trkpt>
      <trkpt lat="59.9164167" lon="17.642416">
        <ele>17.9218</ele>
        <time>2013-05-18T18:39:58Z</time>
      </trkpt>
      <trkpt lat="59.9164839" lon="17.6424023">
        <ele>17.9218</ele>
        <time>2013-05-18T18:39:59Z</time>
      </trkpt>
      <trkpt lat="59.916551" lon="17.6423892">
        <ele>18.4023</ele>
        <time>2013-05-18T18:40:00Z</time>
      </trkpt>
      <trkpt lat="59.9166164" lon="17.6423829">
        <ele>18.4023</ele>
        <time>2013-05-18T18:40:01Z</time>
      </trkpt>
      <trkpt lat="59.9166847" lon="17.642375">
        <ele>18.4023</ele>
        <time>2013-05-18T18:40:02Z</time>
      </trkpt>
      <trkpt lat="59.9167547" lon="17.6423658">
        <ele>18.4023</ele>
        <time>2013-05-18T18:40:03Z</time>
      </trkpt>
      <trkpt lat="59.9168266" lon="17.6423544">
        <ele>18.4023</ele>
        <time>2013-05-18T18:40:04Z</time>
      </trkpt>
      <trkpt lat="59.9169018" lon="17.6423405">
        <ele>18.8831</ele>
        <time>2013-05-18T18:40:05Z</time>
      </trkpt>
      <trkpt lat="59.9169784" lon="17.6423252">
        <ele>18.8831</ele>
        <time>2013-05-18T18:40:06Z</time>
      </trkpt>
      <trkpt lat="59.9170556" lon="17.6423052">
        <ele>18.8831</ele>
        <time>2013-05-18T18:40:07Z</time>
      </trkpt>
      <trkpt lat="59.9171323" lon="17.6422787">
        <ele>18.8831</ele>
        <time>2013-05-18T18:40:08Z</time>
      </trkpt>
      <trkpt lat="59.917201" lon="17.6422623">
        <ele>18.4023</ele>
        <time>2013-05-18T18:40:09Z</time>
      </trkpt>
      <trkpt lat="59.9172722" lon="17.642259">
        <ele>18.4023</ele>
        <time>2013-05-18T18:40:10Z</time>
      </trkpt>
      <trkpt lat="59.9173461" lon="17.6422633">
        <ele>18.4023</ele>
        <time>2013-05-18T18:40:11Z</time>
      </trkpt>
      <trkpt lat="59.9174189" lon="17.6422682">
        <ele>18.4023</ele>
        <time>2013-05-18T18:40:12Z</time>
      </trkpt>
      <trkpt lat="59.9174911" lon="17.6422708">
        <ele>17.9218</ele>
        <time>2013-05-18T18:40:13Z</time>
      </trkpt>
      <trkpt lat="59.9175629" lon="17.6422704">
        <ele>17.9218</ele>
        <time>2013-05-18T18:40:14Z</time>
      </trkpt>
      <trkpt lat="59.9176344" lon="17.6422698">
        <ele>17.9218</ele>
        <time>2013-05-18T18:40:15Z</time>
      </trkpt>
      <trkpt lat="59.9177099" lon="17.6422652">
        <ele>17.9218</ele>
        <time>2013-05-18T18:40:16Z</time>
      </trkpt>
      <trkpt lat="59.917781" lon="17.6422631">
        <ele>18.4023</ele>
        <time>2013-05-18T18:40:17Z</time>
      </trkpt>
      <trkpt lat="59.9178509" lon="17.6422563">
        <ele>18.8831</ele>
        <time>2013-05-18T18:40:18Z</time>
      </trkpt>
      <trkpt lat="59.9179156" lon="17.6422523">
        <ele>18.4023</ele>
        <time>2013-05-18T18:40:19Z</time>
      </trkpt>
      <trkpt lat="59.9179849" lon="17.6422443">
        <ele>19.3638</ele>
        <time>2013-05-18T18:40:20Z</time>
      </trkpt>
      <trkpt lat="59.9180538" lon="17.6422368">
        <ele>19.3638</ele>
        <time>2013-05-18T18:40:21Z</time>
      </trkpt>
      <trkpt lat="59.9181207" lon="17.6422305">
        <ele>19.8444</ele>
        <time>2013-05-18T18:40:22Z</time>
      </trkpt>
      <trkpt lat="59.9181874" lon="17.6422233">
        <ele>20.325</ele>
        <time>2013-05-18T18:40:23Z</time>
      </trkpt>
      <trkpt lat="59.9182537" lon="17.6422159">
        <ele>20.8057</ele>
        <time>2013-05-18T18:40:24Z</time>
      </trkpt>
      <trkpt lat="59.91832" lon="17.6422079">
        <ele>21.2864</ele>
        <time>2013-05-18T18:40:25Z</time>
      </trkpt>
      <trkpt lat="59.9183855" lon="17.6421975">
        <ele>21.767</ele>
        <time>2013-05-18T18:40:26Z</time>
      </trkpt>
      <trkpt lat="59.9184475" lon="17.642187">
        <ele>21.767</ele>
        <time>2013-05-18T18:40:27Z</time>
      </trkpt>
      <trkpt lat="59.9185087" lon="17.642176">
        <ele>21.767</ele>
        <time>2013-05-18T18:40:28Z</time>
      </trkpt>
      <trkpt lat="59.9185686" lon="17.6421675">
        <ele>21.767</ele>
        <time>2013-05-18T18:40:29Z</time>
      </trkpt>
      <trkpt lat="59.9186288" lon="17.6421607">
        <ele>22.2476</ele>
        <time>2013-05-18T18:40:30Z</time>
      </trkpt>
      <trkpt lat="59.9186909" lon="17.6421518">
        <ele>21.767</ele>
        <time>2013-05-18T18:40:31Z</time>
      </trkpt>
      <trkpt lat="59.9187552" lon="17.6421389">
        <ele>21.767</ele>
        <time>2013-05-18T18:40:32Z</time>
      </trkpt>
      <trkpt lat="59.9188215" lon="17.6421255">
        <ele>21.767</ele>
        <time>2013-05-18T18:40:33Z</time>
      </trkpt>
      <trkpt lat="59.9188862" lon="17.6421195">
        <ele>22.2476</ele>
        <time>2013-05-18T18:40:34Z</time>
      </trkpt>
      <trkpt lat="59.9189516" lon="17.6421148">
        <ele>22.7283</ele>
        <time>2013-05-18T18:40:35Z</time>
      </trkpt>
      <trkpt lat="59.9190167" lon="17.6421096">
        <ele>22.7283</ele>
        <time>2013-05-18T18:40:36Z</time>
      </trkpt>
      <trkpt lat="59.9190809" lon="17.6421021">
        <ele>23.209</ele>
        <time>2013-05-18T18:40:37Z</time>
      </trkpt>
      <trkpt lat="59.9191442" lon="17.6420928">
        <ele>23.209</ele>
        <time>2013-05-18T18:40:38Z</time>
      </trkpt>
      <trkpt lat="59.9192076" lon="17.6420846">
        <ele>22.7283</ele>
        <time>2013-05-18T18:40:39Z</time>
      </trkpt>
      <trkpt lat="59.9192708" lon="17.6420808">
        <ele>22.7283</ele>
        <time>2013-05-18T18:40:40Z</time>
      </trkpt>
      <trkpt lat="59.9193339" lon="17.6420777">
        <ele>22.2476</ele>
        <time>2013-05-18T18:40:41Z</time>
      </trkpt>
      <trkpt lat="59.9193971" lon="17.6420715">
        <ele>22.2476</ele>
        <time>2013-05-18T18:40:42Z</time>
      </trkpt>
      <trkpt lat="59.9194613" lon="17.6420627">
        <ele>21.767</ele>
        <time>2013-05-18T18:40:43Z</time>
      </trkpt>
      <trkpt lat="59.9195271" lon="17.6420547">
        <ele>21.767</ele>
        <time>2013-05-18T18:40:44Z</time>
      </trkpt>
      <trkpt lat="59.9195934" lon="17.6420481">
        <ele>21.767</ele>
        <time>2013-05-18T18:40:45Z</time>
      </trkpt>
      <trkpt lat="59.9196597" lon="17.6420408">
        <ele>21.767</ele>
        <time>2013-05-18T18:40:46Z</time>
      </trkpt>
      <trkpt lat="59.919726" lon="17.64203">
        <ele>21.767</ele>
        <time>2013-05-18T18:40:47Z</time>
      </trkpt>
      <trkpt lat="59.9197919" lon="17.6420146">
        <ele>21.767</ele>
        <time>2013-05-18T18:40:48Z</time>
      </trkpt>
      <trkpt lat="59.9198581" lon="17.6419969">
        <ele>21.2864</ele>
        <time>2013-05-18T18:40:49Z</time>
      </trkpt>
      <trkpt lat="59.9199244" lon="17.6419788">
        <ele>21.2864</ele>
        <time>2013-05-18T18:40:50Z</time>
      </trkpt>
      <trkpt lat="59.9199917" lon="17.6419623">
        <ele>21.2864</ele>
        <time>2013-05-18T18:40:51Z</time>
      </trkpt>
      <trkpt lat="59.9200628" lon="17.641946">
        <ele>21.767</ele>
        <time>2013-05-18T18:40:52Z</time>
      </trkpt>
      <trkpt lat="59.9201326" lon="17.6419374">
        <ele>22.2476</ele>
        <time>2013-05-18T18:40:53Z</time>
      </trkpt>
      <trkpt lat="59.9201998" lon="17.6419341">
        <ele>22.7283</ele>
        <time>2013-05-18T18:40:54Z</time>
      </trkpt>
      <trkpt lat="59.9202648" lon="17.6419331">
        <ele>22.7283</ele>
        <time>2013-05-18T18:40:55Z</time>
      </trkpt>
      <trkpt lat="59.9203257" lon="17.6419392">
        <ele>21.767</ele>
        <time>2013-05-18T18:40:56Z</time>
      </trkpt>
      <trkpt lat="59.9203932" lon="17.6419393">
        <ele>21.2864</ele>
        <time>2013-05-18T18:40:57Z</time>
      </trkpt>
      <trkpt lat="59.92046" lon="17.6419353">
        <ele>20.8057</ele>
        <time>2013-05-18T18:40:58Z</time>
      </trkpt>
      <trkpt lat="59.9205261" lon="17.6419321">
        <ele>20.325</ele>
        <time>2013-05-18T18:40:59Z</time>
      </trkpt>
      <trkpt lat="59.920593" lon="17.6419294">
        <ele>20.325</ele>
        <time>2013-05-18T18:41:00Z</time>
      </trkpt>
      <trkpt lat="59.920661" lon="17.6419266">
        <ele>20.325</ele>
        <time>2013-05-18T18:41:01Z</time>
      </trkpt>
      <trkpt lat="59.9207292" lon="17.6419264">
        <ele>20.325</ele>
        <time>2013-05-18T18:41:02Z</time>
      </trkpt>
      <trkpt lat="59.9207883" lon="17.6419348">
        <ele>19.8444</ele>
        <time>2013-05-18T18:41:03Z</time>
      </trkpt>
      <trkpt lat="59.9208431" lon="17.6419446">
        <ele>19.3638</ele>
        <time>2013-05-18T18:41:04Z</time>
      </trkpt>
      <trkpt lat="59.9209002" lon="17.6419468">
        <ele>18.4023</ele>
        <time>2013-05-18T18:41:05Z</time>
      </trkpt>
      <trkpt lat="59.9209597" lon="17.6419473">
        <ele>18.4023</ele>
        <time>2013-05-18T18:41:06Z</time>
      </trkpt>
      <trkpt lat="59.9210223" lon="17.6419529">
        <ele>18.4023</ele>
        <time>2013-05-18T18:41:07Z</time>
      </trkpt>
      <trkpt lat="59.9210842" lon="17.6419606">
        <ele>18.4023</ele>
        <time>2013-05-18T18:41:08Z</time>
      </trkpt>
      <trkpt lat="59.9211509" lon="17.6419564">
        <ele>18.4023</ele>
        <time>2013-05-18T18:41:09Z</time>
      </trkpt>
      <trkpt lat="59.9212162" lon="17.6419511">
        <ele>18.4023</ele>
        <time>2013-05-18T18:41:10Z</time>
      </trkpt>
      <trkpt lat="59.9212874" lon="17.6419415">
        <ele>18.8831</ele>
        <time>2013-05-18T18:41:11Z</time>
      </trkpt>
      <trkpt lat="59.9213608" lon="17.6419326">
        <ele>20.325</ele>
        <time>2013-05-18T18:41:12Z</time>
      </trkpt>
      <trkpt lat="59.9214241" lon="17.6419264">
        <ele>20.325</ele>
        <time>2013-05-18T18:41:13Z</time>
      </trkpt>
      <trkpt lat="59.9214839" lon="17.6419172">
        <ele>19.3638</ele>
        <time>2013-05-18T18:41:14Z</time>
      </trkpt>
      <trkpt lat="59.9215394" lon="17.6419085">
        <ele>17.9218</ele>
        <time>2013-05-18T18:41:15Z</time>
      </trkpt>
      <trkpt lat="59.9216001" lon="17.6418891">
        <ele>16.9604</ele>
        <time>2013-05-18T18:41:16Z</time>
      </trkpt>
      <trkpt lat="59.9216628" lon="17.6418752">
        <ele>16.4797</ele>
        <time>2013-05-18T18:41:17Z</time>
      </trkpt>
      <trkpt lat="59.9217285" lon="17.6418586">
        <ele>15.999</ele>
        <time>2013-05-18T18:41:18Z</time>
      </trkpt>
      <trkpt lat="59.9217944" lon="17.6418501">
        <ele>15.5184</ele>
        <time>2013-05-18T18:41:19Z</time>
      </trkpt>
      <trkpt lat="59.9218648" lon="17.6418422">
        <ele>15.5184</ele>
        <time>2013-05-18T18:41:20Z</time>
      </trkpt>
      <trkpt lat="59.9219348" lon="17.6418356">
        <ele>15.5184</ele>
        <time>2013-05-18T18:41:21Z</time>
      </trkpt>
      <trkpt lat="59.9220026" lon="17.6418275">
        <ele>15.999</ele>
        <time>2013-05-18T18:41:22Z</time>
      </trkpt>
      <trkpt lat="59.9220716" lon="17.6418229">
        <ele>15.999</ele>
        <time>2013-05-18T18:41:23Z</time>
      </trkpt>
      <trkpt lat="59.9221412" lon="17.6418186">
        <ele>16.4797</ele>
        <time>2013-05-18T18:41:24Z</time>
      </trkpt>
      <trkpt lat="59.9222107" lon="17.6418125">
        <ele>16.4797</ele>
        <time>2013-05-18T18:41:25Z</time>
      </trkpt>
      <trkpt lat="59.9222813" lon="17.6418048">
        <ele>16.9604</ele>
        <time>2013-05-18T18:41:26Z</time>
      </trkpt>
      <trkpt lat="59.9223526" lon="17.6417959">
        <ele>16.9604</ele>
        <time>2013-05-18T18:41:27Z</time>
      </trkpt>
      <trkpt lat="59.9224239" lon="17.6417866">
        <ele>17.4412</ele>
        <time>2013-05-18T18:41:28Z</time>
      </trkpt>
      <trkpt lat="59.9224947" lon="17.6417772">
        <ele>17.4412</ele>
        <time>2013-05-18T18:41:29Z</time>
      </trkpt>
      <trkpt lat="59.9225661" lon="17.6417662">
        <ele>17.4412</ele>
        <time>2013-05-18T18:41:30Z</time>
      </trkpt>
      <trkpt lat="59.9226363" lon="17.6417541">
        <ele>17.9218</ele>
        <time>2013-05-18T18:41:31Z</time>
      </trkpt>
      <trkpt lat="59.9227038" lon="17.6417472">
        <ele>18.4023</ele>
        <time>2013-05-18T18:41:32Z</time>
      </trkpt>
      <trkpt lat="59.9227652" lon="17.641739">
        <ele>17.9218</ele>
        <time>2013-05-18T18:41:33Z</time>
      </trkpt>
      <trkpt lat="59.9228326" lon="17.6417307">
        <ele>17.4412</ele>
        <time>2013-05-18T18:41:34Z</time>
      </trkpt>
      <trkpt lat="59.9229014" lon="17.6417215">
        <ele>17.4412</ele>
        <time>2013-05-18T18:41:35Z</time>
      </trkpt>
      <trkpt lat="59.9229721" lon="17.6417113">
        <ele>17.4412</ele>
        <time>2013-05-18T18:41:36Z</time>
      </trkpt>
      <trkpt lat="59.9230452" lon="17.6416954">
        <ele>16.9604</ele>
        <time>2013-05-18T18:41:37Z</time>
      </trkpt>
      <trkpt lat="59.923122" lon="17.6416762">
        <ele>17.9218</ele>
        <time>2013-05-18T18:41:38Z</time>
      </trkpt>
      <trkpt lat="59.9232003" lon="17.6416634">
        <ele>18.4023</ele>
        <time>2013-05-18T18:41:39Z</time>
      </trkpt>
      <trkpt lat="59.9232806" lon="17.6416554">
        <ele>18.8831</ele>
        <time>2013-05-18T18:41:40Z</time>
      </trkpt>
      <trkpt lat="59.9233609" lon="17.6416493">
        <ele>19.3638</ele>
        <time>2013-05-18T18:41:41Z</time>
      </trkpt>
      <trkpt lat="59.9234437" lon="17.6416398">
        <ele>19.8444</ele>
        <time>2013-05-18T18:41:42Z</time>
      </trkpt>
      <trkpt lat="59.9235272" lon="17.641632">
        <ele>19.8444</ele>
        <time>2013-05-18T18:41:43Z</time>
      </trkpt>
      <trkpt lat="59.9236115" lon="17.641624">
        <ele>19.3638</ele>
        <time>2013-05-18T18:41:44Z</time>
      </trkpt>
      <trkpt lat="59.9236965" lon="17.6416144">
        <ele>19.8444</ele>
        <time>2013-05-18T18:41:45Z</time>
      </trkpt>
      <trkpt lat="59.9237828" lon="17.6416061">
        <ele>18.8831</ele>
        <time>2013-05-18T18:41:46Z</time>
      </trkpt>
      <trkpt lat="59.9238699" lon="17.6415994">
        <ele>17.9218</ele>
        <time>2013-05-18T18:41:47Z</time>
      </trkpt>
      <trkpt lat="59.923957" lon="17.641593">
        <ele>17.4412</ele>
        <time>2013-05-18T18:41:48Z</time>
      </trkpt>
      <trkpt lat="59.9240429" lon="17.6415867">
        <ele>16.4797</ele>
        <time>2013-05-18T18:41:49Z</time>
      </trkpt>
      <trkpt lat="59.924128" lon="17.64158">
        <ele>15.999</ele>
        <time>2013-05-18T18:41:50Z</time>
      </trkpt>
      <trkpt lat="59.9242161" lon="17.6415722">
        <ele>15.0377</ele>
        <time>2013-05-18T18:41:51Z</time>
      </trkpt>
      <trkpt lat="59.9243022" lon="17.641569">
        <ele>14.0764</ele>
        <time>2013-05-18T18:41:52Z</time>
      </trkpt>
      <trkpt lat="59.9243842" lon="17.6415647">
        <ele>14.0764</ele>
        <time>2013-05-18T18:41:53Z</time>
      </trkpt>
      <trkpt lat="59.9244704" lon="17.6415582">
        <ele>13.5958</ele>
        <time>2013-05-18T18:41:54Z</time>
      </trkpt>
      <trkpt lat="59.924551" lon="17.6415447">
        <ele>13.5958</ele>
        <time>2013-05-18T18:41:55Z</time>
      </trkpt>
      <trkpt lat="59.9246315" lon="17.6415271">
        <ele>12.1538</ele>
        <time>2013-05-18T18:41:56Z</time>
      </trkpt>
      <trkpt lat="59.9247118" lon="17.6415073">
        <ele>11.1925</ele>
        <time>2013-05-18T18:41:57Z</time>
      </trkpt>
      <trkpt lat="59.9247864" lon="17.6414862">
        <ele>11.1925</ele>
        <time>2013-05-18T18:41:58Z</time>
      </trkpt>
      <trkpt lat="59.9248618" lon="17.6414649">
        <ele>11.1925</ele>
        <time>2013-05-18T18:41:59Z</time>
      </trkpt>
      <trkpt lat="59.9249366" lon="17.6414468">
        <ele>11.6732</ele>
        <time>2013-05-18T18:42:00Z</time>
      </trkpt>
      <trkpt lat="59.9250116" lon="17.6414347">
        <ele>11.6732</ele>
        <time>2013-05-18T18:42:01Z</time>
      </trkpt>
      <trkpt lat="59.9250865" lon="17.6414271">
        <ele>12.1538</ele>
        <time>2013-05-18T18:42:02Z</time>
      </trkpt>
      <trkpt lat="59.9251618" lon="17.6414231">
        <ele>12.6344</ele>
        <time>2013-05-18T18:42:03Z</time>
      </trkpt>
      <trkpt lat="59.9252371" lon="17.6414218">
        <ele>13.1151</ele>
        <time>2013-05-18T18:42:04Z</time>
      </trkpt>
      <trkpt lat="59.9253126" lon="17.6414176">
        <ele>14.0764</ele>
        <time>2013-05-18T18:42:05Z</time>
      </trkpt>
      <trkpt lat="59.9253873" lon="17.6414098">
        <ele>14.557</ele>
        <time>2013-05-18T18:42:06Z</time>
      </trkpt>
      <trkpt lat="59.9254609" lon="17.6414012">
        <ele>15.0377</ele>
        <time>2013-05-18T18:42:07Z</time>
      </trkpt>
      <trkpt lat="59.9255349" lon="17.6413936">
        <ele>15.0377</ele>
        <time>2013-05-18T18:42:08Z</time>
      </trkpt>
      <trkpt lat="59.9256094" lon="17.6413858">
        <ele>15.0377</ele>
        <time>2013-05-18T18:42:09Z</time>
      </trkpt>
      <trkpt lat="59.9256846" lon="17.6413756">
        <ele>15.5184</ele>
        <time>2013-05-18T18:42:10Z</time>
      </trkpt>
      <trkpt lat="59.9257597" lon="17.641363">
        <ele>15.999</ele>
        <time>2013-05-18T18:42:11Z</time>
      </trkpt>
      <trkpt lat="59.925835" lon="17.6413489">
        <ele>15.999</ele>
        <time>2013-05-18T18:42:12Z</time>
      </trkpt>
      <trkpt lat="59.9259109" lon="17.6413358">
        <ele>16.4797</ele>
        <time>2013-05-18T18:42:13Z</time>
      </trkpt>
      <trkpt lat="59.9259877" lon="17.6413235">
        <ele>16.4797</ele>
        <time>2013-05-18T18:42:14Z</time>
      </trkpt>
      <trkpt lat="59.9260654" lon="17.641312">
        <ele>17.4412</ele>
        <time>2013-05-18T18:42:15Z</time>
      </trkpt>
      <trkpt lat="59.9261431" lon="17.6413018">
        <ele>17.4412</ele>
        <time>2013-05-18T18:42:16Z</time>
      </trkpt>
      <trkpt lat="59.9262203" lon="17.641291">
        <ele>17.9218</ele>
        <time>2013-05-18T18:42:17Z</time>
      </trkpt>
      <trkpt lat="59.9262968" lon="17.6412801">
        <ele>18.4023</ele>
        <time>2013-05-18T18:42:18Z</time>
      </trkpt>
      <trkpt lat="59.9263726" lon="17.6412699">
        <ele>18.4023</ele>
        <time>2013-05-18T18:42:19Z</time>
      </trkpt>
      <trkpt lat="59.9264478" lon="17.6412602">
        <ele>18.8831</ele>
        <time>2013-05-18T18:42:20Z</time>
      </trkpt>
      <trkpt lat="59.9265228" lon="17.6412505">
        <ele>18.8831</ele>
        <time>2013-05-18T18:42:21Z</time>
      </trkpt>
      <trkpt lat="59.9265969" lon="17.6412401">
        <ele>19.3638</ele>
        <time>2013-05-18T18:42:22Z</time>
      </trkpt>
      <trkpt lat="59.9266698" lon="17.6412297">
        <ele>19.3638</ele>
        <time>2013-05-18T18:42:23Z</time>
      </trkpt>
      <trkpt lat="59.9267419" lon="17.6412207">
        <ele>19.3638</ele>
        <time>2013-05-18T18:42:24Z</time>
      </trkpt>
      <trkpt lat="59.9268139" lon="17.6412137">
        <ele>19.8444</ele>
        <time>2013-05-18T18:42:25Z</time>
      </trkpt>
      <trkpt lat="59.9268859" lon="17.6412075">
        <ele>19.8444</ele>
        <time>2013-05-18T18:42:26Z</time>
      </trkpt>
      <trkpt lat="59.9269584" lon="17.6411992">
        <ele>19.8444</ele>
        <time>2013-05-18T18:42:27Z</time>
      </trkpt>
      <trkpt lat="59.9270308" lon="17.6411898">
        <ele>19.8444</ele>
        <time>2013-05-18T18:42:28Z</time>
      </trkpt>
      <trkpt lat="59.927103" lon="17.6411829">
        <ele>20.325</ele>
        <time>2013-05-18T18:42:29Z</time>
      </trkpt>
      <trkpt lat="59.9271754" lon="17.6411791">
        <ele>20.325</ele>
        <time>2013-05-18T18:42:30Z</time>
      </trkpt>
      <trkpt lat="59.9272475" lon="17.6411758">
        <ele>20.325</ele>
        <time>2013-05-18T18:42:31Z</time>
      </trkpt>
      <trkpt lat="59.9273199" lon="17.6411707">
        <ele>20.325</ele>
        <time>2013-05-18T18:42:32Z</time>
      </trkpt>
      <trkpt lat="59.9273924" lon="17.641164">
        <ele>20.325</ele>
        <time>2013-05-18T18:42:33Z</time>
      </trkpt>
      <trkpt lat="59.9274649" lon="17.6411575">
        <ele>20.325</ele>
        <time>2013-05-18T18:42:34Z</time>
      </trkpt>
      <trkpt lat="59.9275376" lon="17.6411509">
        <ele>20.325</ele>
        <time>2013-05-18T18:42:35Z</time>
      </trkpt>
      <trkpt lat="59.9276101" lon="17.6411443">
        <ele>20.325</ele>
        <time>2013-05-18T18:42:36Z</time>
      </trkpt>
      <trkpt lat="59.9276821" lon="17.6411386">
        <ele>20.8057</ele>
        <time>2013-05-18T18:42:37Z</time>
      </trkpt>
      <trkpt lat="59.9277542" lon="17.6411312">
        <ele>20.8057</ele>
        <time>2013-05-18T18:42:38Z</time>
      </trkpt>
      <trkpt lat="59.9278261" lon="17.6411235">
        <ele>20.8057</ele>
        <time>2013-05-18T18:42:39Z</time>
      </trkpt>
      <trkpt lat="59.9278972" lon="17.6411179">
        <ele>20.8057</ele>
        <time>2013-05-18T18:42:40Z</time>
      </trkpt>
      <trkpt lat="59.9279684" lon="17.6411116">
        <ele>20.8057</ele>
        <time>2013-05-18T18:42:41Z</time>
      </trkpt>
      <trkpt lat="59.9280385" lon="17.6411053">
        <ele>21.2864</ele>
        <time>2013-05-18T18:42:42Z</time>
      </trkpt>
      <trkpt lat="59.9281082" lon="17.6410997">
        <ele>21.2864</ele>
        <time>2013-05-18T18:42:43Z</time>
      </trkpt>
      <trkpt lat="59.9281764" lon="17.6410943">
        <ele>21.2864</ele>
        <time>2013-05-18T18:42:44Z</time>
      </trkpt>
      <trkpt lat="59.928244" lon="17.6410867">
        <ele>21.2864</ele>
        <time>2013-05-18T18:42:45Z</time>
      </trkpt>
      <trkpt lat="59.9283108" lon="17.6410776">
        <ele>21.2864</ele>
        <time>2013-05-18T18:42:46Z</time>
      </trkpt>
      <trkpt lat="59.9283766" lon="17.6410695">
        <ele>21.767</ele>
        <time>2013-05-18T18:42:47Z</time>
      </trkpt>
      <trkpt lat="59.9284409" lon="17.6410615">
        <ele>21.2864</ele>
        <time>2013-05-18T18:42:48Z</time>
      </trkpt>
      <trkpt lat="59.9285037" lon="17.6410526">
        <ele>21.2864</ele>
        <time>2013-05-18T18:42:49Z</time>
      </trkpt>
      <trkpt lat="59.9285648" lon="17.6410438">
        <ele>21.2864</ele>
        <time>2013-05-18T18:42:50Z</time>
      </trkpt>
      <trkpt lat="59.9286252" lon="17.6410341">
        <ele>21.2864</ele>
        <time>2013-05-18T18:42:51Z</time>
      </trkpt>
      <trkpt lat="59.9286854" lon="17.6410227">
        <ele>21.2864</ele>
        <time>2013-05-18T18:42:52Z</time>
      </trkpt>
      <trkpt lat="59.928745" lon="17.6410106">
        <ele>21.2864</ele>
        <time>2013-05-18T18:42:53Z</time>
      </trkpt>
      <trkpt lat="59.9288054" lon="17.640998">
        <ele>21.2864</ele>
        <time>2013-05-18T18:42:54Z</time>
      </trkpt>
      <trkpt lat="59.9288671" lon="17.6409856">
        <ele>21.2864</ele>
        <time>2013-05-18T18:42:55Z</time>
      </trkpt>
      <trkpt lat="59.9289298" lon="17.6409732">
        <ele>21.2864</ele>
        <time>2013-05-18T18:42:56Z</time>
      </trkpt>
      <trkpt lat="59.9289931" lon="17.6409614">
        <ele>21.2864</ele>
        <time>2013-05-18T18:42:57Z</time>
      </trkpt>
      <trkpt lat="59.9290569" lon="17.6409531">
        <ele>21.2864</ele>
        <time>2013-05-18T18:42:58Z</time>
      </trkpt>
      <trkpt lat="59.9291209" lon="17.6409491">
        <ele>21.2864</ele>
        <time>2013-05-18T18:42:59Z</time>
      </trkpt>
      <trkpt lat="59.9291851" lon="17.640946">
        <ele>21.2864</ele>
        <time>2013-05-18T18:43:00Z</time>
      </trkpt>
      <trkpt lat="59.9292494" lon="17.6409433">
        <ele>21.2864</ele>
        <time>2013-05-18T18:43:01Z</time>
      </trkpt>
      <trkpt lat="59.9293133" lon="17.6409417">
        <ele>21.2864</ele>
        <time>2013-05-18T18:43:02Z</time>
      </trkpt>
      <trkpt lat="59.9293766" lon="17.6409386">
        <ele>21.2864</ele>
        <time>2013-05-18T18:43:03Z</time>
      </trkpt>
      <trkpt lat="59.9294395" lon="17.6409348">
        <ele>21.2864</ele>
        <time>2013-05-18T18:43:04Z</time>
      </trkpt>
      <trkpt lat="59.9295013" lon="17.6409288">
        <ele>21.2864</ele>
        <time>2013-05-18T18:43:05Z</time>
      </trkpt>
      <trkpt lat="59.9295629" lon="17.6409184">
        <ele>21.767</ele>
        <time>2013-05-18T18:43:06Z</time>
      </trkpt>
      <trkpt lat="59.9296241" lon="17.6409059">
        <ele>21.767</ele>
        <time>2013-05-18T18:43:07Z</time>
      </trkpt>
      <trkpt lat="59.9296845" lon="17.640894">
        <ele>21.767</ele>
        <time>2013-05-18T18:43:08Z</time>
      </trkpt>
      <trkpt lat="59.9297443" lon="17.6408827">
        <ele>21.2864</ele>
        <time>2013-05-18T18:43:09Z</time>
      </trkpt>
      <trkpt lat="59.9298032" lon="17.6408718">
        <ele>22.2476</ele>
        <time>2013-05-18T18:43:10Z</time>
      </trkpt>
      <trkpt lat="59.9298586" lon="17.6408638">
        <ele>22.7283</ele>
        <time>2013-05-18T18:43:11Z</time>
      </trkpt>
      <trkpt lat="59.9299164" lon="17.640861">
        <ele>22.7283</ele>
        <time>2013-05-18T18:43:12Z</time>
      </trkpt>
      <trkpt lat="59.9299778" lon="17.6408624">
        <ele>22.7283</ele>
        <time>2013-05-18T18:43:13Z</time>
      </trkpt>
      <trkpt lat="59.9300401" lon="17.6408649">
        <ele>23.209</ele>
        <time>2013-05-18T18:43:14Z</time>
      </trkpt>
      <trkpt lat="59.9301027" lon="17.6408678">
        <ele>23.209</ele>
        <time>2013-05-18T18:43:15Z</time>
      </trkpt>
      <trkpt lat="59.930166" lon="17.6408718">
        <ele>23.6896</ele>
        <time>2013-05-18T18:43:16Z</time>
      </trkpt>
      <trkpt lat="59.9302302" lon="17.6408753">
        <ele>24.651</ele>
        <time>2013-05-18T18:43:17Z</time>
      </trkpt>
      <trkpt lat="59.9302945" lon="17.6408773">
        <ele>25.1317</ele>
        <time>2013-05-18T18:43:18Z</time>
      </trkpt>
      <trkpt lat="59.9303592" lon="17.6408791">
        <ele>25.6123</ele>
        <time>2013-05-18T18:43:19Z</time>
      </trkpt>
      <trkpt lat="59.9304291" lon="17.6408734">
        <ele>27.0543</ele>
        <time>2013-05-18T18:43:20Z</time>
      </trkpt>
      <trkpt lat="59.930498" lon="17.6408666">
        <ele>28.0155</ele>
        <time>2013-05-18T18:43:21Z</time>
      </trkpt>
      <trkpt lat="59.9305652" lon="17.6408553">
        <ele>26.0929</ele>
        <time>2013-05-18T18:43:22Z</time>
      </trkpt>
      <trkpt lat="59.9306301" lon="17.6408371">
        <ele>24.651</ele>
        <time>2013-05-18T18:43:23Z</time>
      </trkpt>
      <trkpt lat="59.9306877" lon="17.6408243">
        <ele>23.6896</ele>
        <time>2013-05-18T18:43:24Z</time>
      </trkpt>
      <trkpt lat="59.9307419" lon="17.6408158">
        <ele>22.2476</ele>
        <time>2013-05-18T18:43:25Z</time>
      </trkpt>
      <trkpt lat="59.9307975" lon="17.6408144">
        <ele>21.2864</ele>
        <time>2013-05-18T18:43:26Z</time>
      </trkpt>
      <trkpt lat="59.9308599" lon="17.6408153">
        <ele>20.325</ele>
        <time>2013-05-18T18:43:27Z</time>
      </trkpt>
      <trkpt lat="59.9309197" lon="17.6408288">
        <ele>19.3638</ele>
        <time>2013-05-18T18:43:28Z</time>
      </trkpt>
      <trkpt lat="59.9309762" lon="17.6408563">
        <ele>18.8831</ele>
        <time>2013-05-18T18:43:29Z</time>
      </trkpt>
      <trkpt lat="59.9310325" lon="17.6408915">
        <ele>18.4023</ele>
        <time>2013-05-18T18:43:30Z</time>
      </trkpt>
      <trkpt lat="59.9310853" lon="17.6409361">
        <ele>18.8831</ele>
        <time>2013-05-18T18:43:31Z</time>
      </trkpt>
      <trkpt lat="59.9311351" lon="17.6409822">
        <ele>18.8831</ele>
        <time>2013-05-18T18:43:32Z</time>
      </trkpt>
      <trkpt lat="59.9311874" lon="17.6410255">
        <ele>18.8831</ele>
        <time>2013-05-18T18:43:33Z</time>
      </trkpt>
      <trkpt lat="59.9312401" lon="17.6410645">
        <ele>19.3638</ele>
        <time>2013-05-18T18:43:34Z</time>
      </trkpt>
      <trkpt lat="59.931288" lon="17.6411092">
        <ele>19.8444</ele>
        <time>2013-05-18T18:43:35Z</time>
      </trkpt>
      <trkpt lat="59.9313392" lon="17.6411448">
        <ele>19.8444</ele>
        <time>2013-05-18T18:43:36Z</time>
      </trkpt>
      <trkpt lat="59.9313818" lon="17.641181">
        <ele>20.325</ele>
        <time>2013-05-18T18:43:37Z</time>
      </trkpt>
      <trkpt lat="59.9314227" lon="17.6412167">
        <ele>20.325</ele>
        <time>2013-05-18T18:43:38Z</time>
      </trkpt>
      <trkpt lat="59.9314657" lon="17.6412524">
        <ele>20.8057</ele>
        <time>2013-05-18T18:43:39Z</time>
      </trkpt>
      <trkpt lat="59.9315112" lon="17.6412909">
        <ele>20.8057</ele>
        <time>2013-05-18T18:43:40Z</time>
      </trkpt>
      <trkpt lat="59.9315595" lon="17.6413324">
        <ele>21.2864</ele>
        <time>2013-05-18T18:43:41Z</time>
      </trkpt>
      <trkpt lat="59.9316105" lon="17.6413742">
        <ele>21.767</ele>
        <time>2013-05-18T18:43:42Z</time>
      </trkpt>
      <trkpt lat="59.9316605" lon="17.6414131">
        <ele>21.2864</ele>
        <time>2013-05-18T18:43:43Z</time>
      </trkpt>
      <trkpt lat="59.931712" lon="17.6414476">
        <ele>21.2864</ele>
        <time>2013-05-18T18:43:44Z</time>
      </trkpt>
      <trkpt lat="59.931764" lon="17.641481">
        <ele>21.2864</ele>
        <time>2013-05-18T18:43:45Z</time>
      </trkpt>
      <trkpt lat="59.9318174" lon="17.6415157">
        <ele>20.8057</ele>
        <time>2013-05-18T18:43:46Z</time>
      </trkpt>
      <trkpt lat="59.9318696" lon="17.6415503">
        <ele>20.8057</ele>
        <time>2013-05-18T18:43:47Z</time>
      </trkpt>
      <trkpt lat="59.9319185" lon="17.6415836">
        <ele>20.8057</ele>
        <time>2013-05-18T18:43:48Z</time>
      </trkpt>
      <trkpt lat="59.9319646" lon="17.6416141">
        <ele>20.325</ele>
        <time>2013-05-18T18:43:49Z</time>
      </trkpt>
      <trkpt lat="59.9320083" lon="17.6416431">
        <ele>20.325</ele>
        <time>2013-05-18T18:43:50Z</time>
      </trkpt>
      <trkpt lat="59.9320452" lon="17.6416761">
        <ele>20.325</ele>
        <time>2013-05-18T18:43:51Z</time>
      </trkpt>
      <trkpt lat="59.9320786" lon="17.6417144">
        <ele>19.8444</ele>
        <time>2013-05-18T18:43:52Z</time>
      </trkpt>
      <trkpt lat="59.9321168" lon="17.6417564">
        <ele>19.8444</ele>
        <time>2013-05-18T18:43:53Z</time>
      </trkpt>
      <trkpt lat="59.9321577" lon="17.6417984">
        <ele>19.8444</ele>
        <time>2013-05-18T18:43:54Z</time>
      </trkpt>
      <trkpt lat="59.9322021" lon="17.6418426">
        <ele>19.8444</ele>
        <time>2013-05-18T18:43:55Z</time>
      </trkpt>
      <trkpt lat="59.9322493" lon="17.6418879">
        <ele>19.8444</ele>
        <time>2013-05-18T18:43:56Z</time>
      </trkpt>
      <trkpt lat="59.9322981" lon="17.6419333">
        <ele>19.8444</ele>
        <time>2013-05-18T18:43:57Z</time>
      </trkpt>
      <trkpt lat="59.9323483" lon="17.6419793">
        <ele>19.8444</ele>
        <time>2013-05-18T18:43:58Z</time>
      </trkpt>
      <trkpt lat="59.9323995" lon="17.6420244">
        <ele>19.8444</ele>
        <time>2013-05-18T18:43:59Z</time>
      </trkpt>
      <trkpt lat="59.9324512" lon="17.6420721">
        <ele>19.8444</ele>
        <time>2013-05-18T18:44:00Z</time>
      </trkpt>
      <trkpt lat="59.9325027" lon="17.6421233">
        <ele>19.8444</ele>
        <time>2013-05-18T18:44:01Z</time>
      </trkpt>
      <trkpt lat="59.9325531" lon="17.6421767">
        <ele>20.325</ele>
        <time>2013-05-18T18:44:02Z</time>
      </trkpt>
      <trkpt lat="59.9326016" lon="17.6422312">
        <ele>20.325</ele>
        <time>2013-05-18T18:44:03Z</time>
      </trkpt>
      <trkpt lat="59.9326488" lon="17.642287">
        <ele>20.325</ele>
        <time>2013-05-18T18:44:04Z</time>
      </trkpt>
      <trkpt lat="59.9326941" lon="17.6423472">
        <ele>20.8057</ele>
        <time>2013-05-18T18:44:05Z</time>
      </trkpt>
      <trkpt lat="59.9327378" lon="17.6424159">
        <ele>21.2864</ele>
        <time>2013-05-18T18:44:06Z</time>
      </trkpt>
      <trkpt lat="59.9327758" lon="17.6424874">
        <ele>21.2864</ele>
        <time>2013-05-18T18:44:07Z</time>
      </trkpt>
      <trkpt lat="59.9328021" lon="17.6425578">
        <ele>20.8057</ele>
        <time>2013-05-18T18:44:08Z</time>
      </trkpt>
      <trkpt lat="59.9328293" lon="17.6426273">
        <ele>19.3638</ele>
        <time>2013-05-18T18:44:09Z</time>
      </trkpt>
      <trkpt lat="59.9328631" lon="17.6426912">
        <ele>17.9218</ele>
        <time>2013-05-18T18:44:10Z</time>
      </trkpt>
      <trkpt lat="59.932906" lon="17.6427518">
        <ele>17.9218</ele>
        <time>2013-05-18T18:44:11Z</time>
      </trkpt>
      <trkpt lat="59.9329498" lon="17.6428128">
        <ele>16.4797</ele>
        <time>2013-05-18T18:44:12Z</time>
      </trkpt>
      <trkpt lat="59.9329988" lon="17.6428661">
        <ele>16.9604</ele>
        <time>2013-05-18T18:44:13Z</time>
      </trkpt>
      <trkpt lat="59.9330462" lon="17.6429214">
        <ele>17.9218</ele>
        <time>2013-05-18T18:44:14Z</time>
      </trkpt>
      <trkpt lat="59.9330943" lon="17.6429786">
        <ele>18.8831</ele>
        <time>2013-05-18T18:44:15Z</time>
      </trkpt>
      <trkpt lat="59.9331467" lon="17.6430375">
        <ele>19.8444</ele>
        <time>2013-05-18T18:44:16Z</time>
      </trkpt>
      <trkpt lat="59.933189" lon="17.6430977">
        <ele>19.8444</ele>
        <time>2013-05-18T18:44:17Z</time>
      </trkpt>
      <trkpt lat="59.9332244" lon="17.6431612">
        <ele>20.325</ele>
        <time>2013-05-18T18:44:18Z</time>
      </trkpt>
      <trkpt lat="59.9332547" lon="17.6432237">
        <ele>20.325</ele>
        <time>2013-05-18T18:44:19Z</time>
      </trkpt>
      <trkpt lat="59.9332838" lon="17.6432889">
        <ele>20.325</ele>
        <time>2013-05-18T18:44:20Z</time>
      </trkpt>
      <trkpt lat="59.9333227" lon="17.6433441">
        <ele>20.8057</ele>
        <time>2013-05-18T18:44:21Z</time>
      </trkpt>
      <trkpt lat="59.9333595" lon="17.643393">
        <ele>21.2864</ele>
        <time>2013-05-18T18:44:22Z</time>
      </trkpt>
      <trkpt lat="59.9333932" lon="17.6434357">
        <ele>21.767</ele>
        <time>2013-05-18T18:44:23Z</time>
      </trkpt>
      <trkpt lat="59.9334284" lon="17.6434758">
        <ele>21.767</ele>
        <time>2013-05-18T18:44:24Z</time>
      </trkpt>
      <trkpt lat="59.9334595" lon="17.6435137">
        <ele>19.8444</ele>
        <time>2013-05-18T18:44:25Z</time>
      </trkpt>
      <trkpt lat="59.9334963" lon="17.6435511">
        <ele>19.3638</ele>
        <time>2013-05-18T18:44:26Z</time>
      </trkpt>
      <trkpt lat="59.933533" lon="17.6435883">
        <ele>19.3638</ele>
        <time>2013-05-18T18:44:27Z</time>
      </trkpt>
      <trkpt lat="59.9335676" lon="17.6436224">
        <ele>19.8444</ele>
        <time>2013-05-18T18:44:28Z</time>
      </trkpt>
      <trkpt lat="59.9336017" lon="17.643654">
        <ele>19.8444</ele>
        <time>2013-05-18T18:44:29Z</time>
      </trkpt>
      <trkpt lat="59.9336381" lon="17.6436908">
        <ele>20.325</ele>
        <time>2013-05-18T18:44:30Z</time>
      </trkpt>
      <trkpt lat="59.9336791" lon="17.643731">
        <ele>21.2864</ele>
        <time>2013-05-18T18:44:31Z</time>
      </trkpt>
      <trkpt lat="59.9337191" lon="17.6437706">
        <ele>22.2476</ele>
        <time>2013-05-18T18:44:32Z</time>
      </trkpt>
      <trkpt lat="59.9337605" lon="17.6438061">
        <ele>23.209</ele>
        <time>2013-05-18T18:44:33Z</time>
      </trkpt>
      <trkpt lat="59.9338056" lon="17.643844">
        <ele>24.1703</ele>
        <time>2013-05-18T18:44:34Z</time>
      </trkpt>
      <trkpt lat="59.9338501" lon="17.6438773">
        <ele>24.1703</ele>
        <time>2013-05-18T18:44:35Z</time>
      </trkpt>
      <trkpt lat="59.9338939" lon="17.6439191">
        <ele>25.1317</ele>
        <time>2013-05-18T18:44:36Z</time>
      </trkpt>
      <trkpt lat="59.9339376" lon="17.6439638">
        <ele>25.6123</ele>
        <time>2013-05-18T18:44:37Z</time>
      </trkpt>
      <trkpt lat="59.9339804" lon="17.6440104">
        <ele>25.6123</ele>
        <time>2013-05-18T18:44:38Z</time>
      </trkpt>
      <trkpt lat="59.9340244" lon="17.6440601">
        <ele>27.0543</ele>
        <time>2013-05-18T18:44:39Z</time>
      </trkpt>
      <trkpt lat="59.9340666" lon="17.6441107">
        <ele>27.5349</ele>
        <time>2013-05-18T18:44:40Z</time>
      </trkpt>
      <trkpt lat="59.9341084" lon="17.6441622">
        <ele>27.5349</ele>
        <time>2013-05-18T18:44:41Z</time>
      </trkpt>
      <trkpt lat="59.9341498" lon="17.6442138">
        <ele>28.0155</ele>
        <time>2013-05-18T18:44:42Z</time>
      </trkpt>
      <trkpt lat="59.9341898" lon="17.6442674">
        <ele>28.0155</ele>
        <time>2013-05-18T18:44:43Z</time>
      </trkpt>
      <trkpt lat="59.9342327" lon="17.6443242">
        <ele>28.0155</ele>
        <time>2013-05-18T18:44:44Z</time>
      </trkpt>
      <trkpt lat="59.9342785" lon="17.6443855">
        <ele>29.4575</ele>
        <time>2013-05-18T18:44:45Z</time>
      </trkpt>
      <trkpt lat="59.9343199" lon="17.6444512">
        <ele>28.9769</ele>
        <time>2013-05-18T18:44:46Z</time>
      </trkpt>
      <trkpt lat="59.9343633" lon="17.6445119">
        <ele>28.9769</ele>
        <time>2013-05-18T18:44:47Z</time>
      </trkpt>
      <trkpt lat="59.9344017" lon="17.6445745">
        <ele>29.4575</ele>
        <time>2013-05-18T18:44:48Z</time>
      </trkpt>
      <trkpt lat="59.9344333" lon="17.6446384">
        <ele>29.4575</ele>
        <time>2013-05-18T18:44:49Z</time>
      </trkpt>
      <trkpt lat="59.9344502" lon="17.6447104">
        <ele>28.4962</ele>
        <time>2013-05-18T18:44:50Z</time>
      </trkpt>
      <trkpt lat="59.9344639" lon="17.644788">
        <ele>27.0543</ele>
        <time>2013-05-18T18:44:51Z</time>
      </trkpt>
      <trkpt lat="59.9344844" lon="17.6448709">
        <ele>26.0929</ele>
        <time>2013-05-18T18:44:52Z</time>
      </trkpt>
      <trkpt lat="59.9345061" lon="17.6449377">
        <ele>26.0929</ele>
        <time>2013-05-18T18:44:53Z</time>
      </trkpt>
      <trkpt lat="59.93453" lon="17.6450141">
        <ele>25.6123</ele>
        <time>2013-05-18T18:44:54Z</time>
      </trkpt>
      <trkpt lat="59.9345545" lon="17.6450771">
        <ele>25.1317</ele>
        <time>2013-05-18T18:44:55Z</time>
      </trkpt>
      <trkpt lat="59.9345795" lon="17.6451423">
        <ele>25.1317</ele>
        <time>2013-05-18T18:44:56Z</time>
      </trkpt>
      <trkpt lat="59.9346154" lon="17.6451918">
        <ele>25.6123</ele>
        <time>2013-05-18T18:44:57Z</time>
      </trkpt>
      <trkpt lat="59.9346545" lon="17.6452343">
        <ele>25.6123</ele>
        <time>2013-05-18T18:44:58Z</time>
      </trkpt>
      <trkpt lat="59.9346855" lon="17.6452939">
        <ele>26.0929</ele>
        <time>2013-05-18T18:44:59Z</time>
      </trkpt>
      <trkpt lat="59.9347211" lon="17.6453365">
        <ele>27.0543</ele>
        <time>2013-05-18T18:45:00Z</time>
      </trkpt>
      <trkpt lat="59.9347519" lon="17.6453853">
        <ele>28.4962</ele>
        <time>2013-05-18T18:45:01Z</time>
      </trkpt>
      <trkpt lat="59.934781" lon="17.6454394">
        <ele>28.4962</ele>
        <time>2013-05-18T18:45:02Z</time>
      </trkpt>
      <trkpt lat="59.9348113" lon="17.645494">
        <ele>28.4962</ele>
        <time>2013-05-18T18:45:03Z</time>
      </trkpt>
      <trkpt lat="59.9348379" lon="17.6455387">
        <ele>28.0155</ele>
        <time>2013-05-18T18:45:04Z</time>
      </trkpt>
      <trkpt lat="59.9348741" lon="17.645581">
        <ele>28.0155</ele>
        <time>2013-05-18T18:45:05Z</time>
      </trkpt>
      <trkpt lat="59.9349149" lon="17.6456173">
        <ele>27.5349</ele>
        <time>2013-05-18T18:45:06Z</time>
      </trkpt>
      <trkpt lat="59.9349502" lon="17.645665">
        <ele>27.0543</ele>
        <time>2013-05-18T18:45:07Z</time>
      </trkpt>
      <trkpt lat="59.9349964" lon="17.6457115">
        <ele>26.0929</ele>
        <time>2013-05-18T18:45:08Z</time>
      </trkpt>
      <trkpt lat="59.9350385" lon="17.6457633">
        <ele>25.1317</ele>
        <time>2013-05-18T18:45:09Z</time>
      </trkpt>
      <trkpt lat="59.9350823" lon="17.6458188">
        <ele>24.1703</ele>
        <time>2013-05-18T18:45:10Z</time>
      </trkpt>
      <trkpt lat="59.9351306" lon="17.6458716">
        <ele>23.6896</ele>
        <time>2013-05-18T18:45:11Z</time>
      </trkpt>
      <trkpt lat="59.9351767" lon="17.645924">
        <ele>23.209</ele>
        <time>2013-05-18T18:45:12Z</time>
      </trkpt>
      <trkpt lat="59.9352231" lon="17.6459846">
        <ele>22.7283</ele>
        <time>2013-05-18T18:45:13Z</time>
      </trkpt>
      <trkpt lat="59.9352704" lon="17.6460441">
        <ele>22.2476</ele>
        <time>2013-05-18T18:45:14Z</time>
      </trkpt>
      <trkpt lat="59.9353161" lon="17.6461011">
        <ele>20.8057</ele>
        <time>2013-05-18T18:45:15Z</time>
      </trkpt>
      <trkpt lat="59.9353593" lon="17.6461589">
        <ele>20.325</ele>
        <time>2013-05-18T18:45:16Z</time>
      </trkpt>
      <trkpt lat="59.9354031" lon="17.6462248">
        <ele>19.3638</ele>
        <time>2013-05-18T18:45:17Z</time>
      </trkpt>
      <trkpt lat="59.9354559" lon="17.6462855">
        <ele>20.8057</ele>
        <time>2013-05-18T18:45:18Z</time>
      </trkpt>
      <trkpt lat="59.9355098" lon="17.6463435">
        <ele>22.2476</ele>
        <time>2013-05-18T18:45:19Z</time>
      </trkpt>
      <trkpt lat="59.935556" lon="17.646415">
        <ele>22.2476</ele>
        <time>2013-05-18T18:45:20Z</time>
      </trkpt>
      <trkpt lat="59.9356039" lon="17.6464766">
        <ele>22.2476</ele>
        <time>2013-05-18T18:45:21Z</time>
      </trkpt>
      <trkpt lat="59.9356609" lon="17.6465392">
        <ele>22.7283</ele>
        <time>2013-05-18T18:45:22Z</time>
      </trkpt>
      <trkpt lat="59.9357084" lon="17.6466071">
        <ele>22.2476</ele>
        <time>2013-05-18T18:45:23Z</time>
      </trkpt>
      <trkpt lat="59.9357599" lon="17.6466733">
        <ele>22.2476</ele>
        <time>2013-05-18T18:45:24Z</time>
      </trkpt>
      <trkpt lat="59.935818" lon="17.6467348">
        <ele>23.209</ele>
        <time>2013-05-18T18:45:25Z</time>
      </trkpt>
      <trkpt lat="59.9358738" lon="17.6467951">
        <ele>24.1703</ele>
        <time>2013-05-18T18:45:26Z</time>
      </trkpt>
      <trkpt lat="59.9359257" lon="17.6468564">
        <ele>23.6896</ele>
        <time>2013-05-18T18:45:27Z</time>
      </trkpt>
      <trkpt lat="59.9359814" lon="17.646923">
        <ele>25.1317</ele>
        <time>2013-05-18T18:45:28Z</time>
      </trkpt>
      <trkpt lat="59.9360296" lon="17.6469988">
        <ele>25.1317</ele>
        <time>2013-05-18T18:45:29Z</time>
      </trkpt>
      <trkpt lat="59.936075" lon="17.6470687">
        <ele>25.6123</ele>
        <time>2013-05-18T18:45:30Z</time>
      </trkpt>
      <trkpt lat="59.9361283" lon="17.6471356">
        <ele>25.6123</ele>
        <time>2013-05-18T18:45:31Z</time>
      </trkpt>
      <trkpt lat="59.9361832" lon="17.647197">
        <ele>25.1317</ele>
        <time>2013-05-18T18:45:32Z</time>
      </trkpt>
      <trkpt lat="59.9362375" lon="17.6472646">
        <ele>25.1317</ele>
        <time>2013-05-18T18:45:33Z</time>
      </trkpt>
      <trkpt lat="59.9362923" lon="17.647333">
        <ele>24.651</ele>
        <time>2013-05-18T18:45:34Z</time>
      </trkpt>
      <trkpt lat="59.9363421" lon="17.6474018">
        <ele>24.1703</ele>
        <time>2013-05-18T18:45:35Z</time>
      </trkpt>
      <trkpt lat="59.9363965" lon="17.6474614">
        <ele>23.6896</ele>
        <time>2013-05-18T18:45:36Z</time>
      </trkpt>
      <trkpt lat="59.9364505" lon="17.6475288">
        <ele>22.7283</ele>
        <time>2013-05-18T18:45:37Z</time>
      </trkpt>
      <trkpt lat="59.9365058" lon="17.6475955">
        <ele>22.7283</ele>
        <time>2013-05-18T18:45:38Z</time>
      </trkpt>
      <trkpt lat="59.9365572" lon="17.6476707">
        <ele>22.2476</ele>
        <time>2013-05-18T18:45:39Z</time>
      </trkpt>
      <trkpt lat="59.9366136" lon="17.6477334">
        <ele>22.2476</ele>
        <time>2013-05-18T18:45:40Z</time>
      </trkpt>
      <trkpt lat="59.936668" lon="17.6478016">
        <ele>22.2476</ele>
        <time>2013-05-18T18:45:41Z</time>
      </trkpt>
      <trkpt lat="59.9367241" lon="17.6478675">
        <ele>23.209</ele>
        <time>2013-05-18T18:45:42Z</time>
      </trkpt>
      <trkpt lat="59.9367805" lon="17.647935">
        <ele>23.209</ele>
        <time>2013-05-18T18:45:43Z</time>
      </trkpt>
      <trkpt lat="59.9368364" lon="17.6480119">
        <ele>23.209</ele>
        <time>2013-05-18T18:45:44Z</time>
      </trkpt>
      <trkpt lat="59.936897" lon="17.6480839">
        <ele>23.6896</ele>
        <time>2013-05-18T18:45:45Z</time>
      </trkpt>
      <trkpt lat="59.9369576" lon="17.64814">
        <ele>23.209</ele>
        <time>2013-05-18T18:45:46Z</time>
      </trkpt>
      <trkpt lat="59.937012" lon="17.6481987">
        <ele>22.7283</ele>
        <time>2013-05-18T18:45:47Z</time>
      </trkpt>
      <trkpt lat="59.9370673" lon="17.648268">
        <ele>22.2476</ele>
        <time>2013-05-18T18:45:48Z</time>
      </trkpt>
      <trkpt lat="59.9371208" lon="17.6483421">
        <ele>22.2476</ele>
        <time>2013-05-18T18:45:49Z</time>
      </trkpt>
      <trkpt lat="59.9371721" lon="17.6484278">
        <ele>21.2864</ele>
        <time>2013-05-18T18:45:50Z</time>
      </trkpt>
      <trkpt lat="59.9372258" lon="17.6485103">
        <ele>21.2864</ele>
        <time>2013-05-18T18:45:51Z</time>
      </trkpt>
      <trkpt lat="59.9372811" lon="17.6485903">
        <ele>21.2864</ele>
        <time>2013-05-18T18:45:52Z</time>
      </trkpt>
      <trkpt lat="59.9373321" lon="17.6486794">
        <ele>20.8057</ele>
        <time>2013-05-18T18:45:53Z</time>
      </trkpt>
      <trkpt lat="59.9373844" lon="17.6487663">
        <ele>20.8057</ele>
        <time>2013-05-18T18:45:54Z</time>
      </trkpt>
      <trkpt lat="59.937437" lon="17.6488461">
        <ele>20.325</ele>
        <time>2013-05-18T18:45:55Z</time>
      </trkpt>
      <trkpt lat="59.9374858" lon="17.6489345">
        <ele>19.3638</ele>
        <time>2013-05-18T18:45:56Z</time>
      </trkpt>
      <trkpt lat="59.9375308" lon="17.6490206">
        <ele>18.4023</ele>
        <time>2013-05-18T18:45:57Z</time>
      </trkpt>
      <trkpt lat="59.9375812" lon="17.6491164">
        <ele>18.4023</ele>
        <time>2013-05-18T18:45:58Z</time>
      </trkpt>
      <trkpt lat="59.9376334" lon="17.6492097">
        <ele>17.9218</ele>
        <time>2013-05-18T18:45:59Z</time>
      </trkpt>
      <trkpt lat="59.9376818" lon="17.6493059">
        <ele>17.9218</ele>
        <time>2013-05-18T18:46:00Z</time>
      </trkpt>
      <trkpt lat="59.9377361" lon="17.6494006">
        <ele>17.9218</ele>
        <time>2013-05-18T18:46:01Z</time>
      </trkpt>
      <trkpt lat="59.9377745" lon="17.6495189">
        <ele>17.9218</ele>
        <time>2013-05-18T18:46:02Z</time>
      </trkpt>
      <trkpt lat="59.9378136" lon="17.6496459">
        <ele>17.9218</ele>
        <time>2013-05-18T18:46:03Z</time>
      </trkpt>
      <trkpt lat="59.9378584" lon="17.6497613">
        <ele>18.4023</ele>
        <time>2013-05-18T18:46:04Z</time>
      </trkpt>
      <trkpt lat="59.9379031" lon="17.6498722">
        <ele>17.9218</ele>
        <time>2013-05-18T18:46:05Z</time>
      </trkpt>
      <trkpt lat="59.9379535" lon="17.649987">
        <ele>18.4023</ele>
        <time>2013-05-18T18:46:06Z</time>
      </trkpt>
      <trkpt lat="59.9379962" lon="17.6500958">
        <ele>18.4023</ele>
        <time>2013-05-18T18:46:07Z</time>
      </trkpt>
      <trkpt lat="59.9380357" lon="17.6502032">
        <ele>18.4023</ele>
        <time>2013-05-18T18:46:08Z</time>
      </trkpt>
      <trkpt lat="59.9380754" lon="17.6503162">
        <ele>18.4023</ele>
        <time>2013-05-18T18:46:09Z</time>
      </trkpt>
      <trkpt lat="59.9381205" lon="17.6504351">
        <ele>18.4023</ele>
        <time>2013-05-18T18:46:10Z</time>
      </trkpt>
      <trkpt lat="59.9381604" lon="17.6505482">
        <ele>18.4023</ele>
        <time>2013-05-18T18:46:11Z</time>
      </trkpt>
      <trkpt lat="59.9382017" lon="17.6506606">
        <ele>18.8831</ele>
        <time>2013-05-18T18:46:12Z</time>
      </trkpt>
      <trkpt lat="59.9382449" lon="17.6507731">
        <ele>18.8831</ele>
        <time>2013-05-18T18:46:13Z</time>
      </trkpt>
      <trkpt lat="59.9382893" lon="17.6508803">
        <ele>19.3638</ele>
        <time>2013-05-18T18:46:14Z</time>
      </trkpt>
      <trkpt lat="59.9383427" lon="17.650983">
        <ele>19.8444</ele>
        <time>2013-05-18T18:46:15Z</time>
      </trkpt>
      <trkpt lat="59.938392" lon="17.6510833">
        <ele>19.3638</ele>
        <time>2013-05-18T18:46:16Z</time>
      </trkpt>
      <trkpt lat="59.9384368" lon="17.6511911">
        <ele>18.8831</ele>
        <time>2013-05-18T18:46:17Z</time>
      </trkpt>
      <trkpt lat="59.9384774" lon="17.6513055">
        <ele>18.8831</ele>
        <time>2013-05-18T18:46:18Z</time>
      </trkpt>
      <trkpt lat="59.9385183" lon="17.6514237">
        <ele>19.8444</ele>
        <time>2013-05-18T18:46:19Z</time>
      </trkpt>
      <trkpt lat="59.9385551" lon="17.6515452">
        <ele>19.8444</ele>
        <time>2013-05-18T18:46:20Z</time>
      </trkpt>
      <trkpt lat="59.9385934" lon="17.6516655">
        <ele>20.325</ele>
        <time>2013-05-18T18:46:21Z</time>
      </trkpt>
      <trkpt lat="59.9386308" lon="17.6517868">
        <ele>20.8057</ele>
        <time>2013-05-18T18:46:22Z</time>
      </trkpt>
      <trkpt lat="59.9386717" lon="17.651912">
        <ele>21.767</ele>
        <time>2013-05-18T18:46:23Z</time>
      </trkpt>
      <trkpt lat="59.9387063" lon="17.6520321">
        <ele>21.767</ele>
        <time>2013-05-18T18:46:24Z</time>
      </trkpt>
      <trkpt lat="59.9387421" lon="17.6521549">
        <ele>21.767</ele>
        <time>2013-05-18T18:46:25Z</time>
      </trkpt>
      <trkpt lat="59.9387783" lon="17.6522773">
        <ele>22.2476</ele>
        <time>2013-05-18T18:46:26Z</time>
      </trkpt>
      <trkpt lat="59.9388051" lon="17.6523933">
        <ele>22.2476</ele>
        <time>2013-05-18T18:46:27Z</time>
      </trkpt>
      <trkpt lat="59.9388338" lon="17.6525106">
        <ele>22.2476</ele>
        <time>2013-05-18T18:46:28Z</time>
      </trkpt>
      <trkpt lat="59.9388717" lon="17.6526336">
        <ele>22.2476</ele>
        <time>2013-05-18T18:46:29Z</time>
      </trkpt>
      <trkpt lat="59.9389063" lon="17.6527532">
        <ele>22.2476</ele>
        <time>2013-05-18T18:46:30Z</time>
      </trkpt>
      <trkpt lat="59.9389368" lon="17.6528718">
        <ele>22.2476</ele>
        <time>2013-05-18T18:46:31Z</time>
      </trkpt>
      <trkpt lat="59.9389669" lon="17.652992">
        <ele>22.7283</ele>
        <time>2013-05-18T18:46:32Z</time>
      </trkpt>
      <trkpt lat="59.9389985" lon="17.6531073">
        <ele>25.1317</ele>
        <time>2013-05-18T18:46:33Z</time>
      </trkpt>
      <trkpt lat="59.9390259" lon="17.6532196">
        <ele>26.0929</ele>
        <time>2013-05-18T18:46:34Z</time>
      </trkpt>
      <trkpt lat="59.9390553" lon="17.6533339">
        <ele>27.0543</ele>
        <time>2013-05-18T18:46:35Z</time>
      </trkpt>
      <trkpt lat="59.9390843" lon="17.6534459">
        <ele>28.4962</ele>
        <time>2013-05-18T18:46:36Z</time>
      </trkpt>
      <trkpt lat="59.9391138" lon="17.6535616">
        <ele>28.4962</ele>
        <time>2013-05-18T18:46:37Z</time>
      </trkpt>
      <trkpt lat="59.9391436" lon="17.6536758">
        <ele>30.4188</ele>
        <time>2013-05-18T18:46:38Z</time>
      </trkpt>
      <trkpt lat="59.9391698" lon="17.653792">
        <ele>30.4188</ele>
        <time>2013-05-18T18:46:39Z</time>
      </trkpt>
      <trkpt lat="59.9391975" lon="17.6539101">
        <ele>30.8995</ele>
        <time>2013-05-18T18:46:40Z</time>
      </trkpt>
      <trkpt lat="59.9392222" lon="17.654025">
        <ele>30.8995</ele>
        <time>2013-05-18T18:46:41Z</time>
      </trkpt>
      <trkpt lat="59.9392467" lon="17.6541412">
        <ele>30.8995</ele>
        <time>2013-05-18T18:46:42Z</time>
      </trkpt>
      <trkpt lat="59.9392711" lon="17.6542572">
        <ele>30.8995</ele>
        <time>2013-05-18T18:46:43Z</time>
      </trkpt>
      <trkpt lat="59.9392918" lon="17.6543675">
        <ele>32.3416</ele>
        <time>2013-05-18T18:46:44Z</time>
      </trkpt>
      <trkpt lat="59.9393122" lon="17.654479">
        <ele>33.3029</ele>
        <time>2013-05-18T18:46:45Z</time>
      </trkpt>
      <trkpt lat="59.9393317" lon="17.6545912">
        <ele>33.3029</ele>
        <time>2013-05-18T18:46:46Z</time>
      </trkpt>
      <trkpt lat="59.9393554" lon="17.6547094">
        <ele>34.2642</ele>
        <time>2013-05-18T18:46:47Z</time>
      </trkpt>
      <trkpt lat="59.9393807" lon="17.654828">
        <ele>34.2642</ele>
        <time>2013-05-18T18:46:48Z</time>
      </trkpt>
      <trkpt lat="59.9394099" lon="17.6549486">
        <ele>34.7449</ele>
        <time>2013-05-18T18:46:49Z</time>
      </trkpt>
      <trkpt lat="59.9394322" lon="17.6550701">
        <ele>34.2642</ele>
        <time>2013-05-18T18:46:50Z</time>
      </trkpt>
      <trkpt lat="59.9394527" lon="17.6551886">
        <ele>34.7449</ele>
        <time>2013-05-18T18:46:51Z</time>
      </trkpt>
      <trkpt lat="59.9394724" lon="17.6553036">
        <ele>36.6675</ele>
        <time>2013-05-18T18:46:52Z</time>
      </trkpt>
      <trkpt lat="59.9394977" lon="17.6554211">
        <ele>38.1094</ele>
        <time>2013-05-18T18:46:53Z</time>
      </trkpt>
      <trkpt lat="59.9395222" lon="17.6555404">
        <ele>38.5901</ele>
        <time>2013-05-18T18:46:54Z</time>
      </trkpt>
      <trkpt lat="59.9395435" lon="17.6556592">
        <ele>38.1094</ele>
        <time>2013-05-18T18:46:55Z</time>
      </trkpt>
      <trkpt lat="59.9395632" lon="17.6557796">
        <ele>38.1094</ele>
        <time>2013-05-18T18:46:56Z</time>
      </trkpt>
      <trkpt lat="59.939589" lon="17.6559076">
        <ele>39.5513</ele>
        <time>2013-05-18T18:46:57Z</time>
      </trkpt>
      <trkpt lat="59.9396181" lon="17.6560364">
        <ele>39.5513</ele>
        <time>2013-05-18T18:46:58Z</time>
      </trkpt>
      <trkpt lat="59.9396465" lon="17.6561629">
        <ele>40.0321</ele>
        <time>2013-05-18T18:46:59Z</time>
      </trkpt>
      <trkpt lat="59.9396695" lon="17.6562868">
        <ele>39.5513</ele>
        <time>2013-05-18T18:47:00Z</time>
      </trkpt>
      <trkpt lat="59.9396958" lon="17.6564095">
        <ele>40.0321</ele>
        <time>2013-05-18T18:47:01Z</time>
      </trkpt>
      <trkpt lat="59.9397201" lon="17.6565298">
        <ele>39.5513</ele>
        <time>2013-05-18T18:47:02Z</time>
      </trkpt>
      <trkpt lat="59.939746" lon="17.6566514">
        <ele>39.0707</ele>
        <time>2013-05-18T18:47:03Z</time>
      </trkpt>
      <trkpt lat="59.9397712" lon="17.656775">
        <ele>38.5901</ele>
        <time>2013-05-18T18:47:04Z</time>
      </trkpt>
      <trkpt lat="59.9397957" lon="17.6568986">
        <ele>37.6287</ele>
        <time>2013-05-18T18:47:05Z</time>
      </trkpt>
      <trkpt lat="59.9398222" lon="17.6570211">
        <ele>37.1481</ele>
        <time>2013-05-18T18:47:06Z</time>
      </trkpt>
      <trkpt lat="59.9398495" lon="17.6571433">
        <ele>36.6675</ele>
        <time>2013-05-18T18:47:07Z</time>
      </trkpt>
      <trkpt lat="59.9398746" lon="17.6572688">
        <ele>36.1868</ele>
        <time>2013-05-18T18:47:08Z</time>
      </trkpt>
      <trkpt lat="59.9398983" lon="17.6573966">
        <ele>35.7061</ele>
        <time>2013-05-18T18:47:09Z</time>
      </trkpt>
      <trkpt lat="59.9399223" lon="17.6575249">
        <ele>35.2255</ele>
        <time>2013-05-18T18:47:10Z</time>
      </trkpt>
      <trkpt lat="59.9399481" lon="17.6576541">
        <ele>34.2642</ele>
        <time>2013-05-18T18:47:11Z</time>
      </trkpt>
      <trkpt lat="59.9399753" lon="17.6577839">
        <ele>33.7834</ele>
        <time>2013-05-18T18:47:12Z</time>
      </trkpt>
      <trkpt lat="59.94" lon="17.6579152">
        <ele>32.8223</ele>
        <time>2013-05-18T18:47:13Z</time>
      </trkpt>
      <trkpt lat="59.9400259" lon="17.6580464">
        <ele>31.8607</ele>
        <time>2013-05-18T18:47:14Z</time>
      </trkpt>
      <trkpt lat="59.9400537" lon="17.6581801">
        <ele>30.8995</ele>
        <time>2013-05-18T18:47:15Z</time>
      </trkpt>
      <trkpt lat="59.9400817" lon="17.6583157">
        <ele>29.9381</ele>
        <time>2013-05-18T18:47:16Z</time>
      </trkpt>
      <trkpt lat="59.9401137" lon="17.6584526">
        <ele>29.4575</ele>
        <time>2013-05-18T18:47:17Z</time>
      </trkpt>
      <trkpt lat="59.9401527" lon="17.6585956">
        <ele>28.4962</ele>
        <time>2013-05-18T18:47:18Z</time>
      </trkpt>
      <trkpt lat="59.9401843" lon="17.6587331">
        <ele>28.0155</ele>
        <time>2013-05-18T18:47:19Z</time>
      </trkpt>
      <trkpt lat="59.9402138" lon="17.6588701">
        <ele>27.5349</ele>
        <time>2013-05-18T18:47:20Z</time>
      </trkpt>
      <trkpt lat="59.9402428" lon="17.6590083">
        <ele>27.0543</ele>
        <time>2013-05-18T18:47:21Z</time>
      </trkpt>
      <trkpt lat="59.940276" lon="17.6591523">
        <ele>27.0543</ele>
        <time>2013-05-18T18:47:22Z</time>
      </trkpt>
      <trkpt lat="59.9403016" lon="17.6592907">
        <ele>27.0543</ele>
        <time>2013-05-18T18:47:23Z</time>
      </trkpt>
      <trkpt lat="59.9403245" lon="17.6594278">
        <ele>27.0543</ele>
        <time>2013-05-18T18:47:24Z</time>
      </trkpt>
      <trkpt lat="59.9403422" lon="17.6595601">
        <ele>28.9769</ele>
        <time>2013-05-18T18:47:25Z</time>
      </trkpt>
      <trkpt lat="59.9403624" lon="17.6596888">
        <ele>28.4962</ele>
        <time>2013-05-18T18:47:26Z</time>
      </trkpt>
      <trkpt lat="59.9403869" lon="17.6598123">
        <ele>28.9769</ele>
        <time>2013-05-18T18:47:27Z</time>
      </trkpt>
      <trkpt lat="59.9404105" lon="17.6599378">
        <ele>29.4575</ele>
        <time>2013-05-18T18:47:28Z</time>
      </trkpt>
      <trkpt lat="59.9404442" lon="17.6600418">
        <ele>29.4575</ele>
        <time>2013-05-18T18:47:29Z</time>
      </trkpt>
      <trkpt lat="59.9404711" lon="17.6601401">
        <ele>29.9381</ele>
        <time>2013-05-18T18:47:30Z</time>
      </trkpt>
      <trkpt lat="59.9404914" lon="17.6602281">
        <ele>30.4188</ele>
        <time>2013-05-18T18:47:31Z</time>
      </trkpt>
      <trkpt lat="59.9405199" lon="17.6603205">
        <ele>30.8995</ele>
        <time>2013-05-18T18:47:32Z</time>
      </trkpt>
      <trkpt lat="59.9405365" lon="17.6604177">
        <ele>30.4188</ele>
        <time>2013-05-18T18:47:33Z</time>
      </trkpt>
      <trkpt lat="59.9405526" lon="17.6605577">
        <ele>29.4575</ele>
        <time>2013-05-18T18:47:34Z</time>
      </trkpt>
      <trkpt lat="59.9405625" lon="17.6606941">
        <ele>33.3029</ele>
        <time>2013-05-18T18:47:35Z</time>
      </trkpt>
      <trkpt lat="59.9405286" lon="17.6608473">
        <ele>33.3029</ele>
        <time>2013-05-18T18:47:36Z</time>
      </trkpt>
      <trkpt lat="59.9404928" lon="17.6609894">
        <ele>33.3029</ele>
        <time>2013-05-18T18:47:37Z</time>
      </trkpt>
      <trkpt lat="59.9404468" lon="17.6611762">
        <ele>33.3029</ele>
        <time>2013-05-18T18:47:38Z</time>
      </trkpt>
      <trkpt lat="59.9404467" lon="17.6613221">
        <ele>35.7061</ele>
        <time>2013-05-18T18:47:39Z</time>
      </trkpt>
      <trkpt lat="59.9404591" lon="17.661474">
        <ele>36.6675</ele>
        <time>2013-05-18T18:47:40Z</time>
      </trkpt>
      <trkpt lat="59.9404742" lon="17.6616295">
        <ele>36.6675</ele>
        <time>2013-05-18T18:47:41Z</time>
      </trkpt>
      <trkpt lat="59.9405031" lon="17.6617604">
        <ele>36.1868</ele>
        <time>2013-05-18T18:47:42Z</time>
      </trkpt>
      <trkpt lat="59.9405391" lon="17.6618845">
        <ele>36.6675</ele>
        <time>2013-05-18T18:47:43Z</time>
      </trkpt>
      <trkpt lat="59.9405933" lon="17.6619935">
        <ele>39.5513</ele>
        <time>2013-05-18T18:47:44Z</time>
      </trkpt>
      <trkpt lat="59.9406451" lon="17.6620743">
        <ele>38.1094</ele>
        <time>2013-05-18T18:47:45Z</time>
      </trkpt>
      <trkpt lat="59.9407003" lon="17.6621308">
        <ele>37.1481</ele>
        <time>2013-05-18T18:47:46Z</time>
      </trkpt>
      <trkpt lat="59.9407593" lon="17.6621728">
        <ele>37.6287</ele>
        <time>2013-05-18T18:47:47Z</time>
      </trkpt>
      <trkpt lat="59.9408213" lon="17.6621906">
        <ele>38.1094</ele>
        <time>2013-05-18T18:47:48Z</time>
      </trkpt>
      <trkpt lat="59.9408844" lon="17.6622009">
        <ele>38.1094</ele>
        <time>2013-05-18T18:47:49Z</time>
      </trkpt>
      <trkpt lat="59.9409456" lon="17.6622084">
        <ele>38.1094</ele>
        <time>2013-05-18T18:47:50Z</time>
      </trkpt>
      <trkpt lat="59.9410083" lon="17.6622273">
        <ele>37.6287</ele>
        <time>2013-05-18T18:47:51Z</time>
      </trkpt>
      <trkpt lat="59.9410697" lon="17.6622558">
        <ele>37.1481</ele>
        <time>2013-05-18T18:47:52Z</time>
      </trkpt>
      <trkpt lat="59.9411317" lon="17.6622915">
        <ele>36.6675</ele>
        <time>2013-05-18T18:47:53Z</time>
      </trkpt>
      <trkpt lat="59.9411906" lon="17.6623299">
        <ele>35.7061</ele>
        <time>2013-05-18T18:47:54Z</time>
      </trkpt>
      <trkpt lat="59.9412513" lon="17.6623709">
        <ele>35.2255</ele>
        <time>2013-05-18T18:47:55Z</time>
      </trkpt>
      <trkpt lat="59.941311" lon="17.6624174">
        <ele>35.2255</ele>
        <time>2013-05-18T18:47:56Z</time>
      </trkpt>
      <trkpt lat="59.941372" lon="17.6624706">
        <ele>34.7449</ele>
        <time>2013-05-18T18:47:57Z</time>
      </trkpt>
      <trkpt lat="59.9414336" lon="17.6625319">
        <ele>34.7449</ele>
        <time>2013-05-18T18:47:58Z</time>
      </trkpt>
      <trkpt lat="59.9414962" lon="17.6625959">
        <ele>35.7061</ele>
        <time>2013-05-18T18:47:59Z</time>
      </trkpt>
      <trkpt lat="59.9415503" lon="17.662668">
        <ele>35.7061</ele>
        <time>2013-05-18T18:48:00Z</time>
      </trkpt>
      <trkpt lat="59.9415927" lon="17.6627532">
        <ele>34.7449</ele>
        <time>2013-05-18T18:48:01Z</time>
      </trkpt>
      <trkpt lat="59.9416338" lon="17.6628383">
        <ele>34.2642</ele>
        <time>2013-05-18T18:48:02Z</time>
      </trkpt>
      <trkpt lat="59.9416728" lon="17.6629239">
        <ele>33.7834</ele>
        <time>2013-05-18T18:48:03Z</time>
      </trkpt>
      <trkpt lat="59.9417108" lon="17.6630082">
        <ele>33.3029</ele>
        <time>2013-05-18T18:48:04Z</time>
      </trkpt>
      <trkpt lat="59.9417471" lon="17.6630897">
        <ele>32.8223</ele>
        <time>2013-05-18T18:48:05Z</time>
      </trkpt>
      <trkpt lat="59.941775" lon="17.6631649">
        <ele>31.8607</ele>
        <time>2013-05-18T18:48:06Z</time>
      </trkpt>
      <trkpt lat="59.9418113" lon="17.6632411">
        <ele>31.3801</ele>
        <time>2013-05-18T18:48:07Z</time>
      </trkpt>
      <trkpt lat="59.9418532" lon="17.6633141">
        <ele>32.3416</ele>
        <time>2013-05-18T18:48:08Z</time>
      </trkpt>
      <trkpt lat="59.9418963" lon="17.6633845">
        <ele>32.3416</ele>
        <time>2013-05-18T18:48:09Z</time>
      </trkpt>
      <trkpt lat="59.9419388" lon="17.6634563">
        <ele>31.8607</ele>
        <time>2013-05-18T18:48:10Z</time>
      </trkpt>
      <trkpt lat="59.9419819" lon="17.6635275">
        <ele>31.8607</ele>
        <time>2013-05-18T18:48:11Z</time>
      </trkpt>
      <trkpt lat="59.9420209" lon="17.6635962">
        <ele>30.4188</ele>
        <time>2013-05-18T18:48:12Z</time>
      </trkpt>
      <trkpt lat="59.9420567" lon="17.6636699">
        <ele>29.4575</ele>
        <time>2013-05-18T18:48:13Z</time>
      </trkpt>
      <trkpt lat="59.942103" lon="17.6637392">
        <ele>29.4575</ele>
        <time>2013-05-18T18:48:14Z</time>
      </trkpt>
      <trkpt lat="59.9421513" lon="17.663802">
        <ele>29.4575</ele>
        <time>2013-05-18T18:48:15Z</time>
      </trkpt>
      <trkpt lat="59.9421901" lon="17.6638692">
        <ele>28.9769</ele>
        <time>2013-05-18T18:48:16Z</time>
      </trkpt>
      <trkpt lat="59.9422343" lon="17.6639337">
        <ele>28.0155</ele>
        <time>2013-05-18T18:48:17Z</time>
      </trkpt>
      <trkpt lat="59.9422796" lon="17.6640019">
        <ele>27.5349</ele>
        <time>2013-05-18T18:48:18Z</time>
      </trkpt>
      <trkpt lat="59.9423283" lon="17.6640708">
        <ele>27.5349</ele>
        <time>2013-05-18T18:48:19Z</time>
      </trkpt>
      <trkpt lat="59.9423778" lon="17.6641424">
        <ele>27.5349</ele>
        <time>2013-05-18T18:48:20Z</time>
      </trkpt>
      <trkpt lat="59.9424303" lon="17.6642056">
        <ele>27.5349</ele>
        <time>2013-05-18T18:48:21Z</time>
      </trkpt>
      <trkpt lat="59.9424795" lon="17.6642768">
        <ele>27.5349</ele>
        <time>2013-05-18T18:48:22Z</time>
      </trkpt>
      <trkpt lat="59.9425277" lon="17.6643478">
        <ele>27.0543</ele>
        <time>2013-05-18T18:48:23Z</time>
      </trkpt>
      <trkpt lat="59.9425753" lon="17.6644231">
        <ele>25.6123</ele>
        <time>2013-05-18T18:48:24Z</time>
      </trkpt>
      <trkpt lat="59.9426277" lon="17.6644874">
        <ele>25.1317</ele>
        <time>2013-05-18T18:48:25Z</time>
      </trkpt>
      <trkpt lat="59.9426799" lon="17.6645516">
        <ele>24.1703</ele>
        <time>2013-05-18T18:48:26Z</time>
      </trkpt>
      <trkpt lat="59.9427344" lon="17.6646122">
        <ele>23.209</ele>
        <time>2013-05-18T18:48:27Z</time>
      </trkpt>
      <trkpt lat="59.942792" lon="17.6646706">
        <ele>22.7283</ele>
        <time>2013-05-18T18:48:28Z</time>
      </trkpt>
      <trkpt lat="59.9428488" lon="17.664734">
        <ele>22.2476</ele>
        <time>2013-05-18T18:48:29Z</time>
      </trkpt>
      <trkpt lat="59.942909" lon="17.6647933">
        <ele>22.2476</ele>
        <time>2013-05-18T18:48:30Z</time>
      </trkpt>
      <trkpt lat="59.94297" lon="17.664852">
        <ele>21.2864</ele>
        <time>2013-05-18T18:48:31Z</time>
      </trkpt>
      <trkpt lat="59.9430319" lon="17.6649081">
        <ele>21.2864</ele>
        <time>2013-05-18T18:48:32Z</time>
      </trkpt>
      <trkpt lat="59.9430965" lon="17.6649609">
        <ele>21.2864</ele>
        <time>2013-05-18T18:48:33Z</time>
      </trkpt>
      <trkpt lat="59.9431609" lon="17.6650104">
        <ele>20.8057</ele>
        <time>2013-05-18T18:48:34Z</time>
      </trkpt>
      <trkpt lat="59.9432239" lon="17.6650616">
        <ele>20.325</ele>
        <time>2013-05-18T18:48:35Z</time>
      </trkpt>
      <trkpt lat="59.9432866" lon="17.6651143">
        <ele>19.3638</ele>
        <time>2013-05-18T18:48:36Z</time>
      </trkpt>
      <trkpt lat="59.9433479" lon="17.6651638">
        <ele>18.8831</ele>
        <time>2013-05-18T18:48:37Z</time>
      </trkpt>
      <trkpt lat="59.9434099" lon="17.6652091">
        <ele>18.4023</ele>
        <time>2013-05-18T18:48:38Z</time>
      </trkpt>
      <trkpt lat="59.9434731" lon="17.6652523">
        <ele>17.9218</ele>
        <time>2013-05-18T18:48:39Z</time>
      </trkpt>
      <trkpt lat="59.9435372" lon="17.6652959">
        <ele>17.4412</ele>
        <time>2013-05-18T18:48:40Z</time>
      </trkpt>
      <trkpt lat="59.9436015" lon="17.6653394">
        <ele>16.9604</ele>
        <time>2013-05-18T18:48:41Z</time>
      </trkpt>
      <trkpt lat="59.9436672" lon="17.6653814">
        <ele>16.4797</ele>
        <time>2013-05-18T18:48:42Z</time>
      </trkpt>
      <trkpt lat="59.9437351" lon="17.6654214">
        <ele>15.999</ele>
        <time>2013-05-18T18:48:43Z</time>
      </trkpt>
      <trkpt lat="59.9438041" lon="17.6654617">
        <ele>15.5184</ele>
        <time>2013-05-18T18:48:44Z</time>
      </trkpt>
      <trkpt lat="59.9438738" lon="17.6655028">
        <ele>15.0377</ele>
        <time>2013-05-18T18:48:45Z</time>
      </trkpt>
      <trkpt lat="59.9439441" lon="17.66554">
        <ele>14.557</ele>
        <time>2013-05-18T18:48:46Z</time>
      </trkpt>
      <trkpt lat="59.9440155" lon="17.6655736">
        <ele>14.0764</ele>
        <time>2013-05-18T18:48:47Z</time>
      </trkpt>
      <trkpt lat="59.9440864" lon="17.6656062">
        <ele>13.5958</ele>
        <time>2013-05-18T18:48:48Z</time>
      </trkpt>
      <trkpt lat="59.944157" lon="17.6656389">
        <ele>13.5958</ele>
        <time>2013-05-18T18:48:49Z</time>
      </trkpt>
      <trkpt lat="59.9442282" lon="17.6656708">
        <ele>13.1151</ele>
        <time>2013-05-18T18:48:50Z</time>
      </trkpt>
      <trkpt lat="59.9442993" lon="17.6657011">
        <ele>12.6344</ele>
        <time>2013-05-18T18:48:51Z</time>
      </trkpt>
      <trkpt lat="59.9443704" lon="17.665728">
        <ele>12.1538</ele>
        <time>2013-05-18T18:48:52Z</time>
      </trkpt>
      <trkpt lat="59.9444418" lon="17.6657521">
        <ele>12.1538</ele>
        <time>2013-05-18T18:48:53Z</time>
      </trkpt>
      <trkpt lat="59.9445128" lon="17.6657767">
        <ele>12.1538</ele>
        <time>2013-05-18T18:48:54Z</time>
      </trkpt>
      <trkpt lat="59.9445825" lon="17.6658041">
        <ele>11.6732</ele>
        <time>2013-05-18T18:48:55Z</time>
      </trkpt>
      <trkpt lat="59.9446509" lon="17.6658296">
        <ele>11.1925</ele>
        <time>2013-05-18T18:48:56Z</time>
      </trkpt>
      <trkpt lat="59.9447192" lon="17.6658528">
        <ele>10.7118</ele>
        <time>2013-05-18T18:48:57Z</time>
      </trkpt>
      <trkpt lat="59.9447868" lon="17.6658787">
        <ele>10.2312</ele>
        <time>2013-05-18T18:48:58Z</time>
      </trkpt>
      <trkpt lat="59.944851" lon="17.6659089">
        <ele>11.1925</ele>
        <time>2013-05-18T18:48:59Z</time>
      </trkpt>
      <trkpt lat="59.9449163" lon="17.6659348">
        <ele>12.6344</ele>
        <time>2013-05-18T18:49:00Z</time>
      </trkpt>
      <trkpt lat="59.9449831" lon="17.6659616">
        <ele>12.1538</ele>
        <time>2013-05-18T18:49:01Z</time>
      </trkpt>
      <trkpt lat="59.9450536" lon="17.6659803">
        <ele>12.1538</ele>
        <time>2013-05-18T18:49:02Z</time>
      </trkpt>
      <trkpt lat="59.9451243" lon="17.6660005">
        <ele>11.6732</ele>
        <time>2013-05-18T18:49:03Z</time>
      </trkpt>
      <trkpt lat="59.9451942" lon="17.6660244">
        <ele>11.6732</ele>
        <time>2013-05-18T18:49:04Z</time>
      </trkpt>
      <trkpt lat="59.9452644" lon="17.6660495">
        <ele>11.6732</ele>
        <time>2013-05-18T18:49:05Z</time>
      </trkpt>
      <trkpt lat="59.9453353" lon="17.6660725">
        <ele>11.6732</ele>
        <time>2013-05-18T18:49:06Z</time>
      </trkpt>
      <trkpt lat="59.9454063" lon="17.6660953">
        <ele>11.6732</ele>
        <time>2013-05-18T18:49:07Z</time>
      </trkpt>
      <trkpt lat="59.9454773" lon="17.6661185">
        <ele>11.6732</ele>
        <time>2013-05-18T18:49:08Z</time>
      </trkpt>
      <trkpt lat="59.9455476" lon="17.6661432">
        <ele>11.6732</ele>
        <time>2013-05-18T18:49:09Z</time>
      </trkpt>
      <trkpt lat="59.9456167" lon="17.6661698">
        <ele>11.1925</ele>
        <time>2013-05-18T18:49:10Z</time>
      </trkpt>
      <trkpt lat="59.9456853" lon="17.6661952">
        <ele>11.1925</ele>
        <time>2013-05-18T18:49:11Z</time>
      </trkpt>
      <trkpt lat="59.9457533" lon="17.66622">
        <ele>10.7118</ele>
        <time>2013-05-18T18:49:12Z</time>
      </trkpt>
      <trkpt lat="59.9458222" lon="17.6662455">
        <ele>10.7118</ele>
        <time>2013-05-18T18:49:13Z</time>
      </trkpt>
      <trkpt lat="59.9458933" lon="17.6662688">
        <ele>11.1925</ele>
        <time>2013-05-18T18:49:14Z</time>
      </trkpt>
      <trkpt lat="59.945964" lon="17.6662909">
        <ele>11.1925</ele>
        <time>2013-05-18T18:49:15Z</time>
      </trkpt>
      <trkpt lat="59.9460348" lon="17.6663139">
        <ele>11.1925</ele>
        <time>2013-05-18T18:49:16Z</time>
      </trkpt>
      <trkpt lat="59.9461056" lon="17.6663433">
        <ele>11.1925</ele>
        <time>2013-05-18T18:49:17Z</time>
      </trkpt>
      <trkpt lat="59.9461751" lon="17.6663769">
        <ele>11.6732</ele>
        <time>2013-05-18T18:49:18Z</time>
      </trkpt>
      <trkpt lat="59.9462443" lon="17.6664124">
        <ele>12.1538</ele>
        <time>2013-05-18T18:49:19Z</time>
      </trkpt>
      <trkpt lat="59.9463111" lon="17.6664593">
        <ele>12.6344</ele>
        <time>2013-05-18T18:49:20Z</time>
      </trkpt>
      <trkpt lat="59.9463781" lon="17.6665098">
        <ele>13.1151</ele>
        <time>2013-05-18T18:49:21Z</time>
      </trkpt>
      <trkpt lat="59.9464473" lon="17.6665523">
        <ele>13.5958</ele>
        <time>2013-05-18T18:49:22Z</time>
      </trkpt>
      <trkpt lat="59.9465191" lon="17.6665822">
        <ele>14.0764</ele>
        <time>2013-05-18T18:49:23Z</time>
      </trkpt>
      <trkpt lat="59.9465926" lon="17.6666003">
        <ele>14.557</ele>
        <time>2013-05-18T18:49:24Z</time>
      </trkpt>
      <trkpt lat="59.946666" lon="17.6666066">
        <ele>15.0377</ele>
        <time>2013-05-18T18:49:25Z</time>
      </trkpt>
      <trkpt lat="59.9467429" lon="17.6666064">
        <ele>15.5184</ele>
        <time>2013-05-18T18:49:26Z</time>
      </trkpt>
      <trkpt lat="59.946822" lon="17.6666179">
        <ele>15.999</ele>
        <time>2013-05-18T18:49:27Z</time>
      </trkpt>
      <trkpt lat="59.9468999" lon="17.6666444">
        <ele>16.4797</ele>
        <time>2013-05-18T18:49:28Z</time>
      </trkpt>
      <trkpt lat="59.9469773" lon="17.6666765">
        <ele>16.9604</ele>
        <time>2013-05-18T18:49:29Z</time>
      </trkpt>
      <trkpt lat="59.947053" lon="17.6667089">
        <ele>17.9218</ele>
        <time>2013-05-18T18:49:30Z</time>
      </trkpt>
      <trkpt lat="59.9471265" lon="17.6667408">
        <ele>18.4023</ele>
        <time>2013-05-18T18:49:31Z</time>
      </trkpt>
      <trkpt lat="59.9471991" lon="17.6667733">
        <ele>18.8831</ele>
        <time>2013-05-18T18:49:32Z</time>
      </trkpt>
      <trkpt lat="59.9472704" lon="17.6668076">
        <ele>18.8831</ele>
        <time>2013-05-18T18:49:33Z</time>
      </trkpt>
      <trkpt lat="59.9473416" lon="17.6668436">
        <ele>18.8831</ele>
        <time>2013-05-18T18:49:34Z</time>
      </trkpt>
      <trkpt lat="59.9474134" lon="17.66688">
        <ele>18.8831</ele>
        <time>2013-05-18T18:49:35Z</time>
      </trkpt>
      <trkpt lat="59.9474861" lon="17.6669136">
        <ele>18.8831</ele>
        <time>2013-05-18T18:49:36Z</time>
      </trkpt>
      <trkpt lat="59.9475593" lon="17.6669468">
        <ele>18.8831</ele>
        <time>2013-05-18T18:49:37Z</time>
      </trkpt>
      <trkpt lat="59.9476325" lon="17.6669814">
        <ele>18.8831</ele>
        <time>2013-05-18T18:49:38Z</time>
      </trkpt>
      <trkpt lat="59.9477027" lon="17.6670187">
        <ele>18.8831</ele>
        <time>2013-05-18T18:49:39Z</time>
      </trkpt>
      <trkpt lat="59.9477716" lon="17.6670542">
        <ele>18.8831</ele>
        <time>2013-05-18T18:49:40Z</time>
      </trkpt>
      <trkpt lat="59.947841" lon="17.6670878">
        <ele>18.4023</ele>
        <time>2013-05-18T18:49:41Z</time>
      </trkpt>
      <trkpt lat="59.9479109" lon="17.6671247">
        <ele>18.4023</ele>
        <time>2013-05-18T18:49:42Z</time>
      </trkpt>
      <trkpt lat="59.9479798" lon="17.6671616">
        <ele>17.9218</ele>
        <time>2013-05-18T18:49:43Z</time>
      </trkpt>
      <trkpt lat="59.9480483" lon="17.6671991">
        <ele>17.4412</ele>
        <time>2013-05-18T18:49:44Z</time>
      </trkpt>
      <trkpt lat="59.9481175" lon="17.6672345">
        <ele>17.9218</ele>
        <time>2013-05-18T18:49:45Z</time>
      </trkpt>
      <trkpt lat="59.9481845" lon="17.6672691">
        <ele>17.9218</ele>
        <time>2013-05-18T18:49:46Z</time>
      </trkpt>
      <trkpt lat="59.9482506" lon="17.6673054">
        <ele>17.4412</ele>
        <time>2013-05-18T18:49:47Z</time>
      </trkpt>
      <trkpt lat="59.9483181" lon="17.6673432">
        <ele>16.9604</ele>
        <time>2013-05-18T18:49:48Z</time>
      </trkpt>
      <trkpt lat="59.9483857" lon="17.667382">
        <ele>16.9604</ele>
        <time>2013-05-18T18:49:49Z</time>
      </trkpt>
      <trkpt lat="59.9484526" lon="17.6674191">
        <ele>16.9604</ele>
        <time>2013-05-18T18:49:50Z</time>
      </trkpt>
      <trkpt lat="59.9485207" lon="17.6674545">
        <ele>16.9604</ele>
        <time>2013-05-18T18:49:51Z</time>
      </trkpt>
      <trkpt lat="59.9485895" lon="17.6674916">
        <ele>17.4412</ele>
        <time>2013-05-18T18:49:52Z</time>
      </trkpt>
      <trkpt lat="59.9486584" lon="17.6675316">
        <ele>17.4412</ele>
        <time>2013-05-18T18:49:53Z</time>
      </trkpt>
      <trkpt lat="59.9487288" lon="17.6675716">
        <ele>17.4412</ele>
        <time>2013-05-18T18:49:54Z</time>
      </trkpt>
      <trkpt lat="59.9487986" lon="17.6676103">
        <ele>17.4412</ele>
        <time>2013-05-18T18:49:55Z</time>
      </trkpt>
      <trkpt lat="59.9488682" lon="17.6676486">
        <ele>17.4412</ele>
        <time>2013-05-18T18:49:56Z</time>
      </trkpt>
      <trkpt lat="59.9489387" lon="17.6676874">
        <ele>17.9218</ele>
        <time>2013-05-18T18:49:57Z</time>
      </trkpt>
      <trkpt lat="59.9490094" lon="17.667726">
        <ele>17.4412</ele>
        <time>2013-05-18T18:49:58Z</time>
      </trkpt>
      <trkpt lat="59.9490811" lon="17.6677615">
        <ele>17.9218</ele>
        <time>2013-05-18T18:49:59Z</time>
      </trkpt>
      <trkpt lat="59.949151" lon="17.6678009">
        <ele>17.9218</ele>
        <time>2013-05-18T18:50:00Z</time>
      </trkpt>
      <trkpt lat="59.9492213" lon="17.6678413">
        <ele>17.9218</ele>
        <time>2013-05-18T18:50:01Z</time>
      </trkpt>
      <trkpt lat="59.9492912" lon="17.6678824">
        <ele>17.9218</ele>
        <time>2013-05-18T18:50:02Z</time>
      </trkpt>
      <trkpt lat="59.9493598" lon="17.6679252">
        <ele>17.9218</ele>
        <time>2013-05-18T18:50:03Z</time>
      </trkpt>
      <trkpt lat="59.9494288" lon="17.6679657">
        <ele>17.9218</ele>
        <time>2013-05-18T18:50:04Z</time>
      </trkpt>
      <trkpt lat="59.9494991" lon="17.6680016">
        <ele>17.9218</ele>
        <time>2013-05-18T18:50:05Z</time>
      </trkpt>
      <trkpt lat="59.9495706" lon="17.6680347">
        <ele>18.4023</ele>
        <time>2013-05-18T18:50:06Z</time>
      </trkpt>
      <trkpt lat="59.9496417" lon="17.6680679">
        <ele>18.4023</ele>
        <time>2013-05-18T18:50:07Z</time>
      </trkpt>
      <trkpt lat="59.9497126" lon="17.6681032">
        <ele>18.4023</ele>
        <time>2013-05-18T18:50:08Z</time>
      </trkpt>
      <trkpt lat="59.9497835" lon="17.6681404">
        <ele>18.4023</ele>
        <time>2013-05-18T18:50:09Z</time>
      </trkpt>
      <trkpt lat="59.9498533" lon="17.6681761">
        <ele>17.9218</ele>
        <time>2013-05-18T18:50:10Z</time>
      </trkpt>
      <trkpt lat="59.9499221" lon="17.6682073">
        <ele>17.9218</ele>
        <time>2013-05-18T18:50:11Z</time>
      </trkpt>
      <trkpt lat="59.9499891" lon="17.6682361">
        <ele>17.9218</ele>
        <time>2013-05-18T18:50:12Z</time>
      </trkpt>
      <trkpt lat="59.9500532" lon="17.6682637">
        <ele>18.4023</ele>
        <time>2013-05-18T18:50:13Z</time>
      </trkpt>
      <trkpt lat="59.9501169" lon="17.6682896">
        <ele>18.8831</ele>
        <time>2013-05-18T18:50:14Z</time>
      </trkpt>
      <trkpt lat="59.9501808" lon="17.6683122">
        <ele>19.3638</ele>
        <time>2013-05-18T18:50:15Z</time>
      </trkpt>
      <trkpt lat="59.950243" lon="17.6683339">
        <ele>20.325</ele>
        <time>2013-05-18T18:50:16Z</time>
      </trkpt>
      <trkpt lat="59.9503083" lon="17.6683487">
        <ele>20.325</ele>
        <time>2013-05-18T18:50:17Z</time>
      </trkpt>
      <trkpt lat="59.9503911" lon="17.668356">
        <ele>20.325</ele>
        <time>2013-05-18T18:50:18Z</time>
      </trkpt>
      <trkpt lat="59.9504662" lon="17.6683557">
        <ele>20.325</ele>
        <time>2013-05-18T18:50:19Z</time>
      </trkpt>
      <trkpt lat="59.9505407" lon="17.6683477">
        <ele>19.8444</ele>
        <time>2013-05-18T18:50:20Z</time>
      </trkpt>
      <trkpt lat="59.9506143" lon="17.6683357">
        <ele>19.8444</ele>
        <time>2013-05-18T18:50:21Z</time>
      </trkpt>
      <trkpt lat="59.9506858" lon="17.6683248">
        <ele>20.8057</ele>
        <time>2013-05-18T18:50:22Z</time>
      </trkpt>
      <trkpt lat="59.9507673" lon="17.6683051">
        <ele>20.8057</ele>
        <time>2013-05-18T18:50:23Z</time>
      </trkpt>
      <trkpt lat="59.9508414" lon="17.6682842">
        <ele>21.2864</ele>
        <time>2013-05-18T18:50:24Z</time>
      </trkpt>
      <trkpt lat="59.9509174" lon="17.6682583">
        <ele>21.767</ele>
        <time>2013-05-18T18:50:25Z</time>
      </trkpt>
      <trkpt lat="59.9509858" lon="17.6682403">
        <ele>23.209</ele>
        <time>2013-05-18T18:50:26Z</time>
      </trkpt>
      <trkpt lat="59.9510656" lon="17.6682122">
        <ele>22.7283</ele>
        <time>2013-05-18T18:50:27Z</time>
      </trkpt>
      <trkpt lat="59.9511448" lon="17.6681821">
        <ele>22.2476</ele>
        <time>2013-05-18T18:50:28Z</time>
      </trkpt>
      <trkpt lat="59.9512168" lon="17.6681569">
        <ele>23.209</ele>
        <time>2013-05-18T18:50:29Z</time>
      </trkpt>
      <trkpt lat="59.951294" lon="17.6681207">
        <ele>23.6896</ele>
        <time>2013-05-18T18:50:30Z</time>
      </trkpt>
      <trkpt lat="59.9513686" lon="17.6680974">
        <ele>24.1703</ele>
        <time>2013-05-18T18:50:31Z</time>
      </trkpt>
      <trkpt lat="59.9514474" lon="17.6680756">
        <ele>23.209</ele>
        <time>2013-05-18T18:50:32Z</time>
      </trkpt>
      <trkpt lat="59.9515255" lon="17.668064">
        <ele>22.2476</ele>
        <time>2013-05-18T18:50:33Z</time>
      </trkpt>
      <trkpt lat="59.9516047" lon="17.6680723">
        <ele>22.2476</ele>
        <time>2013-05-18T18:50:34Z</time>
      </trkpt>
      <trkpt lat="59.95168" lon="17.6681215">
        <ele>22.2476</ele>
        <time>2013-05-18T18:50:35Z</time>
      </trkpt>
      <trkpt lat="59.9517343" lon="17.668222">
        <ele>21.767</ele>
        <time>2013-05-18T18:50:36Z</time>
      </trkpt>
      <trkpt lat="59.9517694" lon="17.6683569">
        <ele>21.2864</ele>
        <time>2013-05-18T18:50:37Z</time>
      </trkpt>
      <trkpt lat="59.951799" lon="17.6684957">
        <ele>21.2864</ele>
        <time>2013-05-18T18:50:38Z</time>
      </trkpt>
      <trkpt lat="59.9518246" lon="17.6686329">
        <ele>21.2864</ele>
        <time>2013-05-18T18:50:39Z</time>
      </trkpt>
      <trkpt lat="59.9518426" lon="17.668768">
        <ele>21.2864</ele>
        <time>2013-05-18T18:50:40Z</time>
      </trkpt>
      <trkpt lat="59.951853" lon="17.6688975">
        <ele>21.767</ele>
        <time>2013-05-18T18:50:41Z</time>
      </trkpt>
      <trkpt lat="59.9518543" lon="17.6690349">
        <ele>21.767</ele>
        <time>2013-05-18T18:50:42Z</time>
      </trkpt>
      <trkpt lat="59.9518498" lon="17.6691588">
        <ele>22.2476</ele>
        <time>2013-05-18T18:50:43Z</time>
      </trkpt>
      <trkpt lat="59.951853" lon="17.6692903">
        <ele>22.7283</ele>
        <time>2013-05-18T18:50:44Z</time>
      </trkpt>
      <trkpt lat="59.9518406" lon="17.6694256">
        <ele>22.2476</ele>
        <time>2013-05-18T18:50:45Z</time>
      </trkpt>
      <trkpt lat="59.9518306" lon="17.6695487">
        <ele>21.767</ele>
        <time>2013-05-18T18:50:46Z</time>
      </trkpt>
      <trkpt lat="59.9518215" lon="17.6696721">
        <ele>21.767</ele>
        <time>2013-05-18T18:50:47Z</time>
      </trkpt>
      <trkpt lat="59.9518139" lon="17.669794">
        <ele>22.7283</ele>
        <time>2013-05-18T18:50:48Z</time>
      </trkpt>
      <trkpt lat="59.9518072" lon="17.6699144">
        <ele>22.7283</ele>
        <time>2013-05-18T18:50:49Z</time>
      </trkpt>
      <trkpt lat="59.9518004" lon="17.6700317">
        <ele>22.7283</ele>
        <time>2013-05-18T18:50:50Z</time>
      </trkpt>
      <trkpt lat="59.9517934" lon="17.6701451">
        <ele>23.209</ele>
        <time>2013-05-18T18:50:51Z</time>
      </trkpt>
      <trkpt lat="59.9517867" lon="17.6702555">
        <ele>22.7283</ele>
        <time>2013-05-18T18:50:52Z</time>
      </trkpt>
      <trkpt lat="59.9517802" lon="17.6703611">
        <ele>23.209</ele>
        <time>2013-05-18T18:50:53Z</time>
      </trkpt>
      <trkpt lat="59.9517711" lon="17.6704662">
        <ele>22.7283</ele>
        <time>2013-05-18T18:50:54Z</time>
      </trkpt>
      <trkpt lat="59.951769" lon="17.6705819">
        <ele>22.7283</ele>
        <time>2013-05-18T18:50:55Z</time>
      </trkpt>
      <trkpt lat="59.9517609" lon="17.6706909">
        <ele>23.209</ele>
        <time>2013-05-18T18:50:56Z</time>
      </trkpt>
      <trkpt lat="59.9517493" lon="17.670791">
        <ele>22.2476</ele>
        <time>2013-05-18T18:50:57Z</time>
      </trkpt>
      <trkpt lat="59.9517384" lon="17.6708983">
        <ele>21.767</ele>
        <time>2013-05-18T18:50:58Z</time>
      </trkpt>
      <trkpt lat="59.9517376" lon="17.6710044">
        <ele>21.767</ele>
        <time>2013-05-18T18:50:59Z</time>
      </trkpt>
      <trkpt lat="59.9517415" lon="17.6711017">
        <ele>21.767</ele>
        <time>2013-05-18T18:51:00Z</time>
      </trkpt>
      <trkpt lat="59.951752" lon="17.6711909">
        <ele>20.8057</ele>
        <time>2013-05-18T18:51:01Z</time>
      </trkpt>
      <trkpt lat="59.9517706" lon="17.6712834">
        <ele>21.767</ele>
        <time>2013-05-18T18:51:02Z</time>
      </trkpt>
      <trkpt lat="59.9517901" lon="17.6713753">
        <ele>23.6896</ele>
        <time>2013-05-18T18:51:03Z</time>
      </trkpt>
      <trkpt lat="59.9518077" lon="17.671463">
        <ele>24.1703</ele>
        <time>2013-05-18T18:51:04Z</time>
      </trkpt>
      <trkpt lat="59.9518124" lon="17.6715535">
        <ele>24.651</ele>
        <time>2013-05-18T18:51:05Z</time>
      </trkpt>
      <trkpt lat="59.9518141" lon="17.6716453">
        <ele>24.1703</ele>
        <time>2013-05-18T18:51:06Z</time>
      </trkpt>
      <trkpt lat="59.9518131" lon="17.6717359">
        <ele>23.6896</ele>
        <time>2013-05-18T18:51:07Z</time>
      </trkpt>
      <trkpt lat="59.9518125" lon="17.6718259">
        <ele>24.1703</ele>
        <time>2013-05-18T18:51:08Z</time>
      </trkpt>
      <trkpt lat="59.9518115" lon="17.671913">
        <ele>24.1703</ele>
        <time>2013-05-18T18:51:09Z</time>
      </trkpt>
      <trkpt lat="59.9518141" lon="17.6720068">
        <ele>24.1703</ele>
        <time>2013-05-18T18:51:10Z</time>
      </trkpt>
      <trkpt lat="59.9518219" lon="17.6721007">
        <ele>23.6896</ele>
        <time>2013-05-18T18:51:11Z</time>
      </trkpt>
      <trkpt lat="59.9518344" lon="17.6721889">
        <ele>23.6896</ele>
        <time>2013-05-18T18:51:12Z</time>
      </trkpt>
      <trkpt lat="59.9518476" lon="17.672284">
        <ele>23.6896</ele>
        <time>2013-05-18T18:51:13Z</time>
      </trkpt>
      <trkpt lat="59.9518592" lon="17.672388">
        <ele>23.209</ele>
        <time>2013-05-18T18:51:14Z</time>
      </trkpt>
      <trkpt lat="59.9518714" lon="17.6724966">
        <ele>23.209</ele>
        <time>2013-05-18T18:51:15Z</time>
      </trkpt>
      <trkpt lat="59.9518813" lon="17.6726123">
        <ele>23.209</ele>
        <time>2013-05-18T18:51:16Z</time>
      </trkpt>
      <trkpt lat="59.9518933" lon="17.6727187">
        <ele>23.6896</ele>
        <time>2013-05-18T18:51:17Z</time>
      </trkpt>
      <trkpt lat="59.9519049" lon="17.67282">
        <ele>23.6896</ele>
        <time>2013-05-18T18:51:18Z</time>
      </trkpt>
      <trkpt lat="59.9519168" lon="17.6729169">
        <ele>23.6896</ele>
        <time>2013-05-18T18:51:19Z</time>
      </trkpt>
      <trkpt lat="59.9519289" lon="17.6730076">
        <ele>24.1703</ele>
        <time>2013-05-18T18:51:20Z</time>
      </trkpt>
      <trkpt lat="59.9519415" lon="17.6730946">
        <ele>23.6896</ele>
        <time>2013-05-18T18:51:21Z</time>
      </trkpt>
      <trkpt lat="59.951955" lon="17.6731822">
        <ele>23.209</ele>
        <time>2013-05-18T18:51:22Z</time>
      </trkpt>
      <trkpt lat="59.9519665" lon="17.6732676">
        <ele>23.209</ele>
        <time>2013-05-18T18:51:23Z</time>
      </trkpt>
      <trkpt lat="59.9519814" lon="17.6733558">
        <ele>22.7283</ele>
        <time>2013-05-18T18:51:24Z</time>
      </trkpt>
      <trkpt lat="59.951998" lon="17.6734381">
        <ele>22.2476</ele>
        <time>2013-05-18T18:51:25Z</time>
      </trkpt>
      <trkpt lat="59.9520177" lon="17.6735177">
        <ele>24.651</ele>
        <time>2013-05-18T18:51:26Z</time>
      </trkpt>
      <trkpt lat="59.9520354" lon="17.6735961">
        <ele>25.1317</ele>
        <time>2013-05-18T18:51:27Z</time>
      </trkpt>
      <trkpt lat="59.9520541" lon="17.6736806">
        <ele>25.1317</ele>
        <time>2013-05-18T18:51:28Z</time>
      </trkpt>
      <trkpt lat="59.9520708" lon="17.6737674">
        <ele>24.651</ele>
        <time>2013-05-18T18:51:29Z</time>
      </trkpt>
      <trkpt lat="59.9520834" lon="17.6738689">
        <ele>23.6896</ele>
        <time>2013-05-18T18:51:30Z</time>
      </trkpt>
      <trkpt lat="59.9520978" lon="17.6739644">
        <ele>22.2476</ele>
        <time>2013-05-18T18:51:31Z</time>
      </trkpt>
      <trkpt lat="59.9521092" lon="17.6740632">
        <ele>21.2864</ele>
        <time>2013-05-18T18:51:32Z</time>
      </trkpt>
      <trkpt lat="59.9521226" lon="17.6741463">
        <ele>21.2864</ele>
        <time>2013-05-18T18:51:33Z</time>
      </trkpt>
      <trkpt lat="59.9521423" lon="17.6742147">
        <ele>21.2864</ele>
        <time>2013-05-18T18:51:34Z</time>
      </trkpt>
      <trkpt lat="59.9521622" lon="17.674306">
        <ele>21.767</ele>
        <time>2013-05-18T18:51:35Z</time>
      </trkpt>
      <trkpt lat="59.9521771" lon="17.6744067">
        <ele>22.2476</ele>
        <time>2013-05-18T18:51:36Z</time>
      </trkpt>
      <trkpt lat="59.9522001" lon="17.6745205">
        <ele>21.767</ele>
        <time>2013-05-18T18:51:37Z</time>
      </trkpt>
      <trkpt lat="59.9522078" lon="17.674641">
        <ele>20.8057</ele>
        <time>2013-05-18T18:51:38Z</time>
      </trkpt>
      <trkpt lat="59.9522171" lon="17.6747564">
        <ele>18.8831</ele>
        <time>2013-05-18T18:51:39Z</time>
      </trkpt>
      <trkpt lat="59.9522254" lon="17.6748512">
        <ele>17.9218</ele>
        <time>2013-05-18T18:51:40Z</time>
      </trkpt>
      <trkpt lat="59.9522354" lon="17.6749335">
        <ele>17.4412</ele>
        <time>2013-05-18T18:51:41Z</time>
      </trkpt>
      <trkpt lat="59.9522409" lon="17.675018">
        <ele>15.5184</ele>
        <time>2013-05-18T18:51:42Z</time>
      </trkpt>
      <trkpt lat="59.9522492" lon="17.6750914">
        <ele>14.557</ele>
        <time>2013-05-18T18:51:43Z</time>
      </trkpt>
      <trkpt lat="59.9522559" lon="17.6751657">
        <ele>13.5958</ele>
        <time>2013-05-18T18:51:44Z</time>
      </trkpt>
      <trkpt lat="59.9522763" lon="17.6752361">
        <ele>14.557</ele>
        <time>2013-05-18T18:51:45Z</time>
      </trkpt>
      <trkpt lat="59.9522921" lon="17.6753126">
        <ele>14.557</ele>
        <time>2013-05-18T18:51:46Z</time>
      </trkpt>
      <trkpt lat="59.9523119" lon="17.6754044">
        <ele>13.1151</ele>
        <time>2013-05-18T18:51:47Z</time>
      </trkpt>
      <trkpt lat="59.9523384" lon="17.6754866">
        <ele>12.6344</ele>
        <time>2013-05-18T18:51:48Z</time>
      </trkpt>
      <trkpt lat="59.9523728" lon="17.6755632">
        <ele>12.6344</ele>
        <time>2013-05-18T18:51:49Z</time>
      </trkpt>
      <trkpt lat="59.9524124" lon="17.675651">
        <ele>12.6344</ele>
        <time>2013-05-18T18:51:50Z</time>
      </trkpt>
      <trkpt lat="59.9524536" lon="17.675739">
        <ele>12.6344</ele>
        <time>2013-05-18T18:51:51Z</time>
      </trkpt>
      <trkpt lat="59.9524948" lon="17.6758447">
        <ele>13.5958</ele>
        <time>2013-05-18T18:51:52Z</time>
      </trkpt>
      <trkpt lat="59.9525383" lon="17.6759478">
        <ele>13.1151</ele>
        <time>2013-05-18T18:51:53Z</time>
      </trkpt>
      <trkpt lat="59.9525855" lon="17.6760536">
        <ele>12.6344</ele>
        <time>2013-05-18T18:51:54Z</time>
      </trkpt>
      <trkpt lat="59.9526289" lon="17.676159">
        <ele>12.6344</ele>
        <time>2013-05-18T18:51:55Z</time>
      </trkpt>
      <trkpt lat="59.9526699" lon="17.6762755">
        <ele>13.1151</ele>
        <time>2013-05-18T18:51:56Z</time>
      </trkpt>
      <trkpt lat="59.9527077" lon="17.6763947">
        <ele>13.5958</ele>
        <time>2013-05-18T18:51:57Z</time>
      </trkpt>
      <trkpt lat="59.952752" lon="17.6765">
        <ele>14.557</ele>
        <time>2013-05-18T18:51:58Z</time>
      </trkpt>
      <trkpt lat="59.9527989" lon="17.6766009">
        <ele>15.0377</ele>
        <time>2013-05-18T18:51:59Z</time>
      </trkpt>
      <trkpt lat="59.9528455" lon="17.6767051">
        <ele>15.0377</ele>
        <time>2013-05-18T18:52:00Z</time>
      </trkpt>
      <trkpt lat="59.952889" lon="17.6768065">
        <ele>14.0764</ele>
        <time>2013-05-18T18:52:01Z</time>
      </trkpt>
      <trkpt lat="59.9529284" lon="17.6769191">
        <ele>12.6344</ele>
        <time>2013-05-18T18:52:02Z</time>
      </trkpt>
      <trkpt lat="59.9529672" lon="17.6770404">
        <ele>11.6732</ele>
        <time>2013-05-18T18:52:03Z</time>
      </trkpt>
      <trkpt lat="59.9530111" lon="17.677157">
        <ele>11.1925</ele>
        <time>2013-05-18T18:52:04Z</time>
      </trkpt>
      <trkpt lat="59.9530502" lon="17.6772668">
        <ele>10.7118</ele>
        <time>2013-05-18T18:52:05Z</time>
      </trkpt>
      <trkpt lat="59.9530899" lon="17.6773806">
        <ele>10.2312</ele>
        <time>2013-05-18T18:52:06Z</time>
      </trkpt>
      <trkpt lat="59.9531537" lon="17.6774951">
        <ele>9.75061</ele>
        <time>2013-05-18T18:52:07Z</time>
      </trkpt>
      <trkpt lat="59.9531894" lon="17.6776296">
        <ele>9.2699</ele>
        <time>2013-05-18T18:52:08Z</time>
      </trkpt>
      <trkpt lat="59.953232" lon="17.677751">
        <ele>9.2699</ele>
        <time>2013-05-18T18:52:09Z</time>
      </trkpt>
      <trkpt lat="59.9532762" lon="17.67787">
        <ele>8.30859</ele>
        <time>2013-05-18T18:52:10Z</time>
      </trkpt>
      <trkpt lat="59.9533136" lon="17.6779795">
        <ele>7.82788</ele>
        <time>2013-05-18T18:52:11Z</time>
      </trkpt>
      <trkpt lat="59.9533516" lon="17.6780934">
        <ele>8.30859</ele>
        <time>2013-05-18T18:52:12Z</time>
      </trkpt>
      <trkpt lat="59.9533925" lon="17.6782074">
        <ele>7.34717</ele>
        <time>2013-05-18T18:52:13Z</time>
      </trkpt>
      <trkpt lat="59.9534324" lon="17.6783281">
        <ele>7.34717</ele>
        <time>2013-05-18T18:52:14Z</time>
      </trkpt>
      <trkpt lat="59.9534762" lon="17.6784524">
        <ele>7.82788</ele>
        <time>2013-05-18T18:52:15Z</time>
      </trkpt>
      <trkpt lat="59.9535213" lon="17.6785848">
        <ele>8.30859</ele>
        <time>2013-05-18T18:52:16Z</time>
      </trkpt>
      <trkpt lat="59.9535628" lon="17.6787128">
        <ele>8.30859</ele>
        <time>2013-05-18T18:52:17Z</time>
      </trkpt>
      <trkpt lat="59.9536098" lon="17.6788399">
        <ele>10.2312</ele>
        <time>2013-05-18T18:52:18Z</time>
      </trkpt>
      <trkpt lat="59.9536546" lon="17.6789655">
        <ele>11.1925</ele>
        <time>2013-05-18T18:52:19Z</time>
      </trkpt>
      <trkpt lat="59.953699" lon="17.6790837">
        <ele>12.1538</ele>
        <time>2013-05-18T18:52:20Z</time>
      </trkpt>
      <trkpt lat="59.953741" lon="17.6791994">
        <ele>13.1151</ele>
        <time>2013-05-18T18:52:21Z</time>
      </trkpt>
      <trkpt lat="59.9537878" lon="17.6793071">
        <ele>14.557</ele>
        <time>2013-05-18T18:52:22Z</time>
      </trkpt>
      <trkpt lat="59.9538318" lon="17.6794183">
        <ele>15.5184</ele>
        <time>2013-05-18T18:52:23Z</time>
      </trkpt>
      <trkpt lat="59.9538722" lon="17.6795319">
        <ele>15.999</ele>
        <time>2013-05-18T18:52:24Z</time>
      </trkpt>
      <trkpt lat="59.9539098" lon="17.6796459">
        <ele>15.5184</ele>
        <time>2013-05-18T18:52:25Z</time>
      </trkpt>
      <trkpt lat="59.9539577" lon="17.6797453">
        <ele>16.9604</ele>
        <time>2013-05-18T18:52:26Z</time>
      </trkpt>
      <trkpt lat="59.9539995" lon="17.6798513">
        <ele>17.4412</ele>
        <time>2013-05-18T18:52:27Z</time>
      </trkpt>
      <trkpt lat="59.9540452" lon="17.6799648">
        <ele>18.8831</ele>
        <time>2013-05-18T18:52:28Z</time>
      </trkpt>
      <trkpt lat="59.9540898" lon="17.6800836">
        <ele>20.325</ele>
        <time>2013-05-18T18:52:29Z</time>
      </trkpt>
      <trkpt lat="59.9541261" lon="17.6802062">
        <ele>19.3638</ele>
        <time>2013-05-18T18:52:30Z</time>
      </trkpt>
      <trkpt lat="59.9541705" lon="17.6803201">
        <ele>20.325</ele>
        <time>2013-05-18T18:52:31Z</time>
      </trkpt>
      <trkpt lat="59.9542058" lon="17.6804378">
        <ele>19.3638</ele>
        <time>2013-05-18T18:52:32Z</time>
      </trkpt>
      <trkpt lat="59.9542441" lon="17.6805487">
        <ele>18.8831</ele>
        <time>2013-05-18T18:52:33Z</time>
      </trkpt>
      <trkpt lat="59.9542793" lon="17.6806694">
        <ele>17.9218</ele>
        <time>2013-05-18T18:52:34Z</time>
      </trkpt>
      <trkpt lat="59.9543186" lon="17.6807877">
        <ele>18.4023</ele>
        <time>2013-05-18T18:52:35Z</time>
      </trkpt>
      <trkpt lat="59.9543563" lon="17.6809036">
        <ele>18.4023</ele>
        <time>2013-05-18T18:52:36Z</time>
      </trkpt>
      <trkpt lat="59.9543948" lon="17.6810222">
        <ele>19.3638</ele>
        <time>2013-05-18T18:52:37Z</time>
      </trkpt>
      <trkpt lat="59.9544275" lon="17.6811449">
        <ele>18.8831</ele>
        <time>2013-05-18T18:52:38Z</time>
      </trkpt>
      <trkpt lat="59.9544554" lon="17.6812731">
        <ele>17.4412</ele>
        <time>2013-05-18T18:52:39Z</time>
      </trkpt>
      <trkpt lat="59.9544843" lon="17.6814007">
        <ele>16.4797</ele>
        <time>2013-05-18T18:52:40Z</time>
      </trkpt>
      <trkpt lat="59.9545258" lon="17.6815132">
        <ele>17.9218</ele>
        <time>2013-05-18T18:52:41Z</time>
      </trkpt>
      <trkpt lat="59.954569" lon="17.6816181">
        <ele>19.3638</ele>
        <time>2013-05-18T18:52:42Z</time>
      </trkpt>
      <trkpt lat="59.9546112" lon="17.6817239">
        <ele>20.325</ele>
        <time>2013-05-18T18:52:43Z</time>
      </trkpt>
      <trkpt lat="59.9546568" lon="17.6818281">
        <ele>20.8057</ele>
        <time>2013-05-18T18:52:44Z</time>
      </trkpt>
      <trkpt lat="59.9547044" lon="17.6819265">
        <ele>20.8057</ele>
        <time>2013-05-18T18:52:45Z</time>
      </trkpt>
      <trkpt lat="59.9547605" lon="17.6820091">
        <ele>21.2864</ele>
        <time>2013-05-18T18:52:46Z</time>
      </trkpt>
      <trkpt lat="59.9548137" lon="17.6820949">
        <ele>21.2864</ele>
        <time>2013-05-18T18:52:47Z</time>
      </trkpt>
      <trkpt lat="59.9548598" lon="17.6821896">
        <ele>22.2476</ele>
        <time>2013-05-18T18:52:48Z</time>
      </trkpt>
      <trkpt lat="59.9548978" lon="17.6822971">
        <ele>20.8057</ele>
        <time>2013-05-18T18:52:49Z</time>
      </trkpt>
      <trkpt lat="59.9549277" lon="17.6824101">
        <ele>21.767</ele>
        <time>2013-05-18T18:52:50Z</time>
      </trkpt>
      <trkpt lat="59.9549546" lon="17.6825238">
        <ele>22.7283</ele>
        <time>2013-05-18T18:52:51Z</time>
      </trkpt>
      <trkpt lat="59.9549806" lon="17.6826406">
        <ele>22.2476</ele>
        <time>2013-05-18T18:52:52Z</time>
      </trkpt>
      <trkpt lat="59.9550076" lon="17.6827545">
        <ele>22.2476</ele>
        <time>2013-05-18T18:52:53Z</time>
      </trkpt>
      <trkpt lat="59.9550396" lon="17.6828725">
        <ele>20.325</ele>
        <time>2013-05-18T18:52:54Z</time>
      </trkpt>
      <trkpt lat="59.9550722" lon="17.6829933">
        <ele>18.8831</ele>
        <time>2013-05-18T18:52:55Z</time>
      </trkpt>
      <trkpt lat="59.9551066" lon="17.6831124">
        <ele>18.4023</ele>
        <time>2013-05-18T18:52:56Z</time>
      </trkpt>
      <trkpt lat="59.9551442" lon="17.6832398">
        <ele>19.3638</ele>
        <time>2013-05-18T18:52:57Z</time>
      </trkpt>
      <trkpt lat="59.9551766" lon="17.6833683">
        <ele>20.325</ele>
        <time>2013-05-18T18:52:58Z</time>
      </trkpt>
      <trkpt lat="59.9551996" lon="17.6834937">
        <ele>19.8444</ele>
        <time>2013-05-18T18:52:59Z</time>
      </trkpt>
      <trkpt lat="59.9552224" lon="17.6836191">
        <ele>19.3638</ele>
        <time>2013-05-18T18:53:00Z</time>
      </trkpt>
      <trkpt lat="59.9552491" lon="17.6837478">
        <ele>19.8444</ele>
        <time>2013-05-18T18:53:01Z</time>
      </trkpt>
      <trkpt lat="59.9552743" lon="17.6838752">
        <ele>19.8444</ele>
        <time>2013-05-18T18:53:02Z</time>
      </trkpt>
      <trkpt lat="59.9552994" lon="17.6840039">
        <ele>20.325</ele>
        <time>2013-05-18T18:53:03Z</time>
      </trkpt>
      <trkpt lat="59.9553258" lon="17.6841346">
        <ele>21.767</ele>
        <time>2013-05-18T18:53:04Z</time>
      </trkpt>
      <trkpt lat="59.9553504" lon="17.6842625">
        <ele>22.2476</ele>
        <time>2013-05-18T18:53:05Z</time>
      </trkpt>
      <trkpt lat="59.9553785" lon="17.684394">
        <ele>23.209</ele>
        <time>2013-05-18T18:53:06Z</time>
      </trkpt>
      <trkpt lat="59.9554028" lon="17.6845236">
        <ele>24.651</ele>
        <time>2013-05-18T18:53:07Z</time>
      </trkpt>
      <trkpt lat="59.9554302" lon="17.6846633">
        <ele>25.6123</ele>
        <time>2013-05-18T18:53:08Z</time>
      </trkpt>
      <trkpt lat="59.9554496" lon="17.6847975">
        <ele>26.5736</ele>
        <time>2013-05-18T18:53:09Z</time>
      </trkpt>
      <trkpt lat="59.9554693" lon="17.6849239">
        <ele>27.5349</ele>
        <time>2013-05-18T18:53:10Z</time>
      </trkpt>
      <trkpt lat="59.9554987" lon="17.6850545">
        <ele>28.9769</ele>
        <time>2013-05-18T18:53:11Z</time>
      </trkpt>
      <trkpt lat="59.955523" lon="17.6851787">
        <ele>29.9381</ele>
        <time>2013-05-18T18:53:12Z</time>
      </trkpt>
      <trkpt lat="59.9555453" lon="17.685305">
        <ele>30.8995</ele>
        <time>2013-05-18T18:53:13Z</time>
      </trkpt>
      <trkpt lat="59.9555655" lon="17.6854345">
        <ele>30.8995</ele>
        <time>2013-05-18T18:53:14Z</time>
      </trkpt>
      <trkpt lat="59.9555867" lon="17.6855666">
        <ele>30.4188</ele>
        <time>2013-05-18T18:53:15Z</time>
      </trkpt>
      <trkpt lat="59.9556064" lon="17.6856974">
        <ele>31.8607</ele>
        <time>2013-05-18T18:53:16Z</time>
      </trkpt>
      <trkpt lat="59.9556224" lon="17.6858273">
        <ele>31.8607</ele>
        <time>2013-05-18T18:53:17Z</time>
      </trkpt>
      <trkpt lat="59.9556378" lon="17.6859532">
        <ele>31.8607</ele>
        <time>2013-05-18T18:53:18Z</time>
      </trkpt>
      <trkpt lat="59.955652" lon="17.6860806">
        <ele>31.3801</ele>
        <time>2013-05-18T18:53:19Z</time>
      </trkpt>
      <trkpt lat="59.9556671" lon="17.6862008">
        <ele>31.8607</ele>
        <time>2013-05-18T18:53:20Z</time>
      </trkpt>
      <trkpt lat="59.9556812" lon="17.6863272">
        <ele>32.3416</ele>
        <time>2013-05-18T18:53:21Z</time>
      </trkpt>
      <trkpt lat="59.9557002" lon="17.6864475">
        <ele>33.7834</ele>
        <time>2013-05-18T18:53:22Z</time>
      </trkpt>
      <trkpt lat="59.9557365" lon="17.686571">
        <ele>35.7061</ele>
        <time>2013-05-18T18:53:23Z</time>
      </trkpt>
      <trkpt lat="59.9557568" lon="17.6866863">
        <ele>35.7061</ele>
        <time>2013-05-18T18:53:24Z</time>
      </trkpt>
      <trkpt lat="59.9557764" lon="17.6867964">
        <ele>35.7061</ele>
        <time>2013-05-18T18:53:25Z</time>
      </trkpt>
      <trkpt lat="59.9557939" lon="17.6869161">
        <ele>35.2255</ele>
        <time>2013-05-18T18:53:26Z</time>
      </trkpt>
      <trkpt lat="59.955812" lon="17.6870351">
        <ele>35.2255</ele>
        <time>2013-05-18T18:53:27Z</time>
      </trkpt>
      <trkpt lat="59.9558313" lon="17.6871534">
        <ele>35.7061</ele>
        <time>2013-05-18T18:53:28Z</time>
      </trkpt>
      <trkpt lat="59.9558502" lon="17.6872755">
        <ele>35.2255</ele>
        <time>2013-05-18T18:53:29Z</time>
      </trkpt>
      <trkpt lat="59.9558702" lon="17.6873949">
        <ele>34.2642</ele>
        <time>2013-05-18T18:53:30Z</time>
      </trkpt>
      <trkpt lat="59.9558883" lon="17.6875134">
        <ele>34.2642</ele>
        <time>2013-05-18T18:53:31Z</time>
      </trkpt>
      <trkpt lat="59.9559083" lon="17.6876287">
        <ele>34.2642</ele>
        <time>2013-05-18T18:53:32Z</time>
      </trkpt>
      <trkpt lat="59.9559256" lon="17.6877536">
        <ele>33.7834</ele>
        <time>2013-05-18T18:53:33Z</time>
      </trkpt>
      <trkpt lat="59.9559432" lon="17.687882">
        <ele>32.8223</ele>
        <time>2013-05-18T18:53:34Z</time>
      </trkpt>
      <trkpt lat="59.9559666" lon="17.6880128">
        <ele>33.7834</ele>
        <time>2013-05-18T18:53:35Z</time>
      </trkpt>
      <trkpt lat="59.9559856" lon="17.6881449">
        <ele>33.7834</ele>
        <time>2013-05-18T18:53:36Z</time>
      </trkpt>
      <trkpt lat="59.9560077" lon="17.6882728">
        <ele>34.2642</ele>
        <time>2013-05-18T18:53:37Z</time>
      </trkpt>
      <trkpt lat="59.9560286" lon="17.6884035">
        <ele>34.7449</ele>
        <time>2013-05-18T18:53:38Z</time>
      </trkpt>
      <trkpt lat="59.9560504" lon="17.6885262">
        <ele>35.2255</ele>
        <time>2013-05-18T18:53:39Z</time>
      </trkpt>
      <trkpt lat="59.9560722" lon="17.6886378">
        <ele>34.2642</ele>
        <time>2013-05-18T18:53:40Z</time>
      </trkpt>
      <trkpt lat="59.9560805" lon="17.6887479">
        <ele>32.8223</ele>
        <time>2013-05-18T18:53:41Z</time>
      </trkpt>
      <trkpt lat="59.9560939" lon="17.6888614">
        <ele>32.8223</ele>
        <time>2013-05-18T18:53:42Z</time>
      </trkpt>
      <trkpt lat="59.9561094" lon="17.6889655">
        <ele>32.3416</ele>
        <time>2013-05-18T18:53:43Z</time>
      </trkpt>
      <trkpt lat="59.9561289" lon="17.6890654">
        <ele>32.3416</ele>
        <time>2013-05-18T18:53:44Z</time>
      </trkpt>
      <trkpt lat="59.9561522" lon="17.6891672">
        <ele>31.3801</ele>
        <time>2013-05-18T18:53:45Z</time>
      </trkpt>
      <trkpt lat="59.9561812" lon="17.6892648">
        <ele>31.3801</ele>
        <time>2013-05-18T18:53:46Z</time>
      </trkpt>
      <trkpt lat="59.9562048" lon="17.6893591">
        <ele>29.9381</ele>
        <time>2013-05-18T18:53:47Z</time>
      </trkpt>
      <trkpt lat="59.9562271" lon="17.6894596">
        <ele>28.4962</ele>
        <time>2013-05-18T18:53:48Z</time>
      </trkpt>
      <trkpt lat="59.9562507" lon="17.6895534">
        <ele>27.5349</ele>
        <time>2013-05-18T18:53:49Z</time>
      </trkpt>
      <trkpt lat="59.9562741" lon="17.6896445">
        <ele>26.5736</ele>
        <time>2013-05-18T18:53:50Z</time>
      </trkpt>
      <trkpt lat="59.956297" lon="17.6897298">
        <ele>26.0929</ele>
        <time>2013-05-18T18:53:51Z</time>
      </trkpt>
      <trkpt lat="59.9563176" lon="17.6898238">
        <ele>25.6123</ele>
        <time>2013-05-18T18:53:52Z</time>
      </trkpt>
      <trkpt lat="59.9563414" lon="17.6899165">
        <ele>25.6123</ele>
        <time>2013-05-18T18:53:53Z</time>
      </trkpt>
      <trkpt lat="59.9563626" lon="17.6900128">
        <ele>25.1317</ele>
        <time>2013-05-18T18:53:54Z</time>
      </trkpt>
      <trkpt lat="59.956384" lon="17.6900977">
        <ele>24.651</ele>
        <time>2013-05-18T18:53:55Z</time>
      </trkpt>
      <trkpt lat="59.9564118" lon="17.6901889">
        <ele>25.1317</ele>
        <time>2013-05-18T18:53:56Z</time>
      </trkpt>
      <trkpt lat="59.9564477" lon="17.690281">
        <ele>26.5736</ele>
        <time>2013-05-18T18:53:57Z</time>
      </trkpt>
      <trkpt lat="59.9564864" lon="17.6903734">
        <ele>27.5349</ele>
        <time>2013-05-18T18:53:58Z</time>
      </trkpt>
      <trkpt lat="59.9565188" lon="17.6904609">
        <ele>26.5736</ele>
        <time>2013-05-18T18:53:59Z</time>
      </trkpt>
      <trkpt lat="59.9565501" lon="17.6905608">
        <ele>26.5736</ele>
        <time>2013-05-18T18:54:00Z</time>
      </trkpt>
      <trkpt lat="59.9565782" lon="17.690657">
        <ele>25.1317</ele>
        <time>2013-05-18T18:54:01Z</time>
      </trkpt>
      <trkpt lat="59.9566102" lon="17.6907405">
        <ele>24.651</ele>
        <time>2013-05-18T18:54:02Z</time>
      </trkpt>
      <trkpt lat="59.9566364" lon="17.6908355">
        <ele>24.1703</ele>
        <time>2013-05-18T18:54:03Z</time>
      </trkpt>
      <trkpt lat="59.956664" lon="17.6909385">
        <ele>24.1703</ele>
        <time>2013-05-18T18:54:04Z</time>
      </trkpt>
      <trkpt lat="59.9567046" lon="17.6910341">
        <ele>24.1703</ele>
        <time>2013-05-18T18:54:05Z</time>
      </trkpt>
      <trkpt lat="59.9567368" lon="17.6911436">
        <ele>24.651</ele>
        <time>2013-05-18T18:54:06Z</time>
      </trkpt>
      <trkpt lat="59.9567715" lon="17.691259">
        <ele>24.651</ele>
        <time>2013-05-18T18:54:07Z</time>
      </trkpt>
      <trkpt lat="59.9568088" lon="17.6913743">
        <ele>25.1317</ele>
        <time>2013-05-18T18:54:08Z</time>
      </trkpt>
      <trkpt lat="59.9568484" lon="17.6914923">
        <ele>25.6123</ele>
        <time>2013-05-18T18:54:09Z</time>
      </trkpt>
      <trkpt lat="59.9568892" lon="17.6916129">
        <ele>25.6123</ele>
        <time>2013-05-18T18:54:10Z</time>
      </trkpt>
      <trkpt lat="59.9569318" lon="17.6917347">
        <ele>25.6123</ele>
        <time>2013-05-18T18:54:11Z</time>
      </trkpt>
      <trkpt lat="59.9569875" lon="17.6918641">
        <ele>27.0543</ele>
        <time>2013-05-18T18:54:12Z</time>
      </trkpt>
      <trkpt lat="59.9570336" lon="17.6919854">
        <ele>28.4962</ele>
        <time>2013-05-18T18:54:13Z</time>
      </trkpt>
      <trkpt lat="59.9570781" lon="17.6921091">
        <ele>28.9769</ele>
        <time>2013-05-18T18:54:14Z</time>
      </trkpt>
      <trkpt lat="59.957121" lon="17.6922326">
        <ele>29.4575</ele>
        <time>2013-05-18T18:54:15Z</time>
      </trkpt>
      <trkpt lat="59.9571651" lon="17.6923561">
        <ele>29.4575</ele>
        <time>2013-05-18T18:54:16Z</time>
      </trkpt>
      <trkpt lat="59.9572053" lon="17.6924769">
        <ele>29.4575</ele>
        <time>2013-05-18T18:54:17Z</time>
      </trkpt>
      <trkpt lat="59.9572538" lon="17.6925934">
        <ele>29.4575</ele>
        <time>2013-05-18T18:54:18Z</time>
      </trkpt>
      <trkpt lat="59.957301" lon="17.6927092">
        <ele>29.9381</ele>
        <time>2013-05-18T18:54:19Z</time>
      </trkpt>
      <trkpt lat="59.9573413" lon="17.6928327">
        <ele>29.4575</ele>
        <time>2013-05-18T18:54:20Z</time>
      </trkpt>
      <trkpt lat="59.9573817" lon="17.6929535">
        <ele>29.4575</ele>
        <time>2013-05-18T18:54:21Z</time>
      </trkpt>
      <trkpt lat="59.9574231" lon="17.6930727">
        <ele>28.9769</ele>
        <time>2013-05-18T18:54:22Z</time>
      </trkpt>
      <trkpt lat="59.9574676" lon="17.6931939">
        <ele>29.4575</ele>
        <time>2013-05-18T18:54:23Z</time>
      </trkpt>
      <trkpt lat="59.9575076" lon="17.6933137">
        <ele>28.9769</ele>
        <time>2013-05-18T18:54:24Z</time>
      </trkpt>
      <trkpt lat="59.9575454" lon="17.6934331">
        <ele>27.5349</ele>
        <time>2013-05-18T18:54:25Z</time>
      </trkpt>
      <trkpt lat="59.957583" lon="17.6935568">
        <ele>26.5736</ele>
        <time>2013-05-18T18:54:26Z</time>
      </trkpt>
      <trkpt lat="59.957621" lon="17.6936776">
        <ele>26.0929</ele>
        <time>2013-05-18T18:54:27Z</time>
      </trkpt>
      <trkpt lat="59.9576561" lon="17.6937928">
        <ele>25.1317</ele>
        <time>2013-05-18T18:54:28Z</time>
      </trkpt>
      <trkpt lat="59.9576909" lon="17.6939063">
        <ele>24.651</ele>
        <time>2013-05-18T18:54:29Z</time>
      </trkpt>
      <trkpt lat="59.957726" lon="17.6940215">
        <ele>23.6896</ele>
        <time>2013-05-18T18:54:30Z</time>
      </trkpt>
      <trkpt lat="59.9577624" lon="17.6941345">
        <ele>23.209</ele>
        <time>2013-05-18T18:54:31Z</time>
      </trkpt>
      <trkpt lat="59.9577972" lon="17.6942434">
        <ele>22.2476</ele>
        <time>2013-05-18T18:54:32Z</time>
      </trkpt>
      <trkpt lat="59.9578347" lon="17.6943517">
        <ele>21.767</ele>
        <time>2013-05-18T18:54:33Z</time>
      </trkpt>
      <trkpt lat="59.9578729" lon="17.6944589">
        <ele>21.767</ele>
        <time>2013-05-18T18:54:34Z</time>
      </trkpt>
      <trkpt lat="59.9579083" lon="17.6945667">
        <ele>20.8057</ele>
        <time>2013-05-18T18:54:35Z</time>
      </trkpt>
      <trkpt lat="59.9579422" lon="17.6946742">
        <ele>20.325</ele>
        <time>2013-05-18T18:54:36Z</time>
      </trkpt>
      <trkpt lat="59.957981" lon="17.69478">
        <ele>20.8057</ele>
        <time>2013-05-18T18:54:37Z</time>
      </trkpt>
      <trkpt lat="59.9580199" lon="17.6948811">
        <ele>20.8057</ele>
        <time>2013-05-18T18:54:38Z</time>
      </trkpt>
      <trkpt lat="59.9580591" lon="17.694982">
        <ele>20.8057</ele>
        <time>2013-05-18T18:54:39Z</time>
      </trkpt>
      <trkpt lat="59.9581003" lon="17.6950817">
        <ele>20.8057</ele>
        <time>2013-05-18T18:54:40Z</time>
      </trkpt>
      <trkpt lat="59.958144" lon="17.6951841">
        <ele>21.2864</ele>
        <time>2013-05-18T18:54:41Z</time>
      </trkpt>
      <trkpt lat="59.9581856" lon="17.6952851">
        <ele>21.767</ele>
        <time>2013-05-18T18:54:42Z</time>
      </trkpt>
      <trkpt lat="59.9582245" lon="17.6953861">
        <ele>21.767</ele>
        <time>2013-05-18T18:54:43Z</time>
      </trkpt>
      <trkpt lat="59.9582606" lon="17.6954865">
        <ele>21.2864</ele>
        <time>2013-05-18T18:54:44Z</time>
      </trkpt>
      <trkpt lat="59.9582969" lon="17.6955874">
        <ele>20.8057</ele>
        <time>2013-05-18T18:54:45Z</time>
      </trkpt>
      <trkpt lat="59.9583339" lon="17.6956877">
        <ele>20.8057</ele>
        <time>2013-05-18T18:54:46Z</time>
      </trkpt>
      <trkpt lat="59.9583802" lon="17.6957869">
        <ele>21.2864</ele>
        <time>2013-05-18T18:54:47Z</time>
      </trkpt>
      <trkpt lat="59.9584232" lon="17.6958837">
        <ele>20.8057</ele>
        <time>2013-05-18T18:54:48Z</time>
      </trkpt>
      <trkpt lat="59.9584686" lon="17.6959801">
        <ele>20.8057</ele>
        <time>2013-05-18T18:54:49Z</time>
      </trkpt>
      <trkpt lat="59.9585095" lon="17.696072">
        <ele>22.2476</ele>
        <time>2013-05-18T18:54:50Z</time>
      </trkpt>
      <trkpt lat="59.9585497" lon="17.6961615">
        <ele>22.7283</ele>
        <time>2013-05-18T18:54:51Z</time>
      </trkpt>
      <trkpt lat="59.9585895" lon="17.6962541">
        <ele>23.209</ele>
        <time>2013-05-18T18:54:52Z</time>
      </trkpt>
      <trkpt lat="59.9586274" lon="17.6963479">
        <ele>24.1703</ele>
        <time>2013-05-18T18:54:53Z</time>
      </trkpt>
      <trkpt lat="59.958661" lon="17.6964466">
        <ele>23.6896</ele>
        <time>2013-05-18T18:54:54Z</time>
      </trkpt>
      <trkpt lat="59.958691" lon="17.6965497">
        <ele>22.7283</ele>
        <time>2013-05-18T18:54:55Z</time>
      </trkpt>
      <trkpt lat="59.9587197" lon="17.6966588">
        <ele>22.2476</ele>
        <time>2013-05-18T18:54:56Z</time>
      </trkpt>
      <trkpt lat="59.9587467" lon="17.6967703">
        <ele>22.2476</ele>
        <time>2013-05-18T18:54:57Z</time>
      </trkpt>
      <trkpt lat="59.9587683" lon="17.6968894">
        <ele>21.767</ele>
        <time>2013-05-18T18:54:58Z</time>
      </trkpt>
      <trkpt lat="59.9587901" lon="17.6970131">
        <ele>21.767</ele>
        <time>2013-05-18T18:54:59Z</time>
      </trkpt>
      <trkpt lat="59.958812" lon="17.6971359">
        <ele>21.2864</ele>
        <time>2013-05-18T18:55:00Z</time>
      </trkpt>
      <trkpt lat="59.9588333" lon="17.6972524">
        <ele>21.2864</ele>
        <time>2013-05-18T18:55:01Z</time>
      </trkpt>
      <trkpt lat="59.9588502" lon="17.6973668">
        <ele>20.325</ele>
        <time>2013-05-18T18:55:02Z</time>
      </trkpt>
      <trkpt lat="59.9588714" lon="17.6974711">
        <ele>20.325</ele>
        <time>2013-05-18T18:55:03Z</time>
      </trkpt>
      <trkpt lat="59.9588892" lon="17.697578">
        <ele>20.325</ele>
        <time>2013-05-18T18:55:04Z</time>
      </trkpt>
      <trkpt lat="59.9589035" lon="17.697681">
        <ele>20.325</ele>
        <time>2013-05-18T18:55:05Z</time>
      </trkpt>
      <trkpt lat="59.9589124" lon="17.6977952">
        <ele>20.325</ele>
        <time>2013-05-18T18:55:06Z</time>
      </trkpt>
      <trkpt lat="59.9589274" lon="17.6979074">
        <ele>20.325</ele>
        <time>2013-05-18T18:55:07Z</time>
      </trkpt>
      <trkpt lat="59.9589332" lon="17.6980191">
        <ele>20.325</ele>
        <time>2013-05-18T18:55:08Z</time>
      </trkpt>
      <trkpt lat="59.9589488" lon="17.6981383">
        <ele>21.2864</ele>
        <time>2013-05-18T18:55:09Z</time>
      </trkpt>
      <trkpt lat="59.9589643" lon="17.6982658">
        <ele>22.2476</ele>
        <time>2013-05-18T18:55:10Z</time>
      </trkpt>
      <trkpt lat="59.9589726" lon="17.6983969">
        <ele>23.209</ele>
        <time>2013-05-18T18:55:11Z</time>
      </trkpt>
      <trkpt lat="59.9589854" lon="17.6985257">
        <ele>24.651</ele>
        <time>2013-05-18T18:55:12Z</time>
      </trkpt>
      <trkpt lat="59.9589993" lon="17.6986535">
        <ele>25.6123</ele>
        <time>2013-05-18T18:55:13Z</time>
      </trkpt>
      <trkpt lat="59.9590098" lon="17.6987753">
        <ele>26.5736</ele>
        <time>2013-05-18T18:55:14Z</time>
      </trkpt>
      <trkpt lat="59.9590201" lon="17.6989069">
        <ele>27.5349</ele>
        <time>2013-05-18T18:55:15Z</time>
      </trkpt>
      <trkpt lat="59.9590326" lon="17.6990384">
        <ele>28.4962</ele>
        <time>2013-05-18T18:55:16Z</time>
      </trkpt>
      <trkpt lat="59.9590413" lon="17.6991662">
        <ele>28.9769</ele>
        <time>2013-05-18T18:55:17Z</time>
      </trkpt>
      <trkpt lat="59.9590472" lon="17.6992956">
        <ele>28.0155</ele>
        <time>2013-05-18T18:55:18Z</time>
      </trkpt>
      <trkpt lat="59.9590564" lon="17.6994251">
        <ele>27.0543</ele>
        <time>2013-05-18T18:55:19Z</time>
      </trkpt>
      <trkpt lat="59.9590871" lon="17.699568">
        <ele>29.9381</ele>
        <time>2013-05-18T18:55:20Z</time>
      </trkpt>
      <trkpt lat="59.9591144" lon="17.6997035">
        <ele>31.3801</ele>
        <time>2013-05-18T18:55:21Z</time>
      </trkpt>
      <trkpt lat="59.9591306" lon="17.6998338">
        <ele>32.3416</ele>
        <time>2013-05-18T18:55:22Z</time>
      </trkpt>
      <trkpt lat="59.9591487" lon="17.69997">
        <ele>34.2642</ele>
        <time>2013-05-18T18:55:23Z</time>
      </trkpt>
      <trkpt lat="59.9591639" lon="17.7000995">
        <ele>35.7061</ele>
        <time>2013-05-18T18:55:24Z</time>
      </trkpt>
      <trkpt lat="59.9591781" lon="17.7002171">
        <ele>36.6675</ele>
        <time>2013-05-18T18:55:25Z</time>
      </trkpt>
      <trkpt lat="59.9591891" lon="17.700343">
        <ele>37.1481</ele>
        <time>2013-05-18T18:55:26Z</time>
      </trkpt>
      <trkpt lat="59.9591904" lon="17.7004631">
        <ele>35.7061</ele>
        <time>2013-05-18T18:55:27Z</time>
      </trkpt>
      <trkpt lat="59.9591952" lon="17.7005866">
        <ele>35.2255</ele>
        <time>2013-05-18T18:55:28Z</time>
      </trkpt>
      <trkpt lat="59.9591986" lon="17.7007096">
        <ele>34.7449</ele>
        <time>2013-05-18T18:55:29Z</time>
      </trkpt>
      <trkpt lat="59.9592009" lon="17.7008307">
        <ele>34.7449</ele>
        <time>2013-05-18T18:55:30Z</time>
      </trkpt>
      <trkpt lat="59.9592076" lon="17.7009454">
        <ele>34.2642</ele>
        <time>2013-05-18T18:55:31Z</time>
      </trkpt>
      <trkpt lat="59.9592159" lon="17.7010547">
        <ele>33.3029</ele>
        <time>2013-05-18T18:55:32Z</time>
      </trkpt>
      <trkpt lat="59.9592259" lon="17.7011604">
        <ele>32.3416</ele>
        <time>2013-05-18T18:55:33Z</time>
      </trkpt>
      <trkpt lat="59.959245" lon="17.7012688">
        <ele>32.3416</ele>
        <time>2013-05-18T18:55:34Z</time>
      </trkpt>
      <trkpt lat="59.9592585" lon="17.7013863">
        <ele>32.3416</ele>
        <time>2013-05-18T18:55:35Z</time>
      </trkpt>
      <trkpt lat="59.9592764" lon="17.7015016">
        <ele>32.8223</ele>
        <time>2013-05-18T18:55:36Z</time>
      </trkpt>
      <trkpt lat="59.9592941" lon="17.7016145">
        <ele>33.3029</ele>
        <time>2013-05-18T18:55:37Z</time>
      </trkpt>
      <trkpt lat="59.9593154" lon="17.7017225">
        <ele>33.3029</ele>
        <time>2013-05-18T18:55:38Z</time>
      </trkpt>
      <trkpt lat="59.9593372" lon="17.7018266">
        <ele>33.3029</ele>
        <time>2013-05-18T18:55:39Z</time>
      </trkpt>
      <trkpt lat="59.9593634" lon="17.7019271">
        <ele>33.7834</ele>
        <time>2013-05-18T18:55:40Z</time>
      </trkpt>
      <trkpt lat="59.9593926" lon="17.7020233">
        <ele>33.3029</ele>
        <time>2013-05-18T18:55:41Z</time>
      </trkpt>
      <trkpt lat="59.9594221" lon="17.7021261">
        <ele>33.3029</ele>
        <time>2013-05-18T18:55:42Z</time>
      </trkpt>
      <trkpt lat="59.9594485" lon="17.702241">
        <ele>33.7834</ele>
        <time>2013-05-18T18:55:43Z</time>
      </trkpt>
      <trkpt lat="59.959477" lon="17.7023478">
        <ele>34.2642</ele>
        <time>2013-05-18T18:55:44Z</time>
      </trkpt>
      <trkpt lat="59.9595038" lon="17.702455">
        <ele>34.2642</ele>
        <time>2013-05-18T18:55:45Z</time>
      </trkpt>
      <trkpt lat="59.9595284" lon="17.7025627">
        <ele>34.2642</ele>
        <time>2013-05-18T18:55:46Z</time>
      </trkpt>
      <trkpt lat="59.9595584" lon="17.702665">
        <ele>34.7449</ele>
        <time>2013-05-18T18:55:47Z</time>
      </trkpt>
      <trkpt lat="59.9595883" lon="17.7027595">
        <ele>34.7449</ele>
        <time>2013-05-18T18:55:48Z</time>
      </trkpt>
      <trkpt lat="59.9596226" lon="17.7028522">
        <ele>35.2255</ele>
        <time>2013-05-18T18:55:49Z</time>
      </trkpt>
      <trkpt lat="59.9596567" lon="17.7029553">
        <ele>35.2255</ele>
        <time>2013-05-18T18:55:50Z</time>
      </trkpt>
      <trkpt lat="59.9596903" lon="17.7030595">
        <ele>34.2642</ele>
        <time>2013-05-18T18:55:51Z</time>
      </trkpt>
      <trkpt lat="59.9597241" lon="17.7031701">
        <ele>33.3029</ele>
        <time>2013-05-18T18:55:52Z</time>
      </trkpt>
      <trkpt lat="59.9597548" lon="17.7032875">
        <ele>32.8223</ele>
        <time>2013-05-18T18:55:53Z</time>
      </trkpt>
      <trkpt lat="59.9597894" lon="17.7034082">
        <ele>30.8995</ele>
        <time>2013-05-18T18:55:54Z</time>
      </trkpt>
      <trkpt lat="59.9598339" lon="17.7035345">
        <ele>31.3801</ele>
        <time>2013-05-18T18:55:55Z</time>
      </trkpt>
      <trkpt lat="59.9598811" lon="17.7036591">
        <ele>32.8223</ele>
        <time>2013-05-18T18:55:56Z</time>
      </trkpt>
      <trkpt lat="59.9599236" lon="17.7037861">
        <ele>33.3029</ele>
        <time>2013-05-18T18:55:57Z</time>
      </trkpt>
      <trkpt lat="59.9599661" lon="17.703909">
        <ele>33.3029</ele>
        <time>2013-05-18T18:55:58Z</time>
      </trkpt>
      <trkpt lat="59.9600036" lon="17.7040328">
        <ele>31.8607</ele>
        <time>2013-05-18T18:55:59Z</time>
      </trkpt>
      <trkpt lat="59.9600493" lon="17.7041514">
        <ele>30.4188</ele>
        <time>2013-05-18T18:56:00Z</time>
      </trkpt>
      <trkpt lat="59.9601002" lon="17.7042626">
        <ele>29.9381</ele>
        <time>2013-05-18T18:56:01Z</time>
      </trkpt>
      <trkpt lat="59.9601586" lon="17.7043558">
        <ele>29.4575</ele>
        <time>2013-05-18T18:56:02Z</time>
      </trkpt>
      <trkpt lat="59.9602183" lon="17.7044413">
        <ele>28.4962</ele>
        <time>2013-05-18T18:56:03Z</time>
      </trkpt>
      <trkpt lat="59.9602768" lon="17.7045239">
        <ele>27.0543</ele>
        <time>2013-05-18T18:56:04Z</time>
      </trkpt>
      <trkpt lat="59.9603316" lon="17.704613">
        <ele>26.0929</ele>
        <time>2013-05-18T18:56:05Z</time>
      </trkpt>
      <trkpt lat="59.960398" lon="17.7046895">
        <ele>26.5736</ele>
        <time>2013-05-18T18:56:06Z</time>
      </trkpt>
      <trkpt lat="59.9604572" lon="17.7047709">
        <ele>25.6123</ele>
        <time>2013-05-18T18:56:07Z</time>
      </trkpt>
      <trkpt lat="59.9605154" lon="17.7048572">
        <ele>25.1317</ele>
        <time>2013-05-18T18:56:08Z</time>
      </trkpt>
      <trkpt lat="59.9605757" lon="17.7049433">
        <ele>24.651</ele>
        <time>2013-05-18T18:56:09Z</time>
      </trkpt>
      <trkpt lat="59.9606399" lon="17.7050248">
        <ele>24.1703</ele>
        <time>2013-05-18T18:56:10Z</time>
      </trkpt>
      <trkpt lat="59.9606981" lon="17.7051055">
        <ele>24.1703</ele>
        <time>2013-05-18T18:56:11Z</time>
      </trkpt>
      <trkpt lat="59.9607489" lon="17.7051869">
        <ele>24.651</ele>
        <time>2013-05-18T18:56:12Z</time>
      </trkpt>
      <trkpt lat="59.960805" lon="17.705266">
        <ele>25.6123</ele>
        <time>2013-05-18T18:56:13Z</time>
      </trkpt>
      <trkpt lat="59.9608632" lon="17.7053493">
        <ele>26.0929</ele>
        <time>2013-05-18T18:56:14Z</time>
      </trkpt>
      <trkpt lat="59.9609182" lon="17.7054419">
        <ele>25.6123</ele>
        <time>2013-05-18T18:56:15Z</time>
      </trkpt>
      <trkpt lat="59.9609803" lon="17.7055268">
        <ele>25.6123</ele>
        <time>2013-05-18T18:56:16Z</time>
      </trkpt>
      <trkpt lat="59.9610391" lon="17.7056148">
        <ele>26.0929</ele>
        <time>2013-05-18T18:56:17Z</time>
      </trkpt>
      <trkpt lat="59.961093" lon="17.7057073">
        <ele>27.0543</ele>
        <time>2013-05-18T18:56:18Z</time>
      </trkpt>
      <trkpt lat="59.9611445" lon="17.7058089">
        <ele>28.0155</ele>
        <time>2013-05-18T18:56:19Z</time>
      </trkpt>
      <trkpt lat="59.9611925" lon="17.7059214">
        <ele>28.4962</ele>
        <time>2013-05-18T18:56:20Z</time>
      </trkpt>
      <trkpt lat="59.9612482" lon="17.7060135">
        <ele>27.5349</ele>
        <time>2013-05-18T18:56:21Z</time>
      </trkpt>
      <trkpt lat="59.961299" lon="17.7061095">
        <ele>27.0543</ele>
        <time>2013-05-18T18:56:22Z</time>
      </trkpt>
      <trkpt lat="59.9613538" lon="17.7061999">
        <ele>27.5349</ele>
        <time>2013-05-18T18:56:23Z</time>
      </trkpt>
      <trkpt lat="59.961407" lon="17.7062958">
        <ele>27.5349</ele>
        <time>2013-05-18T18:56:24Z</time>
      </trkpt>
      <trkpt lat="59.9614579" lon="17.7063958">
        <ele>27.5349</ele>
        <time>2013-05-18T18:56:25Z</time>
      </trkpt>
      <trkpt lat="59.9615157" lon="17.7064778">
        <ele>27.5349</ele>
        <time>2013-05-18T18:56:26Z</time>
      </trkpt>
      <trkpt lat="59.9615838" lon="17.7065389">
        <ele>28.0155</ele>
        <time>2013-05-18T18:56:27Z</time>
      </trkpt>
      <trkpt lat="59.961648" lon="17.7066005">
        <ele>28.0155</ele>
        <time>2013-05-18T18:56:28Z</time>
      </trkpt>
      <trkpt lat="59.9617091" lon="17.7066631">
        <ele>28.4962</ele>
        <time>2013-05-18T18:56:29Z</time>
      </trkpt>
      <trkpt lat="59.961773" lon="17.7067216">
        <ele>28.9769</ele>
        <time>2013-05-18T18:56:30Z</time>
      </trkpt>
      <trkpt lat="59.9618454" lon="17.7067736">
        <ele>29.9381</ele>
        <time>2013-05-18T18:56:31Z</time>
      </trkpt>
      <trkpt lat="59.961919" lon="17.7068211">
        <ele>30.4188</ele>
        <time>2013-05-18T18:56:32Z</time>
      </trkpt>
      <trkpt lat="59.961992" lon="17.7068657">
        <ele>30.4188</ele>
        <time>2013-05-18T18:56:33Z</time>
      </trkpt>
      <trkpt lat="59.9620638" lon="17.7069123">
        <ele>30.8995</ele>
        <time>2013-05-18T18:56:34Z</time>
      </trkpt>
      <trkpt lat="59.9621371" lon="17.706955">
        <ele>30.8995</ele>
        <time>2013-05-18T18:56:35Z</time>
      </trkpt>
      <trkpt lat="59.9622075" lon="17.7069982">
        <ele>30.8995</ele>
        <time>2013-05-18T18:56:36Z</time>
      </trkpt>
      <trkpt lat="59.9622795" lon="17.7070353">
        <ele>31.3801</ele>
        <time>2013-05-18T18:56:37Z</time>
      </trkpt>
      <trkpt lat="59.9623502" lon="17.7070715">
        <ele>31.3801</ele>
        <time>2013-05-18T18:56:38Z</time>
      </trkpt>
      <trkpt lat="59.9624233" lon="17.7071023">
        <ele>31.3801</ele>
        <time>2013-05-18T18:56:39Z</time>
      </trkpt>
      <trkpt lat="59.9624979" lon="17.7071284">
        <ele>31.8607</ele>
        <time>2013-05-18T18:56:40Z</time>
      </trkpt>
      <trkpt lat="59.9625711" lon="17.7071547">
        <ele>31.8607</ele>
        <time>2013-05-18T18:56:41Z</time>
      </trkpt>
      <trkpt lat="59.9626472" lon="17.7071718">
        <ele>32.3416</ele>
        <time>2013-05-18T18:56:42Z</time>
      </trkpt>
      <trkpt lat="59.9627263" lon="17.7071803">
        <ele>32.3416</ele>
        <time>2013-05-18T18:56:43Z</time>
      </trkpt>
      <trkpt lat="59.9628047" lon="17.7071859">
        <ele>32.8223</ele>
        <time>2013-05-18T18:56:44Z</time>
      </trkpt>
      <trkpt lat="59.9628767" lon="17.7071983">
        <ele>32.3416</ele>
        <time>2013-05-18T18:56:45Z</time>
      </trkpt>
      <trkpt lat="59.9629486" lon="17.7072083">
        <ele>31.8607</ele>
        <time>2013-05-18T18:56:46Z</time>
      </trkpt>
      <trkpt lat="59.9630238" lon="17.7072113">
        <ele>31.8607</ele>
        <time>2013-05-18T18:56:47Z</time>
      </trkpt>
      <trkpt lat="59.9630967" lon="17.7072154">
        <ele>31.3801</ele>
        <time>2013-05-18T18:56:48Z</time>
      </trkpt>
      <trkpt lat="59.9631703" lon="17.7072122">
        <ele>31.3801</ele>
        <time>2013-05-18T18:56:49Z</time>
      </trkpt>
      <trkpt lat="59.9632559" lon="17.7072097">
        <ele>31.3801</ele>
        <time>2013-05-18T18:56:50Z</time>
      </trkpt>
      <trkpt lat="59.9633448" lon="17.7072072">
        <ele>30.8995</ele>
        <time>2013-05-18T18:56:51Z</time>
      </trkpt>
      <trkpt lat="59.963423" lon="17.7072044">
        <ele>30.4188</ele>
        <time>2013-05-18T18:56:52Z</time>
      </trkpt>
      <trkpt lat="59.9634978" lon="17.7072024">
        <ele>30.4188</ele>
        <time>2013-05-18T18:56:53Z</time>
      </trkpt>
      <trkpt lat="59.9635719" lon="17.7072019">
        <ele>30.4188</ele>
        <time>2013-05-18T18:56:54Z</time>
      </trkpt>
      <trkpt lat="59.9636481" lon="17.7072057">
        <ele>29.9381</ele>
        <time>2013-05-18T18:56:55Z</time>
      </trkpt>
      <trkpt lat="59.9637246" lon="17.7072091">
        <ele>29.4575</ele>
        <time>2013-05-18T18:56:56Z</time>
      </trkpt>
      <trkpt lat="59.9637998" lon="17.7072123">
        <ele>28.9769</ele>
        <time>2013-05-18T18:56:57Z</time>
      </trkpt>
      <trkpt lat="59.9638743" lon="17.7072154">
        <ele>28.4962</ele>
        <time>2013-05-18T18:56:58Z</time>
      </trkpt>
      <trkpt lat="59.9639506" lon="17.7072154">
        <ele>28.4962</ele>
        <time>2013-05-18T18:56:59Z</time>
      </trkpt>
      <trkpt lat="59.9640236" lon="17.707228">
        <ele>27.0543</ele>
        <time>2013-05-18T18:57:00Z</time>
      </trkpt>
      <trkpt lat="59.9641018" lon="17.7072392">
        <ele>25.6123</ele>
        <time>2013-05-18T18:57:01Z</time>
      </trkpt>
      <trkpt lat="59.9641779" lon="17.7072539">
        <ele>25.6123</ele>
        <time>2013-05-18T18:57:02Z</time>
      </trkpt>
      <trkpt lat="59.9642473" lon="17.7072719">
        <ele>25.6123</ele>
        <time>2013-05-18T18:57:03Z</time>
      </trkpt>
      <trkpt lat="59.9643199" lon="17.7072922">
        <ele>25.6123</ele>
        <time>2013-05-18T18:57:04Z</time>
      </trkpt>
      <trkpt lat="59.9643918" lon="17.7073163">
        <ele>26.0929</ele>
        <time>2013-05-18T18:57:05Z</time>
      </trkpt>
      <trkpt lat="59.9644611" lon="17.7073468">
        <ele>26.0929</ele>
        <time>2013-05-18T18:57:06Z</time>
      </trkpt>
      <trkpt lat="59.9645288" lon="17.7073833">
        <ele>25.6123</ele>
        <time>2013-05-18T18:57:07Z</time>
      </trkpt>
      <trkpt lat="59.9645958" lon="17.707421">
        <ele>25.6123</ele>
        <time>2013-05-18T18:57:08Z</time>
      </trkpt>
      <trkpt lat="59.9646614" lon="17.707463">
        <ele>25.1317</ele>
        <time>2013-05-18T18:57:09Z</time>
      </trkpt>
      <trkpt lat="59.9647284" lon="17.7075102">
        <ele>25.1317</ele>
        <time>2013-05-18T18:57:10Z</time>
      </trkpt>
      <trkpt lat="59.9647964" lon="17.7075599">
        <ele>25.6123</ele>
        <time>2013-05-18T18:57:11Z</time>
      </trkpt>
      <trkpt lat="59.9648657" lon="17.7076132">
        <ele>25.1317</ele>
        <time>2013-05-18T18:57:12Z</time>
      </trkpt>
      <trkpt lat="59.9649358" lon="17.7076703">
        <ele>25.1317</ele>
        <time>2013-05-18T18:57:13Z</time>
      </trkpt>
      <trkpt lat="59.9650063" lon="17.7077257">
        <ele>25.1317</ele>
        <time>2013-05-18T18:57:14Z</time>
      </trkpt>
      <trkpt lat="59.9650781" lon="17.7077786">
        <ele>25.1317</ele>
        <time>2013-05-18T18:57:15Z</time>
      </trkpt>
      <trkpt lat="59.9651509" lon="17.707834">
        <ele>25.1317</ele>
        <time>2013-05-18T18:57:16Z</time>
      </trkpt>
      <trkpt lat="59.9652224" lon="17.7078936">
        <ele>25.1317</ele>
        <time>2013-05-18T18:57:17Z</time>
      </trkpt>
      <trkpt lat="59.9652931" lon="17.707956">
        <ele>25.1317</ele>
        <time>2013-05-18T18:57:18Z</time>
      </trkpt>
      <trkpt lat="59.965364" lon="17.7080213">
        <ele>25.1317</ele>
        <time>2013-05-18T18:57:19Z</time>
      </trkpt>
      <trkpt lat="59.9654321" lon="17.7080919">
        <ele>25.6123</ele>
        <time>2013-05-18T18:57:20Z</time>
      </trkpt>
      <trkpt lat="59.9654995" lon="17.7081675">
        <ele>25.6123</ele>
        <time>2013-05-18T18:57:21Z</time>
      </trkpt>
      <trkpt lat="59.9655754" lon="17.7082559">
        <ele>25.6123</ele>
        <time>2013-05-18T18:57:22Z</time>
      </trkpt>
      <trkpt lat="59.9656398" lon="17.7083453">
        <ele>26.0929</ele>
        <time>2013-05-18T18:57:23Z</time>
      </trkpt>
      <trkpt lat="59.9657041" lon="17.7084417">
        <ele>26.5736</ele>
        <time>2013-05-18T18:57:24Z</time>
      </trkpt>
      <trkpt lat="59.9657657" lon="17.7085471">
        <ele>27.0543</ele>
        <time>2013-05-18T18:57:25Z</time>
      </trkpt>
      <trkpt lat="59.9658202" lon="17.7086626">
        <ele>27.5349</ele>
        <time>2013-05-18T18:57:26Z</time>
      </trkpt>
      <trkpt lat="59.9658647" lon="17.7087856">
        <ele>27.5349</ele>
        <time>2013-05-18T18:57:27Z</time>
      </trkpt>
      <trkpt lat="59.9659055" lon="17.7089112">
        <ele>27.0543</ele>
        <time>2013-05-18T18:57:28Z</time>
      </trkpt>
      <trkpt lat="59.9659431" lon="17.7090351">
        <ele>27.0543</ele>
        <time>2013-05-18T18:57:29Z</time>
      </trkpt>
      <trkpt lat="59.9659797" lon="17.7091574">
        <ele>27.5349</ele>
        <time>2013-05-18T18:57:30Z</time>
      </trkpt>
      <trkpt lat="59.9660138" lon="17.7092791">
        <ele>27.5349</ele>
        <time>2013-05-18T18:57:31Z</time>
      </trkpt>
      <trkpt lat="59.9660467" lon="17.7093969">
        <ele>26.5736</ele>
        <time>2013-05-18T18:57:32Z</time>
      </trkpt>
      <trkpt lat="59.966076" lon="17.7095142">
        <ele>25.1317</ele>
        <time>2013-05-18T18:57:33Z</time>
      </trkpt>
      <trkpt lat="59.9661069" lon="17.7096314">
        <ele>25.6123</ele>
        <time>2013-05-18T18:57:34Z</time>
      </trkpt>
      <trkpt lat="59.9661361" lon="17.7097449">
        <ele>25.1317</ele>
        <time>2013-05-18T18:57:35Z</time>
      </trkpt>
      <trkpt lat="59.9661639" lon="17.7098576">
        <ele>24.651</ele>
        <time>2013-05-18T18:57:36Z</time>
      </trkpt>
      <trkpt lat="59.966191" lon="17.709969">
        <ele>24.1703</ele>
        <time>2013-05-18T18:57:37Z</time>
      </trkpt>
      <trkpt lat="59.966221" lon="17.7100838">
        <ele>23.6896</ele>
        <time>2013-05-18T18:57:38Z</time>
      </trkpt>
      <trkpt lat="59.96625" lon="17.7101972">
        <ele>23.209</ele>
        <time>2013-05-18T18:57:39Z</time>
      </trkpt>
      <trkpt lat="59.9662791" lon="17.710311">
        <ele>23.6896</ele>
        <time>2013-05-18T18:57:40Z</time>
      </trkpt>
      <trkpt lat="59.9663079" lon="17.7104254">
        <ele>23.209</ele>
        <time>2013-05-18T18:57:41Z</time>
      </trkpt>
      <trkpt lat="59.966336" lon="17.7105359">
        <ele>23.209</ele>
        <time>2013-05-18T18:57:42Z</time>
      </trkpt>
      <trkpt lat="59.9663636" lon="17.7106457">
        <ele>22.7283</ele>
        <time>2013-05-18T18:57:43Z</time>
      </trkpt>
      <trkpt lat="59.966391" lon="17.7107543">
        <ele>21.767</ele>
        <time>2013-05-18T18:57:44Z</time>
      </trkpt>
      <trkpt lat="59.9664179" lon="17.7108607">
        <ele>21.2864</ele>
        <time>2013-05-18T18:57:45Z</time>
      </trkpt>
      <trkpt lat="59.9664444" lon="17.7109668">
        <ele>20.8057</ele>
        <time>2013-05-18T18:57:46Z</time>
      </trkpt>
      <trkpt lat="59.966472" lon="17.7110735">
        <ele>20.325</ele>
        <time>2013-05-18T18:57:47Z</time>
      </trkpt>
      <trkpt lat="59.9664977" lon="17.7111747">
        <ele>20.325</ele>
        <time>2013-05-18T18:57:48Z</time>
      </trkpt>
      <trkpt lat="59.9665214" lon="17.7112738">
        <ele>20.325</ele>
        <time>2013-05-18T18:57:49Z</time>
      </trkpt>
      <trkpt lat="59.9665457" lon="17.7113714">
        <ele>20.325</ele>
        <time>2013-05-18T18:57:50Z</time>
      </trkpt>
      <trkpt lat="59.9665712" lon="17.7114698">
        <ele>19.8444</ele>
        <time>2013-05-18T18:57:51Z</time>
      </trkpt>
      <trkpt lat="59.9665954" lon="17.7115683">
        <ele>18.8831</ele>
        <time>2013-05-18T18:57:52Z</time>
      </trkpt>
      <trkpt lat="59.9666124" lon="17.7116751">
        <ele>18.4023</ele>
        <time>2013-05-18T18:57:53Z</time>
      </trkpt>
      <trkpt lat="59.966638" lon="17.7117827">
        <ele>18.4023</ele>
        <time>2013-05-18T18:57:54Z</time>
      </trkpt>
      <trkpt lat="59.9666768" lon="17.711892">
        <ele>20.325</ele>
        <time>2013-05-18T18:57:55Z</time>
      </trkpt>
      <trkpt lat="59.9667089" lon="17.7119889">
        <ele>19.8444</ele>
        <time>2013-05-18T18:57:56Z</time>
      </trkpt>
      <trkpt lat="59.9667369" lon="17.7120825">
        <ele>19.3638</ele>
        <time>2013-05-18T18:57:57Z</time>
      </trkpt>
      <trkpt lat="59.9667623" lon="17.7121805">
        <ele>18.4023</ele>
        <time>2013-05-18T18:57:58Z</time>
      </trkpt>
      <trkpt lat="59.9667887" lon="17.7122845">
        <ele>18.4023</ele>
        <time>2013-05-18T18:57:59Z</time>
      </trkpt>
      <trkpt lat="59.9668134" lon="17.7123933">
        <ele>17.9218</ele>
        <time>2013-05-18T18:58:00Z</time>
      </trkpt>
      <trkpt lat="59.9668326" lon="17.7125104">
        <ele>17.4412</ele>
        <time>2013-05-18T18:58:01Z</time>
      </trkpt>
      <trkpt lat="59.966865" lon="17.7126303">
        <ele>18.8831</ele>
        <time>2013-05-18T18:58:02Z</time>
      </trkpt>
      <trkpt lat="59.9668824" lon="17.7127488">
        <ele>18.8831</ele>
        <time>2013-05-18T18:58:03Z</time>
      </trkpt>
      <trkpt lat="59.9669011" lon="17.7128605">
        <ele>17.9218</ele>
        <time>2013-05-18T18:58:04Z</time>
      </trkpt>
      <trkpt lat="59.9669192" lon="17.7129721">
        <ele>17.4412</ele>
        <time>2013-05-18T18:58:05Z</time>
      </trkpt>
      <trkpt lat="59.9669421" lon="17.713072">
        <ele>16.9604</ele>
        <time>2013-05-18T18:58:06Z</time>
      </trkpt>
      <trkpt lat="59.9669641" lon="17.7131756">
        <ele>15.999</ele>
        <time>2013-05-18T18:58:07Z</time>
      </trkpt>
      <trkpt lat="59.9669835" lon="17.713287">
        <ele>15.0377</ele>
        <time>2013-05-18T18:58:08Z</time>
      </trkpt>
      <trkpt lat="59.9670032" lon="17.713403">
        <ele>14.557</ele>
        <time>2013-05-18T18:58:09Z</time>
      </trkpt>
      <trkpt lat="59.9670244" lon="17.7135228">
        <ele>14.0764</ele>
        <time>2013-05-18T18:58:10Z</time>
      </trkpt>
      <trkpt lat="59.9670462" lon="17.7136474">
        <ele>13.1151</ele>
        <time>2013-05-18T18:58:11Z</time>
      </trkpt>
      <trkpt lat="59.9670664" lon="17.7137755">
        <ele>12.1538</ele>
        <time>2013-05-18T18:58:12Z</time>
      </trkpt>
      <trkpt lat="59.9670857" lon="17.7139089">
        <ele>11.6732</ele>
        <time>2013-05-18T18:58:13Z</time>
      </trkpt>
      <trkpt lat="59.9671038" lon="17.7140475">
        <ele>11.1925</ele>
        <time>2013-05-18T18:58:14Z</time>
      </trkpt>
      <trkpt lat="59.9671268" lon="17.714179">
        <ele>10.2312</ele>
        <time>2013-05-18T18:58:15Z</time>
      </trkpt>
      <trkpt lat="59.9671494" lon="17.7143147">
        <ele>9.75061</ele>
        <time>2013-05-18T18:58:16Z</time>
      </trkpt>
      <trkpt lat="59.9671731" lon="17.7144593">
        <ele>9.2699</ele>
        <time>2013-05-18T18:58:17Z</time>
      </trkpt>
      <trkpt lat="59.9671955" lon="17.7146088">
        <ele>8.78918</ele>
        <time>2013-05-18T18:58:18Z</time>
      </trkpt>
      <trkpt lat="59.9672151" lon="17.7147602">
        <ele>7.34717</ele>
        <time>2013-05-18T18:58:19Z</time>
      </trkpt>
      <trkpt lat="59.9672518" lon="17.7149141">
        <ele>8.78918</ele>
        <time>2013-05-18T18:58:20Z</time>
      </trkpt>
      <trkpt lat="59.9672744" lon="17.7150625">
        <ele>8.78918</ele>
        <time>2013-05-18T18:58:21Z</time>
      </trkpt>
      <trkpt lat="59.9672986" lon="17.715226">
        <ele>8.78918</ele>
        <time>2013-05-18T18:58:22Z</time>
      </trkpt>
      <trkpt lat="59.96733" lon="17.7153901">
        <ele>9.2699</ele>
        <time>2013-05-18T18:58:23Z</time>
      </trkpt>
      <trkpt lat="59.9673584" lon="17.7155336">
        <ele>9.75061</ele>
        <time>2013-05-18T18:58:24Z</time>
      </trkpt>
      <trkpt lat="59.9673954" lon="17.7156709">
        <ele>11.1925</ele>
        <time>2013-05-18T18:58:25Z</time>
      </trkpt>
      <trkpt lat="59.9674244" lon="17.7157915">
        <ele>11.1925</ele>
        <time>2013-05-18T18:58:26Z</time>
      </trkpt>
      <trkpt lat="59.9674663" lon="17.7159083">
        <ele>13.5958</ele>
        <time>2013-05-18T18:58:27Z</time>
      </trkpt>
      <trkpt lat="59.9674964" lon="17.7160207">
        <ele>14.0764</ele>
        <time>2013-05-18T18:58:28Z</time>
      </trkpt>
      <trkpt lat="59.9675388" lon="17.7161376">
        <ele>16.4797</ele>
        <time>2013-05-18T18:58:29Z</time>
      </trkpt>
      <trkpt lat="59.9675838" lon="17.7162531">
        <ele>17.9218</ele>
        <time>2013-05-18T18:58:30Z</time>
      </trkpt>
      <trkpt lat="59.9676291" lon="17.7163588">
        <ele>18.8831</ele>
        <time>2013-05-18T18:58:31Z</time>
      </trkpt>
      <trkpt lat="59.9676709" lon="17.7164562">
        <ele>19.8444</ele>
        <time>2013-05-18T18:58:32Z</time>
      </trkpt>
      <trkpt lat="59.9677181" lon="17.7165514">
        <ele>21.2864</ele>
        <time>2013-05-18T18:58:33Z</time>
      </trkpt>
      <trkpt lat="59.967764" lon="17.716637">
        <ele>22.2476</ele>
        <time>2013-05-18T18:58:34Z</time>
      </trkpt>
      <trkpt lat="59.9678121" lon="17.7167178">
        <ele>23.209</ele>
        <time>2013-05-18T18:58:35Z</time>
      </trkpt>
      <trkpt lat="59.9678588" lon="17.7167934">
        <ele>23.209</ele>
        <time>2013-05-18T18:58:36Z</time>
      </trkpt>
      <trkpt lat="59.9679075" lon="17.7168659">
        <ele>23.6896</ele>
        <time>2013-05-18T18:58:37Z</time>
      </trkpt>
      <trkpt lat="59.9679594" lon="17.7169321">
        <ele>24.1703</ele>
        <time>2013-05-18T18:58:38Z</time>
      </trkpt>
      <trkpt lat="59.9680107" lon="17.7169954">
        <ele>25.1317</ele>
        <time>2013-05-18T18:58:39Z</time>
      </trkpt>
      <trkpt lat="59.9680551" lon="17.7170637">
        <ele>24.1703</ele>
        <time>2013-05-18T18:58:40Z</time>
      </trkpt>
      <trkpt lat="59.9681133" lon="17.7171134">
        <ele>25.1317</ele>
        <time>2013-05-18T18:58:41Z</time>
      </trkpt>
      <trkpt lat="59.9681703" lon="17.7171571">
        <ele>25.6123</ele>
        <time>2013-05-18T18:58:42Z</time>
      </trkpt>
      <trkpt lat="59.9682292" lon="17.7171973">
        <ele>26.0929</ele>
        <time>2013-05-18T18:58:43Z</time>
      </trkpt>
      <trkpt lat="59.9682933" lon="17.7172405">
        <ele>26.5736</ele>
        <time>2013-05-18T18:58:44Z</time>
      </trkpt>
      <trkpt lat="59.9683556" lon="17.7172825">
        <ele>27.0543</ele>
        <time>2013-05-18T18:58:45Z</time>
      </trkpt>
      <trkpt lat="59.9684208" lon="17.7173154">
        <ele>28.4962</ele>
        <time>2013-05-18T18:58:46Z</time>
      </trkpt>
      <trkpt lat="59.9684832" lon="17.7173503">
        <ele>29.4575</ele>
        <time>2013-05-18T18:58:47Z</time>
      </trkpt>
      <trkpt lat="59.9685511" lon="17.7173758">
        <ele>29.9381</ele>
        <time>2013-05-18T18:58:48Z</time>
      </trkpt>
      <trkpt lat="59.9686233" lon="17.7173928">
        <ele>29.9381</ele>
        <time>2013-05-18T18:58:49Z</time>
      </trkpt>
      <trkpt lat="59.9686825" lon="17.7174226">
        <ele>29.9381</ele>
        <time>2013-05-18T18:58:50Z</time>
      </trkpt>
      <trkpt lat="59.9687472" lon="17.7174379">
        <ele>31.3801</ele>
        <time>2013-05-18T18:58:51Z</time>
      </trkpt>
      <trkpt lat="59.9688089" lon="17.7174496">
        <ele>31.8607</ele>
        <time>2013-05-18T18:58:52Z</time>
      </trkpt>
      <trkpt lat="59.9688737" lon="17.7174408">
        <ele>31.8607</ele>
        <time>2013-05-18T18:58:53Z</time>
      </trkpt>
      <trkpt lat="59.968944" lon="17.7174166">
        <ele>32.3416</ele>
        <time>2013-05-18T18:58:54Z</time>
      </trkpt>
      <trkpt lat="59.9690115" lon="17.7174051">
        <ele>32.3416</ele>
        <time>2013-05-18T18:58:55Z</time>
      </trkpt>
      <trkpt lat="59.9690743" lon="17.7174073">
        <ele>32.3416</ele>
        <time>2013-05-18T18:58:56Z</time>
      </trkpt>
      <trkpt lat="59.9691327" lon="17.7174259">
        <ele>32.8223</ele>
        <time>2013-05-18T18:58:57Z</time>
      </trkpt>
      <trkpt lat="59.9691909" lon="17.7174482">
        <ele>32.8223</ele>
        <time>2013-05-18T18:58:58Z</time>
      </trkpt>
      <trkpt lat="59.9692498" lon="17.7174708">
        <ele>32.8223</ele>
        <time>2013-05-18T18:58:59Z</time>
      </trkpt>
      <trkpt lat="59.9693098" lon="17.7174964">
        <ele>33.3029</ele>
        <time>2013-05-18T18:59:00Z</time>
      </trkpt>
      <trkpt lat="59.9693684" lon="17.7175285">
        <ele>32.8223</ele>
        <time>2013-05-18T18:59:01Z</time>
      </trkpt>
      <trkpt lat="59.969428" lon="17.7175632">
        <ele>32.3416</ele>
        <time>2013-05-18T18:59:02Z</time>
      </trkpt>
      <trkpt lat="59.9694902" lon="17.7176001">
        <ele>31.8607</ele>
        <time>2013-05-18T18:59:03Z</time>
      </trkpt>
      <trkpt lat="59.9695533" lon="17.7176396">
        <ele>31.8607</ele>
        <time>2013-05-18T18:59:04Z</time>
      </trkpt>
      <trkpt lat="59.9696164" lon="17.7176821">
        <ele>31.3801</ele>
        <time>2013-05-18T18:59:05Z</time>
      </trkpt>
      <trkpt lat="59.969679" lon="17.717727">
        <ele>31.3801</ele>
        <time>2013-05-18T18:59:06Z</time>
      </trkpt>
      <trkpt lat="59.9697404" lon="17.717774">
        <ele>31.3801</ele>
        <time>2013-05-18T18:59:07Z</time>
      </trkpt>
      <trkpt lat="59.9698004" lon="17.7178237">
        <ele>31.3801</ele>
        <time>2013-05-18T18:59:08Z</time>
      </trkpt>
      <trkpt lat="59.9698606" lon="17.7178745">
        <ele>31.3801</ele>
        <time>2013-05-18T18:59:09Z</time>
      </trkpt>
      <trkpt lat="59.9699241" lon="17.7179289">
        <ele>31.8607</ele>
        <time>2013-05-18T18:59:10Z</time>
      </trkpt>
      <trkpt lat="59.9699863" lon="17.7179915">
        <ele>32.3416</ele>
        <time>2013-05-18T18:59:11Z</time>
      </trkpt>
      <trkpt lat="59.9700505" lon="17.718046">
        <ele>32.3416</ele>
        <time>2013-05-18T18:59:12Z</time>
      </trkpt>
      <trkpt lat="59.9701174" lon="17.7180974">
        <ele>32.8223</ele>
        <time>2013-05-18T18:59:13Z</time>
      </trkpt>
      <trkpt lat="59.9701786" lon="17.7181531">
        <ele>32.8223</ele>
        <time>2013-05-18T18:59:14Z</time>
      </trkpt>
      <trkpt lat="59.9702413" lon="17.7182072">
        <ele>32.3416</ele>
        <time>2013-05-18T18:59:15Z</time>
      </trkpt>
      <trkpt lat="59.9703033" lon="17.7182626">
        <ele>32.3416</ele>
        <time>2013-05-18T18:59:16Z</time>
      </trkpt>
      <trkpt lat="59.9703645" lon="17.7183173">
        <ele>32.3416</ele>
        <time>2013-05-18T18:59:17Z</time>
      </trkpt>
      <trkpt lat="59.9704244" lon="17.7183727">
        <ele>32.3416</ele>
        <time>2013-05-18T18:59:18Z</time>
      </trkpt>
      <trkpt lat="59.9704895" lon="17.7184236">
        <ele>32.8223</ele>
        <time>2013-05-18T18:59:19Z</time>
      </trkpt>
      <trkpt lat="59.9705516" lon="17.7184759">
        <ele>33.3029</ele>
        <time>2013-05-18T18:59:20Z</time>
      </trkpt>
      <trkpt lat="59.9706104" lon="17.7185351">
        <ele>32.8223</ele>
        <time>2013-05-18T18:59:21Z</time>
      </trkpt>
      <trkpt lat="59.9706715" lon="17.7185923">
        <ele>32.8223</ele>
        <time>2013-05-18T18:59:22Z</time>
      </trkpt>
      <trkpt lat="59.970734" lon="17.7186474">
        <ele>32.8223</ele>
        <time>2013-05-18T18:59:23Z</time>
      </trkpt>
      <trkpt lat="59.970794" lon="17.7187062">
        <ele>32.8223</ele>
        <time>2013-05-18T18:59:24Z</time>
      </trkpt>
      <trkpt lat="59.9708499" lon="17.7187712">
        <ele>32.3416</ele>
        <time>2013-05-18T18:59:25Z</time>
      </trkpt>
      <trkpt lat="59.9709064" lon="17.718835">
        <ele>31.8607</ele>
        <time>2013-05-18T18:59:26Z</time>
      </trkpt>
      <trkpt lat="59.970967" lon="17.7188964">
        <ele>31.8607</ele>
        <time>2013-05-18T18:59:27Z</time>
      </trkpt>
      <trkpt lat="59.9710269" lon="17.7189544">
        <ele>31.3801</ele>
        <time>2013-05-18T18:59:28Z</time>
      </trkpt>
      <trkpt lat="59.9710875" lon="17.7190132">
        <ele>30.8995</ele>
        <time>2013-05-18T18:59:29Z</time>
      </trkpt>
      <trkpt lat="59.9711483" lon="17.7190715">
        <ele>30.4188</ele>
        <time>2013-05-18T18:59:30Z</time>
      </trkpt>
      <trkpt lat="59.9712099" lon="17.7191267">
        <ele>29.9381</ele>
        <time>2013-05-18T18:59:31Z</time>
      </trkpt>
      <trkpt lat="59.9712736" lon="17.7191798">
        <ele>29.9381</ele>
        <time>2013-05-18T18:59:32Z</time>
      </trkpt>
      <trkpt lat="59.9713363" lon="17.7192315">
        <ele>29.9381</ele>
        <time>2013-05-18T18:59:33Z</time>
      </trkpt>
      <trkpt lat="59.9714011" lon="17.719284">
        <ele>29.9381</ele>
        <time>2013-05-18T18:59:34Z</time>
      </trkpt>
      <trkpt lat="59.9714621" lon="17.7193384">
        <ele>29.9381</ele>
        <time>2013-05-18T18:59:35Z</time>
      </trkpt>
      <trkpt lat="59.9715229" lon="17.719396">
        <ele>29.9381</ele>
        <time>2013-05-18T18:59:36Z</time>
      </trkpt>
      <trkpt lat="59.9715772" lon="17.7194564">
        <ele>30.4188</ele>
        <time>2013-05-18T18:59:37Z</time>
      </trkpt>
      <trkpt lat="59.9716357" lon="17.7195109">
        <ele>30.4188</ele>
        <time>2013-05-18T18:59:38Z</time>
      </trkpt>
      <trkpt lat="59.9716922" lon="17.7195669">
        <ele>31.3801</ele>
        <time>2013-05-18T18:59:39Z</time>
      </trkpt>
      <trkpt lat="59.9717575" lon="17.7196122">
        <ele>30.8995</ele>
        <time>2013-05-18T18:59:40Z</time>
      </trkpt>
      <trkpt lat="59.9718186" lon="17.7196651">
        <ele>30.4188</ele>
        <time>2013-05-18T18:59:41Z</time>
      </trkpt>
      <trkpt lat="59.9718787" lon="17.7197233">
        <ele>30.8995</ele>
        <time>2013-05-18T18:59:42Z</time>
      </trkpt>
      <trkpt lat="59.9719448" lon="17.7197736">
        <ele>32.8223</ele>
        <time>2013-05-18T18:59:43Z</time>
      </trkpt>
      <trkpt lat="59.972006" lon="17.7198311">
        <ele>32.3416</ele>
        <time>2013-05-18T18:59:44Z</time>
      </trkpt>
      <trkpt lat="59.972075" lon="17.7198792">
        <ele>32.8223</ele>
        <time>2013-05-18T18:59:45Z</time>
      </trkpt>
      <trkpt lat="59.9721332" lon="17.7199366">
        <ele>32.8223</ele>
        <time>2013-05-18T18:59:46Z</time>
      </trkpt>
      <trkpt lat="59.9721931" lon="17.7199889">
        <ele>32.3416</ele>
        <time>2013-05-18T18:59:47Z</time>
      </trkpt>
      <trkpt lat="59.9722557" lon="17.7200455">
        <ele>32.3416</ele>
        <time>2013-05-18T18:59:48Z</time>
      </trkpt>
      <trkpt lat="59.972319" lon="17.7200963">
        <ele>31.3801</ele>
        <time>2013-05-18T18:59:49Z</time>
      </trkpt>
      <trkpt lat="59.9723837" lon="17.7201522">
        <ele>31.3801</ele>
        <time>2013-05-18T18:59:50Z</time>
      </trkpt>
      <trkpt lat="59.9724528" lon="17.720203">
        <ele>31.8607</ele>
        <time>2013-05-18T18:59:51Z</time>
      </trkpt>
      <trkpt lat="59.9725175" lon="17.7202583">
        <ele>32.3416</ele>
        <time>2013-05-18T18:59:52Z</time>
      </trkpt>
      <trkpt lat="59.9725781" lon="17.7203117">
        <ele>32.3416</ele>
        <time>2013-05-18T18:59:53Z</time>
      </trkpt>
      <trkpt lat="59.9726392" lon="17.7203635">
        <ele>31.3801</ele>
        <time>2013-05-18T18:59:54Z</time>
      </trkpt>
      <trkpt lat="59.9727061" lon="17.7204074">
        <ele>30.8995</ele>
        <time>2013-05-18T18:59:55Z</time>
      </trkpt>
      <trkpt lat="59.9727596" lon="17.7204766">
        <ele>31.3801</ele>
        <time>2013-05-18T18:59:56Z</time>
      </trkpt>
      <trkpt lat="59.972807" lon="17.7205531">
        <ele>30.4188</ele>
        <time>2013-05-18T18:59:57Z</time>
      </trkpt>
      <trkpt lat="59.9728577" lon="17.7206294">
        <ele>29.4575</ele>
        <time>2013-05-18T18:59:58Z</time>
      </trkpt>
      <trkpt lat="59.9729204" lon="17.7206951">
        <ele>29.9381</ele>
        <time>2013-05-18T18:59:59Z</time>
      </trkpt>
      <trkpt lat="59.9729756" lon="17.7207731">
        <ele>29.9381</ele>
        <time>2013-05-18T19:00:00Z</time>
      </trkpt>
      <trkpt lat="59.9730378" lon="17.7208441">
        <ele>30.4188</ele>
        <time>2013-05-18T19:00:01Z</time>
      </trkpt>
      <trkpt lat="59.9730877" lon="17.720926">
        <ele>30.8995</ele>
        <time>2013-05-18T19:00:02Z</time>
      </trkpt>
      <trkpt lat="59.973142" lon="17.7210131">
        <ele>32.3416</ele>
        <time>2013-05-18T19:00:03Z</time>
      </trkpt>
      <trkpt lat="59.9731955" lon="17.721095">
        <ele>33.3029</ele>
        <time>2013-05-18T19:00:04Z</time>
      </trkpt>
      <trkpt lat="59.9732499" lon="17.7211697">
        <ele>33.7834</ele>
        <time>2013-05-18T19:00:05Z</time>
      </trkpt>
      <trkpt lat="59.9732974" lon="17.7212473">
        <ele>33.7834</ele>
        <time>2013-05-18T19:00:06Z</time>
      </trkpt>
      <trkpt lat="59.9733488" lon="17.7213111">
        <ele>34.2642</ele>
        <time>2013-05-18T19:00:07Z</time>
      </trkpt>
      <trkpt lat="59.9733985" lon="17.7213766">
        <ele>34.2642</ele>
        <time>2013-05-18T19:00:08Z</time>
      </trkpt>
      <trkpt lat="59.9734401" lon="17.7214585">
        <ele>33.7834</ele>
        <time>2013-05-18T19:00:09Z</time>
      </trkpt>
      <trkpt lat="59.9734768" lon="17.7215643">
        <ele>32.8223</ele>
        <time>2013-05-18T19:00:10Z</time>
      </trkpt>
      <trkpt lat="59.9735136" lon="17.7216734">
        <ele>31.8607</ele>
        <time>2013-05-18T19:00:11Z</time>
      </trkpt>
      <trkpt lat="59.9735492" lon="17.7217884">
        <ele>30.8995</ele>
        <time>2013-05-18T19:00:12Z</time>
      </trkpt>
      <trkpt lat="59.9735854" lon="17.7219057">
        <ele>30.4188</ele>
        <time>2013-05-18T19:00:13Z</time>
      </trkpt>
      <trkpt lat="59.9736234" lon="17.7220331">
        <ele>30.8995</ele>
        <time>2013-05-18T19:00:14Z</time>
      </trkpt>
      <trkpt lat="59.9736653" lon="17.7221609">
        <ele>31.3801</ele>
        <time>2013-05-18T19:00:15Z</time>
      </trkpt>
      <trkpt lat="59.9737062" lon="17.7222843">
        <ele>31.8607</ele>
        <time>2013-05-18T19:00:16Z</time>
      </trkpt>
      <trkpt lat="59.9737446" lon="17.7224045">
        <ele>31.8607</ele>
        <time>2013-05-18T19:00:17Z</time>
      </trkpt>
      <trkpt lat="59.9737819" lon="17.7225215">
        <ele>30.8995</ele>
        <time>2013-05-18T19:00:18Z</time>
      </trkpt>
      <trkpt lat="59.9738176" lon="17.7226386">
        <ele>29.9381</ele>
        <time>2013-05-18T19:00:19Z</time>
      </trkpt>
      <trkpt lat="59.9738545" lon="17.7227624">
        <ele>30.8995</ele>
        <time>2013-05-18T19:00:20Z</time>
      </trkpt>
      <trkpt lat="59.9738866" lon="17.7228794">
        <ele>31.3801</ele>
        <time>2013-05-18T19:00:21Z</time>
      </trkpt>
      <trkpt lat="59.97392" lon="17.7229876">
        <ele>31.8607</ele>
        <time>2013-05-18T19:00:22Z</time>
      </trkpt>
      <trkpt lat="59.9739456" lon="17.7231049">
        <ele>32.3416</ele>
        <time>2013-05-18T19:00:23Z</time>
      </trkpt>
      <trkpt lat="59.9739643" lon="17.7232337">
        <ele>32.3416</ele>
        <time>2013-05-18T19:00:24Z</time>
      </trkpt>
      <trkpt lat="59.9739863" lon="17.7233548">
        <ele>32.3416</ele>
        <time>2013-05-18T19:00:25Z</time>
      </trkpt>
      <trkpt lat="59.9740082" lon="17.7234737">
        <ele>31.3801</ele>
        <time>2013-05-18T19:00:26Z</time>
      </trkpt>
      <trkpt lat="59.9740311" lon="17.7235856">
        <ele>30.4188</ele>
        <time>2013-05-18T19:00:27Z</time>
      </trkpt>
      <trkpt lat="59.9740486" lon="17.7237052">
        <ele>29.4575</ele>
        <time>2013-05-18T19:00:28Z</time>
      </trkpt>
      <trkpt lat="59.9740622" lon="17.7238285">
        <ele>28.4962</ele>
        <time>2013-05-18T19:00:29Z</time>
      </trkpt>
      <trkpt lat="59.9740792" lon="17.7239471">
        <ele>28.0155</ele>
        <time>2013-05-18T19:00:30Z</time>
      </trkpt>
      <trkpt lat="59.9740983" lon="17.7240659">
        <ele>28.0155</ele>
        <time>2013-05-18T19:00:31Z</time>
      </trkpt>
      <trkpt lat="59.9741168" lon="17.7241831">
        <ele>28.0155</ele>
        <time>2013-05-18T19:00:32Z</time>
      </trkpt>
      <trkpt lat="59.9741349" lon="17.7242969">
        <ele>28.0155</ele>
        <time>2013-05-18T19:00:33Z</time>
      </trkpt>
      <trkpt lat="59.9741599" lon="17.7244232">
        <ele>29.4575</ele>
        <time>2013-05-18T19:00:34Z</time>
      </trkpt>
      <trkpt lat="59.9741767" lon="17.7245429">
        <ele>29.4575</ele>
        <time>2013-05-18T19:00:35Z</time>
      </trkpt>
      <trkpt lat="59.9741937" lon="17.7246636">
        <ele>29.4575</ele>
        <time>2013-05-18T19:00:36Z</time>
      </trkpt>
      <trkpt lat="59.9742139" lon="17.7247779">
        <ele>29.4575</ele>
        <time>2013-05-18T19:00:37Z</time>
      </trkpt>
      <trkpt lat="59.9742329" lon="17.724893">
        <ele>29.9381</ele>
        <time>2013-05-18T19:00:38Z</time>
      </trkpt>
      <trkpt lat="59.9742513" lon="17.7250049">
        <ele>29.9381</ele>
        <time>2013-05-18T19:00:39Z</time>
      </trkpt>
      <trkpt lat="59.974264" lon="17.7251298">
        <ele>29.9381</ele>
        <time>2013-05-18T19:00:40Z</time>
      </trkpt>
      <trkpt lat="59.9742761" lon="17.7252592">
        <ele>29.9381</ele>
        <time>2013-05-18T19:00:41Z</time>
      </trkpt>
      <trkpt lat="59.97428" lon="17.7253858">
        <ele>28.9769</ele>
        <time>2013-05-18T19:00:42Z</time>
      </trkpt>
      <trkpt lat="59.9742823" lon="17.7255017">
        <ele>27.5349</ele>
        <time>2013-05-18T19:00:43Z</time>
      </trkpt>
      <trkpt lat="59.9742876" lon="17.7256246">
        <ele>27.0543</ele>
        <time>2013-05-18T19:00:44Z</time>
      </trkpt>
      <trkpt lat="59.9742964" lon="17.7257395">
        <ele>26.5736</ele>
        <time>2013-05-18T19:00:45Z</time>
      </trkpt>
      <trkpt lat="59.9743085" lon="17.7258482">
        <ele>26.5736</ele>
        <time>2013-05-18T19:00:46Z</time>
      </trkpt>
      <trkpt lat="59.9743196" lon="17.7259661">
        <ele>26.5736</ele>
        <time>2013-05-18T19:00:47Z</time>
      </trkpt>
      <trkpt lat="59.974331" lon="17.7260853">
        <ele>26.0929</ele>
        <time>2013-05-18T19:00:48Z</time>
      </trkpt>
      <trkpt lat="59.9743341" lon="17.7262123">
        <ele>25.6123</ele>
        <time>2013-05-18T19:00:49Z</time>
      </trkpt>
      <trkpt lat="59.9743386" lon="17.7263298">
        <ele>25.1317</ele>
        <time>2013-05-18T19:00:50Z</time>
      </trkpt>
      <trkpt lat="59.9743411" lon="17.7264516">
        <ele>24.651</ele>
        <time>2013-05-18T19:00:51Z</time>
      </trkpt>
      <trkpt lat="59.9743434" lon="17.7265714">
        <ele>24.1703</ele>
        <time>2013-05-18T19:00:52Z</time>
      </trkpt>
      <trkpt lat="59.9743461" lon="17.7266912">
        <ele>23.6896</ele>
        <time>2013-05-18T19:00:53Z</time>
      </trkpt>
      <trkpt lat="59.9743506" lon="17.7268159">
        <ele>23.6896</ele>
        <time>2013-05-18T19:00:54Z</time>
      </trkpt>
      <trkpt lat="59.9743548" lon="17.7269463">
        <ele>23.209</ele>
        <time>2013-05-18T19:00:55Z</time>
      </trkpt>
      <trkpt lat="59.9743558" lon="17.7270785">
        <ele>22.2476</ele>
        <time>2013-05-18T19:00:56Z</time>
      </trkpt>
      <trkpt lat="59.9743554" lon="17.7272208">
        <ele>22.2476</ele>
        <time>2013-05-18T19:00:57Z</time>
      </trkpt>
      <trkpt lat="59.9743596" lon="17.7273614">
        <ele>21.767</ele>
        <time>2013-05-18T19:00:58Z</time>
      </trkpt>
      <trkpt lat="59.9743646" lon="17.7275029">
        <ele>21.767</ele>
        <time>2013-05-18T19:00:59Z</time>
      </trkpt>
      <trkpt lat="59.9743724" lon="17.7276421">
        <ele>21.767</ele>
        <time>2013-05-18T19:01:00Z</time>
      </trkpt>
      <trkpt lat="59.9743758" lon="17.7277726">
        <ele>21.2864</ele>
        <time>2013-05-18T19:01:01Z</time>
      </trkpt>
      <trkpt lat="59.9743775" lon="17.7279099">
        <ele>20.8057</ele>
        <time>2013-05-18T19:01:02Z</time>
      </trkpt>
      <trkpt lat="59.9743789" lon="17.7280543">
        <ele>20.325</ele>
        <time>2013-05-18T19:01:03Z</time>
      </trkpt>
      <trkpt lat="59.9743779" lon="17.7282056">
        <ele>20.325</ele>
        <time>2013-05-18T19:01:04Z</time>
      </trkpt>
      <trkpt lat="59.9743777" lon="17.7283616">
        <ele>20.8057</ele>
        <time>2013-05-18T19:01:05Z</time>
      </trkpt>
      <trkpt lat="59.9743781" lon="17.7285148">
        <ele>21.2864</ele>
        <time>2013-05-18T19:01:06Z</time>
      </trkpt>
      <trkpt lat="59.9743818" lon="17.728661">
        <ele>21.2864</ele>
        <time>2013-05-18T19:01:07Z</time>
      </trkpt>
      <trkpt lat="59.9743858" lon="17.7288106">
        <ele>22.2476</ele>
        <time>2013-05-18T19:01:08Z</time>
      </trkpt>
      <trkpt lat="59.974392" lon="17.7289535">
        <ele>22.7283</ele>
        <time>2013-05-18T19:01:09Z</time>
      </trkpt>
      <trkpt lat="59.9743983" lon="17.7290887">
        <ele>22.7283</ele>
        <time>2013-05-18T19:01:10Z</time>
      </trkpt>
      <trkpt lat="59.9744049" lon="17.7292241">
        <ele>23.209</ele>
        <time>2013-05-18T19:01:11Z</time>
      </trkpt>
      <trkpt lat="59.9744079" lon="17.7293588">
        <ele>23.6896</ele>
        <time>2013-05-18T19:01:12Z</time>
      </trkpt>
      <trkpt lat="59.974407" lon="17.7294925">
        <ele>23.6896</ele>
        <time>2013-05-18T19:01:13Z</time>
      </trkpt>
      <trkpt lat="59.9744025" lon="17.729625">
        <ele>24.1703</ele>
        <time>2013-05-18T19:01:14Z</time>
      </trkpt>
      <trkpt lat="59.9743965" lon="17.7297567">
        <ele>24.651</ele>
        <time>2013-05-18T19:01:15Z</time>
      </trkpt>
      <trkpt lat="59.974389" lon="17.7298875">
        <ele>25.1317</ele>
        <time>2013-05-18T19:01:16Z</time>
      </trkpt>
      <trkpt lat="59.9743779" lon="17.7300214">
        <ele>25.1317</ele>
        <time>2013-05-18T19:01:17Z</time>
      </trkpt>
      <trkpt lat="59.9743739" lon="17.7301565">
        <ele>26.5736</ele>
        <time>2013-05-18T19:01:18Z</time>
      </trkpt>
      <trkpt lat="59.9743676" lon="17.7302907">
        <ele>27.5349</ele>
        <time>2013-05-18T19:01:19Z</time>
      </trkpt>
      <trkpt lat="59.9743614" lon="17.7304243">
        <ele>28.0155</ele>
        <time>2013-05-18T19:01:20Z</time>
      </trkpt>
      <trkpt lat="59.9743546" lon="17.730558">
        <ele>28.4962</ele>
        <time>2013-05-18T19:01:21Z</time>
      </trkpt>
      <trkpt lat="59.9743451" lon="17.730689">
        <ele>29.4575</ele>
        <time>2013-05-18T19:01:22Z</time>
      </trkpt>
      <trkpt lat="59.9743377" lon="17.7308179">
        <ele>29.9381</ele>
        <time>2013-05-18T19:01:23Z</time>
      </trkpt>
      <trkpt lat="59.9743335" lon="17.7309465">
        <ele>30.4188</ele>
        <time>2013-05-18T19:01:24Z</time>
      </trkpt>
      <trkpt lat="59.9743347" lon="17.7310687">
        <ele>30.8995</ele>
        <time>2013-05-18T19:01:25Z</time>
      </trkpt>
      <trkpt lat="59.9743336" lon="17.7311946">
        <ele>31.3801</ele>
        <time>2013-05-18T19:01:26Z</time>
      </trkpt>
      <trkpt lat="59.9743294" lon="17.7313249">
        <ele>31.3801</ele>
        <time>2013-05-18T19:01:27Z</time>
      </trkpt>
      <trkpt lat="59.9743356" lon="17.7314427">
        <ele>31.8607</ele>
        <time>2013-05-18T19:01:28Z</time>
      </trkpt>
      <trkpt lat="59.9743349" lon="17.7315721">
        <ele>31.8607</ele>
        <time>2013-05-18T19:01:29Z</time>
      </trkpt>
      <trkpt lat="59.9743378" lon="17.7316985">
        <ele>32.3416</ele>
        <time>2013-05-18T19:01:30Z</time>
      </trkpt>
      <trkpt lat="59.9743424" lon="17.731823">
        <ele>32.3416</ele>
        <time>2013-05-18T19:01:31Z</time>
      </trkpt>
      <trkpt lat="59.9743461" lon="17.7319474">
        <ele>31.8607</ele>
        <time>2013-05-18T19:01:32Z</time>
      </trkpt>
      <trkpt lat="59.9743531" lon="17.732069">
        <ele>31.8607</ele>
        <time>2013-05-18T19:01:33Z</time>
      </trkpt>
      <trkpt lat="59.9743604" lon="17.7321934">
        <ele>31.8607</ele>
        <time>2013-05-18T19:01:34Z</time>
      </trkpt>
      <trkpt lat="59.9743713" lon="17.7323227">
        <ele>33.7834</ele>
        <time>2013-05-18T19:01:35Z</time>
      </trkpt>
      <trkpt lat="59.9743808" lon="17.7324516">
        <ele>35.2255</ele>
        <time>2013-05-18T19:01:36Z</time>
      </trkpt>
      <trkpt lat="59.9743803" lon="17.7325694">
        <ele>34.7449</ele>
        <time>2013-05-18T19:01:37Z</time>
      </trkpt>
      <trkpt lat="59.9743855" lon="17.7326923">
        <ele>35.2255</ele>
        <time>2013-05-18T19:01:38Z</time>
      </trkpt>
      <trkpt lat="59.9743857" lon="17.7328158">
        <ele>35.7061</ele>
        <time>2013-05-18T19:01:39Z</time>
      </trkpt>
      <trkpt lat="59.9743843" lon="17.7329403">
        <ele>35.7061</ele>
        <time>2013-05-18T19:01:40Z</time>
      </trkpt>
      <trkpt lat="59.9743797" lon="17.7330658">
        <ele>35.7061</ele>
        <time>2013-05-18T19:01:41Z</time>
      </trkpt>
      <trkpt lat="59.974372" lon="17.7331909">
        <ele>35.7061</ele>
        <time>2013-05-18T19:01:42Z</time>
      </trkpt>
      <trkpt lat="59.9743635" lon="17.7333149">
        <ele>35.2255</ele>
        <time>2013-05-18T19:01:43Z</time>
      </trkpt>
      <trkpt lat="59.9743563" lon="17.7334395">
        <ele>34.2642</ele>
        <time>2013-05-18T19:01:44Z</time>
      </trkpt>
      <trkpt lat="59.9743445" lon="17.7335578">
        <ele>32.8223</ele>
        <time>2013-05-18T19:01:45Z</time>
      </trkpt>
      <trkpt lat="59.9743345" lon="17.7336728">
        <ele>31.8607</ele>
        <time>2013-05-18T19:01:46Z</time>
      </trkpt>
      <trkpt lat="59.9743299" lon="17.7337867">
        <ele>31.8607</ele>
        <time>2013-05-18T19:01:47Z</time>
      </trkpt>
      <trkpt lat="59.9743233" lon="17.7338924">
        <ele>30.8995</ele>
        <time>2013-05-18T19:01:48Z</time>
      </trkpt>
      <trkpt lat="59.9743201" lon="17.7340028">
        <ele>30.8995</ele>
        <time>2013-05-18T19:01:49Z</time>
      </trkpt>
      <trkpt lat="59.9743164" lon="17.7341079">
        <ele>30.4188</ele>
        <time>2013-05-18T19:01:50Z</time>
      </trkpt>
      <trkpt lat="59.9743164" lon="17.7342156">
        <ele>29.9381</ele>
        <time>2013-05-18T19:01:51Z</time>
      </trkpt>
      <trkpt lat="59.9743175" lon="17.7343299">
        <ele>29.9381</ele>
        <time>2013-05-18T19:01:52Z</time>
      </trkpt>
      <trkpt lat="59.9743242" lon="17.7344374">
        <ele>29.9381</ele>
        <time>2013-05-18T19:01:53Z</time>
      </trkpt>
      <trkpt lat="59.9743274" lon="17.7345558">
        <ele>29.9381</ele>
        <time>2013-05-18T19:01:54Z</time>
      </trkpt>
      <trkpt lat="59.9743326" lon="17.7346745">
        <ele>29.4575</ele>
        <time>2013-05-18T19:01:55Z</time>
      </trkpt>
      <trkpt lat="59.9743393" lon="17.7347935">
        <ele>29.4575</ele>
        <time>2013-05-18T19:01:56Z</time>
      </trkpt>
      <trkpt lat="59.9743487" lon="17.7349146">
        <ele>29.4575</ele>
        <time>2013-05-18T19:01:57Z</time>
      </trkpt>
      <trkpt lat="59.9743606" lon="17.7350362">
        <ele>29.9381</ele>
        <time>2013-05-18T19:01:58Z</time>
      </trkpt>
      <trkpt lat="59.9743744" lon="17.7351557">
        <ele>30.4188</ele>
        <time>2013-05-18T19:01:59Z</time>
      </trkpt>
      <trkpt lat="59.9743883" lon="17.7352714">
        <ele>30.4188</ele>
        <time>2013-05-18T19:02:00Z</time>
      </trkpt>
      <trkpt lat="59.9744024" lon="17.7353836">
        <ele>30.8995</ele>
        <time>2013-05-18T19:02:01Z</time>
      </trkpt>
      <trkpt lat="59.9744175" lon="17.7354925">
        <ele>30.8995</ele>
        <time>2013-05-18T19:02:02Z</time>
      </trkpt>
      <trkpt lat="59.9744346" lon="17.7355997">
        <ele>30.8995</ele>
        <time>2013-05-18T19:02:03Z</time>
      </trkpt>
      <trkpt lat="59.9744522" lon="17.7357064">
        <ele>31.3801</ele>
        <time>2013-05-18T19:02:04Z</time>
      </trkpt>
      <trkpt lat="59.9744691" lon="17.735811">
        <ele>31.3801</ele>
        <time>2013-05-18T19:02:05Z</time>
      </trkpt>
      <trkpt lat="59.9744859" lon="17.7359127">
        <ele>31.3801</ele>
        <time>2013-05-18T19:02:06Z</time>
      </trkpt>
      <trkpt lat="59.9745046" lon="17.736013">
        <ele>31.3801</ele>
        <time>2013-05-18T19:02:07Z</time>
      </trkpt>
      <trkpt lat="59.9745243" lon="17.7361119">
        <ele>31.3801</ele>
        <time>2013-05-18T19:02:08Z</time>
      </trkpt>
      <trkpt lat="59.9745459" lon="17.7362117">
        <ele>31.3801</ele>
        <time>2013-05-18T19:02:09Z</time>
      </trkpt>
      <trkpt lat="59.9745683" lon="17.7363119">
        <ele>31.3801</ele>
        <time>2013-05-18T19:02:10Z</time>
      </trkpt>
      <trkpt lat="59.9745926" lon="17.736412">
        <ele>31.3801</ele>
        <time>2013-05-18T19:02:11Z</time>
      </trkpt>
      <trkpt lat="59.9746185" lon="17.7365116">
        <ele>30.8995</ele>
        <time>2013-05-18T19:02:12Z</time>
      </trkpt>
      <trkpt lat="59.9746454" lon="17.7366109">
        <ele>30.8995</ele>
        <time>2013-05-18T19:02:13Z</time>
      </trkpt>
      <trkpt lat="59.9746742" lon="17.7367103">
        <ele>31.3801</ele>
        <time>2013-05-18T19:02:14Z</time>
      </trkpt>
      <trkpt lat="59.9747033" lon="17.7368078">
        <ele>31.3801</ele>
        <time>2013-05-18T19:02:15Z</time>
      </trkpt>
      <trkpt lat="59.9747334" lon="17.736905">
        <ele>31.3801</ele>
        <time>2013-05-18T19:02:16Z</time>
      </trkpt>
      <trkpt lat="59.9747649" lon="17.7370005">
        <ele>31.3801</ele>
        <time>2013-05-18T19:02:17Z</time>
      </trkpt>
      <trkpt lat="59.974798" lon="17.7370937">
        <ele>31.3801</ele>
        <time>2013-05-18T19:02:18Z</time>
      </trkpt>
      <trkpt lat="59.9748328" lon="17.7371854">
        <ele>31.3801</ele>
        <time>2013-05-18T19:02:19Z</time>
      </trkpt>
      <trkpt lat="59.9748685" lon="17.7372731">
        <ele>31.3801</ele>
        <time>2013-05-18T19:02:20Z</time>
      </trkpt>
      <trkpt lat="59.9749034" lon="17.7373637">
        <ele>31.8607</ele>
        <time>2013-05-18T19:02:21Z</time>
      </trkpt>
      <trkpt lat="59.9749389" lon="17.7374513">
        <ele>31.8607</ele>
        <time>2013-05-18T19:02:22Z</time>
      </trkpt>
      <trkpt lat="59.9749733" lon="17.7375432">
        <ele>31.8607</ele>
        <time>2013-05-18T19:02:23Z</time>
      </trkpt>
      <trkpt lat="59.9750099" lon="17.7376299">
        <ele>32.3416</ele>
        <time>2013-05-18T19:02:24Z</time>
      </trkpt>
      <trkpt lat="59.9750469" lon="17.737713">
        <ele>32.3416</ele>
        <time>2013-05-18T19:02:25Z</time>
      </trkpt>
      <trkpt lat="59.9750831" lon="17.7377971">
        <ele>32.8223</ele>
        <time>2013-05-18T19:02:26Z</time>
      </trkpt>
      <trkpt lat="59.9751212" lon="17.7378783">
        <ele>33.3029</ele>
        <time>2013-05-18T19:02:27Z</time>
      </trkpt>
      <trkpt lat="59.975163" lon="17.7379539">
        <ele>33.3029</ele>
        <time>2013-05-18T19:02:28Z</time>
      </trkpt>
      <trkpt lat="59.9752137" lon="17.7380168">
        <ele>33.7834</ele>
        <time>2013-05-18T19:02:29Z</time>
      </trkpt>
      <trkpt lat="59.9752587" lon="17.7380874">
        <ele>33.7834</ele>
        <time>2013-05-18T19:02:30Z</time>
      </trkpt>
      <trkpt lat="59.9753054" lon="17.7381572">
        <ele>33.7834</ele>
        <time>2013-05-18T19:02:31Z</time>
      </trkpt>
      <trkpt lat="59.9753473" lon="17.7382421">
        <ele>33.7834</ele>
        <time>2013-05-18T19:02:32Z</time>
      </trkpt>
      <trkpt lat="59.975394" lon="17.7383161">
        <ele>34.2642</ele>
        <time>2013-05-18T19:02:33Z</time>
      </trkpt>
      <trkpt lat="59.9754374" lon="17.7383953">
        <ele>34.2642</ele>
        <time>2013-05-18T19:02:34Z</time>
      </trkpt>
      <trkpt lat="59.9754794" lon="17.7384747">
        <ele>33.7834</ele>
        <time>2013-05-18T19:02:35Z</time>
      </trkpt>
      <trkpt lat="59.9755193" lon="17.7385431">
        <ele>32.8223</ele>
        <time>2013-05-18T19:02:36Z</time>
      </trkpt>
      <trkpt lat="59.9755493" lon="17.7386048">
        <ele>30.8995</ele>
        <time>2013-05-18T19:02:37Z</time>
      </trkpt>
      <trkpt lat="59.9755843" lon="17.738672">
        <ele>29.4575</ele>
        <time>2013-05-18T19:02:38Z</time>
      </trkpt>
      <trkpt lat="59.9756229" lon="17.7387435">
        <ele>28.9769</ele>
        <time>2013-05-18T19:02:39Z</time>
      </trkpt>
      <trkpt lat="59.9756633" lon="17.7388134">
        <ele>28.0155</ele>
        <time>2013-05-18T19:02:40Z</time>
      </trkpt>
      <trkpt lat="59.9757059" lon="17.7388786">
        <ele>27.5349</ele>
        <time>2013-05-18T19:02:41Z</time>
      </trkpt>
      <trkpt lat="59.975756" lon="17.7389398">
        <ele>28.0155</ele>
        <time>2013-05-18T19:02:42Z</time>
      </trkpt>
      <trkpt lat="59.9758036" lon="17.7390015">
        <ele>28.4962</ele>
        <time>2013-05-18T19:02:43Z</time>
      </trkpt>
      <trkpt lat="59.9758487" lon="17.7390642">
        <ele>29.4575</ele>
        <time>2013-05-18T19:02:44Z</time>
      </trkpt>
      <trkpt lat="59.9758947" lon="17.7391233">
        <ele>30.4188</ele>
        <time>2013-05-18T19:02:45Z</time>
      </trkpt>
      <trkpt lat="59.9759405" lon="17.7391787">
        <ele>30.8995</ele>
        <time>2013-05-18T19:02:46Z</time>
      </trkpt>
      <trkpt lat="59.975986" lon="17.7392321">
        <ele>31.3801</ele>
        <time>2013-05-18T19:02:47Z</time>
      </trkpt>
      <trkpt lat="59.9760331" lon="17.7392809">
        <ele>31.8607</ele>
        <time>2013-05-18T19:02:48Z</time>
      </trkpt>
      <trkpt lat="59.9760747" lon="17.7393326">
        <ele>32.3416</ele>
        <time>2013-05-18T19:02:49Z</time>
      </trkpt>
      <trkpt lat="59.9761153" lon="17.7393793">
        <ele>32.3416</ele>
        <time>2013-05-18T19:02:50Z</time>
      </trkpt>
      <trkpt lat="59.9761533" lon="17.7394244">
        <ele>32.3416</ele>
        <time>2013-05-18T19:02:51Z</time>
      </trkpt>
      <trkpt lat="59.9761844" lon="17.7394714">
        <ele>32.3416</ele>
        <time>2013-05-18T19:02:52Z</time>
      </trkpt>
      <trkpt lat="59.9762102" lon="17.7395201">
        <ele>32.3416</ele>
        <time>2013-05-18T19:02:53Z</time>
      </trkpt>
      <trkpt lat="59.9762352" lon="17.7395649">
        <ele>31.8607</ele>
        <time>2013-05-18T19:02:54Z</time>
      </trkpt>
      <trkpt lat="59.9762616" lon="17.7396045">
        <ele>31.8607</ele>
        <time>2013-05-18T19:02:55Z</time>
      </trkpt>
      <trkpt lat="59.9762862" lon="17.739638">
        <ele>31.8607</ele>
        <time>2013-05-18T19:02:56Z</time>
      </trkpt>
      <trkpt lat="59.9763182" lon="17.7396609">
        <ele>31.8607</ele>
        <time>2013-05-18T19:02:57Z</time>
      </trkpt>
      <trkpt lat="59.9763429" lon="17.739682">
        <ele>30.8995</ele>
        <time>2013-05-18T19:02:58Z</time>
      </trkpt>
      <trkpt lat="59.9763702" lon="17.7396936">
        <ele>30.8995</ele>
        <time>2013-05-18T19:02:59Z</time>
      </trkpt>
      <trkpt lat="59.9764051" lon="17.7396836">
        <ele>30.4188</ele>
        <time>2013-05-18T19:03:00Z</time>
      </trkpt>
      <trkpt lat="59.9764368" lon="17.7396647">
        <ele>29.9381</ele>
        <time>2013-05-18T19:03:01Z</time>
      </trkpt>
      <trkpt lat="59.9764727" lon="17.7396375">
        <ele>29.4575</ele>
        <time>2013-05-18T19:03:02Z</time>
      </trkpt>
      <trkpt lat="59.9765116" lon="17.7396028">
        <ele>29.4575</ele>
        <time>2013-05-18T19:03:03Z</time>
      </trkpt>
      <trkpt lat="59.9765538" lon="17.7395564">
        <ele>28.4962</ele>
        <time>2013-05-18T19:03:04Z</time>
      </trkpt>
      <trkpt lat="59.9765982" lon="17.739509">
        <ele>28.0155</ele>
        <time>2013-05-18T19:03:05Z</time>
      </trkpt>
      <trkpt lat="59.9766423" lon="17.739467">
        <ele>28.0155</ele>
        <time>2013-05-18T19:03:06Z</time>
      </trkpt>
      <trkpt lat="59.9766903" lon="17.7394375">
        <ele>28.0155</ele>
        <time>2013-05-18T19:03:07Z</time>
      </trkpt>
      <trkpt lat="59.9767398" lon="17.7394128">
        <ele>28.0155</ele>
        <time>2013-05-18T19:03:08Z</time>
      </trkpt>
      <trkpt lat="59.9767884" lon="17.7393916">
        <ele>28.0155</ele>
        <time>2013-05-18T19:03:09Z</time>
      </trkpt>
      <trkpt lat="59.9768364" lon="17.7393702">
        <ele>27.5349</ele>
        <time>2013-05-18T19:03:10Z</time>
      </trkpt>
      <trkpt lat="59.976884" lon="17.739348">
        <ele>27.5349</ele>
        <time>2013-05-18T19:03:11Z</time>
      </trkpt>
      <trkpt lat="59.9769345" lon="17.7393331">
        <ele>27.0543</ele>
        <time>2013-05-18T19:03:12Z</time>
      </trkpt>
      <trkpt lat="59.9769867" lon="17.7393274">
        <ele>27.0543</ele>
        <time>2013-05-18T19:03:13Z</time>
      </trkpt>
      <trkpt lat="59.9770324" lon="17.7393206">
        <ele>26.5736</ele>
        <time>2013-05-18T19:03:14Z</time>
      </trkpt>
      <trkpt lat="59.9770728" lon="17.7393129">
        <ele>26.5736</ele>
        <time>2013-05-18T19:03:15Z</time>
      </trkpt>
      <trkpt lat="59.9771118" lon="17.7392998">
        <ele>26.0929</ele>
        <time>2013-05-18T19:03:16Z</time>
      </trkpt>
      <trkpt lat="59.9771515" lon="17.7392831">
        <ele>26.5736</ele>
        <time>2013-05-18T19:03:17Z</time>
      </trkpt>
      <trkpt lat="59.9771918" lon="17.7392581">
        <ele>27.0543</ele>
        <time>2013-05-18T19:03:18Z</time>
      </trkpt>
      <trkpt lat="59.9772344" lon="17.739229">
        <ele>26.5736</ele>
        <time>2013-05-18T19:03:19Z</time>
      </trkpt>
      <trkpt lat="59.9772749" lon="17.7391994">
        <ele>27.0543</ele>
        <time>2013-05-18T19:03:20Z</time>
      </trkpt>
      <trkpt lat="59.9773156" lon="17.7391679">
        <ele>27.5349</ele>
        <time>2013-05-18T19:03:21Z</time>
      </trkpt>
      <trkpt lat="59.9773581" lon="17.7391371">
        <ele>28.0155</ele>
        <time>2013-05-18T19:03:22Z</time>
      </trkpt>
      <trkpt lat="59.9773965" lon="17.7391179">
        <ele>28.0155</ele>
        <time>2013-05-18T19:03:23Z</time>
      </trkpt>
      <trkpt lat="59.9774352" lon="17.7390994">
        <ele>27.5349</ele>
        <time>2013-05-18T19:03:24Z</time>
      </trkpt>
      <trkpt lat="59.9774789" lon="17.7390739">
        <ele>28.4962</ele>
        <time>2013-05-18T19:03:25Z</time>
      </trkpt>
      <trkpt lat="59.9775193" lon="17.7390532">
        <ele>28.4962</ele>
        <time>2013-05-18T19:03:26Z</time>
      </trkpt>
      <trkpt lat="59.9775555" lon="17.7390459">
        <ele>28.4962</ele>
        <time>2013-05-18T19:03:27Z</time>
      </trkpt>
      <trkpt lat="59.977593" lon="17.7390322">
        <ele>28.9769</ele>
        <time>2013-05-18T19:03:28Z</time>
      </trkpt>
      <trkpt lat="59.9776306" lon="17.7390233">
        <ele>28.9769</ele>
        <time>2013-05-18T19:03:29Z</time>
      </trkpt>
      <trkpt lat="59.9776638" lon="17.7390238">
        <ele>28.4962</ele>
        <time>2013-05-18T19:03:30Z</time>
      </trkpt>
      <trkpt lat="59.9776907" lon="17.7390451">
        <ele>28.0155</ele>
        <time>2013-05-18T19:03:31Z</time>
      </trkpt>
      <trkpt lat="59.9777281" lon="17.7390573">
        <ele>28.4962</ele>
        <time>2013-05-18T19:03:32Z</time>
      </trkpt>
      <trkpt lat="59.9777593" lon="17.7390777">
        <ele>28.0155</ele>
        <time>2013-05-18T19:03:33Z</time>
      </trkpt>
      <trkpt lat="59.9777933" lon="17.7390938">
        <ele>28.0155</ele>
        <time>2013-05-18T19:03:34Z</time>
      </trkpt>
      <trkpt lat="59.977826" lon="17.7391101">
        <ele>28.0155</ele>
        <time>2013-05-18T19:03:35Z</time>
      </trkpt>
      <trkpt lat="59.9778648" lon="17.7391239">
        <ele>28.4962</ele>
        <time>2013-05-18T19:03:36Z</time>
      </trkpt>
      <trkpt lat="59.9779089" lon="17.7391409">
        <ele>28.9769</ele>
        <time>2013-05-18T19:03:37Z</time>
      </trkpt>
      <trkpt lat="59.9779513" lon="17.7391593">
        <ele>30.4188</ele>
        <time>2013-05-18T19:03:38Z</time>
      </trkpt>
      <trkpt lat="59.9779941" lon="17.7391792">
        <ele>29.9381</ele>
        <time>2013-05-18T19:03:39Z</time>
      </trkpt>
      <trkpt lat="59.9780415" lon="17.7391987">
        <ele>29.9381</ele>
        <time>2013-05-18T19:03:40Z</time>
      </trkpt>
      <trkpt lat="59.9780876" lon="17.7392201">
        <ele>29.9381</ele>
        <time>2013-05-18T19:03:41Z</time>
      </trkpt>
      <trkpt lat="59.9781281" lon="17.7392374">
        <ele>29.9381</ele>
        <time>2013-05-18T19:03:42Z</time>
      </trkpt>
      <trkpt lat="59.9781732" lon="17.7392386">
        <ele>29.9381</ele>
        <time>2013-05-18T19:03:43Z</time>
      </trkpt>
      <trkpt lat="59.978207" lon="17.7392547">
        <ele>29.9381</ele>
        <time>2013-05-18T19:03:44Z</time>
      </trkpt>
      <trkpt lat="59.9782448" lon="17.7392725">
        <ele>29.9381</ele>
        <time>2013-05-18T19:03:45Z</time>
      </trkpt>
      <trkpt lat="59.9782833" lon="17.7392875">
        <ele>30.4188</ele>
        <time>2013-05-18T19:03:46Z</time>
      </trkpt>
      <trkpt lat="59.9783221" lon="17.7393056">
        <ele>30.4188</ele>
        <time>2013-05-18T19:03:47Z</time>
      </trkpt>
      <trkpt lat="59.9783668" lon="17.7393237">
        <ele>30.4188</ele>
        <time>2013-05-18T19:03:48Z</time>
      </trkpt>
      <trkpt lat="59.9784202" lon="17.7393258">
        <ele>30.4188</ele>
        <time>2013-05-18T19:03:49Z</time>
      </trkpt>
      <trkpt lat="59.9784743" lon="17.7393309">
        <ele>30.4188</ele>
        <time>2013-05-18T19:03:50Z</time>
      </trkpt>
      <trkpt lat="59.9785287" lon="17.7393282">
        <ele>29.9381</ele>
        <time>2013-05-18T19:03:51Z</time>
      </trkpt>
      <trkpt lat="59.9785862" lon="17.7393191">
        <ele>30.4188</ele>
        <time>2013-05-18T19:03:52Z</time>
      </trkpt>
      <trkpt lat="59.9786372" lon="17.7393285">
        <ele>30.4188</ele>
        <time>2013-05-18T19:03:53Z</time>
      </trkpt>
      <trkpt lat="59.9786873" lon="17.7393358">
        <ele>30.8995</ele>
        <time>2013-05-18T19:03:54Z</time>
      </trkpt>
    </trkseg>
  </trk>
</gpx>